<?xml version='1.0' encoding='UTF-8'?><gpx version="1.1" creator="JPX - https://github.com/jenetics/jpx" xmlns="http://www.topografix.com/GPX/1/1"><trk><trkseg><trkpt lat="42.43373064111604" lon="18.699018112686094"><ele>19.6</ele><time>2026-05-03T06:55:56Z</time></trkpt><trkpt lat="42.43384563735671" lon="18.699077003844614"><ele>20.2</ele><time>2026-05-03T06:55:58Z</time></trkpt><trkpt lat="42.433962550694176" lon="18.699130876323665"><ele>20.8</ele><time>2026-05-03T06:56:00Z</time></trkpt><trkpt lat="42.43405378374372" lon="18.699146779950485"><ele>21.400000000000002</ele><time>2026-05-03T06:56:01Z</time></trkpt><trkpt lat="42.43412217688731" lon="18.699163300546797"><ele>22.0</ele><time>2026-05-03T06:56:02Z</time></trkpt><trkpt lat="42.43420090545552" lon="18.69918251616968"><ele>22.0</ele><time>2026-05-03T06:56:03Z</time></trkpt><trkpt lat="42.43428306993135" lon="18.69919594116463"><ele>22.0</ele><time>2026-05-03T06:56:04Z</time></trkpt><trkpt lat="42.434364240892656" lon="18.699209307588234"><ele>22.0</ele><time>2026-05-03T06:56:05Z</time></trkpt><trkpt lat="42.43444915987789" lon="18.699217012970916"><ele>22.0</ele><time>2026-05-03T06:56:06Z</time></trkpt><trkpt lat="42.43454504219325" lon="18.69921973300377"><ele>22.0</ele><time>2026-05-03T06:56:07Z</time></trkpt><trkpt lat="42.43464755157181" lon="18.699221350353525"><ele>22.0</ele><time>2026-05-03T06:56:08Z</time></trkpt><trkpt lat="42.43474973332508" lon="18.699219077443587"><ele>21.200000000000003</ele><time>2026-05-03T06:56:09Z</time></trkpt><trkpt lat="42.434851379080854" lon="18.699204468548484"><ele>20.400000000000002</ele><time>2026-05-03T06:56:10Z</time></trkpt><trkpt lat="42.434957752943326" lon="18.699184968956185"><ele>19.6</ele><time>2026-05-03T06:56:11Z</time></trkpt><trkpt lat="42.43506470478864" lon="18.699156715087756"><ele>18.8</ele><time>2026-05-03T06:56:12Z</time></trkpt><trkpt lat="42.435168738590924" lon="18.699122219159815"><ele>18.0</ele><time>2026-05-03T06:56:13Z</time></trkpt><trkpt lat="42.43524928585402" lon="18.699081777552895"><ele>18.0</ele><time>2026-05-03T06:56:14Z</time></trkpt><trkpt lat="42.43532688866962" lon="18.69902924823046"><ele>18.0</ele><time>2026-05-03T06:56:15Z</time></trkpt><trkpt lat="42.43540595530066" lon="18.698983395645776"><ele>18.0</ele><time>2026-05-03T06:56:16Z</time></trkpt><trkpt lat="42.43548558615575" lon="18.69893579122779"><ele>18.0</ele><time>2026-05-03T06:56:17Z</time></trkpt><trkpt lat="42.43556290041434" lon="18.698887441815433"><ele>18.0</ele><time>2026-05-03T06:56:18Z</time></trkpt><trkpt lat="42.435642162586795" lon="18.69882997302055"><ele>18.0</ele><time>2026-05-03T06:56:19Z</time></trkpt><trkpt lat="42.43572458675351" lon="18.698759921318345"><ele>18.0</ele><time>2026-05-03T06:56:20Z</time></trkpt><trkpt lat="42.43581001005552" lon="18.69868251331659"><ele>18.0</ele><time>2026-05-03T06:56:21Z</time></trkpt><trkpt lat="42.435887742479984" lon="18.698601797227404"><ele>18.0</ele><time>2026-05-03T06:56:22Z</time></trkpt><trkpt lat="42.43596560213708" lon="18.698507311907274"><ele>18.0</ele><time>2026-05-03T06:56:23Z</time></trkpt><trkpt lat="42.436034516377944" lon="18.698408813763542"><ele>18.0</ele><time>2026-05-03T06:56:24Z</time></trkpt><trkpt lat="42.43610162769297" lon="18.698310494032157"><ele>17.8</ele><time>2026-05-03T06:56:25Z</time></trkpt><trkpt lat="42.43616712937155" lon="18.698204931840742"><ele>17.6</ele><time>2026-05-03T06:56:26Z</time></trkpt><trkpt lat="42.4362312557466" lon="18.69809053637859"><ele>17.4</ele><time>2026-05-03T06:56:27Z</time></trkpt><trkpt lat="42.436288357122834" lon="18.697978385089936"><ele>17.2</ele><time>2026-05-03T06:56:28Z</time></trkpt><trkpt lat="42.43634037024904" lon="18.697855120558884"><ele>17.0</ele><time>2026-05-03T06:56:29Z</time></trkpt><trkpt lat="42.436385246585814" lon="18.697728041287434"><ele>16.0</ele><time>2026-05-03T06:56:30Z</time></trkpt><trkpt lat="42.43642087290818" lon="18.69760142580309"><ele>15.0</ele><time>2026-05-03T06:56:31Z</time></trkpt><trkpt lat="42.436460708863486" lon="18.69746061361289"><ele>14.0</ele><time>2026-05-03T06:56:32Z</time></trkpt><trkpt lat="42.43649842423957" lon="18.697334298962886"><ele>13.0</ele><time>2026-05-03T06:56:33Z</time></trkpt><trkpt lat="42.43654173125818" lon="18.697211811244678"><ele>12.0</ele><time>2026-05-03T06:56:34Z</time></trkpt><trkpt lat="42.43658598092362" lon="18.697088015894398"><ele>12.0</ele><time>2026-05-03T06:56:35Z</time></trkpt><trkpt lat="42.43663190433525" lon="18.696967946212638"><ele>12.0</ele><time>2026-05-03T06:56:36Z</time></trkpt><trkpt lat="42.436690151337636" lon="18.696852642499586"><ele>12.0</ele><time>2026-05-03T06:56:37Z</time></trkpt><trkpt lat="42.43675783562582" lon="18.696747992860296"><ele>12.0</ele><time>2026-05-03T06:56:38Z</time></trkpt><trkpt lat="42.43684009011991" lon="18.696654315356"><ele>12.0</ele><time>2026-05-03T06:56:39Z</time></trkpt><trkpt lat="42.43692976946338" lon="18.696567572502456"><ele>12.0</ele><time>2026-05-03T06:56:40Z</time></trkpt><trkpt lat="42.437026667653186" lon="18.696490937787996"><ele>12.0</ele><time>2026-05-03T06:56:41Z</time></trkpt><trkpt lat="42.43712919356371" lon="18.69642551809219"><ele>12.0</ele><time>2026-05-03T06:56:42Z</time></trkpt><trkpt lat="42.437237844674726" lon="18.696381273356664"><ele>12.0</ele><time>2026-05-03T06:56:43Z</time></trkpt><trkpt lat="42.43735194291315" lon="18.69635548263441"><ele>12.0</ele><time>2026-05-03T06:56:44Z</time></trkpt><trkpt lat="42.43745994292616" lon="18.696329146102087"><ele>12.0</ele><time>2026-05-03T06:56:45Z</time></trkpt><trkpt lat="42.43757365877283" lon="18.69631631220552"><ele>12.0</ele><time>2026-05-03T06:56:46Z</time></trkpt><trkpt lat="42.43768845137225" lon="18.69631538003631"><ele>12.0</ele><time>2026-05-03T06:56:47Z</time></trkpt><trkpt lat="42.43780220430635" lon="18.696309263597275"><ele>12.0</ele><time>2026-05-03T06:56:48Z</time></trkpt><trkpt lat="42.437912416332686" lon="18.696293196875448"><ele>12.0</ele><time>2026-05-03T06:56:49Z</time></trkpt><trkpt lat="42.438024888547034" lon="18.696258831141016"><ele>12.0</ele><time>2026-05-03T06:56:50Z</time></trkpt><trkpt lat="42.43813302638053" lon="18.69621221590737"><ele>12.0</ele><time>2026-05-03T06:56:51Z</time></trkpt><trkpt lat="42.438241905444634" lon="18.696143425012234"><ele>11.0</ele><time>2026-05-03T06:56:52Z</time></trkpt><trkpt lat="42.438358878229586" lon="18.69608130457048"><ele>10.0</ele><time>2026-05-03T06:56:53Z</time></trkpt><trkpt lat="42.43846582743331" lon="18.695989004984458"><ele>9.0</ele><time>2026-05-03T06:56:54Z</time></trkpt><trkpt lat="42.43856118945949" lon="18.695867490084634"><ele>8.0</ele><time>2026-05-03T06:56:55Z</time></trkpt><trkpt lat="42.43864873995022" lon="18.695733676675598"><ele>8.0</ele><time>2026-05-03T06:56:56Z</time></trkpt><trkpt lat="42.438722303120684" lon="18.695588992751645"><ele>8.0</ele><time>2026-05-03T06:56:57Z</time></trkpt><trkpt lat="42.43878015625773" lon="18.695434062942212"><ele>8.0</ele><time>2026-05-03T06:56:58Z</time></trkpt><trkpt lat="42.438828043633954" lon="18.695268885475333"><ele>8.0</ele><time>2026-05-03T06:56:59Z</time></trkpt><trkpt lat="42.43886505925725" lon="18.695107937363126"><ele>7.75</ele><time>2026-05-03T06:57:00Z</time></trkpt><trkpt lat="42.43889745456795" lon="18.694952506681176"><ele>7.5</ele><time>2026-05-03T06:57:01Z</time></trkpt><trkpt lat="42.438929387877515" lon="18.69479929266147"><ele>7.25</ele><time>2026-05-03T06:57:02Z</time></trkpt><trkpt lat="42.43896211505618" lon="18.69464226755908"><ele>7.0</ele><time>2026-05-03T06:57:03Z</time></trkpt><trkpt lat="42.43899286092131" lon="18.694472328114884"><ele>6.75</ele><time>2026-05-03T06:57:04Z</time></trkpt><trkpt lat="42.439055094682836" lon="18.694316210180915"><ele>6.5</ele><time>2026-05-03T06:57:05Z</time></trkpt><trkpt lat="42.43909879530985" lon="18.694145684758958"><ele>6.25</ele><time>2026-05-03T06:57:06Z</time></trkpt><trkpt lat="42.43916424451412" lon="18.694005041672007"><ele>6.0</ele><time>2026-05-03T06:57:07Z</time></trkpt><trkpt lat="42.439235999979395" lon="18.693881885772086"><ele>6.0</ele><time>2026-05-03T06:57:08Z</time></trkpt><trkpt lat="42.43930938994769" lon="18.693774163651014"><ele>6.0</ele><time>2026-05-03T06:57:09Z</time></trkpt><trkpt lat="42.43938291605186" lon="18.693686451135168"><ele>6.0</ele><time>2026-05-03T06:57:10Z</time></trkpt><trkpt lat="42.43945454233479" lon="18.69360522443556"><ele>6.0</ele><time>2026-05-03T06:57:11Z</time></trkpt><trkpt lat="42.43952753542346" lon="18.693508033197332"><ele>6.0</ele><time>2026-05-03T06:57:12Z</time></trkpt><trkpt lat="42.43960200447764" lon="18.693406889894646"><ele>5.75</ele><time>2026-05-03T06:57:13Z</time></trkpt><trkpt lat="42.43967703912044" lon="18.693296534533776"><ele>5.5</ele><time>2026-05-03T06:57:14Z</time></trkpt><trkpt lat="42.43975447453951" lon="18.693179972359495"><ele>5.25</ele><time>2026-05-03T06:57:15Z</time></trkpt><trkpt lat="42.439835002288675" lon="18.693066060626418"><ele>5.0</ele><time>2026-05-03T06:57:16Z</time></trkpt><trkpt lat="42.43992239385069" lon="18.69295571960113"><ele>5.0</ele><time>2026-05-03T06:57:17Z</time></trkpt><trkpt lat="42.440016561770776" lon="18.692844809534893"><ele>5.0</ele><time>2026-05-03T06:57:18Z</time></trkpt><trkpt lat="42.440116781293376" lon="18.69273172961101"><ele>5.0</ele><time>2026-05-03T06:57:19Z</time></trkpt><trkpt lat="42.44021328330252" lon="18.692616741940167"><ele>5.0</ele><time>2026-05-03T06:57:20Z</time></trkpt><trkpt lat="42.44030076683291" lon="18.69251022426322"><ele>4.75</ele><time>2026-05-03T06:57:21Z</time></trkpt><trkpt lat="42.44038893250374" lon="18.69240889480692"><ele>4.5</ele><time>2026-05-03T06:57:22Z</time></trkpt><trkpt lat="42.44047918555583" lon="18.69229984157605"><ele>4.25</ele><time>2026-05-03T06:57:23Z</time></trkpt><trkpt lat="42.440568834816254" lon="18.692191665979678"><ele>4.0</ele><time>2026-05-03T06:57:24Z</time></trkpt><trkpt lat="42.44066523692586" lon="18.69208364518364"><ele>4.25</ele><time>2026-05-03T06:57:25Z</time></trkpt><trkpt lat="42.44074936080169" lon="18.69197573650739"><ele>4.5</ele><time>2026-05-03T06:57:26Z</time></trkpt><trkpt lat="42.44083687096132" lon="18.69187150810376"><ele>4.75</ele><time>2026-05-03T06:57:27Z</time></trkpt><trkpt lat="42.440921421691456" lon="18.691770888130897"><ele>5.0</ele><time>2026-05-03T06:57:28Z</time></trkpt><trkpt lat="42.4410006743959" lon="18.691677131240148"><ele>5.0</ele><time>2026-05-03T06:57:29Z</time></trkpt><trkpt lat="42.44107904793258" lon="18.691586773247362"><ele>5.0</ele><time>2026-05-03T06:57:30Z</time></trkpt><trkpt lat="42.44115317009569" lon="18.69149706135953"><ele>5.0</ele><time>2026-05-03T06:57:31Z</time></trkpt><trkpt lat="42.44122455112449" lon="18.691408323717553"><ele>5.0</ele><time>2026-05-03T06:57:32Z</time></trkpt><trkpt lat="42.44129370381481" lon="18.691321370884772"><ele>5.0</ele><time>2026-05-03T06:57:33Z</time></trkpt><trkpt lat="42.44136018999459" lon="18.691241734735506"><ele>5.166666666666667</ele><time>2026-05-03T06:57:34Z</time></trkpt><trkpt lat="42.441427527874986" lon="18.69116338619229"><ele>5.333333333333334</ele><time>2026-05-03T06:57:35Z</time></trkpt><trkpt lat="42.44148977299533" lon="18.69108886116726"><ele>5.5</ele><time>2026-05-03T06:57:36Z</time></trkpt><trkpt lat="42.441556594335786" lon="18.691012500379838"><ele>5.666666666666667</ele><time>2026-05-03T06:57:37Z</time></trkpt><trkpt lat="42.441621620239125" lon="18.69093768965425"><ele>5.833333333333333</ele><time>2026-05-03T06:57:38Z</time></trkpt><trkpt lat="42.44168101863373" lon="18.690867001428533"><ele>6.0</ele><time>2026-05-03T06:57:39Z</time></trkpt><trkpt lat="42.44173260889293" lon="18.69080018329599"><ele>6.142857142857142</ele><time>2026-05-03T06:57:40Z</time></trkpt><trkpt lat="42.44178276833788" lon="18.690735660861854"><ele>6.285714285714286</ele><time>2026-05-03T06:57:41Z</time></trkpt><trkpt lat="42.44183525736383" lon="18.690677845693664"><ele>6.428571428571429</ele><time>2026-05-03T06:57:42Z</time></trkpt><trkpt lat="42.44188881267993" lon="18.69061280765589"><ele>6.571428571428571</ele><time>2026-05-03T06:57:43Z</time></trkpt><trkpt lat="42.441947856763086" lon="18.690541525303093"><ele>6.714285714285714</ele><time>2026-05-03T06:57:44Z</time></trkpt><trkpt lat="42.442005577169844" lon="18.690471193126605"><ele>6.857142857142857</ele><time>2026-05-03T06:57:45Z</time></trkpt><trkpt lat="42.44206705355568" lon="18.690398892160086"><ele>7.0</ele><time>2026-05-03T06:57:46Z</time></trkpt><trkpt lat="42.44213156820703" lon="18.69031703358937"><ele>7.199999999999999</ele><time>2026-05-03T06:57:47Z</time></trkpt><trkpt lat="42.442202675560786" lon="18.69023578313217"><ele>7.3999999999999995</ele><time>2026-05-03T06:57:48Z</time></trkpt><trkpt lat="42.44227662151941" lon="18.690149481490643"><ele>7.6000000000000005</ele><time>2026-05-03T06:57:49Z</time></trkpt><trkpt lat="42.442361780097684" lon="18.69008125785118"><ele>7.800000000000001</ele><time>2026-05-03T06:57:50Z</time></trkpt><trkpt lat="42.4424430506663" lon="18.689996294191843"><ele>8.0</ele><time>2026-05-03T06:57:51Z</time></trkpt><trkpt lat="42.44252604874453" lon="18.68991065416866"><ele>8.0</ele><time>2026-05-03T06:57:52Z</time></trkpt><trkpt lat="42.44259925308391" lon="18.689806923499003"><ele>8.0</ele><time>2026-05-03T06:57:53Z</time></trkpt><trkpt lat="42.442687146356455" lon="18.689722556544194"><ele>8.0</ele><time>2026-05-03T06:57:54Z</time></trkpt><trkpt lat="42.442773275981956" lon="18.68964193997607"><ele>8.0</ele><time>2026-05-03T06:57:55Z</time></trkpt><trkpt lat="42.442864879935364" lon="18.689567982317193"><ele>8.0</ele><time>2026-05-03T06:57:56Z</time></trkpt><trkpt lat="42.442952841248" lon="18.689492257903073"><ele>7.800000000000001</ele><time>2026-05-03T06:57:57Z</time></trkpt><trkpt lat="42.44304765432801" lon="18.689420539406488"><ele>7.6000000000000005</ele><time>2026-05-03T06:57:58Z</time></trkpt><trkpt lat="42.44314216492141" lon="18.68935771907714"><ele>7.3999999999999995</ele><time>2026-05-03T06:57:59Z</time></trkpt><trkpt lat="42.443235723326914" lon="18.689291493308563"><ele>7.199999999999999</ele><time>2026-05-03T06:58:00Z</time></trkpt><trkpt lat="42.44333068896066" lon="18.689232816496187"><ele>7.0</ele><time>2026-05-03T06:58:01Z</time></trkpt><trkpt lat="42.443426335982316" lon="18.689175035148132"><ele>7.0</ele><time>2026-05-03T06:58:02Z</time></trkpt><trkpt lat="42.44351730248121" lon="18.68912456740808"><ele>6.999999999999999</ele><time>2026-05-03T06:58:03Z</time></trkpt><trkpt lat="42.443607268764175" lon="18.689072786902706"><ele>6.999999999999999</ele><time>2026-05-03T06:58:04Z</time></trkpt><trkpt lat="42.443693949249706" lon="18.689025765088015"><ele>7.0</ele><time>2026-05-03T06:58:05Z</time></trkpt><trkpt lat="42.443777519253736" lon="18.688982478243858"><ele>7.0</ele><time>2026-05-03T06:58:06Z</time></trkpt><trkpt lat="42.44386040663328" lon="18.68894288602151"><ele>7.000000000000001</ele><time>2026-05-03T06:58:07Z</time></trkpt><trkpt lat="42.443942932963246" lon="18.688908403380594"><ele>7.0</ele><time>2026-05-03T06:58:08Z</time></trkpt><trkpt lat="42.44402471197133" lon="18.688880996177353"><ele>7.0</ele><time>2026-05-03T06:58:09Z</time></trkpt><trkpt lat="42.444105275496526" lon="18.688855489816948"><ele>7.0</ele><time>2026-05-03T06:58:10Z</time></trkpt><trkpt lat="42.44418796158857" lon="18.688831875455445"><ele>7.000000000000001</ele><time>2026-05-03T06:58:11Z</time></trkpt><trkpt lat="42.44427514471847" lon="18.688807658196318"><ele>7.0</ele><time>2026-05-03T06:58:12Z</time></trkpt><trkpt lat="42.44436047251582" lon="18.6887843268992"><ele>7.0</ele><time>2026-05-03T06:58:13Z</time></trkpt><trkpt lat="42.444450105810446" lon="18.688753638810184"><ele>6.999999999999999</ele><time>2026-05-03T06:58:14Z</time></trkpt><trkpt lat="42.444541996652056" lon="18.688727328612536"><ele>6.999999999999999</ele><time>2026-05-03T06:58:15Z</time></trkpt><trkpt lat="42.44463750534293" lon="18.68870215397726"><ele>7.0</ele><time>2026-05-03T06:58:16Z</time></trkpt><trkpt lat="42.444739980219275" lon="18.688679123727457"><ele>7.0</ele><time>2026-05-03T06:58:17Z</time></trkpt><trkpt lat="42.44484354065755" lon="18.688654941363026"><ele>7.0</ele><time>2026-05-03T06:58:18Z</time></trkpt><trkpt lat="42.44495081438401" lon="18.688627732964353"><ele>6.999999999999999</ele><time>2026-05-03T06:58:19Z</time></trkpt><trkpt lat="42.44505954126579" lon="18.68859955387143"><ele>6.999999999999999</ele><time>2026-05-03T06:58:20Z</time></trkpt><trkpt lat="42.44517029572493" lon="18.688573433459506"><ele>7.0</ele><time>2026-05-03T06:58:21Z</time></trkpt><trkpt lat="42.44528328752391" lon="18.688545617285094"><ele>7.0</ele><time>2026-05-03T06:58:22Z</time></trkpt><trkpt lat="42.44539549228238" lon="18.688519605787494"><ele>6.75</ele><time>2026-05-03T06:58:23Z</time></trkpt><trkpt lat="42.44550844819844" lon="18.68849537026401"><ele>6.5</ele><time>2026-05-03T06:58:24Z</time></trkpt><trkpt lat="42.445619775544856" lon="18.688466528367897"><ele>6.25</ele><time>2026-05-03T06:58:25Z</time></trkpt><trkpt lat="42.445730063664236" lon="18.68843832036935"><ele>6.0</ele><time>2026-05-03T06:58:26Z</time></trkpt><trkpt lat="42.44584191293461" lon="18.68841241656841"><ele>6.0</ele><time>2026-05-03T06:58:27Z</time></trkpt><trkpt lat="42.44595316089626" lon="18.68838594154498"><ele>6.0</ele><time>2026-05-03T06:58:28Z</time></trkpt><trkpt lat="42.44606370244421" lon="18.688354684705946"><ele>6.0</ele><time>2026-05-03T06:58:29Z</time></trkpt><trkpt lat="42.446172972469135" lon="18.688317339796143"><ele>6.0</ele><time>2026-05-03T06:58:30Z</time></trkpt><trkpt lat="42.44628210176982" lon="18.688275866884666"><ele>6.0</ele><time>2026-05-03T06:58:31Z</time></trkpt><trkpt lat="42.44638684972484" lon="18.688224982156008"><ele>6.0</ele><time>2026-05-03T06:58:32Z</time></trkpt><trkpt lat="42.44649292824806" lon="18.688167646432213"><ele>6.0</ele><time>2026-05-03T06:58:33Z</time></trkpt><trkpt lat="42.44660089755849" lon="18.688109630941856"><ele>6.0</ele><time>2026-05-03T06:58:34Z</time></trkpt><trkpt lat="42.446708454364334" lon="18.688046348509907"><ele>6.0</ele><time>2026-05-03T06:58:35Z</time></trkpt><trkpt lat="42.44680994179097" lon="18.68796865761046"><ele>6.0</ele><time>2026-05-03T06:58:36Z</time></trkpt><trkpt lat="42.4469120224584" lon="18.687887626805082"><ele>6.0</ele><time>2026-05-03T06:58:37Z</time></trkpt><trkpt lat="42.447010382800194" lon="18.68780304451237"><ele>6.0</ele><time>2026-05-03T06:58:38Z</time></trkpt><trkpt lat="42.447110900916165" lon="18.687712746841008"><ele>6.0</ele><time>2026-05-03T06:58:39Z</time></trkpt><trkpt lat="42.44720650150446" lon="18.687612931372655"><ele>6.0</ele><time>2026-05-03T06:58:40Z</time></trkpt><trkpt lat="42.44730377252536" lon="18.68751716521352"><ele>6.0</ele><time>2026-05-03T06:58:41Z</time></trkpt><trkpt lat="42.44740154391045" lon="18.687417034869302"><ele>6.0</ele><time>2026-05-03T06:58:42Z</time></trkpt><trkpt lat="42.44750111772483" lon="18.687322867684674"><ele>6.0</ele><time>2026-05-03T06:58:43Z</time></trkpt><trkpt lat="42.447606279320674" lon="18.68722819117773"><ele>6.0</ele><time>2026-05-03T06:58:44Z</time></trkpt><trkpt lat="42.44771462457433" lon="18.68714438459306"><ele>6.0</ele><time>2026-05-03T06:58:45Z</time></trkpt><trkpt lat="42.447825303161316" lon="18.687068701925877"><ele>6.0</ele><time>2026-05-03T06:58:46Z</time></trkpt><trkpt lat="42.44794326242874" lon="18.687004612695198"><ele>6.0</ele><time>2026-05-03T06:58:47Z</time></trkpt><trkpt lat="42.448061993576346" lon="18.686948048985556"><ele>6.0</ele><time>2026-05-03T06:58:48Z</time></trkpt><trkpt lat="42.44818270628857" lon="18.686903680462443"><ele>6.0</ele><time>2026-05-03T06:58:49Z</time></trkpt><trkpt lat="42.448303920701576" lon="18.686865202521783"><ele>6.0</ele><time>2026-05-03T06:58:50Z</time></trkpt><trkpt lat="42.448427534466" lon="18.686822021029737"><ele>6.0</ele><time>2026-05-03T06:58:51Z</time></trkpt><trkpt lat="42.44854598105173" lon="18.686772816985563"><ele>6.0</ele><time>2026-05-03T06:58:52Z</time></trkpt><trkpt lat="42.44866165702058" lon="18.68671386286804"><ele>6.0</ele><time>2026-05-03T06:58:53Z</time></trkpt><trkpt lat="42.44877688480932" lon="18.6866415548702"><ele>6.0</ele><time>2026-05-03T06:58:54Z</time></trkpt><trkpt lat="42.44888063479966" lon="18.686550645667534"><ele>7.0</ele><time>2026-05-03T06:58:55Z</time></trkpt><trkpt lat="42.44898487525068" lon="18.686457154702165"><ele>8.0</ele><time>2026-05-03T06:58:56Z</time></trkpt><trkpt lat="42.44908285853817" lon="18.68635690567602"><ele>9.0</ele><time>2026-05-03T06:58:57Z</time></trkpt><trkpt lat="42.44917650125584" lon="18.686255139956874"><ele>10.0</ele><time>2026-05-03T06:58:58Z</time></trkpt><trkpt lat="42.44927150147435" lon="18.68613413965711"><ele>10.75</ele><time>2026-05-03T06:58:59Z</time></trkpt><trkpt lat="42.449365069338455" lon="18.68603384950914"><ele>11.5</ele><time>2026-05-03T06:59:00Z</time></trkpt><trkpt lat="42.449453354269025" lon="18.68593313357954"><ele>12.25</ele><time>2026-05-03T06:59:01Z</time></trkpt><trkpt lat="42.44954709639863" lon="18.6858316896602"><ele>13.0</ele><time>2026-05-03T06:59:02Z</time></trkpt><trkpt lat="42.44964369900188" lon="18.685727482629297"><ele>13.0</ele><time>2026-05-03T06:59:03Z</time></trkpt><trkpt lat="42.449741042547934" lon="18.68562180691249"><ele>13.0</ele><time>2026-05-03T06:59:04Z</time></trkpt><trkpt lat="42.449838045518156" lon="18.68551273775785"><ele>13.0</ele><time>2026-05-03T06:59:05Z</time></trkpt><trkpt lat="42.449931151635965" lon="18.685402136830664"><ele>13.0</ele><time>2026-05-03T06:59:06Z</time></trkpt><trkpt lat="42.450036505419256" lon="18.68532170738432"><ele>12.5</ele><time>2026-05-03T06:59:07Z</time></trkpt><trkpt lat="42.450141363020954" lon="18.685226114515345"><ele>12.0</ele><time>2026-05-03T06:59:08Z</time></trkpt><trkpt lat="42.45024990762018" lon="18.685152564761296"><ele>11.5</ele><time>2026-05-03T06:59:09Z</time></trkpt><trkpt lat="42.45035604477994" lon="18.68507315932785"><ele>11.0</ele><time>2026-05-03T06:59:10Z</time></trkpt><trkpt lat="42.45049271437741" lon="18.68504449699519"><ele>11.0</ele><time>2026-05-03T06:59:11Z</time></trkpt><trkpt lat="42.45063327611186" lon="18.68500743393259"><ele>11.0</ele><time>2026-05-03T06:59:12Z</time></trkpt><trkpt lat="42.45078115195598" lon="18.68496228728813"><ele>11.0</ele><time>2026-05-03T06:59:13Z</time></trkpt><trkpt lat="42.45094226838817" lon="18.68495710308215"><ele>11.0</ele><time>2026-05-03T06:59:14Z</time></trkpt><trkpt lat="42.45110016060471" lon="18.684927709076323"><ele>11.0</ele><time>2026-05-03T06:59:15Z</time></trkpt><trkpt lat="42.4512542768501" lon="18.68489865662366"><ele>11.0</ele><time>2026-05-03T06:59:16Z</time></trkpt><trkpt lat="42.451398697478254" lon="18.684861625252182"><ele>12.0</ele><time>2026-05-03T06:59:17Z</time></trkpt><trkpt lat="42.45154011595176" lon="18.684818485154377"><ele>13.0</ele><time>2026-05-03T06:59:18Z</time></trkpt><trkpt lat="42.45167609851811" lon="18.684797688609518"><ele>14.0</ele><time>2026-05-03T06:59:19Z</time></trkpt><trkpt lat="42.45178437017889" lon="18.68476195691379"><ele>15.0</ele><time>2026-05-03T06:59:20Z</time></trkpt><trkpt lat="42.45187797127763" lon="18.684724088765233"><ele>15.0</ele><time>2026-05-03T06:59:21Z</time></trkpt><trkpt lat="42.451965320859244" lon="18.684688648670537"><ele>15.0</ele><time>2026-05-03T06:59:22Z</time></trkpt><trkpt lat="42.452053475312894" lon="18.684652882025127"><ele>15.0</ele><time>2026-05-03T06:59:23Z</time></trkpt><trkpt lat="42.452140151691076" lon="18.68461769336324"><ele>15.0</ele><time>2026-05-03T06:59:24Z</time></trkpt><trkpt lat="42.45222775943434" lon="18.684581559193735"><ele>15.0</ele><time>2026-05-03T06:59:25Z</time></trkpt><trkpt lat="42.452319789017515" lon="18.684543829436297"><ele>13.6</ele><time>2026-05-03T06:59:26Z</time></trkpt><trkpt lat="42.4524107866468" lon="18.684491491458548"><ele>12.2</ele><time>2026-05-03T06:59:27Z</time></trkpt><trkpt lat="42.45250964325615" lon="18.684450834844945"><ele>10.8</ele><time>2026-05-03T06:59:28Z</time></trkpt><trkpt lat="42.45261488547852" lon="18.684412790426755"><ele>9.4</ele><time>2026-05-03T06:59:29Z</time></trkpt><trkpt lat="42.45272557031507" lon="18.684369113015148"><ele>8.0</ele><time>2026-05-03T06:59:30Z</time></trkpt><trkpt lat="42.45283711450305" lon="18.68432364633734"><ele>8.0</ele><time>2026-05-03T06:59:31Z</time></trkpt><trkpt lat="42.45294739290078" lon="18.684280467639706"><ele>8.0</ele><time>2026-05-03T06:59:32Z</time></trkpt><trkpt lat="42.45306095392919" lon="18.684236221364383"><ele>8.0</ele><time>2026-05-03T06:59:33Z</time></trkpt><trkpt lat="42.45317905258016" lon="18.68419230993296"><ele>8.0</ele><time>2026-05-03T06:59:34Z</time></trkpt><trkpt lat="42.453296017734885" lon="18.684146618161474"><ele>9.25</ele><time>2026-05-03T06:59:35Z</time></trkpt><trkpt lat="42.453410965364625" lon="18.684099527960907"><ele>10.5</ele><time>2026-05-03T06:59:36Z</time></trkpt><trkpt lat="42.45352656825311" lon="18.68405278034178"><ele>11.75</ele><time>2026-05-03T06:59:37Z</time></trkpt><trkpt lat="42.453641622135756" lon="18.684006129719496"><ele>13.0</ele><time>2026-05-03T06:59:38Z</time></trkpt><trkpt lat="42.453756340546704" lon="18.68396320930978"><ele>12.75</ele><time>2026-05-03T06:59:39Z</time></trkpt><trkpt lat="42.45386827525275" lon="18.683911998095482"><ele>12.5</ele><time>2026-05-03T06:59:40Z</time></trkpt><trkpt lat="42.45398049169033" lon="18.683865033626688"><ele>12.25</ele><time>2026-05-03T06:59:41Z</time></trkpt><trkpt lat="42.45408784689435" lon="18.683801927947407"><ele>12.0</ele><time>2026-05-03T06:59:42Z</time></trkpt><trkpt lat="42.45419188336605" lon="18.683732576727195"><ele>12.0</ele><time>2026-05-03T06:59:43Z</time></trkpt><trkpt lat="42.45429394080782" lon="18.683652214522255"><ele>12.0</ele><time>2026-05-03T06:59:44Z</time></trkpt><trkpt lat="42.45440199142263" lon="18.68358036448752"><ele>12.0</ele><time>2026-05-03T06:59:45Z</time></trkpt><trkpt lat="42.454491741220956" lon="18.68345852750556"><ele>12.0</ele><time>2026-05-03T06:59:46Z</time></trkpt><trkpt lat="42.45458548107287" lon="18.683346523828455"><ele>11.0</ele><time>2026-05-03T06:59:47Z</time></trkpt><trkpt lat="42.45466950362652" lon="18.683226765456713"><ele>10.0</ele><time>2026-05-03T06:59:48Z</time></trkpt><trkpt lat="42.454763794165174" lon="18.68312609761002"><ele>9.0</ele><time>2026-05-03T06:59:49Z</time></trkpt><trkpt lat="42.454839870162246" lon="18.68300112334591"><ele>8.0</ele><time>2026-05-03T06:59:50Z</time></trkpt><trkpt lat="42.45491179665303" lon="18.682878200555248"><ele>6.75</ele><time>2026-05-03T06:59:51Z</time></trkpt><trkpt lat="42.454983381514765" lon="18.68275575435665"><ele>5.5</ele><time>2026-05-03T06:59:52Z</time></trkpt><trkpt lat="42.45505773415482" lon="18.68262857396216"><ele>4.25</ele><time>2026-05-03T06:59:53Z</time></trkpt><trkpt lat="42.455133991168594" lon="18.682498332167597"><ele>3.0</ele><time>2026-05-03T06:59:54Z</time></trkpt><trkpt lat="42.45519470843473" lon="18.682361659207764"><ele>3.0</ele><time>2026-05-03T06:59:55Z</time></trkpt><trkpt lat="42.45527672575079" lon="18.682247441502806"><ele>3.0</ele><time>2026-05-03T06:59:56Z</time></trkpt><trkpt lat="42.45536039328211" lon="18.682130860716523"><ele>3.0</ele><time>2026-05-03T06:59:57Z</time></trkpt><trkpt lat="42.455447575428934" lon="18.68201827355913"><ele>3.0</ele><time>2026-05-03T06:59:58Z</time></trkpt><trkpt lat="42.45554230323947" lon="18.681929763554457"><ele>3.5</ele><time>2026-05-03T06:59:59Z</time></trkpt><trkpt lat="42.45564545183279" lon="18.681856058906288"><ele>4.0</ele><time>2026-05-03T07:00:00Z</time></trkpt><trkpt lat="42.45575484826154" lon="18.681795575684603"><ele>4.5</ele><time>2026-05-03T07:00:01Z</time></trkpt><trkpt lat="42.45586560909251" lon="18.681742951435805"><ele>5.0</ele><time>2026-05-03T07:00:02Z</time></trkpt><trkpt lat="42.45598129804591" lon="18.681695545787473"><ele>5.0</ele><time>2026-05-03T07:00:03Z</time></trkpt><trkpt lat="42.45608706965153" lon="18.681662422155917"><ele>5.0</ele><time>2026-05-03T07:00:04Z</time></trkpt><trkpt lat="42.45620135054002" lon="18.68164681184076"><ele>5.0</ele><time>2026-05-03T07:00:05Z</time></trkpt><trkpt lat="42.456316069659" lon="18.681645261305363"><ele>5.0</ele><time>2026-05-03T07:00:06Z</time></trkpt><trkpt lat="42.456428540139726" lon="18.68165959196402"><ele>4.0</ele><time>2026-05-03T07:00:07Z</time></trkpt><trkpt lat="42.45653777915543" lon="18.68167933222882"><ele>3.0</ele><time>2026-05-03T07:00:08Z</time></trkpt><trkpt lat="42.456642912479246" lon="18.681716489440294"><ele>2.0</ele><time>2026-05-03T07:00:09Z</time></trkpt><trkpt lat="42.45674533593869" lon="18.68175162495457"><ele>1.0</ele><time>2026-05-03T07:00:10Z</time></trkpt><trkpt lat="42.45684956107191" lon="18.68179145016537"><ele>0.0</ele><time>2026-05-03T07:00:11Z</time></trkpt><trkpt lat="42.45694942906209" lon="18.68183314416342"><ele>0.0</ele><time>2026-05-03T07:00:12Z</time></trkpt><trkpt lat="42.45705233057056" lon="18.681870629021038"><ele>0.0</ele><time>2026-05-03T07:00:13Z</time></trkpt><trkpt lat="42.45715683835047" lon="18.68190865508197"><ele>0.0</ele><time>2026-05-03T07:00:14Z</time></trkpt><trkpt lat="42.4572603588507" lon="18.68193321396566"><ele>0.0</ele><time>2026-05-03T07:00:15Z</time></trkpt><trkpt lat="42.457361564851126" lon="18.681938757834228"><ele>0.0</ele><time>2026-05-03T07:00:16Z</time></trkpt><trkpt lat="42.45746513082714" lon="18.68192061368558"><ele>1.8</ele><time>2026-05-03T07:00:17Z</time></trkpt><trkpt lat="42.45757111365567" lon="18.68187900251584"><ele>3.6</ele><time>2026-05-03T07:00:18Z</time></trkpt><trkpt lat="42.457668224025724" lon="18.681809725559948"><ele>5.4</ele><time>2026-05-03T07:00:19Z</time></trkpt><trkpt lat="42.45775294992796" lon="18.681725322082183"><ele>7.2</ele><time>2026-05-03T07:00:20Z</time></trkpt><trkpt lat="42.45783646712052" lon="18.68163075091646"><ele>9.0</ele><time>2026-05-03T07:00:21Z</time></trkpt><trkpt lat="42.457928969446" lon="18.681542708352012"><ele>10.2</ele><time>2026-05-03T07:00:22Z</time></trkpt><trkpt lat="42.45803484566818" lon="18.681506331835813"><ele>11.4</ele><time>2026-05-03T07:00:23Z</time></trkpt><trkpt lat="42.4581440638178" lon="18.681484449971066"><ele>12.6</ele><time>2026-05-03T07:00:24Z</time></trkpt><trkpt lat="42.4582555361613" lon="18.681491322291414"><ele>13.8</ele><time>2026-05-03T07:00:25Z</time></trkpt><trkpt lat="42.45836856257271" lon="18.681513025685213"><ele>15.0</ele><time>2026-05-03T07:00:26Z</time></trkpt><trkpt lat="42.4584800213492" lon="18.681526749743774"><ele>15.0</ele><time>2026-05-03T07:00:27Z</time></trkpt><trkpt lat="42.45859204055704" lon="18.68154364335864"><ele>15.0</ele><time>2026-05-03T07:00:28Z</time></trkpt><trkpt lat="42.458709714529355" lon="18.681585507946668"><ele>15.0</ele><time>2026-05-03T07:00:29Z</time></trkpt><trkpt lat="42.45881739708125" lon="18.681611195801253"><ele>15.0</ele><time>2026-05-03T07:00:30Z</time></trkpt><trkpt lat="42.45892724723093" lon="18.681650172445252"><ele>12.75</ele><time>2026-05-03T07:00:31Z</time></trkpt><trkpt lat="42.45903719202023" lon="18.68169254950397"><ele>10.5</ele><time>2026-05-03T07:00:32Z</time></trkpt><trkpt lat="42.45914953977363" lon="18.681748008027913"><ele>8.25</ele><time>2026-05-03T07:00:33Z</time></trkpt><trkpt lat="42.459261341495036" lon="18.68181947499678"><ele>6.0</ele><time>2026-05-03T07:00:34Z</time></trkpt><trkpt lat="42.45936399901816" lon="18.681903444169084"><ele>4.5</ele><time>2026-05-03T07:00:35Z</time></trkpt><trkpt lat="42.45946383152083" lon="18.682001962478257"><ele>3.0</ele><time>2026-05-03T07:00:36Z</time></trkpt><trkpt lat="42.45956422429293" lon="18.682119326244994"><ele>1.5</ele><time>2026-05-03T07:00:37Z</time></trkpt><trkpt lat="42.45965752649709" lon="18.68223369554986"><ele>0.0</ele><time>2026-05-03T07:00:38Z</time></trkpt><trkpt lat="42.45975160855932" lon="18.682342258035842"><ele>0.0</ele><time>2026-05-03T07:00:39Z</time></trkpt><trkpt lat="42.45983938870309" lon="18.682452355934856"><ele>0.0</ele><time>2026-05-03T07:00:40Z</time></trkpt><trkpt lat="42.45992594163389" lon="18.682565737609888"><ele>0.0</ele><time>2026-05-03T07:00:41Z</time></trkpt><trkpt lat="42.46000702775253" lon="18.682671774149107"><ele>0.0</ele><time>2026-05-03T07:00:42Z</time></trkpt><trkpt lat="42.4600910181641" lon="18.682774966904123"><ele>0.5</ele><time>2026-05-03T07:00:43Z</time></trkpt><trkpt lat="42.460177610229245" lon="18.682876801649453"><ele>1.0</ele><time>2026-05-03T07:00:44Z</time></trkpt><trkpt lat="42.46026852503413" lon="18.682982901011446"><ele>1.5</ele><time>2026-05-03T07:00:45Z</time></trkpt><trkpt lat="42.46036152043281" lon="18.68309728564003"><ele>2.0</ele><time>2026-05-03T07:00:46Z</time></trkpt><trkpt lat="42.4604629710481" lon="18.683214220692587"><ele>2.0</ele><time>2026-05-03T07:00:47Z</time></trkpt><trkpt lat="42.4605714194948" lon="18.68332667728298"><ele>2.0</ele><time>2026-05-03T07:00:48Z</time></trkpt><trkpt lat="42.46068267179031" lon="18.683415026585333"><ele>2.0</ele><time>2026-05-03T07:00:49Z</time></trkpt><trkpt lat="42.46080349952901" lon="18.683480013733707"><ele>2.0</ele><time>2026-05-03T07:00:50Z</time></trkpt><trkpt lat="42.46093317752717" lon="18.68350698408788"><ele>2.0</ele><time>2026-05-03T07:00:51Z</time></trkpt><trkpt lat="42.46106869770213" lon="18.683504949252338"><ele>2.0</ele><time>2026-05-03T07:00:52Z</time></trkpt><trkpt lat="42.46120415123099" lon="18.683474173086047"><ele>2.0</ele><time>2026-05-03T07:00:53Z</time></trkpt><trkpt lat="42.461326549029536" lon="18.683413079171988"><ele>2.0</ele><time>2026-05-03T07:00:54Z</time></trkpt><trkpt lat="42.46143413107012" lon="18.683324131190624"><ele>6.75</ele><time>2026-05-03T07:00:55Z</time></trkpt><trkpt lat="42.46153067321946" lon="18.68321994462384"><ele>11.5</ele><time>2026-05-03T07:00:56Z</time></trkpt><trkpt lat="42.4616224094555" lon="18.68311069643017"><ele>16.25</ele><time>2026-05-03T07:00:57Z</time></trkpt><trkpt lat="42.46171852009958" lon="18.683005873372736"><ele>21.0</ele><time>2026-05-03T07:00:58Z</time></trkpt><trkpt lat="42.4618148475253" lon="18.682911405935258"><ele>21.0</ele><time>2026-05-03T07:00:59Z</time></trkpt><trkpt lat="42.46190823422313" lon="18.682822171580796"><ele>21.0</ele><time>2026-05-03T07:01:00Z</time></trkpt><trkpt lat="42.46200012049236" lon="18.682740268290388"><ele>21.0</ele><time>2026-05-03T07:01:01Z</time></trkpt><trkpt lat="42.46211108596653" lon="18.682687415688438"><ele>21.0</ele><time>2026-05-03T07:01:02Z</time></trkpt><trkpt lat="42.462233826342015" lon="18.682676452604195"><ele>19.5</ele><time>2026-05-03T07:01:03Z</time></trkpt><trkpt lat="42.46235590449813" lon="18.68270497507347"><ele>18.0</ele><time>2026-05-03T07:01:04Z</time></trkpt><trkpt lat="42.46247470745617" lon="18.682763310889246"><ele>16.5</ele><time>2026-05-03T07:01:05Z</time></trkpt><trkpt lat="42.4625811980636" lon="18.68285054847739"><ele>15.0</ele><time>2026-05-03T07:01:06Z</time></trkpt><trkpt lat="42.46267314466902" lon="18.68295795659187"><ele>15.0</ele><time>2026-05-03T07:01:07Z</time></trkpt><trkpt lat="42.462761915405764" lon="18.6830683906034"><ele>15.0</ele><time>2026-05-03T07:01:08Z</time></trkpt><trkpt lat="42.462861962402144" lon="18.683165943571193"><ele>15.0</ele><time>2026-05-03T07:01:09Z</time></trkpt><trkpt lat="42.462977978037664" lon="18.683230913277214"><ele>15.0</ele><time>2026-05-03T07:01:10Z</time></trkpt><trkpt lat="42.46310251176495" lon="18.683277569549784"><ele>12.75</ele><time>2026-05-03T07:01:11Z</time></trkpt><trkpt lat="42.463233218236475" lon="18.68331094104044"><ele>10.5</ele><time>2026-05-03T07:01:12Z</time></trkpt><trkpt lat="42.46336359938972" lon="18.683329385986525"><ele>8.25</ele><time>2026-05-03T07:01:13Z</time></trkpt><trkpt lat="42.46349641915766" lon="18.68334889448449"><ele>6.0</ele><time>2026-05-03T07:01:14Z</time></trkpt><trkpt lat="42.4636250684641" lon="18.68336792709045"><ele>6.0</ele><time>2026-05-03T07:01:15Z</time></trkpt><trkpt lat="42.463752080514034" lon="18.683393132833128"><ele>6.0</ele><time>2026-05-03T07:01:16Z</time></trkpt><trkpt lat="42.463874421363094" lon="18.683422474658297"><ele>6.0</ele><time>2026-05-03T07:01:17Z</time></trkpt><trkpt lat="42.46399818503823" lon="18.68347144676989"><ele>6.0</ele><time>2026-05-03T07:01:18Z</time></trkpt><trkpt lat="42.46411783775939" lon="18.683535788723002"><ele>5.25</ele><time>2026-05-03T07:01:19Z</time></trkpt><trkpt lat="42.464228819855464" lon="18.683621366216304"><ele>4.5</ele><time>2026-05-03T07:01:20Z</time></trkpt><trkpt lat="42.46432356519804" lon="18.68372469548234"><ele>3.75</ele><time>2026-05-03T07:01:21Z</time></trkpt><trkpt lat="42.46440766876249" lon="18.683846344894"><ele>3.0</ele><time>2026-05-03T07:01:22Z</time></trkpt><trkpt lat="42.464487732421965" lon="18.68397869599692"><ele>3.0</ele><time>2026-05-03T07:01:23Z</time></trkpt><trkpt lat="42.46455236792868" lon="18.684120193164112"><ele>3.0</ele><time>2026-05-03T07:01:24Z</time></trkpt><trkpt lat="42.46461191320826" lon="18.684263976448793"><ele>3.0</ele><time>2026-05-03T07:01:25Z</time></trkpt><trkpt lat="42.46467244216786" lon="18.68440011884576"><ele>3.0</ele><time>2026-05-03T07:01:26Z</time></trkpt><trkpt lat="42.46473283035562" lon="18.684530578460446"><ele>3.2</ele><time>2026-05-03T07:01:27Z</time></trkpt><trkpt lat="42.4647955137013" lon="18.684656032277992"><ele>3.4</ele><time>2026-05-03T07:01:28Z</time></trkpt><trkpt lat="42.46485361145048" lon="18.68477961625533"><ele>3.6000000000000005</ele><time>2026-05-03T07:01:29Z</time></trkpt><trkpt lat="42.46491333182387" lon="18.68489979112353"><ele>3.8000000000000003</ele><time>2026-05-03T07:01:30Z</time></trkpt><trkpt lat="42.46497147270406" lon="18.685021734193647"><ele>4.0</ele><time>2026-05-03T07:01:31Z</time></trkpt><trkpt lat="42.46503097535629" lon="18.685140967230634"><ele>4.5</ele><time>2026-05-03T07:01:32Z</time></trkpt><trkpt lat="42.465092615117726" lon="18.68526617246665"><ele>5.0</ele><time>2026-05-03T07:01:33Z</time></trkpt><trkpt lat="42.465156905937" lon="18.685393186987653"><ele>5.5</ele><time>2026-05-03T07:01:34Z</time></trkpt><trkpt lat="42.465225783810396" lon="18.68551979169483"><ele>6.0</ele><time>2026-05-03T07:01:35Z</time></trkpt><trkpt lat="42.465297784301086" lon="18.685643141457525"><ele>6.0</ele><time>2026-05-03T07:01:36Z</time></trkpt><trkpt lat="42.46536869470836" lon="18.68577802461037"><ele>6.0</ele><time>2026-05-03T07:01:37Z</time></trkpt><trkpt lat="42.46543896588057" lon="18.685913879714324"><ele>6.0</ele><time>2026-05-03T07:01:38Z</time></trkpt><trkpt lat="42.46550029135365" lon="18.686046680652716"><ele>6.0</ele><time>2026-05-03T07:01:39Z</time></trkpt><trkpt lat="42.465569049133336" lon="18.686172402191012"><ele>6.6</ele><time>2026-05-03T07:01:40Z</time></trkpt><trkpt lat="42.46564137752906" lon="18.686292048263862"><ele>7.199999999999999</ele><time>2026-05-03T07:01:41Z</time></trkpt><trkpt lat="42.46571707180279" lon="18.68639581946543"><ele>7.800000000000001</ele><time>2026-05-03T07:01:42Z</time></trkpt><trkpt lat="42.46580970404594" lon="18.686455941498245"><ele>8.4</ele><time>2026-05-03T07:01:43Z</time></trkpt><trkpt lat="42.465910244809294" lon="18.686482363411773"><ele>9.0</ele><time>2026-05-03T07:01:44Z</time></trkpt><trkpt lat="42.466008826510624" lon="18.68647016887621"><ele>9.0</ele><time>2026-05-03T07:01:45Z</time></trkpt><trkpt lat="42.46609328343342" lon="18.686462572302116"><ele>9.0</ele><time>2026-05-03T07:01:46Z</time></trkpt><trkpt lat="42.46617206502821" lon="18.686453426356778"><ele>9.0</ele><time>2026-05-03T07:01:47Z</time></trkpt><trkpt lat="42.4662467512648" lon="18.686455774061105"><ele>9.0</ele><time>2026-05-03T07:01:48Z</time></trkpt><trkpt lat="42.46631757190755" lon="18.686450088833315"><ele>9.0</ele><time>2026-05-03T07:01:49Z</time></trkpt><trkpt lat="42.466390218299345" lon="18.68645446481831"><ele>9.0</ele><time>2026-05-03T07:01:50Z</time></trkpt><trkpt lat="42.4664640183907" lon="18.686458530360884"><ele>9.428571428571429</ele><time>2026-05-03T07:01:51Z</time></trkpt><trkpt lat="42.46654233773736" lon="18.686461080970254"><ele>9.857142857142858</ele><time>2026-05-03T07:01:52Z</time></trkpt><trkpt lat="42.46661908344676" lon="18.686458798217203"><ele>10.285714285714285</ele><time>2026-05-03T07:01:53Z</time></trkpt><trkpt lat="42.466691206709584" lon="18.68645475915298"><ele>10.714285714285715</ele><time>2026-05-03T07:01:54Z</time></trkpt><trkpt lat="42.4667607688937" lon="18.686454460392472"><ele>11.142857142857142</ele><time>2026-05-03T07:01:55Z</time></trkpt><trkpt lat="42.466829516776" lon="18.686445344296196"><ele>11.571428571428571</ele><time>2026-05-03T07:01:56Z</time></trkpt><trkpt lat="42.46690333633459" lon="18.68644776671505"><ele>12.0</ele><time>2026-05-03T07:01:57Z</time></trkpt><trkpt lat="42.46698424086324" lon="18.686451251777417"><ele>12.0</ele><time>2026-05-03T07:01:58Z</time></trkpt><trkpt lat="42.46706962251393" lon="18.686445855008273"><ele>12.0</ele><time>2026-05-03T07:01:59Z</time></trkpt><trkpt lat="42.46715324802064" lon="18.68641461231052"><ele>12.0</ele><time>2026-05-03T07:02:00Z</time></trkpt><trkpt lat="42.46723179071798" lon="18.686358389228545"><ele>12.0</ele><time>2026-05-03T07:02:01Z</time></trkpt><trkpt lat="42.46730700928838" lon="18.686276558953512"><ele>12.0</ele><time>2026-05-03T07:02:02Z</time></trkpt><trkpt lat="42.467379555332265" lon="18.68619509066523"><ele>12.399999999999999</ele><time>2026-05-03T07:02:03Z</time></trkpt><trkpt lat="42.46745749975942" lon="18.686116644293662"><ele>12.799999999999999</ele><time>2026-05-03T07:02:04Z</time></trkpt><trkpt lat="42.467521112877286" lon="18.686013752279873"><ele>13.2</ele><time>2026-05-03T07:02:05Z</time></trkpt><trkpt lat="42.467575724893315" lon="18.685904280292554"><ele>13.6</ele><time>2026-05-03T07:02:06Z</time></trkpt><trkpt lat="42.46763181935289" lon="18.685798720239774"><ele>14.0</ele><time>2026-05-03T07:02:07Z</time></trkpt><trkpt lat="42.46768534744497" lon="18.6856994728807"><ele>12.666666666666668</ele><time>2026-05-03T07:02:08Z</time></trkpt><trkpt lat="42.46773890739692" lon="18.685610141621975"><ele>11.333333333333334</ele><time>2026-05-03T07:02:09Z</time></trkpt><trkpt lat="42.46780172601678" lon="18.685535750919644"><ele>10.0</ele><time>2026-05-03T07:02:10Z</time></trkpt><trkpt lat="42.46787307976259" lon="18.68548807511001"><ele>8.666666666666668</ele><time>2026-05-03T07:02:11Z</time></trkpt><trkpt lat="42.46795538015585" lon="18.685473670164694"><ele>7.333333333333334</ele><time>2026-05-03T07:02:12Z</time></trkpt><trkpt lat="42.468037129214004" lon="18.685493246199034"><ele>6.0</ele><time>2026-05-03T07:02:13Z</time></trkpt><trkpt lat="42.468115469020184" lon="18.68552929844461"><ele>6.0</ele><time>2026-05-03T07:02:14Z</time></trkpt><trkpt lat="42.46818994661848" lon="18.68556321717338"><ele>6.0</ele><time>2026-05-03T07:02:15Z</time></trkpt><trkpt lat="42.468270390255846" lon="18.68560615916657"><ele>6.0</ele><time>2026-05-03T07:02:16Z</time></trkpt><trkpt lat="42.46835014641789" lon="18.685654330513664"><ele>6.0</ele><time>2026-05-03T07:02:17Z</time></trkpt><trkpt lat="42.46843355418902" lon="18.68570054438861"><ele>6.0</ele><time>2026-05-03T07:02:18Z</time></trkpt><trkpt lat="42.468516791524166" lon="18.685747483815344"><ele>6.0</ele><time>2026-05-03T07:02:19Z</time></trkpt><trkpt lat="42.46860391624484" lon="18.685796844180587"><ele>6.0</ele><time>2026-05-03T07:02:20Z</time></trkpt><trkpt lat="42.468685862076995" lon="18.685844426838976"><ele>6.0</ele><time>2026-05-03T07:02:21Z</time></trkpt><trkpt lat="42.46876786425564" lon="18.685896490226202"><ele>6.0</ele><time>2026-05-03T07:02:22Z</time></trkpt><trkpt lat="42.46883933854956" lon="18.68592134004781"><ele>6.0</ele><time>2026-05-03T07:02:23Z</time></trkpt><trkpt lat="42.46891206815484" lon="18.685936962847098"><ele>6.0</ele><time>2026-05-03T07:02:24Z</time></trkpt><trkpt lat="42.46898438700816" lon="18.685959017500423"><ele>6.0</ele><time>2026-05-03T07:02:25Z</time></trkpt><trkpt lat="42.46906353403358" lon="18.685970342033556"><ele>5.666666666666667</ele><time>2026-05-03T07:02:26Z</time></trkpt><trkpt lat="42.46914276689042" lon="18.685974543119112"><ele>5.333333333333333</ele><time>2026-05-03T07:02:27Z</time></trkpt><trkpt lat="42.46922425313648" lon="18.68597897167535"><ele>5.0</ele><time>2026-05-03T07:02:28Z</time></trkpt><trkpt lat="42.46929927705316" lon="18.68599383955006"><ele>4.666666666666666</ele><time>2026-05-03T07:02:29Z</time></trkpt><trkpt lat="42.46937833270951" lon="18.686031395195204"><ele>4.333333333333333</ele><time>2026-05-03T07:02:30Z</time></trkpt><trkpt lat="42.469445388470405" lon="18.686094461245453"><ele>4.0</ele><time>2026-05-03T07:02:31Z</time></trkpt><trkpt lat="42.469500032353444" lon="18.686173360052294"><ele>4.833333333333333</ele><time>2026-05-03T07:02:32Z</time></trkpt><trkpt lat="42.46956295461015" lon="18.68627771286397"><ele>5.666666666666666</ele><time>2026-05-03T07:02:34Z</time></trkpt><trkpt lat="42.469618664448255" lon="18.686341806299374"><ele>6.5</ele><time>2026-05-03T07:02:48Z</time></trkpt><trkpt lat="42.469686897659926" lon="18.68640532296661"><ele>7.333333333333333</ele><time>2026-05-03T07:02:52Z</time></trkpt><trkpt lat="42.469777325205136" lon="18.686461802199656"><ele>8.166666666666666</ele><time>2026-05-03T07:02:54Z</time></trkpt><trkpt lat="42.46983937845735" lon="18.68650399750273"><ele>9.0</ele><time>2026-05-03T07:02:55Z</time></trkpt><trkpt lat="42.469910172548666" lon="18.68655501727593"><ele>9.0</ele><time>2026-05-03T07:02:56Z</time></trkpt><trkpt lat="42.4699904950381" lon="18.68660700494932"><ele>9.0</ele><time>2026-05-03T07:02:57Z</time></trkpt><trkpt lat="42.470077134727255" lon="18.686661183536817"><ele>9.0</ele><time>2026-05-03T07:02:58Z</time></trkpt><trkpt lat="42.47016441523251" lon="18.686713431911983"><ele>9.0</ele><time>2026-05-03T07:02:59Z</time></trkpt><trkpt lat="42.470244441404674" lon="18.686753313820123"><ele>9.0</ele><time>2026-05-03T07:03:00Z</time></trkpt><trkpt lat="42.47031984592178" lon="18.686784792646915"><ele>9.0</ele><time>2026-05-03T07:03:01Z</time></trkpt><trkpt lat="42.47039766663273" lon="18.686802857531852"><ele>10.0</ele><time>2026-05-03T07:03:02Z</time></trkpt><trkpt lat="42.470476276354866" lon="18.68682733457057"><ele>11.0</ele><time>2026-05-03T07:03:03Z</time></trkpt><trkpt lat="42.47055806352171" lon="18.686867923983847"><ele>11.999999999999998</ele><time>2026-05-03T07:03:04Z</time></trkpt><trkpt lat="42.470640096923404" lon="18.686901954872347"><ele>13.0</ele><time>2026-05-03T07:03:05Z</time></trkpt><trkpt lat="42.470734010133434" lon="18.686916017379303"><ele>14.0</ele><time>2026-05-03T07:03:06Z</time></trkpt><trkpt lat="42.47083806099118" lon="18.68692103800508"><ele>14.0</ele><time>2026-05-03T07:03:07Z</time></trkpt><trkpt lat="42.470944566294" lon="18.68690712012674"><ele>13.999999999999998</ele><time>2026-05-03T07:03:08Z</time></trkpt><trkpt lat="42.47104577638712" lon="18.686881318795702"><ele>13.999999999999998</ele><time>2026-05-03T07:03:09Z</time></trkpt><trkpt lat="42.47114247472057" lon="18.686854117078028"><ele>14.0</ele><time>2026-05-03T07:03:10Z</time></trkpt><trkpt lat="42.47123634113796" lon="18.68683066197574"><ele>14.0</ele><time>2026-05-03T07:03:11Z</time></trkpt><trkpt lat="42.47133672467437" lon="18.68681257767056"><ele>14.2</ele><time>2026-05-03T07:03:12Z</time></trkpt><trkpt lat="42.47144282148968" lon="18.68679639144546"><ele>14.399999999999999</ele><time>2026-05-03T07:03:13Z</time></trkpt><trkpt lat="42.4715514785838" lon="18.68678675687693"><ele>14.6</ele><time>2026-05-03T07:03:14Z</time></trkpt><trkpt lat="42.47166285832556" lon="18.686780259273323"><ele>14.8</ele><time>2026-05-03T07:03:15Z</time></trkpt><trkpt lat="42.47177657933275" lon="18.686771107356773"><ele>15.0</ele><time>2026-05-03T07:03:16Z</time></trkpt><trkpt lat="42.47189236017599" lon="18.686748983502312"><ele>15.0</ele><time>2026-05-03T07:03:17Z</time></trkpt><trkpt lat="42.4720066557951" lon="18.686707686728422"><ele>15.0</ele><time>2026-05-03T07:03:18Z</time></trkpt><trkpt lat="42.47212171400946" lon="18.68665836763882"><ele>15.0</ele><time>2026-05-03T07:03:19Z</time></trkpt><trkpt lat="42.47223604915998" lon="18.686605820404623"><ele>15.0</ele><time>2026-05-03T07:03:20Z</time></trkpt><trkpt lat="42.472357917406434" lon="18.68655921152868"><ele>17.25</ele><time>2026-05-03T07:03:21Z</time></trkpt><trkpt lat="42.47248286083965" lon="18.686527066442885"><ele>19.5</ele><time>2026-05-03T07:03:22Z</time></trkpt><trkpt lat="42.47260182433862" lon="18.68650283048709"><ele>21.75</ele><time>2026-05-03T07:03:23Z</time></trkpt><trkpt lat="42.472721762229256" lon="18.686482972016375"><ele>24.0</ele><time>2026-05-03T07:03:24Z</time></trkpt><trkpt lat="42.47283812344123" lon="18.686461007451058"><ele>21.4</ele><time>2026-05-03T07:03:25Z</time></trkpt><trkpt lat="42.47295318423552" lon="18.686441682127878"><ele>18.799999999999997</ele><time>2026-05-03T07:03:26Z</time></trkpt><trkpt lat="42.473064493485715" lon="18.68642561295053"><ele>16.2</ele><time>2026-05-03T07:03:27Z</time></trkpt><trkpt lat="42.47317109217781" lon="18.686442682719775"><ele>13.600000000000001</ele><time>2026-05-03T07:03:28Z</time></trkpt><trkpt lat="42.473266262826556" lon="18.68650053663189"><ele>11.0</ele><time>2026-05-03T07:03:29Z</time></trkpt><trkpt lat="42.47335317073288" lon="18.686584110070516"><ele>11.0</ele><time>2026-05-03T07:03:30Z</time></trkpt><trkpt lat="42.47343922107367" lon="18.68667430475105"><ele>11.0</ele><time>2026-05-03T07:03:31Z</time></trkpt><trkpt lat="42.473526661468455" lon="18.686763398613135"><ele>11.0</ele><time>2026-05-03T07:03:32Z</time></trkpt><trkpt lat="42.4736291595366" lon="18.686842555412365"><ele>11.0</ele><time>2026-05-03T07:03:33Z</time></trkpt><trkpt lat="42.473727142170645" lon="18.686914730311756"><ele>11.0</ele><time>2026-05-03T07:03:34Z</time></trkpt><trkpt lat="42.47382411206938" lon="18.68698733678246"><ele>12.25</ele><time>2026-05-03T07:03:35Z</time></trkpt><trkpt lat="42.47391787749738" lon="18.68707931166528"><ele>13.5</ele><time>2026-05-03T07:03:36Z</time></trkpt><trkpt lat="42.4740068551442" lon="18.687169665740292"><ele>14.75</ele><time>2026-05-03T07:03:37Z</time></trkpt><trkpt lat="42.47409310179353" lon="18.68727011911695"><ele>16.0</ele><time>2026-05-03T07:03:38Z</time></trkpt><trkpt lat="42.4741762925969" lon="18.687368611086544"><ele>16.0</ele><time>2026-05-03T07:03:39Z</time></trkpt><trkpt lat="42.47424852271688" lon="18.68746219746942"><ele>16.0</ele><time>2026-05-03T07:03:40Z</time></trkpt><trkpt lat="42.47432479047089" lon="18.68755868924016"><ele>16.0</ele><time>2026-05-03T07:03:41Z</time></trkpt><trkpt lat="42.474406099391466" lon="18.68764211772167"><ele>16.0</ele><time>2026-05-03T07:03:42Z</time></trkpt><trkpt lat="42.474492804733984" lon="18.687727631020746"><ele>16.0</ele><time>2026-05-03T07:03:43Z</time></trkpt><trkpt lat="42.47458176793522" lon="18.687812644779573"><ele>14.600000000000001</ele><time>2026-05-03T07:03:44Z</time></trkpt><trkpt lat="42.47466540721958" lon="18.687912518762463"><ele>13.200000000000001</ele><time>2026-05-03T07:03:45Z</time></trkpt><trkpt lat="42.47473501947863" lon="18.688035115322922"><ele>11.8</ele><time>2026-05-03T07:03:46Z</time></trkpt><trkpt lat="42.47477476266138" lon="18.68816702901951"><ele>10.4</ele><time>2026-05-03T07:03:47Z</time></trkpt><trkpt lat="42.474804906741156" lon="18.688299119394987"><ele>9.0</ele><time>2026-05-03T07:03:48Z</time></trkpt><trkpt lat="42.47483557754768" lon="18.688432084038883"><ele>9.0</ele><time>2026-05-03T07:03:49Z</time></trkpt><trkpt lat="42.474887232478075" lon="18.688551572888848"><ele>9.0</ele><time>2026-05-03T07:03:50Z</time></trkpt><trkpt lat="42.4749667837419" lon="18.68863623555595"><ele>9.0</ele><time>2026-05-03T07:03:51Z</time></trkpt><trkpt lat="42.47506961474005" lon="18.688699589162244"><ele>9.0</ele><time>2026-05-03T07:03:52Z</time></trkpt><trkpt lat="42.475168413385305" lon="18.688761819598373"><ele>9.0</ele><time>2026-05-03T07:03:53Z</time></trkpt><trkpt lat="42.47526649615818" lon="18.68882659356468"><ele>8.2</ele><time>2026-05-03T07:03:54Z</time></trkpt><trkpt lat="42.47535492768707" lon="18.688903118401093"><ele>7.4</ele><time>2026-05-03T07:03:55Z</time></trkpt><trkpt lat="42.47544669475769" lon="18.688972802801555"><ele>6.6</ele><time>2026-05-03T07:03:56Z</time></trkpt><trkpt lat="42.47554101858721" lon="18.6890272797334"><ele>5.8</ele><time>2026-05-03T07:03:57Z</time></trkpt><trkpt lat="42.47563390273636" lon="18.68908778026"><ele>5.0</ele><time>2026-05-03T07:03:58Z</time></trkpt><trkpt lat="42.47572070167284" lon="18.689160249461064"><ele>5.0</ele><time>2026-05-03T07:03:59Z</time></trkpt><trkpt lat="42.47580923996548" lon="18.68923353938434"><ele>5.0</ele><time>2026-05-03T07:04:00Z</time></trkpt><trkpt lat="42.475910141732214" lon="18.689296278209735"><ele>5.0</ele><time>2026-05-03T07:04:01Z</time></trkpt><trkpt lat="42.476000746458446" lon="18.689356708550257"><ele>5.0</ele><time>2026-05-03T07:04:02Z</time></trkpt><trkpt lat="42.476089938457314" lon="18.6894326815412"><ele>5.0</ele><time>2026-05-03T07:04:03Z</time></trkpt><trkpt lat="42.476184063869" lon="18.689496512732735"><ele>7.2</ele><time>2026-05-03T07:04:04Z</time></trkpt><trkpt lat="42.476277081740896" lon="18.689563527775277"><ele>9.4</ele><time>2026-05-03T07:04:05Z</time></trkpt><trkpt lat="42.47637118985218" lon="18.68962290933377"><ele>11.600000000000001</ele><time>2026-05-03T07:04:06Z</time></trkpt><trkpt lat="42.47646119639322" lon="18.68969040918067"><ele>13.8</ele><time>2026-05-03T07:04:07Z</time></trkpt><trkpt lat="42.476554867030494" lon="18.689759759991258"><ele>16.0</ele><time>2026-05-03T07:04:08Z</time></trkpt><trkpt lat="42.4766504418191" lon="18.689825756262515"><ele>15.999999999999998</ele><time>2026-05-03T07:04:09Z</time></trkpt><trkpt lat="42.47675123883892" lon="18.6898717613352"><ele>16.0</ele><time>2026-05-03T07:04:10Z</time></trkpt><trkpt lat="42.47683808374909" lon="18.68992378462139"><ele>16.0</ele><time>2026-05-03T07:04:11Z</time></trkpt><trkpt lat="42.47690559022712" lon="18.689960124001768"><ele>16.0</ele><time>2026-05-03T07:04:12Z</time></trkpt><trkpt lat="42.4769684449247" lon="18.689990939744376"><ele>15.999999999999998</ele><time>2026-05-03T07:04:13Z</time></trkpt><trkpt lat="42.47703686263518" lon="18.69001698297407"><ele>16.0</ele><time>2026-05-03T07:04:15Z</time></trkpt><trkpt lat="42.47710006487158" lon="18.69004764253226"><ele>14.8</ele><time>2026-05-03T07:04:20Z</time></trkpt><trkpt lat="42.47712611697112" lon="18.690132005503337"><ele>13.600000000000001</ele><time>2026-05-03T07:05:24Z</time></trkpt><trkpt lat="42.477181976294595" lon="18.690190127822724"><ele>12.4</ele><time>2026-05-03T07:08:34Z</time></trkpt><trkpt lat="42.4772009516361" lon="18.69034643655925"><ele>11.2</ele><time>2026-05-03T07:08:36Z</time></trkpt><trkpt lat="42.477212522455716" lon="18.6904704297398"><ele>10.0</ele><time>2026-05-03T07:08:37Z</time></trkpt><trkpt lat="42.477234307834436" lon="18.690620316046772"><ele>10.0</ele><time>2026-05-03T07:08:38Z</time></trkpt><trkpt lat="42.4772019065128" lon="18.690792742413667"><ele>10.0</ele><time>2026-05-03T07:08:39Z</time></trkpt><trkpt lat="42.47717519968723" lon="18.691004944679698"><ele>10.0</ele><time>2026-05-03T07:08:40Z</time></trkpt><trkpt lat="42.47714423587151" lon="18.691231231483673"><ele>8.666666666666668</ele><time>2026-05-03T07:08:41Z</time></trkpt><trkpt lat="42.47710933123656" lon="18.691460251877217"><ele>7.333333333333334</ele><time>2026-05-03T07:08:42Z</time></trkpt><trkpt lat="42.477076661841984" lon="18.691669300456294"><ele>6.0</ele><time>2026-05-03T07:08:43Z</time></trkpt><trkpt lat="42.47702212307253" lon="18.69185098777842"><ele>16.333333333333336</ele><time>2026-05-03T07:08:44Z</time></trkpt><trkpt lat="42.47696943651746" lon="18.69205959393547"><ele>26.666666666666668</ele><time>2026-05-03T07:08:45Z</time></trkpt><trkpt lat="42.476916124643" lon="18.692281273591515"><ele>37.0</ele><time>2026-05-03T07:08:46Z</time></trkpt><trkpt lat="42.476866577681434" lon="18.692474472191048"><ele>37.0</ele><time>2026-05-03T07:08:47Z</time></trkpt><trkpt lat="42.47681425014633" lon="18.69264769690206"><ele>37.0</ele><time>2026-05-03T07:08:48Z</time></trkpt><trkpt lat="42.47676227917241" lon="18.692821431476432"><ele>37.0</ele><time>2026-05-03T07:08:49Z</time></trkpt><trkpt lat="42.47671131802993" lon="18.692994397690924"><ele>37.0</ele><time>2026-05-03T07:08:50Z</time></trkpt><trkpt lat="42.47666821813955" lon="18.69315311187734"><ele>34.25</ele><time>2026-05-03T07:08:51Z</time></trkpt><trkpt lat="42.47662737257927" lon="18.69330705719031"><ele>31.5</ele><time>2026-05-03T07:08:52Z</time></trkpt><trkpt lat="42.476588716724805" lon="18.693452976640835"><ele>28.75</ele><time>2026-05-03T07:08:53Z</time></trkpt><trkpt lat="42.476551452328124" lon="18.69359493395027"><ele>26.0</ele><time>2026-05-03T07:08:54Z</time></trkpt><trkpt lat="42.47651676526098" lon="18.693732610728905"><ele>24.0</ele><time>2026-05-03T07:08:55Z</time></trkpt><trkpt lat="42.47648211507593" lon="18.69386962616303"><ele>22.0</ele><time>2026-05-03T07:08:56Z</time></trkpt><trkpt lat="42.47644717471298" lon="18.694002844623835"><ele>20.0</ele><time>2026-05-03T07:08:57Z</time></trkpt><trkpt lat="42.47641367838996" lon="18.694129282192943"><ele>18.0</ele><time>2026-05-03T07:08:58Z</time></trkpt><trkpt lat="42.47638174540796" lon="18.694249322493867"><ele>16.0</ele><time>2026-05-03T07:08:59Z</time></trkpt><trkpt lat="42.47634728059104" lon="18.6943783309336"><ele>14.0</ele><time>2026-05-03T07:09:00Z</time></trkpt><trkpt lat="42.476314905947355" lon="18.6945017950116"><ele>12.000000000000002</ele><time>2026-05-03T07:09:01Z</time></trkpt><trkpt lat="42.47627734746527" lon="18.69464150210834"><ele>10.0</ele><time>2026-05-03T07:09:02Z</time></trkpt><trkpt lat="42.476243835365096" lon="18.69476834963921"><ele>8.0</ele><time>2026-05-03T07:09:03Z</time></trkpt><trkpt lat="42.47620868756155" lon="18.694899691427146"><ele>6.0</ele><time>2026-05-03T07:09:04Z</time></trkpt><trkpt lat="42.476173855087815" lon="18.695032949465332"><ele>9.399999999999999</ele><time>2026-05-03T07:09:05Z</time></trkpt><trkpt lat="42.47613795939923" lon="18.695169094689593"><ele>12.799999999999999</ele><time>2026-05-03T07:09:06Z</time></trkpt><trkpt lat="42.476111939638656" lon="18.695306881973746"><ele>16.2</ele><time>2026-05-03T07:09:07Z</time></trkpt><trkpt lat="42.476063834684865" lon="18.695439440881962"><ele>19.599999999999998</ele><time>2026-05-03T07:09:08Z</time></trkpt><trkpt lat="42.47601964048233" lon="18.695573279745922"><ele>23.0</ele><time>2026-05-03T07:09:09Z</time></trkpt><trkpt lat="42.47597487325082" lon="18.695694340880905"><ele>23.0</ele><time>2026-05-03T07:09:10Z</time></trkpt><trkpt lat="42.47593407375703" lon="18.695808942012984"><ele>23.0</ele><time>2026-05-03T07:09:11Z</time></trkpt><trkpt lat="42.47589169187875" lon="18.695912344587956"><ele>23.0</ele><time>2026-05-03T07:09:12Z</time></trkpt><trkpt lat="42.47585244728577" lon="18.696024625937397"><ele>23.0</ele><time>2026-05-03T07:09:13Z</time></trkpt><trkpt lat="42.47581475907989" lon="18.696142275987825"><ele>23.0</ele><time>2026-05-03T07:09:14Z</time></trkpt><trkpt lat="42.475768157099694" lon="18.696254505026996"><ele>21.4</ele><time>2026-05-03T07:09:15Z</time></trkpt><trkpt lat="42.47572924203915" lon="18.696367307010924"><ele>19.799999999999997</ele><time>2026-05-03T07:09:16Z</time></trkpt><trkpt lat="42.4757058682306" lon="18.696498641502938"><ele>18.2</ele><time>2026-05-03T07:09:17Z</time></trkpt><trkpt lat="42.47568815568726" lon="18.6966217599765"><ele>16.6</ele><time>2026-05-03T07:09:18Z</time></trkpt><trkpt lat="42.47567256953177" lon="18.69673975339481"><ele>15.0</ele><time>2026-05-03T07:09:19Z</time></trkpt><trkpt lat="42.475673571646546" lon="18.696858206883842"><ele>13.5</ele><time>2026-05-03T07:09:20Z</time></trkpt><trkpt lat="42.47564401348296" lon="18.69696465926402"><ele>12.0</ele><time>2026-05-03T07:09:21Z</time></trkpt><trkpt lat="42.47565059138862" lon="18.697081475438786"><ele>10.5</ele><time>2026-05-03T07:09:22Z</time></trkpt><trkpt lat="42.475655281962716" lon="18.69718849867478"><ele>9.0</ele><time>2026-05-03T07:09:23Z</time></trkpt><trkpt lat="42.475667635920516" lon="18.697295867404602"><ele>7.5</ele><time>2026-05-03T07:09:24Z</time></trkpt><trkpt lat="42.475678473571975" lon="18.697408181876597"><ele>6.0</ele><time>2026-05-03T07:09:25Z</time></trkpt><trkpt lat="42.47568572676554" lon="18.69751101197001"><ele>6.0</ele><time>2026-05-03T07:09:26Z</time></trkpt><trkpt lat="42.47570080416292" lon="18.69761809910316"><ele>6.0</ele><time>2026-05-03T07:09:27Z</time></trkpt><trkpt lat="42.475708260035724" lon="18.697725486741103"><ele>6.0</ele><time>2026-05-03T07:09:28Z</time></trkpt><trkpt lat="42.475715847176666" lon="18.697834337384286"><ele>6.0</ele><time>2026-05-03T07:09:29Z</time></trkpt><trkpt lat="42.475709889158004" lon="18.697942136484148"><ele>6.0</ele><time>2026-05-03T07:09:30Z</time></trkpt><trkpt lat="42.47569261389797" lon="18.69805816086766"><ele>6.0</ele><time>2026-05-03T07:09:31Z</time></trkpt><trkpt lat="42.47566196125581" lon="18.69817331574692"><ele>6.166666666666667</ele><time>2026-05-03T07:09:32Z</time></trkpt><trkpt lat="42.475624818034014" lon="18.698281326007987"><ele>6.333333333333334</ele><time>2026-05-03T07:09:33Z</time></trkpt><trkpt lat="42.475578756624486" lon="18.698379710024717"><ele>6.5</ele><time>2026-05-03T07:09:34Z</time></trkpt><trkpt lat="42.4755067161799" lon="18.698453656456376"><ele>6.666666666666667</ele><time>2026-05-03T07:09:35Z</time></trkpt><trkpt lat="42.475432402602785" lon="18.6985264270035"><ele>6.833333333333334</ele><time>2026-05-03T07:09:36Z</time></trkpt><trkpt lat="42.47536796525267" lon="18.698599663922085"><ele>7.0</ele><time>2026-05-03T07:09:37Z</time></trkpt><trkpt lat="42.475314726752366" lon="18.698660117349103"><ele>7.000000000000001</ele><time>2026-05-03T07:09:38Z</time></trkpt><trkpt lat="42.47526295626877" lon="18.698718744846367"><ele>7.0</ele><time>2026-05-03T07:09:39Z</time></trkpt><trkpt lat="42.47520527668908" lon="18.698784064073074"><ele>7.0</ele><time>2026-05-03T07:09:40Z</time></trkpt><trkpt lat="42.475152983690855" lon="18.698870853142076"><ele>7.0</ele><time>2026-05-03T07:09:41Z</time></trkpt><trkpt lat="42.475074844701545" lon="18.69893177175096"><ele>7.000000000000001</ele><time>2026-05-03T07:09:42Z</time></trkpt><trkpt lat="42.475035087818995" lon="18.69904976978971"><ele>7.0</ele><time>2026-05-03T07:09:43Z</time></trkpt><trkpt lat="42.475001786839755" lon="18.699164181594046"><ele>7.000000000000001</ele><time>2026-05-03T07:09:44Z</time></trkpt><trkpt lat="42.47499144405744" lon="18.699283926822506"><ele>7.0</ele><time>2026-05-03T07:09:45Z</time></trkpt><trkpt lat="42.474984952538776" lon="18.699399901089386"><ele>7.0</ele><time>2026-05-03T07:09:46Z</time></trkpt><trkpt lat="42.47495095721645" lon="18.699504266355948"><ele>7.0</ele><time>2026-05-03T07:09:47Z</time></trkpt><trkpt lat="42.47490501983622" lon="18.69959977460548"><ele>7.000000000000001</ele><time>2026-05-03T07:09:48Z</time></trkpt><trkpt lat="42.47486244880621" lon="18.699697633375695"><ele>7.0</ele><time>2026-05-03T07:09:49Z</time></trkpt><trkpt lat="42.47481227533178" lon="18.699781372315563"><ele>6.333333333333334</ele><time>2026-05-03T07:09:50Z</time></trkpt><trkpt lat="42.47476734118816" lon="18.69986275188625"><ele>5.666666666666667</ele><time>2026-05-03T07:09:51Z</time></trkpt><trkpt lat="42.47472438777938" lon="18.699938662000847"><ele>5.0</ele><time>2026-05-03T07:09:52Z</time></trkpt><trkpt lat="42.4746669259374" lon="18.70008312588771"><ele>4.333333333333334</ele><time>2026-05-03T07:09:54Z</time></trkpt><trkpt lat="42.474673545990306" lon="18.700240170720072"><ele>3.666666666666667</ele><time>2026-05-03T07:09:56Z</time></trkpt><trkpt lat="42.4746779562932" lon="18.700329386826702"><ele>3.0</ele><time>2026-05-03T07:09:57Z</time></trkpt><trkpt lat="42.4746764765951" lon="18.700422955687525"><ele>2.714285714285714</ele><time>2026-05-03T07:09:58Z</time></trkpt><trkpt lat="42.47468171244021" lon="18.700517644565505"><ele>2.4285714285714284</ele><time>2026-05-03T07:09:59Z</time></trkpt><trkpt lat="42.474693547412706" lon="18.700616641620677"><ele>2.142857142857143</ele><time>2026-05-03T07:10:00Z</time></trkpt><trkpt lat="42.47470431453264" lon="18.700721239384595"><ele>1.857142857142857</ele><time>2026-05-03T07:10:01Z</time></trkpt><trkpt lat="42.47470486665146" lon="18.700819241881"><ele>1.5714285714285712</ele><time>2026-05-03T07:10:02Z</time></trkpt><trkpt lat="42.474695683024684" lon="18.700920838428516"><ele>1.2857142857142856</ele><time>2026-05-03T07:10:03Z</time></trkpt><trkpt lat="42.47466998079693" lon="18.701014857942578"><ele>1.0</ele><time>2026-05-03T07:10:04Z</time></trkpt><trkpt lat="42.47462125336481" lon="18.701094113844416"><ele>1.6666666666666665</ele><time>2026-05-03T07:10:05Z</time></trkpt><trkpt lat="42.4745676156964" lon="18.70115671604278"><ele>2.3333333333333335</ele><time>2026-05-03T07:10:06Z</time></trkpt><trkpt lat="42.474508695557" lon="18.701220705599855"><ele>3.0</ele><time>2026-05-03T07:10:07Z</time></trkpt><trkpt lat="42.47445114828844" lon="18.701295723090222"><ele>3.666666666666667</ele><time>2026-05-03T07:10:08Z</time></trkpt><trkpt lat="42.474401139262234" lon="18.701384004272743"><ele>4.333333333333334</ele><time>2026-05-03T07:10:09Z</time></trkpt><trkpt lat="42.47434227603682" lon="18.70146815791933"><ele>5.0</ele><time>2026-05-03T07:10:10Z</time></trkpt><trkpt lat="42.47428085459591" lon="18.701555421333723"><ele>5.0</ele><time>2026-05-03T07:10:11Z</time></trkpt><trkpt lat="42.474208758148535" lon="18.70163153782806"><ele>5.0</ele><time>2026-05-03T07:10:12Z</time></trkpt><trkpt lat="42.47412702556864" lon="18.70169543044715"><ele>5.0</ele><time>2026-05-03T07:10:13Z</time></trkpt><trkpt lat="42.47404109858579" lon="18.701754546122427"><ele>5.0</ele><time>2026-05-03T07:10:14Z</time></trkpt><trkpt lat="42.47395318870249" lon="18.70181195144964"><ele>5.0</ele><time>2026-05-03T07:10:15Z</time></trkpt><trkpt lat="42.4738623721055" lon="18.701868675903757"><ele>4.333333333333334</ele><time>2026-05-03T07:10:16Z</time></trkpt><trkpt lat="42.473776003920094" lon="18.70192824320808"><ele>3.666666666666667</ele><time>2026-05-03T07:10:17Z</time></trkpt><trkpt lat="42.473701537436035" lon="18.70200070475751"><ele>3.0</ele><time>2026-05-03T07:10:18Z</time></trkpt><trkpt lat="42.47364472868541" lon="18.702087241642555"><ele>2.3333333333333335</ele><time>2026-05-03T07:10:19Z</time></trkpt><trkpt lat="42.47360125042042" lon="18.702187907716894"><ele>1.6666666666666665</ele><time>2026-05-03T07:10:20Z</time></trkpt><trkpt lat="42.47356393694311" lon="18.702290699996478"><ele>1.0</ele><time>2026-05-03T07:10:21Z</time></trkpt><trkpt lat="42.47353198633965" lon="18.702394477092607"><ele>1.6666666666666665</ele><time>2026-05-03T07:10:22Z</time></trkpt><trkpt lat="42.47350468774242" lon="18.70250472832691"><ele>2.3333333333333335</ele><time>2026-05-03T07:10:23Z</time></trkpt><trkpt lat="42.473485976224865" lon="18.70261036430096"><ele>3.0</ele><time>2026-05-03T07:10:24Z</time></trkpt><trkpt lat="42.47347444149904" lon="18.702718169982536"><ele>3.666666666666667</ele><time>2026-05-03T07:10:25Z</time></trkpt><trkpt lat="42.47346448106817" lon="18.70282275663762"><ele>4.333333333333334</ele><time>2026-05-03T07:10:26Z</time></trkpt><trkpt lat="42.47344887247305" lon="18.70292875505523"><ele>5.0</ele><time>2026-05-03T07:10:27Z</time></trkpt><trkpt lat="42.473432517107334" lon="18.703027796825992"><ele>5.0</ele><time>2026-05-03T07:10:28Z</time></trkpt><trkpt lat="42.47341355753584" lon="18.70312524171572"><ele>5.0</ele><time>2026-05-03T07:10:29Z</time></trkpt><trkpt lat="42.473394649642465" lon="18.70322777777316"><ele>5.0</ele><time>2026-05-03T07:10:30Z</time></trkpt><trkpt lat="42.47337983142351" lon="18.703339865600967"><ele>5.0</ele><time>2026-05-03T07:10:31Z</time></trkpt><trkpt lat="42.47336255121743" lon="18.703443168504116"><ele>5.0</ele><time>2026-05-03T07:10:32Z</time></trkpt><trkpt lat="42.47333819643492" lon="18.70355751387443"><ele>5.0</ele><time>2026-05-03T07:10:33Z</time></trkpt><trkpt lat="42.47329460526939" lon="18.703673146638337"><ele>4.2</ele><time>2026-05-03T07:10:34Z</time></trkpt><trkpt lat="42.47324036193568" lon="18.703782983425718"><ele>3.4</ele><time>2026-05-03T07:10:35Z</time></trkpt><trkpt lat="42.4731844473318" lon="18.70388740220972"><ele>2.6</ele><time>2026-05-03T07:10:36Z</time></trkpt><trkpt lat="42.473135000909494" lon="18.70398943706135"><ele>1.8</ele><time>2026-05-03T07:10:37Z</time></trkpt><trkpt lat="42.47308750342331" lon="18.7040871414908"><ele>1.0</ele><time>2026-05-03T07:10:38Z</time></trkpt><trkpt lat="42.47303979964259" lon="18.704179895031377"><ele>0.9999999999999999</ele><time>2026-05-03T07:10:39Z</time></trkpt><trkpt lat="42.472999295104266" lon="18.704270763860805"><ele>1.0</ele><time>2026-05-03T07:10:40Z</time></trkpt><trkpt lat="42.47295481896359" lon="18.70434592935156"><ele>1.0</ele><time>2026-05-03T07:10:41Z</time></trkpt><trkpt lat="42.47290289177009" lon="18.704410352796287"><ele>1.0</ele><time>2026-05-03T07:10:42Z</time></trkpt><trkpt lat="42.472838573380685" lon="18.704461032786345"><ele>0.9999999999999999</ele><time>2026-05-03T07:10:43Z</time></trkpt><trkpt lat="42.47276207789816" lon="18.704504971263596"><ele>1.0</ele><time>2026-05-03T07:10:44Z</time></trkpt><trkpt lat="42.47268997463548" lon="18.704557344241756"><ele>1.8333333333333333</ele><time>2026-05-03T07:10:45Z</time></trkpt><trkpt lat="42.47260838478516" lon="18.704581786822505"><ele>2.6666666666666665</ele><time>2026-05-03T07:10:46Z</time></trkpt><trkpt lat="42.47253124924715" lon="18.70459326313035"><ele>3.5</ele><time>2026-05-03T07:10:47Z</time></trkpt><trkpt lat="42.472457844564275" lon="18.704613131408586"><ele>4.333333333333333</ele><time>2026-05-03T07:10:48Z</time></trkpt><trkpt lat="42.472383922078684" lon="18.70465084239619"><ele>5.166666666666667</ele><time>2026-05-03T07:10:49Z</time></trkpt><trkpt lat="42.47231111562228" lon="18.70470895465603"><ele>6.0</ele><time>2026-05-03T07:10:50Z</time></trkpt><trkpt lat="42.47224099751959" lon="18.704776637912598"><ele>6.0</ele><time>2026-05-03T07:10:51Z</time></trkpt><trkpt lat="42.472168353504046" lon="18.704866715638307"><ele>6.0</ele><time>2026-05-03T07:10:52Z</time></trkpt><trkpt lat="42.47209880016754" lon="18.70497990639101"><ele>6.0</ele><time>2026-05-03T07:10:53Z</time></trkpt><trkpt lat="42.47204308304608" lon="18.705114443990972"><ele>6.0</ele><time>2026-05-03T07:10:54Z</time></trkpt><trkpt lat="42.47201065994236" lon="18.705256154706976"><ele>6.0</ele><time>2026-05-03T07:10:55Z</time></trkpt><trkpt lat="42.47200083179503" lon="18.70539271917001"><ele>6.166666666666667</ele><time>2026-05-03T07:10:56Z</time></trkpt><trkpt lat="42.471993198385455" lon="18.705514595033716"><ele>6.333333333333334</ele><time>2026-05-03T07:10:57Z</time></trkpt><trkpt lat="42.471970510582736" lon="18.705619781776782"><ele>6.5</ele><time>2026-05-03T07:10:58Z</time></trkpt><trkpt lat="42.471936642461884" lon="18.70572130410834"><ele>6.666666666666667</ele><time>2026-05-03T07:10:59Z</time></trkpt><trkpt lat="42.47189441469559" lon="18.70581672249169"><ele>6.833333333333334</ele><time>2026-05-03T07:11:00Z</time></trkpt><trkpt lat="42.47184934628131" lon="18.705906166894447"><ele>7.0</ele><time>2026-05-03T07:11:01Z</time></trkpt><trkpt lat="42.47180428243645" lon="18.705992345497215"><ele>6.500000000000001</ele><time>2026-05-03T07:11:02Z</time></trkpt><trkpt lat="42.471769940181396" lon="18.70608754259507"><ele>6.0</ele><time>2026-05-03T07:11:03Z</time></trkpt><trkpt lat="42.471739924581975" lon="18.70618840425559"><ele>5.5</ele><time>2026-05-03T07:11:04Z</time></trkpt><trkpt lat="42.4717146070108" lon="18.70628650400721"><ele>5.0</ele><time>2026-05-03T07:11:05Z</time></trkpt><trkpt lat="42.47170596513863" lon="18.70639032629176"><ele>4.5</ele><time>2026-05-03T07:11:06Z</time></trkpt><trkpt lat="42.47171252255735" lon="18.706490030866895"><ele>4.0</ele><time>2026-05-03T07:11:07Z</time></trkpt><trkpt lat="42.47172493742536" lon="18.706593206505726"><ele>4.0</ele><time>2026-05-03T07:11:08Z</time></trkpt><trkpt lat="42.47174312949505" lon="18.706696479755852"><ele>3.9999999999999996</ele><time>2026-05-03T07:11:09Z</time></trkpt><trkpt lat="42.47176416739837" lon="18.706790640425982"><ele>4.0</ele><time>2026-05-03T07:11:10Z</time></trkpt><trkpt lat="42.4717931810657" lon="18.706885761081065"><ele>4.0</ele><time>2026-05-03T07:11:11Z</time></trkpt><trkpt lat="42.47182709059974" lon="18.706977661706436"><ele>3.9999999999999996</ele><time>2026-05-03T07:11:12Z</time></trkpt><trkpt lat="42.47186475044126" lon="18.70706275144722"><ele>4.0</ele><time>2026-05-03T07:11:13Z</time></trkpt><trkpt lat="42.47189817473133" lon="18.707137298852643"><ele>4.0</ele><time>2026-05-03T07:11:14Z</time></trkpt><trkpt lat="42.47195360173026" lon="18.707266889742996"><ele>3.4000000000000004</ele><time>2026-05-03T07:11:16Z</time></trkpt><trkpt lat="42.47200282647068" lon="18.707412948206365"><ele>2.8000000000000003</ele><time>2026-05-03T07:11:18Z</time></trkpt><trkpt lat="42.472037435507566" lon="18.707529113411887"><ele>2.2</ele><time>2026-05-03T07:11:20Z</time></trkpt><trkpt lat="42.472065244134" lon="18.707610029853086"><ele>1.6</ele><time>2026-05-03T07:11:22Z</time></trkpt><trkpt lat="42.47210048920081" lon="18.707692277325386"><ele>1.0</ele><time>2026-05-03T07:11:24Z</time></trkpt><trkpt lat="42.47213144926404" lon="18.707833490953057"><ele>0.9999999999999999</ele><time>2026-05-03T07:11:26Z</time></trkpt><trkpt lat="42.47214373502739" lon="18.70791868727217"><ele>1.0</ele><time>2026-05-03T07:11:27Z</time></trkpt><trkpt lat="42.472173422685735" lon="18.708001287835184"><ele>1.0</ele><time>2026-05-03T07:11:28Z</time></trkpt><trkpt lat="42.472239064758334" lon="18.70816559700429"><ele>1.0</ele><time>2026-05-03T07:11:30Z</time></trkpt><trkpt lat="42.47227353252756" lon="18.708258061337347"><ele>0.9999999999999999</ele><time>2026-05-03T07:11:31Z</time></trkpt><trkpt lat="42.47231372518186" lon="18.70835066995933"><ele>1.0</ele><time>2026-05-03T07:11:32Z</time></trkpt><trkpt lat="42.47235268096443" lon="18.708436536028344"><ele>0.9999999999999999</ele><time>2026-05-03T07:11:33Z</time></trkpt><trkpt lat="42.472387498018946" lon="18.70852185219562"><ele>1.0</ele><time>2026-05-03T07:11:34Z</time></trkpt><trkpt lat="42.472428046638626" lon="18.708606498244595"><ele>1.0</ele><time>2026-05-03T07:11:35Z</time></trkpt><trkpt lat="42.47247181795482" lon="18.708690934045354"><ele>1.0</ele><time>2026-05-03T07:11:36Z</time></trkpt><trkpt lat="42.47251419409383" lon="18.70877551894416"><ele>0.9999999999999999</ele><time>2026-05-03T07:11:37Z</time></trkpt><trkpt lat="42.47255566278766" lon="18.7088630691101"><ele>1.0</ele><time>2026-05-03T07:11:38Z</time></trkpt><trkpt lat="42.47259875636926" lon="18.708953414968303"><ele>1.6666666666666665</ele><time>2026-05-03T07:11:39Z</time></trkpt><trkpt lat="42.47264064692258" lon="18.709047792150756"><ele>2.3333333333333335</ele><time>2026-05-03T07:11:40Z</time></trkpt><trkpt lat="42.47268193565438" lon="18.709146231203302"><ele>3.0</ele><time>2026-05-03T07:11:41Z</time></trkpt><trkpt lat="42.47271975547708" lon="18.709242850925815"><ele>3.666666666666667</ele><time>2026-05-03T07:11:42Z</time></trkpt><trkpt lat="42.47274376100923" lon="18.70934700705895"><ele>4.333333333333334</ele><time>2026-05-03T07:11:43Z</time></trkpt><trkpt lat="42.4727511339838" lon="18.7094561019784"><ele>5.0</ele><time>2026-05-03T07:11:44Z</time></trkpt><trkpt lat="42.47274496300859" lon="18.709569145318596"><ele>5.666666666666667</ele><time>2026-05-03T07:11:45Z</time></trkpt><trkpt lat="42.47272440062584" lon="18.709673123301588"><ele>6.333333333333334</ele><time>2026-05-03T07:11:46Z</time></trkpt><trkpt lat="42.47269498717216" lon="18.709774646328235"><ele>7.0</ele><time>2026-05-03T07:11:47Z</time></trkpt><trkpt lat="42.47266097351898" lon="18.709872056759398"><ele>7.666666666666667</ele><time>2026-05-03T07:11:48Z</time></trkpt><trkpt lat="42.472630587330826" lon="18.709971719514066"><ele>8.333333333333334</ele><time>2026-05-03T07:11:49Z</time></trkpt><trkpt lat="42.47260237823011" lon="18.710072303512707"><ele>9.0</ele><time>2026-05-03T07:11:50Z</time></trkpt><trkpt lat="42.472573298829026" lon="18.710176877436428"><ele>8.2</ele><time>2026-05-03T07:11:51Z</time></trkpt><trkpt lat="42.47254200666043" lon="18.71029279969808"><ele>7.4</ele><time>2026-05-03T07:11:52Z</time></trkpt><trkpt lat="42.47251099712215" lon="18.710412635171505"><ele>6.6</ele><time>2026-05-03T07:11:53Z</time></trkpt><trkpt lat="42.472479668785304" lon="18.71054484658988"><ele>5.8</ele><time>2026-05-03T07:11:54Z</time></trkpt><trkpt lat="42.47244974061538" lon="18.710678769365305"><ele>5.0</ele><time>2026-05-03T07:11:55Z</time></trkpt><trkpt lat="42.47243110085774" lon="18.710805837664058"><ele>5.0</ele><time>2026-05-03T07:11:56Z</time></trkpt><trkpt lat="42.47241211240971" lon="18.710941963035555"><ele>5.0</ele><time>2026-05-03T07:11:57Z</time></trkpt><trkpt lat="42.47240427779057" lon="18.711082725032814"><ele>5.0</ele><time>2026-05-03T07:11:58Z</time></trkpt><trkpt lat="42.47239586479843" lon="18.71122220221384"><ele>5.0</ele><time>2026-05-03T07:11:59Z</time></trkpt><trkpt lat="42.47238962282618" lon="18.711363169825002"><ele>5.0</ele><time>2026-05-03T07:12:00Z</time></trkpt><trkpt lat="42.472383300663516" lon="18.71150450893945"><ele>4.8</ele><time>2026-05-03T07:12:01Z</time></trkpt><trkpt lat="42.47237944103463" lon="18.711647175954166"><ele>4.6</ele><time>2026-05-03T07:12:02Z</time></trkpt><trkpt lat="42.4723776441005" lon="18.71178188563872"><ele>4.4</ele><time>2026-05-03T07:12:03Z</time></trkpt><trkpt lat="42.47238633360291" lon="18.7119205227131"><ele>4.2</ele><time>2026-05-03T07:12:04Z</time></trkpt><trkpt lat="42.47240176719277" lon="18.71205541508907"><ele>4.0</ele><time>2026-05-03T07:12:05Z</time></trkpt><trkpt lat="42.4724220256321" lon="18.712185603739186"><ele>3.6</ele><time>2026-05-03T07:12:06Z</time></trkpt><trkpt lat="42.472444879902945" lon="18.71231622657336"><ele>3.2</ele><time>2026-05-03T07:12:07Z</time></trkpt><trkpt lat="42.47246641380066" lon="18.7124456598658"><ele>2.8000000000000003</ele><time>2026-05-03T07:12:08Z</time></trkpt><trkpt lat="42.47248658877348" lon="18.71256672349464"><ele>2.4000000000000004</ele><time>2026-05-03T07:12:09Z</time></trkpt><trkpt lat="42.47250288826214" lon="18.712685810637918"><ele>2.0</ele><time>2026-05-03T07:12:10Z</time></trkpt><trkpt lat="42.472509664034796" lon="18.712796715644025"><ele>1.857142857142857</ele><time>2026-05-03T07:12:11Z</time></trkpt><trkpt lat="42.47251285044262" lon="18.71289683754095"><ele>1.714285714285714</ele><time>2026-05-03T07:12:12Z</time></trkpt><trkpt lat="42.472500098181825" lon="18.712989286559907"><ele>1.5714285714285714</ele><time>2026-05-03T07:12:13Z</time></trkpt><trkpt lat="42.472474852978614" lon="18.713075607445575"><ele>1.4285714285714284</ele><time>2026-05-03T07:12:14Z</time></trkpt><trkpt lat="42.47244001516504" lon="18.713158674253272"><ele>1.2857142857142856</ele><time>2026-05-03T07:12:15Z</time></trkpt><trkpt lat="42.472407886656576" lon="18.713245780684172"><ele>1.1428571428571428</ele><time>2026-05-03T07:12:16Z</time></trkpt><trkpt lat="42.47236766391586" lon="18.71332907160096"><ele>1.0</ele><time>2026-05-03T07:12:17Z</time></trkpt><trkpt lat="42.47233484206635" lon="18.713420585449303"><ele>0.9999999999999999</ele><time>2026-05-03T07:12:18Z</time></trkpt><trkpt lat="42.47230975626802" lon="18.713525876799626"><ele>1.0</ele><time>2026-05-03T07:12:19Z</time></trkpt><trkpt lat="42.4722926714912" lon="18.713633340785382"><ele>1.0</ele><time>2026-05-03T07:12:20Z</time></trkpt><trkpt lat="42.47228573355057" lon="18.713749804734704"><ele>1.0</ele><time>2026-05-03T07:12:21Z</time></trkpt><trkpt lat="42.47229343425455" lon="18.713859641021067"><ele>0.9999999999999999</ele><time>2026-05-03T07:12:22Z</time></trkpt><trkpt lat="42.47229716172396" lon="18.713977818244608"><ele>1.0</ele><time>2026-05-03T07:12:23Z</time></trkpt><trkpt lat="42.47228787233421" lon="18.714092543147704"><ele>0.8333333333333333</ele><time>2026-05-03T07:12:24Z</time></trkpt><trkpt lat="42.47226225851448" lon="18.71419419897074"><ele>0.6666666666666666</ele><time>2026-05-03T07:12:25Z</time></trkpt><trkpt lat="42.47223987212505" lon="18.71428951524677"><ele>0.5</ele><time>2026-05-03T07:12:26Z</time></trkpt><trkpt lat="42.472191745995005" lon="18.714449972654005"><ele>0.3333333333333333</ele><time>2026-05-03T07:12:28Z</time></trkpt><trkpt lat="42.47215188751413" lon="18.714518862282553"><ele>0.16666666666666666</ele><time>2026-05-03T07:12:29Z</time></trkpt><trkpt lat="42.47209368015981" lon="18.714577332350782"><ele>0.0</ele><time>2026-05-03T07:12:30Z</time></trkpt><trkpt lat="42.4720347177943" lon="18.714622498232064"><ele>0.8571428571428571</ele><time>2026-05-03T07:12:31Z</time></trkpt><trkpt lat="42.47197261107701" lon="18.714683583630976"><ele>1.7142857142857142</ele><time>2026-05-03T07:12:32Z</time></trkpt><trkpt lat="42.47191343551277" lon="18.71474705737882"><ele>2.571428571428571</ele><time>2026-05-03T07:12:33Z</time></trkpt><trkpt lat="42.47184513150258" lon="18.71479834774921"><ele>3.4285714285714284</ele><time>2026-05-03T07:12:34Z</time></trkpt><trkpt lat="42.471786099030574" lon="18.71484958538959"><ele>4.285714285714286</ele><time>2026-05-03T07:12:35Z</time></trkpt><trkpt lat="42.47172637228363" lon="18.714894491648998"><ele>5.142857142857142</ele><time>2026-05-03T07:12:36Z</time></trkpt><trkpt lat="42.47166391476849" lon="18.71494628667535"><ele>6.0</ele><time>2026-05-03T07:12:37Z</time></trkpt><trkpt lat="42.47159612303071" lon="18.714999597587386"><ele>6.0</ele><time>2026-05-03T07:12:38Z</time></trkpt><trkpt lat="42.47152421396173" lon="18.715042039573984"><ele>6.0</ele><time>2026-05-03T07:12:39Z</time></trkpt><trkpt lat="42.4714458823521" lon="18.715079392322885"><ele>6.0</ele><time>2026-05-03T07:12:40Z</time></trkpt><trkpt lat="42.47136221602324" lon="18.7151251848071"><ele>6.0</ele><time>2026-05-03T07:12:41Z</time></trkpt><trkpt lat="42.47127781767413" lon="18.7151725076466"><ele>6.0</ele><time>2026-05-03T07:12:42Z</time></trkpt><trkpt lat="42.471193959831645" lon="18.715219248839734"><ele>6.0</ele><time>2026-05-03T07:12:43Z</time></trkpt><trkpt lat="42.47111250463676" lon="18.715268492838938"><ele>6.0</ele><time>2026-05-03T07:12:44Z</time></trkpt><trkpt lat="42.471035301281525" lon="18.71532565499724"><ele>6.0</ele><time>2026-05-03T07:12:45Z</time></trkpt><trkpt lat="42.47095832597198" lon="18.71539319270759"><ele>6.0</ele><time>2026-05-03T07:12:46Z</time></trkpt><trkpt lat="42.47088788261251" lon="18.715469916533525"><ele>6.0</ele><time>2026-05-03T07:12:47Z</time></trkpt><trkpt lat="42.470824228752335" lon="18.715549134852584"><ele>6.0</ele><time>2026-05-03T07:12:48Z</time></trkpt><trkpt lat="42.47075164693706" lon="18.715630196689677"><ele>6.0</ele><time>2026-05-03T07:12:49Z</time></trkpt><trkpt lat="42.4706777244085" lon="18.71571227817274"><ele>6.0</ele><time>2026-05-03T07:12:50Z</time></trkpt><trkpt lat="42.470604973762214" lon="18.71578287805266"><ele>6.0</ele><time>2026-05-03T07:12:51Z</time></trkpt><trkpt lat="42.470529587115685" lon="18.715862347853754"><ele>6.0</ele><time>2026-05-03T07:12:52Z</time></trkpt><trkpt lat="42.470456785627185" lon="18.71595040400295"><ele>6.0</ele><time>2026-05-03T07:12:53Z</time></trkpt><trkpt lat="42.47039616482141" lon="18.71604818897703"><ele>8.4</ele><time>2026-05-03T07:12:54Z</time></trkpt><trkpt lat="42.47033862515513" lon="18.716155607958925"><ele>10.8</ele><time>2026-05-03T07:12:55Z</time></trkpt><trkpt lat="42.47029001930785" lon="18.716265958937782"><ele>13.200000000000001</ele><time>2026-05-03T07:12:56Z</time></trkpt><trkpt lat="42.47024503309349" lon="18.716379817968498"><ele>15.6</ele><time>2026-05-03T07:12:57Z</time></trkpt><trkpt lat="42.470206436632566" lon="18.716493601767926"><ele>18.0</ele><time>2026-05-03T07:12:58Z</time></trkpt><trkpt lat="42.470169289198736" lon="18.716607968178437"><ele>18.0</ele><time>2026-05-03T07:12:59Z</time></trkpt><trkpt lat="42.47012916148432" lon="18.716720844889455"><ele>18.0</ele><time>2026-05-03T07:13:00Z</time></trkpt><trkpt lat="42.47008784195135" lon="18.71682816320102"><ele>18.0</ele><time>2026-05-03T07:13:01Z</time></trkpt><trkpt lat="42.47004506222555" lon="18.716936565516015"><ele>18.0</ele><time>2026-05-03T07:13:02Z</time></trkpt><trkpt lat="42.47001540421532" lon="18.717042066887856"><ele>18.0</ele><time>2026-05-03T07:13:03Z</time></trkpt><trkpt lat="42.46999392448964" lon="18.717154368183095"><ele>18.0</ele><time>2026-05-03T07:13:04Z</time></trkpt><trkpt lat="42.46996880467928" lon="18.717272566424185"><ele>16.8</ele><time>2026-05-03T07:13:05Z</time></trkpt><trkpt lat="42.469953232110406" lon="18.717392763805222"><ele>15.600000000000001</ele><time>2026-05-03T07:13:06Z</time></trkpt><trkpt lat="42.46994485287924" lon="18.71752327174725"><ele>14.399999999999999</ele><time>2026-05-03T07:13:07Z</time></trkpt><trkpt lat="42.469938746704685" lon="18.71765092947733"><ele>13.2</ele><time>2026-05-03T07:13:08Z</time></trkpt><trkpt lat="42.46993654223931" lon="18.717783485643103"><ele>12.0</ele><time>2026-05-03T07:13:09Z</time></trkpt><trkpt lat="42.46995290601936" lon="18.717913936308438"><ele>11.2</ele><time>2026-05-03T07:13:10Z</time></trkpt><trkpt lat="42.46996715956964" lon="18.718045167111963"><ele>10.399999999999999</ele><time>2026-05-03T07:13:11Z</time></trkpt><trkpt lat="42.46998770197922" lon="18.71817501182945"><ele>9.600000000000001</ele><time>2026-05-03T07:13:12Z</time></trkpt><trkpt lat="42.47001386737733" lon="18.718294696488478"><ele>8.8</ele><time>2026-05-03T07:13:13Z</time></trkpt><trkpt lat="42.47004522661915" lon="18.71841006695761"><ele>8.0</ele><time>2026-05-03T07:13:14Z</time></trkpt><trkpt lat="42.47007392208452" lon="18.718526359415307"><ele>8.166666666666666</ele><time>2026-05-03T07:13:15Z</time></trkpt><trkpt lat="42.47010687701143" lon="18.718630319323953"><ele>8.333333333333332</ele><time>2026-05-03T07:13:16Z</time></trkpt><trkpt lat="42.47013275585295" lon="18.718729208558695"><ele>8.5</ele><time>2026-05-03T07:13:17Z</time></trkpt><trkpt lat="42.470167569393936" lon="18.718890153504066"><ele>8.666666666666666</ele><time>2026-05-03T07:13:19Z</time></trkpt><trkpt lat="42.47017525740635" lon="18.71899204342701"><ele>8.833333333333334</ele><time>2026-05-03T07:13:20Z</time></trkpt><trkpt lat="42.47017745440691" lon="18.719107670787054"><ele>9.0</ele><time>2026-05-03T07:13:21Z</time></trkpt><trkpt lat="42.47017424974349" lon="18.719230726684028"><ele>9.0</ele><time>2026-05-03T07:13:22Z</time></trkpt><trkpt lat="42.47017218907864" lon="18.71935117131329"><ele>9.0</ele><time>2026-05-03T07:13:23Z</time></trkpt><trkpt lat="42.47017162807227" lon="18.71946907561611"><ele>9.0</ele><time>2026-05-03T07:13:24Z</time></trkpt><trkpt lat="42.47016391380836" lon="18.719591255232935"><ele>9.0</ele><time>2026-05-03T07:13:25Z</time></trkpt><trkpt lat="42.47014785066674" lon="18.719717174711114"><ele>9.0</ele><time>2026-05-03T07:13:26Z</time></trkpt><trkpt lat="42.47012079392186" lon="18.71983640520699"><ele>9.166666666666666</ele><time>2026-05-03T07:13:27Z</time></trkpt><trkpt lat="42.47008697412516" lon="18.7199485251805"><ele>9.333333333333334</ele><time>2026-05-03T07:13:28Z</time></trkpt><trkpt lat="42.47006164627149" lon="18.720055568244245"><ele>9.5</ele><time>2026-05-03T07:13:29Z</time></trkpt><trkpt lat="42.470033355645114" lon="18.720164017966763"><ele>9.666666666666668</ele><time>2026-05-03T07:13:30Z</time></trkpt><trkpt lat="42.47000577718826" lon="18.720273633748732"><ele>9.833333333333334</ele><time>2026-05-03T07:13:31Z</time></trkpt><trkpt lat="42.46996688655714" lon="18.72037710785743"><ele>10.0</ele><time>2026-05-03T07:13:32Z</time></trkpt><trkpt lat="42.46991742777584" lon="18.720480825905224"><ele>9.2</ele><time>2026-05-03T07:13:33Z</time></trkpt><trkpt lat="42.469859616399646" lon="18.720577031066703"><ele>8.4</ele><time>2026-05-03T07:13:34Z</time></trkpt><trkpt lat="42.46979447113462" lon="18.720679885544435"><ele>7.6</ele><time>2026-05-03T07:13:35Z</time></trkpt><trkpt lat="42.469727532188685" lon="18.720795790469584"><ele>6.8</ele><time>2026-05-03T07:13:36Z</time></trkpt><trkpt lat="42.46965790625232" lon="18.720924787832708"><ele>6.0</ele><time>2026-05-03T07:13:37Z</time></trkpt><trkpt lat="42.46959353868161" lon="18.721059804718145"><ele>10.5</ele><time>2026-05-03T07:13:38Z</time></trkpt><trkpt lat="42.46952708077871" lon="18.72119430398167"><ele>15.0</ele><time>2026-05-03T07:13:39Z</time></trkpt><trkpt lat="42.469451900603886" lon="18.721330065954994"><ele>19.5</ele><time>2026-05-03T07:13:40Z</time></trkpt><trkpt lat="42.46938228269287" lon="18.72147129309172"><ele>24.0</ele><time>2026-05-03T07:13:41Z</time></trkpt><trkpt lat="42.469315631526875" lon="18.721610063680398"><ele>24.0</ele><time>2026-05-03T07:13:42Z</time></trkpt><trkpt lat="42.46924833701613" lon="18.72176139469802"><ele>24.0</ele><time>2026-05-03T07:13:43Z</time></trkpt><trkpt lat="42.46917834381958" lon="18.721899344627786"><ele>24.0</ele><time>2026-05-03T07:13:44Z</time></trkpt><trkpt lat="42.469112508175634" lon="18.72202391395346"><ele>24.0</ele><time>2026-05-03T07:13:45Z</time></trkpt><trkpt lat="42.46904124923884" lon="18.722147834887412"><ele>21.2</ele><time>2026-05-03T07:13:46Z</time></trkpt><trkpt lat="42.468991574489884" lon="18.722282945829157"><ele>18.4</ele><time>2026-05-03T07:13:47Z</time></trkpt><trkpt lat="42.46895384280798" lon="18.72242282858301"><ele>15.6</ele><time>2026-05-03T07:13:48Z</time></trkpt><trkpt lat="42.46893040877877" lon="18.722566613029816"><ele>12.8</ele><time>2026-05-03T07:13:49Z</time></trkpt><trkpt lat="42.468909272907936" lon="18.72270903344356"><ele>10.0</ele><time>2026-05-03T07:13:50Z</time></trkpt><trkpt lat="42.46888348510988" lon="18.722858432192847"><ele>8.5</ele><time>2026-05-03T07:13:51Z</time></trkpt><trkpt lat="42.46886244733904" lon="18.723002888273633"><ele>7.0</ele><time>2026-05-03T07:13:52Z</time></trkpt><trkpt lat="42.46884431700169" lon="18.72314989731447"><ele>5.5</ele><time>2026-05-03T07:13:53Z</time></trkpt><trkpt lat="42.46883170856585" lon="18.723308284758957"><ele>4.0</ele><time>2026-05-03T07:13:54Z</time></trkpt><trkpt lat="42.46882725089191" lon="18.72346957760351"><ele>3.5</ele><time>2026-05-03T07:13:55Z</time></trkpt><trkpt lat="42.46883158366739" lon="18.723637554853358"><ele>3.0</ele><time>2026-05-03T07:13:56Z</time></trkpt><trkpt lat="42.46883165890867" lon="18.723805107538713"><ele>2.5</ele><time>2026-05-03T07:13:57Z</time></trkpt><trkpt lat="42.468816659501755" lon="18.72397136251293"><ele>2.0</ele><time>2026-05-03T07:13:58Z</time></trkpt><trkpt lat="42.468778907009316" lon="18.72414315103633"><ele>4.75</ele><time>2026-05-03T07:13:59Z</time></trkpt><trkpt lat="42.468730497785636" lon="18.724315568509933"><ele>7.5</ele><time>2026-05-03T07:14:00Z</time></trkpt><trkpt lat="42.4686958223097" lon="18.724485324850583"><ele>10.25</ele><time>2026-05-03T07:14:01Z</time></trkpt><trkpt lat="42.46866273572948" lon="18.72463608830577"><ele>13.0</ele><time>2026-05-03T07:14:02Z</time></trkpt><trkpt lat="42.468632694343526" lon="18.724778793078645"><ele>13.0</ele><time>2026-05-03T07:14:03Z</time></trkpt><trkpt lat="42.46859746081672" lon="18.724914394194258"><ele>13.0</ele><time>2026-05-03T07:14:04Z</time></trkpt><trkpt lat="42.46856129146844" lon="18.725059367374364"><ele>13.0</ele><time>2026-05-03T07:14:05Z</time></trkpt><trkpt lat="42.46851738669492" lon="18.725195884624544"><ele>13.0</ele><time>2026-05-03T07:14:06Z</time></trkpt><trkpt lat="42.468481212006736" lon="18.72533454296984"><ele>13.0</ele><time>2026-05-03T07:14:07Z</time></trkpt><trkpt lat="42.4684279277184" lon="18.725459540248636"><ele>12.0</ele><time>2026-05-03T07:14:08Z</time></trkpt><trkpt lat="42.46837280447368" lon="18.725581906625322"><ele>11.0</ele><time>2026-05-03T07:14:09Z</time></trkpt><trkpt lat="42.46830868428494" lon="18.725701052933278"><ele>10.0</ele><time>2026-05-03T07:14:10Z</time></trkpt><trkpt lat="42.46823805554607" lon="18.7258208417733"><ele>9.0</ele><time>2026-05-03T07:14:11Z</time></trkpt><trkpt lat="42.46815543523043" lon="18.725927252774"><ele>8.0</ele><time>2026-05-03T07:14:12Z</time></trkpt><trkpt lat="42.46806892254335" lon="18.726038870088342"><ele>8.5</ele><time>2026-05-03T07:14:13Z</time></trkpt><trkpt lat="42.467978152762825" lon="18.726149060017942"><ele>9.0</ele><time>2026-05-03T07:14:14Z</time></trkpt><trkpt lat="42.467886099735985" lon="18.7262589242532"><ele>9.5</ele><time>2026-05-03T07:14:15Z</time></trkpt><trkpt lat="42.467790385702294" lon="18.72637322204055"><ele>10.0</ele><time>2026-05-03T07:14:16Z</time></trkpt><trkpt lat="42.46769957958673" lon="18.726485121039"><ele>10.0</ele><time>2026-05-03T07:14:17Z</time></trkpt><trkpt lat="42.46761028816547" lon="18.726591454073116"><ele>10.0</ele><time>2026-05-03T07:14:18Z</time></trkpt><trkpt lat="42.46752417073778" lon="18.726697929168864"><ele>10.0</ele><time>2026-05-03T07:14:19Z</time></trkpt><trkpt lat="42.4674382563706" lon="18.726805224258772"><ele>10.0</ele><time>2026-05-03T07:14:20Z</time></trkpt><trkpt lat="42.46735148717572" lon="18.726909943368245"><ele>10.2</ele><time>2026-05-03T07:14:21Z</time></trkpt><trkpt lat="42.467272389642716" lon="18.727020556271135"><ele>10.4</ele><time>2026-05-03T07:14:22Z</time></trkpt><trkpt lat="42.46720324353871" lon="18.727132284494417"><ele>10.600000000000001</ele><time>2026-05-03T07:14:23Z</time></trkpt><trkpt lat="42.467133568230416" lon="18.72724657417061"><ele>10.8</ele><time>2026-05-03T07:14:24Z</time></trkpt><trkpt lat="42.4670687259721" lon="18.727370542231352"><ele>11.0</ele><time>2026-05-03T07:14:25Z</time></trkpt><trkpt lat="42.46700294470993" lon="18.727497147737477"><ele>11.0</ele><time>2026-05-03T07:14:26Z</time></trkpt><trkpt lat="42.46694078076124" lon="18.72762723579373"><ele>11.0</ele><time>2026-05-03T07:14:27Z</time></trkpt><trkpt lat="42.46687742810907" lon="18.72776001023946"><ele>11.0</ele><time>2026-05-03T07:14:28Z</time></trkpt><trkpt lat="42.46681244607376" lon="18.727890107548976"><ele>11.0</ele><time>2026-05-03T07:14:29Z</time></trkpt><trkpt lat="42.46674622712575" lon="18.728018284141978"><ele>9.0</ele><time>2026-05-03T07:14:30Z</time></trkpt><trkpt lat="42.46668142067416" lon="18.72814426539487"><ele>7.0</ele><time>2026-05-03T07:14:31Z</time></trkpt><trkpt lat="42.466618725695334" lon="18.7282732988871"><ele>5.0</ele><time>2026-05-03T07:14:32Z</time></trkpt><trkpt lat="42.46655974648695" lon="18.728405338239188"><ele>3.0</ele><time>2026-05-03T07:14:33Z</time></trkpt><trkpt lat="42.466502112571305" lon="18.7285448375092"><ele>2.5</ele><time>2026-05-03T07:14:34Z</time></trkpt><trkpt lat="42.46645105343334" lon="18.72867936911696"><ele>2.0</ele><time>2026-05-03T07:14:35Z</time></trkpt><trkpt lat="42.466398565168" lon="18.728824630741027"><ele>1.5</ele><time>2026-05-03T07:14:36Z</time></trkpt><trkpt lat="42.46635257238112" lon="18.72897578206297"><ele>1.0</ele><time>2026-05-03T07:14:37Z</time></trkpt><trkpt lat="42.46631107005104" lon="18.7291246674978"><ele>1.5</ele><time>2026-05-03T07:14:38Z</time></trkpt><trkpt lat="42.46626861178949" lon="18.729275456093614"><ele>2.0</ele><time>2026-05-03T07:14:39Z</time></trkpt><trkpt lat="42.46623129029286" lon="18.72941963551299"><ele>2.5</ele><time>2026-05-03T07:14:40Z</time></trkpt><trkpt lat="42.46619862014636" lon="18.729566820312456"><ele>3.0</ele><time>2026-05-03T07:14:41Z</time></trkpt><trkpt lat="42.46616301735584" lon="18.72970716431421"><ele>3.0</ele><time>2026-05-03T07:14:42Z</time></trkpt><trkpt lat="42.46612847717911" lon="18.72984639979582"><ele>3.0</ele><time>2026-05-03T07:14:43Z</time></trkpt><trkpt lat="42.46609270110193" lon="18.729991475305727"><ele>3.0</ele><time>2026-05-03T07:14:44Z</time></trkpt><trkpt lat="42.466049883736375" lon="18.7301341251024"><ele>3.0</ele><time>2026-05-03T07:14:45Z</time></trkpt><trkpt lat="42.465999752393415" lon="18.73027655528899"><ele>3.25</ele><time>2026-05-03T07:14:46Z</time></trkpt><trkpt lat="42.46593075534562" lon="18.73041037786932"><ele>3.5</ele><time>2026-05-03T07:14:47Z</time></trkpt><trkpt lat="42.46585195508604" lon="18.730525528849654"><ele>3.75</ele><time>2026-05-03T07:14:48Z</time></trkpt><trkpt lat="42.46576831035365" lon="18.730646483121788"><ele>4.0</ele><time>2026-05-03T07:14:49Z</time></trkpt><trkpt lat="42.46569391676177" lon="18.730771756072002"><ele>4.0</ele><time>2026-05-03T07:14:50Z</time></trkpt><trkpt lat="42.46561702136952" lon="18.730896525777457"><ele>4.0</ele><time>2026-05-03T07:14:51Z</time></trkpt><trkpt lat="42.46553837912351" lon="18.731026036399438"><ele>4.0</ele><time>2026-05-03T07:14:52Z</time></trkpt><trkpt lat="42.46546349492019" lon="18.731158745781638"><ele>4.0</ele><time>2026-05-03T07:14:53Z</time></trkpt><trkpt lat="42.4654092637015" lon="18.73130828705958"><ele>4.0</ele><time>2026-05-03T07:14:54Z</time></trkpt><trkpt lat="42.46537054633172" lon="18.731468381212196"><ele>4.0</ele><time>2026-05-03T07:14:55Z</time></trkpt><trkpt lat="42.465343270608805" lon="18.731635171014442"><ele>4.0</ele><time>2026-05-03T07:14:56Z</time></trkpt><trkpt lat="42.46531844382414" lon="18.731797979380634"><ele>4.0</ele><time>2026-05-03T07:14:57Z</time></trkpt><trkpt lat="42.46528140815333" lon="18.731961582338112"><ele>4.0</ele><time>2026-05-03T07:14:58Z</time></trkpt><trkpt lat="42.465254412702045" lon="18.732112181410862"><ele>4.0</ele><time>2026-05-03T07:14:59Z</time></trkpt><trkpt lat="42.46525163094811" lon="18.73225896252367"><ele>4.0</ele><time>2026-05-03T07:15:00Z</time></trkpt><trkpt lat="42.465259015176905" lon="18.7323871937661"><ele>4.0</ele><time>2026-05-03T07:15:01Z</time></trkpt><trkpt lat="42.465282443465156" lon="18.732501982936466"><ele>4.0</ele><time>2026-05-03T07:15:02Z</time></trkpt><trkpt lat="42.465301887095386" lon="18.732607281731564"><ele>3.9999999999999996</ele><time>2026-05-03T07:15:03Z</time></trkpt><trkpt lat="42.465304852352325" lon="18.73271867289019"><ele>4.0</ele><time>2026-05-03T07:15:04Z</time></trkpt><trkpt lat="42.46530136258092" lon="18.732834823164925"><ele>4.0</ele><time>2026-05-03T07:15:05Z</time></trkpt><trkpt lat="42.4652830419941" lon="18.732939331446808"><ele>4.0</ele><time>2026-05-03T07:15:06Z</time></trkpt><trkpt lat="42.46526638665317" lon="18.733040573404335"><ele>3.9999999999999996</ele><time>2026-05-03T07:15:07Z</time></trkpt><trkpt lat="42.4652562746353" lon="18.73313603045208"><ele>4.0</ele><time>2026-05-03T07:15:08Z</time></trkpt><trkpt lat="42.46524978583022" lon="18.733227499509773"><ele>4.5</ele><time>2026-05-03T07:15:09Z</time></trkpt><trkpt lat="42.465233355555526" lon="18.733371427889054"><ele>5.0</ele><time>2026-05-03T07:15:11Z</time></trkpt><trkpt lat="42.46518260116805" lon="18.733517252951348"><ele>5.5</ele><time>2026-05-03T07:15:13Z</time></trkpt><trkpt lat="42.46515362437048" lon="18.73359384369609"><ele>6.0</ele><time>2026-05-03T07:15:14Z</time></trkpt><trkpt lat="42.46512517775147" lon="18.733675274819706"><ele>6.500000000000001</ele><time>2026-05-03T07:15:15Z</time></trkpt><trkpt lat="42.46508219103686" lon="18.733751506463822"><ele>7.0</ele><time>2026-05-03T07:15:16Z</time></trkpt><trkpt lat="42.46504263696449" lon="18.733820162062436"><ele>7.0</ele><time>2026-05-03T07:15:17Z</time></trkpt><trkpt lat="42.46498685231864" lon="18.73392559861001"><ele>6.999999999999999</ele><time>2026-05-03T07:15:19Z</time></trkpt><trkpt lat="42.4649114653572" lon="18.734033993403894"><ele>6.999999999999999</ele><time>2026-05-03T07:15:21Z</time></trkpt><trkpt lat="42.464827978669796" lon="18.73415076238651"><ele>7.0</ele><time>2026-05-03T07:15:23Z</time></trkpt><trkpt lat="42.46478633112269" lon="18.73422304216156"><ele>7.0</ele><time>2026-05-03T07:15:24Z</time></trkpt><trkpt lat="42.4647449305912" lon="18.734293272079075"><ele>7.000000000000001</ele><time>2026-05-03T07:15:25Z</time></trkpt><trkpt lat="42.46469449637559" lon="18.734368591889332"><ele>7.0</ele><time>2026-05-03T07:15:26Z</time></trkpt><trkpt lat="42.46463968619286" lon="18.73444379500533"><ele>7.0</ele><time>2026-05-03T07:15:27Z</time></trkpt><trkpt lat="42.46457940116438" lon="18.73452770723968"><ele>7.0</ele><time>2026-05-03T07:15:28Z</time></trkpt><trkpt lat="42.464519045517214" lon="18.73461839543835"><ele>7.000000000000001</ele><time>2026-05-03T07:15:29Z</time></trkpt><trkpt lat="42.46445594089264" lon="18.73471227143561"><ele>7.0</ele><time>2026-05-03T07:15:30Z</time></trkpt><trkpt lat="42.46438783027336" lon="18.73480687881151"><ele>6.0</ele><time>2026-05-03T07:15:31Z</time></trkpt><trkpt lat="42.46431706085596" lon="18.73490313118803"><ele>4.999999999999999</ele><time>2026-05-03T07:15:32Z</time></trkpt><trkpt lat="42.46424292413008" lon="18.735001640908038"><ele>4.0</ele><time>2026-05-03T07:15:33Z</time></trkpt><trkpt lat="42.464163847944135" lon="18.735097003156888"><ele>3.0</ele><time>2026-05-03T07:15:34Z</time></trkpt><trkpt lat="42.46408214550457" lon="18.735192467746597"><ele>2.0</ele><time>2026-05-03T07:15:35Z</time></trkpt><trkpt lat="42.4639970715123" lon="18.735283449091114"><ele>1.6</ele><time>2026-05-03T07:15:36Z</time></trkpt><trkpt lat="42.46391122684517" lon="18.735372416150028"><ele>1.2000000000000002</ele><time>2026-05-03T07:15:37Z</time></trkpt><trkpt lat="42.46382359813038" lon="18.735454288922654"><ele>0.8</ele><time>2026-05-03T07:15:38Z</time></trkpt><trkpt lat="42.463738452388796" lon="18.73553819434824"><ele>0.4</ele><time>2026-05-03T07:15:39Z</time></trkpt><trkpt lat="42.46365891052133" lon="18.73563174591565"><ele>0.0</ele><time>2026-05-03T07:15:40Z</time></trkpt><trkpt lat="42.46358373380123" lon="18.735731378224163"><ele>0.4</ele><time>2026-05-03T07:15:41Z</time></trkpt><trkpt lat="42.4635121641658" lon="18.73584010135524"><ele>0.8</ele><time>2026-05-03T07:15:42Z</time></trkpt><trkpt lat="42.46344510652558" lon="18.735961648761588"><ele>1.2000000000000002</ele><time>2026-05-03T07:15:43Z</time></trkpt><trkpt lat="42.46338518286809" lon="18.736095990891542"><ele>1.6</ele><time>2026-05-03T07:15:44Z</time></trkpt><trkpt lat="42.46333595901696" lon="18.73623306938243"><ele>2.0</ele><time>2026-05-03T07:15:45Z</time></trkpt><trkpt lat="42.463276605182415" lon="18.736358116885214"><ele>2.0</ele><time>2026-05-03T07:15:46Z</time></trkpt><trkpt lat="42.46319768625543" lon="18.736462275699143"><ele>2.0</ele><time>2026-05-03T07:15:47Z</time></trkpt><trkpt lat="42.463109967888755" lon="18.73654854278762"><ele>2.0</ele><time>2026-05-03T07:15:48Z</time></trkpt><trkpt lat="42.46303511940207" lon="18.73662328650563"><ele>2.0</ele><time>2026-05-03T07:15:49Z</time></trkpt><trkpt lat="42.46295646829326" lon="18.736680946486874"><ele>2.0</ele><time>2026-05-03T07:15:50Z</time></trkpt><trkpt lat="42.462877562691666" lon="18.736743650784252"><ele>3.0</ele><time>2026-05-03T07:15:51Z</time></trkpt><trkpt lat="42.46280182896938" lon="18.736806253232782"><ele>4.0</ele><time>2026-05-03T07:15:52Z</time></trkpt><trkpt lat="42.46272159417702" lon="18.7368523374403"><ele>4.999999999999999</ele><time>2026-05-03T07:15:53Z</time></trkpt><trkpt lat="42.46263523018054" lon="18.73689985500108"><ele>6.0</ele><time>2026-05-03T07:15:54Z</time></trkpt><trkpt lat="42.462547556907346" lon="18.736948221264083"><ele>7.0</ele><time>2026-05-03T07:15:55Z</time></trkpt><trkpt lat="42.462459194708664" lon="18.737001969234345"><ele>7.0</ele><time>2026-05-03T07:15:56Z</time></trkpt><trkpt lat="42.4623669973369" lon="18.7370596890999"><ele>7.0</ele><time>2026-05-03T07:15:57Z</time></trkpt><trkpt lat="42.462254141440525" lon="18.73711419248968"><ele>7.0</ele><time>2026-05-03T07:15:58Z</time></trkpt><trkpt lat="42.462128065189695" lon="18.73713883016614"><ele>7.0</ele><time>2026-05-03T07:15:59Z</time></trkpt><trkpt lat="42.46200260664327" lon="18.73715630464529"><ele>8.75</ele><time>2026-05-03T07:16:00Z</time></trkpt><trkpt lat="42.46188292862488" lon="18.73720182988312"><ele>10.5</ele><time>2026-05-03T07:16:01Z</time></trkpt><trkpt lat="42.461768664866085" lon="18.737262204043557"><ele>12.25</ele><time>2026-05-03T07:16:02Z</time></trkpt><trkpt lat="42.461649251158896" lon="18.737320648618685"><ele>14.0</ele><time>2026-05-03T07:16:03Z</time></trkpt><trkpt lat="42.461533776963435" lon="18.737387957865398"><ele>14.0</ele><time>2026-05-03T07:16:04Z</time></trkpt><trkpt lat="42.46142908577513" lon="18.737464118894106"><ele>13.999999999999998</ele><time>2026-05-03T07:16:05Z</time></trkpt><trkpt lat="42.46133418592777" lon="18.73754671749238"><ele>13.999999999999998</ele><time>2026-05-03T07:16:06Z</time></trkpt><trkpt lat="42.46124673312739" lon="18.73762630080822"><ele>14.0</ele><time>2026-05-03T07:16:07Z</time></trkpt><trkpt lat="42.46117633094938" lon="18.73771235401502"><ele>14.0</ele><time>2026-05-03T07:16:08Z</time></trkpt><trkpt lat="42.46112276461322" lon="18.737786903236696"><ele>11.799999999999999</ele><time>2026-05-03T07:16:09Z</time></trkpt><trkpt lat="42.46107765612664" lon="18.73785598773526"><ele>9.599999999999998</ele><time>2026-05-03T07:16:10Z</time></trkpt><trkpt lat="42.46100750729661" lon="18.737975366502155"><ele>7.3999999999999995</ele><time>2026-05-03T07:16:12Z</time></trkpt><trkpt lat="42.46094476024546" lon="18.738100221199595"><ele>5.199999999999999</ele><time>2026-05-03T07:16:14Z</time></trkpt><trkpt lat="42.460856181858254" lon="18.738213134128753"><ele>3.0</ele><time>2026-05-03T07:16:16Z</time></trkpt><trkpt lat="42.4607959174219" lon="18.738270739989588"><ele>3.0</ele><time>2026-05-03T07:16:17Z</time></trkpt><trkpt lat="42.460742500025404" lon="18.738349959235265"><ele>3.0</ele><time>2026-05-03T07:16:18Z</time></trkpt><trkpt lat="42.4606864695604" lon="18.738443868938813"><ele>3.0</ele><time>2026-05-03T07:16:19Z</time></trkpt><trkpt lat="42.46062749754342" lon="18.73854098181208"><ele>3.0</ele><time>2026-05-03T07:16:20Z</time></trkpt><trkpt lat="42.46057037243727" lon="18.73864387601351"><ele>3.0</ele><time>2026-05-03T07:16:21Z</time></trkpt><trkpt lat="42.46051304213739" lon="18.73874886192552"><ele>2.6</ele><time>2026-05-03T07:16:22Z</time></trkpt><trkpt lat="42.460463709181646" lon="18.73885558009346"><ele>2.1999999999999997</ele><time>2026-05-03T07:16:23Z</time></trkpt><trkpt lat="42.460429010319764" lon="18.738984989423486"><ele>1.8</ele><time>2026-05-03T07:16:24Z</time></trkpt><trkpt lat="42.46039448165544" lon="18.739095022074"><ele>1.4</ele><time>2026-05-03T07:16:25Z</time></trkpt><trkpt lat="42.460344971333924" lon="18.73921846341694"><ele>1.0</ele><time>2026-05-03T07:16:26Z</time></trkpt><trkpt lat="42.46029149507025" lon="18.73933141912724"><ele>1.6</ele><time>2026-05-03T07:16:27Z</time></trkpt><trkpt lat="42.46024161764885" lon="18.739440257029607"><ele>2.2</ele><time>2026-05-03T07:16:28Z</time></trkpt><trkpt lat="42.46019623086338" lon="18.73954705725768"><ele>2.8000000000000003</ele><time>2026-05-03T07:16:29Z</time></trkpt><trkpt lat="42.46014259644745" lon="18.73964526601823"><ele>3.4000000000000004</ele><time>2026-05-03T07:16:30Z</time></trkpt><trkpt lat="42.46008150526166" lon="18.739742259251983"><ele>4.0</ele><time>2026-05-03T07:16:31Z</time></trkpt><trkpt lat="42.459997736986466" lon="18.73979924414039"><ele>4.0</ele><time>2026-05-03T07:16:32Z</time></trkpt><trkpt lat="42.459907857673784" lon="18.739856678531783"><ele>4.0</ele><time>2026-05-03T07:16:33Z</time></trkpt><trkpt lat="42.45982325956462" lon="18.739933051404435"><ele>4.0</ele><time>2026-05-03T07:16:34Z</time></trkpt><trkpt lat="42.459733783366424" lon="18.74002442525412"><ele>4.0</ele><time>2026-05-03T07:16:35Z</time></trkpt><trkpt lat="42.45964923922285" lon="18.74012126322962"><ele>4.0</ele><time>2026-05-03T07:16:36Z</time></trkpt><trkpt lat="42.45956670625534" lon="18.74023268978512"><ele>4.75</ele><time>2026-05-03T07:16:37Z</time></trkpt><trkpt lat="42.45948694156625" lon="18.740356640964336"><ele>5.5</ele><time>2026-05-03T07:16:38Z</time></trkpt><trkpt lat="42.459419793484834" lon="18.740479653871567"><ele>6.25</ele><time>2026-05-03T07:16:39Z</time></trkpt><trkpt lat="42.459354654870594" lon="18.740595543684027"><ele>7.0</ele><time>2026-05-03T07:16:40Z</time></trkpt><trkpt lat="42.4592931479726" lon="18.74072246578055"><ele>7.0</ele><time>2026-05-03T07:16:41Z</time></trkpt><trkpt lat="42.459239868258884" lon="18.74085138420885"><ele>6.999999999999999</ele><time>2026-05-03T07:16:42Z</time></trkpt><trkpt lat="42.459188400794154" lon="18.740985793019153"><ele>6.999999999999999</ele><time>2026-05-03T07:16:43Z</time></trkpt><trkpt lat="42.45913241486047" lon="18.741117652897103"><ele>7.0</ele><time>2026-05-03T07:16:44Z</time></trkpt><trkpt lat="42.45907423681662" lon="18.741246379978765"><ele>7.0</ele><time>2026-05-03T07:16:45Z</time></trkpt><trkpt lat="42.45901505230208" lon="18.74136490492675"><ele>7.8</ele><time>2026-05-03T07:16:46Z</time></trkpt><trkpt lat="42.45895979323409" lon="18.7414784490031"><ele>8.6</ele><time>2026-05-03T07:16:47Z</time></trkpt><trkpt lat="42.45889954676773" lon="18.74158280135447"><ele>9.4</ele><time>2026-05-03T07:16:48Z</time></trkpt><trkpt lat="42.458829394156375" lon="18.741673552704857"><ele>10.200000000000001</ele><time>2026-05-03T07:16:49Z</time></trkpt><trkpt lat="42.458749386604815" lon="18.74173207008508"><ele>11.0</ele><time>2026-05-03T07:16:50Z</time></trkpt><trkpt lat="42.45866222629026" lon="18.741775544030066"><ele>11.0</ele><time>2026-05-03T07:16:51Z</time></trkpt><trkpt lat="42.4585827421401" lon="18.741812968208773"><ele>11.0</ele><time>2026-05-03T07:16:52Z</time></trkpt><trkpt lat="42.45850629049874" lon="18.741841703815417"><ele>11.0</ele><time>2026-05-03T07:16:53Z</time></trkpt><trkpt lat="42.45843875402889" lon="18.741875067964987"><ele>11.0</ele><time>2026-05-03T07:16:54Z</time></trkpt><trkpt lat="42.458332912835544" lon="18.741939694719388"><ele>11.0</ele><time>2026-05-03T07:16:56Z</time></trkpt><trkpt lat="42.45822479371087" lon="18.742004147131393"><ele>10.5</ele><time>2026-05-03T07:16:58Z</time></trkpt><trkpt lat="42.45816604611784" lon="18.74204136031131"><ele>10.0</ele><time>2026-05-03T07:16:59Z</time></trkpt><trkpt lat="42.45810430768697" lon="18.74206836126838"><ele>9.5</ele><time>2026-05-03T07:17:00Z</time></trkpt><trkpt lat="42.4580287517494" lon="18.742116143275336"><ele>9.0</ele><time>2026-05-03T07:17:01Z</time></trkpt><trkpt lat="42.45794370038863" lon="18.742166988602342"><ele>8.5</ele><time>2026-05-03T07:17:02Z</time></trkpt><trkpt lat="42.457871713267004" lon="18.742250262954283"><ele>8.0</ele><time>2026-05-03T07:17:03Z</time></trkpt><trkpt lat="42.45779504938742" lon="18.742335367147867"><ele>8.0</ele><time>2026-05-03T07:17:04Z</time></trkpt><trkpt lat="42.45771978273639" lon="18.74242067713169"><ele>8.0</ele><time>2026-05-03T07:17:05Z</time></trkpt><trkpt lat="42.457642594323346" lon="18.742511701365267"><ele>8.0</ele><time>2026-05-03T07:17:06Z</time></trkpt><trkpt lat="42.45756507430609" lon="18.74260763603805"><ele>8.0</ele><time>2026-05-03T07:17:07Z</time></trkpt><trkpt lat="42.457501165997435" lon="18.742706456868532"><ele>8.0</ele><time>2026-05-03T07:17:08Z</time></trkpt><trkpt lat="42.4574511378762" lon="18.742819150161317"><ele>7.2</ele><time>2026-05-03T07:17:09Z</time></trkpt><trkpt lat="42.45740397836123" lon="18.74293494501551"><ele>6.4</ele><time>2026-05-03T07:17:10Z</time></trkpt><trkpt lat="42.457360717751655" lon="18.74305090189363"><ele>5.6000000000000005</ele><time>2026-05-03T07:17:11Z</time></trkpt><trkpt lat="42.45731156817518" lon="18.743164843387344"><ele>4.800000000000001</ele><time>2026-05-03T07:17:12Z</time></trkpt><trkpt lat="42.45726589632108" lon="18.743273003297492"><ele>4.0</ele><time>2026-05-03T07:17:13Z</time></trkpt><trkpt lat="42.457217622015875" lon="18.743381863112745"><ele>4.0</ele><time>2026-05-03T07:17:14Z</time></trkpt><trkpt lat="42.45716834911781" lon="18.743494049293872"><ele>4.0</ele><time>2026-05-03T07:17:15Z</time></trkpt><trkpt lat="42.457113076207136" lon="18.743601508893"><ele>4.0</ele><time>2026-05-03T07:17:16Z</time></trkpt><trkpt lat="42.45706200865451" lon="18.74371793542632"><ele>4.0</ele><time>2026-05-03T07:17:17Z</time></trkpt><trkpt lat="42.457003183964105" lon="18.743824770344403"><ele>4.0</ele><time>2026-05-03T07:17:18Z</time></trkpt><trkpt lat="42.45694716621203" lon="18.743933877849063"><ele>4.0</ele><time>2026-05-03T07:17:19Z</time></trkpt><trkpt lat="42.45688953196436" lon="18.744042537951756"><ele>4.0</ele><time>2026-05-03T07:17:20Z</time></trkpt><trkpt lat="42.45683802096758" lon="18.744152669458813"><ele>4.0</ele><time>2026-05-03T07:17:21Z</time></trkpt><trkpt lat="42.456781264967695" lon="18.744253591213397"><ele>4.0</ele><time>2026-05-03T07:17:22Z</time></trkpt><trkpt lat="42.456728489536225" lon="18.744355321293643"><ele>4.0</ele><time>2026-05-03T07:17:23Z</time></trkpt><trkpt lat="42.456668322561875" lon="18.744462589194068"><ele>3.8000000000000003</ele><time>2026-05-03T07:17:24Z</time></trkpt><trkpt lat="42.456615764296735" lon="18.74456255149263"><ele>3.6000000000000005</ele><time>2026-05-03T07:17:25Z</time></trkpt><trkpt lat="42.45657550885739" lon="18.744645319586077"><ele>3.4</ele><time>2026-05-03T07:17:26Z</time></trkpt><trkpt lat="42.45652100842463" lon="18.744727599253878"><ele>3.2</ele><time>2026-05-03T07:17:28Z</time></trkpt><trkpt lat="42.45647950897485" lon="18.74482599767837"><ele>3.0</ele><time>2026-05-03T07:17:30Z</time></trkpt><trkpt lat="42.45642466939543" lon="18.744973782613783"><ele>3.0</ele><time>2026-05-03T07:17:32Z</time></trkpt><trkpt lat="42.456383785188464" lon="18.74506379195984"><ele>3.0</ele><time>2026-05-03T07:17:33Z</time></trkpt><trkpt lat="42.456333433724694" lon="18.74516392973533"><ele>3.0</ele><time>2026-05-03T07:17:34Z</time></trkpt><trkpt lat="42.45630011091591" lon="18.745281475520386"><ele>3.0</ele><time>2026-05-03T07:17:35Z</time></trkpt><trkpt lat="42.456275615320685" lon="18.745392200151816"><ele>3.0</ele><time>2026-05-03T07:17:36Z</time></trkpt><trkpt lat="42.45625165921135" lon="18.74547857628414"><ele>3.0</ele><time>2026-05-03T07:17:37Z</time></trkpt><trkpt lat="42.45622963592518" lon="18.745560478022878"><ele>3.2</ele><time>2026-05-03T07:17:38Z</time></trkpt><trkpt lat="42.45619851112223" lon="18.7456968592242"><ele>3.4</ele><time>2026-05-03T07:17:40Z</time></trkpt><trkpt lat="42.45615587660849" lon="18.745808151184896"><ele>3.6000000000000005</ele><time>2026-05-03T07:17:42Z</time></trkpt><trkpt lat="42.45612360760681" lon="18.74592886417117"><ele>3.8000000000000003</ele><time>2026-05-03T07:17:44Z</time></trkpt><trkpt lat="42.45610138070276" lon="18.746065715953275"><ele>4.0</ele><time>2026-05-03T07:17:46Z</time></trkpt><trkpt lat="42.456064539318845" lon="18.746206343237542"><ele>3.9999999999999996</ele><time>2026-05-03T07:17:48Z</time></trkpt><trkpt lat="42.45602235250825" lon="18.74636690310228"><ele>4.0</ele><time>2026-05-03T07:17:50Z</time></trkpt><trkpt lat="42.45600372671517" lon="18.746453506305397"><ele>4.0</ele><time>2026-05-03T07:17:51Z</time></trkpt><trkpt lat="42.45597940160522" lon="18.746539757925866"><ele>4.0</ele><time>2026-05-03T07:17:52Z</time></trkpt><trkpt lat="42.45595340739074" lon="18.746618831756553"><ele>3.9999999999999996</ele><time>2026-05-03T07:17:53Z</time></trkpt><trkpt lat="42.45592817204416" lon="18.746697935549392"><ele>4.0</ele><time>2026-05-03T07:17:54Z</time></trkpt><trkpt lat="42.455894544151654" lon="18.746827063843806"><ele>3.8000000000000003</ele><time>2026-05-03T07:17:56Z</time></trkpt><trkpt lat="42.455852358630466" lon="18.746947766917796"><ele>3.6000000000000005</ele><time>2026-05-03T07:17:58Z</time></trkpt><trkpt lat="42.45580503663208" lon="18.74705358940069"><ele>3.4</ele><time>2026-05-03T07:18:00Z</time></trkpt><trkpt lat="42.455736197094936" lon="18.74716580451187"><ele>3.2</ele><time>2026-05-03T07:18:02Z</time></trkpt><trkpt lat="42.455652004537214" lon="18.74728738269905"><ele>3.0</ele><time>2026-05-03T07:18:04Z</time></trkpt><trkpt lat="42.4556050792187" lon="18.74735720254338"><ele>3.0</ele><time>2026-05-03T07:18:05Z</time></trkpt><trkpt lat="42.455544166473125" lon="18.747426902105097"><ele>3.0</ele><time>2026-05-03T07:18:06Z</time></trkpt><trkpt lat="42.45547108974707" lon="18.74747139472872"><ele>3.0</ele><time>2026-05-03T07:18:07Z</time></trkpt><trkpt lat="42.45539530827292" lon="18.74750219112762"><ele>3.0</ele><time>2026-05-03T07:18:08Z</time></trkpt><trkpt lat="42.45532299698365" lon="18.747529088049234"><ele>3.0</ele><time>2026-05-03T07:18:09Z</time></trkpt><trkpt lat="42.45525183885271" lon="18.74755191569814"><ele>3.0</ele><time>2026-05-03T07:18:10Z</time></trkpt><trkpt lat="42.45518314988159" lon="18.74757653658197"><ele>4.166666666666667</ele><time>2026-05-03T07:18:11Z</time></trkpt><trkpt lat="42.45510967967835" lon="18.74760053909183"><ele>5.333333333333334</ele><time>2026-05-03T07:18:12Z</time></trkpt><trkpt lat="42.455035538810215" lon="18.747621178776235"><ele>6.5</ele><time>2026-05-03T07:18:13Z</time></trkpt><trkpt lat="42.454955206643234" lon="18.747637528850465"><ele>7.666666666666667</ele><time>2026-05-03T07:18:14Z</time></trkpt><trkpt lat="42.454872373940546" lon="18.747650765684597"><ele>8.833333333333334</ele><time>2026-05-03T07:18:15Z</time></trkpt><trkpt lat="42.45478791540842" lon="18.747670007286594"><ele>10.0</ele><time>2026-05-03T07:18:16Z</time></trkpt><trkpt lat="42.45470361718115" lon="18.7477003516022"><ele>9.0</ele><time>2026-05-03T07:18:17Z</time></trkpt><trkpt lat="42.454628035610824" lon="18.747733547985703"><ele>8.0</ele><time>2026-05-03T07:18:18Z</time></trkpt><trkpt lat="42.45454190577818" lon="18.74775864201053"><ele>7.0</ele><time>2026-05-03T07:18:19Z</time></trkpt><trkpt lat="42.45445254097286" lon="18.747781277871017"><ele>6.0</ele><time>2026-05-03T07:18:20Z</time></trkpt><trkpt lat="42.45435884111625" lon="18.747832928551105"><ele>5.0</ele><time>2026-05-03T07:18:21Z</time></trkpt><trkpt lat="42.454280549348425" lon="18.74791584729273"><ele>4.833333333333334</ele><time>2026-05-03T07:18:22Z</time></trkpt><trkpt lat="42.454216457697676" lon="18.747990964352166"><ele>4.666666666666667</ele><time>2026-05-03T07:18:23Z</time></trkpt><trkpt lat="42.4541472206404" lon="18.748054442053608"><ele>4.5</ele><time>2026-05-03T07:18:24Z</time></trkpt><trkpt lat="42.45407271548351" lon="18.748116392548628"><ele>4.333333333333333</ele><time>2026-05-03T07:18:25Z</time></trkpt><trkpt lat="42.45400118773272" lon="18.748174986429593"><ele>4.166666666666666</ele><time>2026-05-03T07:18:26Z</time></trkpt><trkpt lat="42.45393115372892" lon="18.748231936133873"><ele>4.0</ele><time>2026-05-03T07:18:27Z</time></trkpt><trkpt lat="42.45385575081102" lon="18.748277146714827"><ele>5.0</ele><time>2026-05-03T07:18:28Z</time></trkpt><trkpt lat="42.45377674172259" lon="18.748305681400325"><ele>6.0</ele><time>2026-05-03T07:18:29Z</time></trkpt><trkpt lat="42.45369618009758" lon="18.74835690365445"><ele>7.0</ele><time>2026-05-03T07:18:30Z</time></trkpt><trkpt lat="42.45361873471804" lon="18.74839376207535"><ele>8.0</ele><time>2026-05-03T07:18:31Z</time></trkpt><trkpt lat="42.45353517283332" lon="18.748430271369475"><ele>9.0</ele><time>2026-05-03T07:18:32Z</time></trkpt><trkpt lat="42.4534427037189" lon="18.748475161722702"><ele>10.0</ele><time>2026-05-03T07:18:33Z</time></trkpt><trkpt lat="42.45335502177775" lon="18.74852954107413"><ele>9.0</ele><time>2026-05-03T07:18:34Z</time></trkpt><trkpt lat="42.453260678944154" lon="18.748560674389747"><ele>8.0</ele><time>2026-05-03T07:18:35Z</time></trkpt><trkpt lat="42.45317794562985" lon="18.74860112613645"><ele>7.0</ele><time>2026-05-03T07:18:36Z</time></trkpt><trkpt lat="42.4530949385198" lon="18.748657153092527"><ele>6.0</ele><time>2026-05-03T07:18:37Z</time></trkpt><trkpt lat="42.45302150801598" lon="18.748711416716212"><ele>5.0</ele><time>2026-05-03T07:18:38Z</time></trkpt><trkpt lat="42.452948748712174" lon="18.74876710092034"><ele>4.0</ele><time>2026-05-03T07:18:39Z</time></trkpt><trkpt lat="42.452872425522266" lon="18.74883499629769"><ele>3.9999999999999996</ele><time>2026-05-03T07:18:40Z</time></trkpt><trkpt lat="42.45280822055297" lon="18.748911247329136"><ele>4.0</ele><time>2026-05-03T07:18:41Z</time></trkpt><trkpt lat="42.452745869302454" lon="18.748997931274307"><ele>4.0</ele><time>2026-05-03T07:18:42Z</time></trkpt><trkpt lat="42.45268250487549" lon="18.749080258117733"><ele>4.0</ele><time>2026-05-03T07:18:43Z</time></trkpt><trkpt lat="42.45262081916445" lon="18.749166144907115"><ele>3.9999999999999996</ele><time>2026-05-03T07:18:44Z</time></trkpt><trkpt lat="42.45255079739217" lon="18.74924646711895"><ele>4.0</ele><time>2026-05-03T07:18:45Z</time></trkpt><trkpt lat="42.45248007342445" lon="18.749321943825983"><ele>3.833333333333333</ele><time>2026-05-03T07:18:46Z</time></trkpt><trkpt lat="42.452408220790744" lon="18.749400614821955"><ele>3.6666666666666665</ele><time>2026-05-03T07:18:47Z</time></trkpt><trkpt lat="42.452344007428145" lon="18.74947991636316"><ele>3.5</ele><time>2026-05-03T07:18:48Z</time></trkpt><trkpt lat="42.452273718395254" lon="18.749544621436748"><ele>3.333333333333333</ele><time>2026-05-03T07:18:49Z</time></trkpt><trkpt lat="42.45219233489523" lon="18.749576983840004"><ele>3.1666666666666665</ele><time>2026-05-03T07:18:50Z</time></trkpt><trkpt lat="42.452099978507135" lon="18.749591953542755"><ele>3.0</ele><time>2026-05-03T07:18:51Z</time></trkpt><trkpt lat="42.45200459176207" lon="18.749624378732626"><ele>3.0</ele><time>2026-05-03T07:18:52Z</time></trkpt><trkpt lat="42.45191035182147" lon="18.749666350530863"><ele>3.0</ele><time>2026-05-03T07:18:53Z</time></trkpt><trkpt lat="42.45179861509394" lon="18.749713593635203"><ele>3.0</ele><time>2026-05-03T07:18:54Z</time></trkpt><trkpt lat="42.451689225240045" lon="18.74975906393931"><ele>3.0</ele><time>2026-05-03T07:18:55Z</time></trkpt><trkpt lat="42.45158730253503" lon="18.749809587485114"><ele>3.0</ele><time>2026-05-03T07:18:56Z</time></trkpt><trkpt lat="42.45149101148152" lon="18.749868301346368"><ele>3.0</ele><time>2026-05-03T07:18:57Z</time></trkpt><trkpt lat="42.45140122644191" lon="18.749929828865493"><ele>3.0</ele><time>2026-05-03T07:18:58Z</time></trkpt><trkpt lat="42.45132473955164" lon="18.749984467673734"><ele>3.0</ele><time>2026-05-03T07:18:59Z</time></trkpt><trkpt lat="42.45123706758155" lon="18.749989611011184"><ele>3.0</ele><time>2026-05-03T07:19:00Z</time></trkpt><trkpt lat="42.45114531567417" lon="18.74996287856523"><ele>3.0</ele><time>2026-05-03T07:19:01Z</time></trkpt><trkpt lat="42.45105907467007" lon="18.749991853251238"><ele>2.6</ele><time>2026-05-03T07:19:02Z</time></trkpt><trkpt lat="42.450970353654" lon="18.75005532508265"><ele>2.1999999999999997</ele><time>2026-05-03T07:19:03Z</time></trkpt><trkpt lat="42.45087832030879" lon="18.75012484217364"><ele>1.8</ele><time>2026-05-03T07:19:04Z</time></trkpt><trkpt lat="42.45078885976929" lon="18.75019257396292"><ele>1.4</ele><time>2026-05-03T07:19:05Z</time></trkpt><trkpt lat="42.45070037329789" lon="18.750266594170846"><ele>1.0</ele><time>2026-05-03T07:19:06Z</time></trkpt><trkpt lat="42.45061501992353" lon="18.750346074595114"><ele>1.0</ele><time>2026-05-03T07:19:07Z</time></trkpt><trkpt lat="42.450531898256415" lon="18.750426645788888"><ele>1.0</ele><time>2026-05-03T07:19:08Z</time></trkpt><trkpt lat="42.45044680226562" lon="18.750514246568144"><ele>1.0</ele><time>2026-05-03T07:19:09Z</time></trkpt><trkpt lat="42.45036701226203" lon="18.750609021070822"><ele>1.0</ele><time>2026-05-03T07:19:10Z</time></trkpt><trkpt lat="42.45030119508294" lon="18.750713001808883"><ele>1.0</ele><time>2026-05-03T07:19:11Z</time></trkpt><trkpt lat="42.45023592993985" lon="18.750806133091807"><ele>1.3333333333333333</ele><time>2026-05-03T07:19:12Z</time></trkpt><trkpt lat="42.45017925998889" lon="18.750891844046198"><ele>1.6666666666666665</ele><time>2026-05-03T07:19:13Z</time></trkpt><trkpt lat="42.45012238857612" lon="18.750979262928603"><ele>2.0</ele><time>2026-05-03T07:19:14Z</time></trkpt><trkpt lat="42.450073487965696" lon="18.751068958890396"><ele>2.3333333333333335</ele><time>2026-05-03T07:19:15Z</time></trkpt><trkpt lat="42.45001752882326" lon="18.75116013678349"><ele>2.6666666666666665</ele><time>2026-05-03T07:19:16Z</time></trkpt><trkpt lat="42.449974701491" lon="18.751246890869336"><ele>3.0</ele><time>2026-05-03T07:19:17Z</time></trkpt><trkpt lat="42.44993870438387" lon="18.751333230831126"><ele>3.0</ele><time>2026-05-03T07:19:18Z</time></trkpt><trkpt lat="42.449895687661794" lon="18.751415667948958"><ele>3.0</ele><time>2026-05-03T07:19:19Z</time></trkpt><trkpt lat="42.449840811076086" lon="18.75147361529195"><ele>3.0</ele><time>2026-05-03T07:19:20Z</time></trkpt><trkpt lat="42.44978309526461" lon="18.751536997472414"><ele>3.0</ele><time>2026-05-03T07:19:21Z</time></trkpt><trkpt lat="42.449731493673504" lon="18.751615265748605"><ele>3.0</ele><time>2026-05-03T07:19:22Z</time></trkpt><trkpt lat="42.44969826607153" lon="18.7517027272294"><ele>3.0</ele><time>2026-05-03T07:19:23Z</time></trkpt><trkpt lat="42.44967750037669" lon="18.751818364143375"><ele>2.8333333333333335</ele><time>2026-05-03T07:19:24Z</time></trkpt><trkpt lat="42.44965181259145" lon="18.75191883819052"><ele>2.6666666666666665</ele><time>2026-05-03T07:19:25Z</time></trkpt><trkpt lat="42.44962646094976" lon="18.752026583305106"><ele>2.5</ele><time>2026-05-03T07:19:26Z</time></trkpt><trkpt lat="42.44960328923345" lon="18.752132748292617"><ele>2.333333333333333</ele><time>2026-05-03T07:19:27Z</time></trkpt><trkpt lat="42.44957955390415" lon="18.752249727341653"><ele>2.1666666666666665</ele><time>2026-05-03T07:19:28Z</time></trkpt><trkpt lat="42.449560255203544" lon="18.75237553931471"><ele>2.0</ele><time>2026-05-03T07:19:29Z</time></trkpt><trkpt lat="42.44953635924844" lon="18.752495080655095"><ele>2.6666666666666665</ele><time>2026-05-03T07:19:30Z</time></trkpt><trkpt lat="42.449508729190924" lon="18.752611406263856"><ele>3.333333333333333</ele><time>2026-05-03T07:19:31Z</time></trkpt><trkpt lat="42.44948718780643" lon="18.75271679873535"><ele>4.0</ele><time>2026-05-03T07:19:32Z</time></trkpt><trkpt lat="42.449467455709176" lon="18.752815840937988"><ele>4.666666666666667</ele><time>2026-05-03T07:19:33Z</time></trkpt><trkpt lat="42.44944096975873" lon="18.7529049886428"><ele>5.333333333333333</ele><time>2026-05-03T07:19:34Z</time></trkpt><trkpt lat="42.449408396714176" lon="18.752996931142583"><ele>6.0</ele><time>2026-05-03T07:19:35Z</time></trkpt><trkpt lat="42.44937231457358" lon="18.753095106968086"><ele>6.0</ele><time>2026-05-03T07:19:36Z</time></trkpt><trkpt lat="42.449337473576186" lon="18.753194119188873"><ele>6.0</ele><time>2026-05-03T07:19:37Z</time></trkpt><trkpt lat="42.44930627143261" lon="18.75329288473854"><ele>6.0</ele><time>2026-05-03T07:19:38Z</time></trkpt><trkpt lat="42.449267212493346" lon="18.753383411826313"><ele>6.0</ele><time>2026-05-03T07:19:39Z</time></trkpt><trkpt lat="42.44922088806997" lon="18.75347817546194"><ele>6.0</ele><time>2026-05-03T07:19:40Z</time></trkpt><trkpt lat="42.449172517445966" lon="18.753566937992577"><ele>6.0</ele><time>2026-05-03T07:19:41Z</time></trkpt><trkpt lat="42.449127181218" lon="18.753666621617338"><ele>6.0</ele><time>2026-05-03T07:19:42Z</time></trkpt><trkpt lat="42.44908634738204" lon="18.753767589871273"><ele>6.0</ele><time>2026-05-03T07:19:43Z</time></trkpt><trkpt lat="42.44903654806483" lon="18.753864734857544"><ele>6.0</ele><time>2026-05-03T07:19:44Z</time></trkpt><trkpt lat="42.44897820487725" lon="18.75395976817617"><ele>6.0</ele><time>2026-05-03T07:19:45Z</time></trkpt><trkpt lat="42.44891734172513" lon="18.75403788168631"><ele>6.0</ele><time>2026-05-03T07:19:46Z</time></trkpt><trkpt lat="42.448853253469146" lon="18.754092673358183"><ele>6.0</ele><time>2026-05-03T07:19:47Z</time></trkpt><trkpt lat="42.44878453847646" lon="18.75414003483502"><ele>6.0</ele><time>2026-05-03T07:19:48Z</time></trkpt><trkpt lat="42.448706340128766" lon="18.75416188623616"><ele>6.0</ele><time>2026-05-03T07:19:49Z</time></trkpt><trkpt lat="42.44861854400406" lon="18.754178475090896"><ele>6.0</ele><time>2026-05-03T07:19:50Z</time></trkpt><trkpt lat="42.4485437075701" lon="18.754205799507968"><ele>6.0</ele><time>2026-05-03T07:19:51Z</time></trkpt><trkpt lat="42.44844333703446" lon="18.75423993944698"><ele>6.0</ele><time>2026-05-03T07:19:52Z</time></trkpt><trkpt lat="42.44833912487691" lon="18.75426601891389"><ele>6.0</ele><time>2026-05-03T07:19:53Z</time></trkpt><trkpt lat="42.448237889540565" lon="18.754294322677406"><ele>6.0</ele><time>2026-05-03T07:19:54Z</time></trkpt><trkpt lat="42.44813594048866" lon="18.7543192407317"><ele>6.0</ele><time>2026-05-03T07:19:55Z</time></trkpt><trkpt lat="42.44803489818938" lon="18.754340356224137"><ele>6.0</ele><time>2026-05-03T07:19:56Z</time></trkpt><trkpt lat="42.447939654567925" lon="18.754361135711363"><ele>6.0</ele><time>2026-05-03T07:19:57Z</time></trkpt><trkpt lat="42.44784656995942" lon="18.754388059236433"><ele>5.8</ele><time>2026-05-03T07:19:58Z</time></trkpt><trkpt lat="42.44774894012045" lon="18.75442421371917"><ele>5.6</ele><time>2026-05-03T07:19:59Z</time></trkpt><trkpt lat="42.44765085262644" lon="18.75445667681084"><ele>5.4</ele><time>2026-05-03T07:20:00Z</time></trkpt><trkpt lat="42.44755516644978" lon="18.754480754976928"><ele>5.2</ele><time>2026-05-03T07:20:01Z</time></trkpt><trkpt lat="42.447459524209435" lon="18.75448860350783"><ele>5.0</ele><time>2026-05-03T07:20:02Z</time></trkpt><trkpt lat="42.44736347533179" lon="18.754485856100562"><ele>5.0</ele><time>2026-05-03T07:20:03Z</time></trkpt><trkpt lat="42.447271860698415" lon="18.754476623539517"><ele>5.0</ele><time>2026-05-03T07:20:04Z</time></trkpt><trkpt lat="42.44717312166622" lon="18.75447459695157"><ele>5.0</ele><time>2026-05-03T07:20:05Z</time></trkpt><trkpt lat="42.44706764356259" lon="18.754468537552437"><ele>5.0</ele><time>2026-05-03T07:20:06Z</time></trkpt><trkpt lat="42.446966476728264" lon="18.754451417231813"><ele>5.0</ele><time>2026-05-03T07:20:07Z</time></trkpt><trkpt lat="42.446873655966186" lon="18.754424712571538"><ele>4.6</ele><time>2026-05-03T07:20:08Z</time></trkpt><trkpt lat="42.446787902777494" lon="18.75439093641053"><ele>4.2</ele><time>2026-05-03T07:20:09Z</time></trkpt><trkpt lat="42.44670349103862" lon="18.75433161766013"><ele>3.8</ele><time>2026-05-03T07:20:10Z</time></trkpt><trkpt lat="42.446618365768465" lon="18.754241589993395"><ele>3.4</ele><time>2026-05-03T07:20:11Z</time></trkpt><trkpt lat="42.44653515967549" lon="18.754139599051573"><ele>3.0</ele><time>2026-05-03T07:20:12Z</time></trkpt><trkpt lat="42.446452649106874" lon="18.754030785028498"><ele>3.0</ele><time>2026-05-03T07:20:13Z</time></trkpt><trkpt lat="42.44637553950332" lon="18.75392624539271"><ele>3.0</ele><time>2026-05-03T07:20:14Z</time></trkpt><trkpt lat="42.446300602207195" lon="18.753827975266017"><ele>3.0</ele><time>2026-05-03T07:20:15Z</time></trkpt><trkpt lat="42.44623455231334" lon="18.753735680908708"><ele>3.0</ele><time>2026-05-03T07:20:16Z</time></trkpt><trkpt lat="42.44617793890019" lon="18.753650859489138"><ele>3.0</ele><time>2026-05-03T07:20:17Z</time></trkpt><trkpt lat="42.44612481535242" lon="18.75357187199145"><ele>3.1428571428571423</ele><time>2026-05-03T07:20:18Z</time></trkpt><trkpt lat="42.44608058349384" lon="18.753494783053693"><ele>3.2857142857142856</ele><time>2026-05-03T07:20:19Z</time></trkpt><trkpt lat="42.44603574205656" lon="18.753417000579727"><ele>3.4285714285714284</ele><time>2026-05-03T07:20:20Z</time></trkpt><trkpt lat="42.44599918611694" lon="18.75333897579724"><ele>3.571428571428571</ele><time>2026-05-03T07:20:21Z</time></trkpt><trkpt lat="42.445960871472536" lon="18.753268110778315"><ele>3.714285714285714</ele><time>2026-05-03T07:20:22Z</time></trkpt><trkpt lat="42.44591651557951" lon="18.75319574837226"><ele>3.8571428571428568</ele><time>2026-05-03T07:20:23Z</time></trkpt><trkpt lat="42.44586762602595" lon="18.753122066815077"><ele>4.0</ele><time>2026-05-03T07:20:24Z</time></trkpt><trkpt lat="42.44581117714356" lon="18.753051541686308"><ele>3.9999999999999996</ele><time>2026-05-03T07:20:25Z</time></trkpt><trkpt lat="42.4457483548849" lon="18.752990824928556"><ele>4.0</ele><time>2026-05-03T07:20:26Z</time></trkpt><trkpt lat="42.44568677453094" lon="18.752926908230364"><ele>4.0</ele><time>2026-05-03T07:20:27Z</time></trkpt><trkpt lat="42.445621961597666" lon="18.75284702377188"><ele>4.0</ele><time>2026-05-03T07:20:28Z</time></trkpt><trkpt lat="42.44555452077005" lon="18.752763473740366"><ele>3.9999999999999996</ele><time>2026-05-03T07:20:29Z</time></trkpt><trkpt lat="42.44547477344021" lon="18.752673133562823"><ele>4.0</ele><time>2026-05-03T07:20:30Z</time></trkpt><trkpt lat="42.44539177982103" lon="18.752597147239605"><ele>3.6</ele><time>2026-05-03T07:20:31Z</time></trkpt><trkpt lat="42.44530544613502" lon="18.752529342133364"><ele>3.2</ele><time>2026-05-03T07:20:32Z</time></trkpt><trkpt lat="42.445220873798384" lon="18.752468030077125"><ele>2.8000000000000003</ele><time>2026-05-03T07:20:33Z</time></trkpt><trkpt lat="42.44513781038984" lon="18.75240911556782"><ele>2.4000000000000004</ele><time>2026-05-03T07:20:34Z</time></trkpt><trkpt lat="42.44505388269976" lon="18.75235609022023"><ele>2.0</ele><time>2026-05-03T07:20:35Z</time></trkpt><trkpt lat="42.44496640731402" lon="18.752305151243444"><ele>2.0</ele><time>2026-05-03T07:20:36Z</time></trkpt><trkpt lat="42.44487485036085" lon="18.7522545604495"><ele>2.0</ele><time>2026-05-03T07:20:37Z</time></trkpt><trkpt lat="42.44478347740996" lon="18.752210148985252"><ele>2.0</ele><time>2026-05-03T07:20:38Z</time></trkpt><trkpt lat="42.44468760551868" lon="18.75216696199296"><ele>2.0</ele><time>2026-05-03T07:20:39Z</time></trkpt><trkpt lat="42.444586972998806" lon="18.752143014336752"><ele>2.0</ele><time>2026-05-03T07:20:40Z</time></trkpt><trkpt lat="42.444487498671016" lon="18.752144786250536"><ele>2.5</ele><time>2026-05-03T07:20:41Z</time></trkpt><trkpt lat="42.44439182366512" lon="18.752159757318083"><ele>3.0</ele><time>2026-05-03T07:20:42Z</time></trkpt><trkpt lat="42.44430271695493" lon="18.75217283016892"><ele>3.5</ele><time>2026-05-03T07:20:43Z</time></trkpt><trkpt lat="42.4442214926741" lon="18.752182887125496"><ele>4.0</ele><time>2026-05-03T07:20:44Z</time></trkpt><trkpt lat="42.44414301032125" lon="18.75220190181921"><ele>4.5</ele><time>2026-05-03T07:20:45Z</time></trkpt><trkpt lat="42.44406640570897" lon="18.75225020623467"><ele>5.0</ele><time>2026-05-03T07:20:46Z</time></trkpt><trkpt lat="42.44399853612628" lon="18.752325258993437"><ele>5.0</ele><time>2026-05-03T07:20:47Z</time></trkpt><trkpt lat="42.443934270533184" lon="18.7523968268844"><ele>5.0</ele><time>2026-05-03T07:20:48Z</time></trkpt><trkpt lat="42.44386397610086" lon="18.752467718926987"><ele>5.0</ele><time>2026-05-03T07:20:49Z</time></trkpt><trkpt lat="42.44379309882036" lon="18.752531179603277"><ele>5.0</ele><time>2026-05-03T07:20:50Z</time></trkpt><trkpt lat="42.443724928106924" lon="18.75258140497285"><ele>5.0</ele><time>2026-05-03T07:20:51Z</time></trkpt><trkpt lat="42.443672945143746" lon="18.75265068213636"><ele>5.0</ele><time>2026-05-03T07:20:52Z</time></trkpt><trkpt lat="42.4436303609425" lon="18.7527226435187"><ele>5.0</ele><time>2026-05-03T07:20:53Z</time></trkpt><trkpt lat="42.443595739946765" lon="18.752796332909043"><ele>5.0</ele><time>2026-05-03T07:20:54Z</time></trkpt><trkpt lat="42.443545940301014" lon="18.752929424728986"><ele>5.0</ele><time>2026-05-03T07:20:56Z</time></trkpt><trkpt lat="42.44350000411848" lon="18.75307474185863"><ele>5.0</ele><time>2026-05-03T07:20:58Z</time></trkpt><trkpt lat="42.44344061653604" lon="18.753178040740423"><ele>5.0</ele><time>2026-05-03T07:21:00Z</time></trkpt><trkpt lat="42.44340627390229" lon="18.75328322719812"><ele>5.0</ele><time>2026-05-03T07:21:02Z</time></trkpt><trkpt lat="42.443361813363694" lon="18.753403115040364"><ele>5.0</ele><time>2026-05-03T07:21:04Z</time></trkpt><trkpt lat="42.44333164800528" lon="18.753483909746024"><ele>5.0</ele><time>2026-05-03T07:21:05Z</time></trkpt><trkpt lat="42.44330026017259" lon="18.753567198413993"><ele>5.0</ele><time>2026-05-03T07:21:06Z</time></trkpt><trkpt lat="42.44324489154613" lon="18.753713938638207"><ele>5.0</ele><time>2026-05-03T07:21:08Z</time></trkpt><trkpt lat="42.4432114658522" lon="18.753789274652945"><ele>5.0</ele><time>2026-05-03T07:21:09Z</time></trkpt><trkpt lat="42.44316545579298" lon="18.753857900350376"><ele>4.714285714285714</ele><time>2026-05-03T07:21:10Z</time></trkpt><trkpt lat="42.44310580205127" lon="18.753902365404397"><ele>4.428571428571429</ele><time>2026-05-03T07:21:11Z</time></trkpt><trkpt lat="42.443042318245666" lon="18.753935020731895"><ele>4.142857142857142</ele><time>2026-05-03T07:21:12Z</time></trkpt><trkpt lat="42.44298020857699" lon="18.753968433117922"><ele>3.8571428571428568</ele><time>2026-05-03T07:21:13Z</time></trkpt><trkpt lat="42.442919977830755" lon="18.754006216272224"><ele>3.571428571428571</ele><time>2026-05-03T07:21:14Z</time></trkpt><trkpt lat="42.44284996563499" lon="18.754049413001823"><ele>3.2857142857142856</ele><time>2026-05-03T07:21:15Z</time></trkpt><trkpt lat="42.442796539826304" lon="18.754107027104777"><ele>3.0</ele><time>2026-05-03T07:21:16Z</time></trkpt><trkpt lat="42.44274161511323" lon="18.754187776327033"><ele>4.0</ele><time>2026-05-03T07:21:17Z</time></trkpt><trkpt lat="42.44268841159578" lon="18.754257611243375"><ele>5.0</ele><time>2026-05-03T07:21:18Z</time></trkpt><trkpt lat="42.44263872482451" lon="18.754319498635912"><ele>6.000000000000001</ele><time>2026-05-03T07:21:19Z</time></trkpt><trkpt lat="42.442550901781296" lon="18.754394614699656"><ele>7.0</ele><time>2026-05-03T07:21:21Z</time></trkpt><trkpt lat="42.442440407926675" lon="18.7544924293309"><ele>8.0</ele><time>2026-05-03T07:21:23Z</time></trkpt><trkpt lat="42.44236362590623" lon="18.75455299795009"><ele>7.6000000000000005</ele><time>2026-05-03T07:21:24Z</time></trkpt><trkpt lat="42.44227724391565" lon="18.754605377061385"><ele>7.200000000000001</ele><time>2026-05-03T07:21:25Z</time></trkpt><trkpt lat="42.44218151377374" lon="18.754632777861985"><ele>6.8</ele><time>2026-05-03T07:21:26Z</time></trkpt><trkpt lat="42.44207818706613" lon="18.75464625514443"><ele>6.4</ele><time>2026-05-03T07:21:27Z</time></trkpt><trkpt lat="42.44196531492792" lon="18.75465516760628"><ele>6.0</ele><time>2026-05-03T07:21:28Z</time></trkpt><trkpt lat="42.44184878683872" lon="18.75465733218621"><ele>6.0</ele><time>2026-05-03T07:21:29Z</time></trkpt><trkpt lat="42.44174332565311" lon="18.75464320420463"><ele>6.0</ele><time>2026-05-03T07:21:30Z</time></trkpt><trkpt lat="42.44163614685518" lon="18.75463334893192"><ele>6.0</ele><time>2026-05-03T07:21:31Z</time></trkpt><trkpt lat="42.44154176337181" lon="18.75461060687445"><ele>6.0</ele><time>2026-05-03T07:21:32Z</time></trkpt><trkpt lat="42.44145000507964" lon="18.75457790942952"><ele>6.0</ele><time>2026-05-03T07:21:33Z</time></trkpt><trkpt lat="42.44135705339508" lon="18.75453405825746"><ele>5.3999999999999995</ele><time>2026-05-03T07:21:34Z</time></trkpt><trkpt lat="42.441273444952095" lon="18.75447657869409"><ele>4.8</ele><time>2026-05-03T07:21:35Z</time></trkpt><trkpt lat="42.44119056004061" lon="18.754402324290215"><ele>4.199999999999999</ele><time>2026-05-03T07:21:36Z</time></trkpt><trkpt lat="42.441103753570964" lon="18.754339690257122"><ele>3.5999999999999996</ele><time>2026-05-03T07:21:37Z</time></trkpt><trkpt lat="42.44101691814549" lon="18.754290084877077"><ele>3.0</ele><time>2026-05-03T07:21:38Z</time></trkpt><trkpt lat="42.4409268748165" lon="18.754236839564392"><ele>4.2</ele><time>2026-05-03T07:21:39Z</time></trkpt><trkpt lat="42.4408390306102" lon="18.75418291806018"><ele>5.4</ele><time>2026-05-03T07:21:40Z</time></trkpt><trkpt lat="42.440745238780714" lon="18.754123478527518"><ele>6.6000000000000005</ele><time>2026-05-03T07:21:41Z</time></trkpt><trkpt lat="42.44065052898573" lon="18.754060127375052"><ele>7.8</ele><time>2026-05-03T07:21:42Z</time></trkpt><trkpt lat="42.440565567263725" lon="18.754003607746878"><ele>9.0</ele><time>2026-05-03T07:21:43Z</time></trkpt><trkpt lat="42.44048659938507" lon="18.753952094392645"><ele>8.000000000000002</ele><time>2026-05-03T07:21:44Z</time></trkpt><trkpt lat="42.44041443300586" lon="18.753911675641316"><ele>7.0</ele><time>2026-05-03T07:21:45Z</time></trkpt><trkpt lat="42.440348937709174" lon="18.753878271950093"><ele>6.0</ele><time>2026-05-03T07:21:46Z</time></trkpt><trkpt lat="42.44028545984198" lon="18.753831776311973"><ele>5.0</ele><time>2026-05-03T07:21:47Z</time></trkpt><trkpt lat="42.440223054713506" lon="18.753779248098343"><ele>4.0</ele><time>2026-05-03T07:21:48Z</time></trkpt><trkpt lat="42.44016007234301" lon="18.75372889604685"><ele>3.0</ele><time>2026-05-03T07:21:49Z</time></trkpt><trkpt lat="42.440086736436264" lon="18.75368594645714"><ele>2.0</ele><time>2026-05-03T07:21:50Z</time></trkpt><trkpt lat="42.440010070985124" lon="18.753637283727084"><ele>1.9999999999999998</ele><time>2026-05-03T07:21:51Z</time></trkpt><trkpt lat="42.43993544963909" lon="18.75358422092111"><ele>2.0</ele><time>2026-05-03T07:21:52Z</time></trkpt><trkpt lat="42.43986215422524" lon="18.753536371783213"><ele>2.0</ele><time>2026-05-03T07:21:53Z</time></trkpt><trkpt lat="42.439771125671236" lon="18.753488676558536"><ele>2.0</ele><time>2026-05-03T07:21:54Z</time></trkpt><trkpt lat="42.43970068592685" lon="18.753433416009955"><ele>1.9999999999999998</ele><time>2026-05-03T07:21:55Z</time></trkpt><trkpt lat="42.43962012634333" lon="18.753398277534295"><ele>2.0</ele><time>2026-05-03T07:21:56Z</time></trkpt><trkpt lat="42.4395376661358" lon="18.753376508741"><ele>3.1666666666666665</ele><time>2026-05-03T07:21:57Z</time></trkpt><trkpt lat="42.439454245184095" lon="18.753390549822104"><ele>4.333333333333333</ele><time>2026-05-03T07:21:58Z</time></trkpt><trkpt lat="42.43938233728123" lon="18.753460049500944"><ele>5.5</ele><time>2026-05-03T07:21:59Z</time></trkpt><trkpt lat="42.43932512995197" lon="18.75356463502048"><ele>6.666666666666667</ele><time>2026-05-03T07:22:00Z</time></trkpt><trkpt lat="42.43928485177523" lon="18.753650632065067"><ele>7.833333333333333</ele><time>2026-05-03T07:22:01Z</time></trkpt><trkpt lat="42.43921657338183" lon="18.753708924713017"><ele>9.0</ele><time>2026-05-03T07:22:02Z</time></trkpt><trkpt lat="42.43914278548844" lon="18.753883783640028"><ele>9.0</ele><time>2026-05-03T07:22:03Z</time></trkpt><trkpt lat="42.439076678988606" lon="18.753987484118845"><ele>9.0</ele><time>2026-05-03T07:22:04Z</time></trkpt><trkpt lat="42.439009775470694" lon="18.754088227523624"><ele>9.0</ele><time>2026-05-03T07:22:05Z</time></trkpt><trkpt lat="42.43894244987246" lon="18.75418716114612"><ele>9.0</ele><time>2026-05-03T07:22:06Z</time></trkpt><trkpt lat="42.43886958662475" lon="18.75428775322623"><ele>9.0</ele><time>2026-05-03T07:22:07Z</time></trkpt><trkpt lat="42.43879111132934" lon="18.75438330416388"><ele>8.4</ele><time>2026-05-03T07:22:08Z</time></trkpt><trkpt lat="42.43871040391743" lon="18.7544584386865"><ele>7.800000000000001</ele><time>2026-05-03T07:22:09Z</time></trkpt><trkpt lat="42.438620332345764" lon="18.754514930146787"><ele>7.199999999999999</ele><time>2026-05-03T07:22:10Z</time></trkpt><trkpt lat="42.43853276580864" lon="18.754557759963408"><ele>6.6</ele><time>2026-05-03T07:22:11Z</time></trkpt><trkpt lat="42.438451436713954" lon="18.754600315265154"><ele>6.0</ele><time>2026-05-03T07:22:12Z</time></trkpt><trkpt lat="42.438376806643426" lon="18.754654482830652"><ele>6.0</ele><time>2026-05-03T07:22:13Z</time></trkpt><trkpt lat="42.43830418756874" lon="18.754718983122224"><ele>6.0</ele><time>2026-05-03T07:22:14Z</time></trkpt><trkpt lat="42.43823387116333" lon="18.754767212698713"><ele>6.0</ele><time>2026-05-03T07:22:15Z</time></trkpt><trkpt lat="42.438166030908796" lon="18.754803831442228"><ele>6.0</ele><time>2026-05-03T07:22:16Z</time></trkpt><trkpt lat="42.43805573631932" lon="18.75486042016947"><ele>6.0</ele><time>2026-05-03T07:22:18Z</time></trkpt><trkpt lat="42.43794582524857" lon="18.754897181839905"><ele>7.0</ele><time>2026-05-03T07:22:20Z</time></trkpt><trkpt lat="42.437884970712666" lon="18.754921277678996"><ele>8.0</ele><time>2026-05-03T07:22:21Z</time></trkpt><trkpt lat="42.437819851641805" lon="18.754950113495983"><ele>9.0</ele><time>2026-05-03T07:22:22Z</time></trkpt><trkpt lat="42.43775219782621" lon="18.754979744316607"><ele>10.0</ele><time>2026-05-03T07:22:23Z</time></trkpt><trkpt lat="42.43768150503849" lon="18.755011898889755"><ele>11.0</ele><time>2026-05-03T07:22:24Z</time></trkpt><trkpt lat="42.43761254342367" lon="18.75504544406708"><ele>12.0</ele><time>2026-05-03T07:22:25Z</time></trkpt><trkpt lat="42.437536558387166" lon="18.75508654407857"><ele>13.0</ele><time>2026-05-03T07:22:26Z</time></trkpt><trkpt lat="42.437461433191494" lon="18.75513437646894"><ele>12.999999999999998</ele><time>2026-05-03T07:22:27Z</time></trkpt><trkpt lat="42.437385773828424" lon="18.755198241960436"><ele>13.0</ele><time>2026-05-03T07:22:28Z</time></trkpt><trkpt lat="42.43732032125817" lon="18.755280801224536"><ele>13.0</ele><time>2026-05-03T07:22:29Z</time></trkpt><trkpt lat="42.4372755977474" lon="18.755376261548797"><ele>13.0</ele><time>2026-05-03T07:22:30Z</time></trkpt><trkpt lat="42.43724095518031" lon="18.755473360266045"><ele>12.999999999999998</ele><time>2026-05-03T07:22:31Z</time></trkpt><trkpt lat="42.437198469971904" lon="18.755550601387338"><ele>13.0</ele><time>2026-05-03T07:22:32Z</time></trkpt><trkpt lat="42.4370954109295" lon="18.75564732672595"><ele>12.25</ele><time>2026-05-03T07:22:34Z</time></trkpt><trkpt lat="42.437002444704895" lon="18.755745135865766"><ele>11.5</ele><time>2026-05-03T07:22:36Z</time></trkpt><trkpt lat="42.436905901521115" lon="18.755815574778662"><ele>10.75</ele><time>2026-05-03T07:22:38Z</time></trkpt><trkpt lat="42.436811476650114" lon="18.755909269208704"><ele>10.0</ele><time>2026-05-03T07:22:40Z</time></trkpt><trkpt lat="42.436709361715415" lon="18.755982389034127"><ele>9.5</ele><time>2026-05-03T07:22:42Z</time></trkpt><trkpt lat="42.43660823570684" lon="18.75603932675389"><ele>9.0</ele><time>2026-05-03T07:22:44Z</time></trkpt><trkpt lat="42.436494595293844" lon="18.75609607509159"><ele>8.5</ele><time>2026-05-03T07:22:46Z</time></trkpt><trkpt lat="42.43642923931556" lon="18.756134511946424"><ele>8.0</ele><time>2026-05-03T07:22:47Z</time></trkpt><trkpt lat="42.43636602063165" lon="18.75618031808234"><ele>7.500000000000001</ele><time>2026-05-03T07:22:48Z</time></trkpt><trkpt lat="42.43630815743635" lon="18.75621632088524"><ele>7.0</ele><time>2026-05-03T07:22:49Z</time></trkpt><trkpt lat="42.43624345429839" lon="18.75625030040713"><ele>7.000000000000001</ele><time>2026-05-03T07:22:50Z</time></trkpt><trkpt lat="42.43617987460105" lon="18.756277480708412"><ele>7.0</ele><time>2026-05-03T07:22:51Z</time></trkpt><trkpt lat="42.436117886301595" lon="18.756306167572706"><ele>7.0</ele><time>2026-05-03T07:22:52Z</time></trkpt><trkpt lat="42.43599965869743" lon="18.75636213242193"><ele>7.0</ele><time>2026-05-03T07:22:54Z</time></trkpt><trkpt lat="42.435933318253504" lon="18.75639126968242"><ele>7.000000000000001</ele><time>2026-05-03T07:22:55Z</time></trkpt><trkpt lat="42.43585995700247" lon="18.75642452478368"><ele>7.0</ele><time>2026-05-03T07:22:56Z</time></trkpt><trkpt lat="42.43578531848484" lon="18.7564567989618"><ele>7.0</ele><time>2026-05-03T07:22:57Z</time></trkpt><trkpt lat="42.4357107371319" lon="18.75649891432893"><ele>7.0</ele><time>2026-05-03T07:22:58Z</time></trkpt><trkpt lat="42.43564403413633" lon="18.75653916898148"><ele>7.0</ele><time>2026-05-03T07:22:59Z</time></trkpt><trkpt lat="42.43557622596248" lon="18.756578979193655"><ele>7.0</ele><time>2026-05-03T07:23:00Z</time></trkpt><trkpt lat="42.435513174173366" lon="18.75662360607898"><ele>7.0</ele><time>2026-05-03T07:23:01Z</time></trkpt><trkpt lat="42.435446674018614" lon="18.756670594294068"><ele>7.0</ele><time>2026-05-03T07:23:02Z</time></trkpt><trkpt lat="42.43538175101994" lon="18.75671307351082"><ele>7.0</ele><time>2026-05-03T07:23:03Z</time></trkpt><trkpt lat="42.43532061576846" lon="18.756756583299765"><ele>6.666666666666667</ele><time>2026-05-03T07:23:04Z</time></trkpt><trkpt lat="42.43525306650328" lon="18.756804090391512"><ele>6.333333333333334</ele><time>2026-05-03T07:23:05Z</time></trkpt><trkpt lat="42.43518540995512" lon="18.756836945753943"><ele>6.0</ele><time>2026-05-03T07:23:06Z</time></trkpt><trkpt lat="42.43510617317439" lon="18.75685906719713"><ele>5.666666666666667</ele><time>2026-05-03T07:23:07Z</time></trkpt><trkpt lat="42.43502428167675" lon="18.756879953506445"><ele>5.333333333333334</ele><time>2026-05-03T07:23:08Z</time></trkpt><trkpt lat="42.43494782806392" lon="18.75689875951374"><ele>5.0</ele><time>2026-05-03T07:23:09Z</time></trkpt><trkpt lat="42.434872060630944" lon="18.756913672715793"><ele>5.0</ele><time>2026-05-03T07:23:10Z</time></trkpt><trkpt lat="42.434797445753084" lon="18.756922263281968"><ele>5.0</ele><time>2026-05-03T07:23:11Z</time></trkpt><trkpt lat="42.43471945691865" lon="18.756933088772325"><ele>5.0</ele><time>2026-05-03T07:23:12Z</time></trkpt><trkpt lat="42.43464052646855" lon="18.756955789450306"><ele>5.0</ele><time>2026-05-03T07:23:13Z</time></trkpt><trkpt lat="42.43456444482285" lon="18.756977250697922"><ele>5.0</ele><time>2026-05-03T07:23:14Z</time></trkpt><trkpt lat="42.434493867959794" lon="18.75701526123513"><ele>5.0</ele><time>2026-05-03T07:23:15Z</time></trkpt><trkpt lat="42.434425864140614" lon="18.75706906379229"><ele>4.666666666666667</ele><time>2026-05-03T07:23:16Z</time></trkpt><trkpt lat="42.434357962298584" lon="18.757128114545782"><ele>4.333333333333334</ele><time>2026-05-03T07:23:17Z</time></trkpt><trkpt lat="42.434290618527676" lon="18.75719221252793"><ele>4.0</ele><time>2026-05-03T07:23:18Z</time></trkpt><trkpt lat="42.434232473435735" lon="18.757263613190613"><ele>3.666666666666667</ele><time>2026-05-03T07:23:19Z</time></trkpt><trkpt lat="42.4341690756774" lon="18.757332620522003"><ele>3.3333333333333335</ele><time>2026-05-03T07:23:20Z</time></trkpt><trkpt lat="42.434102769280074" lon="18.757401377754235"><ele>3.0</ele><time>2026-05-03T07:23:21Z</time></trkpt><trkpt lat="42.434038008700774" lon="18.757488000988456"><ele>3.0</ele><time>2026-05-03T07:23:22Z</time></trkpt><trkpt lat="42.43397078833031" lon="18.757576850204718"><ele>3.0</ele><time>2026-05-03T07:23:23Z</time></trkpt><trkpt lat="42.43389622301047" lon="18.75766498721467"><ele>3.0</ele><time>2026-05-03T07:23:24Z</time></trkpt><trkpt lat="42.43381364241671" lon="18.75773777045526"><ele>3.0</ele><time>2026-05-03T07:23:25Z</time></trkpt><trkpt lat="42.433737983953584" lon="18.757804692016126"><ele>3.0</ele><time>2026-05-03T07:23:26Z</time></trkpt><trkpt lat="42.43366543561164" lon="18.757856921622484"><ele>2.6666666666666665</ele><time>2026-05-03T07:23:27Z</time></trkpt><trkpt lat="42.43359284990494" lon="18.757909152914724"><ele>2.3333333333333335</ele><time>2026-05-03T07:23:28Z</time></trkpt><trkpt lat="42.43351561483926" lon="18.757937209671397"><ele>2.0</ele><time>2026-05-03T07:23:29Z</time></trkpt><trkpt lat="42.43343579255884" lon="18.757956934547124"><ele>1.6666666666666665</ele><time>2026-05-03T07:23:30Z</time></trkpt><trkpt lat="42.433354822663645" lon="18.757983259484256"><ele>1.3333333333333333</ele><time>2026-05-03T07:23:31Z</time></trkpt><trkpt lat="42.43327625925529" lon="18.757974208034625"><ele>1.0</ele><time>2026-05-03T07:23:32Z</time></trkpt><trkpt lat="42.43320279940488" lon="18.75795384134832"><ele>0.9999999999999999</ele><time>2026-05-03T07:23:33Z</time></trkpt><trkpt lat="42.43313493318743" lon="18.757932333472482"><ele>1.0</ele><time>2026-05-03T07:23:34Z</time></trkpt><trkpt lat="42.433074154339174" lon="18.757902022070542"><ele>1.0</ele><time>2026-05-03T07:23:35Z</time></trkpt><trkpt lat="42.43295941066608" lon="18.757841006734782"><ele>1.0</ele><time>2026-05-03T07:23:37Z</time></trkpt><trkpt lat="42.432896540649914" lon="18.757798033615426"><ele>0.9999999999999999</ele><time>2026-05-03T07:23:38Z</time></trkpt><trkpt lat="42.43283126532279" lon="18.757761107416858"><ele>1.0</ele><time>2026-05-03T07:23:39Z</time></trkpt><trkpt lat="42.43276306020588" lon="18.757737783446043"><ele>0.9999999999999999</ele><time>2026-05-03T07:23:40Z</time></trkpt><trkpt lat="42.43269333713421" lon="18.757712021267412"><ele>1.0</ele><time>2026-05-03T07:23:41Z</time></trkpt><trkpt lat="42.43262177770491" lon="18.7576779695691"><ele>1.0</ele><time>2026-05-03T07:23:42Z</time></trkpt><trkpt lat="42.43254643384161" lon="18.757658211131726"><ele>1.0</ele><time>2026-05-03T07:23:43Z</time></trkpt><trkpt lat="42.43247079711944" lon="18.757643991390132"><ele>0.9999999999999999</ele><time>2026-05-03T07:23:44Z</time></trkpt><trkpt lat="42.43239068474563" lon="18.757643837395847"><ele>1.0</ele><time>2026-05-03T07:23:45Z</time></trkpt><trkpt lat="42.43231542878958" lon="18.757652454495464"><ele>0.9999999999999999</ele><time>2026-05-03T07:23:46Z</time></trkpt><trkpt lat="42.43223731726233" lon="18.75767368683422"><ele>1.0</ele><time>2026-05-03T07:23:47Z</time></trkpt><trkpt lat="42.43216678086463" lon="18.75770306592385"><ele>1.0</ele><time>2026-05-03T07:23:48Z</time></trkpt><trkpt lat="42.43209225482215" lon="18.757740924525134"><ele>1.0</ele><time>2026-05-03T07:23:49Z</time></trkpt><trkpt lat="42.43203053346294" lon="18.757783960120754"><ele>0.9999999999999999</ele><time>2026-05-03T07:23:50Z</time></trkpt><trkpt lat="42.43197424190395" lon="18.757825486348356"><ele>1.0</ele><time>2026-05-03T07:23:51Z</time></trkpt><trkpt lat="42.43186529120261" lon="18.757883973934394"><ele>1.1666666666666665</ele><time>2026-05-03T07:23:53Z</time></trkpt><trkpt lat="42.43174992435165" lon="18.75791002723512"><ele>1.3333333333333333</ele><time>2026-05-03T07:23:55Z</time></trkpt><trkpt lat="42.4316851980929" lon="18.757910197385947"><ele>1.5</ele><time>2026-05-03T07:23:56Z</time></trkpt><trkpt lat="42.431621727411866" lon="18.75790897364276"><ele>1.6666666666666665</ele><time>2026-05-03T07:23:57Z</time></trkpt><trkpt lat="42.43154995810305" lon="18.757910528399808"><ele>1.8333333333333333</ele><time>2026-05-03T07:23:58Z</time></trkpt><trkpt lat="42.43147449939867" lon="18.75791504061869"><ele>2.0</ele><time>2026-05-03T07:23:59Z</time></trkpt><trkpt lat="42.431403640228694" lon="18.757925556025075"><ele>2.0</ele><time>2026-05-03T07:24:00Z</time></trkpt><trkpt lat="42.43132993457471" lon="18.757914551586722"><ele>1.9999999999999998</ele><time>2026-05-03T07:24:01Z</time></trkpt><trkpt lat="42.43126148363388" lon="18.757914587585685"><ele>2.0</ele><time>2026-05-03T07:24:02Z</time></trkpt><trkpt lat="42.431196228242385" lon="18.757921583329516"><ele>2.0</ele><time>2026-05-03T07:24:03Z</time></trkpt><trkpt lat="42.43113183989541" lon="18.757931668173576"><ele>1.9999999999999998</ele><time>2026-05-03T07:24:04Z</time></trkpt><trkpt lat="42.43106688935533" lon="18.75794618634145"><ele>2.0</ele><time>2026-05-03T07:24:05Z</time></trkpt><trkpt lat="42.43099642628255" lon="18.75797005059602"><ele>2.0</ele><time>2026-05-03T07:24:06Z</time></trkpt><trkpt lat="42.43092610568414" lon="18.75800389945378"><ele>3.0</ele><time>2026-05-03T07:24:07Z</time></trkpt><trkpt lat="42.43082140387148" lon="18.758069761803"><ele>4.0</ele><time>2026-05-03T07:24:09Z</time></trkpt><trkpt lat="42.43073064782646" lon="18.758124095263845"><ele>4.999999999999999</ele><time>2026-05-03T07:24:11Z</time></trkpt><trkpt lat="42.43066441561848" lon="18.758167338774783"><ele>6.0</ele><time>2026-05-03T07:24:13Z</time></trkpt><trkpt lat="42.430580444757986" lon="18.758234478135446"><ele>7.0</ele><time>2026-05-03T07:24:16Z</time></trkpt><trkpt lat="42.430491992562025" lon="18.75829064196682"><ele>7.500000000000001</ele><time>2026-05-03T07:24:18Z</time></trkpt><trkpt lat="42.43036227025532" lon="18.758339394116646"><ele>8.0</ele><time>2026-05-03T07:24:20Z</time></trkpt><trkpt lat="42.43029227819914" lon="18.75836083294387"><ele>8.5</ele><time>2026-05-03T07:24:21Z</time></trkpt><trkpt lat="42.430222853472294" lon="18.758362945467017"><ele>9.0</ele><time>2026-05-03T07:24:22Z</time></trkpt><trkpt lat="42.43014946484333" lon="18.75836037436988"><ele>9.5</ele><time>2026-05-03T07:24:23Z</time></trkpt><trkpt lat="42.43007692312287" lon="18.75835536176286"><ele>10.0</ele><time>2026-05-03T07:24:24Z</time></trkpt><trkpt lat="42.43000058577852" lon="18.75835005252896"><ele>10.0</ele><time>2026-05-03T07:24:25Z</time></trkpt><trkpt lat="42.429925224222536" lon="18.75835019039094"><ele>10.0</ele><time>2026-05-03T07:24:26Z</time></trkpt><trkpt lat="42.42984993007979" lon="18.75835043522569"><ele>10.0</ele><time>2026-05-03T07:24:27Z</time></trkpt><trkpt lat="42.429779122621106" lon="18.75834884656247"><ele>10.0</ele><time>2026-05-03T07:24:28Z</time></trkpt><trkpt lat="42.42970416325435" lon="18.75834718125823"><ele>10.0</ele><time>2026-05-03T07:24:29Z</time></trkpt><trkpt lat="42.42962917769736" lon="18.75834598867671"><ele>10.0</ele><time>2026-05-03T07:24:30Z</time></trkpt><trkpt lat="42.42954985143633" lon="18.758340329157193"><ele>10.666666666666668</ele><time>2026-05-03T07:24:31Z</time></trkpt><trkpt lat="42.42946635842279" lon="18.758337232172313"><ele>11.333333333333334</ele><time>2026-05-03T07:24:32Z</time></trkpt><trkpt lat="42.42937581988974" lon="18.75833949105413"><ele>12.0</ele><time>2026-05-03T07:24:33Z</time></trkpt><trkpt lat="42.42929318539373" lon="18.758343320752065"><ele>12.666666666666668</ele><time>2026-05-03T07:24:34Z</time></trkpt><trkpt lat="42.42921325353006" lon="18.75833892383794"><ele>13.333333333333334</ele><time>2026-05-03T07:24:35Z</time></trkpt><trkpt lat="42.42912867813773" lon="18.758336997802218"><ele>14.0</ele><time>2026-05-03T07:24:36Z</time></trkpt><trkpt lat="42.429046477204174" lon="18.758335054020296"><ele>14.0</ele><time>2026-05-03T07:24:37Z</time></trkpt><trkpt lat="42.428958798839915" lon="18.758335309443417"><ele>13.999999999999998</ele><time>2026-05-03T07:24:38Z</time></trkpt><trkpt lat="42.42886682674446" lon="18.758345191830557"><ele>13.999999999999998</ele><time>2026-05-03T07:24:39Z</time></trkpt><trkpt lat="42.4287715539091" lon="18.758354218779413"><ele>14.0</ele><time>2026-05-03T07:24:40Z</time></trkpt><trkpt lat="42.42868040163799" lon="18.75837468136266"><ele>14.0</ele><time>2026-05-03T07:24:41Z</time></trkpt><trkpt lat="42.42858895529813" lon="18.758406318763264"><ele>13.6</ele><time>2026-05-03T07:24:42Z</time></trkpt><trkpt lat="42.42849505846044" lon="18.7584371335411"><ele>13.2</ele><time>2026-05-03T07:24:43Z</time></trkpt><trkpt lat="42.42840323903487" lon="18.758473496252584"><ele>12.799999999999999</ele><time>2026-05-03T07:24:44Z</time></trkpt><trkpt lat="42.42831304352447" lon="18.758516223918253"><ele>12.399999999999999</ele><time>2026-05-03T07:24:45Z</time></trkpt><trkpt lat="42.42821922775666" lon="18.758555470127206"><ele>12.0</ele><time>2026-05-03T07:24:46Z</time></trkpt><trkpt lat="42.42812711235869" lon="18.75859237506473"><ele>10.333333333333334</ele><time>2026-05-03T07:24:47Z</time></trkpt><trkpt lat="42.42803828840943" lon="18.758626663761756"><ele>8.666666666666666</ele><time>2026-05-03T07:24:48Z</time></trkpt><trkpt lat="42.42795497336154" lon="18.758654262867715"><ele>7.0</ele><time>2026-05-03T07:24:49Z</time></trkpt><trkpt lat="42.42787792250384" lon="18.758680530806494"><ele>5.333333333333333</ele><time>2026-05-03T07:24:50Z</time></trkpt><trkpt lat="42.42781230829196" lon="18.75870470031115"><ele>3.6666666666666665</ele><time>2026-05-03T07:24:51Z</time></trkpt><trkpt lat="42.42770948612824" lon="18.758743518049084"><ele>2.0</ele><time>2026-05-03T07:24:53Z</time></trkpt><trkpt lat="42.427604428521164" lon="18.75877387460326"><ele>1.9999999999999998</ele><time>2026-05-03T07:24:55Z</time></trkpt><trkpt lat="42.42754129048585" lon="18.758788331495932"><ele>2.0</ele><time>2026-05-03T07:24:56Z</time></trkpt><trkpt lat="42.42746781496093" lon="18.758798116791173"><ele>2.0</ele><time>2026-05-03T07:24:57Z</time></trkpt><trkpt lat="42.427386614047094" lon="18.75881443770708"><ele>2.0</ele><time>2026-05-03T07:24:58Z</time></trkpt><trkpt lat="42.427294726246636" lon="18.75883397051923"><ele>1.9999999999999998</ele><time>2026-05-03T07:24:59Z</time></trkpt><trkpt lat="42.42719260517857" lon="18.758845321343053"><ele>2.0</ele><time>2026-05-03T07:25:00Z</time></trkpt><trkpt lat="42.42709352820285" lon="18.75885124691428"><ele>1.8333333333333333</ele><time>2026-05-03T07:25:01Z</time></trkpt><trkpt lat="42.42699398541662" lon="18.75885989082445"><ele>1.6666666666666665</ele><time>2026-05-03T07:25:02Z</time></trkpt><trkpt lat="42.42689411296789" lon="18.758874416065638"><ele>1.5</ele><time>2026-05-03T07:25:03Z</time></trkpt><trkpt lat="42.42679857316581" lon="18.75888423874681"><ele>1.3333333333333333</ele><time>2026-05-03T07:25:04Z</time></trkpt><trkpt lat="42.426719141323844" lon="18.758889447579424"><ele>1.1666666666666665</ele><time>2026-05-03T07:25:05Z</time></trkpt><trkpt lat="42.426647219395186" lon="18.758903666505958"><ele>1.0</ele><time>2026-05-03T07:25:07Z</time></trkpt><trkpt lat="42.426565877152576" lon="18.758921800560394"><ele>1.0</ele><time>2026-05-03T07:25:10Z</time></trkpt><trkpt lat="42.42648084163999" lon="18.7589394422149"><ele>1.0</ele><time>2026-05-03T07:25:12Z</time></trkpt><trkpt lat="42.42641176170336" lon="18.758949895787193"><ele>1.0</ele><time>2026-05-03T07:25:13Z</time></trkpt><trkpt lat="42.42631610230888" lon="18.758969540892505"><ele>1.0</ele><time>2026-05-03T07:25:14Z</time></trkpt><trkpt lat="42.426201008606164" lon="18.75898620153372"><ele>1.0</ele><time>2026-05-03T07:25:15Z</time></trkpt><trkpt lat="42.42608189143287" lon="18.759014800952855"><ele>2.75</ele><time>2026-05-03T07:25:16Z</time></trkpt><trkpt lat="42.42596074024482" lon="18.75904971431465"><ele>4.5</ele><time>2026-05-03T07:25:17Z</time></trkpt><trkpt lat="42.42583885433603" lon="18.759099996888732"><ele>6.25</ele><time>2026-05-03T07:25:18Z</time></trkpt><trkpt lat="42.42572399151105" lon="18.759170306344828"><ele>8.0</ele><time>2026-05-03T07:25:19Z</time></trkpt><trkpt lat="42.42561820327347" lon="18.75925830763586"><ele>8.0</ele><time>2026-05-03T07:25:20Z</time></trkpt><trkpt lat="42.425526313197786" lon="18.759348956145093"><ele>8.0</ele><time>2026-05-03T07:25:21Z</time></trkpt><trkpt lat="42.42541795866198" lon="18.759459486595066"><ele>8.0</ele><time>2026-05-03T07:25:22Z</time></trkpt><trkpt lat="42.42531931689027" lon="18.759589398053016"><ele>8.0</ele><time>2026-05-03T07:25:23Z</time></trkpt><trkpt lat="42.42524783228446" lon="18.759711895588183"><ele>7.333333333333333</ele><time>2026-05-03T07:25:24Z</time></trkpt><trkpt lat="42.42519663553416" lon="18.759791562855618"><ele>6.666666666666666</ele><time>2026-05-03T07:25:25Z</time></trkpt><trkpt lat="42.42514950661862" lon="18.75986154808455"><ele>6.0</ele><time>2026-05-03T07:25:26Z</time></trkpt><trkpt lat="42.425064342970884" lon="18.759982574133783"><ele>5.333333333333333</ele><time>2026-05-03T07:25:28Z</time></trkpt><trkpt lat="42.425019263599445" lon="18.760044974408448"><ele>4.666666666666666</ele><time>2026-05-03T07:25:29Z</time></trkpt><trkpt lat="42.424969558293974" lon="18.76010054169387"><ele>4.0</ele><time>2026-05-03T07:25:30Z</time></trkpt><trkpt lat="42.42491423215348" lon="18.76014501753992"><ele>3.9999999999999996</ele><time>2026-05-03T07:25:31Z</time></trkpt><trkpt lat="42.42485838920859" lon="18.760185513763734"><ele>4.0</ele><time>2026-05-03T07:25:32Z</time></trkpt><trkpt lat="42.424746917702606" lon="18.760254701853295"><ele>4.0</ele><time>2026-05-03T07:25:34Z</time></trkpt><trkpt lat="42.42467839713764" lon="18.760294254154918"><ele>4.0</ele><time>2026-05-03T07:25:35Z</time></trkpt><trkpt lat="42.424601687713434" lon="18.760323961184987"><ele>3.9999999999999996</ele><time>2026-05-03T07:25:36Z</time></trkpt><trkpt lat="42.4245215999168" lon="18.760345332185974"><ele>4.0</ele><time>2026-05-03T07:25:37Z</time></trkpt><trkpt lat="42.42444161354105" lon="18.760362771410104"><ele>3.9999999999999996</ele><time>2026-05-03T07:25:38Z</time></trkpt><trkpt lat="42.42435019020786" lon="18.760364397366654"><ele>4.0</ele><time>2026-05-03T07:25:39Z</time></trkpt><trkpt lat="42.42427395593574" lon="18.760367043516815"><ele>4.0</ele><time>2026-05-03T07:25:40Z</time></trkpt><trkpt lat="42.42419874336977" lon="18.760373963841406"><ele>4.0</ele><time>2026-05-03T07:25:41Z</time></trkpt><trkpt lat="42.424128425889606" lon="18.760400312478183"><ele>3.9999999999999996</ele><time>2026-05-03T07:25:42Z</time></trkpt><trkpt lat="42.424050225749035" lon="18.760431998536944"><ele>4.0</ele><time>2026-05-03T07:25:43Z</time></trkpt><trkpt lat="42.42397267144069" lon="18.760487530773656"><ele>4.0</ele><time>2026-05-03T07:25:44Z</time></trkpt><trkpt lat="42.4238949799384" lon="18.760568207212014"><ele>4.0</ele><time>2026-05-03T07:25:45Z</time></trkpt><trkpt lat="42.423818251305974" lon="18.76066345059323"><ele>4.0</ele><time>2026-05-03T07:25:46Z</time></trkpt><trkpt lat="42.42374395667928" lon="18.760763912595344"><ele>4.0</ele><time>2026-05-03T07:25:47Z</time></trkpt><trkpt lat="42.42365990358779" lon="18.760887187557678"><ele>4.0</ele><time>2026-05-03T07:25:48Z</time></trkpt><trkpt lat="42.42357597100868" lon="18.761023740416686"><ele>4.0</ele><time>2026-05-03T07:25:49Z</time></trkpt><trkpt lat="42.42348542605667" lon="18.761149422703696"><ele>4.0</ele><time>2026-05-03T07:25:50Z</time></trkpt><trkpt lat="42.423384677552605" lon="18.76127475128968"><ele>4.0</ele><time>2026-05-03T07:25:51Z</time></trkpt><trkpt lat="42.423283608380004" lon="18.761402139694685"><ele>4.0</ele><time>2026-05-03T07:25:52Z</time></trkpt><trkpt lat="42.423186484038254" lon="18.761523742995777"><ele>4.0</ele><time>2026-05-03T07:25:53Z</time></trkpt><trkpt lat="42.42309161910557" lon="18.761628391238993"><ele>4.0</ele><time>2026-05-03T07:25:54Z</time></trkpt><trkpt lat="42.42299815451946" lon="18.76171473722877"><ele>4.0</ele><time>2026-05-03T07:25:55Z</time></trkpt><trkpt lat="42.422903744623035" lon="18.7617659088424"><ele>4.0</ele><time>2026-05-03T07:25:56Z</time></trkpt><trkpt lat="42.422810020431115" lon="18.76178805279091"><ele>4.0</ele><time>2026-05-03T07:25:57Z</time></trkpt><trkpt lat="42.42271834395038" lon="18.76178078662477"><ele>4.0</ele><time>2026-05-03T07:25:58Z</time></trkpt><trkpt lat="42.422613937028636" lon="18.7617922271077"><ele>4.0</ele><time>2026-05-03T07:25:59Z</time></trkpt><trkpt lat="42.4225090448247" lon="18.761818535373447"><ele>4.0</ele><time>2026-05-03T07:26:00Z</time></trkpt><trkpt lat="42.42240236646913" lon="18.76184664777653"><ele>4.0</ele><time>2026-05-03T07:26:01Z</time></trkpt><trkpt lat="42.422299833196696" lon="18.76188652880671"><ele>4.0</ele><time>2026-05-03T07:26:02Z</time></trkpt><trkpt lat="42.42220694068589" lon="18.761948794074634"><ele>4.0</ele><time>2026-05-03T07:26:03Z</time></trkpt><trkpt lat="42.42212626874467" lon="18.76202208285935"><ele>4.0</ele><time>2026-05-03T07:26:04Z</time></trkpt><trkpt lat="42.422052479689846" lon="18.762102060117456"><ele>4.0</ele><time>2026-05-03T07:26:05Z</time></trkpt><trkpt lat="42.42199401989733" lon="18.76220175579518"><ele>4.0</ele><time>2026-05-03T07:26:06Z</time></trkpt><trkpt lat="42.421950838320654" lon="18.762326328070746"><ele>4.0</ele><time>2026-05-03T07:26:07Z</time></trkpt><trkpt lat="42.42190186056586" lon="18.762460503054577"><ele>4.0</ele><time>2026-05-03T07:26:08Z</time></trkpt><trkpt lat="42.421853555524386" lon="18.762591313949663"><ele>4.0</ele><time>2026-05-03T07:26:09Z</time></trkpt><trkpt lat="42.42180316032525" lon="18.76271287996848"><ele>4.0</ele><time>2026-05-03T07:26:10Z</time></trkpt><trkpt lat="42.4217515592667" lon="18.76283534610525"><ele>4.0</ele><time>2026-05-03T07:26:11Z</time></trkpt><trkpt lat="42.42170543312547" lon="18.76296657148755"><ele>4.0</ele><time>2026-05-03T07:26:12Z</time></trkpt><trkpt lat="42.42166393173066" lon="18.763083712574986"><ele>4.2</ele><time>2026-05-03T07:26:13Z</time></trkpt><trkpt lat="42.421621429940906" lon="18.76319699613451"><ele>4.4</ele><time>2026-05-03T07:26:14Z</time></trkpt><trkpt lat="42.421579528136306" lon="18.763319152054496"><ele>4.6</ele><time>2026-05-03T07:26:15Z</time></trkpt><trkpt lat="42.42154390700553" lon="18.76343408555729"><ele>4.8</ele><time>2026-05-03T07:26:16Z</time></trkpt><trkpt lat="42.421504307825515" lon="18.76356977803892"><ele>5.0</ele><time>2026-05-03T07:26:17Z</time></trkpt><trkpt lat="42.421476379451846" lon="18.76371066524599"><ele>4.6</ele><time>2026-05-03T07:26:18Z</time></trkpt><trkpt lat="42.421460221284676" lon="18.763854914032883"><ele>4.2</ele><time>2026-05-03T07:26:19Z</time></trkpt><trkpt lat="42.421449411813434" lon="18.76399038303173"><ele>3.8</ele><time>2026-05-03T07:26:20Z</time></trkpt><trkpt lat="42.42144307228028" lon="18.764129622901837"><ele>3.4</ele><time>2026-05-03T07:26:21Z</time></trkpt><trkpt lat="42.42142913327205" lon="18.764267352027996"><ele>3.0</ele><time>2026-05-03T07:26:22Z</time></trkpt><trkpt lat="42.42141337111486" lon="18.764411482243155"><ele>2.8</ele><time>2026-05-03T07:26:23Z</time></trkpt><trkpt lat="42.42141278820357" lon="18.764546456283895"><ele>2.5999999999999996</ele><time>2026-05-03T07:26:24Z</time></trkpt><trkpt lat="42.421409451067056" lon="18.764688855867135"><ele>2.4000000000000004</ele><time>2026-05-03T07:26:25Z</time></trkpt><trkpt lat="42.421388694159326" lon="18.764832436060185"><ele>2.2</ele><time>2026-05-03T07:26:26Z</time></trkpt><trkpt lat="42.42138105552511" lon="18.764975254626926"><ele>2.0</ele><time>2026-05-03T07:26:27Z</time></trkpt><trkpt lat="42.42138453673851" lon="18.765128530836407"><ele>2.0</ele><time>2026-05-03T07:26:28Z</time></trkpt><trkpt lat="42.42138428090959" lon="18.76528988730163"><ele>2.0</ele><time>2026-05-03T07:26:29Z</time></trkpt><trkpt lat="42.4213964863552" lon="18.76544352169029"><ele>2.0</ele><time>2026-05-03T07:26:30Z</time></trkpt><trkpt lat="42.421400935439266" lon="18.765593418972628"><ele>2.0</ele><time>2026-05-03T07:26:31Z</time></trkpt><trkpt lat="42.42140745134999" lon="18.76573321816375"><ele>2.0</ele><time>2026-05-03T07:26:32Z</time></trkpt><trkpt lat="42.42141578185643" lon="18.765903566311508"><ele>2.1666666666666665</ele><time>2026-05-03T07:26:33Z</time></trkpt><trkpt lat="42.42142797118234" lon="18.76604611835482"><ele>2.333333333333333</ele><time>2026-05-03T07:26:34Z</time></trkpt><trkpt lat="42.42143066165058" lon="18.76614444445596"><ele>2.5</ele><time>2026-05-03T07:26:35Z</time></trkpt><trkpt lat="42.42143655766448" lon="18.76626942478915"><ele>2.6666666666666665</ele><time>2026-05-03T07:26:37Z</time></trkpt><trkpt lat="42.42144195200767" lon="18.76637408431582"><ele>2.8333333333333335</ele><time>2026-05-03T07:26:40Z</time></trkpt><trkpt lat="42.42145391116232" lon="18.766460565413492"><ele>3.0</ele><time>2026-05-03T07:26:43Z</time></trkpt><trkpt lat="42.421471592839794" lon="18.766597123021228"><ele>3.0</ele><time>2026-05-03T07:26:45Z</time></trkpt><trkpt lat="42.421478139786444" lon="18.76669151359037"><ele>3.0</ele><time>2026-05-03T07:26:46Z</time></trkpt><trkpt lat="42.421484014100635" lon="18.766803948289468"><ele>3.0</ele><time>2026-05-03T07:26:47Z</time></trkpt><trkpt lat="42.4214913611809" lon="18.766931939384392"><ele>3.0</ele><time>2026-05-03T07:26:48Z</time></trkpt><trkpt lat="42.421501878917596" lon="18.76708032993062"><ele>3.0</ele><time>2026-05-03T07:26:49Z</time></trkpt><trkpt lat="42.42151042542476" lon="18.767258626683187"><ele>4.0</ele><time>2026-05-03T07:26:50Z</time></trkpt><trkpt lat="42.42152224449923" lon="18.76745702205209"><ele>5.0</ele><time>2026-05-03T07:26:51Z</time></trkpt><trkpt lat="42.42153519962381" lon="18.767654881669934"><ele>6.0</ele><time>2026-05-03T07:26:52Z</time></trkpt><trkpt lat="42.42154452563132" lon="18.767850235034004"><ele>7.0</ele><time>2026-05-03T07:26:53Z</time></trkpt><trkpt lat="42.421549717297175" lon="18.768039711212733"><ele>7.0</ele><time>2026-05-03T07:26:54Z</time></trkpt><trkpt lat="42.42155002742705" lon="18.768212506667247"><ele>7.0</ele><time>2026-05-03T07:26:55Z</time></trkpt><trkpt lat="42.42155234384697" lon="18.768370979926388"><ele>7.0</ele><time>2026-05-03T07:26:56Z</time></trkpt><trkpt lat="42.421560379967" lon="18.768518339218023"><ele>7.0</ele><time>2026-05-03T07:26:57Z</time></trkpt><trkpt lat="42.42157745667467" lon="18.768664552752696"><ele>6.3999999999999995</ele><time>2026-05-03T07:26:58Z</time></trkpt><trkpt lat="42.421576632032576" lon="18.768795752272364"><ele>5.799999999999999</ele><time>2026-05-03T07:26:59Z</time></trkpt><trkpt lat="42.421581819356305" lon="18.768926382139114"><ele>5.2</ele><time>2026-05-03T07:27:00Z</time></trkpt><trkpt lat="42.421591005974044" lon="18.769051390825354"><ele>4.6</ele><time>2026-05-03T07:27:01Z</time></trkpt><trkpt lat="42.42159745367633" lon="18.769172289932204"><ele>4.0</ele><time>2026-05-03T07:27:02Z</time></trkpt><trkpt lat="42.421601961485514" lon="18.769294436308712"><ele>4.166666666666666</ele><time>2026-05-03T07:27:03Z</time></trkpt><trkpt lat="42.42160591978978" lon="18.769397126831258"><ele>4.333333333333333</ele><time>2026-05-03T07:27:04Z</time></trkpt><trkpt lat="42.42160723811023" lon="18.769500270038638"><ele>4.5</ele><time>2026-05-03T07:27:05Z</time></trkpt><trkpt lat="42.421605194837376" lon="18.769591306883367"><ele>4.666666666666667</ele><time>2026-05-03T07:27:06Z</time></trkpt><trkpt lat="42.421603985050766" lon="18.769741219484658"><ele>4.833333333333334</ele><time>2026-05-03T07:27:08Z</time></trkpt><trkpt lat="42.421591109859975" lon="18.769851888023407"><ele>5.0</ele><time>2026-05-03T07:27:10Z</time></trkpt><trkpt lat="42.42153493647863" lon="18.76995774925255"><ele>5.0</ele><time>2026-05-03T07:27:12Z</time></trkpt><trkpt lat="42.42141357931659" lon="18.77002348072564"><ele>5.0</ele><time>2026-05-03T07:27:14Z</time></trkpt><trkpt lat="42.42132211726778" lon="18.77000438998958"><ele>5.0</ele><time>2026-05-03T07:27:15Z</time></trkpt><trkpt lat="42.42124057071947" lon="18.770017378857343"><ele>5.0</ele><time>2026-05-03T07:27:16Z</time></trkpt><trkpt lat="42.42115887281481" lon="18.77001767587133"><ele>5.0</ele><time>2026-05-03T07:27:17Z</time></trkpt><trkpt lat="42.42107705661077" lon="18.770016527898658"><ele>5.833333333333334</ele><time>2026-05-03T07:27:18Z</time></trkpt><trkpt lat="42.42099435816314" lon="18.769999588700678"><ele>6.666666666666667</ele><time>2026-05-03T07:27:19Z</time></trkpt><trkpt lat="42.420918118280404" lon="18.769974266073127"><ele>7.5</ele><time>2026-05-03T07:27:20Z</time></trkpt><trkpt lat="42.42083718961973" lon="18.769956490488"><ele>8.333333333333334</ele><time>2026-05-03T07:27:21Z</time></trkpt><trkpt lat="42.42075578200024" lon="18.769935220635904"><ele>9.166666666666668</ele><time>2026-05-03T07:27:22Z</time></trkpt><trkpt lat="42.42068146328653" lon="18.76991894592652"><ele>10.0</ele><time>2026-05-03T07:27:23Z</time></trkpt><trkpt lat="42.42060937269477" lon="18.769902901438986"><ele>10.0</ele><time>2026-05-03T07:27:24Z</time></trkpt><trkpt lat="42.42054085211825" lon="18.76988362549519"><ele>10.0</ele><time>2026-05-03T07:27:25Z</time></trkpt><trkpt lat="42.42046953114682" lon="18.769862569527668"><ele>10.0</ele><time>2026-05-03T07:27:26Z</time></trkpt><trkpt lat="42.42039548631859" lon="18.769844708782394"><ele>10.0</ele><time>2026-05-03T07:27:27Z</time></trkpt><trkpt lat="42.420317386504415" lon="18.769823539377253"><ele>10.0</ele><time>2026-05-03T07:27:28Z</time></trkpt><trkpt lat="42.42024714930123" lon="18.76980232420791"><ele>10.0</ele><time>2026-05-03T07:27:29Z</time></trkpt><trkpt lat="42.42018013293273" lon="18.76978269222189"><ele>10.0</ele><time>2026-05-03T07:27:30Z</time></trkpt><trkpt lat="42.42011392548759" lon="18.76976168194309"><ele>9.714285714285714</ele><time>2026-05-03T07:27:31Z</time></trkpt><trkpt lat="42.420048795430894" lon="18.769733847468512"><ele>9.428571428571429</ele><time>2026-05-03T07:27:32Z</time></trkpt><trkpt lat="42.419988214111875" lon="18.76970019266873"><ele>9.142857142857142</ele><time>2026-05-03T07:27:33Z</time></trkpt><trkpt lat="42.41992805586208" lon="18.769658878366066"><ele>8.857142857142858</ele><time>2026-05-03T07:27:34Z</time></trkpt><trkpt lat="42.41986665714307" lon="18.769609093423107"><ele>8.571428571428571</ele><time>2026-05-03T07:27:35Z</time></trkpt><trkpt lat="42.419805686418805" lon="18.769565154910627"><ele>8.285714285714285</ele><time>2026-05-03T07:27:36Z</time></trkpt><trkpt lat="42.419740492146786" lon="18.769518055530853"><ele>8.0</ele><time>2026-05-03T07:27:37Z</time></trkpt><trkpt lat="42.41967272576812" lon="18.769455312836115"><ele>8.333333333333332</ele><time>2026-05-03T07:27:38Z</time></trkpt><trkpt lat="42.41960698148617" lon="18.76939429725373"><ele>8.666666666666666</ele><time>2026-05-03T07:27:39Z</time></trkpt><trkpt lat="42.419525802364035" lon="18.76931896354051"><ele>9.0</ele><time>2026-05-03T07:27:41Z</time></trkpt><trkpt lat="42.41947718195676" lon="18.769259321632493"><ele>9.333333333333334</ele><time>2026-05-03T07:27:43Z</time></trkpt><trkpt lat="42.41940941177104" lon="18.7691779897817"><ele>9.666666666666668</ele><time>2026-05-03T07:27:45Z</time></trkpt><trkpt lat="42.41935747680507" lon="18.769128840183303"><ele>10.0</ele><time>2026-05-03T07:27:46Z</time></trkpt><trkpt lat="42.4192859706139" lon="18.769064493802617"><ele>10.25</ele><time>2026-05-03T07:27:47Z</time></trkpt><trkpt lat="42.419197419395296" lon="18.768987664555493"><ele>10.5</ele><time>2026-05-03T07:27:48Z</time></trkpt><trkpt lat="42.419088054287045" lon="18.76888475844994"><ele>10.75</ele><time>2026-05-03T07:27:49Z</time></trkpt><trkpt lat="42.418969485085995" lon="18.768777516228887"><ele>11.0</ele><time>2026-05-03T07:27:50Z</time></trkpt><trkpt lat="42.41886770212126" lon="18.76868431416222"><ele>11.200000000000001</ele><time>2026-05-03T07:27:51Z</time></trkpt><trkpt lat="42.4187727088507" lon="18.768595803395364"><ele>11.4</ele><time>2026-05-03T07:27:52Z</time></trkpt><trkpt lat="42.41868855199269" lon="18.768512073682874"><ele>11.6</ele><time>2026-05-03T07:27:53Z</time></trkpt><trkpt lat="42.41861033277249" lon="18.768443732895545"><ele>11.8</ele><time>2026-05-03T07:27:54Z</time></trkpt><trkpt lat="42.41853768006236" lon="18.768379607810267"><ele>12.0</ele><time>2026-05-03T07:27:55Z</time></trkpt><trkpt lat="42.41846881603886" lon="18.768308981225292"><ele>12.166666666666666</ele><time>2026-05-03T07:27:56Z</time></trkpt><trkpt lat="42.41840478577372" lon="18.768246281370182"><ele>12.333333333333332</ele><time>2026-05-03T07:27:57Z</time></trkpt><trkpt lat="42.41834801281257" lon="18.768189644130597"><ele>12.5</ele><time>2026-05-03T07:27:58Z</time></trkpt><trkpt lat="42.41828964968368" lon="18.768132824038197"><ele>12.666666666666666</ele><time>2026-05-03T07:27:59Z</time></trkpt><trkpt lat="42.41822361810401" lon="18.768077385245537"><ele>12.833333333333332</ele><time>2026-05-03T07:28:00Z</time></trkpt><trkpt lat="42.41815900629398" lon="18.768016370590555"><ele>13.0</ele><time>2026-05-03T07:28:01Z</time></trkpt><trkpt lat="42.41808958956708" lon="18.767954847978395"><ele>13.0</ele><time>2026-05-03T07:28:02Z</time></trkpt><trkpt lat="42.41801456634931" lon="18.767881911779877"><ele>13.0</ele><time>2026-05-03T07:28:03Z</time></trkpt><trkpt lat="42.417940260741226" lon="18.76780671569013"><ele>13.0</ele><time>2026-05-03T07:28:04Z</time></trkpt><trkpt lat="42.4178659670684" lon="18.767728584907978"><ele>13.0</ele><time>2026-05-03T07:28:05Z</time></trkpt><trkpt lat="42.4178018416026" lon="18.767637001574517"><ele>13.0</ele><time>2026-05-03T07:28:06Z</time></trkpt><trkpt lat="42.41775588316824" lon="18.767531086906256"><ele>13.999999999999998</ele><time>2026-05-03T07:28:07Z</time></trkpt><trkpt lat="42.417718891731916" lon="18.767425317556526"><ele>15.0</ele><time>2026-05-03T07:28:08Z</time></trkpt><trkpt lat="42.41769087960128" lon="18.767325799709976"><ele>16.0</ele><time>2026-05-03T07:28:09Z</time></trkpt><trkpt lat="42.41767047418142" lon="18.767222808456285"><ele>17.0</ele><time>2026-05-03T07:28:10Z</time></trkpt><trkpt lat="42.41766052252451" lon="18.76711448191592"><ele>18.0</ele><time>2026-05-03T07:28:11Z</time></trkpt><trkpt lat="42.41765530142819" lon="18.76701030973849"><ele>19.0</ele><time>2026-05-03T07:28:12Z</time></trkpt><trkpt lat="42.417660208512366" lon="18.766898151853663"><ele>19.333333333333332</ele><time>2026-05-03T07:28:13Z</time></trkpt><trkpt lat="42.41767067236852" lon="18.766791884571237"><ele>19.666666666666664</ele><time>2026-05-03T07:28:14Z</time></trkpt><trkpt lat="42.417665143147744" lon="18.76669352201694"><ele>20.0</ele><time>2026-05-03T07:28:15Z</time></trkpt><trkpt lat="42.417663757959765" lon="18.766603190082257"><ele>20.333333333333332</ele><time>2026-05-03T07:28:16Z</time></trkpt><trkpt lat="42.417665511739294" lon="18.766463113914156"><ele>20.666666666666668</ele><time>2026-05-03T07:28:18Z</time></trkpt><trkpt lat="42.41766999619975" lon="18.766372749625102"><ele>21.0</ele><time>2026-05-03T07:28:21Z</time></trkpt><trkpt lat="42.41768690673556" lon="18.7662801357173"><ele>21.0</ele><time>2026-05-03T07:28:25Z</time></trkpt><trkpt lat="42.41767592106958" lon="18.76616815396199"><ele>21.0</ele><time>2026-05-03T07:28:27Z</time></trkpt><trkpt lat="42.4176397303846" lon="18.766062372342773"><ele>21.0</ele><time>2026-05-03T07:28:29Z</time></trkpt><trkpt lat="42.41759112858725" lon="18.76598677669555"><ele>21.0</ele><time>2026-05-03T07:28:31Z</time></trkpt><trkpt lat="42.417526100737405" lon="18.765948657226577"><ele>21.0</ele><time>2026-05-03T07:28:33Z</time></trkpt><trkpt lat="42.41745562873517" lon="18.7659352944833"><ele>21.0</ele><time>2026-05-03T07:28:35Z</time></trkpt><trkpt lat="42.417360384880936" lon="18.76593617699067"><ele>20.8</ele><time>2026-05-03T07:28:37Z</time></trkpt><trkpt lat="42.41725913756473" lon="18.765936897945252"><ele>20.6</ele><time>2026-05-03T07:28:39Z</time></trkpt><trkpt lat="42.417147033251524" lon="18.765934171287586"><ele>20.4</ele><time>2026-05-03T07:28:41Z</time></trkpt><trkpt lat="42.41703133276584" lon="18.765922004357787"><ele>20.2</ele><time>2026-05-03T07:28:43Z</time></trkpt><trkpt lat="42.41691762773707" lon="18.765912458519857"><ele>20.0</ele><time>2026-05-03T07:28:45Z</time></trkpt><trkpt lat="42.41683942690117" lon="18.765904872152934"><ele>20.833333333333336</ele><time>2026-05-03T07:28:47Z</time></trkpt><trkpt lat="42.4167406630482" lon="18.76589778373444"><ele>21.666666666666668</ele><time>2026-05-03T07:28:51Z</time></trkpt><trkpt lat="42.41667114239274" lon="18.765893035343776"><ele>22.5</ele><time>2026-05-03T07:28:54Z</time></trkpt><trkpt lat="42.41659255699914" lon="18.765879468840748"><ele>23.333333333333336</ele><time>2026-05-03T07:28:57Z</time></trkpt><trkpt lat="42.41650938022665" lon="18.76586715300352"><ele>24.166666666666668</ele><time>2026-05-03T07:28:59Z</time></trkpt><trkpt lat="42.41642411727913" lon="18.76583990488544"><ele>25.0</ele><time>2026-05-03T07:29:04Z</time></trkpt><trkpt lat="42.41632764531518" lon="18.765817941534987"><ele>26.0</ele><time>2026-05-03T07:29:06Z</time></trkpt><trkpt lat="42.416218013892774" lon="18.765783447967163"><ele>27.0</ele><time>2026-05-03T07:29:08Z</time></trkpt><trkpt lat="42.416109620190404" lon="18.76573917953075"><ele>28.0</ele><time>2026-05-03T07:29:10Z</time></trkpt><trkpt lat="42.41599346913378" lon="18.76567965464261"><ele>29.0</ele><time>2026-05-03T07:29:12Z</time></trkpt><trkpt lat="42.41592571725695" lon="18.765638041675885"><ele>30.0</ele><time>2026-05-03T07:29:13Z</time></trkpt><trkpt lat="42.415862189481395" lon="18.765587761550293"><ele>30.0</ele><time>2026-05-03T07:29:14Z</time></trkpt><trkpt lat="42.41579570448123" lon="18.765527966121653"><ele>30.0</ele><time>2026-05-03T07:29:15Z</time></trkpt><trkpt lat="42.415725559671735" lon="18.765471916674517"><ele>30.0</ele><time>2026-05-03T07:29:16Z</time></trkpt><trkpt lat="42.41565588128747" lon="18.765414904029345"><ele>30.0</ele><time>2026-05-03T07:29:17Z</time></trkpt><trkpt lat="42.415585981141106" lon="18.76536224444715"><ele>30.0</ele><time>2026-05-03T07:29:18Z</time></trkpt><trkpt lat="42.41552039350568" lon="18.765312304066462"><ele>30.0</ele><time>2026-05-03T07:29:19Z</time></trkpt><trkpt lat="42.41545666613455" lon="18.76526431782536"><ele>31.142857142857146</ele><time>2026-05-03T07:29:20Z</time></trkpt><trkpt lat="42.4153952387553" lon="18.765212022002324"><ele>32.285714285714285</ele><time>2026-05-03T07:29:21Z</time></trkpt><trkpt lat="42.41533308365835" lon="18.765161224955538"><ele>33.42857142857143</ele><time>2026-05-03T07:29:22Z</time></trkpt><trkpt lat="42.415267738493185" lon="18.765110863723777"><ele>34.57142857142857</ele><time>2026-05-03T07:29:23Z</time></trkpt><trkpt lat="42.41520178134694" lon="18.765061106848513"><ele>35.714285714285715</ele><time>2026-05-03T07:29:24Z</time></trkpt><trkpt lat="42.41514701067142" lon="18.765013224705523"><ele>36.857142857142854</ele><time>2026-05-03T07:29:25Z</time></trkpt><trkpt lat="42.41508018355875" lon="18.764958172769415"><ele>38.0</ele><time>2026-05-03T07:29:26Z</time></trkpt><trkpt lat="42.41500636402961" lon="18.76490203002749"><ele>38.0</ele><time>2026-05-03T07:29:27Z</time></trkpt><trkpt lat="42.414934517472865" lon="18.764849555904917"><ele>38.0</ele><time>2026-05-03T07:29:28Z</time></trkpt><trkpt lat="42.41486660137239" lon="18.764806027274528"><ele>38.0</ele><time>2026-05-03T07:29:29Z</time></trkpt><trkpt lat="42.4148010231571" lon="18.764761178638405"><ele>38.0</ele><time>2026-05-03T07:29:30Z</time></trkpt><trkpt lat="42.41473473770565" lon="18.764721105795367"><ele>38.0</ele><time>2026-05-03T07:29:31Z</time></trkpt><trkpt lat="42.41466620542594" lon="18.764684753511325"><ele>38.0</ele><time>2026-05-03T07:29:32Z</time></trkpt><trkpt lat="42.4146038241551" lon="18.76465763900799"><ele>38.0</ele><time>2026-05-03T07:29:33Z</time></trkpt><trkpt lat="42.41454179688805" lon="18.764628405526015"><ele>39.42857142857142</ele><time>2026-05-03T07:29:34Z</time></trkpt><trkpt lat="42.41447905560449" lon="18.764600984401152"><ele>40.85714285714286</ele><time>2026-05-03T07:29:35Z</time></trkpt><trkpt lat="42.414413688942794" lon="18.764579317863376"><ele>42.285714285714285</ele><time>2026-05-03T07:29:36Z</time></trkpt><trkpt lat="42.414346252707425" lon="18.764564185475294"><ele>43.71428571428571</ele><time>2026-05-03T07:29:37Z</time></trkpt><trkpt lat="42.41427814048039" lon="18.76454385145185"><ele>45.14285714285714</ele><time>2026-05-03T07:29:38Z</time></trkpt><trkpt lat="42.4142054642165" lon="18.764516370099017"><ele>46.57142857142857</ele><time>2026-05-03T07:29:39Z</time></trkpt><trkpt lat="42.41413913097435" lon="18.764495485523234"><ele>48.0</ele><time>2026-05-03T07:29:40Z</time></trkpt><trkpt lat="42.41407320325579" lon="18.764476722477553"><ele>48.0</ele><time>2026-05-03T07:29:41Z</time></trkpt><trkpt lat="42.41400885637503" lon="18.764466981056348"><ele>48.0</ele><time>2026-05-03T07:29:42Z</time></trkpt><trkpt lat="42.413941324609624" lon="18.764456070378124"><ele>48.0</ele><time>2026-05-03T07:29:43Z</time></trkpt><trkpt lat="42.41383539043271" lon="18.764439477401584"><ele>48.0</ele><time>2026-05-03T07:29:45Z</time></trkpt><trkpt lat="42.413740481864046" lon="18.76442846372194"><ele>48.0</ele><time>2026-05-03T07:29:47Z</time></trkpt><trkpt lat="42.41362194878709" lon="18.764410631507594"><ele>50.4</ele><time>2026-05-03T07:29:49Z</time></trkpt><trkpt lat="42.4134947074661" lon="18.76439310284101"><ele>52.8</ele><time>2026-05-03T07:29:51Z</time></trkpt><trkpt lat="42.41341934901114" lon="18.76438274646769"><ele>55.2</ele><time>2026-05-03T07:29:52Z</time></trkpt><trkpt lat="42.41333284021385" lon="18.764364757523374"><ele>57.6</ele><time>2026-05-03T07:29:53Z</time></trkpt><trkpt lat="42.41323751021372" lon="18.764340043852975"><ele>60.0</ele><time>2026-05-03T07:29:54Z</time></trkpt><trkpt lat="42.4131324350764" lon="18.764313407458957"><ele>62.0</ele><time>2026-05-03T07:29:55Z</time></trkpt><trkpt lat="42.41302318989492" lon="18.764283496839358"><ele>64.0</ele><time>2026-05-03T07:29:56Z</time></trkpt><trkpt lat="42.4129185929331" lon="18.764235862400067"><ele>66.0</ele><time>2026-05-03T07:29:57Z</time></trkpt><trkpt lat="42.41281874623766" lon="18.764185380034753"><ele>68.0</ele><time>2026-05-03T07:29:58Z</time></trkpt><trkpt lat="42.412706505129606" lon="18.764126430871602"><ele>70.0</ele><time>2026-05-03T07:29:59.017Z</time></trkpt><trkpt lat="42.412595855212764" lon="18.764069454274775"><ele>75.5</ele><time>2026-05-03T07:30:00.025Z</time></trkpt><trkpt lat="42.412485858877076" lon="18.76400748402145"><ele>81.0</ele><time>2026-05-03T07:30:01.012Z</time></trkpt><trkpt lat="42.412362546233204" lon="18.76394340147133"><ele>86.5</ele><time>2026-05-03T07:30:02.016Z</time></trkpt><trkpt lat="42.41226392677743" lon="18.763882258546825"><ele>92.0</ele><time>2026-05-03T07:30:03.012Z</time></trkpt><trkpt lat="42.41194920029429" lon="18.763530637398237"><ele>102.6</ele><time>2026-05-03T07:30:06.703Z</time></trkpt><trkpt lat="42.41186346660434" lon="18.763436329425723"><ele>113.19999999999999</ele><time>2026-05-03T07:30:07.703Z</time></trkpt><trkpt lat="42.4117676584893" lon="18.763357813540647"><ele>123.8</ele><time>2026-05-03T07:30:08.703Z</time></trkpt><trkpt lat="42.411693595516" lon="18.76324524061049"><ele>134.4</ele><time>2026-05-03T07:30:09.698Z</time></trkpt><trkpt lat="42.411608455697326" lon="18.763149466413758"><ele>145.0</ele><time>2026-05-03T07:30:10.698Z</time></trkpt><trkpt lat="42.41151225309149" lon="18.763070506765402"><ele>145.0</ele><time>2026-05-03T07:30:11.703Z</time></trkpt><trkpt lat="42.41142706005348" lon="18.762974672702242"><ele>145.0</ele><time>2026-05-03T07:30:12.703Z</time></trkpt><trkpt lat="42.41134228212151" lon="18.762879305593902"><ele>145.0</ele><time>2026-05-03T07:30:13.699Z</time></trkpt><trkpt lat="42.41125711445983" lon="18.762783500076704"><ele>145.0</ele><time>2026-05-03T07:30:14.699Z</time></trkpt><trkpt lat="42.4111720381631" lon="18.762687797336383"><ele>145.0</ele><time>2026-05-03T07:30:15.698Z</time></trkpt><trkpt lat="42.41109752270864" lon="18.762574715410285"><ele>164.6</ele><time>2026-05-03T07:30:16.698Z</time></trkpt><trkpt lat="42.41101216312103" lon="18.762478693993728"><ele>184.2</ele><time>2026-05-03T07:30:17.701Z</time></trkpt><trkpt lat="42.41092707465341" lon="18.7623829775634"><ele>203.8</ele><time>2026-05-03T07:30:18.7Z</time></trkpt><trkpt lat="42.41084173601804" lon="18.76228697971188"><ele>223.4</ele><time>2026-05-03T07:30:19.702Z</time></trkpt><trkpt lat="42.410756670276946" lon="18.762191288848165"><ele>243.0</ele><time>2026-05-03T07:30:20.701Z</time></trkpt><trkpt lat="42.4106716879839" lon="18.76209569185415"><ele>243.0</ele><time>2026-05-03T07:30:21.699Z</time></trkpt><trkpt lat="42.4105755781036" lon="18.762016836512046"><ele>243.0</ele><time>2026-05-03T07:30:22.703Z</time></trkpt><trkpt lat="42.41049078748347" lon="18.76192145513072"><ele>243.0</ele><time>2026-05-03T07:30:23.699Z</time></trkpt><trkpt lat="42.41041594768916" lon="18.76180800835279"><ele>243.0</ele><time>2026-05-03T07:30:24.703Z</time></trkpt><trkpt lat="42.410320129190445" lon="18.761729480786187"><ele>243.0</ele><time>2026-05-03T07:30:25.703Z</time></trkpt><trkpt lat="42.41024564404619" lon="18.76161643295424"><ele>263.6</ele><time>2026-05-03T07:30:26.703Z</time></trkpt><trkpt lat="42.410149846152486" lon="18.76153792856789"><ele>284.20000000000005</ele><time>2026-05-03T07:30:27.703Z</time></trkpt><trkpt lat="42.410064691178974" lon="18.761442137323673"><ele>304.8</ele><time>2026-05-03T07:30:28.703Z</time></trkpt><trkpt lat="42.40997981387329" lon="18.76134665842935"><ele>325.40000000000003</ele><time>2026-05-03T07:30:29.7Z</time></trkpt><trkpt lat="42.40990531442707" lon="18.761233594508674"><ele>346.0</ele><time>2026-05-03T07:30:30.7Z</time></trkpt><trkpt lat="42.40980961913481" lon="18.761155205539577"><ele>346.0</ele><time>2026-05-03T07:30:31.698Z</time></trkpt><trkpt lat="42.40972411369384" lon="18.761059020052816"><ele>346.0</ele><time>2026-05-03T07:30:32.703Z</time></trkpt><trkpt lat="42.40965001665524" lon="18.760946408802727"><ele>346.0</ele><time>2026-05-03T07:30:33.698Z</time></trkpt><trkpt lat="42.409564462846525" lon="18.76085016890812"><ele>346.0</ele><time>2026-05-03T07:30:34.703Z</time></trkpt><trkpt lat="42.409479306340366" lon="18.760754375939587"><ele>346.0</ele><time>2026-05-03T07:30:35.703Z</time></trkpt><trkpt lat="42.40939416566849" lon="18.760658600784637"><ele>355.20000000000005</ele><time>2026-05-03T07:30:36.703Z</time></trkpt><trkpt lat="42.40930928283094" lon="18.760563115667004"><ele>364.40000000000003</ele><time>2026-05-03T07:30:37.7Z</time></trkpt><trkpt lat="42.40922386441077" lon="18.760467028069602"><ele>373.6</ele><time>2026-05-03T07:30:38.703Z</time></trkpt><trkpt lat="42.40913871573105" lon="18.76037124390402"><ele>382.8</ele><time>2026-05-03T07:30:39.703Z</time></trkpt><trkpt lat="42.409043007161934" lon="18.760292839999625"><ele>392.0</ele><time>2026-05-03T07:30:40.702Z</time></trkpt><trkpt lat="42.40896846701166" lon="18.76017973029191"><ele>392.8</ele><time>2026-05-03T07:30:41.702Z</time></trkpt><trkpt lat="42.40888326827041" lon="18.760083889809422"><ele>393.6</ele><time>2026-05-03T07:30:42.703Z</time></trkpt><trkpt lat="42.40878745368814" lon="18.760005366652994"><ele>394.40000000000003</ele><time>2026-05-03T07:30:43.703Z</time></trkpt><trkpt lat="42.408712967091546" lon="18.75989231718952"><ele>395.20000000000005</ele><time>2026-05-03T07:30:44.703Z</time></trkpt><trkpt lat="42.40862781322577" lon="18.759796527187763"><ele>396.0</ele><time>2026-05-03T07:30:45.703Z</time></trkpt><trkpt lat="42.40127355449936" lon="18.7515275310378"><ele>311.0</ele><time>2026-05-03T07:31:54Z</time></trkpt><trkpt lat="42.40120602210061" lon="18.75143237081202"><ele>226.0</ele><time>2026-05-03T07:31:55Z</time></trkpt><trkpt lat="42.40113515591901" lon="18.751305691609495"><ele>141.0</ele><time>2026-05-03T07:31:56Z</time></trkpt><trkpt lat="42.40104656152865" lon="18.751195420587266"><ele>56.0</ele><time>2026-05-03T07:31:57Z</time></trkpt><trkpt lat="42.40097778135031" lon="18.75105691914048"><ele>54.833333333333336</ele><time>2026-05-03T07:31:58Z</time></trkpt><trkpt lat="42.400928989972655" lon="18.75099059266553"><ele>53.66666666666667</ele><time>2026-05-03T07:31:59Z</time></trkpt><trkpt lat="42.400865580933115" lon="18.750904395239964"><ele>52.5</ele><time>2026-05-03T07:32:00Z</time></trkpt><trkpt lat="42.40079818805025" lon="18.750824773077603"><ele>51.33333333333333</ele><time>2026-05-03T07:32:02Z</time></trkpt><trkpt lat="42.40082113425194" lon="18.75068787596749"><ele>50.166666666666664</ele><time>2026-05-03T07:32:04Z</time></trkpt><trkpt lat="42.40090677475804" lon="18.75064406375515"><ele>49.0</ele><time>2026-05-03T07:32:06Z</time></trkpt><trkpt lat="42.40097132957195" lon="18.750558875718013"><ele>49.0</ele><time>2026-05-03T07:32:08Z</time></trkpt><trkpt lat="42.40102413178393" lon="18.75048747998647"><ele>49.0</ele><time>2026-05-03T07:32:09Z</time></trkpt><trkpt lat="42.40107903195082" lon="18.750384346399255"><ele>49.0</ele><time>2026-05-03T07:32:10Z</time></trkpt><trkpt lat="42.40114497048337" lon="18.75027304889887"><ele>49.0</ele><time>2026-05-03T07:32:11Z</time></trkpt><trkpt lat="42.40121484150004" lon="18.750179185553993"><ele>49.0</ele><time>2026-05-03T07:32:12Z</time></trkpt><trkpt lat="42.40130725301288" lon="18.750128305356014"><ele>50.800000000000004</ele><time>2026-05-03T07:32:13Z</time></trkpt><trkpt lat="42.40139759228968" lon="18.7500692083491"><ele>52.6</ele><time>2026-05-03T07:32:14Z</time></trkpt><trkpt lat="42.40146478093487" lon="18.74995905114289"><ele>54.4</ele><time>2026-05-03T07:32:15Z</time></trkpt><trkpt lat="42.401527433246976" lon="18.749854764775755"><ele>56.2</ele><time>2026-05-03T07:32:16Z</time></trkpt><trkpt lat="42.40158043182416" lon="18.749764719704604"><ele>58.0</ele><time>2026-05-03T07:32:17Z</time></trkpt><trkpt lat="42.401651699506715" lon="18.749706729252495"><ele>58.0</ele><time>2026-05-03T07:32:18Z</time></trkpt><trkpt lat="42.40173843113319" lon="18.74970426631442"><ele>58.0</ele><time>2026-05-03T07:32:19Z</time></trkpt><trkpt lat="42.401832458421595" lon="18.749631029240724"><ele>58.0</ele><time>2026-05-03T07:32:21Z</time></trkpt><trkpt lat="42.40190910600311" lon="18.749580646282872"><ele>58.0</ele><time>2026-05-03T07:32:23Z</time></trkpt><trkpt lat="42.40201637251081" lon="18.749485912318104"><ele>58.0</ele><time>2026-05-03T07:32:25Z</time></trkpt><trkpt lat="42.40207255444916" lon="18.749436294461177"><ele>57.99999999999999</ele><time>2026-05-03T07:32:26Z</time></trkpt><trkpt lat="42.40212822700763" lon="18.749387126305802"><ele>58.0</ele><time>2026-05-03T07:32:27Z</time></trkpt><trkpt lat="42.402184817024455" lon="18.749337148225415"><ele>58.0</ele><time>2026-05-03T07:32:28Z</time></trkpt><trkpt lat="42.40223460436748" lon="18.749280072279948"><ele>58.0</ele><time>2026-05-03T07:32:29Z</time></trkpt><trkpt lat="42.40230603364156" lon="18.749169132826175"><ele>57.99999999999999</ele><time>2026-05-03T07:32:31Z</time></trkpt><trkpt lat="42.40237782085469" lon="18.749092391641092"><ele>58.0</ele><time>2026-05-03T07:32:33Z</time></trkpt><trkpt lat="42.40245205553265" lon="18.749023759504848"><ele>58.8</ele><time>2026-05-03T07:32:35Z</time></trkpt><trkpt lat="42.402538361502856" lon="18.748996987885405"><ele>59.599999999999994</ele><time>2026-05-03T07:32:37Z</time></trkpt><trkpt lat="42.40263708355869" lon="18.749054949786817"><ele>60.400000000000006</ele><time>2026-05-03T07:32:39Z</time></trkpt><trkpt lat="42.402720733384605" lon="18.749123084119784"><ele>61.2</ele><time>2026-05-03T07:32:41Z</time></trkpt><trkpt lat="42.40281249493796" lon="18.749189489748414"><ele>62.0</ele><time>2026-05-03T07:32:43Z</time></trkpt><trkpt lat="42.4029009403194" lon="18.74923343646422"><ele>63.400000000000006</ele><time>2026-05-03T07:32:45Z</time></trkpt><trkpt lat="42.40299844452638" lon="18.749243947038742"><ele>64.80000000000001</ele><time>2026-05-03T07:32:47Z</time></trkpt><trkpt lat="42.403112161039836" lon="18.749250826875077"><ele>66.2</ele><time>2026-05-03T07:32:49Z</time></trkpt><trkpt lat="42.40322709017392" lon="18.749255727235692"><ele>67.60000000000001</ele><time>2026-05-03T07:32:51Z</time></trkpt><trkpt lat="42.40328989857411" lon="18.74926817533623"><ele>69.0</ele><time>2026-05-03T07:32:52Z</time></trkpt><trkpt lat="42.40341606817828" lon="18.749288119029774"><ele>69.0</ele><time>2026-05-03T07:32:54Z</time></trkpt><trkpt lat="42.40348164081899" lon="18.749302791779744"><ele>69.0</ele><time>2026-05-03T07:32:55Z</time></trkpt><trkpt lat="42.40354939786205" lon="18.74931252630187"><ele>69.0</ele><time>2026-05-03T07:32:56Z</time></trkpt><trkpt lat="42.403623680174775" lon="18.749329569713392"><ele>69.0</ele><time>2026-05-03T07:32:57Z</time></trkpt><trkpt lat="42.403711272660246" lon="18.74934296267215"><ele>69.0</ele><time>2026-05-03T07:32:58Z</time></trkpt><trkpt lat="42.40379684321438" lon="18.74935932598253"><ele>69.0</ele><time>2026-05-03T07:32:59Z</time></trkpt><trkpt lat="42.403872785731544" lon="18.74938614305783"><ele>72.33333333333333</ele><time>2026-05-03T07:33:00Z</time></trkpt><trkpt lat="42.403952483620735" lon="18.749398379988634"><ele>75.66666666666667</ele><time>2026-05-03T07:33:01Z</time></trkpt><trkpt lat="42.40402028365973" lon="18.749386364732075"><ele>79.0</ele><time>2026-05-03T07:33:02Z</time></trkpt><trkpt lat="42.40414342517737" lon="18.749379951739332"><ele>82.33333333333334</ele><time>2026-05-03T07:33:04Z</time></trkpt><trkpt lat="42.404209869156006" lon="18.74938672666195"><ele>85.66666666666667</ele><time>2026-05-03T07:33:05Z</time></trkpt><trkpt lat="42.404273574340536" lon="18.749416773193307"><ele>89.0</ele><time>2026-05-03T07:33:06Z</time></trkpt><trkpt lat="42.40432663441465" lon="18.749467349698264"><ele>89.0</ele><time>2026-05-03T07:33:07Z</time></trkpt><trkpt lat="42.40436677873712" lon="18.749535152080856"><ele>89.0</ele><time>2026-05-03T07:33:09Z</time></trkpt><trkpt lat="42.404419205646946" lon="18.749589763971574"><ele>89.0</ele><time>2026-05-03T07:33:12Z</time></trkpt><trkpt lat="42.40448302369202" lon="18.749616637226698"><ele>89.0</ele><time>2026-05-03T07:33:15Z</time></trkpt><trkpt lat="42.40439804107992" lon="18.749569165460194"><ele>89.0</ele><time>2026-05-03T07:33:28Z</time></trkpt><trkpt lat="42.404174294872504" lon="18.749432178489215"><ele>89.0</ele><time>2026-05-03T07:33:35Z</time></trkpt><trkpt lat="42.404246420105956" lon="18.749405150610002"><ele>89.0</ele><time>2026-05-03T07:34:05Z</time></trkpt><trkpt lat="42.40431370969304" lon="18.749454039592667"><ele>89.0</ele><time>2026-05-03T07:34:09Z</time></trkpt><trkpt lat="42.40438119639443" lon="18.749535943283032"><ele>89.0</ele><time>2026-05-03T07:34:11Z</time></trkpt><trkpt lat="42.404461312664914" lon="18.749572364106598"><ele>89.0</ele><time>2026-05-03T07:34:14Z</time></trkpt><trkpt lat="42.40456435553035" lon="18.749580922561854"><ele>89.0</ele><time>2026-05-03T07:34:30Z</time></trkpt><trkpt lat="42.404649761445036" lon="18.749585638525875"><ele>88.0</ele><time>2026-05-03T07:34:31Z</time></trkpt><trkpt lat="42.40475673036218" lon="18.749611516157742"><ele>87.0</ele><time>2026-05-03T07:34:32Z</time></trkpt><trkpt lat="42.404863481811915" lon="18.74963907840514"><ele>86.0</ele><time>2026-05-03T07:34:33Z</time></trkpt><trkpt lat="42.40495602974635" lon="18.749653542805948"><ele>85.0</ele><time>2026-05-03T07:34:34Z</time></trkpt><trkpt lat="42.40503459789617" lon="18.749655037468838"><ele>84.0</ele><time>2026-05-03T07:34:35Z</time></trkpt><trkpt lat="42.40510515993116" lon="18.74965579952924"><ele>84.0</ele><time>2026-05-03T07:34:36Z</time></trkpt><trkpt lat="42.40518373736048" lon="18.749604505070632"><ele>84.0</ele><time>2026-05-03T07:34:37Z</time></trkpt><trkpt lat="42.40526516529689" lon="18.749513153592545"><ele>84.0</ele><time>2026-05-03T07:34:38Z</time></trkpt><trkpt lat="42.405344618464945" lon="18.749434303101133"><ele>84.0</ele><time>2026-05-03T07:34:39Z</time></trkpt><trkpt lat="42.40542679411521" lon="18.749351925552915"><ele>84.0</ele><time>2026-05-03T07:34:40Z</time></trkpt><trkpt lat="42.40551375136645" lon="18.74926659581672"><ele>84.0</ele><time>2026-05-03T07:34:41Z</time></trkpt><trkpt lat="42.405609883061715" lon="18.74917146283249"><ele>84.0</ele><time>2026-05-03T07:34:42Z</time></trkpt><trkpt lat="42.405711486297506" lon="18.749070466942786"><ele>84.0</ele><time>2026-05-03T07:34:43Z</time></trkpt><trkpt lat="42.4057998900206" lon="18.748998869538784"><ele>84.0</ele><time>2026-05-03T07:34:44Z</time></trkpt><trkpt lat="42.40589410727126" lon="18.74894166975243"><ele>84.0</ele><time>2026-05-03T07:34:45Z</time></trkpt><trkpt lat="42.405981815934275" lon="18.74888842176898"><ele>84.0</ele><time>2026-05-03T07:34:46Z</time></trkpt><trkpt lat="42.40605564515897" lon="18.748853069617304"><ele>84.0</ele><time>2026-05-03T07:34:47Z</time></trkpt><trkpt lat="42.406125491386675" lon="18.748841121298085"><ele>84.0</ele><time>2026-05-03T07:34:48Z</time></trkpt><trkpt lat="42.40621751454107" lon="18.748841435660925"><ele>84.0</ele><time>2026-05-03T07:34:50Z</time></trkpt><trkpt lat="42.40628277291756" lon="18.748806982328816"><ele>84.0</ele><time>2026-05-03T07:34:52Z</time></trkpt><trkpt lat="42.40637827112155" lon="18.74888563101913"><ele>86.33333333333333</ele><time>2026-05-03T07:34:54Z</time></trkpt><trkpt lat="42.40644951447861" lon="18.748906686942178"><ele>88.66666666666666</ele><time>2026-05-03T07:34:55Z</time></trkpt><trkpt lat="42.40651907266915" lon="18.748957008729114"><ele>91.0</ele><time>2026-05-03T07:34:56Z</time></trkpt><trkpt lat="42.40658440369327" lon="18.748994346263192"><ele>93.33333333333333</ele><time>2026-05-03T07:34:57Z</time></trkpt><trkpt lat="42.40666172142837" lon="18.74902167176401"><ele>95.66666666666666</ele><time>2026-05-03T07:34:58Z</time></trkpt><trkpt lat="42.40674394002875" lon="18.74904816207195"><ele>98.0</ele><time>2026-05-03T07:34:59Z</time></trkpt><trkpt lat="42.406808763180756" lon="18.749063733482537"><ele>97.99999999999999</ele><time>2026-05-03T07:35:00Z</time></trkpt><trkpt lat="42.40687857675382" lon="18.74906328839773"><ele>98.0</ele><time>2026-05-03T07:35:01Z</time></trkpt><trkpt lat="42.407008922253866" lon="18.74906096239475"><ele>98.0</ele><time>2026-05-03T07:35:03Z</time></trkpt><trkpt lat="42.407076725683424" lon="18.749031698228585"><ele>98.0</ele><time>2026-05-03T07:35:04Z</time></trkpt><trkpt lat="42.407135553586926" lon="18.748982264048234"><ele>97.99999999999999</ele><time>2026-05-03T07:35:05Z</time></trkpt><trkpt lat="42.40721902819194" lon="18.74893696616376"><ele>98.0</ele><time>2026-05-03T07:35:07Z</time></trkpt><trkpt lat="42.40731803318741" lon="18.748846122805844"><ele>102.66666666666666</ele><time>2026-05-03T07:35:09Z</time></trkpt><trkpt lat="42.407395176737815" lon="18.748784431741417"><ele>107.33333333333334</ele><time>2026-05-03T07:35:10Z</time></trkpt><trkpt lat="42.4076126109431" lon="18.748981979887343"><ele>112.0</ele><time>2026-05-03T07:35:11Z</time></trkpt><trkpt lat="42.40772052339496" lon="18.748976388921143"><ele>112.0</ele><time>2026-05-03T07:35:12Z</time></trkpt><trkpt lat="42.407792900090904" lon="18.748939909380827"><ele>111.99999999999999</ele><time>2026-05-03T07:35:13Z</time></trkpt><trkpt lat="42.40789010138679" lon="18.748862445001166"><ele>111.99999999999999</ele><time>2026-05-03T07:35:15Z</time></trkpt><trkpt lat="42.40798528932482" lon="18.74883748854913"><ele>112.0</ele><time>2026-05-03T07:35:17Z</time></trkpt><trkpt lat="42.4080646758787" lon="18.74891324397167"><ele>112.0</ele><time>2026-05-03T07:35:19Z</time></trkpt><trkpt lat="42.40810574731973" lon="18.74898930299"><ele>112.6</ele><time>2026-05-03T07:35:20Z</time></trkpt><trkpt lat="42.40814576505127" lon="18.749089968527706"><ele>113.19999999999999</ele><time>2026-05-03T07:35:21Z</time></trkpt><trkpt lat="42.408192925111734" lon="18.749196784192115"><ele>113.8</ele><time>2026-05-03T07:35:22Z</time></trkpt><trkpt lat="42.40825629873109" lon="18.749308759938728"><ele>114.4</ele><time>2026-05-03T07:35:23Z</time></trkpt><trkpt lat="42.408318571096785" lon="18.749441362686326"><ele>115.0</ele><time>2026-05-03T07:35:24Z</time></trkpt><trkpt lat="42.408384240504546" lon="18.749552827601384"><ele>117.00000000000001</ele><time>2026-05-03T07:35:25Z</time></trkpt><trkpt lat="42.40843998936079" lon="18.74963230720666"><ele>119.0</ele><time>2026-05-03T07:35:26Z</time></trkpt><trkpt lat="42.40849129351093" lon="18.749710738886115"><ele>121.0</ele><time>2026-05-03T07:35:27Z</time></trkpt><trkpt lat="42.40854225882505" lon="18.749790148395217"><ele>123.0</ele><time>2026-05-03T07:35:28Z</time></trkpt><trkpt lat="42.408601012687406" lon="18.74986594209938"><ele>125.00000000000001</ele><time>2026-05-03T07:35:29Z</time></trkpt><trkpt lat="42.40867368726889" lon="18.74992298503902"><ele>127.0</ele><time>2026-05-03T07:35:30Z</time></trkpt><trkpt lat="42.40872728214179" lon="18.749989593329442"><ele>127.00000000000001</ele><time>2026-05-03T07:35:31Z</time></trkpt><trkpt lat="42.40881352865717" lon="18.750071110469932"><ele>127.0</ele><time>2026-05-03T07:35:32Z</time></trkpt><trkpt lat="42.408886880930645" lon="18.75011453015705"><ele>127.0</ele><time>2026-05-03T07:35:33Z</time></trkpt><trkpt lat="42.40895180908905" lon="18.750135516070408"><ele>127.0</ele><time>2026-05-03T07:35:34Z</time></trkpt><trkpt lat="42.4090358426642" lon="18.75019018922803"><ele>127.00000000000001</ele><time>2026-05-03T07:35:35Z</time></trkpt><trkpt lat="42.40912505372499" lon="18.750214890643274"><ele>127.0</ele><time>2026-05-03T07:35:36Z</time></trkpt><trkpt lat="42.409219567781705" lon="18.750217552537652"><ele>127.8</ele><time>2026-05-03T07:35:37Z</time></trkpt><trkpt lat="42.409321992948996" lon="18.750220319294776"><ele>128.6</ele><time>2026-05-03T07:35:38Z</time></trkpt><trkpt lat="42.40941093337754" lon="18.750241095664784"><ele>129.39999999999998</ele><time>2026-05-03T07:35:39Z</time></trkpt><trkpt lat="42.40948979031007" lon="18.75025766140587"><ele>130.2</ele><time>2026-05-03T07:35:40Z</time></trkpt><trkpt lat="42.409597394909305" lon="18.750218365075565"><ele>131.0</ele><time>2026-05-03T07:35:42Z</time></trkpt><trkpt lat="42.40964483742756" lon="18.750154399958568"><ele>132.83333333333331</ele><time>2026-05-03T07:35:43Z</time></trkpt><trkpt lat="42.409726023660085" lon="18.7500807909533"><ele>134.66666666666666</ele><time>2026-05-03T07:35:45Z</time></trkpt><trkpt lat="42.40982744802005" lon="18.750031805616718"><ele>136.5</ele><time>2026-05-03T07:35:47Z</time></trkpt><trkpt lat="42.409891689131996" lon="18.75002992672085"><ele>138.33333333333334</ele><time>2026-05-03T07:35:48Z</time></trkpt><trkpt lat="42.409971014289965" lon="18.750013139538268"><ele>140.16666666666669</ele><time>2026-05-03T07:35:49Z</time></trkpt><trkpt lat="42.41005474028942" lon="18.749957556304842"><ele>142.0</ele><time>2026-05-03T07:35:50Z</time></trkpt><trkpt lat="42.41014545231156" lon="18.749895518188858"><ele>142.0</ele><time>2026-05-03T07:35:51Z</time></trkpt><trkpt lat="42.410226370389736" lon="18.749853558122627"><ele>142.0</ele><time>2026-05-03T07:35:52Z</time></trkpt><trkpt lat="42.4103260864174" lon="18.74981884591742"><ele>142.0</ele><time>2026-05-03T07:35:54Z</time></trkpt><trkpt lat="42.410392580749715" lon="18.749785933498607"><ele>142.0</ele><time>2026-05-03T07:36:04Z</time></trkpt><trkpt lat="42.41039531916573" lon="18.74987204051543"><ele>142.0</ele><time>2026-05-03T07:36:07Z</time></trkpt><trkpt lat="42.410313672295054" lon="18.74997602963625"><ele>142.0</ele><time>2026-05-03T07:36:09Z</time></trkpt><trkpt lat="42.41021573181214" lon="18.750132494114595"><ele>145.4</ele><time>2026-05-03T07:36:10Z</time></trkpt><trkpt lat="42.41015068075579" lon="18.750247302913337"><ele>148.79999999999998</ele><time>2026-05-03T07:36:11Z</time></trkpt><trkpt lat="42.410082730890124" lon="18.750354460327795"><ele>152.2</ele><time>2026-05-03T07:36:12Z</time></trkpt><trkpt lat="42.41002947613623" lon="18.750446497503837"><ele>155.6</ele><time>2026-05-03T07:36:13Z</time></trkpt><trkpt lat="42.409980018167644" lon="18.750533022891307"><ele>159.0</ele><time>2026-05-03T07:36:14Z</time></trkpt><trkpt lat="42.40992127764251" lon="18.750612124297454"><ele>159.0</ele><time>2026-05-03T07:36:15Z</time></trkpt><trkpt lat="42.40985514939514" lon="18.75068667657762"><ele>159.0</ele><time>2026-05-03T07:36:16Z</time></trkpt><trkpt lat="42.40977170576884" lon="18.750750848040163"><ele>159.0</ele><time>2026-05-03T07:36:17Z</time></trkpt><trkpt lat="42.40968319188242" lon="18.75080832262554"><ele>159.0</ele><time>2026-05-03T07:36:18Z</time></trkpt><trkpt lat="42.409600513043294" lon="18.750855302659367"><ele>159.0</ele><time>2026-05-03T07:36:19Z</time></trkpt><trkpt lat="42.40952907143253" lon="18.750921870468474"><ele>159.8</ele><time>2026-05-03T07:36:20Z</time></trkpt><trkpt lat="42.40947431936534" lon="18.75102278758054"><ele>160.60000000000002</ele><time>2026-05-03T07:36:21Z</time></trkpt><trkpt lat="42.40943660381766" lon="18.75114640876139"><ele>161.4</ele><time>2026-05-03T07:36:22Z</time></trkpt><trkpt lat="42.409400918441776" lon="18.75128556345271"><ele>162.20000000000002</ele><time>2026-05-03T07:36:23Z</time></trkpt><trkpt lat="42.409350271942095" lon="18.751424985457998"><ele>163.0</ele><time>2026-05-03T07:36:24Z</time></trkpt><trkpt lat="42.40927878577568" lon="18.751548312947218"><ele>163.0</ele><time>2026-05-03T07:36:25Z</time></trkpt><trkpt lat="42.40919542371057" lon="18.751660448106392"><ele>163.0</ele><time>2026-05-03T07:36:26Z</time></trkpt><trkpt lat="42.409105528853694" lon="18.7517546483729"><ele>163.0</ele><time>2026-05-03T07:36:27Z</time></trkpt><trkpt lat="42.40901019980465" lon="18.75183916729011"><ele>163.0</ele><time>2026-05-03T07:36:28Z</time></trkpt><trkpt lat="42.40890710025717" lon="18.751905323723964"><ele>166.0</ele><time>2026-05-03T07:36:29Z</time></trkpt><trkpt lat="42.408794838934874" lon="18.75194959973207"><ele>169.0</ele><time>2026-05-03T07:36:30Z</time></trkpt><trkpt lat="42.408689975772084" lon="18.7519837700378"><ele>172.0</ele><time>2026-05-03T07:36:31Z</time></trkpt><trkpt lat="42.40858571424063" lon="18.752009663735024"><ele>175.0</ele><time>2026-05-03T07:36:32Z</time></trkpt><trkpt lat="42.40849078739307" lon="18.752033794460154"><ele>178.0</ele><time>2026-05-03T07:36:33Z</time></trkpt><trkpt lat="42.40839154441044" lon="18.752058575523744"><ele>178.0</ele><time>2026-05-03T07:36:34Z</time></trkpt><trkpt lat="42.40830561909244" lon="18.752091757658913"><ele>178.0</ele><time>2026-05-03T07:36:35Z</time></trkpt><trkpt lat="42.40822142022525" lon="18.75214210985603"><ele>178.0</ele><time>2026-05-03T07:36:36Z</time></trkpt><trkpt lat="42.408130529225204" lon="18.752214239599457"><ele>178.0</ele><time>2026-05-03T07:36:37Z</time></trkpt><trkpt lat="42.408039261159956" lon="18.752298163900846"><ele>178.0</ele><time>2026-05-03T07:36:38Z</time></trkpt><trkpt lat="42.4079274163904" lon="18.752381731361343"><ele>181.0</ele><time>2026-05-03T07:36:39Z</time></trkpt><trkpt lat="42.407820209293824" lon="18.752475306994818"><ele>184.0</ele><time>2026-05-03T07:36:40Z</time></trkpt><trkpt lat="42.4077201037845" lon="18.752567129838656"><ele>187.0</ele><time>2026-05-03T07:36:41Z</time></trkpt><trkpt lat="42.40761680507266" lon="18.752658707690752"><ele>190.0</ele><time>2026-05-03T07:36:42Z</time></trkpt><trkpt lat="42.40751359990962" lon="18.752751155966866"><ele>190.0</ele><time>2026-05-03T07:36:43Z</time></trkpt><trkpt lat="42.407412452422555" lon="18.75285731989021"><ele>190.0</ele><time>2026-05-03T07:36:44Z</time></trkpt><trkpt lat="42.4073147950717" lon="18.7529964518909"><ele>190.0</ele><time>2026-05-03T07:36:45Z</time></trkpt><trkpt lat="42.40721623490123" lon="18.753141637997242"><ele>190.0</ele><time>2026-05-03T07:36:46Z</time></trkpt><trkpt lat="42.40709816772581" lon="18.75327215224159"><ele>190.75</ele><time>2026-05-03T07:36:47Z</time></trkpt><trkpt lat="42.406995505129856" lon="18.75338442859296"><ele>191.5</ele><time>2026-05-03T07:36:48Z</time></trkpt><trkpt lat="42.406898108913246" lon="18.753486165766166"><ele>192.25</ele><time>2026-05-03T07:36:49Z</time></trkpt><trkpt lat="42.40680206584636" lon="18.75359085996348"><ele>193.0</ele><time>2026-05-03T07:36:50Z</time></trkpt><trkpt lat="42.4067098838241" lon="18.753695139003742"><ele>193.0</ele><time>2026-05-03T07:36:51Z</time></trkpt><trkpt lat="42.40661735086052" lon="18.75379312838761"><ele>193.0</ele><time>2026-05-03T07:36:52Z</time></trkpt><trkpt lat="42.40651249757928" lon="18.75386809897443"><ele>193.0</ele><time>2026-05-03T07:36:53Z</time></trkpt><trkpt lat="42.40639972015781" lon="18.753921116441884"><ele>193.0</ele><time>2026-05-03T07:36:54Z</time></trkpt><trkpt lat="42.40628687078108" lon="18.753974843767576"><ele>192.5</ele><time>2026-05-03T07:36:55Z</time></trkpt><trkpt lat="42.40618177070678" lon="18.754047755711202"><ele>192.0</ele><time>2026-05-03T07:36:56Z</time></trkpt><trkpt lat="42.40609274818386" lon="18.75414874790599"><ele>191.5</ele><time>2026-05-03T07:36:57Z</time></trkpt><trkpt lat="42.40601907205731" lon="18.754276184146686"><ele>191.0</ele><time>2026-05-03T07:36:58Z</time></trkpt><trkpt lat="42.405953634613844" lon="18.75442135586142"><ele>191.0</ele><time>2026-05-03T07:36:59Z</time></trkpt><trkpt lat="42.40589961984943" lon="18.75458994519787"><ele>191.0</ele><time>2026-05-03T07:37:00Z</time></trkpt><trkpt lat="42.40583892909007" lon="18.75476836732598"><ele>191.0</ele><time>2026-05-03T07:37:01Z</time></trkpt><trkpt lat="42.4057817943709" lon="18.7549571941375"><ele>191.0</ele><time>2026-05-03T07:37:02Z</time></trkpt><trkpt lat="42.40572872884021" lon="18.755175093645697"><ele>187.0</ele><time>2026-05-03T07:37:03Z</time></trkpt><trkpt lat="42.405657826894135" lon="18.75543041110553"><ele>183.0</ele><time>2026-05-03T07:37:04Z</time></trkpt><trkpt lat="42.405561843939694" lon="18.755701709405947"><ele>179.0</ele><time>2026-05-03T07:37:05Z</time></trkpt><trkpt lat="42.40545837715642" lon="18.755933451191343"><ele>185.33333333333331</ele><time>2026-05-03T07:37:06Z</time></trkpt><trkpt lat="42.40536794938928" lon="18.75612755264915"><ele>191.66666666666666</ele><time>2026-05-03T07:37:07Z</time></trkpt><trkpt lat="42.40527376566304" lon="18.756303836054197"><ele>198.0</ele><time>2026-05-03T07:37:08Z</time></trkpt><trkpt lat="42.4051700078812" lon="18.756446043872874"><ele>198.0</ele><time>2026-05-03T07:37:09Z</time></trkpt><trkpt lat="42.4050553368262" lon="18.75655505949686"><ele>198.0</ele><time>2026-05-03T07:37:10Z</time></trkpt><trkpt lat="42.40494243471745" lon="18.756633633043368"><ele>198.0</ele><time>2026-05-03T07:37:11Z</time></trkpt><trkpt lat="42.404864828036985" lon="18.756718851438908"><ele>198.0</ele><time>2026-05-03T07:37:12Z</time></trkpt><trkpt lat="42.40482718089499" lon="18.756811429305138"><ele>198.0</ele><time>2026-05-03T07:37:13Z</time></trkpt><trkpt lat="42.404811796030614" lon="18.756932753383772"><ele>200.0</ele><time>2026-05-03T07:37:14Z</time></trkpt><trkpt lat="42.40482797799269" lon="18.75705714772181"><ele>202.0</ele><time>2026-05-03T07:37:15Z</time></trkpt><trkpt lat="42.40484003293649" lon="18.75719146073478"><ele>204.0</ele><time>2026-05-03T07:37:16Z</time></trkpt><trkpt lat="42.404842337313426" lon="18.757331730171256"><ele>206.0</ele><time>2026-05-03T07:37:17Z</time></trkpt><trkpt lat="42.404832322141154" lon="18.757451601778843"><ele>208.0</ele><time>2026-05-03T07:37:18Z</time></trkpt><trkpt lat="42.404816418591544" lon="18.757556694922542"><ele>207.99999999999997</ele><time>2026-05-03T07:37:19Z</time></trkpt><trkpt lat="42.40480356416395" lon="18.757652910083728"><ele>208.0</ele><time>2026-05-03T07:37:20Z</time></trkpt><trkpt lat="42.4047800263031" lon="18.757817488485344"><ele>208.0</ele><time>2026-05-03T07:37:22Z</time></trkpt><trkpt lat="42.40476519286027" lon="18.75790274501063"><ele>208.0</ele><time>2026-05-03T07:37:23Z</time></trkpt><trkpt lat="42.40474229100187" lon="18.75798514759739"><ele>207.99999999999997</ele><time>2026-05-03T07:37:24Z</time></trkpt><trkpt lat="42.404716732400296" lon="18.758063893511295"><ele>208.0</ele><time>2026-05-03T07:37:25Z</time></trkpt><trkpt lat="42.40469834153567" lon="18.758160667523622"><ele>208.0</ele><time>2026-05-03T07:37:26Z</time></trkpt><trkpt lat="42.404670206277174" lon="18.758246055653508"><ele>208.0</ele><time>2026-05-03T07:37:27Z</time></trkpt><trkpt lat="42.40461232583962" lon="18.758375767937643"><ele>208.0</ele><time>2026-05-03T07:37:29Z</time></trkpt><trkpt lat="42.404552715778784" lon="18.758529215531752"><ele>208.0</ele><time>2026-05-03T07:37:31Z</time></trkpt><trkpt lat="42.404513412506994" lon="18.75862047288109"><ele>208.0</ele><time>2026-05-03T07:37:32Z</time></trkpt><trkpt lat="42.40447246378534" lon="18.75870549729317"><ele>207.99999999999997</ele><time>2026-05-03T07:37:33Z</time></trkpt><trkpt lat="42.40442834987515" lon="18.758797710336644"><ele>208.0</ele><time>2026-05-03T07:37:34Z</time></trkpt><trkpt lat="42.40437998941974" lon="18.75889288525118"><ele>208.0</ele><time>2026-05-03T07:37:35Z</time></trkpt><trkpt lat="42.404335191985446" lon="18.75897987952147"><ele>208.0</ele><time>2026-05-03T07:37:36Z</time></trkpt><trkpt lat="42.40428641186449" lon="18.75906560124639"><ele>207.99999999999997</ele><time>2026-05-03T07:37:37Z</time></trkpt><trkpt lat="42.40424090221811" lon="18.759153285371934"><ele>208.0</ele><time>2026-05-03T07:37:38Z</time></trkpt><trkpt lat="42.40419308954411" lon="18.759235675858072"><ele>207.99999999999997</ele><time>2026-05-03T07:37:39Z</time></trkpt><trkpt lat="42.404151419110526" lon="18.75931006106357"><ele>208.0</ele><time>2026-05-03T07:37:40Z</time></trkpt><trkpt lat="42.40409694349735" lon="18.759431630305922"><ele>208.0</ele><time>2026-05-03T07:37:42Z</time></trkpt><trkpt lat="42.40403225098783" lon="18.75951633075761"><ele>208.0</ele><time>2026-05-03T07:37:45Z</time></trkpt><trkpt lat="42.40398377570577" lon="18.759593033168517"><ele>207.99999999999997</ele><time>2026-05-03T07:37:48Z</time></trkpt><trkpt lat="42.403939176687786" lon="18.759678086786582"><ele>208.0</ele><time>2026-05-03T07:38:09Z</time></trkpt><trkpt lat="42.40388613394587" lon="18.759767859094435"><ele>207.16666666666666</ele><time>2026-05-03T07:38:12Z</time></trkpt><trkpt lat="42.403846579091585" lon="18.75984833022005"><ele>206.33333333333331</ele><time>2026-05-03T07:38:14Z</time></trkpt><trkpt lat="42.403784338705776" lon="18.759912574177473"><ele>205.5</ele><time>2026-05-03T07:38:16Z</time></trkpt><trkpt lat="42.40373154349283" lon="18.759992866487927"><ele>204.66666666666669</ele><time>2026-05-03T07:38:18Z</time></trkpt><trkpt lat="42.40367168649183" lon="18.76008397024028"><ele>203.83333333333334</ele><time>2026-05-03T07:38:20Z</time></trkpt><trkpt lat="42.40360617359684" lon="18.76017838787243"><ele>203.0</ele><time>2026-05-03T07:38:22Z</time></trkpt><trkpt lat="42.40353477874033" lon="18.76027082322079"><ele>206.8</ele><time>2026-05-03T07:38:24Z</time></trkpt><trkpt lat="42.40346835869326" lon="18.760374837889206"><ele>210.60000000000002</ele><time>2026-05-03T07:38:26Z</time></trkpt><trkpt lat="42.4034017153289" lon="18.760479301181277"><ele>214.39999999999998</ele><time>2026-05-03T07:38:28Z</time></trkpt><trkpt lat="42.40334756923306" lon="18.760592379871827"><ele>218.2</ele><time>2026-05-03T07:38:30Z</time></trkpt><trkpt lat="42.40330445723692" lon="18.76070297795405"><ele>222.0</ele><time>2026-05-03T07:38:32Z</time></trkpt><trkpt lat="42.403274481245916" lon="18.76079465060075"><ele>222.0</ele><time>2026-05-03T07:38:34Z</time></trkpt><trkpt lat="42.40324499888735" lon="18.76088350081822"><ele>222.0</ele><time>2026-05-03T07:38:37Z</time></trkpt><trkpt lat="42.40321924786223" lon="18.760979714805494"><ele>222.0</ele><time>2026-05-03T07:38:40Z</time></trkpt><trkpt lat="42.403184748852354" lon="18.761055913930733"><ele>222.0</ele><time>2026-05-03T07:38:58Z</time></trkpt><trkpt lat="42.40316118929449" lon="18.761165088206834"><ele>222.0</ele><time>2026-05-03T07:39:00Z</time></trkpt><trkpt lat="42.40313595461995" lon="18.76128202482317"><ele>222.0</ele><time>2026-05-03T07:39:02Z</time></trkpt><trkpt lat="42.403116341839294" lon="18.76137982396611"><ele>223.66666666666666</ele><time>2026-05-03T07:39:04Z</time></trkpt><trkpt lat="42.403104294491094" lon="18.761478905922033"><ele>225.33333333333331</ele><time>2026-05-03T07:39:06Z</time></trkpt><trkpt lat="42.403100276627654" lon="18.761574852001335"><ele>227.0</ele><time>2026-05-03T07:39:09Z</time></trkpt><trkpt lat="42.403127095587834" lon="18.761677188035573"><ele>228.66666666666666</ele><time>2026-05-03T07:39:21Z</time></trkpt><trkpt lat="42.40312968046236" lon="18.761788174131876"><ele>230.33333333333331</ele><time>2026-05-03T07:39:23Z</time></trkpt><trkpt lat="42.403113818724414" lon="18.76193784175403"><ele>232.0</ele><time>2026-05-03T07:39:25Z</time></trkpt><trkpt lat="42.4030278921304" lon="18.76206668544394"><ele>230.83333333333331</ele><time>2026-05-03T07:39:27Z</time></trkpt><trkpt lat="42.402983850433316" lon="18.762142177326236"><ele>229.66666666666666</ele><time>2026-05-03T07:39:28Z</time></trkpt><trkpt lat="42.402943290227725" lon="18.762224273391407"><ele>228.5</ele><time>2026-05-03T07:39:29Z</time></trkpt><trkpt lat="42.40291462509944" lon="18.762306041473185"><ele>227.33333333333331</ele><time>2026-05-03T07:39:30Z</time></trkpt><trkpt lat="42.40290959184462" lon="18.762465473455208"><ele>226.16666666666666</ele><time>2026-05-03T07:39:32Z</time></trkpt><trkpt lat="42.40287778929792" lon="18.762563931289865"><ele>225.0</ele><time>2026-05-03T07:39:35Z</time></trkpt><trkpt lat="42.40286098832742" lon="18.76265362972813"><ele>225.0</ele><time>2026-05-03T07:39:46Z</time></trkpt><trkpt lat="42.40280333275064" lon="18.762693220860022"><ele>225.0</ele><time>2026-05-03T07:39:48Z</time></trkpt><trkpt lat="42.40267751181859" lon="18.762674971446735"><ele>225.0</ele><time>2026-05-03T07:39:50Z</time></trkpt><trkpt lat="42.40260461713103" lon="18.762643721393086"><ele>225.0</ele><time>2026-05-03T07:39:51Z</time></trkpt><trkpt lat="42.402525509159304" lon="18.762618283163054"><ele>225.0</ele><time>2026-05-03T07:39:52Z</time></trkpt><trkpt lat="42.4024405744609" lon="18.762593328065574"><ele>225.0</ele><time>2026-05-03T07:39:53Z</time></trkpt><trkpt lat="42.40236285119016" lon="18.762573047761776"><ele>225.0</ele><time>2026-05-03T07:39:54Z</time></trkpt><trkpt lat="42.40228632538613" lon="18.762553523369014"><ele>225.0</ele><time>2026-05-03T07:39:55Z</time></trkpt><trkpt lat="42.40221049247225" lon="18.762538777176463"><ele>225.0</ele><time>2026-05-03T07:39:56Z</time></trkpt><trkpt lat="42.402136770123185" lon="18.762523810696315"><ele>225.0</ele><time>2026-05-03T07:39:57Z</time></trkpt><trkpt lat="42.40205307362047" lon="18.762511075661937"><ele>225.0</ele><time>2026-05-03T07:39:58Z</time></trkpt><trkpt lat="42.40198124136293" lon="18.76246384102856"><ele>225.0</ele><time>2026-05-03T07:39:59Z</time></trkpt><trkpt lat="42.401872220485366" lon="18.762476895151593"><ele>225.83333333333334</ele><time>2026-05-03T07:40:01Z</time></trkpt><trkpt lat="42.401765823302654" lon="18.76256525830325"><ele>226.66666666666669</ele><time>2026-05-03T07:40:03Z</time></trkpt><trkpt lat="42.401703536098914" lon="18.762598059934987"><ele>227.5</ele><time>2026-05-03T07:40:04Z</time></trkpt><trkpt lat="42.4016421525846" lon="18.76264444499078"><ele>228.33333333333334</ele><time>2026-05-03T07:40:05Z</time></trkpt><trkpt lat="42.40154562860578" lon="18.762728270999716"><ele>229.16666666666669</ele><time>2026-05-03T07:40:07Z</time></trkpt><trkpt lat="42.40148865618598" lon="18.762765253559937"><ele>230.0</ele><time>2026-05-03T07:40:08Z</time></trkpt><trkpt lat="42.40137722903149" lon="18.762795074654075"><ele>233.66666666666669</ele><time>2026-05-03T07:40:10Z</time></trkpt><trkpt lat="42.40127935550472" lon="18.76273798327707"><ele>237.33333333333334</ele><time>2026-05-03T07:40:12Z</time></trkpt><trkpt lat="42.401203150019754" lon="18.762636899509605"><ele>241.0</ele><time>2026-05-03T07:40:14Z</time></trkpt><trkpt lat="42.40115774283078" lon="18.762567422698393"><ele>244.66666666666669</ele><time>2026-05-03T07:40:15Z</time></trkpt><trkpt lat="42.40110474288804" lon="18.762480362910313"><ele>248.33333333333334</ele><time>2026-05-03T07:40:16Z</time></trkpt><trkpt lat="42.40106470640716" lon="18.762386406048"><ele>252.0</ele><time>2026-05-03T07:40:17Z</time></trkpt><trkpt lat="42.40103633859824" lon="18.76227557746262"><ele>252.16666666666666</ele><time>2026-05-03T07:40:18Z</time></trkpt><trkpt lat="42.40102140105007" lon="18.762181390194886"><ele>252.33333333333331</ele><time>2026-05-03T07:40:19Z</time></trkpt><trkpt lat="42.40101015152346" lon="18.762084819576046"><ele>252.5</ele><time>2026-05-03T07:40:20Z</time></trkpt><trkpt lat="42.401016961242235" lon="18.76199218233687"><ele>252.66666666666666</ele><time>2026-05-03T07:40:21Z</time></trkpt><trkpt lat="42.40103561903407" lon="18.7618911873131"><ele>252.83333333333331</ele><time>2026-05-03T07:40:22Z</time></trkpt><trkpt lat="42.40105663485913" lon="18.761760871046068"><ele>253.0</ele><time>2026-05-03T07:40:23Z</time></trkpt><trkpt lat="42.40110369805111" lon="18.761633410324443"><ele>255.25</ele><time>2026-05-03T07:40:24Z</time></trkpt><trkpt lat="42.40115732562492" lon="18.76149977723291"><ele>257.5</ele><time>2026-05-03T07:40:25Z</time></trkpt><trkpt lat="42.401214148179236" lon="18.761365353521253"><ele>259.75</ele><time>2026-05-03T07:40:26Z</time></trkpt><trkpt lat="42.401274024471896" lon="18.761221895863983"><ele>262.0</ele><time>2026-05-03T07:40:27Z</time></trkpt><trkpt lat="42.401334725086755" lon="18.76109306855935"><ele>255.2</ele><time>2026-05-03T07:40:28Z</time></trkpt><trkpt lat="42.401409581702524" lon="18.760996093930213"><ele>248.39999999999998</ele><time>2026-05-03T07:40:29Z</time></trkpt><trkpt lat="42.40146609022618" lon="18.760897715188467"><ele>241.60000000000002</ele><time>2026-05-03T07:40:30Z</time></trkpt><trkpt lat="42.40153173811684" lon="18.760798876756965"><ele>234.8</ele><time>2026-05-03T07:40:31Z</time></trkpt><trkpt lat="42.401559411376766" lon="18.76071604745353"><ele>228.0</ele><time>2026-05-03T07:40:32Z</time></trkpt><trkpt lat="42.401585527872555" lon="18.76055107711008"><ele>228.0</ele><time>2026-05-03T07:40:34Z</time></trkpt><trkpt lat="42.401495018242514" lon="18.760377233695763"><ele>228.0</ele><time>2026-05-03T07:40:36Z</time></trkpt><trkpt lat="42.401368198572385" lon="18.760368589019496"><ele>228.0</ele><time>2026-05-03T07:40:37Z</time></trkpt><trkpt lat="42.40128862550444" lon="18.760329878316167"><ele>228.0</ele><time>2026-05-03T07:40:38Z</time></trkpt><trkpt lat="42.40121073128457" lon="18.76028798980452"><ele>231.60000000000002</ele><time>2026-05-03T07:40:39Z</time></trkpt><trkpt lat="42.401115404112254" lon="18.76022587192647"><ele>235.20000000000002</ele><time>2026-05-03T07:40:40Z</time></trkpt><trkpt lat="42.40102360139212" lon="18.76017618871951"><ele>238.8</ele><time>2026-05-03T07:40:41Z</time></trkpt><trkpt lat="42.400921636444494" lon="18.760116665844482"><ele>242.4</ele><time>2026-05-03T07:40:42Z</time></trkpt><trkpt lat="42.40081915263517" lon="18.760050427338587"><ele>246.0</ele><time>2026-05-03T07:40:43Z</time></trkpt><trkpt lat="42.40071220450978" lon="18.75997282764804"><ele>246.0</ele><time>2026-05-03T07:40:44Z</time></trkpt><trkpt lat="42.40059605142106" lon="18.759894024017775"><ele>246.0</ele><time>2026-05-03T07:40:45Z</time></trkpt><trkpt lat="42.400474512324244" lon="18.75983492337487"><ele>246.0</ele><time>2026-05-03T07:40:46Z</time></trkpt><trkpt lat="42.40035237277259" lon="18.75980508685641"><ele>246.0</ele><time>2026-05-03T07:40:47Z</time></trkpt><trkpt lat="42.40023795028944" lon="18.75978632233999"><ele>250.60000000000002</ele><time>2026-05-03T07:40:48Z</time></trkpt><trkpt lat="42.40012709629018" lon="18.75975531476311"><ele>255.20000000000002</ele><time>2026-05-03T07:40:49Z</time></trkpt><trkpt lat="42.40001918214967" lon="18.759734449961044"><ele>259.79999999999995</ele><time>2026-05-03T07:40:50Z</time></trkpt><trkpt lat="42.39991203197821" lon="18.75971808402719"><ele>264.4</ele><time>2026-05-03T07:40:51Z</time></trkpt><trkpt lat="42.399800193576084" lon="18.75970529089514"><ele>269.0</ele><time>2026-05-03T07:40:52Z</time></trkpt><trkpt lat="42.39970029341872" lon="18.759644104144567"><ele>273.0</ele><time>2026-05-03T07:40:53Z</time></trkpt><trkpt lat="42.39959877731724" lon="18.759594586558713"><ele>277.0</ele><time>2026-05-03T07:40:54Z</time></trkpt><trkpt lat="42.39949681341589" lon="18.75954470994221"><ele>281.0</ele><time>2026-05-03T07:40:55Z</time></trkpt><trkpt lat="42.39939093396566" lon="18.75949232899924"><ele>285.0</ele><time>2026-05-03T07:40:56Z</time></trkpt><trkpt lat="42.39928949147722" lon="18.759441957926438"><ele>289.0</ele><time>2026-05-03T07:40:57Z</time></trkpt><trkpt lat="42.39918121696163" lon="18.759423359608196"><ele>289.0</ele><time>2026-05-03T07:40:58Z</time></trkpt><trkpt lat="42.3990787533165" lon="18.759418656648496"><ele>289.0</ele><time>2026-05-03T07:40:59Z</time></trkpt><trkpt lat="42.39897325273249" lon="18.75938655392132"><ele>289.0</ele><time>2026-05-03T07:41:00Z</time></trkpt><trkpt lat="42.39886674919792" lon="18.75935673140571"><ele>289.0</ele><time>2026-05-03T07:41:01Z</time></trkpt><trkpt lat="42.39875622477272" lon="18.759333314046067"><ele>289.0</ele><time>2026-05-03T07:41:02Z</time></trkpt><trkpt lat="42.398632432451954" lon="18.759423129032836"><ele>292.8</ele><time>2026-05-03T07:41:03Z</time></trkpt><trkpt lat="42.39852380450665" lon="18.75941368227151"><ele>296.59999999999997</ele><time>2026-05-03T07:41:04Z</time></trkpt><trkpt lat="42.398425696692115" lon="18.759381037992362"><ele>300.4</ele><time>2026-05-03T07:41:05Z</time></trkpt><trkpt lat="42.39834066877212" lon="18.759335265709495"><ele>304.2</ele><time>2026-05-03T07:41:06Z</time></trkpt><trkpt lat="42.39826369856562" lon="18.759279738936954"><ele>308.0</ele><time>2026-05-03T07:41:07Z</time></trkpt><trkpt lat="42.39818062521054" lon="18.75920377972034"><ele>305.5</ele><time>2026-05-03T07:41:08Z</time></trkpt><trkpt lat="42.39809207624722" lon="18.75910595790057"><ele>303.0</ele><time>2026-05-03T07:41:09Z</time></trkpt><trkpt lat="42.397975162620305" lon="18.758988836944027"><ele>300.5</ele><time>2026-05-03T07:41:10Z</time></trkpt><trkpt lat="42.39782203905026" lon="18.758877085607"><ele>298.0</ele><time>2026-05-03T07:41:11Z</time></trkpt><trkpt lat="42.397636701414314" lon="18.75875806572106"><ele>298.0</ele><time>2026-05-03T07:41:12Z</time></trkpt><trkpt lat="42.397440457406994" lon="18.75865563436727"><ele>298.0</ele><time>2026-05-03T07:41:13Z</time></trkpt><trkpt lat="42.397255642071976" lon="18.758574874841603"><ele>298.0</ele><time>2026-05-03T07:41:14Z</time></trkpt><trkpt lat="42.39709303634097" lon="18.758547898531212"><ele>300.5</ele><time>2026-05-03T07:41:15Z</time></trkpt><trkpt lat="42.39694734627504" lon="18.75853646558644"><ele>303.0</ele><time>2026-05-03T07:41:16Z</time></trkpt><trkpt lat="42.39680961895681" lon="18.75854274454514"><ele>305.5</ele><time>2026-05-03T07:41:17Z</time></trkpt><trkpt lat="42.39666485018375" lon="18.75857633348078"><ele>308.0</ele><time>2026-05-03T07:41:18Z</time></trkpt><trkpt lat="42.39652117237812" lon="18.75863787741343"><ele>308.0</ele><time>2026-05-03T07:41:19Z</time></trkpt><trkpt lat="42.39636931840557" lon="18.75867747347656"><ele>308.0</ele><time>2026-05-03T07:41:20Z</time></trkpt><trkpt lat="42.39622644832929" lon="18.75874135673153"><ele>308.0</ele><time>2026-05-03T07:41:21Z</time></trkpt><trkpt lat="42.39607706296248" lon="18.758806857138037"><ele>303.0</ele><time>2026-05-03T07:41:22Z</time></trkpt><trkpt lat="42.395926785133014" lon="18.758897141154836"><ele>298.0</ele><time>2026-05-03T07:41:23Z</time></trkpt><trkpt lat="42.39576623051429" lon="18.758975661331355"><ele>293.0</ele><time>2026-05-03T07:41:24Z</time></trkpt><trkpt lat="42.395610498056676" lon="18.75906071261892"><ele>296.5</ele><time>2026-05-03T07:41:25Z</time></trkpt><trkpt lat="42.39545774422542" lon="18.759132953207576"><ele>300.0</ele><time>2026-05-03T07:41:26Z</time></trkpt><trkpt lat="42.39532606410058" lon="18.759221055064447"><ele>303.5</ele><time>2026-05-03T07:41:27Z</time></trkpt><trkpt lat="42.39522202966983" lon="18.759320496026675"><ele>307.0</ele><time>2026-05-03T07:41:28Z</time></trkpt><trkpt lat="42.39512819325365" lon="18.759387736444037"><ele>307.0</ele><time>2026-05-03T07:41:29Z</time></trkpt><trkpt lat="42.39505550870064" lon="18.75944495134831"><ele>307.0</ele><time>2026-05-03T07:41:30Z</time></trkpt><trkpt lat="42.394995823444034" lon="18.759487000855565"><ele>307.0</ele><time>2026-05-03T07:41:31Z</time></trkpt><trkpt lat="42.39497617982785" lon="18.759608801694647"><ele>307.0</ele><time>2026-05-03T07:41:33Z</time></trkpt><trkpt lat="42.39508098820135" lon="18.759687484600892"><ele>307.0</ele><time>2026-05-03T07:41:35Z</time></trkpt><trkpt lat="42.39516649547609" lon="18.759642259900616"><ele>307.0</ele><time>2026-05-03T07:41:36Z</time></trkpt><trkpt lat="42.39526237259279" lon="18.759557343483625"><ele>307.0</ele><time>2026-05-03T07:41:37Z</time></trkpt><trkpt lat="42.39535739007592" lon="18.759429256430884"><ele>307.0</ele><time>2026-05-03T07:41:38Z</time></trkpt><trkpt lat="42.39548039849068" lon="18.759332775182727"><ele>307.0</ele><time>2026-05-03T07:41:39Z</time></trkpt><trkpt lat="42.395601776701234" lon="18.759230850416653"><ele>303.5</ele><time>2026-05-03T07:41:40Z</time></trkpt><trkpt lat="42.39571377766242" lon="18.75915922807605"><ele>300.0</ele><time>2026-05-03T07:41:41Z</time></trkpt><trkpt lat="42.395845539876596" lon="18.759122605592115"><ele>296.5</ele><time>2026-05-03T07:41:42Z</time></trkpt><trkpt lat="42.39597954534146" lon="18.75909985112666"><ele>293.0</ele><time>2026-05-03T07:41:43Z</time></trkpt><trkpt lat="42.39610571677485" lon="18.759083347605017"><ele>293.0</ele><time>2026-05-03T07:41:44Z</time></trkpt><trkpt lat="42.39622426756185" lon="18.75906613726522"><ele>293.0</ele><time>2026-05-03T07:41:45Z</time></trkpt><trkpt lat="42.396344041333414" lon="18.759044501275987"><ele>293.0</ele><time>2026-05-03T07:41:46Z</time></trkpt><trkpt lat="42.39646275605191" lon="18.759019689261535"><ele>293.0</ele><time>2026-05-03T07:41:47Z</time></trkpt><trkpt lat="42.39658062485078" lon="18.759000492302885"><ele>296.75</ele><time>2026-05-03T07:41:48Z</time></trkpt><trkpt lat="42.39670157323058" lon="18.758992163161558"><ele>300.5</ele><time>2026-05-03T07:41:49Z</time></trkpt><trkpt lat="42.39682558739617" lon="18.758989516346844"><ele>304.25</ele><time>2026-05-03T07:41:50Z</time></trkpt><trkpt lat="42.396954264860014" lon="18.75902761833513"><ele>308.0</ele><time>2026-05-03T07:41:51Z</time></trkpt><trkpt lat="42.39708517853338" lon="18.75905473660879"><ele>306.0</ele><time>2026-05-03T07:41:52Z</time></trkpt><trkpt lat="42.39719758321826" lon="18.759072568277674"><ele>304.0</ele><time>2026-05-03T07:41:53Z</time></trkpt><trkpt lat="42.397295596567176" lon="18.759139563163806"><ele>302.0</ele><time>2026-05-03T07:41:54Z</time></trkpt><trkpt lat="42.39739569059757" lon="18.759226595103495"><ele>300.0</ele><time>2026-05-03T07:41:55Z</time></trkpt><trkpt lat="42.39747071353925" lon="18.75931711482372"><ele>298.0</ele><time>2026-05-03T07:41:56Z</time></trkpt><trkpt lat="42.397592563909896" lon="18.759417789365376"><ele>300.5</ele><time>2026-05-03T07:41:57Z</time></trkpt><trkpt lat="42.39769563833354" lon="18.75952908959991"><ele>303.0</ele><time>2026-05-03T07:41:58Z</time></trkpt><trkpt lat="42.397794469890535" lon="18.75965482088209"><ele>305.5</ele><time>2026-05-03T07:41:59Z</time></trkpt><trkpt lat="42.397896715105375" lon="18.75978442324918"><ele>308.0</ele><time>2026-05-03T07:42:00Z</time></trkpt><trkpt lat="42.39800285771944" lon="18.7599333031879"><ele>308.0</ele><time>2026-05-03T07:42:01Z</time></trkpt><trkpt lat="42.39811584858357" lon="18.760077431191824"><ele>308.0</ele><time>2026-05-03T07:42:02Z</time></trkpt><trkpt lat="42.39824258116507" lon="18.76018609324037"><ele>308.0</ele><time>2026-05-03T07:42:03Z</time></trkpt><trkpt lat="42.39837437488326" lon="18.760246447468095"><ele>308.0</ele><time>2026-05-03T07:42:04Z</time></trkpt><trkpt lat="42.39852361760267" lon="18.760302672932127"><ele>314.6666666666667</ele><time>2026-05-03T07:42:05Z</time></trkpt><trkpt lat="42.3987024806714" lon="18.760306759155558"><ele>321.3333333333333</ele><time>2026-05-03T07:42:06Z</time></trkpt><trkpt lat="42.39886605570501" lon="18.760314991596047"><ele>328.0</ele><time>2026-05-03T07:42:07Z</time></trkpt><trkpt lat="42.399005476891105" lon="18.76033754169861"><ele>328.0</ele><time>2026-05-03T07:42:08Z</time></trkpt><trkpt lat="42.39915289045969" lon="18.760393953393525"><ele>328.0</ele><time>2026-05-03T07:42:09Z</time></trkpt><trkpt lat="42.39930074307143" lon="18.760460684782576"><ele>328.0</ele><time>2026-05-03T07:42:10Z</time></trkpt><trkpt lat="42.39942790974064" lon="18.76049677112425"><ele>328.0</ele><time>2026-05-03T07:42:11Z</time></trkpt><trkpt lat="42.39957318923054" lon="18.760579398195212"><ele>323.0</ele><time>2026-05-03T07:42:12Z</time></trkpt><trkpt lat="42.399696146980844" lon="18.760655374427387"><ele>318.0</ele><time>2026-05-03T07:42:13Z</time></trkpt><trkpt lat="42.39979066215959" lon="18.760728984865256"><ele>313.0</ele><time>2026-05-03T07:42:14Z</time></trkpt><trkpt lat="42.39987642372225" lon="18.76079035781836"><ele>308.0</ele><time>2026-05-03T07:42:15Z</time></trkpt><trkpt lat="42.39989809490385" lon="18.760880453697016"><ele>303.0</ele><time>2026-05-03T07:42:18Z</time></trkpt><trkpt lat="42.400004931091665" lon="18.76093191923303"><ele>303.0</ele><time>2026-05-03T07:42:19Z</time></trkpt><trkpt lat="42.39980341726301" lon="18.760831684159278"><ele>303.0</ele><time>2026-05-03T07:42:20Z</time></trkpt><trkpt lat="42.39969972638668" lon="18.760790880585166"><ele>303.0</ele><time>2026-05-03T07:42:22Z</time></trkpt><trkpt lat="42.39960647528793" lon="18.760703792077674"><ele>303.0</ele><time>2026-05-03T07:42:24Z</time></trkpt><trkpt lat="42.39949532481248" lon="18.760673823415214"><ele>303.0</ele><time>2026-05-03T07:42:26Z</time></trkpt><trkpt lat="42.39942829520421" lon="18.760620057130712"><ele>303.0</ele><time>2026-05-03T07:42:28Z</time></trkpt><trkpt lat="42.39950208417664" lon="18.760664026931106"><ele>303.0</ele><time>2026-05-03T07:43:12Z</time></trkpt><trkpt lat="42.39966677653084" lon="18.76074146054266"><ele>303.0</ele><time>2026-05-03T07:43:14Z</time></trkpt><trkpt lat="42.3997813361566" lon="18.76081648009978"><ele>303.0</ele><time>2026-05-03T07:43:15Z</time></trkpt><trkpt lat="42.39986845490395" lon="18.76084696818982"><ele>303.0</ele><time>2026-05-03T07:43:16Z</time></trkpt><trkpt lat="42.39995356422522" lon="18.760868088525584"><ele>303.0</ele><time>2026-05-03T07:43:17Z</time></trkpt><trkpt lat="42.40001427101046" lon="18.760901249167826"><ele>303.0</ele><time>2026-05-03T07:43:18Z</time></trkpt><trkpt lat="42.400022925291246" lon="18.76105568108385"><ele>303.0</ele><time>2026-05-03T07:43:20Z</time></trkpt><trkpt lat="42.39998811970533" lon="18.761175712100503"><ele>303.75</ele><time>2026-05-03T07:43:21Z</time></trkpt><trkpt lat="42.399945354934964" lon="18.761314776129108"><ele>304.5</ele><time>2026-05-03T07:43:22Z</time></trkpt><trkpt lat="42.39986292548749" lon="18.761476667003755"><ele>305.25</ele><time>2026-05-03T07:43:23Z</time></trkpt><trkpt lat="42.39976071679471" lon="18.761639348116024"><ele>306.0</ele><time>2026-05-03T07:43:24Z</time></trkpt><trkpt lat="42.39968021292015" lon="18.761781103268575"><ele>318.5</ele><time>2026-05-03T07:43:25Z</time></trkpt><trkpt lat="42.39965078992472" lon="18.76194834630925"><ele>331.0</ele><time>2026-05-03T07:43:26Z</time></trkpt><trkpt lat="42.399661952163044" lon="18.762149229711707"><ele>343.5</ele><time>2026-05-03T07:43:27Z</time></trkpt><trkpt lat="42.39964600409947" lon="18.762324765567406"><ele>356.0</ele><time>2026-05-03T07:43:28Z</time></trkpt><trkpt lat="42.39960336952619" lon="18.762466787251277"><ele>356.0</ele><time>2026-05-03T07:43:29Z</time></trkpt><trkpt lat="42.39954535419346" lon="18.762611416233646"><ele>356.0</ele><time>2026-05-03T07:43:30Z</time></trkpt><trkpt lat="42.399504253965446" lon="18.762761319907202"><ele>356.0</ele><time>2026-05-03T07:43:31Z</time></trkpt><trkpt lat="42.399466824253054" lon="18.762914065244956"><ele>356.0</ele><time>2026-05-03T07:43:32Z</time></trkpt><trkpt lat="42.39943672740475" lon="18.763069747700644"><ele>353.5</ele><time>2026-05-03T07:43:33Z</time></trkpt><trkpt lat="42.399397105454845" lon="18.76322766820585"><ele>351.0</ele><time>2026-05-03T07:43:34Z</time></trkpt><trkpt lat="42.399357214176746" lon="18.76339510837169"><ele>348.5</ele><time>2026-05-03T07:43:35Z</time></trkpt><trkpt lat="42.39933034543845" lon="18.76357298052596"><ele>346.0</ele><time>2026-05-03T07:43:36Z</time></trkpt><trkpt lat="42.399293566298184" lon="18.763759724477158"><ele>342.75</ele><time>2026-05-03T07:43:37Z</time></trkpt><trkpt lat="42.39922919207169" lon="18.76393606544794"><ele>339.5</ele><time>2026-05-03T07:43:38Z</time></trkpt><trkpt lat="42.399165870355425" lon="18.764116213583748"><ele>336.25</ele><time>2026-05-03T07:43:39Z</time></trkpt><trkpt lat="42.39910110813152" lon="18.764263518384766"><ele>333.0</ele><time>2026-05-03T07:43:40Z</time></trkpt><trkpt lat="42.399041011594896" lon="18.764400970571327"><ele>329.0</ele><time>2026-05-03T07:43:41Z</time></trkpt><trkpt lat="42.39898376254504" lon="18.76453032047894"><ele>325.0</ele><time>2026-05-03T07:43:42Z</time></trkpt><trkpt lat="42.39890638117062" lon="18.764650081343067"><ele>321.0</ele><time>2026-05-03T07:43:43Z</time></trkpt><trkpt lat="42.39882423905717" lon="18.764763436357473"><ele>317.0</ele><time>2026-05-03T07:43:44Z</time></trkpt><trkpt lat="42.39874461639384" lon="18.764869524830825"><ele>321.5</ele><time>2026-05-03T07:43:45Z</time></trkpt><trkpt lat="42.39866454146123" lon="18.76495702486258"><ele>326.0</ele><time>2026-05-03T07:43:46Z</time></trkpt><trkpt lat="42.398581404283924" lon="18.765051813434443"><ele>330.5</ele><time>2026-05-03T07:43:47Z</time></trkpt><trkpt lat="42.39849595306139" lon="18.76517035909169"><ele>335.0</ele><time>2026-05-03T07:43:48Z</time></trkpt><trkpt lat="42.39839934291062" lon="18.765315678813"><ele>335.0</ele><time>2026-05-03T07:43:49Z</time></trkpt><trkpt lat="42.39828923729738" lon="18.7654723473395"><ele>335.0</ele><time>2026-05-03T07:43:50Z</time></trkpt><trkpt lat="42.398176597981156" lon="18.76561846200409"><ele>335.0</ele><time>2026-05-03T07:43:51Z</time></trkpt><trkpt lat="42.39807368221011" lon="18.765751933992973"><ele>337.0</ele><time>2026-05-03T07:43:52Z</time></trkpt><trkpt lat="42.39797510119979" lon="18.765879441247257"><ele>339.0</ele><time>2026-05-03T07:43:53Z</time></trkpt><trkpt lat="42.39788500039911" lon="18.76599864435972"><ele>341.0</ele><time>2026-05-03T07:43:54Z</time></trkpt><trkpt lat="42.397812967500286" lon="18.766093598500447"><ele>343.0</ele><time>2026-05-03T07:43:55Z</time></trkpt><trkpt lat="42.397719751776364" lon="18.766190789813237"><ele>343.0</ele><time>2026-05-03T07:43:56Z</time></trkpt><trkpt lat="42.39760476408334" lon="18.766275423923954"><ele>343.0</ele><time>2026-05-03T07:43:57Z</time></trkpt><trkpt lat="42.397486709235366" lon="18.766347707565156"><ele>343.0</ele><time>2026-05-03T07:43:58Z</time></trkpt><trkpt lat="42.39736987930729" lon="18.76642349218933"><ele>343.0</ele><time>2026-05-03T07:43:59Z</time></trkpt><trkpt lat="42.39725369913988" lon="18.76649137699545"><ele>347.59999999999997</ele><time>2026-05-03T07:44:00Z</time></trkpt><trkpt lat="42.39713040240629" lon="18.766541424823743"><ele>352.2</ele><time>2026-05-03T07:44:01Z</time></trkpt><trkpt lat="42.39703462500743" lon="18.766539708126228"><ele>356.8</ele><time>2026-05-03T07:44:02Z</time></trkpt><trkpt lat="42.39694925570526" lon="18.766558013512537"><ele>361.4</ele><time>2026-05-03T07:44:03Z</time></trkpt><trkpt lat="42.39689660805357" lon="18.766619983147326"><ele>366.0</ele><time>2026-05-03T07:44:04Z</time></trkpt><trkpt lat="42.39687710753127" lon="18.766729072564154"><ele>366.0</ele><time>2026-05-03T07:44:05Z</time></trkpt><trkpt lat="42.396869541766044" lon="18.766833637346334"><ele>366.0</ele><time>2026-05-03T07:44:06Z</time></trkpt><trkpt lat="42.39686550890606" lon="18.76695443187424"><ele>366.0</ele><time>2026-05-03T07:44:07Z</time></trkpt><trkpt lat="42.396875960603914" lon="18.767080554537955"><ele>366.0</ele><time>2026-05-03T07:44:08Z</time></trkpt><trkpt lat="42.3969094684281" lon="18.76719817040444"><ele>366.0</ele><time>2026-05-03T07:44:09Z</time></trkpt><trkpt lat="42.396991331483434" lon="18.767304453190608"><ele>367.6666666666667</ele><time>2026-05-03T07:44:10Z</time></trkpt><trkpt lat="42.39711386801826" lon="18.76738429068046"><ele>369.33333333333337</ele><time>2026-05-03T07:44:11Z</time></trkpt><trkpt lat="42.39725616140395" lon="18.76745536340408"><ele>371.0</ele><time>2026-05-03T07:44:12Z</time></trkpt><trkpt lat="42.39743532743496" lon="18.767511696523368"><ele>371.6666666666667</ele><time>2026-05-03T07:44:13Z</time></trkpt><trkpt lat="42.39761466348126" lon="18.76761441291773"><ele>372.3333333333333</ele><time>2026-05-03T07:44:14Z</time></trkpt><trkpt lat="42.39780203389356" lon="18.767718368310817"><ele>373.0</ele><time>2026-05-03T07:44:15Z</time></trkpt><trkpt lat="42.39795937983337" lon="18.767834154261767"><ele>368.66666666666663</ele><time>2026-05-03T07:44:16Z</time></trkpt><trkpt lat="42.39808982495452" lon="18.76796310649684"><ele>364.3333333333333</ele><time>2026-05-03T07:44:17Z</time></trkpt><trkpt lat="42.39823463935958" lon="18.7681225676369"><ele>360.0</ele><time>2026-05-03T07:44:18Z</time></trkpt><trkpt lat="42.39838802693602" lon="18.76828257758049"><ele>360.0</ele><time>2026-05-03T07:44:19Z</time></trkpt><trkpt lat="42.398542783433776" lon="18.768455381070797"><ele>360.0</ele><time>2026-05-03T07:44:20Z</time></trkpt><trkpt lat="42.398694069800605" lon="18.768605482947898"><ele>360.0</ele><time>2026-05-03T07:44:21Z</time></trkpt><trkpt lat="42.39882892607785" lon="18.768740893857633"><ele>360.75</ele><time>2026-05-03T07:44:22Z</time></trkpt><trkpt lat="42.39895407586413" lon="18.76885907044271"><ele>361.5</ele><time>2026-05-03T07:44:23Z</time></trkpt><trkpt lat="42.39906682844295" lon="18.76894945757316"><ele>362.25</ele><time>2026-05-03T07:44:24Z</time></trkpt><trkpt lat="42.39915842655353" lon="18.769046235103207"><ele>363.0</ele><time>2026-05-03T07:44:25Z</time></trkpt><trkpt lat="42.399224748114726" lon="18.76914949964041"><ele>363.0</ele><time>2026-05-03T07:44:26Z</time></trkpt><trkpt lat="42.39926000470597" lon="18.769290379658393"><ele>363.0</ele><time>2026-05-03T07:44:27Z</time></trkpt><trkpt lat="42.39926192290754" lon="18.769446935714164"><ele>363.0</ele><time>2026-05-03T07:44:28Z</time></trkpt><trkpt lat="42.3992485655565" lon="18.769607874379467"><ele>363.0</ele><time>2026-05-03T07:44:29Z</time></trkpt><trkpt lat="42.39924835561899" lon="18.769750951457187"><ele>364.59999999999997</ele><time>2026-05-03T07:44:30Z</time></trkpt><trkpt lat="42.3992591760097" lon="18.769884012394254"><ele>366.2</ele><time>2026-05-03T07:44:31Z</time></trkpt><trkpt lat="42.399258315811714" lon="18.770012928797303"><ele>367.8</ele><time>2026-05-03T07:44:32Z</time></trkpt><trkpt lat="42.39925390979052" lon="18.770140213951265"><ele>369.4</ele><time>2026-05-03T07:44:33Z</time></trkpt><trkpt lat="42.399248603554234" lon="18.77025030316005"><ele>371.0</ele><time>2026-05-03T07:44:34Z</time></trkpt><trkpt lat="42.39926286427968" lon="18.770395060984438"><ele>371.0</ele><time>2026-05-03T07:44:35Z</time></trkpt><trkpt lat="42.39925797286068" lon="18.770531133282738"><ele>371.0</ele><time>2026-05-03T07:44:36Z</time></trkpt><trkpt lat="42.39925079712258" lon="18.770677076256234"><ele>371.0</ele><time>2026-05-03T07:44:37Z</time></trkpt><trkpt lat="42.39924059808262" lon="18.770812180566587"><ele>371.0</ele><time>2026-05-03T07:44:38Z</time></trkpt><trkpt lat="42.39922122406017" lon="18.770952416586177"><ele>371.0</ele><time>2026-05-03T07:44:39Z</time></trkpt><trkpt lat="42.39918805542009" lon="18.7711026448407"><ele>373.5</ele><time>2026-05-03T07:44:40Z</time></trkpt><trkpt lat="42.39916248965876" lon="18.77125748721704"><ele>376.0</ele><time>2026-05-03T07:44:41Z</time></trkpt><trkpt lat="42.399161449917955" lon="18.77141507493353"><ele>378.5</ele><time>2026-05-03T07:44:42Z</time></trkpt><trkpt lat="42.39918748961639" lon="18.771573647628983"><ele>381.0</ele><time>2026-05-03T07:44:43Z</time></trkpt><trkpt lat="42.39923372814272" lon="18.771732183627833"><ele>380.5</ele><time>2026-05-03T07:44:44Z</time></trkpt><trkpt lat="42.39930966537949" lon="18.771867539137144"><ele>380.0</ele><time>2026-05-03T07:44:45Z</time></trkpt><trkpt lat="42.39940971568002" lon="18.771995605833855"><ele>379.5</ele><time>2026-05-03T07:44:46Z</time></trkpt><trkpt lat="42.39953777505879" lon="18.772118529436064"><ele>379.0</ele><time>2026-05-03T07:44:47Z</time></trkpt><trkpt lat="42.399694937556006" lon="18.772226141874235"><ele>379.0</ele><time>2026-05-03T07:44:48Z</time></trkpt><trkpt lat="42.399879159310366" lon="18.772332950518486"><ele>379.0</ele><time>2026-05-03T07:44:49Z</time></trkpt><trkpt lat="42.4000542071745" lon="18.77248858833726"><ele>379.0</ele><time>2026-05-03T07:44:50Z</time></trkpt><trkpt lat="42.40019880566855" lon="18.772635990680573"><ele>379.75</ele><time>2026-05-03T07:44:51Z</time></trkpt><trkpt lat="42.400321680775946" lon="18.772763550576773"><ele>380.5</ele><time>2026-05-03T07:44:52Z</time></trkpt><trkpt lat="42.40042845120703" lon="18.77288304660646"><ele>381.25</ele><time>2026-05-03T07:44:53Z</time></trkpt><trkpt lat="42.40053594533855" lon="18.773012929726946"><ele>382.0</ele><time>2026-05-03T07:44:54Z</time></trkpt><trkpt lat="42.40063979903303" lon="18.773179704243397"><ele>382.0</ele><time>2026-05-03T07:44:55Z</time></trkpt><trkpt lat="42.40074510248475" lon="18.77335706599844"><ele>382.0</ele><time>2026-05-03T07:44:56Z</time></trkpt><trkpt lat="42.40084538978107" lon="18.773502215831282"><ele>382.0</ele><time>2026-05-03T07:44:57Z</time></trkpt><trkpt lat="42.40095159942793" lon="18.773610076196174"><ele>382.0</ele><time>2026-05-03T07:44:58Z</time></trkpt><trkpt lat="42.40108643911544" lon="18.77367334591872"><ele>387.66666666666663</ele><time>2026-05-03T07:44:59Z</time></trkpt><trkpt lat="42.40124069123948" lon="18.773703353872584"><ele>393.3333333333333</ele><time>2026-05-03T07:45:00Z</time></trkpt><trkpt lat="42.401396318374644" lon="18.773692118890885"><ele>399.0</ele><time>2026-05-03T07:45:01Z</time></trkpt><trkpt lat="42.40153646394551" lon="18.77366881315486"><ele>399.0</ele><time>2026-05-03T07:45:02Z</time></trkpt><trkpt lat="42.40165195070892" lon="18.773693035431176"><ele>399.0</ele><time>2026-05-03T07:45:03Z</time></trkpt><trkpt lat="42.40175104841433" lon="18.77377344890522"><ele>399.0</ele><time>2026-05-03T07:45:04Z</time></trkpt><trkpt lat="42.40183545247451" lon="18.773901025648033"><ele>399.0</ele><time>2026-05-03T07:45:05Z</time></trkpt><trkpt lat="42.401893636319365" lon="18.774054178781075"><ele>399.0</ele><time>2026-05-03T07:45:06Z</time></trkpt><trkpt lat="42.40193861378843" lon="18.774229563839874"><ele>399.0</ele><time>2026-05-03T07:45:07Z</time></trkpt><trkpt lat="42.401984624117425" lon="18.774410080906907"><ele>399.0</ele><time>2026-05-03T07:45:08Z</time></trkpt><trkpt lat="42.40202624781942" lon="18.774608405820995"><ele>399.0</ele><time>2026-05-03T07:45:09Z</time></trkpt><trkpt lat="42.40205809464862" lon="18.77480673161439"><ele>399.2</ele><time>2026-05-03T07:45:10Z</time></trkpt><trkpt lat="42.40208352892007" lon="18.774950116267632"><ele>399.4</ele><time>2026-05-03T07:45:11Z</time></trkpt><trkpt lat="42.40213490891188" lon="18.775043047844886"><ele>399.6</ele><time>2026-05-03T07:45:12Z</time></trkpt><trkpt lat="42.402220064821805" lon="18.775073467725257"><ele>399.8</ele><time>2026-05-03T07:45:13Z</time></trkpt><trkpt lat="42.40232200158826" lon="18.775052815934696"><ele>400.0</ele><time>2026-05-03T07:45:14Z</time></trkpt><trkpt lat="42.40243463541832" lon="18.774967329854157"><ele>400.0</ele><time>2026-05-03T07:45:15Z</time></trkpt><trkpt lat="42.4025601471746" lon="18.774855826274973"><ele>400.0</ele><time>2026-05-03T07:45:16Z</time></trkpt><trkpt lat="42.40266798329255" lon="18.77479524461183"><ele>400.0</ele><time>2026-05-03T07:45:17Z</time></trkpt><trkpt lat="42.40276665938532" lon="18.774792758206193"><ele>400.0</ele><time>2026-05-03T07:45:18Z</time></trkpt><trkpt lat="42.40287840407182" lon="18.774835634749778"><ele>399.0</ele><time>2026-05-03T07:45:19Z</time></trkpt><trkpt lat="42.40299926393406" lon="18.774914455310938"><ele>398.0</ele><time>2026-05-03T07:45:20Z</time></trkpt><trkpt lat="42.403126111149994" lon="18.7750048831889"><ele>397.0</ele><time>2026-05-03T07:45:21Z</time></trkpt><trkpt lat="42.40326709011609" lon="18.775099438300124"><ele>396.0</ele><time>2026-05-03T07:45:22Z</time></trkpt><trkpt lat="42.403428565635835" lon="18.77521113433059"><ele>403.33333333333337</ele><time>2026-05-03T07:45:23Z</time></trkpt><trkpt lat="42.40360664778873" lon="18.775350672322414"><ele>410.6666666666667</ele><time>2026-05-03T07:45:24Z</time></trkpt><trkpt lat="42.40380208151848" lon="18.775492718665653"><ele>418.0</ele><time>2026-05-03T07:45:25Z</time></trkpt><trkpt lat="42.40396979881197" lon="18.775622447565766"><ele>418.0</ele><time>2026-05-03T07:45:26Z</time></trkpt><trkpt lat="42.40411624940756" lon="18.775716514443165"><ele>418.0</ele><time>2026-05-03T07:45:27Z</time></trkpt><trkpt lat="42.404260754425735" lon="18.7758247898818"><ele>418.0</ele><time>2026-05-03T07:45:28Z</time></trkpt><trkpt lat="42.404395593541736" lon="18.775920781336822"><ele>418.0</ele><time>2026-05-03T07:45:29Z</time></trkpt><trkpt lat="42.40451912459128" lon="18.7760162674936"><ele>418.0</ele><time>2026-05-03T07:45:30Z</time></trkpt><trkpt lat="42.40463825718137" lon="18.776101305110895"><ele>418.0</ele><time>2026-05-03T07:45:31Z</time></trkpt><trkpt lat="42.404760226519166" lon="18.77618695258999"><ele>418.0</ele><time>2026-05-03T07:45:32Z</time></trkpt><trkpt lat="42.40488526363018" lon="18.77626681804998"><ele>424.5</ele><time>2026-05-03T07:45:33Z</time></trkpt><trkpt lat="42.405009394921315" lon="18.776335374172703"><ele>431.0</ele><time>2026-05-03T07:45:34Z</time></trkpt><trkpt lat="42.4051282491623" lon="18.776428892989596"><ele>437.5</ele><time>2026-05-03T07:45:35Z</time></trkpt><trkpt lat="42.40525847189659" lon="18.776491804346346"><ele>444.0</ele><time>2026-05-03T07:45:36Z</time></trkpt><trkpt lat="42.405396983073175" lon="18.776548973671105"><ele>437.33333333333337</ele><time>2026-05-03T07:45:37Z</time></trkpt><trkpt lat="42.40556062376215" lon="18.7766140948377"><ele>430.6666666666667</ele><time>2026-05-03T07:45:38Z</time></trkpt><trkpt lat="42.40573205951488" lon="18.776682594407735"><ele>424.0</ele><time>2026-05-03T07:45:39Z</time></trkpt><trkpt lat="42.4058872709942" lon="18.776744532310875"><ele>424.0</ele><time>2026-05-03T07:45:40Z</time></trkpt><trkpt lat="42.40601731084066" lon="18.776791217017852"><ele>424.0</ele><time>2026-05-03T07:45:41Z</time></trkpt><trkpt lat="42.40612984883547" lon="18.776828988580263"><ele>424.0</ele><time>2026-05-03T07:45:42Z</time></trkpt><trkpt lat="42.40623822805622" lon="18.77686487721785"><ele>424.0</ele><time>2026-05-03T07:45:43Z</time></trkpt><trkpt lat="42.40635577989251" lon="18.77689927338666"><ele>422.75</ele><time>2026-05-03T07:45:44Z</time></trkpt><trkpt lat="42.406488350965944" lon="18.776918070566417"><ele>421.5</ele><time>2026-05-03T07:45:45Z</time></trkpt><trkpt lat="42.406635350016735" lon="18.776878196568177"><ele>420.25</ele><time>2026-05-03T07:45:46Z</time></trkpt><trkpt lat="42.406750857931094" lon="18.776800909652582"><ele>419.0</ele><time>2026-05-03T07:45:47Z</time></trkpt><trkpt lat="42.4068217762324" lon="18.77674395072595"><ele>419.0</ele><time>2026-05-03T07:45:48Z</time></trkpt><trkpt lat="42.40690368755304" lon="18.7767175971073"><ele>419.0</ele><time>2026-05-03T07:45:49Z</time></trkpt><trkpt lat="42.406991723306724" lon="18.77672181673847"><ele>419.0</ele><time>2026-05-03T07:45:50Z</time></trkpt><trkpt lat="42.40707307544083" lon="18.77679691386641"><ele>419.0</ele><time>2026-05-03T07:45:51Z</time></trkpt><trkpt lat="42.40716730730099" lon="18.776869186804703"><ele>419.0</ele><time>2026-05-03T07:45:52Z</time></trkpt><trkpt lat="42.407246545591406" lon="18.776972331182996"><ele>421.66666666666663</ele><time>2026-05-03T07:45:53Z</time></trkpt><trkpt lat="42.40731566094567" lon="18.77713090843226"><ele>424.33333333333337</ele><time>2026-05-03T07:45:54Z</time></trkpt><trkpt lat="42.40738818408623" lon="18.777339392340785"><ele>427.0</ele><time>2026-05-03T07:45:55Z</time></trkpt><trkpt lat="42.407465665745065" lon="18.77758512666899"><ele>435.25</ele><time>2026-05-03T07:45:56Z</time></trkpt><trkpt lat="42.407543014899076" lon="18.77778433584788"><ele>443.5</ele><time>2026-05-03T07:45:57Z</time></trkpt><trkpt lat="42.40762164241084" lon="18.777943987123525"><ele>451.75</ele><time>2026-05-03T07:45:58Z</time></trkpt><trkpt lat="42.407710701811865" lon="18.778071038750888"><ele>460.0</ele><time>2026-05-03T07:45:59Z</time></trkpt><trkpt lat="42.407808132314315" lon="18.7781681400359"><ele>460.0</ele><time>2026-05-03T07:46:00Z</time></trkpt><trkpt lat="42.4079162048859" lon="18.778223960781034"><ele>460.0</ele><time>2026-05-03T07:46:01Z</time></trkpt><trkpt lat="42.408034081460876" lon="18.778275187038556"><ele>460.0</ele><time>2026-05-03T07:46:02Z</time></trkpt><trkpt lat="42.408180460390916" lon="18.778268517702486"><ele>460.0</ele><time>2026-05-03T07:46:03Z</time></trkpt><trkpt lat="42.408324390458596" lon="18.77821907345293"><ele>456.25</ele><time>2026-05-03T07:46:04Z</time></trkpt><trkpt lat="42.408463185264495" lon="18.77818351404975"><ele>452.5</ele><time>2026-05-03T07:46:05Z</time></trkpt><trkpt lat="42.40860460952781" lon="18.778142096797676"><ele>448.75</ele><time>2026-05-03T07:46:06Z</time></trkpt><trkpt lat="42.40874351447108" lon="18.77811284180308"><ele>445.0</ele><time>2026-05-03T07:46:07Z</time></trkpt><trkpt lat="42.4088818670862" lon="18.77816064979748"><ele>441.6666666666667</ele><time>2026-05-03T07:46:08Z</time></trkpt><trkpt lat="42.40900626057946" lon="18.778234217980113"><ele>438.33333333333337</ele><time>2026-05-03T07:46:09Z</time></trkpt><trkpt lat="42.40913271327586" lon="18.778324265028093"><ele>435.0</ele><time>2026-05-03T07:46:10Z</time></trkpt><trkpt lat="42.40928563503185" lon="18.77843716487711"><ele>435.0</ele><time>2026-05-03T07:46:11Z</time></trkpt><trkpt lat="42.40947679911355" lon="18.77851728917066"><ele>435.0</ele><time>2026-05-03T07:46:12Z</time></trkpt><trkpt lat="42.40970658276838" lon="18.77863897241459"><ele>435.0</ele><time>2026-05-03T07:46:13Z</time></trkpt><trkpt lat="42.40995226813119" lon="18.778759192805886"><ele>458.5</ele><time>2026-05-03T07:46:14Z</time></trkpt><trkpt lat="42.410190503448504" lon="18.778918886891883"><ele>482.0</ele><time>2026-05-03T07:46:15Z</time></trkpt><trkpt lat="42.4104275572669" lon="18.779071347660736"><ele>467.0</ele><time>2026-05-03T07:46:16Z</time></trkpt><trkpt lat="42.41067107006431" lon="18.779168321092108"><ele>452.0</ele><time>2026-05-03T07:46:17Z</time></trkpt><trkpt lat="42.41094262881745" lon="18.779255211256874"><ele>452.0</ele><time>2026-05-03T07:46:18Z</time></trkpt><trkpt lat="42.41123631111395" lon="18.77930372446539"><ele>452.0</ele><time>2026-05-03T07:46:19Z</time></trkpt><trkpt lat="42.41149211464346" lon="18.77934446019163"><ele>464.3333333333333</ele><time>2026-05-03T07:46:20Z</time></trkpt><trkpt lat="42.411708269130685" lon="18.77937884214405"><ele>476.66666666666663</ele><time>2026-05-03T07:46:21Z</time></trkpt><trkpt lat="42.41188413385978" lon="18.77939730719257"><ele>489.0</ele><time>2026-05-03T07:46:22Z</time></trkpt><trkpt lat="42.41203150088685" lon="18.7794377214331"><ele>489.0</ele><time>2026-05-03T07:46:23Z</time></trkpt><trkpt lat="42.412156251919676" lon="18.779484968349443"><ele>489.0</ele><time>2026-05-03T07:46:24Z</time></trkpt><trkpt lat="42.41226318403063" lon="18.779577955950558"><ele>489.0</ele><time>2026-05-03T07:46:25Z</time></trkpt><trkpt lat="42.41235593578203" lon="18.779699675380794"><ele>489.0</ele><time>2026-05-03T07:46:26Z</time></trkpt><trkpt lat="42.41245497304283" lon="18.77978610658487"><ele>484.0</ele><time>2026-05-03T07:46:27Z</time></trkpt><trkpt lat="42.4126040833197" lon="18.779734285500652"><ele>479.0</ele><time>2026-05-03T07:46:28Z</time></trkpt><trkpt lat="42.41277074722582" lon="18.779679049827347"><ele>474.0</ele><time>2026-05-03T07:46:29Z</time></trkpt><trkpt lat="42.41294881749232" lon="18.77964729435153"><ele>473.79999999999995</ele><time>2026-05-03T07:46:30Z</time></trkpt><trkpt lat="42.41308177251413" lon="18.77965393553149"><ele>473.59999999999997</ele><time>2026-05-03T07:46:31Z</time></trkpt><trkpt lat="42.413173097208464" lon="18.779667618769366"><ele>473.4</ele><time>2026-05-03T07:46:32Z</time></trkpt><trkpt lat="42.41327524709506" lon="18.779735344953256"><ele>473.2</ele><time>2026-05-03T07:46:34Z</time></trkpt><trkpt lat="42.413282945783266" lon="18.779823862564516"><ele>473.0</ele><time>2026-05-03T07:46:35Z</time></trkpt><trkpt lat="42.413238964270846" lon="18.779902155540004"><ele>473.0</ele><time>2026-05-03T07:46:36Z</time></trkpt><trkpt lat="42.41315441278314" lon="18.779924519552"><ele>473.0</ele><time>2026-05-03T07:46:37Z</time></trkpt><trkpt lat="42.413051367078815" lon="18.77982364521864"><ele>473.0</ele><time>2026-05-03T07:46:38Z</time></trkpt><trkpt lat="42.41293631183022" lon="18.77977545931854"><ele>473.0</ele><time>2026-05-03T07:46:39Z</time></trkpt><trkpt lat="42.41279923517639" lon="18.779738134326053"><ele>473.25</ele><time>2026-05-03T07:46:40Z</time></trkpt><trkpt lat="42.41266234587223" lon="18.77974202789861"><ele>473.5</ele><time>2026-05-03T07:46:41Z</time></trkpt><trkpt lat="42.41254010443574" lon="18.779862205225207"><ele>473.75</ele><time>2026-05-03T07:46:42Z</time></trkpt><trkpt lat="42.412421041932134" lon="18.779917525012706"><ele>474.0</ele><time>2026-05-03T07:46:43Z</time></trkpt><trkpt lat="42.41232412317485" lon="18.779939065670124"><ele>474.0</ele><time>2026-05-03T07:46:44Z</time></trkpt><trkpt lat="42.412239263933586" lon="18.779903144554975"><ele>474.0</ele><time>2026-05-03T07:46:45Z</time></trkpt><trkpt lat="42.41219443591378" lon="18.779713330691887"><ele>474.0</ele><time>2026-05-03T07:46:46Z</time></trkpt><trkpt lat="42.412126666763726" lon="18.779692614503027"><ele>474.0</ele><time>2026-05-03T07:46:47Z</time></trkpt><trkpt lat="42.412048524152446" lon="18.779626943512756"><ele>474.0</ele><time>2026-05-03T07:46:48Z</time></trkpt><trkpt lat="42.411921883033685" lon="18.77962514244511"><ele>477.75</ele><time>2026-05-03T07:46:49Z</time></trkpt><trkpt lat="42.41179864412122" lon="18.779648172902533"><ele>481.5</ele><time>2026-05-03T07:46:50Z</time></trkpt><trkpt lat="42.411662267006406" lon="18.779663187998228"><ele>485.25</ele><time>2026-05-03T07:46:51Z</time></trkpt><trkpt lat="42.411518237409055" lon="18.779678909285703"><ele>489.0</ele><time>2026-05-03T07:46:52Z</time></trkpt><trkpt lat="42.41137952232991" lon="18.779716386950888"><ele>493.0</ele><time>2026-05-03T07:46:53Z</time></trkpt><trkpt lat="42.411240379961534" lon="18.7797286641729"><ele>497.0</ele><time>2026-05-03T07:46:54Z</time></trkpt><trkpt lat="42.41111552117787" lon="18.779736173232884"><ele>501.0</ele><time>2026-05-03T07:46:55Z</time></trkpt><trkpt lat="42.41101245631511" lon="18.77969696526366"><ele>505.0</ele><time>2026-05-03T07:46:56Z</time></trkpt><trkpt lat="42.410915818005634" lon="18.779661621604422"><ele>505.0</ele><time>2026-05-03T07:46:57Z</time></trkpt><trkpt lat="42.410823182022995" lon="18.77960164465582"><ele>505.0</ele><time>2026-05-03T07:46:58Z</time></trkpt><trkpt lat="42.4107236708448" lon="18.77955236235684"><ele>505.0</ele><time>2026-05-03T07:46:59Z</time></trkpt><trkpt lat="42.41061617403879" lon="18.779543622243096"><ele>505.0</ele><time>2026-05-03T07:47:00Z</time></trkpt><trkpt lat="42.4105051295262" lon="18.779529623383418"><ele>505.0</ele><time>2026-05-03T07:47:01Z</time></trkpt><trkpt lat="42.410382982198456" lon="18.779526270200936"><ele>510.5</ele><time>2026-05-03T07:47:02Z</time></trkpt><trkpt lat="42.41025778268962" lon="18.77947900682258"><ele>516.0</ele><time>2026-05-03T07:47:03Z</time></trkpt><trkpt lat="42.410126029106905" lon="18.77945878715349"><ele>521.5</ele><time>2026-05-03T07:47:04Z</time></trkpt><trkpt lat="42.41000258890539" lon="18.77941178770115"><ele>527.0</ele><time>2026-05-03T07:47:05Z</time></trkpt><trkpt lat="42.40989253850028" lon="18.779331848404823"><ele>520.2</ele><time>2026-05-03T07:47:06Z</time></trkpt><trkpt lat="42.409792760389855" lon="18.779250399570664"><ele>513.4000000000001</ele><time>2026-05-03T07:47:07Z</time></trkpt><trkpt lat="42.40976389548333" lon="18.779125970319832"><ele>506.59999999999997</ele><time>2026-05-03T07:47:08Z</time></trkpt><trkpt lat="42.409701524634286" lon="18.77902036363796"><ele>499.79999999999995</ele><time>2026-05-03T07:47:09Z</time></trkpt><trkpt lat="42.40965211921543" lon="18.77894929486228"><ele>493.0</ele><time>2026-05-03T07:47:10Z</time></trkpt><trkpt lat="42.40956616767641" lon="18.77887865552721"><ele>493.0</ele><time>2026-05-03T07:47:11Z</time></trkpt><trkpt lat="42.409439546628434" lon="18.778886510133976"><ele>493.0</ele><time>2026-05-03T07:47:12Z</time></trkpt><trkpt lat="42.40933192895805" lon="18.778915267312378"><ele>493.0</ele><time>2026-05-03T07:47:13Z</time></trkpt><trkpt lat="42.40920932359672" lon="18.778931186740884"><ele>493.0</ele><time>2026-05-03T07:47:14Z</time></trkpt><trkpt lat="42.40906599558028" lon="18.77895046221379"><ele>493.0</ele><time>2026-05-03T07:47:15Z</time></trkpt><trkpt lat="42.40890092930048" lon="18.778972490844172"><ele>493.0</ele><time>2026-05-03T07:47:16Z</time></trkpt><trkpt lat="42.40875135992175" lon="18.77899178120426"><ele>493.0</ele><time>2026-05-03T07:47:17Z</time></trkpt><trkpt lat="42.40862364228867" lon="18.779008028301543"><ele>493.0</ele><time>2026-05-03T07:47:18Z</time></trkpt><trkpt lat="42.408493560425846" lon="18.779024612726392"><ele>493.0</ele><time>2026-05-03T07:47:19Z</time></trkpt><trkpt lat="42.40837222395423" lon="18.77904008218328"><ele>492.99999999999994</ele><time>2026-05-03T07:47:20Z</time></trkpt><trkpt lat="42.408263509494674" lon="18.779053942437606"><ele>492.99999999999994</ele><time>2026-05-03T07:47:21Z</time></trkpt><trkpt lat="42.40816388668884" lon="18.779066643566697"><ele>493.0</ele><time>2026-05-03T07:47:22Z</time></trkpt><trkpt lat="42.408065833779574" lon="18.779109402955925"><ele>493.0</ele><time>2026-05-03T07:47:23Z</time></trkpt><trkpt lat="42.40797650659382" lon="18.779194100260785"><ele>493.0</ele><time>2026-05-03T07:47:24Z</time></trkpt><trkpt lat="42.40787827561246" lon="18.779263613818316"><ele>493.0</ele><time>2026-05-03T07:47:25Z</time></trkpt><trkpt lat="42.40777291648475" lon="18.77934561437708"><ele>493.0</ele><time>2026-05-03T07:47:26Z</time></trkpt><trkpt lat="42.40764979272829" lon="18.77939685228363"><ele>493.0</ele><time>2026-05-03T07:47:27Z</time></trkpt><trkpt lat="42.40753064160651" lon="18.77944598022192"><ele>497.2</ele><time>2026-05-03T07:47:28Z</time></trkpt><trkpt lat="42.40741587217786" lon="18.779470294512784"><ele>501.4</ele><time>2026-05-03T07:47:29Z</time></trkpt><trkpt lat="42.40731628515967" lon="18.77948430832621"><ele>505.59999999999997</ele><time>2026-05-03T07:47:30Z</time></trkpt><trkpt lat="42.40722974183336" lon="18.7794712861859"><ele>509.79999999999995</ele><time>2026-05-03T07:47:31Z</time></trkpt><trkpt lat="42.40714446283841" lon="18.77943584147878"><ele>514.0</ele><time>2026-05-03T07:47:32Z</time></trkpt><trkpt lat="42.407087351309" lon="18.779338032883395"><ele>514.0</ele><time>2026-05-03T07:47:33Z</time></trkpt><trkpt lat="42.40703182714647" lon="18.779230566793476"><ele>514.0</ele><time>2026-05-03T07:47:34Z</time></trkpt><trkpt lat="42.40696079511904" lon="18.779108474699957"><ele>514.0</ele><time>2026-05-03T07:47:35Z</time></trkpt><trkpt lat="42.40687552192967" lon="18.77898161579627"><ele>514.0</ele><time>2026-05-03T07:47:36Z</time></trkpt><trkpt lat="42.406701369802235" lon="18.77896435651567"><ele>514.0</ele><time>2026-05-03T07:47:37Z</time></trkpt><trkpt lat="42.406559184014" lon="18.77891137915957"><ele>514.0</ele><time>2026-05-03T07:47:38Z</time></trkpt><trkpt lat="42.40640371169578" lon="18.778827411929093"><ele>514.0</ele><time>2026-05-03T07:47:39Z</time></trkpt><trkpt lat="42.406229150398794" lon="18.778744955767884"><ele>510.6666666666667</ele><time>2026-05-03T07:47:40Z</time></trkpt><trkpt lat="42.40605172992872" lon="18.778648359733392"><ele>507.33333333333337</ele><time>2026-05-03T07:47:41Z</time></trkpt><trkpt lat="42.40588995018453" lon="18.778559537763847"><ele>504.0</ele><time>2026-05-03T07:47:42Z</time></trkpt><trkpt lat="42.40574696411122" lon="18.778479956127725"><ele>504.0</ele><time>2026-05-03T07:47:43Z</time></trkpt><trkpt lat="42.40562078583199" lon="18.778410191208593"><ele>504.0</ele><time>2026-05-03T07:47:44Z</time></trkpt><trkpt lat="42.405507493829376" lon="18.77835198549593"><ele>504.0</ele><time>2026-05-03T07:47:45Z</time></trkpt><trkpt lat="42.40539974450077" lon="18.778302091174517"><ele>504.0</ele><time>2026-05-03T07:47:46Z</time></trkpt><trkpt lat="42.40527901800231" lon="18.77826753111986"><ele>510.0</ele><time>2026-05-03T07:47:47Z</time></trkpt><trkpt lat="42.40516205620603" lon="18.778219412966227"><ele>516.0</ele><time>2026-05-03T07:47:48Z</time></trkpt><trkpt lat="42.405045487619525" lon="18.77819239206337"><ele>522.0</ele><time>2026-05-03T07:47:49Z</time></trkpt><trkpt lat="42.404931493966366" lon="18.778157001726505"><ele>528.0</ele><time>2026-05-03T07:47:50Z</time></trkpt><trkpt lat="42.404826862856055" lon="18.77811979746061"><ele>528.0</ele><time>2026-05-03T07:47:51Z</time></trkpt><trkpt lat="42.40476204962906" lon="18.77801131299078"><ele>528.0</ele><time>2026-05-03T07:47:52Z</time></trkpt><trkpt lat="42.40470969831842" lon="18.77790921283371"><ele>528.0</ele><time>2026-05-03T07:47:53Z</time></trkpt><trkpt lat="42.40463849865427" lon="18.77784558101149"><ele>528.0</ele><time>2026-05-03T07:47:54Z</time></trkpt><trkpt lat="42.4045770177724" lon="18.77780043144243"><ele>528.0</ele><time>2026-05-03T07:47:55Z</time></trkpt><trkpt lat="42.40449287496594" lon="18.77778553065663"><ele>528.0</ele><time>2026-05-03T07:47:56Z</time></trkpt><trkpt lat="42.404395597382" lon="18.77783191206908"><ele>524.8</ele><time>2026-05-03T07:47:57Z</time></trkpt><trkpt lat="42.40430018829296" lon="18.777823350506896"><ele>521.5999999999999</ele><time>2026-05-03T07:47:58Z</time></trkpt><trkpt lat="42.404197771748386" lon="18.777813795528346"><ele>518.4000000000001</ele><time>2026-05-03T07:47:59Z</time></trkpt><trkpt lat="42.40410394049293" lon="18.777750639744436"><ele>515.2</ele><time>2026-05-03T07:48:00Z</time></trkpt><trkpt lat="42.40401248873433" lon="18.777670553228624"><ele>512.0</ele><time>2026-05-03T07:48:01Z</time></trkpt><trkpt lat="42.40392602394422" lon="18.777600952316032"><ele>512.0</ele><time>2026-05-03T07:48:02Z</time></trkpt><trkpt lat="42.40383557065961" lon="18.777528281761363"><ele>512.0</ele><time>2026-05-03T07:48:03Z</time></trkpt><trkpt lat="42.403753159764854" lon="18.777464721255637"><ele>512.0</ele><time>2026-05-03T07:48:04Z</time></trkpt><trkpt lat="42.40366807336155" lon="18.777404525801604"><ele>512.0</ele><time>2026-05-03T07:48:05Z</time></trkpt><trkpt lat="42.403563619655344" lon="18.777330628707787"><ele>512.0</ele><time>2026-05-03T07:48:06Z</time></trkpt><trkpt lat="42.4034338249543" lon="18.77725152898747"><ele>516.0</ele><time>2026-05-03T07:48:07Z</time></trkpt><trkpt lat="42.40331452158797" lon="18.777192024993187"><ele>520.0</ele><time>2026-05-03T07:48:08Z</time></trkpt><trkpt lat="42.403210169486485" lon="18.777139483956798"><ele>524.0</ele><time>2026-05-03T07:48:09Z</time></trkpt><trkpt lat="42.40311796124873" lon="18.777116812210103"><ele>528.0</ele><time>2026-05-03T07:48:10Z</time></trkpt><trkpt lat="42.4030538399027" lon="18.777060665743225"><ele>532.0</ele><time>2026-05-03T07:48:11Z</time></trkpt><trkpt lat="42.4029410943838" lon="18.7770667174402"><ele>532.0</ele><time>2026-05-03T07:48:13Z</time></trkpt><trkpt lat="42.402901762217475" lon="18.777182730441908"><ele>532.0</ele><time>2026-05-03T07:48:14Z</time></trkpt><trkpt lat="42.4029748952147" lon="18.777321216631872"><ele>532.0</ele><time>2026-05-03T07:48:15Z</time></trkpt><trkpt lat="42.40305968049822" lon="18.777382557934708"><ele>532.0</ele><time>2026-05-03T07:48:16Z</time></trkpt><trkpt lat="42.403183239122995" lon="18.777434745604616"><ele>532.0</ele><time>2026-05-03T07:48:17Z</time></trkpt><trkpt lat="42.403335571953534" lon="18.777492812869983"><ele>532.0</ele><time>2026-05-03T07:48:18Z</time></trkpt><trkpt lat="42.403504078390796" lon="18.77757347963734"><ele>532.0</ele><time>2026-05-03T07:48:19Z</time></trkpt><trkpt lat="42.40364909754499" lon="18.77770682823354"><ele>532.0</ele><time>2026-05-03T07:48:20Z</time></trkpt><trkpt lat="42.403815988535" lon="18.777850733403103"><ele>540.0</ele><time>2026-05-03T07:48:21Z</time></trkpt><trkpt lat="42.40400011515529" lon="18.778023102885978"><ele>548.0</ele><time>2026-05-03T07:48:22Z</time></trkpt><trkpt lat="42.404233030749694" lon="18.778178058759853"><ele>548.0</ele><time>2026-05-03T07:48:23Z</time></trkpt><trkpt lat="42.404479885274036" lon="18.778343406848283"><ele>548.0</ele><time>2026-05-03T07:48:24Z</time></trkpt><trkpt lat="42.40472047029887" lon="18.778498979395472"><ele>560.5</ele><time>2026-05-03T07:48:25Z</time></trkpt><trkpt lat="42.404959569099425" lon="18.778650244764215"><ele>573.0</ele><time>2026-05-03T07:48:26Z</time></trkpt><trkpt lat="42.40519020667123" lon="18.778790956766418"><ele>573.0</ele><time>2026-05-03T07:48:27Z</time></trkpt><trkpt lat="42.40540203611575" lon="18.778954343685687"><ele>573.0</ele><time>2026-05-03T07:48:28Z</time></trkpt><trkpt lat="42.405593674586335" lon="18.779081053787483"><ele>574.5</ele><time>2026-05-03T07:48:29Z</time></trkpt><trkpt lat="42.40575531490789" lon="18.779164585433094"><ele>576.0</ele><time>2026-05-03T07:48:30Z</time></trkpt><trkpt lat="42.40587216716534" lon="18.779237368181263"><ele>577.5</ele><time>2026-05-03T07:48:31Z</time></trkpt><trkpt lat="42.40595801757427" lon="18.779308497034854"><ele>579.0</ele><time>2026-05-03T07:48:32Z</time></trkpt><trkpt lat="42.40602309836934" lon="18.77939189200238"><ele>579.0</ele><time>2026-05-03T07:48:33Z</time></trkpt><trkpt lat="42.40608294555541" lon="18.779518921684787"><ele>579.0</ele><time>2026-05-03T07:48:34Z</time></trkpt><trkpt lat="42.40613505780181" lon="18.779691751162773"><ele>579.0</ele><time>2026-05-03T07:48:35Z</time></trkpt><trkpt lat="42.40619641780266" lon="18.7798804536098"><ele>579.0</ele><time>2026-05-03T07:48:36Z</time></trkpt><trkpt lat="42.40628922621498" lon="18.78007495875797"><ele>577.75</ele><time>2026-05-03T07:48:37Z</time></trkpt><trkpt lat="42.40639354695667" lon="18.780223302218705"><ele>576.5</ele><time>2026-05-03T07:48:38Z</time></trkpt><trkpt lat="42.40649931893185" lon="18.780353000193188"><ele>575.25</ele><time>2026-05-03T07:48:39Z</time></trkpt><trkpt lat="42.40660044690737" lon="18.780482971174955"><ele>574.0</ele><time>2026-05-03T07:48:40Z</time></trkpt><trkpt lat="42.40670526680272" lon="18.780593973548722"><ele>574.0</ele><time>2026-05-03T07:48:41Z</time></trkpt><trkpt lat="42.40680645524588" lon="18.780687888843197"><ele>574.0</ele><time>2026-05-03T07:48:42Z</time></trkpt><trkpt lat="42.40696051046445" lon="18.780662633739553"><ele>574.0</ele><time>2026-05-03T07:48:43Z</time></trkpt><trkpt lat="42.40711294038732" lon="18.7806220401091"><ele>574.0</ele><time>2026-05-03T07:48:44Z</time></trkpt><trkpt lat="42.407321360931164" lon="18.780590899389082"><ele>576.3333333333334</ele><time>2026-05-03T07:48:45Z</time></trkpt><trkpt lat="42.407545230141274" lon="18.78052821476182"><ele>578.6666666666666</ele><time>2026-05-03T07:48:46Z</time></trkpt><trkpt lat="42.40775724679" lon="18.780459397670594"><ele>581.0</ele><time>2026-05-03T07:48:47Z</time></trkpt><trkpt lat="42.40793267459628" lon="18.780382792149243"><ele>582.75</ele><time>2026-05-03T07:48:48Z</time></trkpt><trkpt lat="42.40807458079775" lon="18.780319731569506"><ele>584.5</ele><time>2026-05-03T07:48:49Z</time></trkpt><trkpt lat="42.40818033272861" lon="18.780263588094904"><ele>586.25</ele><time>2026-05-03T07:48:50Z</time></trkpt><trkpt lat="42.408265359038516" lon="18.780265387994252"><ele>588.0</ele><time>2026-05-03T07:48:51Z</time></trkpt><trkpt lat="42.408367763978966" lon="18.780251099438328"><ele>588.0</ele><time>2026-05-03T07:48:52Z</time></trkpt><trkpt lat="42.408476826740646" lon="18.780321675448622"><ele>588.0</ele><time>2026-05-03T07:48:53Z</time></trkpt><trkpt lat="42.408619574624424" lon="18.780389887397725"><ele>588.0</ele><time>2026-05-03T07:48:54Z</time></trkpt><trkpt lat="42.40876825351504" lon="18.780464178771343"><ele>588.0</ele><time>2026-05-03T07:48:55Z</time></trkpt><trkpt lat="42.4089130835019" lon="18.780525985461075"><ele>586.0</ele><time>2026-05-03T07:48:56Z</time></trkpt><trkpt lat="42.40905052158829" lon="18.78054652640642"><ele>584.0</ele><time>2026-05-03T07:48:57Z</time></trkpt><trkpt lat="42.409162343860054" lon="18.780544722512722"><ele>582.0</ele><time>2026-05-03T07:48:58Z</time></trkpt><trkpt lat="42.409253832792295" lon="18.780518164840093"><ele>580.0</ele><time>2026-05-03T07:48:59Z</time></trkpt><trkpt lat="42.4093179208159" lon="18.780539988262056"><ele>578.0</ele><time>2026-05-03T07:49:00Z</time></trkpt><trkpt lat="42.40934189257779" lon="18.780694803990933"><ele>578.0</ele><time>2026-05-03T07:49:02Z</time></trkpt><trkpt lat="42.409280923604946" lon="18.780751190197293"><ele>578.0</ele><time>2026-05-03T07:49:03Z</time></trkpt><trkpt lat="42.40919743362405" lon="18.780678864644017"><ele>578.0</ele><time>2026-05-03T07:49:04Z</time></trkpt><trkpt lat="42.4090857162381" lon="18.78062727790008"><ele>578.0</ele><time>2026-05-03T07:49:05Z</time></trkpt><trkpt lat="42.40893600963163" lon="18.78059047968166"><ele>578.0</ele><time>2026-05-03T07:49:06Z</time></trkpt><trkpt lat="42.40875329775401" lon="18.78053779609101"><ele>580.5</ele><time>2026-05-03T07:49:07Z</time></trkpt><trkpt lat="42.408585456303925" lon="18.780501465580222"><ele>583.0</ele><time>2026-05-03T07:49:08Z</time></trkpt><trkpt lat="42.408451229831286" lon="18.780490337465366"><ele>585.5</ele><time>2026-05-03T07:49:09Z</time></trkpt><trkpt lat="42.40835002473049" lon="18.78048014210811"><ele>588.0</ele><time>2026-05-03T07:49:10Z</time></trkpt><trkpt lat="42.40826184589023" lon="18.78048766718917"><ele>588.0</ele><time>2026-05-03T07:49:11Z</time></trkpt><trkpt lat="42.40815880299699" lon="18.78052760046957"><ele>588.0</ele><time>2026-05-03T07:49:12Z</time></trkpt><trkpt lat="42.4080303720046" lon="18.780612545347466"><ele>588.0</ele><time>2026-05-03T07:49:13Z</time></trkpt><trkpt lat="42.40787522793361" lon="18.780717573572115"><ele>588.0</ele><time>2026-05-03T07:49:14Z</time></trkpt><trkpt lat="42.40768664207804" lon="18.780778776686805"><ele>585.6666666666666</ele><time>2026-05-03T07:49:15Z</time></trkpt><trkpt lat="42.40750254773759" lon="18.780890122776142"><ele>583.3333333333333</ele><time>2026-05-03T07:49:16Z</time></trkpt><trkpt lat="42.40734081599242" lon="18.780995883737805"><ele>581.0</ele><time>2026-05-03T07:49:17Z</time></trkpt><trkpt lat="42.407189564474756" lon="18.781079839885592"><ele>588.25</ele><time>2026-05-03T07:49:18Z</time></trkpt><trkpt lat="42.407060389891" lon="18.78116601168794"><ele>595.5</ele><time>2026-05-03T07:49:19Z</time></trkpt><trkpt lat="42.406941822671634" lon="18.781195352956885"><ele>602.75</ele><time>2026-05-03T07:49:20Z</time></trkpt><trkpt lat="42.40682214526769" lon="18.781213973288512"><ele>610.0</ele><time>2026-05-03T07:49:21Z</time></trkpt><trkpt lat="42.406703495565004" lon="18.781181887182605"><ele>610.0</ele><time>2026-05-03T07:49:22Z</time></trkpt><trkpt lat="42.406556554133246" lon="18.78116136095313"><ele>610.0</ele><time>2026-05-03T07:49:23Z</time></trkpt><trkpt lat="42.406406387328296" lon="18.781140820892862"><ele>610.0</ele><time>2026-05-03T07:49:24Z</time></trkpt><trkpt lat="42.40627482549561" lon="18.781122328119274"><ele>610.0</ele><time>2026-05-03T07:49:25Z</time></trkpt><trkpt lat="42.406159125107166" lon="18.781106316898132"><ele>608.6</ele><time>2026-05-03T07:49:26Z</time></trkpt><trkpt lat="42.40606828748553" lon="18.781075029044185"><ele>607.2</ele><time>2026-05-03T07:49:27Z</time></trkpt><trkpt lat="42.405978327057525" lon="18.781030048974944"><ele>605.8</ele><time>2026-05-03T07:49:28Z</time></trkpt><trkpt lat="42.405931279593275" lon="18.780920891908146"><ele>604.4</ele><time>2026-05-03T07:49:29Z</time></trkpt><trkpt lat="42.40587785854689" lon="18.780797082391175"><ele>603.0</ele><time>2026-05-03T07:49:30Z</time></trkpt><trkpt lat="42.40586623288989" lon="18.780663060086056"><ele>603.0</ele><time>2026-05-03T07:49:31Z</time></trkpt><trkpt lat="42.405833956096686" lon="18.780509122113457"><ele>603.0</ele><time>2026-05-03T07:49:32Z</time></trkpt><trkpt lat="42.40579359613556" lon="18.780371466212312"><ele>603.0</ele><time>2026-05-03T07:49:33Z</time></trkpt><trkpt lat="42.405732942015426" lon="18.780221477750693"><ele>603.0</ele><time>2026-05-03T07:49:34Z</time></trkpt><trkpt lat="42.405655013429524" lon="18.780089777196267"><ele>606.5</ele><time>2026-05-03T07:49:35Z</time></trkpt><trkpt lat="42.40554347904367" lon="18.78000309893977"><ele>610.0</ele><time>2026-05-03T07:49:36Z</time></trkpt><trkpt lat="42.40544057078497" lon="18.77990511891751"><ele>613.5</ele><time>2026-05-03T07:49:37Z</time></trkpt><trkpt lat="42.40530165921632" lon="18.77989081450715"><ele>617.0</ele><time>2026-05-03T07:49:38Z</time></trkpt><trkpt lat="42.40517780978807" lon="18.77981770308554"><ele>617.0</ele><time>2026-05-03T07:49:39Z</time></trkpt><trkpt lat="42.40506384841037" lon="18.779716306309812"><ele>617.0</ele><time>2026-05-03T07:49:40Z</time></trkpt><trkpt lat="42.404942500829904" lon="18.779653834419697"><ele>617.0</ele><time>2026-05-03T07:49:41Z</time></trkpt><trkpt lat="42.404786464986856" lon="18.77966027717889"><ele>617.0</ele><time>2026-05-03T07:49:42Z</time></trkpt><trkpt lat="42.404601681601974" lon="18.779658029883574"><ele>624.5</ele><time>2026-05-03T07:49:43Z</time></trkpt><trkpt lat="42.40436992228376" lon="18.779657335533248"><ele>632.0</ele><time>2026-05-03T07:49:44Z</time></trkpt><trkpt lat="42.404125872814696" lon="18.779600302918222"><ele>632.0</ele><time>2026-05-03T07:49:45Z</time></trkpt><trkpt lat="42.403924551260104" lon="18.779548280505637"><ele>632.0</ele><time>2026-05-03T07:49:46Z</time></trkpt><trkpt lat="42.40377026232325" lon="18.77952117786411"><ele>632.0</ele><time>2026-05-03T07:49:47Z</time></trkpt><trkpt lat="42.40365353628253" lon="18.779451952282336"><ele>635.2</ele><time>2026-05-03T07:49:48Z</time></trkpt><trkpt lat="42.4035765802211" lon="18.779391427101373"><ele>638.4000000000001</ele><time>2026-05-03T07:49:49Z</time></trkpt><trkpt lat="42.40349641875013" lon="18.77933725290916"><ele>641.5999999999999</ele><time>2026-05-03T07:49:50Z</time></trkpt><trkpt lat="42.40339206354401" lon="18.77926576674814"><ele>644.8</ele><time>2026-05-03T07:49:51Z</time></trkpt><trkpt lat="42.40326746706217" lon="18.77917742297056"><ele>648.0</ele><time>2026-05-03T07:49:52Z</time></trkpt><trkpt lat="42.40312332736004" lon="18.77907570762954"><ele>643.0</ele><time>2026-05-03T07:49:53Z</time></trkpt><trkpt lat="42.40299812858987" lon="18.778970686686"><ele>638.0</ele><time>2026-05-03T07:49:54Z</time></trkpt><trkpt lat="42.40289163747494" lon="18.77887368880951"><ele>633.0</ele><time>2026-05-03T07:49:55Z</time></trkpt><trkpt lat="42.40279365836872" lon="18.778783996838193"><ele>628.0</ele><time>2026-05-03T07:49:56Z</time></trkpt><trkpt lat="42.402733485551124" lon="18.778670559808656"><ele>628.0</ele><time>2026-05-03T07:49:57Z</time></trkpt><trkpt lat="42.40266828049838" lon="18.778576717899128"><ele>628.0</ele><time>2026-05-03T07:49:58Z</time></trkpt><trkpt lat="42.40261295350157" lon="18.778491190860507"><ele>628.0</ele><time>2026-05-03T07:49:59Z</time></trkpt><trkpt lat="42.40254537237738" lon="18.778387014555342"><ele>628.0</ele><time>2026-05-03T07:50:01Z</time></trkpt><trkpt lat="42.402434263905654" lon="18.778409691753698"><ele>628.0</ele><time>2026-05-03T07:50:02Z</time></trkpt><trkpt lat="42.402389249881935" lon="18.77858266070406"><ele>628.0</ele><time>2026-05-03T07:50:03Z</time></trkpt><trkpt lat="42.402397076003254" lon="18.778671529781974"><ele>628.0</ele><time>2026-05-03T07:50:04Z</time></trkpt><trkpt lat="42.40244946007065" lon="18.77875750982726"><ele>628.0</ele><time>2026-05-03T07:50:05Z</time></trkpt><trkpt lat="42.40254525267079" lon="18.778818684646968"><ele>628.0</ele><time>2026-05-03T07:50:06Z</time></trkpt><trkpt lat="42.40266955485143" lon="18.778886999545865"><ele>628.0</ele><time>2026-05-03T07:50:07Z</time></trkpt><trkpt lat="42.40279206248878" lon="18.779018006375708"><ele>628.0</ele><time>2026-05-03T07:50:08Z</time></trkpt><trkpt lat="42.402937404001236" lon="18.77913587734346"><ele>628.0</ele><time>2026-05-03T07:50:09Z</time></trkpt><trkpt lat="42.40307003994398" lon="18.77927008330864"><ele>628.0</ele><time>2026-05-03T07:50:10Z</time></trkpt><trkpt lat="42.403358216049845" lon="18.77955862146471"><ele>629.3333333333334</ele><time>2026-05-03T07:50:12Z</time></trkpt><trkpt lat="42.403534259617494" lon="18.779689689545023"><ele>630.6666666666666</ele><time>2026-05-03T07:50:13Z</time></trkpt><trkpt lat="42.4037042638574" lon="18.779793229871782"><ele>632.0</ele><time>2026-05-03T07:50:14Z</time></trkpt><trkpt lat="42.40390469307879" lon="18.779874339820683"><ele>632.0</ele><time>2026-05-03T07:50:15Z</time></trkpt><trkpt lat="42.40412684015196" lon="18.779964893517402"><ele>632.0</ele><time>2026-05-03T07:50:16Z</time></trkpt><trkpt lat="42.404347270062146" lon="18.78004971624935"><ele>632.0</ele><time>2026-05-03T07:50:17Z</time></trkpt><trkpt lat="42.40454276343711" lon="18.780128816968574"><ele>632.0</ele><time>2026-05-03T07:50:18Z</time></trkpt><trkpt lat="42.40470395443205" lon="18.780197957131804"><ele>632.0</ele><time>2026-05-03T07:50:19Z</time></trkpt><trkpt lat="42.40483800952193" lon="18.78025083572094"><ele>634.4000000000001</ele><time>2026-05-03T07:50:20Z</time></trkpt><trkpt lat="42.404929942797686" lon="18.780283086564637"><ele>636.8000000000001</ele><time>2026-05-03T07:50:21Z</time></trkpt><trkpt lat="42.40499919091214" lon="18.780286037873207"><ele>639.2</ele><time>2026-05-03T07:50:22Z</time></trkpt><trkpt lat="42.40509149100279" lon="18.780349627022225"><ele>641.6</ele><time>2026-05-03T07:50:24Z</time></trkpt><trkpt lat="42.40506390649804" lon="18.780487514363813"><ele>644.0</ele><time>2026-05-03T07:50:26Z</time></trkpt><trkpt lat="42.40498693725594" lon="18.78045797028953"><ele>644.0</ele><time>2026-05-03T07:50:27Z</time></trkpt><trkpt lat="42.40494245369722" lon="18.78033924667277"><ele>644.0</ele><time>2026-05-03T07:50:28Z</time></trkpt><trkpt lat="42.40487195437034" lon="18.7803073919933"><ele>644.0</ele><time>2026-05-03T07:50:29Z</time></trkpt><trkpt lat="42.40476610229724" lon="18.78027890138071"><ele>644.0</ele><time>2026-05-03T07:50:30Z</time></trkpt><trkpt lat="42.40465084483798" lon="18.780283497131002"><ele>644.0</ele><time>2026-05-03T07:50:31Z</time></trkpt><trkpt lat="42.40453161297737" lon="18.780250646697493"><ele>641.0</ele><time>2026-05-03T07:50:32Z</time></trkpt><trkpt lat="42.40440464879445" lon="18.780229630621907"><ele>638.0</ele><time>2026-05-03T07:50:33Z</time></trkpt><trkpt lat="42.40427164925076" lon="18.78018575192044"><ele>635.0</ele><time>2026-05-03T07:50:34Z</time></trkpt><trkpt lat="42.404147316186396" lon="18.78013221835265"><ele>632.0</ele><time>2026-05-03T07:50:35Z</time></trkpt><trkpt lat="42.40400342561583" lon="18.780068268033627"><ele>637.3333333333333</ele><time>2026-05-03T07:50:36Z</time></trkpt><trkpt lat="42.403820336255244" lon="18.780062065075235"><ele>642.6666666666666</ele><time>2026-05-03T07:50:37Z</time></trkpt><trkpt lat="42.40364232587722" lon="18.780031248188426"><ele>648.0</ele><time>2026-05-03T07:50:38Z</time></trkpt><trkpt lat="42.403464442702564" lon="18.779971527552195"><ele>648.0</ele><time>2026-05-03T07:50:39Z</time></trkpt><trkpt lat="42.40329054434018" lon="18.779892538155135"><ele>648.0</ele><time>2026-05-03T07:50:40Z</time></trkpt><trkpt lat="42.403140368323875" lon="18.77979279398651"><ele>648.0</ele><time>2026-05-03T07:50:41Z</time></trkpt><trkpt lat="42.40299780793672" lon="18.779678579421766"><ele>652.25</ele><time>2026-05-03T07:50:42Z</time></trkpt><trkpt lat="42.402880800748704" lon="18.779568894348078"><ele>656.5</ele><time>2026-05-03T07:50:43Z</time></trkpt><trkpt lat="42.402776569959784" lon="18.77946242017281"><ele>660.75</ele><time>2026-05-03T07:50:44Z</time></trkpt><trkpt lat="42.40270166519862" lon="18.77938346526138"><ele>665.0</ele><time>2026-05-03T07:50:45Z</time></trkpt><trkpt lat="42.40257685947895" lon="18.779337001308477"><ele>665.0</ele><time>2026-05-03T07:50:47Z</time></trkpt><trkpt lat="42.402513024171185" lon="18.77944746852696"><ele>665.0</ele><time>2026-05-03T07:50:48Z</time></trkpt><trkpt lat="42.402534350717374" lon="18.779576943452987"><ele>665.0</ele><time>2026-05-03T07:50:49Z</time></trkpt><trkpt lat="42.40258561954244" lon="18.779664760894047"><ele>665.0</ele><time>2026-05-03T07:50:50Z</time></trkpt><trkpt lat="42.4026781227585" lon="18.779717354031316"><ele>665.0</ele><time>2026-05-03T07:50:51Z</time></trkpt><trkpt lat="42.40279478806601" lon="18.779755494607443"><ele>665.0</ele><time>2026-05-03T07:50:52Z</time></trkpt><trkpt lat="42.40291722775427" lon="18.779813280800234"><ele>665.0</ele><time>2026-05-03T07:50:53Z</time></trkpt><trkpt lat="42.4030396365844" lon="18.779921774338664"><ele>665.0</ele><time>2026-05-03T07:50:54Z</time></trkpt><trkpt lat="42.4031871083581" lon="18.78003337147816"><ele>665.0</ele><time>2026-05-03T07:50:55Z</time></trkpt><trkpt lat="42.403381062272146" lon="18.78013880062769"><ele>668.3333333333333</ele><time>2026-05-03T07:50:56Z</time></trkpt><trkpt lat="42.403580115717645" lon="18.780233703569394"><ele>671.6666666666666</ele><time>2026-05-03T07:50:57Z</time></trkpt><trkpt lat="42.40374147425743" lon="18.780296819156383"><ele>675.0</ele><time>2026-05-03T07:50:58Z</time></trkpt><trkpt lat="42.40388720190484" lon="18.780360551134777"><ele>675.0</ele><time>2026-05-03T07:50:59Z</time></trkpt><trkpt lat="42.40402625411987" lon="18.780451580974187"><ele>675.0</ele><time>2026-05-03T07:51:00Z</time></trkpt><trkpt lat="42.404158295479355" lon="18.780577099283825"><ele>675.0</ele><time>2026-05-03T07:51:01Z</time></trkpt><trkpt lat="42.40430770750396" lon="18.78069419712171"><ele>675.0</ele><time>2026-05-03T07:51:02Z</time></trkpt><trkpt lat="42.40446049354785" lon="18.780736592072362"><ele>675.0</ele><time>2026-05-03T07:51:03Z</time></trkpt><trkpt lat="42.404615661135374" lon="18.780759040068194"><ele>675.0</ele><time>2026-05-03T07:51:04Z</time></trkpt><trkpt lat="42.404738729485445" lon="18.780769154159554"><ele>675.0</ele><time>2026-05-03T07:51:05Z</time></trkpt><trkpt lat="42.40482875226448" lon="18.780812692209885"><ele>674.5</ele><time>2026-05-03T07:51:06Z</time></trkpt><trkpt lat="42.404889256431076" lon="18.780852195423638"><ele>674.0</ele><time>2026-05-03T07:51:07Z</time></trkpt><trkpt lat="42.40493389418147" lon="18.78098211976403"><ele>673.5</ele><time>2026-05-03T07:51:09Z</time></trkpt><trkpt lat="42.4048916968931" lon="18.78106067457296"><ele>673.0</ele><time>2026-05-03T07:51:10Z</time></trkpt><trkpt lat="42.40481390517629" lon="18.78107114897271"><ele>672.5</ele><time>2026-05-03T07:51:11Z</time></trkpt><trkpt lat="42.40477306672309" lon="18.78093166890158"><ele>672.0</ele><time>2026-05-03T07:51:12Z</time></trkpt><trkpt lat="42.40468036735081" lon="18.780860367248504"><ele>672.75</ele><time>2026-05-03T07:51:13Z</time></trkpt><trkpt lat="42.404575465994675" lon="18.78077915011904"><ele>673.5</ele><time>2026-05-03T07:51:14Z</time></trkpt><trkpt lat="42.40441139071405" lon="18.780810441630624"><ele>674.25</ele><time>2026-05-03T07:51:15Z</time></trkpt><trkpt lat="42.40426395092809" lon="18.780813666202626"><ele>675.0</ele><time>2026-05-03T07:51:16Z</time></trkpt><trkpt lat="42.404139954167924" lon="18.78079895821975"><ele>675.0</ele><time>2026-05-03T07:51:17Z</time></trkpt><trkpt lat="42.40407973534835" lon="18.780668724104295"><ele>675.0</ele><time>2026-05-03T07:51:18Z</time></trkpt><trkpt lat="42.4040056906654" lon="18.78061499525965"><ele>675.0</ele><time>2026-05-03T07:51:19Z</time></trkpt><trkpt lat="42.40391359107005" lon="18.7805512219709"><ele>675.0</ele><time>2026-05-03T07:51:20Z</time></trkpt><trkpt lat="42.40380549571935" lon="18.780524517686803"><ele>675.0</ele><time>2026-05-03T07:51:21Z</time></trkpt><trkpt lat="42.40367145308346" lon="18.780489219807176"><ele>681.3333333333334</ele><time>2026-05-03T07:51:22Z</time></trkpt><trkpt lat="42.40351996685581" lon="18.78047336092148"><ele>687.6666666666667</ele><time>2026-05-03T07:51:23Z</time></trkpt><trkpt lat="42.40336153790564" lon="18.780447030605654"><ele>694.0</ele><time>2026-05-03T07:51:24Z</time></trkpt><trkpt lat="42.40318624987914" lon="18.780402307279328"><ele>694.0</ele><time>2026-05-03T07:51:25Z</time></trkpt><trkpt lat="42.403018781905615" lon="18.780324653977022"><ele>694.0</ele><time>2026-05-03T07:51:26Z</time></trkpt><trkpt lat="42.40285081672855" lon="18.780231723750806"><ele>694.0</ele><time>2026-05-03T07:51:27Z</time></trkpt><trkpt lat="42.40270903080999" lon="18.780142992616373"><ele>686.75</ele><time>2026-05-03T07:51:28Z</time></trkpt><trkpt lat="42.40257783953848" lon="18.780089513562856"><ele>679.5</ele><time>2026-05-03T07:51:29Z</time></trkpt><trkpt lat="42.402455430869075" lon="18.78007458379593"><ele>672.25</ele><time>2026-05-03T07:51:30Z</time></trkpt><trkpt lat="42.40233999981305" lon="18.780100561283977"><ele>665.0</ele><time>2026-05-03T07:51:31Z</time></trkpt><trkpt lat="42.402236822775656" lon="18.780122189713712"><ele>663.0</ele><time>2026-05-03T07:51:32Z</time></trkpt><trkpt lat="42.402160972439866" lon="18.78014808150236"><ele>661.0</ele><time>2026-05-03T07:51:33Z</time></trkpt><trkpt lat="42.4020658155646" lon="18.780208584201315"><ele>659.0</ele><time>2026-05-03T07:51:35Z</time></trkpt><trkpt lat="42.40207289599142" lon="18.78031843729272"><ele>657.0</ele><time>2026-05-03T07:51:36Z</time></trkpt><trkpt lat="42.402154086750315" lon="18.780427525943367"><ele>655.0</ele><time>2026-05-03T07:51:38Z</time></trkpt><trkpt lat="42.40222484478682" lon="18.78041372474125"><ele>665.6</ele><time>2026-05-03T07:51:39Z</time></trkpt><trkpt lat="42.402309854412906" lon="18.78036810338787"><ele>676.2</ele><time>2026-05-03T07:51:40Z</time></trkpt><trkpt lat="42.4024146573467" lon="18.780308978110224"><ele>686.8</ele><time>2026-05-03T07:51:41Z</time></trkpt><trkpt lat="42.402537052316156" lon="18.78027203575158"><ele>697.4</ele><time>2026-05-03T07:51:42Z</time></trkpt><trkpt lat="42.4026508819756" lon="18.78030622146158"><ele>708.0</ele><time>2026-05-03T07:51:43Z</time></trkpt><trkpt lat="42.402761836971315" lon="18.78037753426707"><ele>708.0</ele><time>2026-05-03T07:51:44Z</time></trkpt><trkpt lat="42.40287708319145" lon="18.780475271844626"><ele>708.0</ele><time>2026-05-03T07:51:45Z</time></trkpt><trkpt lat="42.40302334653983" lon="18.780547873390496"><ele>708.0</ele><time>2026-05-03T07:51:46Z</time></trkpt><trkpt lat="42.40320321184102" lon="18.780619203667822"><ele>703.3333333333334</ele><time>2026-05-03T07:51:47Z</time></trkpt><trkpt lat="42.40337775973641" lon="18.78070398798009"><ele>698.6666666666667</ele><time>2026-05-03T07:51:48Z</time></trkpt><trkpt lat="42.40352062472368" lon="18.780846608961895"><ele>694.0</ele><time>2026-05-03T07:51:49Z</time></trkpt><trkpt lat="42.40365264385343" lon="18.780964696633802"><ele>699.0</ele><time>2026-05-03T07:51:50Z</time></trkpt><trkpt lat="42.40378091730075" lon="18.78108689732026"><ele>704.0</ele><time>2026-05-03T07:51:51Z</time></trkpt><trkpt lat="42.40389713371464" lon="18.781218429499027"><ele>709.0</ele><time>2026-05-03T07:51:52Z</time></trkpt><trkpt lat="42.404013946812334" lon="18.781329679986314"><ele>709.0</ele><time>2026-05-03T07:51:53Z</time></trkpt><trkpt lat="42.4041531215595" lon="18.781384656483844"><ele>709.0</ele><time>2026-05-03T07:51:54Z</time></trkpt><trkpt lat="42.4042940731416" lon="18.781440922152253"><ele>709.0</ele><time>2026-05-03T07:51:55Z</time></trkpt><trkpt lat="42.40443069782342" lon="18.781463505803185"><ele>709.0</ele><time>2026-05-03T07:51:56Z</time></trkpt><trkpt lat="42.404538767785255" lon="18.781498601493897"><ele>709.0</ele><time>2026-05-03T07:51:57Z</time></trkpt><trkpt lat="42.40463148364214" lon="18.781546061439816"><ele>709.0</ele><time>2026-05-03T07:51:58Z</time></trkpt><trkpt lat="42.40469665101714" lon="18.781591529321396"><ele>709.0</ele><time>2026-05-03T07:51:59Z</time></trkpt><trkpt lat="42.40471185381499" lon="18.78173087728955"><ele>709.0</ele><time>2026-05-03T07:52:01Z</time></trkpt><trkpt lat="42.404606502126974" lon="18.781784169588718"><ele>709.0</ele><time>2026-05-03T07:52:03Z</time></trkpt><trkpt lat="42.40456908856553" lon="18.781659746716382"><ele>709.0</ele><time>2026-05-03T07:52:04Z</time></trkpt><trkpt lat="42.40448200619755" lon="18.781607182867678"><ele>709.0</ele><time>2026-05-03T07:52:05Z</time></trkpt><trkpt lat="42.404366611934016" lon="18.78156498766171"><ele>709.0</ele><time>2026-05-03T07:52:06Z</time></trkpt><trkpt lat="42.404228640587526" lon="18.781526319450887"><ele>709.0</ele><time>2026-05-03T07:52:07Z</time></trkpt><trkpt lat="42.404073319174806" lon="18.781526329891864"><ele>709.0</ele><time>2026-05-03T07:52:08Z</time></trkpt><trkpt lat="42.40394162604405" lon="18.78144359011481"><ele>709.0</ele><time>2026-05-03T07:52:09Z</time></trkpt><trkpt lat="42.40382897256463" lon="18.78134268683692"><ele>709.0</ele><time>2026-05-03T07:52:10Z</time></trkpt><trkpt lat="42.40372426281067" lon="18.781247319133303"><ele>709.0</ele><time>2026-05-03T07:52:11Z</time></trkpt><trkpt lat="42.403593431338734" lon="18.78112761545323"><ele>704.0</ele><time>2026-05-03T07:52:12Z</time></trkpt><trkpt lat="42.40346150082998" lon="18.781041717040882"><ele>699.0</ele><time>2026-05-03T07:52:13Z</time></trkpt><trkpt lat="42.40330597502224" lon="18.780990400611856"><ele>694.0</ele><time>2026-05-03T07:52:14Z</time></trkpt><trkpt lat="42.40315059006399" lon="18.78095143149692"><ele>694.0</ele><time>2026-05-03T07:52:15Z</time></trkpt><trkpt lat="42.40301305466344" lon="18.780908008218486"><ele>694.0</ele><time>2026-05-03T07:52:16Z</time></trkpt><trkpt lat="42.402875562800816" lon="18.78086788350335"><ele>694.0</ele><time>2026-05-03T07:52:17Z</time></trkpt><trkpt lat="42.40274847459829" lon="18.780833694495623"><ele>694.0</ele><time>2026-05-03T07:52:18Z</time></trkpt><trkpt lat="42.40264564407936" lon="18.78078862301071"><ele>696.3333333333334</ele><time>2026-05-03T07:52:19Z</time></trkpt><trkpt lat="42.40255983004281" lon="18.780741921807614"><ele>698.6666666666667</ele><time>2026-05-03T07:52:20Z</time></trkpt><trkpt lat="42.40249053203347" lon="18.780698173437933"><ele>701.0</ele><time>2026-05-03T07:52:21Z</time></trkpt><trkpt lat="42.40240808047502" lon="18.780646637125642"><ele>703.3333333333334</ele><time>2026-05-03T07:52:23Z</time></trkpt><trkpt lat="42.402341197203" lon="18.780629910509724"><ele>705.6666666666666</ele><time>2026-05-03T07:52:25Z</time></trkpt><trkpt lat="42.40229922291875" lon="18.78072332367493"><ele>708.0</ele><time>2026-05-03T07:54:11Z</time></trkpt><trkpt lat="42.40224785881238" lon="18.780803577470348"><ele>708.0</ele><time>2026-05-03T07:54:13Z</time></trkpt><trkpt lat="42.402285658540585" lon="18.780903877438707"><ele>708.0</ele><time>2026-05-03T07:54:15Z</time></trkpt><trkpt lat="42.40239190370097" lon="18.780920944553984"><ele>708.0</ele><time>2026-05-03T07:54:17Z</time></trkpt><trkpt lat="42.40247407940049" lon="18.780928276582355"><ele>708.0</ele><time>2026-05-03T07:54:18Z</time></trkpt><trkpt lat="42.40254985361231" lon="18.78095150296595"><ele>708.0</ele><time>2026-05-03T07:54:19Z</time></trkpt><trkpt lat="42.402627456083565" lon="18.780972901319576"><ele>708.0</ele><time>2026-05-03T07:54:20Z</time></trkpt><trkpt lat="42.40271817648564" lon="18.780999917181596"><ele>713.5999999999999</ele><time>2026-05-03T07:54:21Z</time></trkpt><trkpt lat="42.40280927736336" lon="18.781033611798488"><ele>719.1999999999999</ele><time>2026-05-03T07:54:22Z</time></trkpt><trkpt lat="42.402911922832445" lon="18.78107687799024"><ele>724.8</ele><time>2026-05-03T07:54:23Z</time></trkpt><trkpt lat="42.40300696071719" lon="18.781118448701125"><ele>730.4</ele><time>2026-05-03T07:54:24Z</time></trkpt><trkpt lat="42.403115856611144" lon="18.78116905700401"><ele>736.0</ele><time>2026-05-03T07:54:25Z</time></trkpt><trkpt lat="42.40322746534508" lon="18.781231475133414"><ele>736.0</ele><time>2026-05-03T07:54:26Z</time></trkpt><trkpt lat="42.40333727701702" lon="18.781296100842106"><ele>736.0</ele><time>2026-05-03T07:54:27Z</time></trkpt><trkpt lat="42.4034384505404" lon="18.781371504614"><ele>736.0</ele><time>2026-05-03T07:54:28Z</time></trkpt><trkpt lat="42.40351978815325" lon="18.78145825557084"><ele>736.0</ele><time>2026-05-03T07:54:29Z</time></trkpt><trkpt lat="42.40359498520741" lon="18.781579370686615"><ele>736.0</ele><time>2026-05-03T07:54:30Z</time></trkpt><trkpt lat="42.40369228558965" lon="18.781709708397518"><ele>736.0</ele><time>2026-05-03T07:54:31Z</time></trkpt><trkpt lat="42.40381412209493" lon="18.781850227856413"><ele>736.0</ele><time>2026-05-03T07:54:32Z</time></trkpt><trkpt lat="42.40396066326348" lon="18.781939481722315"><ele>737.8</ele><time>2026-05-03T07:54:33Z</time></trkpt><trkpt lat="42.40409813677163" lon="18.782006151155493"><ele>739.5999999999999</ele><time>2026-05-03T07:54:34Z</time></trkpt><trkpt lat="42.404199152275034" lon="18.782072065221445"><ele>741.4</ele><time>2026-05-03T07:54:35Z</time></trkpt><trkpt lat="42.40429662001002" lon="18.78210859234572"><ele>743.2</ele><time>2026-05-03T07:54:36Z</time></trkpt><trkpt lat="42.4043743618365" lon="18.782164713134662"><ele>745.0</ele><time>2026-05-03T07:54:37Z</time></trkpt><trkpt lat="42.404437348806" lon="18.78219937360774"><ele>745.0</ele><time>2026-05-03T07:54:38Z</time></trkpt><trkpt lat="42.404518245932664" lon="18.78224254845528"><ele>745.0</ele><time>2026-05-03T07:54:40Z</time></trkpt><trkpt lat="42.4044843817459" lon="18.78232813910933"><ele>745.0</ele><time>2026-05-03T07:54:42Z</time></trkpt><trkpt lat="42.404372236551545" lon="18.782298513959123"><ele>745.0</ele><time>2026-05-03T07:54:44Z</time></trkpt><trkpt lat="42.40427384701742" lon="18.78217628051598"><ele>745.0</ele><time>2026-05-03T07:54:46Z</time></trkpt><trkpt lat="42.40418947646906" lon="18.782130229635538"><ele>745.0</ele><time>2026-05-03T07:54:47Z</time></trkpt><trkpt lat="42.40408931981186" lon="18.78209005176535"><ele>745.0</ele><time>2026-05-03T07:54:48Z</time></trkpt><trkpt lat="42.40396837225417" lon="18.78205293235729"><ele>745.0</ele><time>2026-05-03T07:54:49Z</time></trkpt><trkpt lat="42.403830829358114" lon="18.782003004160416"><ele>745.0</ele><time>2026-05-03T07:54:50Z</time></trkpt><trkpt lat="42.40369386569358" lon="18.781951928222355"><ele>743.2</ele><time>2026-05-03T07:54:51Z</time></trkpt><trkpt lat="42.40359423023654" lon="18.781871132436294"><ele>741.4</ele><time>2026-05-03T07:54:52Z</time></trkpt><trkpt lat="42.40350905371585" lon="18.781775832737928"><ele>739.5999999999999</ele><time>2026-05-03T07:54:53Z</time></trkpt><trkpt lat="42.40343244092353" lon="18.781681029020817"><ele>737.8</ele><time>2026-05-03T07:54:54Z</time></trkpt><trkpt lat="42.40334499439424" lon="18.781582466378403"><ele>736.0</ele><time>2026-05-03T07:54:55Z</time></trkpt><trkpt lat="42.40327231947443" lon="18.78148619501743"><ele>736.0</ele><time>2026-05-03T07:54:56Z</time></trkpt><trkpt lat="42.40319627779391" lon="18.78143673255322"><ele>736.0</ele><time>2026-05-03T07:54:57Z</time></trkpt><trkpt lat="42.403105193662576" lon="18.781426328138803"><ele>736.0</ele><time>2026-05-03T07:54:58Z</time></trkpt><trkpt lat="42.403002249349356" lon="18.78144645342071"><ele>736.0</ele><time>2026-05-03T07:54:59Z</time></trkpt><trkpt lat="42.40289714139933" lon="18.78142555215131"><ele>736.0</ele><time>2026-05-03T07:55:00Z</time></trkpt><trkpt lat="42.402790578350164" lon="18.781375325804174"><ele>737.0</ele><time>2026-05-03T07:55:01Z</time></trkpt><trkpt lat="42.40268277714406" lon="18.781293556667713"><ele>738.0</ele><time>2026-05-03T07:55:02Z</time></trkpt><trkpt lat="42.4025741601798" lon="18.781231701418577"><ele>739.0</ele><time>2026-05-03T07:55:03Z</time></trkpt><trkpt lat="42.40248263252672" lon="18.78118613978839"><ele>740.0</ele><time>2026-05-03T07:55:04Z</time></trkpt><trkpt lat="42.402391138465454" lon="18.78119236415868"><ele>741.0</ele><time>2026-05-03T07:55:05Z</time></trkpt><trkpt lat="42.40230193747597" lon="18.781237066206714"><ele>741.0</ele><time>2026-05-03T07:55:06Z</time></trkpt><trkpt lat="42.402225306127576" lon="18.78137929992434"><ele>741.0</ele><time>2026-05-03T07:55:07Z</time></trkpt><trkpt lat="42.402147538604254" lon="18.781500995872562"><ele>741.0</ele><time>2026-05-03T07:55:08Z</time></trkpt><trkpt lat="42.40204689627729" lon="18.781587423567505"><ele>741.0</ele><time>2026-05-03T07:55:09Z</time></trkpt><trkpt lat="42.401928399658146" lon="18.781636789245034"><ele>741.25</ele><time>2026-05-03T07:55:10Z</time></trkpt><trkpt lat="42.40179627246689" lon="18.78169600148053"><ele>741.5</ele><time>2026-05-03T07:55:11Z</time></trkpt><trkpt lat="42.401662091104356" lon="18.781750786326533"><ele>741.75</ele><time>2026-05-03T07:55:12Z</time></trkpt><trkpt lat="42.40152813594707" lon="18.78179101239062"><ele>742.0</ele><time>2026-05-03T07:55:13Z</time></trkpt><trkpt lat="42.401402963787746" lon="18.781824945129852"><ele>742.2</ele><time>2026-05-03T07:55:14Z</time></trkpt><trkpt lat="42.40129661960309" lon="18.781786803579088"><ele>742.4000000000001</ele><time>2026-05-03T07:55:15Z</time></trkpt><trkpt lat="42.40120706944535" lon="18.781724149456235"><ele>742.5999999999999</ele><time>2026-05-03T07:55:16Z</time></trkpt><trkpt lat="42.40110778066191" lon="18.781673476695236"><ele>742.8</ele><time>2026-05-03T07:55:17Z</time></trkpt><trkpt lat="42.40099836078582" lon="18.781652432664234"><ele>743.0</ele><time>2026-05-03T07:55:18Z</time></trkpt><trkpt lat="42.400885372722634" lon="18.781729940087423"><ele>743.0</ele><time>2026-05-03T07:55:19Z</time></trkpt><trkpt lat="42.400802375678516" lon="18.78177393122642"><ele>743.0</ele><time>2026-05-03T07:55:20Z</time></trkpt><trkpt lat="42.40072965622415" lon="18.78178635101789"><ele>743.0</ele><time>2026-05-03T07:55:21Z</time></trkpt><trkpt lat="42.400671428503124" lon="18.78190285985521"><ele>743.0</ele><time>2026-05-03T07:55:23Z</time></trkpt><trkpt lat="42.40067463750605" lon="18.781993773762142"><ele>743.0</ele><time>2026-05-03T07:55:24Z</time></trkpt><trkpt lat="42.400774610652945" lon="18.78208881495206"><ele>752.0</ele><time>2026-05-03T07:55:25Z</time></trkpt><trkpt lat="42.40089112034158" lon="18.782022252674487"><ele>761.0</ele><time>2026-05-03T07:55:26Z</time></trkpt><trkpt lat="42.400971780623614" lon="18.78194377143796"><ele>770.0</ele><time>2026-05-03T07:55:27Z</time></trkpt><trkpt lat="42.4010765106317" lon="18.781885680933293"><ele>779.0</ele><time>2026-05-03T07:55:28Z</time></trkpt><trkpt lat="42.40118741951747" lon="18.781908888672913"><ele>779.0</ele><time>2026-05-03T07:55:29Z</time></trkpt><trkpt lat="42.40128983864884" lon="18.782015487062857"><ele>779.0</ele><time>2026-05-03T07:55:30Z</time></trkpt><trkpt lat="42.40142351975544" lon="18.782082544472498"><ele>779.0</ele><time>2026-05-03T07:55:31Z</time></trkpt><trkpt lat="42.401582883781764" lon="18.782122075971404"><ele>779.0</ele><time>2026-05-03T07:55:32Z</time></trkpt><trkpt lat="42.401738634607156" lon="18.782135205426126"><ele>779.25</ele><time>2026-05-03T07:55:33Z</time></trkpt><trkpt lat="42.40188791760059" lon="18.782106584657456"><ele>779.5</ele><time>2026-05-03T07:55:34Z</time></trkpt><trkpt lat="42.40201427147406" lon="18.78208034322117"><ele>779.75</ele><time>2026-05-03T07:55:35Z</time></trkpt><trkpt lat="42.40213350453933" lon="18.782033332753986"><ele>780.0</ele><time>2026-05-03T07:55:36Z</time></trkpt><trkpt lat="42.402237602064325" lon="18.78200385350447"><ele>780.0</ele><time>2026-05-03T07:55:37Z</time></trkpt><trkpt lat="42.40235197084658" lon="18.781999990208693"><ele>780.0</ele><time>2026-05-03T07:55:38Z</time></trkpt><trkpt lat="42.40248362709459" lon="18.782002522056658"><ele>780.0</ele><time>2026-05-03T07:55:39Z</time></trkpt><trkpt lat="42.402618193883434" lon="18.78199995186116"><ele>780.0</ele><time>2026-05-03T07:55:40Z</time></trkpt><trkpt lat="42.402756242415336" lon="18.78206482626064"><ele>780.0</ele><time>2026-05-03T07:55:41Z</time></trkpt><trkpt lat="42.40289392007598" lon="18.782122514875674"><ele>780.0</ele><time>2026-05-03T07:55:42Z</time></trkpt><trkpt lat="42.40301934795748" lon="18.782200491954303"><ele>780.0</ele><time>2026-05-03T07:55:43Z</time></trkpt><trkpt lat="42.40314278430006" lon="18.782282223188442"><ele>780.0</ele><time>2026-05-03T07:55:44Z</time></trkpt><trkpt lat="42.403240960251395" lon="18.78241083737078"><ele>777.3333333333333</ele><time>2026-05-03T07:55:45Z</time></trkpt><trkpt lat="42.40335913311951" lon="18.78251740081464"><ele>774.6666666666666</ele><time>2026-05-03T07:55:46Z</time></trkpt><trkpt lat="42.403484365516526" lon="18.78265657760721"><ele>772.0</ele><time>2026-05-03T07:55:47Z</time></trkpt><trkpt lat="42.403608906493" lon="18.782763564753182"><ele>774.0</ele><time>2026-05-03T07:55:48Z</time></trkpt><trkpt lat="42.40373597866126" lon="18.78284550925918"><ele>776.0</ele><time>2026-05-03T07:55:49Z</time></trkpt><trkpt lat="42.40385620597011" lon="18.782907532120344"><ele>778.0</ele><time>2026-05-03T07:55:50Z</time></trkpt><trkpt lat="42.40395356229706" lon="18.782960319483866"><ele>780.0</ele><time>2026-05-03T07:55:51Z</time></trkpt><trkpt lat="42.4040300692554" lon="18.782996327477168"><ele>780.0</ele><time>2026-05-03T07:55:52Z</time></trkpt><trkpt lat="42.40409969473299" lon="18.783014298544693"><ele>780.0</ele><time>2026-05-03T07:55:53Z</time></trkpt><trkpt lat="42.40415199530089" lon="18.78312579461716"><ele>780.0</ele><time>2026-05-03T07:55:55Z</time></trkpt><trkpt lat="42.40411762075622" lon="18.783200947894358"><ele>780.0</ele><time>2026-05-03T07:55:56Z</time></trkpt><trkpt lat="42.40405384308589" lon="18.783226414364254"><ele>780.0</ele><time>2026-05-03T07:55:57Z</time></trkpt><trkpt lat="42.40400415669918" lon="18.783118407507224"><ele>780.0</ele><time>2026-05-03T07:55:58Z</time></trkpt><trkpt lat="42.403939042010194" lon="18.783012709701442"><ele>786.75</ele><time>2026-05-03T07:55:59Z</time></trkpt><trkpt lat="42.40382543134323" lon="18.782956193133916"><ele>793.5</ele><time>2026-05-03T07:56:00Z</time></trkpt><trkpt lat="42.40367895226476" lon="18.782930134266447"><ele>800.25</ele><time>2026-05-03T07:56:01Z</time></trkpt><trkpt lat="42.403510812524296" lon="18.782871085722142"><ele>807.0</ele><time>2026-05-03T07:56:02Z</time></trkpt><trkpt lat="42.40334186579102" lon="18.78274670124946"><ele>798.0</ele><time>2026-05-03T07:56:03Z</time></trkpt><trkpt lat="42.40318011901095" lon="18.78264087204453"><ele>789.0</ele><time>2026-05-03T07:56:04Z</time></trkpt><trkpt lat="42.403037381048364" lon="18.78256197328872"><ele>780.0</ele><time>2026-05-03T07:56:05Z</time></trkpt><trkpt lat="42.402920146917374" lon="18.78250066869447"><ele>780.0</ele><time>2026-05-03T07:56:06Z</time></trkpt><trkpt lat="42.40279716306931" lon="18.78247158298185"><ele>780.0</ele><time>2026-05-03T07:56:07Z</time></trkpt><trkpt lat="42.40266341312334" lon="18.782471748853702"><ele>780.0</ele><time>2026-05-03T07:56:08Z</time></trkpt><trkpt lat="42.40253028906697" lon="18.782474696026334"><ele>780.0</ele><time>2026-05-03T07:56:09Z</time></trkpt><trkpt lat="42.40239044474742" lon="18.782488439021947"><ele>780.0</ele><time>2026-05-03T07:56:10Z</time></trkpt><trkpt lat="42.4022405449782" lon="18.782520149348343"><ele>780.0</ele><time>2026-05-03T07:56:11Z</time></trkpt><trkpt lat="42.40208257810247" lon="18.78258032691565"><ele>780.0</ele><time>2026-05-03T07:56:12Z</time></trkpt><trkpt lat="42.401915218287" lon="18.782678952856134"><ele>792.3333333333333</ele><time>2026-05-03T07:56:13Z</time></trkpt><trkpt lat="42.40173737491145" lon="18.78279734588926"><ele>804.6666666666666</ele><time>2026-05-03T07:56:14Z</time></trkpt><trkpt lat="42.40156728078416" lon="18.78289386960476"><ele>817.0</ele><time>2026-05-03T07:56:15Z</time></trkpt><trkpt lat="42.40142270926941" lon="18.78292015517343"><ele>817.5</ele><time>2026-05-03T07:56:16Z</time></trkpt><trkpt lat="42.40129984367437" lon="18.782922789568556"><ele>818.0</ele><time>2026-05-03T07:56:17Z</time></trkpt><trkpt lat="42.40119677736513" lon="18.782863314454673"><ele>818.5</ele><time>2026-05-03T07:56:18Z</time></trkpt><trkpt lat="42.40108666613002" lon="18.78278818325751"><ele>819.0</ele><time>2026-05-03T07:56:19Z</time></trkpt><trkpt lat="42.40098848785718" lon="18.782729947151235"><ele>819.0</ele><time>2026-05-03T07:56:20Z</time></trkpt><trkpt lat="42.40088803498814" lon="18.782690302473085"><ele>819.0</ele><time>2026-05-03T07:56:21Z</time></trkpt><trkpt lat="42.40077262970012" lon="18.78271235118413"><ele>819.0</ele><time>2026-05-03T07:56:22Z</time></trkpt><trkpt lat="42.40065687496332" lon="18.782766785502595"><ele>819.0</ele><time>2026-05-03T07:56:23Z</time></trkpt><trkpt lat="42.400529747366306" lon="18.78279082980959"><ele>821.8000000000001</ele><time>2026-05-03T07:56:24Z</time></trkpt><trkpt lat="42.40040319884321" lon="18.782852309948577"><ele>824.6</ele><time>2026-05-03T07:56:25Z</time></trkpt><trkpt lat="42.400303348851715" lon="18.78291510952964"><ele>827.4</ele><time>2026-05-03T07:56:26Z</time></trkpt><trkpt lat="42.40023078350018" lon="18.78294150214082"><ele>830.2</ele><time>2026-05-03T07:56:27Z</time></trkpt><trkpt lat="42.40016300033534" lon="18.78289353752702"><ele>833.0</ele><time>2026-05-03T07:56:28Z</time></trkpt><trkpt lat="42.40009304256712" lon="18.782814512022387"><ele>833.0</ele><time>2026-05-03T07:56:29Z</time></trkpt><trkpt lat="42.400024092914194" lon="18.782695184787002"><ele>833.0</ele><time>2026-05-03T07:56:30Z</time></trkpt><trkpt lat="42.399923436371104" lon="18.78263016464939"><ele>833.0</ele><time>2026-05-03T07:56:31Z</time></trkpt><trkpt lat="42.39980261703653" lon="18.782613034798782"><ele>833.0</ele><time>2026-05-03T07:56:32Z</time></trkpt><trkpt lat="42.39968217285371" lon="18.78258559588929"><ele>821.5</ele><time>2026-05-03T07:56:33Z</time></trkpt><trkpt lat="42.3995534493478" lon="18.7825562650572"><ele>810.0</ele><time>2026-05-03T07:56:34Z</time></trkpt><trkpt lat="42.3994376402785" lon="18.782536677075473"><ele>798.5</ele><time>2026-05-03T07:56:35Z</time></trkpt><trkpt lat="42.399348165285694" lon="18.78251558566787"><ele>787.0</ele><time>2026-05-03T07:56:36Z</time></trkpt><trkpt lat="42.39923743057283" lon="18.78256569898851"><ele>797.8</ele><time>2026-05-03T07:56:38Z</time></trkpt><trkpt lat="42.39925377579207" lon="18.782731253665073"><ele>808.6</ele><time>2026-05-03T07:56:39Z</time></trkpt><trkpt lat="42.399305259664125" lon="18.782806469220542"><ele>819.4</ele><time>2026-05-03T07:56:40Z</time></trkpt><trkpt lat="42.399380470905484" lon="18.78283024308191"><ele>830.1999999999999</ele><time>2026-05-03T07:56:41Z</time></trkpt><trkpt lat="42.399479849935524" lon="18.782809061864096"><ele>841.0</ele><time>2026-05-03T07:56:42Z</time></trkpt><trkpt lat="42.39959895070972" lon="18.78276705756244"><ele>839.4</ele><time>2026-05-03T07:56:43Z</time></trkpt><trkpt lat="42.399727860743575" lon="18.782770616734272"><ele>837.8</ele><time>2026-05-03T07:56:44Z</time></trkpt><trkpt lat="42.39984763890515" lon="18.78283297569032"><ele>836.1999999999999</ele><time>2026-05-03T07:56:45Z</time></trkpt><trkpt lat="42.39993891713766" lon="18.78287666389341"><ele>834.5999999999999</ele><time>2026-05-03T07:56:46Z</time></trkpt><trkpt lat="42.400006322513" lon="18.782939414894017"><ele>833.0</ele><time>2026-05-03T07:56:47Z</time></trkpt><trkpt lat="42.400063973956236" lon="18.78304138957056"><ele>833.0</ele><time>2026-05-03T07:56:48Z</time></trkpt><trkpt lat="42.40012888448758" lon="18.783151527114768"><ele>833.0</ele><time>2026-05-03T07:56:49Z</time></trkpt><trkpt lat="42.400215213930316" lon="18.78322873943278"><ele>833.0</ele><time>2026-05-03T07:56:50Z</time></trkpt><trkpt lat="42.40031211143151" lon="18.7832612027231"><ele>833.0</ele><time>2026-05-03T07:56:51Z</time></trkpt><trkpt lat="42.40043639439954" lon="18.78321750507848"><ele>833.0</ele><time>2026-05-03T07:56:52Z</time></trkpt><trkpt lat="42.400537705837664" lon="18.78312576411688"><ele>828.3333333333334</ele><time>2026-05-03T07:56:53Z</time></trkpt><trkpt lat="42.40066607111398" lon="18.783133514080617"><ele>823.6666666666667</ele><time>2026-05-03T07:56:54Z</time></trkpt><trkpt lat="42.40081194008479" lon="18.783171902921524"><ele>819.0</ele><time>2026-05-03T07:56:55Z</time></trkpt><trkpt lat="42.40099509418584" lon="18.78325739255761"><ele>819.0</ele><time>2026-05-03T07:56:56Z</time></trkpt><trkpt lat="42.40120844124914" lon="18.783331616506604"><ele>819.0</ele><time>2026-05-03T07:56:57Z</time></trkpt><trkpt lat="42.401428883917006" lon="18.78341195509881"><ele>819.0</ele><time>2026-05-03T07:56:58Z</time></trkpt><trkpt lat="42.401611807908544" lon="18.783497385535064"><ele>818.3333333333333</ele><time>2026-05-03T07:56:59Z</time></trkpt><trkpt lat="42.401781743226536" lon="18.78353197472957"><ele>817.6666666666666</ele><time>2026-05-03T07:57:00Z</time></trkpt><trkpt lat="42.40195284973839" lon="18.783531203897667"><ele>817.0</ele><time>2026-05-03T07:57:01Z</time></trkpt><trkpt lat="42.402111250721475" lon="18.783475368282048"><ele>816.3333333333333</ele><time>2026-05-03T07:57:02Z</time></trkpt><trkpt lat="42.40225958116755" lon="18.78342256220796"><ele>815.6666666666667</ele><time>2026-05-03T07:57:03Z</time></trkpt><trkpt lat="42.402412945169274" lon="18.783456243463327"><ele>815.0</ele><time>2026-05-03T07:57:04Z</time></trkpt><trkpt lat="42.402557806718434" lon="18.783509196622667"><ele>825.3333333333334</ele><time>2026-05-03T07:57:05Z</time></trkpt><trkpt lat="42.40272616941158" lon="18.783568908876465"><ele>835.6666666666667</ele><time>2026-05-03T07:57:06Z</time></trkpt><trkpt lat="42.402909998764805" lon="18.783628326055954"><ele>846.0</ele><time>2026-05-03T07:57:07Z</time></trkpt><trkpt lat="42.40310182285209" lon="18.783722506930957"><ele>846.0</ele><time>2026-05-03T07:57:08Z</time></trkpt><trkpt lat="42.403279929203016" lon="18.783814928215065"><ele>846.0</ele><time>2026-05-03T07:57:09Z</time></trkpt><trkpt lat="42.40344069076291" lon="18.783873461019564"><ele>846.0</ele><time>2026-05-03T07:57:10Z</time></trkpt><trkpt lat="42.4035784783112" lon="18.783907930274534"><ele>846.0</ele><time>2026-05-03T07:57:11Z</time></trkpt><trkpt lat="42.40368421356692" lon="18.783926371191395"><ele>846.0</ele><time>2026-05-03T07:57:12Z</time></trkpt><trkpt lat="42.40376621884689" lon="18.78395112411647"><ele>846.0</ele><time>2026-05-03T07:57:13Z</time></trkpt><trkpt lat="42.403830169749476" lon="18.78396396299311"><ele>846.0</ele><time>2026-05-03T07:57:14Z</time></trkpt><trkpt lat="42.403908026069914" lon="18.78406823602884"><ele>846.0</ele><time>2026-05-03T07:57:16Z</time></trkpt><trkpt lat="42.403834722893684" lon="18.784194540386242"><ele>846.0</ele><time>2026-05-03T07:57:18Z</time></trkpt><trkpt lat="42.403762267536024" lon="18.784182972219227"><ele>846.0</ele><time>2026-05-03T07:57:19Z</time></trkpt><trkpt lat="42.40370214481297" lon="18.78404211979371"><ele>846.0</ele><time>2026-05-03T07:57:20Z</time></trkpt><trkpt lat="42.40359118987402" lon="18.783972620538133"><ele>846.0</ele><time>2026-05-03T07:57:21Z</time></trkpt><trkpt lat="42.403436420035874" lon="18.78389934551761"><ele>846.0</ele><time>2026-05-03T07:57:22Z</time></trkpt><trkpt lat="42.40323879144623" lon="18.78387531876668"><ele>846.0</ele><time>2026-05-03T07:57:23Z</time></trkpt><trkpt lat="42.40302645715376" lon="18.783867137594648"><ele>846.0</ele><time>2026-05-03T07:57:24Z</time></trkpt><trkpt lat="42.40285471308909" lon="18.78385285303536"><ele>846.75</ele><time>2026-05-03T07:57:25Z</time></trkpt><trkpt lat="42.40272641506381" lon="18.783855662672345"><ele>847.5</ele><time>2026-05-03T07:57:26Z</time></trkpt><trkpt lat="42.40260478408631" lon="18.783885773555173"><ele>848.25</ele><time>2026-05-03T07:57:27Z</time></trkpt><trkpt lat="42.40249752187542" lon="18.783917671534706"><ele>849.0</ele><time>2026-05-03T07:57:28Z</time></trkpt><trkpt lat="42.40239064469931" lon="18.783924151902635"><ele>849.0</ele><time>2026-05-03T07:57:29Z</time></trkpt><trkpt lat="42.40227201971954" lon="18.78394690771219"><ele>849.0</ele><time>2026-05-03T07:57:30Z</time></trkpt><trkpt lat="42.402139451768235" lon="18.783996879575977"><ele>849.0</ele><time>2026-05-03T07:57:31Z</time></trkpt><trkpt lat="42.401988050857334" lon="18.78402554511634"><ele>849.0</ele><time>2026-05-03T07:57:32Z</time></trkpt><trkpt lat="42.4018633500014" lon="18.784028731031373"><ele>849.5</ele><time>2026-05-03T07:57:33Z</time></trkpt><trkpt lat="42.40174851424169" lon="18.784021581127433"><ele>850.0</ele><time>2026-05-03T07:57:34Z</time></trkpt><trkpt lat="42.401640961682155" lon="18.78395870673063"><ele>850.5</ele><time>2026-05-03T07:57:35Z</time></trkpt><trkpt lat="42.401516589416936" lon="18.78394271179594"><ele>851.0</ele><time>2026-05-03T07:57:36Z</time></trkpt><trkpt lat="42.4013756361795" lon="18.783981163175604"><ele>852.0</ele><time>2026-05-03T07:57:37Z</time></trkpt><trkpt lat="42.401220951398635" lon="18.78402148309498"><ele>853.0</ele><time>2026-05-03T07:57:38Z</time></trkpt><trkpt lat="42.40104943018439" lon="18.784054771218887"><ele>854.0</ele><time>2026-05-03T07:57:39Z</time></trkpt><trkpt lat="42.40088178043875" lon="18.784076309625185"><ele>854.0</ele><time>2026-05-03T07:57:40Z</time></trkpt><trkpt lat="42.40071355762013" lon="18.78406655374327"><ele>854.0</ele><time>2026-05-03T07:57:41Z</time></trkpt><trkpt lat="42.400532914029" lon="18.784049405161845"><ele>854.0</ele><time>2026-05-03T07:57:42Z</time></trkpt><trkpt lat="42.400366455252524" lon="18.784056606993037"><ele>858.5</ele><time>2026-05-03T07:57:43Z</time></trkpt><trkpt lat="42.40023372414783" lon="18.783995452902165"><ele>863.0</ele><time>2026-05-03T07:57:44Z</time></trkpt><trkpt lat="42.400117357698306" lon="18.783939106953216"><ele>867.5</ele><time>2026-05-03T07:57:45Z</time></trkpt><trkpt lat="42.40005792863034" lon="18.783818398200335"><ele>872.0</ele><time>2026-05-03T07:57:46Z</time></trkpt><trkpt lat="42.39997087494961" lon="18.783721911897857"><ele>872.0</ele><time>2026-05-03T07:57:47Z</time></trkpt><trkpt lat="42.399900842475645" lon="18.78364429113245"><ele>872.0</ele><time>2026-05-03T07:57:48Z</time></trkpt><trkpt lat="42.399842953393126" lon="18.78358012978568"><ele>872.0</ele><time>2026-05-03T07:57:49Z</time></trkpt><trkpt lat="42.399720352094704" lon="18.78366080770018"><ele>872.0</ele><time>2026-05-03T07:57:50Z</time></trkpt><trkpt lat="42.39962336471014" lon="18.783632919407676"><ele>872.0</ele><time>2026-05-03T07:57:51Z</time></trkpt><trkpt lat="42.39950694022836" lon="18.783616298398396"><ele>876.0</ele><time>2026-05-03T07:57:52Z</time></trkpt><trkpt lat="42.39937803793259" lon="18.78351539351362"><ele>880.0</ele><time>2026-05-03T07:57:53Z</time></trkpt><trkpt lat="42.39927298771247" lon="18.783499987120184"><ele>884.0</ele><time>2026-05-03T07:57:54Z</time></trkpt><trkpt lat="42.39917919783723" lon="18.783486231638552"><ele>888.0</ele><time>2026-05-03T07:57:55Z</time></trkpt><trkpt lat="42.399096312409306" lon="18.783483713402127"><ele>892.0</ele><time>2026-05-03T07:57:56Z</time></trkpt><trkpt lat="42.3990294203042" lon="18.783489767147252"><ele>892.0</ele><time>2026-05-03T07:57:57Z</time></trkpt><trkpt lat="42.39896685635763" lon="18.783473159692868"><ele>892.0</ele><time>2026-05-03T07:57:58Z</time></trkpt><trkpt lat="42.398898876628515" lon="18.78347007504402"><ele>892.0</ele><time>2026-05-03T07:58:00Z</time></trkpt><trkpt lat="42.39898121686432" lon="18.783714044596486"><ele>892.0</ele><time>2026-05-03T07:58:02Z</time></trkpt><trkpt lat="42.39908494840273" lon="18.783713686872705"><ele>892.0</ele><time>2026-05-03T07:58:03Z</time></trkpt><trkpt lat="42.39920669574998" lon="18.78370832676301"><ele>892.0</ele><time>2026-05-03T07:58:04Z</time></trkpt><trkpt lat="42.39930288437725" lon="18.783711220673617"><ele>892.0</ele><time>2026-05-03T07:58:05Z</time></trkpt><trkpt lat="42.39939904589774" lon="18.78375475447393"><ele>892.0</ele><time>2026-05-03T07:58:06Z</time></trkpt><trkpt lat="42.39954672079208" lon="18.7838182330747"><ele>892.0</ele><time>2026-05-03T07:58:07Z</time></trkpt><trkpt lat="42.39968272090813" lon="18.783905420111278"><ele>887.0</ele><time>2026-05-03T07:58:08Z</time></trkpt><trkpt lat="42.399798890450676" lon="18.783972708669317"><ele>882.0</ele><time>2026-05-03T07:58:09Z</time></trkpt><trkpt lat="42.39988929809297" lon="18.784118860978932"><ele>877.0</ele><time>2026-05-03T07:58:10Z</time></trkpt><trkpt lat="42.40000873172128" lon="18.7842144091005"><ele>872.0</ele><time>2026-05-03T07:58:11Z</time></trkpt><trkpt lat="42.40012099789949" lon="18.784328475772025"><ele>879.25</ele><time>2026-05-03T07:58:12Z</time></trkpt><trkpt lat="42.40025500590876" lon="18.784423570037717"><ele>886.5</ele><time>2026-05-03T07:58:13Z</time></trkpt><trkpt lat="42.40039685311037" lon="18.784479415658204"><ele>893.75</ele><time>2026-05-03T07:58:14Z</time></trkpt><trkpt lat="42.40054065564942" lon="18.784504516171538"><ele>901.0</ele><time>2026-05-03T07:58:15Z</time></trkpt><trkpt lat="42.40069706107433" lon="18.784506033563567"><ele>901.0</ele><time>2026-05-03T07:58:16Z</time></trkpt><trkpt lat="42.40086484618067" lon="18.7845153298563"><ele>901.0</ele><time>2026-05-03T07:58:17Z</time></trkpt><trkpt lat="42.40105088129091" lon="18.78453045786374"><ele>901.0</ele><time>2026-05-03T07:58:18Z</time></trkpt><trkpt lat="42.40123114895472" lon="18.78456271183699"><ele>897.3333333333333</ele><time>2026-05-03T07:58:19Z</time></trkpt><trkpt lat="42.40141321191307" lon="18.78460681372984"><ele>893.6666666666667</ele><time>2026-05-03T07:58:20Z</time></trkpt><trkpt lat="42.40161452808133" lon="18.784680074329795"><ele>890.0</ele><time>2026-05-03T07:58:21Z</time></trkpt><trkpt lat="42.4018276483318" lon="18.78478858517553"><ele>890.0</ele><time>2026-05-03T07:58:22Z</time></trkpt><trkpt lat="42.40206780597798" lon="18.78483558243611"><ele>890.0</ele><time>2026-05-03T07:58:23Z</time></trkpt><trkpt lat="42.40227124024518" lon="18.784889659654013"><ele>887.6666666666667</ele><time>2026-05-03T07:58:24Z</time></trkpt><trkpt lat="42.40245220478049" lon="18.78497418874328"><ele>885.3333333333333</ele><time>2026-05-03T07:58:25Z</time></trkpt><trkpt lat="42.40264192017717" lon="18.785018061182694"><ele>883.0</ele><time>2026-05-03T07:58:26Z</time></trkpt><trkpt lat="42.402834782627245" lon="18.785085281247675"><ele>881.6666666666666</ele><time>2026-05-03T07:58:27Z</time></trkpt><trkpt lat="42.40302741821739" lon="18.785134270505736"><ele>880.3333333333333</ele><time>2026-05-03T07:58:28Z</time></trkpt><trkpt lat="42.40319328705132" lon="18.78516959007255"><ele>879.0</ele><time>2026-05-03T07:58:29Z</time></trkpt><trkpt lat="42.40333535566771" lon="18.785213410197063"><ele>884.4000000000001</ele><time>2026-05-03T07:58:30Z</time></trkpt><trkpt lat="42.403465325442625" lon="18.785263786366052"><ele>889.8000000000001</ele><time>2026-05-03T07:58:31Z</time></trkpt><trkpt lat="42.40357758855544" lon="18.78531987979689"><ele>895.1999999999999</ele><time>2026-05-03T07:58:32Z</time></trkpt><trkpt lat="42.40367152730942" lon="18.78537810539966"><ele>900.5999999999999</ele><time>2026-05-03T07:58:33Z</time></trkpt><trkpt lat="42.40374163091799" lon="18.78545585311445"><ele>906.0</ele><time>2026-05-03T07:58:34Z</time></trkpt><trkpt lat="42.40378181166485" lon="18.785544273489656"><ele>906.0</ele><time>2026-05-03T07:58:35Z</time></trkpt><trkpt lat="42.40380814385782" lon="18.785669550550242"><ele>905.9999999999999</ele><time>2026-05-03T07:58:36Z</time></trkpt><trkpt lat="42.40382007195723" lon="18.78580716255721"><ele>905.9999999999999</ele><time>2026-05-03T07:58:37Z</time></trkpt><trkpt lat="42.40384474456961" lon="18.785953660101036"><ele>906.0</ele><time>2026-05-03T07:58:38Z</time></trkpt><trkpt lat="42.403869248770484" lon="18.786082263626337"><ele>906.0</ele><time>2026-05-03T07:58:39Z</time></trkpt><trkpt lat="42.40390663551162" lon="18.786204638038214"><ele>905.6666666666666</ele><time>2026-05-03T07:58:40Z</time></trkpt><trkpt lat="42.403945826636175" lon="18.78630752010006"><ele>905.3333333333333</ele><time>2026-05-03T07:58:41Z</time></trkpt><trkpt lat="42.40399109642565" lon="18.786399304410736"><ele>905.0</ele><time>2026-05-03T07:58:42Z</time></trkpt><trkpt lat="42.40404019763452" lon="18.786468739844604"><ele>904.6666666666666</ele><time>2026-05-03T07:58:43Z</time></trkpt><trkpt lat="42.404098332348624" lon="18.78653242047854"><ele>904.3333333333333</ele><time>2026-05-03T07:58:44Z</time></trkpt><trkpt lat="42.404161137687105" lon="18.786591028165024"><ele>904.0</ele><time>2026-05-03T07:58:45Z</time></trkpt><trkpt lat="42.40424358814828" lon="18.78667266870704"><ele>904.0</ele><time>2026-05-03T07:58:46Z</time></trkpt><trkpt lat="42.404330863974025" lon="18.786737430971865"><ele>904.0000000000001</ele><time>2026-05-03T07:58:47Z</time></trkpt><trkpt lat="42.40440189720816" lon="18.7868146433331"><ele>904.0000000000001</ele><time>2026-05-03T07:58:48Z</time></trkpt><trkpt lat="42.4044858070735" lon="18.78688386192259"><ele>904.0</ele><time>2026-05-03T07:58:49Z</time></trkpt><trkpt lat="42.404602159850796" lon="18.786834574984226"><ele>904.0</ele><time>2026-05-03T07:58:50Z</time></trkpt><trkpt lat="42.40469122505584" lon="18.786855116357415"><ele>904.2</ele><time>2026-05-03T07:58:51Z</time></trkpt><trkpt lat="42.40477603760211" lon="18.786862331390445"><ele>904.4000000000001</ele><time>2026-05-03T07:58:52Z</time></trkpt><trkpt lat="42.404864387142595" lon="18.786847218161473"><ele>904.6</ele><time>2026-05-03T07:58:53Z</time></trkpt><trkpt lat="42.40494858306524" lon="18.786819665076703"><ele>904.8</ele><time>2026-05-03T07:58:54Z</time></trkpt><trkpt lat="42.40503308849481" lon="18.786780826066263"><ele>905.0</ele><time>2026-05-03T07:58:55Z</time></trkpt><trkpt lat="42.405130151422846" lon="18.786725947252176"><ele>905.0</ele><time>2026-05-03T07:58:56Z</time></trkpt><trkpt lat="42.40522233036546" lon="18.786658627933583"><ele>905.0</ele><time>2026-05-03T07:58:57Z</time></trkpt><trkpt lat="42.40530289522199" lon="18.78657961608164"><ele>905.0</ele><time>2026-05-03T07:58:58Z</time></trkpt><trkpt lat="42.40537854307859" lon="18.786511774411427"><ele>905.0</ele><time>2026-05-03T07:58:59Z</time></trkpt><trkpt lat="42.40546840526116" lon="18.786474749328516"><ele>905.0</ele><time>2026-05-03T07:59:00Z</time></trkpt><trkpt lat="42.4055791100553" lon="18.786464060575753"><ele>907.2</ele><time>2026-05-03T07:59:01Z</time></trkpt><trkpt lat="42.40569366510146" lon="18.786439820984256"><ele>909.4</ele><time>2026-05-03T07:59:02Z</time></trkpt><trkpt lat="42.40579586059507" lon="18.786399408124073"><ele>911.5999999999999</ele><time>2026-05-03T07:59:03Z</time></trkpt><trkpt lat="42.405896783031665" lon="18.786355130183537"><ele>913.8</ele><time>2026-05-03T07:59:04Z</time></trkpt><trkpt lat="42.40600059548582" lon="18.786320478887827"><ele>916.0</ele><time>2026-05-03T07:59:05Z</time></trkpt><trkpt lat="42.406093561840756" lon="18.786301750903082"><ele>916.0</ele><time>2026-05-03T07:59:06Z</time></trkpt><trkpt lat="42.40619746914917" lon="18.786297125073467"><ele>915.9999999999999</ele><time>2026-05-03T07:59:07Z</time></trkpt><trkpt lat="42.40629602611763" lon="18.78630885459199"><ele>915.9999999999999</ele><time>2026-05-03T07:59:08Z</time></trkpt><trkpt lat="42.40639924705701" lon="18.786342184336878"><ele>916.0</ele><time>2026-05-03T07:59:09Z</time></trkpt><trkpt lat="42.40650330893696" lon="18.786376560180035"><ele>916.0</ele><time>2026-05-03T07:59:10Z</time></trkpt><trkpt lat="42.40660879236476" lon="18.7863970296765"><ele>917.4</ele><time>2026-05-03T07:59:11Z</time></trkpt><trkpt lat="42.40671232240784" lon="18.786402737381692"><ele>918.8</ele><time>2026-05-03T07:59:12Z</time></trkpt><trkpt lat="42.406815717993766" lon="18.78640280849252"><ele>920.1999999999999</ele><time>2026-05-03T07:59:13Z</time></trkpt><trkpt lat="42.40692226258526" lon="18.786394260376277"><ele>921.5999999999999</ele><time>2026-05-03T07:59:14Z</time></trkpt><trkpt lat="42.407023859482855" lon="18.786387640971633"><ele>923.0</ele><time>2026-05-03T07:59:15Z</time></trkpt><trkpt lat="42.40713146077866" lon="18.78638903146894"><ele>923.2</ele><time>2026-05-03T07:59:16Z</time></trkpt><trkpt lat="42.407230541179146" lon="18.786388177250544"><ele>923.4</ele><time>2026-05-03T07:59:17Z</time></trkpt><trkpt lat="42.40732273559855" lon="18.786383655370322"><ele>923.6000000000001</ele><time>2026-05-03T07:59:18Z</time></trkpt><trkpt lat="42.40741327279352" lon="18.78637993509307"><ele>923.8000000000001</ele><time>2026-05-03T07:59:19Z</time></trkpt><trkpt lat="42.407513586821175" lon="18.786371677888766"><ele>924.0</ele><time>2026-05-03T07:59:20Z</time></trkpt><trkpt lat="42.40761068721195" lon="18.786357736397054"><ele>924.0</ele><time>2026-05-03T07:59:21Z</time></trkpt><trkpt lat="42.40771431949789" lon="18.786331907438072"><ele>924.0000000000001</ele><time>2026-05-03T07:59:22Z</time></trkpt><trkpt lat="42.40780950350017" lon="18.786306070232524"><ele>924.0000000000001</ele><time>2026-05-03T07:59:23Z</time></trkpt><trkpt lat="42.407912452285366" lon="18.786281924907215"><ele>924.0</ele><time>2026-05-03T07:59:24Z</time></trkpt><trkpt lat="42.408018314571294" lon="18.786270424981044"><ele>924.0</ele><time>2026-05-03T07:59:25Z</time></trkpt><trkpt lat="42.40811995083452" lon="18.786280022016868"><ele>926.6</ele><time>2026-05-03T07:59:26Z</time></trkpt><trkpt lat="42.408223095387925" lon="18.786290180204354"><ele>929.2</ele><time>2026-05-03T07:59:27Z</time></trkpt><trkpt lat="42.40832327447911" lon="18.78628578924925"><ele>931.8000000000001</ele><time>2026-05-03T07:59:28Z</time></trkpt><trkpt lat="42.40841858474573" lon="18.786290570082308"><ele>934.4000000000001</ele><time>2026-05-03T07:59:29Z</time></trkpt><trkpt lat="42.40850851954398" lon="18.786298938889217"><ele>937.0</ele><time>2026-05-03T07:59:30Z</time></trkpt><trkpt lat="42.40859906794418" lon="18.78631235578828"><ele>937.0</ele><time>2026-05-03T07:59:31Z</time></trkpt><trkpt lat="42.408692652706954" lon="18.786326648637058"><ele>937.0</ele><time>2026-05-03T07:59:32Z</time></trkpt><trkpt lat="42.408781804373255" lon="18.786336942758577"><ele>937.0</ele><time>2026-05-03T07:59:33Z</time></trkpt><trkpt lat="42.40887253399744" lon="18.78634220392647"><ele>937.0</ele><time>2026-05-03T07:59:34Z</time></trkpt><trkpt lat="42.40896392559095" lon="18.786353137540967"><ele>937.0</ele><time>2026-05-03T07:59:35Z</time></trkpt><trkpt lat="42.409049831988206" lon="18.786363138223063"><ele>934.4999999999999</ele><time>2026-05-03T07:59:36Z</time></trkpt><trkpt lat="42.40912745335979" lon="18.786380282176466"><ele>932.0</ele><time>2026-05-03T07:59:37Z</time></trkpt><trkpt lat="42.40920750384516" lon="18.786394985798772"><ele>929.5</ele><time>2026-05-03T07:59:38Z</time></trkpt><trkpt lat="42.40926752721534" lon="18.786427409880066"><ele>927.0</ele><time>2026-05-03T07:59:39Z</time></trkpt><trkpt lat="42.40930798611666" lon="18.786526216192552"><ele>924.4999999999999</ele><time>2026-05-03T07:59:41Z</time></trkpt><trkpt lat="42.409302932969034" lon="18.786667135522098"><ele>922.0</ele><time>2026-05-03T07:59:43Z</time></trkpt><trkpt lat="42.40926246737279" lon="18.78680443005335"><ele>922.8333333333333</ele><time>2026-05-03T07:59:45Z</time></trkpt><trkpt lat="42.40924122136655" lon="18.786958006638"><ele>923.6666666666666</ele><time>2026-05-03T07:59:47Z</time></trkpt><trkpt lat="42.40923747168656" lon="18.78704804065918"><ele>924.5</ele><time>2026-05-03T07:59:48Z</time></trkpt><trkpt lat="42.40923328925857" lon="18.787139905416446"><ele>925.3333333333333</ele><time>2026-05-03T07:59:49Z</time></trkpt><trkpt lat="42.40922837272532" lon="18.787234927305082"><ele>926.1666666666666</ele><time>2026-05-03T07:59:50Z</time></trkpt><trkpt lat="42.409219374655684" lon="18.78732025842352"><ele>927.0</ele><time>2026-05-03T07:59:51Z</time></trkpt><trkpt lat="42.40920682492925" lon="18.787496519894763"><ele>926.9999999999999</ele><time>2026-05-03T07:59:53Z</time></trkpt><trkpt lat="42.40920298012494" lon="18.787588913029538"><ele>927.0</ele><time>2026-05-03T07:59:54Z</time></trkpt><trkpt lat="42.40919387595934" lon="18.787674854886554"><ele>926.9999999999999</ele><time>2026-05-03T07:59:55Z</time></trkpt><trkpt lat="42.40918347914249" lon="18.78776355408512"><ele>926.9999999999999</ele><time>2026-05-03T07:59:56Z</time></trkpt><trkpt lat="42.40917484197762" lon="18.7878620704823"><ele>927.0</ele><time>2026-05-03T07:59:57Z</time></trkpt><trkpt lat="42.40916875698367" lon="18.787971409268852"><ele>926.9999999999999</ele><time>2026-05-03T07:59:58Z</time></trkpt><trkpt lat="42.40916284447666" lon="18.78807683464115"><ele>926.9999999999999</ele><time>2026-05-03T07:59:59Z</time></trkpt><trkpt lat="42.40915953666917" lon="18.788191934574318"><ele>926.6666666666666</ele><time>2026-05-03T08:00:00Z</time></trkpt><trkpt lat="42.40915350640134" lon="18.788311494520464"><ele>926.3333333333333</ele><time>2026-05-03T08:00:01Z</time></trkpt><trkpt lat="42.40914462111403" lon="18.788409552888616"><ele>926.0</ele><time>2026-05-03T08:00:02Z</time></trkpt><trkpt lat="42.409135624549776" lon="18.788499033417768"><ele>925.6666666666666</ele><time>2026-05-03T08:00:03Z</time></trkpt><trkpt lat="42.40912763701276" lon="18.788587692871005"><ele>925.3333333333333</ele><time>2026-05-03T08:00:04Z</time></trkpt><trkpt lat="42.40914119536545" lon="18.788747691323522"><ele>925.0</ele><time>2026-05-03T08:00:06Z</time></trkpt><trkpt lat="42.40920000305441" lon="18.788893747508798"><ele>926.1428571428571</ele><time>2026-05-03T08:00:08Z</time></trkpt><trkpt lat="42.40923488554024" lon="18.78896818364425"><ele>927.2857142857142</ele><time>2026-05-03T08:00:09Z</time></trkpt><trkpt lat="42.409275116688185" lon="18.789045124543055"><ele>928.4285714285713</ele><time>2026-05-03T08:00:10Z</time></trkpt><trkpt lat="42.409322377414554" lon="18.789115036252774"><ele>929.5714285714286</ele><time>2026-05-03T08:00:11Z</time></trkpt><trkpt lat="42.40937684887062" lon="18.78918544542892"><ele>930.7142857142856</ele><time>2026-05-03T08:00:12Z</time></trkpt><trkpt lat="42.40944290075351" lon="18.78924885904178"><ele>931.8571428571428</ele><time>2026-05-03T08:00:13Z</time></trkpt><trkpt lat="42.40950927262996" lon="18.789305978592598"><ele>933.0</ele><time>2026-05-03T08:00:14Z</time></trkpt><trkpt lat="42.409567052327056" lon="18.789363730430168"><ele>933.1666666666666</ele><time>2026-05-03T08:00:15Z</time></trkpt><trkpt lat="42.40962344487405" lon="18.789423023637728"><ele>933.3333333333333</ele><time>2026-05-03T08:00:16Z</time></trkpt><trkpt lat="42.40968801591862" lon="18.789475150481646"><ele>933.5</ele><time>2026-05-03T08:00:17Z</time></trkpt><trkpt lat="42.40976843419074" lon="18.789524914429755"><ele>933.6666666666666</ele><time>2026-05-03T08:00:18Z</time></trkpt><trkpt lat="42.40986093716851" lon="18.78955068850028"><ele>933.8333333333333</ele><time>2026-05-03T08:00:19Z</time></trkpt><trkpt lat="42.409965622857705" lon="18.789555093629208"><ele>934.0</ele><time>2026-05-03T08:00:20Z</time></trkpt><trkpt lat="42.41007028510057" lon="18.78955563112281"><ele>934.0</ele><time>2026-05-03T08:00:21Z</time></trkpt><trkpt lat="42.410169531528695" lon="18.789561804103553"><ele>934.0000000000001</ele><time>2026-05-03T08:00:22Z</time></trkpt><trkpt lat="42.4102582925697" lon="18.789581240375277"><ele>934.0000000000001</ele><time>2026-05-03T08:00:23Z</time></trkpt><trkpt lat="42.41034802950766" lon="18.789606307111686"><ele>934.0</ele><time>2026-05-03T08:00:24Z</time></trkpt><trkpt lat="42.4104261479889" lon="18.789649802909413"><ele>934.0</ele><time>2026-05-03T08:00:25Z</time></trkpt><trkpt lat="42.41049856192274" lon="18.789720259681896"><ele>930.2</ele><time>2026-05-03T08:00:26Z</time></trkpt><trkpt lat="42.41056404803452" lon="18.78981775882791"><ele>926.4000000000001</ele><time>2026-05-03T08:00:27Z</time></trkpt><trkpt lat="42.4106156786352" lon="18.78992459892028"><ele>922.6</ele><time>2026-05-03T08:00:28Z</time></trkpt><trkpt lat="42.41067636990839" lon="18.790021932861077"><ele>918.8</ele><time>2026-05-03T08:00:29Z</time></trkpt><trkpt lat="42.410736261596895" lon="18.790110256482528"><ele>915.0</ele><time>2026-05-03T08:00:30Z</time></trkpt><trkpt lat="42.41080201177649" lon="18.79018263762787"><ele>915.0</ele><time>2026-05-03T08:00:31Z</time></trkpt><trkpt lat="42.41087774718037" lon="18.790239747753755"><ele>915.0</ele><time>2026-05-03T08:00:32Z</time></trkpt><trkpt lat="42.41096407670142" lon="18.79026197335539"><ele>915.0</ele><time>2026-05-03T08:00:33Z</time></trkpt><trkpt lat="42.411060743962096" lon="18.790242812604166"><ele>915.0</ele><time>2026-05-03T08:00:34Z</time></trkpt><trkpt lat="42.41115684453718" lon="18.79020124164585"><ele>915.0</ele><time>2026-05-03T08:00:35Z</time></trkpt><trkpt lat="42.41126101437876" lon="18.790161011868875"><ele>912.6</ele><time>2026-05-03T08:00:36Z</time></trkpt><trkpt lat="42.41136463880475" lon="18.790132960227144"><ele>910.2</ele><time>2026-05-03T08:00:37Z</time></trkpt><trkpt lat="42.411468166465426" lon="18.790117006473302"><ele>907.8</ele><time>2026-05-03T08:00:38Z</time></trkpt><trkpt lat="42.41157619056103" lon="18.790113561162244"><ele>905.4</ele><time>2026-05-03T08:00:39Z</time></trkpt><trkpt lat="42.411677446754" lon="18.79012080792394"><ele>903.0</ele><time>2026-05-03T08:00:40Z</time></trkpt><trkpt lat="42.41177102856737" lon="18.790138745904823"><ele>903.0</ele><time>2026-05-03T08:00:41Z</time></trkpt><trkpt lat="42.41186204794487" lon="18.79017429782658"><ele>903.0</ele><time>2026-05-03T08:00:42Z</time></trkpt><trkpt lat="42.41195192151033" lon="18.79022711253959"><ele>903.0</ele><time>2026-05-03T08:00:43Z</time></trkpt><trkpt lat="42.4120339848489" lon="18.790297589176628"><ele>903.0</ele><time>2026-05-03T08:00:44Z</time></trkpt><trkpt lat="42.41211240549314" lon="18.790394106852972"><ele>903.0</ele><time>2026-05-03T08:00:45Z</time></trkpt><trkpt lat="42.41217711130152" lon="18.790482317126184"><ele>906.5999999999999</ele><time>2026-05-03T08:00:46Z</time></trkpt><trkpt lat="42.41226142771448" lon="18.79054773445087"><ele>910.1999999999999</ele><time>2026-05-03T08:00:47Z</time></trkpt><trkpt lat="42.412352590577605" lon="18.790589374563375"><ele>913.8</ele><time>2026-05-03T08:00:48Z</time></trkpt><trkpt lat="42.41244600817448" lon="18.790606938023647"><ele>917.4</ele><time>2026-05-03T08:00:49Z</time></trkpt><trkpt lat="42.412541049683526" lon="18.79060800896012"><ele>921.0</ele><time>2026-05-03T08:00:50Z</time></trkpt><trkpt lat="42.412639168331744" lon="18.790593894783242"><ele>921.0</ele><time>2026-05-03T08:00:51Z</time></trkpt><trkpt lat="42.41273317985366" lon="18.79057360841507"><ele>920.9999999999999</ele><time>2026-05-03T08:00:52Z</time></trkpt><trkpt lat="42.41282270325412" lon="18.790569424169085"><ele>920.9999999999999</ele><time>2026-05-03T08:00:53Z</time></trkpt><trkpt lat="42.41291277028384" lon="18.790566879289383"><ele>921.0</ele><time>2026-05-03T08:00:54Z</time></trkpt><trkpt lat="42.41300356225403" lon="18.790561381941437"><ele>921.0</ele><time>2026-05-03T08:00:55Z</time></trkpt><trkpt lat="42.413093795514996" lon="18.790554661341996"><ele>918.4</ele><time>2026-05-03T08:00:56Z</time></trkpt><trkpt lat="42.413185605978775" lon="18.79055838056009"><ele>915.8</ele><time>2026-05-03T08:00:57Z</time></trkpt><trkpt lat="42.41327291857208" lon="18.790582273113674"><ele>913.1999999999999</ele><time>2026-05-03T08:00:58Z</time></trkpt><trkpt lat="42.41334831730873" lon="18.790643351520036"><ele>910.5999999999999</ele><time>2026-05-03T08:00:59Z</time></trkpt><trkpt lat="42.41340671805619" lon="18.790753368932368"><ele>908.0</ele><time>2026-05-03T08:01:00Z</time></trkpt><trkpt lat="42.41345240294044" lon="18.790879071340555"><ele>908.0000000000001</ele><time>2026-05-03T08:01:01Z</time></trkpt><trkpt lat="42.413495027667196" lon="18.791005365206676"><ele>908.0</ele><time>2026-05-03T08:01:02Z</time></trkpt><trkpt lat="42.413531208683885" lon="18.791112906061258"><ele>908.0</ele><time>2026-05-03T08:01:03Z</time></trkpt><trkpt lat="42.41357185117482" lon="18.79121429523262"><ele>908.0</ele><time>2026-05-03T08:01:04Z</time></trkpt><trkpt lat="42.41361738467963" lon="18.791308365421198"><ele>908.0000000000001</ele><time>2026-05-03T08:01:05Z</time></trkpt><trkpt lat="42.4136725319195" lon="18.791382399626485"><ele>908.0</ele><time>2026-05-03T08:01:06Z</time></trkpt><trkpt lat="42.41373757604208" lon="18.791449084025096"><ele>908.0000000000001</ele><time>2026-05-03T08:01:07Z</time></trkpt><trkpt lat="42.41380074429526" lon="18.791484040986436"><ele>908.0</ele><time>2026-05-03T08:01:08Z</time></trkpt><trkpt lat="42.41386777639034" lon="18.79154695096654"><ele>908.0</ele><time>2026-05-03T08:01:09Z</time></trkpt><trkpt lat="42.41393532023599" lon="18.79160186947559"><ele>908.0</ele><time>2026-05-03T08:01:10Z</time></trkpt><trkpt lat="42.41400150380038" lon="18.79167715225032"><ele>908.0000000000001</ele><time>2026-05-03T08:01:11Z</time></trkpt><trkpt lat="42.41406843532121" lon="18.7917442585623"><ele>908.0</ele><time>2026-05-03T08:01:12Z</time></trkpt><trkpt lat="42.41415731209185" lon="18.791803915237633"><ele>913.5999999999999</ele><time>2026-05-03T08:01:13Z</time></trkpt><trkpt lat="42.41425324171006" lon="18.791846890383248"><ele>919.1999999999999</ele><time>2026-05-03T08:01:14Z</time></trkpt><trkpt lat="42.4143493178532" lon="18.791877487312185"><ele>924.8</ele><time>2026-05-03T08:01:15Z</time></trkpt><trkpt lat="42.41445530838681" lon="18.79189847900758"><ele>930.4</ele><time>2026-05-03T08:01:16Z</time></trkpt><trkpt lat="42.41456141582416" lon="18.791896150857077"><ele>936.0</ele><time>2026-05-03T08:01:17Z</time></trkpt><trkpt lat="42.41466900850904" lon="18.791869081740373"><ele>936.0</ele><time>2026-05-03T08:01:18Z</time></trkpt><trkpt lat="42.41476921389943" lon="18.791842305740992"><ele>936.0</ele><time>2026-05-03T08:01:19Z</time></trkpt><trkpt lat="42.414879590431774" lon="18.791821987614572"><ele>936.0</ele><time>2026-05-03T08:01:20Z</time></trkpt><trkpt lat="42.414997503737084" lon="18.79179566576073"><ele>936.0</ele><time>2026-05-03T08:01:21Z</time></trkpt><trkpt lat="42.41511710679208" lon="18.79179329926491"><ele>936.0</ele><time>2026-05-03T08:01:22Z</time></trkpt><trkpt lat="42.41523120062398" lon="18.791840523232487"><ele>936.0</ele><time>2026-05-03T08:01:23Z</time></trkpt><trkpt lat="42.41534551235893" lon="18.791919129890616"><ele>936.0</ele><time>2026-05-03T08:01:24Z</time></trkpt><trkpt lat="42.41546193674443" lon="18.792002462452103"><ele>936.0</ele><time>2026-05-03T08:01:25Z</time></trkpt><trkpt lat="42.415591676138945" lon="18.792084382396098"><ele>930.25</ele><time>2026-05-03T08:01:26Z</time></trkpt><trkpt lat="42.415734894902926" lon="18.792153450017288"><ele>924.5</ele><time>2026-05-03T08:01:27Z</time></trkpt><trkpt lat="42.41587332856685" lon="18.792222419690276"><ele>918.75</ele><time>2026-05-03T08:01:28Z</time></trkpt><trkpt lat="42.41600850728932" lon="18.79229676962881"><ele>913.0</ele><time>2026-05-03T08:01:29Z</time></trkpt><trkpt lat="42.41613783705481" lon="18.79237424311508"><ele>913.0</ele><time>2026-05-03T08:01:30Z</time></trkpt><trkpt lat="42.41625944525984" lon="18.792450465609047"><ele>913.0</ele><time>2026-05-03T08:01:31Z</time></trkpt><trkpt lat="42.4163751276065" lon="18.7925163746578"><ele>913.0</ele><time>2026-05-03T08:01:32Z</time></trkpt><trkpt lat="42.416482716350174" lon="18.792582115332472"><ele>913.0</ele><time>2026-05-03T08:01:33Z</time></trkpt><trkpt lat="42.41658758797615" lon="18.792660415614932"><ele>913.5</ele><time>2026-05-03T08:01:34Z</time></trkpt><trkpt lat="42.416687525422034" lon="18.792770653206546"><ele>914.0</ele><time>2026-05-03T08:01:35Z</time></trkpt><trkpt lat="42.41677813916025" lon="18.792889572114035"><ele>914.5</ele><time>2026-05-03T08:01:36Z</time></trkpt><trkpt lat="42.416867013392995" lon="18.79300287079556"><ele>915.0</ele><time>2026-05-03T08:01:37Z</time></trkpt><trkpt lat="42.41694736641601" lon="18.79312056110502"><ele>915.0</ele><time>2026-05-03T08:01:38Z</time></trkpt><trkpt lat="42.417015614820286" lon="18.793247869585425"><ele>915.0</ele><time>2026-05-03T08:01:39Z</time></trkpt><trkpt lat="42.41706949758435" lon="18.79338891381742"><ele>915.0</ele><time>2026-05-03T08:01:40Z</time></trkpt><trkpt lat="42.41712698493719" lon="18.793544213119908"><ele>915.0</ele><time>2026-05-03T08:01:41Z</time></trkpt><trkpt lat="42.417192244993814" lon="18.793701034282257"><ele>912.0</ele><time>2026-05-03T08:01:42Z</time></trkpt><trkpt lat="42.41725912648084" lon="18.79385250573668"><ele>909.0</ele><time>2026-05-03T08:01:43Z</time></trkpt><trkpt lat="42.41733267415065" lon="18.79398486665094"><ele>906.0</ele><time>2026-05-03T08:01:44Z</time></trkpt><trkpt lat="42.41742727133491" lon="18.7940678913794"><ele>903.0</ele><time>2026-05-03T08:01:45Z</time></trkpt><trkpt lat="42.417551025234346" lon="18.794105550371025"><ele>903.0</ele><time>2026-05-03T08:01:46Z</time></trkpt><trkpt lat="42.41768555713815" lon="18.794101738113422"><ele>903.0</ele><time>2026-05-03T08:01:47Z</time></trkpt><trkpt lat="42.41781243595474" lon="18.794084959773716"><ele>903.0</ele><time>2026-05-03T08:01:48Z</time></trkpt><trkpt lat="42.41793602787453" lon="18.794063125089156"><ele>903.0</ele><time>2026-05-03T08:01:49Z</time></trkpt><trkpt lat="42.41805240497355" lon="18.79400729513934"><ele>903.8</ele><time>2026-05-03T08:01:50Z</time></trkpt><trkpt lat="42.41815650944258" lon="18.79392314685285"><ele>904.5999999999999</ele><time>2026-05-03T08:01:51Z</time></trkpt><trkpt lat="42.41825297122093" lon="18.79383382572856"><ele>905.4000000000001</ele><time>2026-05-03T08:01:52Z</time></trkpt><trkpt lat="42.41835041531686" lon="18.793773479623155"><ele>906.2</ele><time>2026-05-03T08:01:53Z</time></trkpt><trkpt lat="42.418449991028716" lon="18.793743069555205"><ele>907.0</ele><time>2026-05-03T08:01:54Z</time></trkpt><trkpt lat="42.4185491057504" lon="18.793760636557302"><ele>907.0</ele><time>2026-05-03T08:01:55Z</time></trkpt><trkpt lat="42.41863143459101" lon="18.793830313534027"><ele>907.0</ele><time>2026-05-03T08:01:56Z</time></trkpt><trkpt lat="42.41870141579806" lon="18.793947774922426"><ele>907.0</ele><time>2026-05-03T08:01:57Z</time></trkpt><trkpt lat="42.41878447301729" lon="18.794053300251043"><ele>907.0</ele><time>2026-05-03T08:01:58Z</time></trkpt><trkpt lat="42.41889596532852" lon="18.7941150712683"><ele>907.0</ele><time>2026-05-03T08:01:59Z</time></trkpt><trkpt lat="42.41901109104171" lon="18.79412752854676"><ele>905.4000000000001</ele><time>2026-05-03T08:02:00Z</time></trkpt><trkpt lat="42.41911795660449" lon="18.794142199868"><ele>903.8000000000001</ele><time>2026-05-03T08:02:01Z</time></trkpt><trkpt lat="42.419225443046585" lon="18.794173870649093"><ele>902.2</ele><time>2026-05-03T08:02:02Z</time></trkpt><trkpt lat="42.419331769638546" lon="18.794221160918983"><ele>900.6</ele><time>2026-05-03T08:02:03Z</time></trkpt><trkpt lat="42.41942718027767" lon="18.794293647111786"><ele>899.0</ele><time>2026-05-03T08:02:04Z</time></trkpt><trkpt lat="42.41950813838749" lon="18.79438327517327"><ele>903.0</ele><time>2026-05-03T08:02:05Z</time></trkpt><trkpt lat="42.419584098737026" lon="18.794477404776462"><ele>907.0000000000001</ele><time>2026-05-03T08:02:06Z</time></trkpt><trkpt lat="42.419664740461975" lon="18.794560249007937"><ele>911.0000000000001</ele><time>2026-05-03T08:02:07Z</time></trkpt><trkpt lat="42.41974676362927" lon="18.7946130236127"><ele>915.0</ele><time>2026-05-03T08:02:08Z</time></trkpt><trkpt lat="42.41983404737186" lon="18.794628687525037"><ele>919.0</ele><time>2026-05-03T08:02:09Z</time></trkpt><trkpt lat="42.41992611529885" lon="18.794606945644276"><ele>919.2</ele><time>2026-05-03T08:02:10Z</time></trkpt><trkpt lat="42.420019023379005" lon="18.794573697978635"><ele>919.4000000000001</ele><time>2026-05-03T08:02:11Z</time></trkpt><trkpt lat="42.420111011365826" lon="18.794544220599523"><ele>919.6</ele><time>2026-05-03T08:02:12Z</time></trkpt><trkpt lat="42.42020332395095" lon="18.79451672280952"><ele>919.8</ele><time>2026-05-03T08:02:13Z</time></trkpt><trkpt lat="42.420294630977985" lon="18.79449518179173"><ele>920.0</ele><time>2026-05-03T08:02:14Z</time></trkpt><trkpt lat="42.42036924087261" lon="18.7944795485455"><ele>920.0000000000001</ele><time>2026-05-03T08:02:15Z</time></trkpt><trkpt lat="42.4204416102596" lon="18.79445928968724"><ele>920.0</ele><time>2026-05-03T08:02:16Z</time></trkpt><trkpt lat="42.420512968620216" lon="18.79444285916883"><ele>920.0</ele><time>2026-05-03T08:02:17Z</time></trkpt><trkpt lat="42.420585571443524" lon="18.794433525220885"><ele>920.0</ele><time>2026-05-03T08:02:18Z</time></trkpt><trkpt lat="42.42066393553348" lon="18.79443326032518"><ele>920.0000000000001</ele><time>2026-05-03T08:02:19Z</time></trkpt><trkpt lat="42.420740043974156" lon="18.79444525966769"><ele>920.0</ele><time>2026-05-03T08:02:20Z</time></trkpt><trkpt lat="42.42081300418591" lon="18.794478805733014"><ele>918.3333333333334</ele><time>2026-05-03T08:02:21Z</time></trkpt><trkpt lat="42.42087206789864" lon="18.794545638523577"><ele>916.6666666666667</ele><time>2026-05-03T08:02:22Z</time></trkpt><trkpt lat="42.42090812197974" lon="18.794653785050684"><ele>915.0</ele><time>2026-05-03T08:02:23Z</time></trkpt><trkpt lat="42.420930951015855" lon="18.79476487783052"><ele>913.3333333333333</ele><time>2026-05-03T08:02:24Z</time></trkpt><trkpt lat="42.420950042388924" lon="18.794866966327373"><ele>911.6666666666666</ele><time>2026-05-03T08:02:25Z</time></trkpt><trkpt lat="42.4209654289397" lon="18.79496955344616"><ele>910.0</ele><time>2026-05-03T08:02:26Z</time></trkpt><trkpt lat="42.42096986522483" lon="18.79508557232083"><ele>912.4</ele><time>2026-05-03T08:02:27Z</time></trkpt><trkpt lat="42.42097279677522" lon="18.795202557649297"><ele>914.8</ele><time>2026-05-03T08:02:28Z</time></trkpt><trkpt lat="42.42097622871573" lon="18.79533108256631"><ele>917.2</ele><time>2026-05-03T08:02:29Z</time></trkpt><trkpt lat="42.42098791380778" lon="18.7954705157933"><ele>919.6</ele><time>2026-05-03T08:02:30Z</time></trkpt><trkpt lat="42.42098937897853" lon="18.795625263986388"><ele>922.0</ele><time>2026-05-03T08:02:31Z</time></trkpt><trkpt lat="42.4209939878317" lon="18.795781254285604"><ele>922.0</ele><time>2026-05-03T08:02:32Z</time></trkpt><trkpt lat="42.420999745458865" lon="18.795932600510188"><ele>922.0</ele><time>2026-05-03T08:02:33Z</time></trkpt><trkpt lat="42.421008058060416" lon="18.796082827792844"><ele>922.0</ele><time>2026-05-03T08:02:34Z</time></trkpt><trkpt lat="42.421017574509314" lon="18.7962363452173"><ele>922.0</ele><time>2026-05-03T08:02:35Z</time></trkpt><trkpt lat="42.42103872548075" lon="18.79638708624233"><ele>924.8</ele><time>2026-05-03T08:02:36Z</time></trkpt><trkpt lat="42.42105998926444" lon="18.796538872214697"><ele>927.6</ele><time>2026-05-03T08:02:37Z</time></trkpt><trkpt lat="42.42107465533481" lon="18.796687942251076"><ele>930.3999999999999</ele><time>2026-05-03T08:02:38Z</time></trkpt><trkpt lat="42.42109981116584" lon="18.796831388694336"><ele>933.1999999999999</ele><time>2026-05-03T08:02:39Z</time></trkpt><trkpt lat="42.42113325249194" lon="18.796975813155438"><ele>936.0</ele><time>2026-05-03T08:02:40Z</time></trkpt><trkpt lat="42.42117362708119" lon="18.79713228021624"><ele>931.75</ele><time>2026-05-03T08:02:41Z</time></trkpt><trkpt lat="42.42121775570294" lon="18.797296335195657"><ele>927.5</ele><time>2026-05-03T08:02:42Z</time></trkpt><trkpt lat="42.42127007852517" lon="18.797458352806782"><ele>923.25</ele><time>2026-05-03T08:02:43Z</time></trkpt><trkpt lat="42.421329210613784" lon="18.797622886452935"><ele>919.0</ele><time>2026-05-03T08:02:44Z</time></trkpt><trkpt lat="42.4213923792708" lon="18.797784981932946"><ele>919.0</ele><time>2026-05-03T08:02:45Z</time></trkpt><trkpt lat="42.421452887050975" lon="18.797959356724682"><ele>919.0</ele><time>2026-05-03T08:02:46Z</time></trkpt><trkpt lat="42.42152250938206" lon="18.798175552445585"><ele>919.0</ele><time>2026-05-03T08:02:47Z</time></trkpt><trkpt lat="42.42159607889808" lon="18.79847017387739"><ele>927.25</ele><time>2026-05-03T08:02:48Z</time></trkpt><trkpt lat="42.42168548228944" lon="18.798602030129462"><ele>935.5</ele><time>2026-05-03T08:02:49Z</time></trkpt><trkpt lat="42.421781746262134" lon="18.798702902324212"><ele>943.75</ele><time>2026-05-03T08:02:50Z</time></trkpt><trkpt lat="42.42186840282463" lon="18.798778645366113"><ele>952.0</ele><time>2026-05-03T08:02:51Z</time></trkpt><trkpt lat="42.42194041569747" lon="18.798884602210663"><ele>952.0</ele><time>2026-05-03T08:02:52Z</time></trkpt><trkpt lat="42.4219630233094" lon="18.799032224691473"><ele>952.0</ele><time>2026-05-03T08:02:53Z</time></trkpt><trkpt lat="42.42195259075057" lon="18.799176204973634"><ele>952.0</ele><time>2026-05-03T08:02:54Z</time></trkpt><trkpt lat="42.421927414124596" lon="18.79931025102005"><ele>952.0</ele><time>2026-05-03T08:02:55Z</time></trkpt><trkpt lat="42.421930216107626" lon="18.79941957857793"><ele>952.0</ele><time>2026-05-03T08:02:56Z</time></trkpt><trkpt lat="42.42196601749539" lon="18.7995081558313"><ele>955.6</ele><time>2026-05-03T08:02:57Z</time></trkpt><trkpt lat="42.42204298209884" lon="18.79957784136973"><ele>959.2</ele><time>2026-05-03T08:02:58Z</time></trkpt><trkpt lat="42.42214237362394" lon="18.799603412072816"><ele>962.8</ele><time>2026-05-03T08:02:59Z</time></trkpt><trkpt lat="42.42223175733709" lon="18.799563355792934"><ele>966.4</ele><time>2026-05-03T08:03:00Z</time></trkpt><trkpt lat="42.4223300852296" lon="18.799513703166298"><ele>970.0</ele><time>2026-05-03T08:03:01Z</time></trkpt><trkpt lat="42.422423644704814" lon="18.79949671786376"><ele>959.8</ele><time>2026-05-03T08:03:02Z</time></trkpt><trkpt lat="42.42249252611013" lon="18.79950147012487"><ele>949.6</ele><time>2026-05-03T08:03:03Z</time></trkpt><trkpt lat="42.4225916580418" lon="18.799560160957963"><ele>939.4000000000001</ele><time>2026-05-03T08:03:05Z</time></trkpt><trkpt lat="42.42256828156162" lon="18.799724238845286"><ele>929.2</ele><time>2026-05-03T08:03:07Z</time></trkpt><trkpt lat="42.422512244285564" lon="18.79977672385644"><ele>919.0</ele><time>2026-05-03T08:03:08Z</time></trkpt><trkpt lat="42.42242840101049" lon="18.799813736751734"><ele>919.0</ele><time>2026-05-03T08:03:09Z</time></trkpt><trkpt lat="42.42235153757597" lon="18.79985755768002"><ele>919.0000000000001</ele><time>2026-05-03T08:03:10Z</time></trkpt><trkpt lat="42.422322327539185" lon="18.80005103757445"><ele>919.0000000000001</ele><time>2026-05-03T08:03:12Z</time></trkpt><trkpt lat="42.42237253480028" lon="18.800154498914903"><ele>919.0</ele><time>2026-05-03T08:03:13Z</time></trkpt><trkpt lat="42.42245472181876" lon="18.800237956360984"><ele>919.0</ele><time>2026-05-03T08:03:14Z</time></trkpt><trkpt lat="42.42255530084633" lon="18.800340774666125"><ele>927.4000000000001</ele><time>2026-05-03T08:03:15Z</time></trkpt><trkpt lat="42.4226260275705" lon="18.800458829786212"><ele>935.8000000000001</ele><time>2026-05-03T08:03:16Z</time></trkpt><trkpt lat="42.42269172248348" lon="18.800579057489806"><ele>944.1999999999999</ele><time>2026-05-03T08:03:17Z</time></trkpt><trkpt lat="42.42276448145139" lon="18.80065640879217"><ele>952.5999999999999</ele><time>2026-05-03T08:03:18Z</time></trkpt><trkpt lat="42.4228555438979" lon="18.800707749753375"><ele>961.0</ele><time>2026-05-03T08:03:19Z</time></trkpt><trkpt lat="42.42296265523052" lon="18.80072084674397"><ele>953.75</ele><time>2026-05-03T08:03:20Z</time></trkpt><trkpt lat="42.42308915874057" lon="18.800718874029386"><ele>946.5</ele><time>2026-05-03T08:03:21Z</time></trkpt><trkpt lat="42.42321397920368" lon="18.800719213715077"><ele>939.25</ele><time>2026-05-03T08:03:22Z</time></trkpt><trkpt lat="42.423332490319765" lon="18.800752891066644"><ele>932.0</ele><time>2026-05-03T08:03:23Z</time></trkpt><trkpt lat="42.423451499818825" lon="18.800787440206612"><ele>932.0</ele><time>2026-05-03T08:03:24Z</time></trkpt><trkpt lat="42.42356002427405" lon="18.80078676388406"><ele>932.0</ele><time>2026-05-03T08:03:25Z</time></trkpt><trkpt lat="42.423676463929915" lon="18.800795030699526"><ele>932.0</ele><time>2026-05-03T08:03:26Z</time></trkpt><trkpt lat="42.42378489410166" lon="18.80083146252336"><ele>932.0</ele><time>2026-05-03T08:03:27Z</time></trkpt><trkpt lat="42.42387612616319" lon="18.80085888050354"><ele>932.0</ele><time>2026-05-03T08:03:28Z</time></trkpt><trkpt lat="42.42395929933043" lon="18.800845987806763"><ele>935.4000000000001</ele><time>2026-05-03T08:03:29Z</time></trkpt><trkpt lat="42.424026092965654" lon="18.800774217239272"><ele>938.8000000000001</ele><time>2026-05-03T08:03:30Z</time></trkpt><trkpt lat="42.424070100666135" lon="18.800651564846977"><ele>942.2</ele><time>2026-05-03T08:03:31Z</time></trkpt><trkpt lat="42.42412068240613" lon="18.800500666757056"><ele>945.6</ele><time>2026-05-03T08:03:32Z</time></trkpt><trkpt lat="42.42420965807497" lon="18.800354356955932"><ele>949.0</ele><time>2026-05-03T08:03:33Z</time></trkpt><trkpt lat="42.42430826078582" lon="18.800229789811628"><ele>948.2</ele><time>2026-05-03T08:03:34Z</time></trkpt><trkpt lat="42.42438480288202" lon="18.800125475234882"><ele>947.4000000000001</ele><time>2026-05-03T08:03:35Z</time></trkpt><trkpt lat="42.42445020749996" lon="18.800039033933082"><ele>946.6</ele><time>2026-05-03T08:03:36Z</time></trkpt><trkpt lat="42.42450167862992" lon="18.79996627759454"><ele>945.8</ele><time>2026-05-03T08:03:37Z</time></trkpt><trkpt lat="42.42461379816635" lon="18.799913986313275"><ele>945.0</ele><time>2026-05-03T08:03:39Z</time></trkpt><trkpt lat="42.424690317626784" lon="18.799939989101922"><ele>945.0</ele><time>2026-05-03T08:03:40Z</time></trkpt><trkpt lat="42.424775810636575" lon="18.799976710031082"><ele>945.0</ele><time>2026-05-03T08:03:41Z</time></trkpt><trkpt lat="42.424869515656326" lon="18.799999649087333"><ele>945.0</ele><time>2026-05-03T08:03:42Z</time></trkpt><trkpt lat="42.42497519232785" lon="18.800011575541113"><ele>945.0</ele><time>2026-05-03T08:03:43Z</time></trkpt><trkpt lat="42.425086817381846" lon="18.80003086387177"><ele>945.0</ele><time>2026-05-03T08:03:44Z</time></trkpt><trkpt lat="42.4251887195341" lon="18.80004217844896"><ele>945.0</ele><time>2026-05-03T08:03:45Z</time></trkpt><trkpt lat="42.425281756119574" lon="18.80006471658851"><ele>945.0</ele><time>2026-05-03T08:03:46Z</time></trkpt><trkpt lat="42.42537734264444" lon="18.800084441553196"><ele>945.0</ele><time>2026-05-03T08:03:47Z</time></trkpt><trkpt lat="42.42547189729727" lon="18.80010563970837"><ele>945.0</ele><time>2026-05-03T08:03:48Z</time></trkpt><trkpt lat="42.425565975574905" lon="18.800124557336435"><ele>945.0</ele><time>2026-05-03T08:03:49Z</time></trkpt><trkpt lat="42.425660467418645" lon="18.800147292836385"><ele>943.8</ele><time>2026-05-03T08:03:50Z</time></trkpt><trkpt lat="42.42575158088264" lon="18.800166952020277"><ele>942.6</ele><time>2026-05-03T08:03:51Z</time></trkpt><trkpt lat="42.42583900508208" lon="18.800186914566527"><ele>941.4000000000001</ele><time>2026-05-03T08:03:52Z</time></trkpt><trkpt lat="42.425923837138775" lon="18.800207530551777"><ele>940.2</ele><time>2026-05-03T08:03:53Z</time></trkpt><trkpt lat="42.42601238980063" lon="18.80021909594972"><ele>939.0</ele><time>2026-05-03T08:03:54Z</time></trkpt><trkpt lat="42.42611039626863" lon="18.800221626570792"><ele>939.0</ele><time>2026-05-03T08:03:55Z</time></trkpt><trkpt lat="42.42620428709155" lon="18.800192992984687"><ele>939.0000000000001</ele><time>2026-05-03T08:03:56Z</time></trkpt><trkpt lat="42.42631368932717" lon="18.800184172436907"><ele>939.0000000000001</ele><time>2026-05-03T08:03:57Z</time></trkpt><trkpt lat="42.426421054250056" lon="18.800153601598954"><ele>939.0</ele><time>2026-05-03T08:03:58Z</time></trkpt><trkpt lat="42.42653270410222" lon="18.800117964072577"><ele>939.0</ele><time>2026-05-03T08:03:59Z</time></trkpt><trkpt lat="42.42663955411192" lon="18.800083411585796"><ele>938.0</ele><time>2026-05-03T08:04:00Z</time></trkpt><trkpt lat="42.42674182505995" lon="18.800067671122534"><ele>937.0000000000001</ele><time>2026-05-03T08:04:01Z</time></trkpt><trkpt lat="42.42684769719806" lon="18.800070838827324"><ele>936.0000000000001</ele><time>2026-05-03T08:04:02Z</time></trkpt><trkpt lat="42.42695475359305" lon="18.800097991506426"><ele>935.0</ele><time>2026-05-03T08:04:03Z</time></trkpt><trkpt lat="42.427059765678585" lon="18.800154487745278"><ele>934.0</ele><time>2026-05-03T08:04:04Z</time></trkpt><trkpt lat="42.42715592589921" lon="18.800244087710844"><ele>933.25</ele><time>2026-05-03T08:04:05Z</time></trkpt><trkpt lat="42.42723670460367" lon="18.800349903584554"><ele>932.5</ele><time>2026-05-03T08:04:06Z</time></trkpt><trkpt lat="42.427302333958046" lon="18.800474357320027"><ele>931.75</ele><time>2026-05-03T08:04:07Z</time></trkpt><trkpt lat="42.42734452024979" lon="18.80061509773664"><ele>931.0</ele><time>2026-05-03T08:04:08Z</time></trkpt><trkpt lat="42.42736584131456" lon="18.80076567802394"><ele>931.0</ele><time>2026-05-03T08:04:09Z</time></trkpt><trkpt lat="42.42736518716742" lon="18.80091750975593"><ele>930.9999999999999</ele><time>2026-05-03T08:04:10Z</time></trkpt><trkpt lat="42.42734747517708" lon="18.801068119015927"><ele>930.9999999999999</ele><time>2026-05-03T08:04:11Z</time></trkpt><trkpt lat="42.427317104504475" lon="18.801213470882278"><ele>931.0</ele><time>2026-05-03T08:04:12Z</time></trkpt><trkpt lat="42.427278202416986" lon="18.80135351178702"><ele>931.0</ele><time>2026-05-03T08:04:13Z</time></trkpt><trkpt lat="42.427244074596466" lon="18.801520750759686"><ele>930.6666666666666</ele><time>2026-05-03T08:04:14Z</time></trkpt><trkpt lat="42.42720457748764" lon="18.80172494610101"><ele>930.3333333333333</ele><time>2026-05-03T08:04:15Z</time></trkpt><trkpt lat="42.42717469535561" lon="18.801949266777715"><ele>930.0</ele><time>2026-05-03T08:04:16Z</time></trkpt><trkpt lat="42.427171497978975" lon="18.802189380521465"><ele>928.6666666666667</ele><time>2026-05-03T08:04:17Z</time></trkpt><trkpt lat="42.42721489300343" lon="18.802429626397632"><ele>927.3333333333334</ele><time>2026-05-03T08:04:18Z</time></trkpt><trkpt lat="42.4272973717707" lon="18.80264501333641"><ele>926.0</ele><time>2026-05-03T08:04:19Z</time></trkpt><trkpt lat="42.42738008731923" lon="18.80285057873491"><ele>924.6666666666667</ele><time>2026-05-03T08:04:20Z</time></trkpt><trkpt lat="42.4274326871347" lon="18.80306513413724"><ele>923.3333333333333</ele><time>2026-05-03T08:04:21Z</time></trkpt><trkpt lat="42.42750438526434" lon="18.803258649763794"><ele>922.0</ele><time>2026-05-03T08:04:22Z</time></trkpt><trkpt lat="42.42756775347366" lon="18.80344660510223"><ele>921.0</ele><time>2026-05-03T08:04:23Z</time></trkpt><trkpt lat="42.42763001750513" lon="18.80361876460978"><ele>920.0</ele><time>2026-05-03T08:04:24Z</time></trkpt><trkpt lat="42.42769423558319" lon="18.803778517222987"><ele>919.0</ele><time>2026-05-03T08:04:25Z</time></trkpt><trkpt lat="42.42776253062882" lon="18.8039216053103"><ele>918.0</ele><time>2026-05-03T08:04:26Z</time></trkpt><trkpt lat="42.42783860159348" lon="18.80405042986364"><ele>918.0</ele><time>2026-05-03T08:04:27Z</time></trkpt><trkpt lat="42.42793444531665" lon="18.8041626370634"><ele>918.0</ele><time>2026-05-03T08:04:28Z</time></trkpt><trkpt lat="42.42805377209461" lon="18.804251697941716"><ele>918.0</ele><time>2026-05-03T08:04:29Z</time></trkpt><trkpt lat="42.4281867389916" lon="18.804335658769944"><ele>918.0</ele><time>2026-05-03T08:04:30Z</time></trkpt><trkpt lat="42.428327089527244" lon="18.804425957553033"><ele>917.3333333333333</ele><time>2026-05-03T08:04:31Z</time></trkpt><trkpt lat="42.42846911615227" lon="18.80452210360662"><ele>916.6666666666666</ele><time>2026-05-03T08:04:32Z</time></trkpt><trkpt lat="42.42861111709836" lon="18.804617199071483"><ele>916.0</ele><time>2026-05-03T08:04:33Z</time></trkpt><trkpt lat="42.42875143859196" lon="18.80472021504809"><ele>915.75</ele><time>2026-05-03T08:04:34Z</time></trkpt><trkpt lat="42.42889066222056" lon="18.8048219948522"><ele>915.5</ele><time>2026-05-03T08:04:35Z</time></trkpt><trkpt lat="42.42902158139798" lon="18.804908429458273"><ele>915.25</ele><time>2026-05-03T08:04:36Z</time></trkpt><trkpt lat="42.42913976842768" lon="18.804992483050285"><ele>915.0</ele><time>2026-05-03T08:04:37Z</time></trkpt><trkpt lat="42.42925676937002" lon="18.8050866596235"><ele>914.75</ele><time>2026-05-03T08:04:38Z</time></trkpt><trkpt lat="42.429369008828914" lon="18.805202799757286"><ele>914.5</ele><time>2026-05-03T08:04:39Z</time></trkpt><trkpt lat="42.42946761195711" lon="18.805347000256763"><ele>914.25</ele><time>2026-05-03T08:04:40Z</time></trkpt><trkpt lat="42.42955023527526" lon="18.80551737684645"><ele>914.0</ele><time>2026-05-03T08:04:41Z</time></trkpt><trkpt lat="42.4296338568106" lon="18.80570068325577"><ele>913.5</ele><time>2026-05-03T08:04:42Z</time></trkpt><trkpt lat="42.42972453142288" lon="18.80585794388141"><ele>913.0</ele><time>2026-05-03T08:04:43Z</time></trkpt><trkpt lat="42.429807359283885" lon="18.806007463738787"><ele>912.5</ele><time>2026-05-03T08:04:44Z</time></trkpt><trkpt lat="42.429889662430504" lon="18.806146356481996"><ele>912.0</ele><time>2026-05-03T08:04:45Z</time></trkpt><trkpt lat="42.42996964120939" lon="18.80627693010512"><ele>912.0</ele><time>2026-05-03T08:04:46Z</time></trkpt><trkpt lat="42.43004518517885" lon="18.806403956532748"><ele>912.0</ele><time>2026-05-03T08:04:47Z</time></trkpt><trkpt lat="42.4301257938269" lon="18.80652020664568"><ele>912.0</ele><time>2026-05-03T08:04:48Z</time></trkpt><trkpt lat="42.430213328419356" lon="18.80662500495846"><ele>912.0</ele><time>2026-05-03T08:04:49Z</time></trkpt><trkpt lat="42.430311835448684" lon="18.80671756757442"><ele>912.0</ele><time>2026-05-03T08:04:50Z</time></trkpt><trkpt lat="42.430423974885635" lon="18.806803904974753"><ele>912.0</ele><time>2026-05-03T08:04:51Z</time></trkpt><trkpt lat="42.43054026117055" lon="18.806897784566942"><ele>912.0</ele><time>2026-05-03T08:04:52Z</time></trkpt><trkpt lat="42.430664026418675" lon="18.80699816878645"><ele>912.0</ele><time>2026-05-03T08:04:53Z</time></trkpt><trkpt lat="42.43078578222331" lon="18.807105456815826"><ele>910.6666666666667</ele><time>2026-05-03T08:04:54Z</time></trkpt><trkpt lat="42.430912941195544" lon="18.80722070603319"><ele>909.3333333333334</ele><time>2026-05-03T08:04:55Z</time></trkpt><trkpt lat="42.43104616777139" lon="18.807346608734523"><ele>908.0</ele><time>2026-05-03T08:04:56Z</time></trkpt><trkpt lat="42.43117239346738" lon="18.807499574865417"><ele>908.3333333333334</ele><time>2026-05-03T08:04:57Z</time></trkpt><trkpt lat="42.43129034397968" lon="18.80766610345689"><ele>908.6666666666667</ele><time>2026-05-03T08:04:58Z</time></trkpt><trkpt lat="42.43141078857155" lon="18.807825874315874"><ele>909.0</ele><time>2026-05-03T08:04:59Z</time></trkpt><trkpt lat="42.431527077224324" lon="18.80797949186091"><ele>909.0</ele><time>2026-05-03T08:05:00Z</time></trkpt><trkpt lat="42.43165024246358" lon="18.80813174975882"><ele>909.0</ele><time>2026-05-03T08:05:01Z</time></trkpt><trkpt lat="42.43177629682917" lon="18.80827045782217"><ele>909.0</ele><time>2026-05-03T08:05:02Z</time></trkpt><trkpt lat="42.43191224300322" lon="18.80839607980006"><ele>908.0</ele><time>2026-05-03T08:05:03Z</time></trkpt><trkpt lat="42.43205714963124" lon="18.808500086361576"><ele>907.0</ele><time>2026-05-03T08:05:04Z</time></trkpt><trkpt lat="42.43220353370255" lon="18.808582219799"><ele>906.0</ele><time>2026-05-03T08:05:05Z</time></trkpt><trkpt lat="42.43234759688136" lon="18.808663285657858"><ele>906.0</ele><time>2026-05-03T08:05:06Z</time></trkpt><trkpt lat="42.432484374682176" lon="18.808747612721277"><ele>906.0</ele><time>2026-05-03T08:05:07Z</time></trkpt><trkpt lat="42.43261022047651" lon="18.808852666447546"><ele>906.0</ele><time>2026-05-03T08:05:08Z</time></trkpt><trkpt lat="42.43270516754586" lon="18.808994666352493"><ele>906.0</ele><time>2026-05-03T08:05:09Z</time></trkpt><trkpt lat="42.432749585893205" lon="18.809183412030926"><ele>905.25</ele><time>2026-05-03T08:05:10Z</time></trkpt><trkpt lat="42.43274589414177" lon="18.809389335358958"><ele>904.5</ele><time>2026-05-03T08:05:11Z</time></trkpt><trkpt lat="42.432690756798756" lon="18.809574012369506"><ele>903.75</ele><time>2026-05-03T08:05:12Z</time></trkpt><trkpt lat="42.43260653104882" lon="18.8097403126709"><ele>903.0</ele><time>2026-05-03T08:05:13Z</time></trkpt><trkpt lat="42.43251361226311" lon="18.80990446361943"><ele>903.0</ele><time>2026-05-03T08:05:14Z</time></trkpt><trkpt lat="42.43243264358898" lon="18.810089135321032"><ele>903.0</ele><time>2026-05-03T08:05:15Z</time></trkpt><trkpt lat="42.43238028680434" lon="18.810307224777343"><ele>903.0</ele><time>2026-05-03T08:05:16Z</time></trkpt><trkpt lat="42.43236250804869" lon="18.810551263833577"><ele>903.0</ele><time>2026-05-03T08:05:17Z</time></trkpt><trkpt lat="42.43236991284816" lon="18.81080578467441"><ele>903.0</ele><time>2026-05-03T08:05:18Z</time></trkpt><trkpt lat="42.43239532587317" lon="18.811056325324962"><ele>903.0</ele><time>2026-05-03T08:05:19Z</time></trkpt><trkpt lat="42.43242101766163" lon="18.811303034775662"><ele>901.0</ele><time>2026-05-03T08:05:20Z</time></trkpt><trkpt lat="42.43243658790522" lon="18.81154431100015"><ele>899.0</ele><time>2026-05-03T08:05:21Z</time></trkpt><trkpt lat="42.4324525603556" lon="18.811774404401685"><ele>897.0</ele><time>2026-05-03T08:05:22Z</time></trkpt><trkpt lat="42.43246231094654" lon="18.811985945019853"><ele>895.5</ele><time>2026-05-03T08:05:23Z</time></trkpt><trkpt lat="42.43245731015121" lon="18.81219116357165"><ele>894.0</ele><time>2026-05-03T08:05:24Z</time></trkpt><trkpt lat="42.43241759268691" lon="18.812376850601847"><ele>892.5</ele><time>2026-05-03T08:05:25Z</time></trkpt><trkpt lat="42.43233331949576" lon="18.812529703127712"><ele>891.0</ele><time>2026-05-03T08:05:26Z</time></trkpt><trkpt lat="42.432215322149254" lon="18.812647250460092"><ele>890.3333333333333</ele><time>2026-05-03T08:05:27Z</time></trkpt><trkpt lat="42.43208370831582" lon="18.812746996951915"><ele>889.6666666666666</ele><time>2026-05-03T08:05:28Z</time></trkpt><trkpt lat="42.431929107273334" lon="18.812801891860463"><ele>889.0</ele><time>2026-05-03T08:05:29Z</time></trkpt><trkpt lat="42.4317661942877" lon="18.81282618147075"><ele>889.0</ele><time>2026-05-03T08:05:30Z</time></trkpt><trkpt lat="42.43159643015746" lon="18.812849361902497"><ele>889.0</ele><time>2026-05-03T08:05:31Z</time></trkpt><trkpt lat="42.43141449456556" lon="18.812887728985505"><ele>889.0</ele><time>2026-05-03T08:05:32Z</time></trkpt><trkpt lat="42.43121955514943" lon="18.812932388821572"><ele>888.3333333333333</ele><time>2026-05-03T08:05:33Z</time></trkpt><trkpt lat="42.431021695912186" lon="18.812982545629897"><ele>887.6666666666667</ele><time>2026-05-03T08:05:34Z</time></trkpt><trkpt lat="42.430831695397146" lon="18.81306472197406"><ele>887.0</ele><time>2026-05-03T08:05:35Z</time></trkpt><trkpt lat="42.43065994423664" lon="18.813205772403716"><ele>887.0</ele><time>2026-05-03T08:05:36Z</time></trkpt><trkpt lat="42.43052084048797" lon="18.813403973353015"><ele>887.0</ele><time>2026-05-03T08:05:37Z</time></trkpt><trkpt lat="42.43040193919398" lon="18.813599916093267"><ele>887.0</ele><time>2026-05-03T08:05:38Z</time></trkpt><trkpt lat="42.430256012103754" lon="18.813728024846768"><ele>885.6666666666667</ele><time>2026-05-03T08:05:39Z</time></trkpt><trkpt lat="42.43008208239037" lon="18.813796016227897"><ele>884.3333333333333</ele><time>2026-05-03T08:05:40Z</time></trkpt><trkpt lat="42.42989506444628" lon="18.81381979484511"><ele>883.0</ele><time>2026-05-03T08:05:41Z</time></trkpt><trkpt lat="42.429718567999515" lon="18.813859225655687"><ele>884.6666666666666</ele><time>2026-05-03T08:05:42Z</time></trkpt><trkpt lat="42.42957761452751" lon="18.813968791897913"><ele>886.3333333333333</ele><time>2026-05-03T08:05:43Z</time></trkpt><trkpt lat="42.42946954995233" lon="18.814123539676064"><ele>888.0</ele><time>2026-05-03T08:05:44Z</time></trkpt><trkpt lat="42.42940045264209" lon="18.81430642103107"><ele>885.3333333333333</ele><time>2026-05-03T08:05:45Z</time></trkpt><trkpt lat="42.42936092654245" lon="18.814519291442295"><ele>882.6666666666666</ele><time>2026-05-03T08:05:46Z</time></trkpt><trkpt lat="42.429349150918966" lon="18.814754923122752"><ele>880.0</ele><time>2026-05-03T08:05:47Z</time></trkpt><trkpt lat="42.42935107194078" lon="18.814987948790954"><ele>880.0</ele><time>2026-05-03T08:05:48Z</time></trkpt><trkpt lat="42.42934189836696" lon="18.815209887178565"><ele>880.0</ele><time>2026-05-03T08:05:49Z</time></trkpt><trkpt lat="42.42929642065896" lon="18.815418606391326"><ele>880.0</ele><time>2026-05-03T08:05:50Z</time></trkpt><trkpt lat="42.42920169148256" lon="18.815590229977108"><ele>880.0</ele><time>2026-05-03T08:05:51Z</time></trkpt><trkpt lat="42.42907196834168" lon="18.815721895389697"><ele>880.0</ele><time>2026-05-03T08:05:52Z</time></trkpt><trkpt lat="42.428918575842204" lon="18.815797741223296"><ele>880.0</ele><time>2026-05-03T08:05:53Z</time></trkpt><trkpt lat="42.42875290739822" lon="18.815843115736996"><ele>880.0</ele><time>2026-05-03T08:05:54Z</time></trkpt><trkpt lat="42.42858631997057" lon="18.815869705733544"><ele>880.0</ele><time>2026-05-03T08:05:55Z</time></trkpt><trkpt lat="42.42842170495694" lon="18.815934680648564"><ele>880.0</ele><time>2026-05-03T08:05:56Z</time></trkpt><trkpt lat="42.428276947142585" lon="18.816075321332775"><ele>880.6666666666666</ele><time>2026-05-03T08:05:57Z</time></trkpt><trkpt lat="42.42815088978666" lon="18.816281234501403"><ele>881.3333333333333</ele><time>2026-05-03T08:05:58Z</time></trkpt><trkpt lat="42.42802486781324" lon="18.81650011554555"><ele>882.0</ele><time>2026-05-03T08:05:59Z</time></trkpt><trkpt lat="42.42788963605272" lon="18.81670467691518"><ele>880.0</ele><time>2026-05-03T08:06:00Z</time></trkpt><trkpt lat="42.427760172452004" lon="18.81691285507817"><ele>878.0</ele><time>2026-05-03T08:06:01Z</time></trkpt><trkpt lat="42.427652949562805" lon="18.817129147263927"><ele>876.0</ele><time>2026-05-03T08:06:02Z</time></trkpt><trkpt lat="42.427592791086916" lon="18.81736637365183"><ele>876.0</ele><time>2026-05-03T08:06:03Z</time></trkpt><trkpt lat="42.42757519423048" lon="18.817601704147062"><ele>876.0</ele><time>2026-05-03T08:06:04Z</time></trkpt><trkpt lat="42.42757794942544" lon="18.817829065001916"><ele>876.0</ele><time>2026-05-03T08:06:05Z</time></trkpt><trkpt lat="42.42759325318036" lon="18.818039236755162"><ele>874.6666666666667</ele><time>2026-05-03T08:06:06Z</time></trkpt><trkpt lat="42.42761872976081" lon="18.818260047399686"><ele>873.3333333333334</ele><time>2026-05-03T08:06:07Z</time></trkpt><trkpt lat="42.42762256298654" lon="18.818494482142555"><ele>872.0</ele><time>2026-05-03T08:06:08Z</time></trkpt><trkpt lat="42.427565950184324" lon="18.818715936281258"><ele>871.3333333333334</ele><time>2026-05-03T08:06:09Z</time></trkpt><trkpt lat="42.427464975869405" lon="18.81891940759515"><ele>870.6666666666667</ele><time>2026-05-03T08:06:10Z</time></trkpt><trkpt lat="42.42736720494672" lon="18.81911279376695"><ele>870.0</ele><time>2026-05-03T08:06:11Z</time></trkpt><trkpt lat="42.427314055420936" lon="18.819329878268658"><ele>868.6666666666667</ele><time>2026-05-03T08:06:12Z</time></trkpt><trkpt lat="42.42731056714808" lon="18.819564663470636"><ele>867.3333333333334</ele><time>2026-05-03T08:06:13Z</time></trkpt><trkpt lat="42.42735135965548" lon="18.8198029750469"><ele>866.0</ele><time>2026-05-03T08:06:14Z</time></trkpt><trkpt lat="42.427442052318455" lon="18.820020225580702"><ele>864.3333333333334</ele><time>2026-05-03T08:06:15Z</time></trkpt><trkpt lat="42.42755971269391" lon="18.820210314143743"><ele>862.6666666666667</ele><time>2026-05-03T08:06:16Z</time></trkpt><trkpt lat="42.427688721573105" lon="18.82038655357516"><ele>861.0</ele><time>2026-05-03T08:06:17Z</time></trkpt><trkpt lat="42.42779637486606" lon="18.82057463620812"><ele>861.0</ele><time>2026-05-03T08:06:18Z</time></trkpt><trkpt lat="42.42784426449431" lon="18.8207976104039"><ele>861.0</ele><time>2026-05-03T08:06:19Z</time></trkpt><trkpt lat="42.42784342749848" lon="18.821022026670168"><ele>861.0</ele><time>2026-05-03T08:06:20Z</time></trkpt><trkpt lat="42.42781349169465" lon="18.821226800527945"><ele>860.5</ele><time>2026-05-03T08:06:21Z</time></trkpt><trkpt lat="42.42778061207457" lon="18.821429470247285"><ele>860.0</ele><time>2026-05-03T08:06:22Z</time></trkpt><trkpt lat="42.42776507900518" lon="18.82162159402812"><ele>859.5</ele><time>2026-05-03T08:06:23Z</time></trkpt><trkpt lat="42.42776082995937" lon="18.82179975968296"><ele>859.0</ele><time>2026-05-03T08:06:24Z</time></trkpt><trkpt lat="42.42777361657192" lon="18.821978528846053"><ele>858.75</ele><time>2026-05-03T08:06:25Z</time></trkpt><trkpt lat="42.42779551703716" lon="18.822148553121664"><ele>858.5</ele><time>2026-05-03T08:06:26Z</time></trkpt><trkpt lat="42.42783414242726" lon="18.822306424707644"><ele>858.25</ele><time>2026-05-03T08:06:27Z</time></trkpt><trkpt lat="42.427875648455014" lon="18.822456949852636"><ele>858.0</ele><time>2026-05-03T08:06:28Z</time></trkpt><trkpt lat="42.4279162950151" lon="18.82260056506581"><ele>857.75</ele><time>2026-05-03T08:06:29Z</time></trkpt><trkpt lat="42.42795925778611" lon="18.82273888242476"><ele>857.5</ele><time>2026-05-03T08:06:30Z</time></trkpt><trkpt lat="42.42800652549334" lon="18.822882592128707"><ele>857.25</ele><time>2026-05-03T08:06:31Z</time></trkpt><trkpt lat="42.42805702497243" lon="18.82302244619434"><ele>857.0</ele><time>2026-05-03T08:06:32Z</time></trkpt><trkpt lat="42.42810926813749" lon="18.82316375562337"><ele>857.0</ele><time>2026-05-03T08:06:33Z</time></trkpt><trkpt lat="42.428167359618584" lon="18.823307041404874"><ele>857.0</ele><time>2026-05-03T08:06:34Z</time></trkpt><trkpt lat="42.428240749090975" lon="18.823453537448934"><ele>857.0</ele><time>2026-05-03T08:06:35Z</time></trkpt><trkpt lat="42.42833995418943" lon="18.823586480572224"><ele>857.0</ele><time>2026-05-03T08:06:36Z</time></trkpt><trkpt lat="42.42844720683874" lon="18.823735202375925"><ele>856.0</ele><time>2026-05-03T08:06:37Z</time></trkpt><trkpt lat="42.42855242418514" lon="18.823898945868695"><ele>855.0</ele><time>2026-05-03T08:06:38Z</time></trkpt><trkpt lat="42.428668932232625" lon="18.824061665611058"><ele>854.0</ele><time>2026-05-03T08:06:39Z</time></trkpt><trkpt lat="42.428780452254884" lon="18.82422670474014"><ele>853.6666666666667</ele><time>2026-05-03T08:06:40Z</time></trkpt><trkpt lat="42.42889850137379" lon="18.82439513966375"><ele>853.3333333333333</ele><time>2026-05-03T08:06:41Z</time></trkpt><trkpt lat="42.42901734125756" lon="18.824565719465166"><ele>853.0</ele><time>2026-05-03T08:06:42Z</time></trkpt><trkpt lat="42.42913737846782" lon="18.824742455547035"><ele>853.0</ele><time>2026-05-03T08:06:43Z</time></trkpt><trkpt lat="42.42925734050835" lon="18.824920510696717"><ele>853.0</ele><time>2026-05-03T08:06:44Z</time></trkpt><trkpt lat="42.42937887541558" lon="18.825101346549747"><ele>853.0</ele><time>2026-05-03T08:06:45Z</time></trkpt><trkpt lat="42.4295028412536" lon="18.825283828459263"><ele>853.0</ele><time>2026-05-03T08:06:46Z</time></trkpt><trkpt lat="42.42962981815685" lon="18.825474252958568"><ele>853.0</ele><time>2026-05-03T08:06:47Z</time></trkpt><trkpt lat="42.429760319620506" lon="18.825670335054113"><ele>853.0</ele><time>2026-05-03T08:06:48Z</time></trkpt><trkpt lat="42.42989394615092" lon="18.82586784956222"><ele>851.6666666666666</ele><time>2026-05-03T08:06:49Z</time></trkpt><trkpt lat="42.43002249301026" lon="18.826057405517403"><ele>850.3333333333333</ele><time>2026-05-03T08:06:50Z</time></trkpt><trkpt lat="42.43014467952632" lon="18.826257467471763"><ele>849.0</ele><time>2026-05-03T08:06:51Z</time></trkpt><trkpt lat="42.43024916800327" lon="18.82646273938165"><ele>849.0</ele><time>2026-05-03T08:06:52Z</time></trkpt><trkpt lat="42.43033829843072" lon="18.82667938912529"><ele>849.0</ele><time>2026-05-03T08:06:53Z</time></trkpt><trkpt lat="42.43042119871616" lon="18.826885999102164"><ele>849.0</ele><time>2026-05-03T08:06:54Z</time></trkpt><trkpt lat="42.43050915117651" lon="18.82707555199946"><ele>848.5</ele><time>2026-05-03T08:06:55Z</time></trkpt><trkpt lat="42.43059753712683" lon="18.827246174596798"><ele>848.0</ele><time>2026-05-03T08:06:56Z</time></trkpt><trkpt lat="42.430683580028195" lon="18.827406675073334"><ele>847.5</ele><time>2026-05-03T08:06:57Z</time></trkpt><trkpt lat="42.4307763884461" lon="18.8275589779722"><ele>847.0</ele><time>2026-05-03T08:06:58Z</time></trkpt><trkpt lat="42.4308846712705" lon="18.827689481469122"><ele>847.0</ele><time>2026-05-03T08:06:59Z</time></trkpt><trkpt lat="42.43100365454455" lon="18.82781496938118"><ele>847.0</ele><time>2026-05-03T08:07:00Z</time></trkpt><trkpt lat="42.43111421186566" lon="18.827940913591487"><ele>847.0</ele><time>2026-05-03T08:07:01Z</time></trkpt><trkpt lat="42.43121949847893" lon="18.828065792503462"><ele>847.0</ele><time>2026-05-03T08:07:02Z</time></trkpt><trkpt lat="42.43132487137988" lon="18.82818406433334"><ele>847.0</ele><time>2026-05-03T08:07:03Z</time></trkpt><trkpt lat="42.431433710476576" lon="18.8283035791921"><ele>847.0</ele><time>2026-05-03T08:07:04Z</time></trkpt><trkpt lat="42.43154207190551" lon="18.82841869911572"><ele>847.0</ele><time>2026-05-03T08:07:05Z</time></trkpt><trkpt lat="42.431656347016" lon="18.828534592853558"><ele>847.0</ele><time>2026-05-03T08:07:06Z</time></trkpt><trkpt lat="42.431776399871" lon="18.82865789079268"><ele>848.0</ele><time>2026-05-03T08:07:07Z</time></trkpt><trkpt lat="42.43189681991909" lon="18.82876248737584"><ele>849.0</ele><time>2026-05-03T08:07:08Z</time></trkpt><trkpt lat="42.432020799105054" lon="18.82884235031713"><ele>850.0</ele><time>2026-05-03T08:07:09Z</time></trkpt><trkpt lat="42.43215226449274" lon="18.828883713336378"><ele>851.0</ele><time>2026-05-03T08:07:10Z</time></trkpt><trkpt lat="42.432277057075666" lon="18.828879110956322"><ele>851.4</ele><time>2026-05-03T08:07:11Z</time></trkpt><trkpt lat="42.43238138512351" lon="18.82883483751096"><ele>851.8</ele><time>2026-05-03T08:07:12Z</time></trkpt><trkpt lat="42.43247774359693" lon="18.82881354237932"><ele>852.1999999999999</ele><time>2026-05-03T08:07:13Z</time></trkpt><trkpt lat="42.432575124927" lon="18.828820892868748"><ele>852.5999999999999</ele><time>2026-05-03T08:07:14Z</time></trkpt><trkpt lat="42.432663580584695" lon="18.828857817270393"><ele>853.0</ele><time>2026-05-03T08:07:15Z</time></trkpt><trkpt lat="42.432760240151836" lon="18.828886823670807"><ele>853.0</ele><time>2026-05-03T08:07:16Z</time></trkpt><trkpt lat="42.432867556198985" lon="18.82892310647346"><ele>853.0</ele><time>2026-05-03T08:07:17Z</time></trkpt><trkpt lat="42.43297556333299" lon="18.828970115341313"><ele>853.0</ele><time>2026-05-03T08:07:18Z</time></trkpt><trkpt lat="42.433090087240494" lon="18.829018945673297"><ele>853.0</ele><time>2026-05-03T08:07:19Z</time></trkpt><trkpt lat="42.43320233169479" lon="18.829066930621217"><ele>852.75</ele><time>2026-05-03T08:07:20Z</time></trkpt><trkpt lat="42.433317264613486" lon="18.829114290970086"><ele>852.5</ele><time>2026-05-03T08:07:21Z</time></trkpt><trkpt lat="42.43343248931166" lon="18.829161600181315"><ele>852.25</ele><time>2026-05-03T08:07:22Z</time></trkpt><trkpt lat="42.43354906765413" lon="18.82921119156368"><ele>852.0</ele><time>2026-05-03T08:07:23Z</time></trkpt><trkpt lat="42.43366424713278" lon="18.829257706413344"><ele>852.0</ele><time>2026-05-03T08:07:24Z</time></trkpt><trkpt lat="42.43377820098796" lon="18.829301375733515"><ele>852.0</ele><time>2026-05-03T08:07:25Z</time></trkpt><trkpt lat="42.43389561595528" lon="18.829339444232165"><ele>852.0</ele><time>2026-05-03T08:07:26Z</time></trkpt><trkpt lat="42.43401452200813" lon="18.82936892540161"><ele>852.0</ele><time>2026-05-03T08:07:27Z</time></trkpt><trkpt lat="42.43413889626672" lon="18.829394868074317"><ele>853.75</ele><time>2026-05-03T08:07:28Z</time></trkpt><trkpt lat="42.43426329845167" lon="18.82941629863969"><ele>855.5</ele><time>2026-05-03T08:07:29Z</time></trkpt><trkpt lat="42.434383302613114" lon="18.82944522300088"><ele>857.25</ele><time>2026-05-03T08:07:30Z</time></trkpt><trkpt lat="42.43450671588701" lon="18.82947075016037"><ele>859.0</ele><time>2026-05-03T08:07:31Z</time></trkpt><trkpt lat="42.43462928039277" lon="18.829492082248333"><ele>858.5</ele><time>2026-05-03T08:07:32Z</time></trkpt><trkpt lat="42.43474437260717" lon="18.82951479298747"><ele>858.0</ele><time>2026-05-03T08:07:33Z</time></trkpt><trkpt lat="42.434856719810185" lon="18.829539307201912"><ele>857.5</ele><time>2026-05-03T08:07:34Z</time></trkpt><trkpt lat="42.43497428954657" lon="18.829562214786336"><ele>857.0</ele><time>2026-05-03T08:07:35Z</time></trkpt><trkpt lat="42.43509302996993" lon="18.829592838822446"><ele>857.0</ele><time>2026-05-03T08:07:36Z</time></trkpt><trkpt lat="42.43521226672547" lon="18.829619563144973"><ele>857.0</ele><time>2026-05-03T08:07:37Z</time></trkpt><trkpt lat="42.43533182741499" lon="18.82964084436798"><ele>857.0</ele><time>2026-05-03T08:07:38Z</time></trkpt><trkpt lat="42.43544440657897" lon="18.829664038440452"><ele>857.0</ele><time>2026-05-03T08:07:39Z</time></trkpt><trkpt lat="42.43556099217949" lon="18.8296877938938"><ele>856.5</ele><time>2026-05-03T08:07:40Z</time></trkpt><trkpt lat="42.435684525781134" lon="18.829711986908915"><ele>856.0</ele><time>2026-05-03T08:07:41Z</time></trkpt><trkpt lat="42.435808835676816" lon="18.82972998695013"><ele>855.5</ele><time>2026-05-03T08:07:42Z</time></trkpt><trkpt lat="42.435931913940934" lon="18.8297529763294"><ele>855.0</ele><time>2026-05-03T08:07:43Z</time></trkpt><trkpt lat="42.436055595675136" lon="18.829775205878203"><ele>855.0</ele><time>2026-05-03T08:07:44Z</time></trkpt><trkpt lat="42.43618408025064" lon="18.82979904187205"><ele>855.0</ele><time>2026-05-03T08:07:45Z</time></trkpt><trkpt lat="42.43631879555434" lon="18.8298076440607"><ele>855.0</ele><time>2026-05-03T08:07:46Z</time></trkpt><trkpt lat="42.436451967529116" lon="18.82980368153549"><ele>855.0</ele><time>2026-05-03T08:07:47Z</time></trkpt><trkpt lat="42.43658262468044" lon="18.829781393903858"><ele>857.75</ele><time>2026-05-03T08:07:48Z</time></trkpt><trkpt lat="42.436706310816966" lon="18.829737674409063"><ele>860.5</ele><time>2026-05-03T08:07:49Z</time></trkpt><trkpt lat="42.43682327248734" lon="18.829668258549884"><ele>863.25</ele><time>2026-05-03T08:07:50Z</time></trkpt><trkpt lat="42.4369339502112" lon="18.82957610671531"><ele>866.0</ele><time>2026-05-03T08:07:51Z</time></trkpt><trkpt lat="42.43702125027753" lon="18.829437999875307"><ele>866.75</ele><time>2026-05-03T08:07:52Z</time></trkpt><trkpt lat="42.43709386149888" lon="18.82928732399467"><ele>867.5</ele><time>2026-05-03T08:07:53Z</time></trkpt><trkpt lat="42.43717822218011" lon="18.829161027773512"><ele>868.25</ele><time>2026-05-03T08:07:54Z</time></trkpt><trkpt lat="42.43728855212885" lon="18.829086116438212"><ele>869.0</ele><time>2026-05-03T08:07:55Z</time></trkpt><trkpt lat="42.43741534985473" lon="18.829042629378087"><ele>869.0</ele><time>2026-05-03T08:07:56Z</time></trkpt><trkpt lat="42.4375455838741" lon="18.828991845944984"><ele>869.0000000000001</ele><time>2026-05-03T08:07:57Z</time></trkpt><trkpt lat="42.43766736202059" lon="18.828926447465197"><ele>869.0000000000001</ele><time>2026-05-03T08:07:58Z</time></trkpt><trkpt lat="42.43775411634026" lon="18.82885579070692"><ele>869.0</ele><time>2026-05-03T08:07:59Z</time></trkpt><trkpt lat="42.43782285647044" lon="18.828837401467435"><ele>869.0</ele><time>2026-05-03T08:08:00Z</time></trkpt><trkpt lat="42.43788162974879" lon="18.828966176925885"><ele>869.0</ele><time>2026-05-03T08:08:02Z</time></trkpt><trkpt lat="42.43784858505806" lon="18.829069709531858"><ele>869.0</ele><time>2026-05-03T08:08:03Z</time></trkpt><trkpt lat="42.43775685696785" lon="18.829162190645945"><ele>869.0</ele><time>2026-05-03T08:08:04Z</time></trkpt><trkpt lat="42.437639815190295" lon="18.829225759713985"><ele>869.0</ele><time>2026-05-03T08:08:05Z</time></trkpt><trkpt lat="42.43748846288552" lon="18.829258302494214"><ele>868.0</ele><time>2026-05-03T08:08:06Z</time></trkpt><trkpt lat="42.43733157786087" lon="18.829320659605298"><ele>867.0</ele><time>2026-05-03T08:08:07Z</time></trkpt><trkpt lat="42.43720964890272" lon="18.829450753786166"><ele>866.0</ele><time>2026-05-03T08:08:08Z</time></trkpt><trkpt lat="42.43712188604325" lon="18.829650091137122"><ele>866.0</ele><time>2026-05-03T08:08:09Z</time></trkpt><trkpt lat="42.43706015927699" lon="18.82986816027624"><ele>866.0</ele><time>2026-05-03T08:08:10Z</time></trkpt><trkpt lat="42.43697659099754" lon="18.830070118849324"><ele>866.0</ele><time>2026-05-03T08:08:11Z</time></trkpt><trkpt lat="42.436861899120366" lon="18.83021820038087"><ele>868.5</ele><time>2026-05-03T08:08:12Z</time></trkpt><trkpt lat="42.4367486131162" lon="18.830356958496242"><ele>871.0</ele><time>2026-05-03T08:08:13Z</time></trkpt><trkpt lat="42.43668743374983" lon="18.830512537080317"><ele>873.5</ele><time>2026-05-03T08:08:14Z</time></trkpt><trkpt lat="42.436685450098686" lon="18.830672070434748"><ele>876.0</ele><time>2026-05-03T08:08:15Z</time></trkpt><trkpt lat="42.43673142590101" lon="18.830800381421184"><ele>876.0</ele><time>2026-05-03T08:08:16Z</time></trkpt><trkpt lat="42.43681148917226" lon="18.830887667526035"><ele>876.0</ele><time>2026-05-03T08:08:17Z</time></trkpt><trkpt lat="42.43691383268301" lon="18.830961632103648"><ele>876.0</ele><time>2026-05-03T08:08:18Z</time></trkpt><trkpt lat="42.437049092624804" lon="18.83099516150875"><ele>876.0</ele><time>2026-05-03T08:08:19Z</time></trkpt><trkpt lat="42.43720931532221" lon="18.831006923891636"><ele>874.0</ele><time>2026-05-03T08:08:20Z</time></trkpt><trkpt lat="42.43739032648851" lon="18.8310231001199"><ele>872.0</ele><time>2026-05-03T08:08:21Z</time></trkpt><trkpt lat="42.43759157583291" lon="18.831053222006428"><ele>870.0</ele><time>2026-05-03T08:08:22Z</time></trkpt><trkpt lat="42.43779701336" lon="18.831082469730372"><ele>873.3333333333333</ele><time>2026-05-03T08:08:23Z</time></trkpt><trkpt lat="42.437980522768534" lon="18.831109106866627"><ele>876.6666666666666</ele><time>2026-05-03T08:08:24Z</time></trkpt><trkpt lat="42.438151888479666" lon="18.831140434113546"><ele>880.0</ele><time>2026-05-03T08:08:25Z</time></trkpt><trkpt lat="42.438316733280416" lon="18.83116565796956"><ele>880.0</ele><time>2026-05-03T08:08:26Z</time></trkpt><trkpt lat="42.43847131182985" lon="18.831186807681668"><ele>880.0</ele><time>2026-05-03T08:08:27Z</time></trkpt><trkpt lat="42.43860469652474" lon="18.831245895491133"><ele>880.0</ele><time>2026-05-03T08:08:28Z</time></trkpt><trkpt lat="42.43871391613143" lon="18.831331270055166"><ele>880.0</ele><time>2026-05-03T08:08:29Z</time></trkpt><trkpt lat="42.43879076842583" lon="18.831461863571043"><ele>881.25</ele><time>2026-05-03T08:08:30Z</time></trkpt><trkpt lat="42.438839728626" lon="18.831625870471548"><ele>882.5</ele><time>2026-05-03T08:08:31Z</time></trkpt><trkpt lat="42.43883794793491" lon="18.8318107369371"><ele>883.75</ele><time>2026-05-03T08:08:32Z</time></trkpt><trkpt lat="42.438799399778816" lon="18.831994808694567"><ele>885.0</ele><time>2026-05-03T08:08:33Z</time></trkpt><trkpt lat="42.43872518317706" lon="18.83218033872343"><ele>885.0</ele><time>2026-05-03T08:08:34Z</time></trkpt><trkpt lat="42.43865186323992" lon="18.832390402580696"><ele>885.0</ele><time>2026-05-03T08:08:35Z</time></trkpt><trkpt lat="42.43855427134854" lon="18.832586473506122"><ele>885.0</ele><time>2026-05-03T08:08:36Z</time></trkpt><trkpt lat="42.438467420330035" lon="18.832798715250217"><ele>893.3333333333333</ele><time>2026-05-03T08:08:37Z</time></trkpt><trkpt lat="42.43837296267495" lon="18.833022423646806"><ele>901.6666666666666</ele><time>2026-05-03T08:08:38Z</time></trkpt><trkpt lat="42.438237372154454" lon="18.83321643723229"><ele>910.0</ele><time>2026-05-03T08:08:39Z</time></trkpt><trkpt lat="42.438112398807874" lon="18.83340284644441"><ele>903.0</ele><time>2026-05-03T08:08:40Z</time></trkpt><trkpt lat="42.43797703194407" lon="18.833578276841944"><ele>896.0</ele><time>2026-05-03T08:08:41Z</time></trkpt><trkpt lat="42.437879261459706" lon="18.8337939598025"><ele>889.0</ele><time>2026-05-03T08:08:42Z</time></trkpt><trkpt lat="42.43782434224553" lon="18.83403691160363"><ele>889.0</ele><time>2026-05-03T08:08:43Z</time></trkpt><trkpt lat="42.43778651181541" lon="18.834280852186602"><ele>889.0</ele><time>2026-05-03T08:08:44Z</time></trkpt><trkpt lat="42.43774060973951" lon="18.834534130326624"><ele>889.0</ele><time>2026-05-03T08:08:45Z</time></trkpt><trkpt lat="42.43768929725504" lon="18.834802417607225"><ele>892.3333333333333</ele><time>2026-05-03T08:08:46Z</time></trkpt><trkpt lat="42.437634516323136" lon="18.835080214649643"><ele>895.6666666666667</ele><time>2026-05-03T08:08:47Z</time></trkpt><trkpt lat="42.437583574286585" lon="18.83535264164196"><ele>899.0</ele><time>2026-05-03T08:08:48Z</time></trkpt><trkpt lat="42.4375551422367" lon="18.83563674102565"><ele>904.5</ele><time>2026-05-03T08:08:49Z</time></trkpt><trkpt lat="42.43755745100258" lon="18.835977747300785"><ele>910.0</ele><time>2026-05-03T08:08:50Z</time></trkpt><trkpt lat="42.43758447431618" lon="18.836354799291843"><ele>910.0</ele><time>2026-05-03T08:08:51Z</time></trkpt><trkpt lat="42.4376106739173" lon="18.836763148693695"><ele>910.0</ele><time>2026-05-03T08:08:52Z</time></trkpt><trkpt lat="42.43757999239269" lon="18.83718085251255"><ele>916.0</ele><time>2026-05-03T08:08:53Z</time></trkpt><trkpt lat="42.43756068290947" lon="18.8375727709384"><ele>922.0</ele><time>2026-05-03T08:08:54Z</time></trkpt><trkpt lat="42.437514870027414" lon="18.837919067490827"><ele>929.0</ele><time>2026-05-03T08:08:55Z</time></trkpt><trkpt lat="42.43749620730861" lon="18.83825074654517"><ele>936.0</ele><time>2026-05-03T08:08:56Z</time></trkpt><trkpt lat="42.43749881288285" lon="18.83854157306182"><ele>937.3333333333333</ele><time>2026-05-03T08:08:57Z</time></trkpt><trkpt lat="42.43751531175932" lon="18.838804763313135"><ele>938.6666666666666</ele><time>2026-05-03T08:08:58Z</time></trkpt><trkpt lat="42.437533307907145" lon="18.839046169826716"><ele>940.0</ele><time>2026-05-03T08:08:59Z</time></trkpt><trkpt lat="42.43747971965782" lon="18.839281321736223"><ele>942.6666666666666</ele><time>2026-05-03T08:09:00Z</time></trkpt><trkpt lat="42.437399729224" lon="18.83949338509838"><ele>945.3333333333333</ele><time>2026-05-03T08:09:01Z</time></trkpt><trkpt lat="42.43729787794107" lon="18.839676687187705"><ele>948.0</ele><time>2026-05-03T08:09:02Z</time></trkpt><trkpt lat="42.43720870725139" lon="18.839856353757888"><ele>944.6666666666667</ele><time>2026-05-03T08:09:03Z</time></trkpt><trkpt lat="42.43713321855482" lon="18.840059374380175"><ele>941.3333333333334</ele><time>2026-05-03T08:09:04Z</time></trkpt><trkpt lat="42.43709245958136" lon="18.84030369464166"><ele>938.0</ele><time>2026-05-03T08:09:05Z</time></trkpt><trkpt lat="42.43705995732924" lon="18.840561170592277"><ele>938.0</ele><time>2026-05-03T08:09:06Z</time></trkpt><trkpt lat="42.4369800394736" lon="18.84078482169897"><ele>938.0</ele><time>2026-05-03T08:09:07Z</time></trkpt><trkpt lat="42.436879596928115" lon="18.84097410885629"><ele>938.0</ele><time>2026-05-03T08:09:08Z</time></trkpt><trkpt lat="42.43675695154259" lon="18.841118722010684"><ele>949.0</ele><time>2026-05-03T08:09:09Z</time></trkpt><trkpt lat="42.43661666892303" lon="18.84123102868348"><ele>960.0</ele><time>2026-05-03T08:09:10Z</time></trkpt><trkpt lat="42.43647422403313" lon="18.841295244717976"><ele>971.0</ele><time>2026-05-03T08:09:11Z</time></trkpt><trkpt lat="42.43632589889807" lon="18.84132585760074"><ele>970.3333333333334</ele><time>2026-05-03T08:09:12Z</time></trkpt><trkpt lat="42.436171284919595" lon="18.841333119178405"><ele>969.6666666666667</ele><time>2026-05-03T08:09:13Z</time></trkpt><trkpt lat="42.4360125203785" lon="18.841337299174917"><ele>969.0</ele><time>2026-05-03T08:09:14Z</time></trkpt><trkpt lat="42.43586492877354" lon="18.84129102165053"><ele>969.0</ele><time>2026-05-03T08:09:15Z</time></trkpt><trkpt lat="42.435744296274834" lon="18.841233498028092"><ele>969.0</ele><time>2026-05-03T08:09:16Z</time></trkpt><trkpt lat="42.43564612752313" lon="18.841130488120346"><ele>969.0</ele><time>2026-05-03T08:09:17Z</time></trkpt><trkpt lat="42.43558079091194" lon="18.840977800271656"><ele>969.0</ele><time>2026-05-03T08:09:18Z</time></trkpt><trkpt lat="42.43554447323136" lon="18.840829429142268"><ele>965.8000000000001</ele><time>2026-05-03T08:09:19Z</time></trkpt><trkpt lat="42.43551117734622" lon="18.840704792485404"><ele>962.6000000000001</ele><time>2026-05-03T08:09:20Z</time></trkpt><trkpt lat="42.435452682702085" lon="18.84062511852915"><ele>959.4</ele><time>2026-05-03T08:09:21Z</time></trkpt><trkpt lat="42.43536624808849" lon="18.840616176074086"><ele>956.2</ele><time>2026-05-03T08:09:22Z</time></trkpt><trkpt lat="42.43529270146188" lon="18.84068717296641"><ele>953.0</ele><time>2026-05-03T08:09:23Z</time></trkpt><trkpt lat="42.435263533782596" lon="18.840806428207113"><ele>953.0</ele><time>2026-05-03T08:09:24Z</time></trkpt><trkpt lat="42.43529581827241" lon="18.84094247766157"><ele>953.0</ele><time>2026-05-03T08:09:25Z</time></trkpt><trkpt lat="42.43539957807015" lon="18.841061840453392"><ele>953.0</ele><time>2026-05-03T08:09:26Z</time></trkpt><trkpt lat="42.43550944761158" lon="18.841175647435854"><ele>953.0</ele><time>2026-05-03T08:09:27Z</time></trkpt><trkpt lat="42.435629008801115" lon="18.84132651549397"><ele>958.3333333333334</ele><time>2026-05-03T08:09:28Z</time></trkpt><trkpt lat="42.435725979164346" lon="18.84148618295354"><ele>963.6666666666667</ele><time>2026-05-03T08:09:29Z</time></trkpt><trkpt lat="42.43585561593641" lon="18.841615461950084"><ele>969.0</ele><time>2026-05-03T08:09:30Z</time></trkpt><trkpt lat="42.43600575023476" lon="18.841685698157363"><ele>969.0</ele><time>2026-05-03T08:09:31Z</time></trkpt><trkpt lat="42.436160640954455" lon="18.84170348461864"><ele>969.0</ele><time>2026-05-03T08:09:32Z</time></trkpt><trkpt lat="42.436323154279926" lon="18.84167240073555"><ele>969.0</ele><time>2026-05-03T08:09:33Z</time></trkpt><trkpt lat="42.43649416495415" lon="18.841611952295388"><ele>969.6666666666667</ele><time>2026-05-03T08:09:34Z</time></trkpt><trkpt lat="42.436656905270375" lon="18.841538676663625"><ele>970.3333333333334</ele><time>2026-05-03T08:09:35Z</time></trkpt><trkpt lat="42.43680366614493" lon="18.841470309082414"><ele>971.0</ele><time>2026-05-03T08:09:36Z</time></trkpt><trkpt lat="42.43694109870976" lon="18.841399155837312"><ele>971.0</ele><time>2026-05-03T08:09:37Z</time></trkpt><trkpt lat="42.43707861242912" lon="18.84128798531377"><ele>971.0</ele><time>2026-05-03T08:09:38Z</time></trkpt><trkpt lat="42.43722428516154" lon="18.84111741531879"><ele>971.0</ele><time>2026-05-03T08:09:39Z</time></trkpt><trkpt lat="42.43737043528261" lon="18.840892952074995"><ele>970.6666666666667</ele><time>2026-05-03T08:09:40Z</time></trkpt><trkpt lat="42.43748544969001" lon="18.840653992502926"><ele>970.3333333333333</ele><time>2026-05-03T08:09:41Z</time></trkpt><trkpt lat="42.43761597700157" lon="18.840457260669623"><ele>970.0</ele><time>2026-05-03T08:09:42Z</time></trkpt><trkpt lat="42.43778152186583" lon="18.84025291796428"><ele>973.3333333333333</ele><time>2026-05-03T08:09:43Z</time></trkpt><trkpt lat="42.43797582065767" lon="18.840109845806662"><ele>976.6666666666667</ele><time>2026-05-03T08:09:44Z</time></trkpt><trkpt lat="42.43815283550888" lon="18.83995227830785"><ele>980.0</ele><time>2026-05-03T08:09:45Z</time></trkpt><trkpt lat="42.43827314673045" lon="18.839716940122862"><ele>980.0</ele><time>2026-05-03T08:09:46Z</time></trkpt><trkpt lat="42.4383639918442" lon="18.839430288183948"><ele>980.0</ele><time>2026-05-03T08:09:47Z</time></trkpt><trkpt lat="42.43845564639602" lon="18.839105205940637"><ele>976.6666666666667</ele><time>2026-05-03T08:09:48Z</time></trkpt><trkpt lat="42.438539956339426" lon="18.838810128034016"><ele>973.3333333333333</ele><time>2026-05-03T08:09:49Z</time></trkpt><trkpt lat="42.43859989188201" lon="18.838542919066192"><ele>970.0</ele><time>2026-05-03T08:09:50Z</time></trkpt><trkpt lat="42.43861012331773" lon="18.83828313390618"><ele>968.6666666666666</ele><time>2026-05-03T08:09:51Z</time></trkpt><trkpt lat="42.43857172777207" lon="18.83800792425066"><ele>967.3333333333333</ele><time>2026-05-03T08:09:52Z</time></trkpt><trkpt lat="42.438543774050174" lon="18.83769971063137"><ele>966.0</ele><time>2026-05-03T08:09:53Z</time></trkpt><trkpt lat="42.438586761113854" lon="18.837370725451986"><ele>964.6666666666667</ele><time>2026-05-03T08:09:54Z</time></trkpt><trkpt lat="42.438637687879854" lon="18.837069508994574"><ele>963.3333333333334</ele><time>2026-05-03T08:09:55Z</time></trkpt><trkpt lat="42.438671945394965" lon="18.836806762075668"><ele>962.0</ele><time>2026-05-03T08:09:56Z</time></trkpt><trkpt lat="42.43869573604893" lon="18.836557936773456"><ele>961.0</ele><time>2026-05-03T08:09:57Z</time></trkpt><trkpt lat="42.4386990341541" lon="18.83633779871555"><ele>960.0</ele><time>2026-05-03T08:09:58Z</time></trkpt><trkpt lat="42.43868632807512" lon="18.836148821037632"><ele>959.0</ele><time>2026-05-03T08:09:59Z</time></trkpt><trkpt lat="42.4386793487086" lon="18.83599806576583"><ele>958.0</ele><time>2026-05-03T08:10:00Z</time></trkpt><trkpt lat="42.43869680611918" lon="18.835895045621562"><ele>957.4</ele><time>2026-05-03T08:10:01Z</time></trkpt><trkpt lat="42.438760840782045" lon="18.835835614120416"><ele>956.8</ele><time>2026-05-03T08:10:02Z</time></trkpt><trkpt lat="42.43884213738537" lon="18.83587297775858"><ele>956.2</ele><time>2026-05-03T08:10:03Z</time></trkpt><trkpt lat="42.43890068371997" lon="18.835961916182733"><ele>955.6</ele><time>2026-05-03T08:10:04Z</time></trkpt><trkpt lat="42.438907202442856" lon="18.836100774503926"><ele>955.0</ele><time>2026-05-03T08:10:05Z</time></trkpt><trkpt lat="42.43886973744852" lon="18.836261175396903"><ele>956.0</ele><time>2026-05-03T08:10:06Z</time></trkpt><trkpt lat="42.438815284418204" lon="18.836452008522343"><ele>957.0</ele><time>2026-05-03T08:10:07Z</time></trkpt><trkpt lat="42.43877605703157" lon="18.83670142170269"><ele>958.0</ele><time>2026-05-03T08:10:08Z</time></trkpt><trkpt lat="42.43875891946863" lon="18.837015568893733"><ele>960.0</ele><time>2026-05-03T08:10:09Z</time></trkpt><trkpt lat="42.43875260012196" lon="18.837389008561615"><ele>962.0</ele><time>2026-05-03T08:10:10Z</time></trkpt><trkpt lat="42.43874267749404" lon="18.83774859016078"><ele>964.0</ele><time>2026-05-03T08:10:11Z</time></trkpt><trkpt lat="42.43873206643386" lon="18.838078878882175"><ele>966.0</ele><time>2026-05-03T08:10:12Z</time></trkpt><trkpt lat="42.43875840523426" lon="18.838401476660195"><ele>986.0</ele><time>2026-05-03T08:10:13Z</time></trkpt><trkpt lat="42.43883023078264" lon="18.838727712838807"><ele>1006.0</ele><time>2026-05-03T08:10:14Z</time></trkpt><trkpt lat="42.438914151861006" lon="18.83903106121788"><ele>1006.0</ele><time>2026-05-03T08:10:15Z</time></trkpt><trkpt lat="42.43900219879263" lon="18.83928681127815"><ele>1006.0</ele><time>2026-05-03T08:10:16Z</time></trkpt><trkpt lat="42.43907301828016" lon="18.839522452669453"><ele>1006.0</ele><time>2026-05-03T08:10:17Z</time></trkpt><trkpt lat="42.43905076329501" lon="18.839741160193096"><ele>1009.6666666666666</ele><time>2026-05-03T08:10:18Z</time></trkpt><trkpt lat="42.43900591134654" lon="18.839940195610907"><ele>1013.3333333333333</ele><time>2026-05-03T08:10:19Z</time></trkpt><trkpt lat="42.43893015204858" lon="18.84014356701888"><ele>1017.0</ele><time>2026-05-03T08:10:20Z</time></trkpt><trkpt lat="42.43883544680308" lon="18.840357804303164"><ele>1021.0</ele><time>2026-05-03T08:10:21Z</time></trkpt><trkpt lat="42.438734671584655" lon="18.8405881201967"><ele>1025.0</ele><time>2026-05-03T08:10:22Z</time></trkpt><trkpt lat="42.43863049954611" lon="18.84082710136457"><ele>1029.0</ele><time>2026-05-03T08:10:23Z</time></trkpt><trkpt lat="42.4385241450367" lon="18.841057264377334"><ele>1029.0</ele><time>2026-05-03T08:10:24Z</time></trkpt><trkpt lat="42.43839516746541" lon="18.841266404492636"><ele>1029.0</ele><time>2026-05-03T08:10:25Z</time></trkpt><trkpt lat="42.438241610585756" lon="18.841452304985097"><ele>1029.0</ele><time>2026-05-03T08:10:26Z</time></trkpt><trkpt lat="42.43807980442167" lon="18.841648544368596"><ele>1031.5</ele><time>2026-05-03T08:10:27Z</time></trkpt><trkpt lat="42.43788811680588" lon="18.841864227054202"><ele>1034.0</ele><time>2026-05-03T08:10:28Z</time></trkpt><trkpt lat="42.437691340576826" lon="18.84208906207934"><ele>1034.0</ele><time>2026-05-03T08:10:29Z</time></trkpt><trkpt lat="42.43748918441609" lon="18.842334393955166"><ele>1034.0</ele><time>2026-05-03T08:10:30Z</time></trkpt><trkpt lat="42.43728669576992" lon="18.84256747036711"><ele>1039.5</ele><time>2026-05-03T08:10:31Z</time></trkpt><trkpt lat="42.437084451068344" lon="18.842782902742826"><ele>1045.0</ele><time>2026-05-03T08:10:32Z</time></trkpt><trkpt lat="42.43685845879534" lon="18.842963673180453"><ele>1045.0</ele><time>2026-05-03T08:10:33Z</time></trkpt><trkpt lat="42.43660869710698" lon="18.84308556599238"><ele>1045.0</ele><time>2026-05-03T08:10:34Z</time></trkpt><trkpt lat="42.43637237184801" lon="18.843177718843595"><ele>1039.0</ele><time>2026-05-03T08:10:35Z</time></trkpt><trkpt lat="42.43615543189287" lon="18.84325095475739"><ele>1033.0</ele><time>2026-05-03T08:10:36Z</time></trkpt><trkpt lat="42.43596708277009" lon="18.84332375864084"><ele>1027.0</ele><time>2026-05-03T08:10:37Z</time></trkpt><trkpt lat="42.43581320387674" lon="18.843449250278567"><ele>1024.0</ele><time>2026-05-03T08:10:38Z</time></trkpt><trkpt lat="42.43569371556836" lon="18.843625144714817"><ele>1021.0</ele><time>2026-05-03T08:10:39Z</time></trkpt><trkpt lat="42.435573957257176" lon="18.84384234976178"><ele>1018.0</ele><time>2026-05-03T08:10:40Z</time></trkpt><trkpt lat="42.4354599458229" lon="18.8440527915512"><ele>1018.0</ele><time>2026-05-03T08:10:41Z</time></trkpt><trkpt lat="42.4353526119908" lon="18.84423705920445"><ele>1018.0</ele><time>2026-05-03T08:10:42Z</time></trkpt><trkpt lat="42.43525377480278" lon="18.84441747293989"><ele>1018.0</ele><time>2026-05-03T08:10:43Z</time></trkpt><trkpt lat="42.4351855105074" lon="18.844624549642372"><ele>1022.6666666666666</ele><time>2026-05-03T08:10:44Z</time></trkpt><trkpt lat="42.43517095780718" lon="18.844858355471793"><ele>1027.3333333333333</ele><time>2026-05-03T08:10:45Z</time></trkpt><trkpt lat="42.435201162076766" lon="18.845113730609967"><ele>1032.0</ele><time>2026-05-03T08:10:46Z</time></trkpt><trkpt lat="42.43527014574982" lon="18.845380903753995"><ele>1034.0</ele><time>2026-05-03T08:10:47Z</time></trkpt><trkpt lat="42.43534542328196" lon="18.84566741478408"><ele>1036.0</ele><time>2026-05-03T08:10:48Z</time></trkpt><trkpt lat="42.43541727565325" lon="18.845951604947587"><ele>1038.0</ele><time>2026-05-03T08:10:49Z</time></trkpt><trkpt lat="42.43548019270389" lon="18.846222154554347"><ele>1045.3333333333333</ele><time>2026-05-03T08:10:50Z</time></trkpt><trkpt lat="42.43553080764462" lon="18.846474396085608"><ele>1052.6666666666665</ele><time>2026-05-03T08:10:51Z</time></trkpt><trkpt lat="42.43555908864267" lon="18.846717797133696"><ele>1060.0</ele><time>2026-05-03T08:10:52Z</time></trkpt><trkpt lat="42.43554998621994" lon="18.846954994101004"><ele>1059.3333333333333</ele><time>2026-05-03T08:10:53Z</time></trkpt><trkpt lat="42.43549857159578" lon="18.847205969679802"><ele>1058.6666666666667</ele><time>2026-05-03T08:10:54Z</time></trkpt><trkpt lat="42.4354070620341" lon="18.84743923771914"><ele>1058.0</ele><time>2026-05-03T08:10:55Z</time></trkpt><trkpt lat="42.43528449864742" lon="18.8476502077403"><ele>1058.0</ele><time>2026-05-03T08:10:56Z</time></trkpt><trkpt lat="42.43514836748635" lon="18.84785216635094"><ele>1058.0</ele><time>2026-05-03T08:10:57Z</time></trkpt><trkpt lat="42.435017943566315" lon="18.84807683423602"><ele>1058.0</ele><time>2026-05-03T08:10:58Z</time></trkpt><trkpt lat="42.434931752415736" lon="18.84832177274477"><ele>1064.3333333333335</ele><time>2026-05-03T08:10:59Z</time></trkpt><trkpt lat="42.43488635108418" lon="18.84858085277917"><ele>1070.6666666666667</ele><time>2026-05-03T08:11:00Z</time></trkpt><trkpt lat="42.434883816292626" lon="18.848844311526218"><ele>1077.0</ele><time>2026-05-03T08:11:01Z</time></trkpt><trkpt lat="42.43491157951658" lon="18.849100085299227"><ele>1087.3333333333333</ele><time>2026-05-03T08:11:02Z</time></trkpt><trkpt lat="42.43495161473135" lon="18.849336119277442"><ele>1097.6666666666665</ele><time>2026-05-03T08:11:03Z</time></trkpt><trkpt lat="42.43498958838012" lon="18.849565057961147"><ele>1108.0</ele><time>2026-05-03T08:11:04.015Z</time></trkpt><trkpt lat="42.43502379200574" lon="18.84979171423454"><ele>1108.0</ele><time>2026-05-03T08:11:05.014Z</time></trkpt><trkpt lat="42.43506056757159" lon="18.850015593040553"><ele>1108.0</ele><time>2026-05-03T08:11:06.013Z</time></trkpt><trkpt lat="42.435100826637715" lon="18.85022575604"><ele>1108.0</ele><time>2026-05-03T08:11:07.015Z</time></trkpt><trkpt lat="42.435157557637304" lon="18.85042620012976"><ele>1113.0</ele><time>2026-05-03T08:11:08.021Z</time></trkpt><trkpt lat="42.43520930543885" lon="18.850597519186763"><ele>1118.0</ele><time>2026-05-03T08:11:09.016Z</time></trkpt><trkpt lat="42.43525156281544" lon="18.85079683302908"><ele>1123.0</ele><time>2026-05-03T08:11:10.017Z</time></trkpt><trkpt lat="42.4375315430038" lon="18.85348521174756"><ele>1095.6666666666665</ele><time>2026-05-03T08:11:22Z</time></trkpt><trkpt lat="42.43760401886803" lon="18.853705947162858"><ele>1068.3333333333333</ele><time>2026-05-03T08:11:23Z</time></trkpt><trkpt lat="42.43776126238875" lon="18.853630990004298"><ele>1041.0</ele><time>2026-05-03T08:11:24Z</time></trkpt><trkpt lat="42.437750854976635" lon="18.853888098255233"><ele>1041.0</ele><time>2026-05-03T08:11:25Z</time></trkpt><trkpt lat="42.43771345416725" lon="18.854136916418657"><ele>1041.0</ele><time>2026-05-03T08:11:26Z</time></trkpt><trkpt lat="42.43764168744428" lon="18.854378621777826"><ele>1041.0</ele><time>2026-05-03T08:11:27Z</time></trkpt><trkpt lat="42.437549301199454" lon="18.85461535856349"><ele>1036.0</ele><time>2026-05-03T08:11:28Z</time></trkpt><trkpt lat="42.43743027699805" lon="18.854828592808527"><ele>1031.0</ele><time>2026-05-03T08:11:29Z</time></trkpt><trkpt lat="42.43728830047784" lon="18.85502692854163"><ele>1026.0</ele><time>2026-05-03T08:11:30Z</time></trkpt><trkpt lat="42.4371377058669" lon="18.855224835386117"><ele>1023.6666666666667</ele><time>2026-05-03T08:11:31Z</time></trkpt><trkpt lat="42.436997695363374" lon="18.855435838459435"><ele>1021.3333333333334</ele><time>2026-05-03T08:11:32Z</time></trkpt><trkpt lat="42.436859552284744" lon="18.85565881287942"><ele>1019.0</ele><time>2026-05-03T08:11:33Z</time></trkpt><trkpt lat="42.43671708803582" lon="18.855880821566117"><ele>1015.3333333333334</ele><time>2026-05-03T08:11:34Z</time></trkpt><trkpt lat="42.43658628523272" lon="18.85609423150818"><ele>1011.6666666666667</ele><time>2026-05-03T08:11:35Z</time></trkpt><trkpt lat="42.43647521287111" lon="18.85630619216162"><ele>1008.0</ele><time>2026-05-03T08:11:36Z</time></trkpt><trkpt lat="42.43638738545162" lon="18.856531908821207"><ele>1008.0</ele><time>2026-05-03T08:11:37Z</time></trkpt><trkpt lat="42.43632708341133" lon="18.856767543794575"><ele>1008.0</ele><time>2026-05-03T08:11:38Z</time></trkpt><trkpt lat="42.43628286664003" lon="18.856999091853783"><ele>1008.0</ele><time>2026-05-03T08:11:39Z</time></trkpt><trkpt lat="42.43623159989013" lon="18.85719913240206"><ele>1007.25</ele><time>2026-05-03T08:11:40Z</time></trkpt><trkpt lat="42.43616353831447" lon="18.85735253599707"><ele>1006.5</ele><time>2026-05-03T08:11:41Z</time></trkpt><trkpt lat="42.43608135707101" lon="18.857472708879165"><ele>1005.75</ele><time>2026-05-03T08:11:42Z</time></trkpt><trkpt lat="42.435991275259184" lon="18.85755690825449"><ele>1005.0</ele><time>2026-05-03T08:11:43Z</time></trkpt><trkpt lat="42.43590772534753" lon="18.85762973282571"><ele>1005.0</ele><time>2026-05-03T08:11:44Z</time></trkpt><trkpt lat="42.435833249120925" lon="18.857691515592705"><ele>1005.0</ele><time>2026-05-03T08:11:45Z</time></trkpt><trkpt lat="42.43580234628854" lon="18.85778092455662"><ele>1005.0</ele><time>2026-05-03T08:11:46Z</time></trkpt><trkpt lat="42.43580040477544" lon="18.85788950398632"><ele>1005.0</ele><time>2026-05-03T08:11:47Z</time></trkpt><trkpt lat="42.43582008410005" lon="18.858012843090865"><ele>1005.0</ele><time>2026-05-03T08:11:48Z</time></trkpt><trkpt lat="42.43584260229903" lon="18.858170080674167"><ele>1005.0</ele><time>2026-05-03T08:11:49Z</time></trkpt><trkpt lat="42.43585023790909" lon="18.858374391490354"><ele>1005.0</ele><time>2026-05-03T08:11:50Z</time></trkpt><trkpt lat="42.43584143666001" lon="18.85859955613138"><ele>1005.0</ele><time>2026-05-03T08:11:51Z</time></trkpt><trkpt lat="42.43583058183583" lon="18.858854403815137"><ele>1004.0</ele><time>2026-05-03T08:11:52Z</time></trkpt><trkpt lat="42.43582110431716" lon="18.859133173218567"><ele>1003.0</ele><time>2026-05-03T08:11:53Z</time></trkpt><trkpt lat="42.43580574175133" lon="18.85942481046442"><ele>1002.0</ele><time>2026-05-03T08:11:54Z</time></trkpt><trkpt lat="42.435786074900534" lon="18.859732636733572"><ele>1001.0</ele><time>2026-05-03T08:11:55Z</time></trkpt><trkpt lat="42.435763183848465" lon="18.860054389063006"><ele>1000.0</ele><time>2026-05-03T08:11:56Z</time></trkpt><trkpt lat="42.435734259672046" lon="18.860384921028032"><ele>1000.0</ele><time>2026-05-03T08:11:57Z</time></trkpt><trkpt lat="42.43570583999532" lon="18.860722914352753"><ele>1000.0</ele><time>2026-05-03T08:11:58Z</time></trkpt><trkpt lat="42.43567907433852" lon="18.861064664896237"><ele>1003.0</ele><time>2026-05-03T08:11:59Z</time></trkpt><trkpt lat="42.435652366625526" lon="18.861404732499"><ele>1006.0</ele><time>2026-05-03T08:12:00Z</time></trkpt><trkpt lat="42.4356200918471" lon="18.861748179868755"><ele>1010.5</ele><time>2026-05-03T08:12:01Z</time></trkpt><trkpt lat="42.43556557546948" lon="18.86209327515598"><ele>1015.0</ele><time>2026-05-03T08:12:02Z</time></trkpt><trkpt lat="42.43548881467996" lon="18.862435978663427"><ele>1002.5</ele><time>2026-05-03T08:12:03Z</time></trkpt><trkpt lat="42.435398785109896" lon="18.86277258134649"><ele>990.0</ele><time>2026-05-03T08:12:04Z</time></trkpt><trkpt lat="42.43530639537875" lon="18.863104632998496"><ele>990.0</ele><time>2026-05-03T08:12:05Z</time></trkpt><trkpt lat="42.43520895601448" lon="18.863439729086224"><ele>990.0</ele><time>2026-05-03T08:12:06Z</time></trkpt><trkpt lat="42.43512258720529" lon="18.863769902534177"><ele>989.5</ele><time>2026-05-03T08:12:07Z</time></trkpt><trkpt lat="42.43505228051412" lon="18.864096356710377"><ele>989.0</ele><time>2026-05-03T08:12:08Z</time></trkpt><trkpt lat="42.43499522954453" lon="18.864423251120336"><ele>989.0</ele><time>2026-05-03T08:12:09Z</time></trkpt><trkpt lat="42.43495369932654" lon="18.86475087151204"><ele>989.0</ele><time>2026-05-03T08:12:10Z</time></trkpt><trkpt lat="42.43492636623939" lon="18.86506917743995"><ele>986.5</ele><time>2026-05-03T08:12:11Z</time></trkpt><trkpt lat="42.43491690236623" lon="18.865392147535903"><ele>984.0</ele><time>2026-05-03T08:12:12Z</time></trkpt><trkpt lat="42.43493144379521" lon="18.865710350415597"><ele>980.5</ele><time>2026-05-03T08:12:13Z</time></trkpt><trkpt lat="42.43496463162627" lon="18.866023859463112"><ele>977.0</ele><time>2026-05-03T08:12:14Z</time></trkpt><trkpt lat="42.43500790627393" lon="18.866327270096825"><ele>977.0</ele><time>2026-05-03T08:12:15Z</time></trkpt><trkpt lat="42.43505908763809" lon="18.86662292095078"><ele>977.0</ele><time>2026-05-03T08:12:16Z</time></trkpt><trkpt lat="42.43512845169046" lon="18.86690900236776"><ele>977.0</ele><time>2026-05-03T08:12:17Z</time></trkpt><trkpt lat="42.43521247958087" lon="18.867186303748447"><ele>973.6666666666667</ele><time>2026-05-03T08:12:18Z</time></trkpt><trkpt lat="42.435307657077466" lon="18.867457366578673"><ele>970.3333333333333</ele><time>2026-05-03T08:12:19Z</time></trkpt><trkpt lat="42.43541345903028" lon="18.867714375699506"><ele>967.0</ele><time>2026-05-03T08:12:20Z</time></trkpt><trkpt lat="42.4355272050297" lon="18.867964070500925"><ele>967.0</ele><time>2026-05-03T08:12:21Z</time></trkpt><trkpt lat="42.43564765666624" lon="18.86820777011546"><ele>967.0</ele><time>2026-05-03T08:12:22Z</time></trkpt><trkpt lat="42.435770796476696" lon="18.868448710268144"><ele>967.0</ele><time>2026-05-03T08:12:23Z</time></trkpt><trkpt lat="42.435904250922356" lon="18.86868563582248"><ele>963.0</ele><time>2026-05-03T08:12:24Z</time></trkpt><trkpt lat="42.436050236771585" lon="18.86890849551371"><ele>959.0</ele><time>2026-05-03T08:12:25Z</time></trkpt><trkpt lat="42.436202605896355" lon="18.86911936656843"><ele>955.0</ele><time>2026-05-03T08:12:26Z</time></trkpt><trkpt lat="42.436358890244954" lon="18.86931686430256"><ele>951.5</ele><time>2026-05-03T08:12:27Z</time></trkpt><trkpt lat="42.43652412416124" lon="18.869507901814167"><ele>948.0</ele><time>2026-05-03T08:12:28Z</time></trkpt><trkpt lat="42.436702514212804" lon="18.869712802066182"><ele>948.0</ele><time>2026-05-03T08:12:29Z</time></trkpt><trkpt lat="42.43685403583482" lon="18.869894544777026"><ele>948.0</ele><time>2026-05-03T08:12:30Z</time></trkpt><trkpt lat="42.43701933490431" lon="18.87007445717065"><ele>948.0</ele><time>2026-05-03T08:12:31Z</time></trkpt><trkpt lat="42.43718377501506" lon="18.87025604545291"><ele>945.3333333333333</ele><time>2026-05-03T08:12:32Z</time></trkpt><trkpt lat="42.437357207736866" lon="18.870425762743412"><ele>942.6666666666666</ele><time>2026-05-03T08:12:33Z</time></trkpt><trkpt lat="42.43752829499335" lon="18.87058039710299"><ele>940.0</ele><time>2026-05-03T08:12:34Z</time></trkpt><trkpt lat="42.43770811557153" lon="18.870732613254347"><ele>940.0</ele><time>2026-05-03T08:12:35Z</time></trkpt><trkpt lat="42.43787079654316" lon="18.870878772411686"><ele>940.0</ele><time>2026-05-03T08:12:36Z</time></trkpt><trkpt lat="42.43806094205358" lon="18.87103636267756"><ele>940.0</ele><time>2026-05-03T08:12:37Z</time></trkpt><trkpt lat="42.43822983319615" lon="18.87117919920028"><ele>935.3333333333333</ele><time>2026-05-03T08:12:38Z</time></trkpt><trkpt lat="42.438395119772956" lon="18.87131958756588"><ele>930.6666666666667</ele><time>2026-05-03T08:12:39Z</time></trkpt><trkpt lat="42.43857647277407" lon="18.87146985539595"><ele>926.0</ele><time>2026-05-03T08:12:40Z</time></trkpt><trkpt lat="42.4387602810344" lon="18.87161589226923"><ele>923.0</ele><time>2026-05-03T08:12:41Z</time></trkpt><trkpt lat="42.43894851457373" lon="18.871765687402515"><ele>920.0</ele><time>2026-05-03T08:12:42Z</time></trkpt><trkpt lat="42.43913796411363" lon="18.87191736151554"><ele>917.0</ele><time>2026-05-03T08:12:43Z</time></trkpt><trkpt lat="42.43932703082859" lon="18.87207263066183"><ele>917.0</ele><time>2026-05-03T08:12:44Z</time></trkpt><trkpt lat="42.439517934868434" lon="18.872229321540097"><ele>917.0</ele><time>2026-05-03T08:12:45Z</time></trkpt><trkpt lat="42.43969233274395" lon="18.872414444187754"><ele>917.0</ele><time>2026-05-03T08:12:46Z</time></trkpt><trkpt lat="42.439848596159564" lon="18.872624000327605"><ele>916.5</ele><time>2026-05-03T08:12:47Z</time></trkpt><trkpt lat="42.43998899438853" lon="18.87286111649544"><ele>916.0</ele><time>2026-05-03T08:12:48Z</time></trkpt><trkpt lat="42.440113718376885" lon="18.873116041050807"><ele>916.0</ele><time>2026-05-03T08:12:49Z</time></trkpt><trkpt lat="42.44022357967866" lon="18.873384992356602"><ele>916.0</ele><time>2026-05-03T08:12:50Z</time></trkpt><trkpt lat="42.44032957136968" lon="18.873650708116635"><ele>916.0</ele><time>2026-05-03T08:12:51Z</time></trkpt><trkpt lat="42.440437420523864" lon="18.873899897380724"><ele>916.0</ele><time>2026-05-03T08:12:52Z</time></trkpt><trkpt lat="42.440566492245516" lon="18.87409633530257"><ele>916.0</ele><time>2026-05-03T08:12:53Z</time></trkpt><trkpt lat="42.44071891990478" lon="18.87424870380974"><ele>914.0</ele><time>2026-05-03T08:12:54Z</time></trkpt><trkpt lat="42.4408947669004" lon="18.8743642907943"><ele>912.0</ele><time>2026-05-03T08:12:55Z</time></trkpt><trkpt lat="42.44107609482907" lon="18.87443511699079"><ele>910.0</ele><time>2026-05-03T08:12:56Z</time></trkpt><trkpt lat="42.44127491852436" lon="18.874459003535808"><ele>909.0</ele><time>2026-05-03T08:12:57Z</time></trkpt><trkpt lat="42.441462022197705" lon="18.874449586840555"><ele>908.0</ele><time>2026-05-03T08:12:58Z</time></trkpt><trkpt lat="42.441622788528846" lon="18.87441795676501"><ele>907.0</ele><time>2026-05-03T08:12:59Z</time></trkpt><trkpt lat="42.441753490395875" lon="18.87439713884594"><ele>907.0</ele><time>2026-05-03T08:13:00Z</time></trkpt><trkpt lat="42.4418676528529" lon="18.874379452977493"><ele>907.0</ele><time>2026-05-03T08:13:01Z</time></trkpt><trkpt lat="42.441989090967574" lon="18.87441338830669"><ele>907.0</ele><time>2026-05-03T08:13:02Z</time></trkpt><trkpt lat="42.442081155877084" lon="18.874481700603095"><ele>907.0</ele><time>2026-05-03T08:13:03Z</time></trkpt><trkpt lat="42.442159313477305" lon="18.87454545542145"><ele>907.0</ele><time>2026-05-03T08:13:04Z</time></trkpt><trkpt lat="42.44221995035996" lon="18.874609148543914"><ele>907.6</ele><time>2026-05-03T08:13:05Z</time></trkpt><trkpt lat="42.44226844964985" lon="18.874673342679355"><ele>908.2</ele><time>2026-05-03T08:13:06Z</time></trkpt><trkpt lat="42.44230354107448" lon="18.874770637446886"><ele>908.8</ele><time>2026-05-03T08:13:08Z</time></trkpt><trkpt lat="42.44235853015996" lon="18.87481862796907"><ele>909.4</ele><time>2026-05-03T08:14:49Z</time></trkpt><trkpt lat="42.44249654088199" lon="18.874753529895656"><ele>910.0</ele><time>2026-05-03T08:14:51Z</time></trkpt><trkpt lat="42.44258093570581" lon="18.874667281783527"><ele>910.0</ele><time>2026-05-03T08:14:52Z</time></trkpt><trkpt lat="42.4426795846746" lon="18.874563373615025"><ele>910.0</ele><time>2026-05-03T08:14:53Z</time></trkpt><trkpt lat="42.44280420735852" lon="18.874452917848977"><ele>910.0</ele><time>2026-05-03T08:14:54Z</time></trkpt><trkpt lat="42.44294320442586" lon="18.874332558362433"><ele>910.0</ele><time>2026-05-03T08:14:55Z</time></trkpt><trkpt lat="42.44309578053393" lon="18.87421458852881"><ele>912.6666666666666</ele><time>2026-05-03T08:14:56Z</time></trkpt><trkpt lat="42.4432569890791" lon="18.874102146213488"><ele>915.3333333333333</ele><time>2026-05-03T08:14:57Z</time></trkpt><trkpt lat="42.44342224800847" lon="18.874016456978765"><ele>918.0</ele><time>2026-05-03T08:14:58Z</time></trkpt><trkpt lat="42.44359397020832" lon="18.873919736551585"><ele>918.0</ele><time>2026-05-03T08:14:59Z</time></trkpt><trkpt lat="42.44377253163757" lon="18.873834903822118"><ele>918.0</ele><time>2026-05-03T08:15:00Z</time></trkpt><trkpt lat="42.44395353126751" lon="18.873749305861892"><ele>918.0</ele><time>2026-05-03T08:15:01Z</time></trkpt><trkpt lat="42.444153685596476" lon="18.873652118835174"><ele>921.5</ele><time>2026-05-03T08:15:02Z</time></trkpt><trkpt lat="42.44437989096427" lon="18.87358834904303"><ele>925.0</ele><time>2026-05-03T08:15:03Z</time></trkpt><trkpt lat="42.44461566967402" lon="18.87353181297296"><ele>927.0</ele><time>2026-05-03T08:15:04Z</time></trkpt><trkpt lat="42.4448565007545" lon="18.873484812499456"><ele>929.0</ele><time>2026-05-03T08:15:05Z</time></trkpt><trkpt lat="42.44511226258612" lon="18.873446866770692"><ele>921.5</ele><time>2026-05-03T08:15:06Z</time></trkpt><trkpt lat="42.445382601734735" lon="18.87342283479358"><ele>914.0</ele><time>2026-05-03T08:15:07Z</time></trkpt><trkpt lat="42.44565853583242" lon="18.873428993161564"><ele>922.0</ele><time>2026-05-03T08:15:08Z</time></trkpt><trkpt lat="42.44593351083159" lon="18.87346716480744"><ele>930.0</ele><time>2026-05-03T08:15:09Z</time></trkpt><trkpt lat="42.44619351858464" lon="18.873513346723957"><ele>928.0</ele><time>2026-05-03T08:15:10Z</time></trkpt><trkpt lat="42.4464329628305" lon="18.873554694073366"><ele>926.0</ele><time>2026-05-03T08:15:11Z</time></trkpt><trkpt lat="42.446652133499015" lon="18.873596984962532"><ele>926.0</ele><time>2026-05-03T08:15:12Z</time></trkpt><trkpt lat="42.44685542843518" lon="18.873656584662527"><ele>926.0</ele><time>2026-05-03T08:15:13Z</time></trkpt><trkpt lat="42.44702442402165" lon="18.873807542169853"><ele>926.0</ele><time>2026-05-03T08:15:14Z</time></trkpt><trkpt lat="42.447195979085116" lon="18.87388920997079"><ele>925.6666666666667</ele><time>2026-05-03T08:15:15Z</time></trkpt><trkpt lat="42.447361577383845" lon="18.873968363814342"><ele>925.3333333333333</ele><time>2026-05-03T08:15:16Z</time></trkpt><trkpt lat="42.44752452234553" lon="18.8740461353697"><ele>925.0</ele><time>2026-05-03T08:15:17Z</time></trkpt><trkpt lat="42.447685686135856" lon="18.874123012701762"><ele>925.0</ele><time>2026-05-03T08:15:18Z</time></trkpt><trkpt lat="42.447854217350994" lon="18.874202242051364"><ele>925.0</ele><time>2026-05-03T08:15:19Z</time></trkpt><trkpt lat="42.44801316592254" lon="18.874276968930936"><ele>925.0</ele><time>2026-05-03T08:15:20Z</time></trkpt><trkpt lat="42.448178049801896" lon="18.87435448619362"><ele>930.3333333333333</ele><time>2026-05-03T08:15:21Z</time></trkpt><trkpt lat="42.448342953687295" lon="18.874432012863522"><ele>935.6666666666667</ele><time>2026-05-03T08:15:22Z</time></trkpt><trkpt lat="42.44854234012426" lon="18.874426279001245"><ele>941.0</ele><time>2026-05-03T08:15:23Z</time></trkpt><trkpt lat="42.448732604607436" lon="18.874502783517034"><ele>940.3333333333334</ele><time>2026-05-03T08:15:24Z</time></trkpt><trkpt lat="42.44893169312061" lon="18.874578654680004"><ele>939.6666666666667</ele><time>2026-05-03T08:15:25Z</time></trkpt><trkpt lat="42.449141932878355" lon="18.8746414907566"><ele>939.0</ele><time>2026-05-03T08:15:26Z</time></trkpt><trkpt lat="42.4493563699775" lon="18.874697737714378"><ele>939.0</ele><time>2026-05-03T08:15:27Z</time></trkpt><trkpt lat="42.44957624521695" lon="18.874734963253324"><ele>939.0</ele><time>2026-05-03T08:15:28Z</time></trkpt><trkpt lat="42.449821961063456" lon="18.874777929968996"><ele>924.5</ele><time>2026-05-03T08:15:29Z</time></trkpt><trkpt lat="42.45006818064048" lon="18.874802230224308"><ele>910.0</ele><time>2026-05-03T08:15:30Z</time></trkpt><trkpt lat="42.45031574440841" lon="18.87482237382155"><ele>913.5</ele><time>2026-05-03T08:15:31Z</time></trkpt><trkpt lat="42.450569014716514" lon="18.874831509812733"><ele>917.0</ele><time>2026-05-03T08:15:32Z</time></trkpt><trkpt lat="42.450828025973045" lon="18.87484009046445"><ele>917.0</ele><time>2026-05-03T08:15:33Z</time></trkpt><trkpt lat="42.451088816007726" lon="18.874821288645784"><ele>917.0</ele><time>2026-05-03T08:15:34Z</time></trkpt><trkpt lat="42.45134906928474" lon="18.874799840253317"><ele>927.0</ele><time>2026-05-03T08:15:35Z</time></trkpt><trkpt lat="42.45161421605116" lon="18.874791270246067"><ele>937.0</ele><time>2026-05-03T08:15:36Z</time></trkpt><trkpt lat="42.45189288715131" lon="18.87478962444125"><ele>932.5</ele><time>2026-05-03T08:15:37Z</time></trkpt><trkpt lat="42.452181648496094" lon="18.874798079483536"><ele>928.0</ele><time>2026-05-03T08:15:38Z</time></trkpt><trkpt lat="42.452485472173876" lon="18.874834500546317"><ele>928.0</ele><time>2026-05-03T08:15:39Z</time></trkpt><trkpt lat="42.45280345458526" lon="18.87490481186302"><ele>928.0</ele><time>2026-05-03T08:15:40Z</time></trkpt><trkpt lat="42.45313415444648" lon="18.87500900233617"><ele>925.0</ele><time>2026-05-03T08:15:41Z</time></trkpt><trkpt lat="42.45346857008494" lon="18.875152249948076"><ele>922.0</ele><time>2026-05-03T08:15:42Z</time></trkpt><trkpt lat="42.45379242294542" lon="18.87532741693842"><ele>922.0</ele><time>2026-05-03T08:15:43Z</time></trkpt><trkpt lat="42.454094438736426" lon="18.875516453569862"><ele>922.0</ele><time>2026-05-03T08:15:44Z</time></trkpt><trkpt lat="42.45441208671448" lon="18.87568462455796"><ele>924.5</ele><time>2026-05-03T08:15:45Z</time></trkpt><trkpt lat="42.45468659398982" lon="18.87592850117237"><ele>927.0</ele><time>2026-05-03T08:15:46Z</time></trkpt><trkpt lat="42.454939027170845" lon="18.87619095482564"><ele>927.0</ele><time>2026-05-03T08:15:47Z</time></trkpt><trkpt lat="42.455176372469026" lon="18.876477133208034"><ele>927.0</ele><time>2026-05-03T08:15:48Z</time></trkpt><trkpt lat="42.45539667094211" lon="18.87677309915454"><ele>922.5</ele><time>2026-05-03T08:15:49Z</time></trkpt><trkpt lat="42.45560565016944" lon="18.877073521597985"><ele>918.0</ele><time>2026-05-03T08:15:50Z</time></trkpt><trkpt lat="42.4557990388077" lon="18.877385116161648"><ele>932.5</ele><time>2026-05-03T08:15:51Z</time></trkpt><trkpt lat="42.45596922880636" lon="18.87771216365977"><ele>947.0</ele><time>2026-05-03T08:15:52Z</time></trkpt><trkpt lat="42.45611475139531" lon="18.878064123963206"><ele>947.0</ele><time>2026-05-03T08:15:53Z</time></trkpt><trkpt lat="42.4562478673949" lon="18.878421739081908"><ele>947.0</ele><time>2026-05-03T08:15:54Z</time></trkpt><trkpt lat="42.456378910269216" lon="18.878779274356898"><ele>942.5</ele><time>2026-05-03T08:15:55Z</time></trkpt><trkpt lat="42.456509736406154" lon="18.879128078017015"><ele>938.0</ele><time>2026-05-03T08:15:56Z</time></trkpt><trkpt lat="42.45663226388714" lon="18.879483374434162"><ele>938.0</ele><time>2026-05-03T08:15:57Z</time></trkpt><trkpt lat="42.45676400198452" lon="18.879838999342716"><ele>938.0</ele><time>2026-05-03T08:15:58Z</time></trkpt><trkpt lat="42.45689871749042" lon="18.880185391249892"><ele>933.0</ele><time>2026-05-03T08:15:59Z</time></trkpt><trkpt lat="42.457047986987874" lon="18.880519369572493"><ele>928.0</ele><time>2026-05-03T08:16:00Z</time></trkpt><trkpt lat="42.457206257030364" lon="18.88083667316805"><ele>927.0</ele><time>2026-05-03T08:16:01Z</time></trkpt><trkpt lat="42.45738224245827" lon="18.881146837419294"><ele>926.0</ele><time>2026-05-03T08:16:02Z</time></trkpt><trkpt lat="42.45756863599631" lon="18.88144300714882"><ele>926.0</ele><time>2026-05-03T08:16:03Z</time></trkpt><trkpt lat="42.457765296422174" lon="18.88173087412516"><ele>926.0</ele><time>2026-05-03T08:16:04Z</time></trkpt><trkpt lat="42.45797285542225" lon="18.882013950489686"><ele>926.0</ele><time>2026-05-03T08:16:05Z</time></trkpt><trkpt lat="42.45818422262486" lon="18.882274765663215"><ele>926.0</ele><time>2026-05-03T08:16:06Z</time></trkpt><trkpt lat="42.458414568250305" lon="18.88247553326829"><ele>931.5</ele><time>2026-05-03T08:16:07Z</time></trkpt><trkpt lat="42.4586384258975" lon="18.882686661953024"><ele>937.0</ele><time>2026-05-03T08:16:08Z</time></trkpt><trkpt lat="42.45886737327073" lon="18.882878014561076"><ele>937.0</ele><time>2026-05-03T08:16:09Z</time></trkpt><trkpt lat="42.45909565100617" lon="18.883059982504978"><ele>937.0</ele><time>2026-05-03T08:16:10Z</time></trkpt><trkpt lat="42.45932375499122" lon="18.883231515108005"><ele>937.0</ele><time>2026-05-03T08:16:11Z</time></trkpt><trkpt lat="42.45955252344825" lon="18.883386635665804"><ele>937.0</ele><time>2026-05-03T08:16:12Z</time></trkpt><trkpt lat="42.459786608777065" lon="18.88352214683079"><ele>927.5</ele><time>2026-05-03T08:16:13Z</time></trkpt><trkpt lat="42.46002185520798" lon="18.883650646661515"><ele>918.0</ele><time>2026-05-03T08:16:14Z</time></trkpt><trkpt lat="42.46025530733653" lon="18.883776866342092"><ele>916.5</ele><time>2026-05-03T08:16:15Z</time></trkpt><trkpt lat="42.46049640772742" lon="18.88390488276634"><ele>915.0</ele><time>2026-05-03T08:16:16Z</time></trkpt><trkpt lat="42.46074045893908" lon="18.884033241664596"><ele>915.0</ele><time>2026-05-03T08:16:17Z</time></trkpt><trkpt lat="42.46098998433475" lon="18.88416115840149"><ele>915.0</ele><time>2026-05-03T08:16:18Z</time></trkpt><trkpt lat="42.46124092408307" lon="18.88429056012282"><ele>926.0</ele><time>2026-05-03T08:16:19Z</time></trkpt><trkpt lat="42.46149354241061" lon="18.884425908248122"><ele>937.0</ele><time>2026-05-03T08:16:20Z</time></trkpt><trkpt lat="42.46174018111527" lon="18.884563374371716"><ele>937.0</ele><time>2026-05-03T08:16:21Z</time></trkpt><trkpt lat="42.46198118572308" lon="18.88470151562569"><ele>937.0</ele><time>2026-05-03T08:16:22Z</time></trkpt><trkpt lat="42.46221710289555" lon="18.884846527540507"><ele>939.0</ele><time>2026-05-03T08:16:23Z</time></trkpt><trkpt lat="42.462446862776545" lon="18.88499810313709"><ele>941.0</ele><time>2026-05-03T08:16:24Z</time></trkpt><trkpt lat="42.46267277760566" lon="18.88516493043528"><ele>942.5</ele><time>2026-05-03T08:16:25Z</time></trkpt><trkpt lat="42.46288944750051" lon="18.88534032300808"><ele>944.0</ele><time>2026-05-03T08:16:26Z</time></trkpt><trkpt lat="42.46309601162528" lon="18.885529773027756"><ele>944.0</ele><time>2026-05-03T08:16:27Z</time></trkpt><trkpt lat="42.463296326595476" lon="18.88572744871315"><ele>944.0</ele><time>2026-05-03T08:16:28Z</time></trkpt><trkpt lat="42.463493507726426" lon="18.88593345246553"><ele>944.5</ele><time>2026-05-03T08:16:29Z</time></trkpt><trkpt lat="42.4636826177464" lon="18.886148994947504"><ele>945.0</ele><time>2026-05-03T08:16:30Z</time></trkpt><trkpt lat="42.46387349701911" lon="18.886374672378867"><ele>945.0</ele><time>2026-05-03T08:16:31Z</time></trkpt><trkpt lat="42.464058918031384" lon="18.886618955281406"><ele>945.0</ele><time>2026-05-03T08:16:32Z</time></trkpt><trkpt lat="42.464245151377774" lon="18.88688212569993"><ele>943.0</ele><time>2026-05-03T08:16:33Z</time></trkpt><trkpt lat="42.46442813950943" lon="18.88716640928428"><ele>941.0</ele><time>2026-05-03T08:16:34Z</time></trkpt><trkpt lat="42.46460912273308" lon="18.88745573317715"><ele>933.5</ele><time>2026-05-03T08:16:35Z</time></trkpt><trkpt lat="42.464794724545534" lon="18.88773670761116"><ele>926.0</ele><time>2026-05-03T08:16:36Z</time></trkpt><trkpt lat="42.464977559634676" lon="18.888016928259674"><ele>926.0</ele><time>2026-05-03T08:16:37Z</time></trkpt><trkpt lat="42.465166009920345" lon="18.888293509745697"><ele>926.0</ele><time>2026-05-03T08:16:38Z</time></trkpt><trkpt lat="42.46535552499926" lon="18.88856871709955"><ele>925.0</ele><time>2026-05-03T08:16:39Z</time></trkpt><trkpt lat="42.46554365584552" lon="18.888843790150382"><ele>924.0</ele><time>2026-05-03T08:16:40Z</time></trkpt><trkpt lat="42.465726161813514" lon="18.889115774696613"><ele>925.5</ele><time>2026-05-03T08:16:41Z</time></trkpt><trkpt lat="42.46591017523223" lon="18.889389229408266"><ele>927.0</ele><time>2026-05-03T08:16:42Z</time></trkpt><trkpt lat="42.466092975408806" lon="18.88966152494448"><ele>927.0</ele><time>2026-05-03T08:16:43Z</time></trkpt><trkpt lat="42.46627126804141" lon="18.889933466600628"><ele>927.0</ele><time>2026-05-03T08:16:44Z</time></trkpt><trkpt lat="42.466450337480055" lon="18.890201515881678"><ele>940.5</ele><time>2026-05-03T08:16:45Z</time></trkpt><trkpt lat="42.46662884778459" lon="18.890464654668055"><ele>954.0</ele><time>2026-05-03T08:16:46Z</time></trkpt><trkpt lat="42.46680656642021" lon="18.89072287807395"><ele>958.0</ele><time>2026-05-03T08:16:47Z</time></trkpt><trkpt lat="42.466983029112505" lon="18.890983683855094"><ele>962.0</ele><time>2026-05-03T08:16:48Z</time></trkpt><trkpt lat="42.46715546824243" lon="18.891238948149564"><ele>964.0</ele><time>2026-05-03T08:16:49Z</time></trkpt><trkpt lat="42.467326246167225" lon="18.89150022721555"><ele>966.0</ele><time>2026-05-03T08:16:50Z</time></trkpt><trkpt lat="42.46750494657787" lon="18.891755671717533"><ele>965.0</ele><time>2026-05-03T08:16:51Z</time></trkpt><trkpt lat="42.46767954548825" lon="18.892015984588884"><ele>964.0</ele><time>2026-05-03T08:16:52Z</time></trkpt><trkpt lat="42.46786258106436" lon="18.892281403801924"><ele>967.0</ele><time>2026-05-03T08:16:53Z</time></trkpt><trkpt lat="42.46804820602785" lon="18.892557953719464"><ele>970.0</ele><time>2026-05-03T08:16:54Z</time></trkpt><trkpt lat="42.468236468541825" lon="18.892823931228296"><ele>970.0</ele><time>2026-05-03T08:16:55Z</time></trkpt><trkpt lat="42.468434432094064" lon="18.893083482467382"><ele>970.0</ele><time>2026-05-03T08:16:56Z</time></trkpt><trkpt lat="42.46864575801193" lon="18.89334571360834"><ele>961.0</ele><time>2026-05-03T08:16:57Z</time></trkpt><trkpt lat="42.46886442678293" lon="18.893591104521605"><ele>952.0</ele><time>2026-05-03T08:16:58Z</time></trkpt><trkpt lat="42.469099807540196" lon="18.89381977421682"><ele>952.0</ele><time>2026-05-03T08:16:59Z</time></trkpt><trkpt lat="42.46934344163196" lon="18.89401713839391"><ele>952.0</ele><time>2026-05-03T08:17:00Z</time></trkpt><trkpt lat="42.469592987620295" lon="18.89418510806495"><ele>946.0</ele><time>2026-05-03T08:17:01Z</time></trkpt><trkpt lat="42.46984082315435" lon="18.89433835165821"><ele>940.0</ele><time>2026-05-03T08:17:02Z</time></trkpt><trkpt lat="42.470090185210545" lon="18.89447580859702"><ele>940.0</ele><time>2026-05-03T08:17:03Z</time></trkpt><trkpt lat="42.47034144626312" lon="18.894594512313432"><ele>940.0</ele><time>2026-05-03T08:17:04Z</time></trkpt><trkpt lat="42.47059685333875" lon="18.8946927622928"><ele>940.0</ele><time>2026-05-03T08:17:05Z</time></trkpt><trkpt lat="42.470856932487955" lon="18.894776980332782"><ele>940.0</ele><time>2026-05-03T08:17:06Z</time></trkpt><trkpt lat="42.47112832989584" lon="18.8948428912985"><ele>936.0</ele><time>2026-05-03T08:17:07Z</time></trkpt><trkpt lat="42.471410959663174" lon="18.894889680969907"><ele>932.0</ele><time>2026-05-03T08:17:08Z</time></trkpt><trkpt lat="42.47170499390659" lon="18.894912929551374"><ele>932.0</ele><time>2026-05-03T08:17:09Z</time></trkpt><trkpt lat="42.47200825242002" lon="18.894915624830954"><ele>932.0</ele><time>2026-05-03T08:17:10Z</time></trkpt><trkpt lat="42.47232218674919" lon="18.894895737581898"><ele>928.0</ele><time>2026-05-03T08:17:11Z</time></trkpt><trkpt lat="42.47263341794174" lon="18.894873905725813"><ele>924.0</ele><time>2026-05-03T08:17:12Z</time></trkpt><trkpt lat="42.47293839807478" lon="18.89485313958678"><ele>925.0</ele><time>2026-05-03T08:17:13Z</time></trkpt><trkpt lat="42.4732365345157" lon="18.894844862059234"><ele>926.0</ele><time>2026-05-03T08:17:14Z</time></trkpt><trkpt lat="42.47353585021877" lon="18.894841027255968"><ele>927.0</ele><time>2026-05-03T08:17:15Z</time></trkpt><trkpt lat="42.47383001425616" lon="18.89482696387847"><ele>928.0</ele><time>2026-05-03T08:17:16Z</time></trkpt><trkpt lat="42.47411570754656" lon="18.894808782577186"><ele>928.0</ele><time>2026-05-03T08:17:17Z</time></trkpt><trkpt lat="42.474397526262734" lon="18.894792102949804"><ele>928.0</ele><time>2026-05-03T08:17:18Z</time></trkpt><trkpt lat="42.47467222019031" lon="18.894778119462156"><ele>931.5</ele><time>2026-05-03T08:17:19Z</time></trkpt><trkpt lat="42.47494064581216" lon="18.894764107522324"><ele>935.0</ele><time>2026-05-03T08:17:20Z</time></trkpt><trkpt lat="42.47520724220092" lon="18.89475054791549"><ele>936.0</ele><time>2026-05-03T08:17:21Z</time></trkpt><trkpt lat="42.47547028964102" lon="18.894738406990683"><ele>937.0</ele><time>2026-05-03T08:17:22Z</time></trkpt><trkpt lat="42.47573243397058" lon="18.89472429945441"><ele>937.0</ele><time>2026-05-03T08:17:23Z</time></trkpt><trkpt lat="42.4759948782449" lon="18.894711332659742"><ele>937.0</ele><time>2026-05-03T08:17:24Z</time></trkpt><trkpt lat="42.4762576566098" lon="18.894701972907274"><ele>934.0</ele><time>2026-05-03T08:17:25Z</time></trkpt><trkpt lat="42.47652198086487" lon="18.894703811805908"><ele>931.0</ele><time>2026-05-03T08:17:26Z</time></trkpt><trkpt lat="42.47678784094394" lon="18.894719371468852"><ele>931.0</ele><time>2026-05-03T08:17:27Z</time></trkpt><trkpt lat="42.47705494086817" lon="18.894746126510803"><ele>931.0</ele><time>2026-05-03T08:17:28Z</time></trkpt><trkpt lat="42.47732533441825" lon="18.89478590667118"><ele>929.0</ele><time>2026-05-03T08:17:29Z</time></trkpt><trkpt lat="42.47759650585689" lon="18.894835467211248"><ele>927.0</ele><time>2026-05-03T08:17:30Z</time></trkpt><trkpt lat="42.477867979051574" lon="18.89489858068156"><ele>924.0</ele><time>2026-05-03T08:17:31Z</time></trkpt><trkpt lat="42.47812684960053" lon="18.894968051942772"><ele>921.0</ele><time>2026-05-03T08:17:32Z</time></trkpt><trkpt lat="42.4783885534312" lon="18.895044645095165"><ele>922.5</ele><time>2026-05-03T08:17:33Z</time></trkpt><trkpt lat="42.47865203042754" lon="18.895125396831112"><ele>924.0</ele><time>2026-05-03T08:17:34Z</time></trkpt><trkpt lat="42.478913329283216" lon="18.8952104532902"><ele>928.0</ele><time>2026-05-03T08:17:35Z</time></trkpt><trkpt lat="42.47917479109882" lon="18.89529397634594"><ele>932.0</ele><time>2026-05-03T08:17:36Z</time></trkpt><trkpt lat="42.479437460934236" lon="18.89536623311054"><ele>931.5</ele><time>2026-05-03T08:17:37Z</time></trkpt><trkpt lat="42.4796928768827" lon="18.895429180090385"><ele>931.0</ele><time>2026-05-03T08:17:38Z</time></trkpt><trkpt lat="42.47993305317473" lon="18.895479428385272"><ele>931.0</ele><time>2026-05-03T08:17:39Z</time></trkpt><trkpt lat="42.48015969895058" lon="18.895514871280685"><ele>931.0</ele><time>2026-05-03T08:17:40Z</time></trkpt><trkpt lat="42.48039607092536" lon="18.895542561213595"><ele>925.5</ele><time>2026-05-03T08:17:41Z</time></trkpt><trkpt lat="42.48062907761045" lon="18.895563987737777"><ele>920.0</ele><time>2026-05-03T08:17:42Z</time></trkpt><trkpt lat="42.48086454224029" lon="18.895571739274796"><ele>920.0</ele><time>2026-05-03T08:17:43Z</time></trkpt><trkpt lat="42.4811128689452" lon="18.895562874382545"><ele>920.0</ele><time>2026-05-03T08:17:44Z</time></trkpt><trkpt lat="42.481370999001605" lon="18.895551248377505"><ele>919.0</ele><time>2026-05-03T08:17:45Z</time></trkpt><trkpt lat="42.48163658758243" lon="18.895531601016547"><ele>918.0</ele><time>2026-05-03T08:17:46Z</time></trkpt><trkpt lat="42.4818970755831" lon="18.895508163477427"><ele>923.0</ele><time>2026-05-03T08:17:47Z</time></trkpt><trkpt lat="42.48215176767856" lon="18.895482614667454"><ele>928.0</ele><time>2026-05-03T08:17:48Z</time></trkpt><trkpt lat="42.48240615326065" lon="18.89545652727413"><ele>928.0</ele><time>2026-05-03T08:17:49Z</time></trkpt><trkpt lat="42.48266368822089" lon="18.895433775117095"><ele>928.0</ele><time>2026-05-03T08:17:50Z</time></trkpt><trkpt lat="42.48291797868634" lon="18.895407823505103"><ele>929.0</ele><time>2026-05-03T08:17:51Z</time></trkpt><trkpt lat="42.483164484057426" lon="18.895374268760904"><ele>930.0</ele><time>2026-05-03T08:17:52Z</time></trkpt><trkpt lat="42.48341610913841" lon="18.895356528036118"><ele>930.0</ele><time>2026-05-03T08:17:53Z</time></trkpt><trkpt lat="42.48366330706204" lon="18.89535389800575"><ele>930.0</ele><time>2026-05-03T08:17:54Z</time></trkpt><trkpt lat="42.483912723555655" lon="18.895365486915672"><ele>927.0</ele><time>2026-05-03T08:17:55Z</time></trkpt><trkpt lat="42.484160635384" lon="18.895388250832685"><ele>924.0</ele><time>2026-05-03T08:17:56Z</time></trkpt><trkpt lat="42.48440851892903" lon="18.895421027893768"><ele>924.5</ele><time>2026-05-03T08:17:57Z</time></trkpt><trkpt lat="42.484656122748916" lon="18.89546357330203"><ele>925.0</ele><time>2026-05-03T08:17:58Z</time></trkpt><trkpt lat="42.484902097588794" lon="18.895522651885162"><ele>925.0</ele><time>2026-05-03T08:17:59Z</time></trkpt><trkpt lat="42.485147472331924" lon="18.895592388682143"><ele>925.0</ele><time>2026-05-03T08:18:00Z</time></trkpt><trkpt lat="42.48539107860934" lon="18.89567689554075"><ele>924.0</ele><time>2026-05-03T08:18:01Z</time></trkpt><trkpt lat="42.485635663345946" lon="18.89576969053596"><ele>923.0</ele><time>2026-05-03T08:18:02Z</time></trkpt><trkpt lat="42.48588036983736" lon="18.895874486762892"><ele>923.0</ele><time>2026-05-03T08:18:03Z</time></trkpt><trkpt lat="42.486123787753996" lon="18.895996523215025"><ele>923.0</ele><time>2026-05-03T08:18:04Z</time></trkpt><trkpt lat="42.4863675220395" lon="18.89613163235225"><ele>920.5</ele><time>2026-05-03T08:18:05Z</time></trkpt><trkpt lat="42.48660883213713" lon="18.89627557570667"><ele>918.0</ele><time>2026-05-03T08:18:06Z</time></trkpt><trkpt lat="42.48684714717369" lon="18.89642770485032"><ele>918.0</ele><time>2026-05-03T08:18:07Z</time></trkpt><trkpt lat="42.487085114109966" lon="18.89658749706648"><ele>918.0</ele><time>2026-05-03T08:18:08Z</time></trkpt><trkpt lat="42.48732089838943" lon="18.896750824472274"><ele>915.0</ele><time>2026-05-03T08:18:09Z</time></trkpt><trkpt lat="42.48756264672933" lon="18.89691264194053"><ele>912.0</ele><time>2026-05-03T08:18:10Z</time></trkpt><trkpt lat="42.48780955548746" lon="18.897073872939192"><ele>912.5</ele><time>2026-05-03T08:18:11Z</time></trkpt><trkpt lat="42.48806910875095" lon="18.89723845258146"><ele>913.0</ele><time>2026-05-03T08:18:12Z</time></trkpt><trkpt lat="42.48833575116909" lon="18.897411840818044"><ele>913.0</ele><time>2026-05-03T08:18:13Z</time></trkpt><trkpt lat="42.4886005216395" lon="18.897583207638565"><ele>913.0</ele><time>2026-05-03T08:18:14Z</time></trkpt><trkpt lat="42.48886636644678" lon="18.897755815712454"><ele>914.0</ele><time>2026-05-03T08:18:15Z</time></trkpt><trkpt lat="42.48912443185507" lon="18.897921406511447"><ele>915.0</ele><time>2026-05-03T08:18:16Z</time></trkpt><trkpt lat="42.48937829135895" lon="18.8980852351838"><ele>914.0</ele><time>2026-05-03T08:18:17Z</time></trkpt><trkpt lat="42.489629713968675" lon="18.898246844239946"><ele>913.0</ele><time>2026-05-03T08:18:18Z</time></trkpt><trkpt lat="42.48987791089317" lon="18.898411043226222"><ele>914.5</ele><time>2026-05-03T08:18:19Z</time></trkpt><trkpt lat="42.49012658023437" lon="18.898574688745466"><ele>916.0</ele><time>2026-05-03T08:18:20Z</time></trkpt><trkpt lat="42.490374624184476" lon="18.89873395121947"><ele>922.0</ele><time>2026-05-03T08:18:21Z</time></trkpt><trkpt lat="42.490607929123215" lon="18.898872001148604"><ele>928.0</ele><time>2026-05-03T08:18:22Z</time></trkpt><trkpt lat="42.49082379658532" lon="18.898976260275845"><ele>928.0</ele><time>2026-05-03T08:18:23Z</time></trkpt><trkpt lat="42.49102960771019" lon="18.89906031789989"><ele>928.0</ele><time>2026-05-03T08:18:24Z</time></trkpt><trkpt lat="42.49122575299683" lon="18.8991314263398"><ele>928.0</ele><time>2026-05-03T08:18:25Z</time></trkpt><trkpt lat="42.49141919200702" lon="18.89919238932403"><ele>927.3333333333333</ele><time>2026-05-03T08:18:26Z</time></trkpt><trkpt lat="42.491616731401855" lon="18.89924727931467"><ele>926.6666666666667</ele><time>2026-05-03T08:18:27Z</time></trkpt><trkpt lat="42.49181897433594" lon="18.899291888659704"><ele>926.0</ele><time>2026-05-03T08:18:28Z</time></trkpt><trkpt lat="42.49202342564175" lon="18.899328102822857"><ele>923.3333333333334</ele><time>2026-05-03T08:18:29Z</time></trkpt><trkpt lat="42.492229639380355" lon="18.89935466687302"><ele>920.6666666666667</ele><time>2026-05-03T08:18:30Z</time></trkpt><trkpt lat="42.492441588010045" lon="18.899366657583812"><ele>918.0</ele><time>2026-05-03T08:18:31Z</time></trkpt><trkpt lat="42.49265792623173" lon="18.89936620435337"><ele>918.0</ele><time>2026-05-03T08:18:32Z</time></trkpt><trkpt lat="42.492876368241" lon="18.899359441125302"><ele>918.0</ele><time>2026-05-03T08:18:33Z</time></trkpt><trkpt lat="42.49310045160668" lon="18.89933781273987"><ele>918.0</ele><time>2026-05-03T08:18:34Z</time></trkpt><trkpt lat="42.49332629057013" lon="18.899309393615678"><ele>915.0</ele><time>2026-05-03T08:18:35Z</time></trkpt><trkpt lat="42.49355463810863" lon="18.899271863078873"><ele>912.0</ele><time>2026-05-03T08:18:36Z</time></trkpt><trkpt lat="42.49378479001138" lon="18.899235035171113"><ele>912.0</ele><time>2026-05-03T08:18:37Z</time></trkpt><trkpt lat="42.49401516388306" lon="18.899202972248702"><ele>912.0</ele><time>2026-05-03T08:18:38Z</time></trkpt><trkpt lat="42.49425385929471" lon="18.899172413464246"><ele>912.0</ele><time>2026-05-03T08:18:39Z</time></trkpt><trkpt lat="42.494493246162854" lon="18.899148994579257"><ele>912.0</ele><time>2026-05-03T08:18:40Z</time></trkpt><trkpt lat="42.49473190985707" lon="18.899140038872545"><ele>911.0</ele><time>2026-05-03T08:18:41Z</time></trkpt><trkpt lat="42.494974056522324" lon="18.89914860309843"><ele>910.0</ele><time>2026-05-03T08:18:42Z</time></trkpt><trkpt lat="42.495221848983704" lon="18.899172780766833"><ele>911.0</ele><time>2026-05-03T08:18:43Z</time></trkpt><trkpt lat="42.495475674194566" lon="18.89921182232092"><ele>912.0</ele><time>2026-05-03T08:18:44Z</time></trkpt><trkpt lat="42.49574264893518" lon="18.899286709783873"><ele>915.0</ele><time>2026-05-03T08:18:45Z</time></trkpt><trkpt lat="42.496014214982566" lon="18.89937476066392"><ele>918.0</ele><time>2026-05-03T08:18:46Z</time></trkpt><trkpt lat="42.49628462587973" lon="18.89947909041351"><ele>921.5</ele><time>2026-05-03T08:18:47Z</time></trkpt><trkpt lat="42.49655631330354" lon="18.899603478172594"><ele>925.0</ele><time>2026-05-03T08:18:48Z</time></trkpt><trkpt lat="42.49682678416042" lon="18.899744636710395"><ele>925.0</ele><time>2026-05-03T08:18:49Z</time></trkpt><trkpt lat="42.497107975036435" lon="18.899913447044877"><ele>925.0</ele><time>2026-05-03T08:18:50Z</time></trkpt><trkpt lat="42.497395922665966" lon="18.90009834277199"><ele>925.5</ele><time>2026-05-03T08:18:51Z</time></trkpt><trkpt lat="42.49768894729147" lon="18.90033961988987"><ele>926.0</ele><time>2026-05-03T08:18:52Z</time></trkpt><trkpt lat="42.497980153546365" lon="18.900620940157065"><ele>928.5</ele><time>2026-05-03T08:18:53Z</time></trkpt><trkpt lat="42.498261675824665" lon="18.90092066091926"><ele>931.0</ele><time>2026-05-03T08:18:54Z</time></trkpt><trkpt lat="42.49852255133636" lon="18.901207687984176"><ele>930.5</ele><time>2026-05-03T08:18:55Z</time></trkpt><trkpt lat="42.49877401237347" lon="18.90148551728959"><ele>930.0</ele><time>2026-05-03T08:18:56Z</time></trkpt><trkpt lat="42.49901602253901" lon="18.90175238012352"><ele>936.0</ele><time>2026-05-03T08:18:57Z</time></trkpt><trkpt lat="42.49925519196848" lon="18.902007539108116"><ele>942.0</ele><time>2026-05-03T08:18:58Z</time></trkpt><trkpt lat="42.499484973652905" lon="18.902249177193983"><ele>938.5</ele><time>2026-05-03T08:18:59Z</time></trkpt><trkpt lat="42.499712817709955" lon="18.90249469884324"><ele>935.0</ele><time>2026-05-03T08:19:00Z</time></trkpt><trkpt lat="42.49993024642034" lon="18.90272657770268"><ele>935.0</ele><time>2026-05-03T08:19:01Z</time></trkpt><trkpt lat="42.50014631812406" lon="18.902945443418634"><ele>935.0</ele><time>2026-05-03T08:19:02Z</time></trkpt><trkpt lat="42.50036058855521" lon="18.903166415638665"><ele>930.0</ele><time>2026-05-03T08:19:03Z</time></trkpt><trkpt lat="42.500572996636905" lon="18.903388326463965"><ele>925.0</ele><time>2026-05-03T08:19:04Z</time></trkpt><trkpt lat="42.500791319444524" lon="18.903597049462725"><ele>925.0</ele><time>2026-05-03T08:19:05Z</time></trkpt><trkpt lat="42.50101019459417" lon="18.90378736994198"><ele>925.0</ele><time>2026-05-03T08:19:06Z</time></trkpt><trkpt lat="42.50123493337382" lon="18.903964334611953"><ele>928.0</ele><time>2026-05-03T08:19:07Z</time></trkpt><trkpt lat="42.50146480907529" lon="18.904134804530468"><ele>931.0</ele><time>2026-05-03T08:19:08Z</time></trkpt><trkpt lat="42.50170271602259" lon="18.90429338219909"><ele>931.0</ele><time>2026-05-03T08:19:09Z</time></trkpt><trkpt lat="42.5019436728307" lon="18.904435995148255"><ele>931.0</ele><time>2026-05-03T08:19:10Z</time></trkpt><trkpt lat="42.50219069113291" lon="18.904558228479985"><ele>923.5</ele><time>2026-05-03T08:19:11Z</time></trkpt><trkpt lat="42.50244177706212" lon="18.904661326263962"><ele>916.0</ele><time>2026-05-03T08:19:12Z</time></trkpt><trkpt lat="42.50269175756112" lon="18.90474335423578"><ele>913.5</ele><time>2026-05-03T08:19:13Z</time></trkpt><trkpt lat="42.50293968285511" lon="18.90481231312095"><ele>911.0</ele><time>2026-05-03T08:19:14Z</time></trkpt><trkpt lat="42.50318655791248" lon="18.9048750299408"><ele>911.0</ele><time>2026-05-03T08:19:15Z</time></trkpt><trkpt lat="42.503419890720764" lon="18.90492610276925"><ele>911.0</ele><time>2026-05-03T08:19:16Z</time></trkpt><trkpt lat="42.50364376417558" lon="18.90496493916665"><ele>910.0</ele><time>2026-05-03T08:19:17Z</time></trkpt><trkpt lat="42.503853838643074" lon="18.904998697786226"><ele>909.0</ele><time>2026-05-03T08:19:18Z</time></trkpt><trkpt lat="42.504053319533135" lon="18.90504141358191"><ele>908.0</ele><time>2026-05-03T08:19:19Z</time></trkpt><trkpt lat="42.50424391667856" lon="18.90509352811718"><ele>908.0</ele><time>2026-05-03T08:19:20Z</time></trkpt><trkpt lat="42.504429009750794" lon="18.905157678490987"><ele>908.0</ele><time>2026-05-03T08:19:21Z</time></trkpt><trkpt lat="42.50461135883445" lon="18.905223359686353"><ele>908.0</ele><time>2026-05-03T08:19:22Z</time></trkpt><trkpt lat="42.50479450339799" lon="18.905298142779277"><ele>902.0</ele><time>2026-05-03T08:19:23Z</time></trkpt><trkpt lat="42.50498105746998" lon="18.90539272492766"><ele>896.0</ele><time>2026-05-03T08:19:24Z</time></trkpt><trkpt lat="42.505166604140605" lon="18.905507543367285"><ele>890.0</ele><time>2026-05-03T08:19:25Z</time></trkpt><trkpt lat="42.505351248756035" lon="18.905642740199237"><ele>890.3333333333334</ele><time>2026-05-03T08:19:26Z</time></trkpt><trkpt lat="42.5055355742192" lon="18.90578833251827"><ele>890.6666666666667</ele><time>2026-05-03T08:19:27Z</time></trkpt><trkpt lat="42.505723066514484" lon="18.905948898556236"><ele>891.0</ele><time>2026-05-03T08:19:28Z</time></trkpt><trkpt lat="42.50591290643899" lon="18.90613174769987"><ele>891.0</ele><time>2026-05-03T08:19:29Z</time></trkpt><trkpt lat="42.506103593857006" lon="18.906334245649703"><ele>891.0</ele><time>2026-05-03T08:19:30Z</time></trkpt><trkpt lat="42.5062986278217" lon="18.906561870935104"><ele>894.5</ele><time>2026-05-03T08:19:31Z</time></trkpt><trkpt lat="42.50649161161746" lon="18.906806458755185"><ele>898.0</ele><time>2026-05-03T08:19:32Z</time></trkpt><trkpt lat="42.506681014728606" lon="18.907064731916844"><ele>898.0</ele><time>2026-05-03T08:19:33Z</time></trkpt><trkpt lat="42.50687101570212" lon="18.90732057409909"><ele>898.0</ele><time>2026-05-03T08:19:34Z</time></trkpt><trkpt lat="42.507065785110264" lon="18.907576648946684"><ele>898.0</ele><time>2026-05-03T08:19:35Z</time></trkpt><trkpt lat="42.5072646031971" lon="18.90783230748905"><ele>898.0</ele><time>2026-05-03T08:19:36Z</time></trkpt><trkpt lat="42.50746366585541" lon="18.908084432087456"><ele>898.0</ele><time>2026-05-03T08:19:37Z</time></trkpt><trkpt lat="42.50765097627605" lon="18.908327193752807"><ele>898.0</ele><time>2026-05-03T08:19:38Z</time></trkpt><trkpt lat="42.50783447371737" lon="18.90856146689304"><ele>891.5</ele><time>2026-05-03T08:19:39Z</time></trkpt><trkpt lat="42.50801254536457" lon="18.908790966249807"><ele>885.0</ele><time>2026-05-03T08:19:40Z</time></trkpt><trkpt lat="42.508194246434954" lon="18.908997295575833"><ele>885.0</ele><time>2026-05-03T08:19:41Z</time></trkpt><trkpt lat="42.50838294715771" lon="18.90918583896942"><ele>885.0</ele><time>2026-05-03T08:19:42Z</time></trkpt><trkpt lat="42.50858296990107" lon="18.90934171239966"><ele>875.5</ele><time>2026-05-03T08:19:43Z</time></trkpt><trkpt lat="42.50878013186529" lon="18.90947691665131"><ele>866.0</ele><time>2026-05-03T08:19:44Z</time></trkpt><trkpt lat="42.5089914778549" lon="18.90960248245585"><ele>866.0</ele><time>2026-05-03T08:19:45Z</time></trkpt><trkpt lat="42.50920935215181" lon="18.909712066643003"><ele>866.0</ele><time>2026-05-03T08:19:46Z</time></trkpt><trkpt lat="42.5094329214508" lon="18.909809194293594"><ele>862.0</ele><time>2026-05-03T08:19:47Z</time></trkpt><trkpt lat="42.509665358950805" lon="18.909898481459614"><ele>858.0</ele><time>2026-05-03T08:19:48Z</time></trkpt><trkpt lat="42.509897732557036" lon="18.90997574770083"><ele>858.0</ele><time>2026-05-03T08:19:49Z</time></trkpt><trkpt lat="42.51013882085212" lon="18.910036270707067"><ele>858.0</ele><time>2026-05-03T08:19:50Z</time></trkpt><trkpt lat="42.51038221593747" lon="18.910070836801605"><ele>857.0</ele><time>2026-05-03T08:19:51Z</time></trkpt><trkpt lat="42.51062902851472" lon="18.91008361107973"><ele>856.0</ele><time>2026-05-03T08:19:52Z</time></trkpt><trkpt lat="42.51087766061646" lon="18.910070602445646"><ele>856.0</ele><time>2026-05-03T08:19:53Z</time></trkpt><trkpt lat="42.511132325662295" lon="18.910036138260594"><ele>856.0</ele><time>2026-05-03T08:19:54Z</time></trkpt><trkpt lat="42.51139395911282" lon="18.909986731140634"><ele>854.0</ele><time>2026-05-03T08:19:55Z</time></trkpt><trkpt lat="42.51165815824313" lon="18.909937665776855"><ele>852.0</ele><time>2026-05-03T08:19:56Z</time></trkpt><trkpt lat="42.51192767584161" lon="18.90989322870859"><ele>845.0</ele><time>2026-05-03T08:19:57Z</time></trkpt><trkpt lat="42.51219652629614" lon="18.909860864492366"><ele>838.0</ele><time>2026-05-03T08:19:58Z</time></trkpt><trkpt lat="42.512467966566085" lon="18.909846588834785"><ele>838.0</ele><time>2026-05-03T08:19:59Z</time></trkpt><trkpt lat="42.51273627200727" lon="18.90985134325382"><ele>838.0</ele><time>2026-05-03T08:20:00Z</time></trkpt><trkpt lat="42.51299858694478" lon="18.90987551874277"><ele>838.0</ele><time>2026-05-03T08:20:01Z</time></trkpt><trkpt lat="42.51325546499293" lon="18.909917487227233"><ele>838.0</ele><time>2026-05-03T08:20:02Z</time></trkpt><trkpt lat="42.51350674636952" lon="18.909980706272375"><ele>843.5</ele><time>2026-05-03T08:20:03Z</time></trkpt><trkpt lat="42.51374724621123" lon="18.910056946151286"><ele>849.0</ele><time>2026-05-03T08:20:04Z</time></trkpt><trkpt lat="42.51396876952922" lon="18.91014226621521"><ele>847.6666666666667</ele><time>2026-05-03T08:20:05Z</time></trkpt><trkpt lat="42.514173424017706" lon="18.910231545956794"><ele>846.3333333333334</ele><time>2026-05-03T08:20:06Z</time></trkpt><trkpt lat="42.514376699618865" lon="18.910329430655146"><ele>845.0</ele><time>2026-05-03T08:20:07Z</time></trkpt><trkpt lat="42.51457588874255" lon="18.91045700324265"><ele>845.0</ele><time>2026-05-03T08:20:08Z</time></trkpt><trkpt lat="42.51477555202526" lon="18.910600761512562"><ele>845.0</ele><time>2026-05-03T08:20:09Z</time></trkpt><trkpt lat="42.51497393776661" lon="18.910752564315874"><ele>848.5</ele><time>2026-05-03T08:20:10Z</time></trkpt><trkpt lat="42.51517300522423" lon="18.910920234150584"><ele>852.0</ele><time>2026-05-03T08:20:11Z</time></trkpt><trkpt lat="42.51536659944596" lon="18.91110102575506"><ele>841.0</ele><time>2026-05-03T08:20:12Z</time></trkpt><trkpt lat="42.51554763929685" lon="18.911291597826814"><ele>830.0</ele><time>2026-05-03T08:20:13Z</time></trkpt><trkpt lat="42.5157185556606" lon="18.911497857775416"><ele>830.0</ele><time>2026-05-03T08:20:14Z</time></trkpt><trkpt lat="42.515887286736245" lon="18.911715563477518"><ele>830.0</ele><time>2026-05-03T08:20:15Z</time></trkpt><trkpt lat="42.516050810748595" lon="18.91194017371825"><ele>831.0</ele><time>2026-05-03T08:20:16Z</time></trkpt><trkpt lat="42.516206779578376" lon="18.912170538939154"><ele>832.0</ele><time>2026-05-03T08:20:17Z</time></trkpt><trkpt lat="42.51635279610599" lon="18.912407112984358"><ele>830.0</ele><time>2026-05-03T08:20:18Z</time></trkpt><trkpt lat="42.51648767574722" lon="18.912642008556425"><ele>828.0</ele><time>2026-05-03T08:20:19Z</time></trkpt><trkpt lat="42.51661915112365" lon="18.91287366345885"><ele>826.0</ele><time>2026-05-03T08:20:20Z</time></trkpt><trkpt lat="42.51675300453783" lon="18.913110157908527"><ele>826.0</ele><time>2026-05-03T08:20:21Z</time></trkpt><trkpt lat="42.51688926260326" lon="18.913345807428655"><ele>826.0</ele><time>2026-05-03T08:20:22Z</time></trkpt><trkpt lat="42.51702887094744" lon="18.91357763925637"><ele>826.0</ele><time>2026-05-03T08:20:23Z</time></trkpt><trkpt lat="42.5171728930712" lon="18.913811675606546"><ele>824.5</ele><time>2026-05-03T08:20:24Z</time></trkpt><trkpt lat="42.51732638708078" lon="18.914053559560767"><ele>823.0</ele><time>2026-05-03T08:20:25Z</time></trkpt><trkpt lat="42.517492249402906" lon="18.914305843734248"><ele>814.5</ele><time>2026-05-03T08:20:26Z</time></trkpt><trkpt lat="42.51767346281071" lon="18.91456962224957"><ele>806.0</ele><time>2026-05-03T08:20:27Z</time></trkpt><trkpt lat="42.517871514169045" lon="18.91484417615735"><ele>806.5</ele><time>2026-05-03T08:20:28Z</time></trkpt><trkpt lat="42.51808668409932" lon="18.915124752070696"><ele>807.0</ele><time>2026-05-03T08:20:29Z</time></trkpt><trkpt lat="42.518314245291144" lon="18.915395698311222"><ele>807.0</ele><time>2026-05-03T08:20:30Z</time></trkpt><trkpt lat="42.518556453127445" lon="18.915665727024436"><ele>807.0</ele><time>2026-05-03T08:20:31Z</time></trkpt><trkpt lat="42.51881087810017" lon="18.91592429489395"><ele>810.0</ele><time>2026-05-03T08:20:32Z</time></trkpt><trkpt lat="42.51907991691427" lon="18.916170698677643"><ele>813.0</ele><time>2026-05-03T08:20:33Z</time></trkpt><trkpt lat="42.51935273658134" lon="18.916393312657995"><ele>815.5</ele><time>2026-05-03T08:20:34Z</time></trkpt><trkpt lat="42.51962769939145" lon="18.91659486043941"><ele>818.0</ele><time>2026-05-03T08:20:35Z</time></trkpt><trkpt lat="42.51989123747756" lon="18.916771204653156"><ele>819.5</ele><time>2026-05-03T08:20:36Z</time></trkpt><trkpt lat="42.52014501720195" lon="18.916928381532248"><ele>821.0</ele><time>2026-05-03T08:20:37Z</time></trkpt><trkpt lat="42.520398368989426" lon="18.917069517957028"><ele>818.5</ele><time>2026-05-03T08:20:38Z</time></trkpt><trkpt lat="42.52064625250122" lon="18.91719668188618"><ele>816.0</ele><time>2026-05-03T08:20:39Z</time></trkpt><trkpt lat="42.52089047836549" lon="18.917308660761773"><ele>816.0</ele><time>2026-05-03T08:20:40Z</time></trkpt><trkpt lat="42.52113430315126" lon="18.917410453852735"><ele>816.0</ele><time>2026-05-03T08:20:41Z</time></trkpt><trkpt lat="42.52138025078177" lon="18.91750558282928"><ele>820.0</ele><time>2026-05-03T08:20:42Z</time></trkpt><trkpt lat="42.52162526870448" lon="18.917585649713367"><ele>824.0</ele><time>2026-05-03T08:20:43Z</time></trkpt><trkpt lat="42.521868163161685" lon="18.917656444684084"><ele>824.5</ele><time>2026-05-03T08:20:44Z</time></trkpt><trkpt lat="42.52211458629113" lon="18.917703612747147"><ele>825.0</ele><time>2026-05-03T08:20:45Z</time></trkpt><trkpt lat="42.52236904864603" lon="18.91774696683392"><ele>825.0</ele><time>2026-05-03T08:20:46Z</time></trkpt><trkpt lat="42.52262222548968" lon="18.91778043467719"><ele>825.0</ele><time>2026-05-03T08:20:47Z</time></trkpt><trkpt lat="42.52287833926896" lon="18.91780869386804"><ele>821.0</ele><time>2026-05-03T08:20:48Z</time></trkpt><trkpt lat="42.52313613345812" lon="18.91782481202417"><ele>817.0</ele><time>2026-05-03T08:20:49Z</time></trkpt><trkpt lat="42.52339827724491" lon="18.917821280366127"><ele>817.0</ele><time>2026-05-03T08:20:50Z</time></trkpt><trkpt lat="42.52367313370306" lon="18.917815705990026"><ele>817.0</ele><time>2026-05-03T08:20:51Z</time></trkpt><trkpt lat="42.523947275252716" lon="18.91778343271684"><ele>810.0</ele><time>2026-05-03T08:20:52Z</time></trkpt><trkpt lat="42.52422216651378" lon="18.91774548857814"><ele>803.0</ele><time>2026-05-03T08:20:53Z</time></trkpt><trkpt lat="42.524499292475895" lon="18.917687765555094"><ele>800.0</ele><time>2026-05-03T08:20:54Z</time></trkpt><trkpt lat="42.524780811376935" lon="18.917607786949656"><ele>797.0</ele><time>2026-05-03T08:20:55Z</time></trkpt><trkpt lat="42.52506359642134" lon="18.917512414045955"><ele>794.5</ele><time>2026-05-03T08:20:56Z</time></trkpt><trkpt lat="42.52534437724657" lon="18.917406849336775"><ele>792.0</ele><time>2026-05-03T08:20:57Z</time></trkpt><trkpt lat="42.52562507627376" lon="18.917298104318967"><ele>789.5</ele><time>2026-05-03T08:20:58Z</time></trkpt><trkpt lat="42.52590696613777" lon="18.91718965505364"><ele>787.0</ele><time>2026-05-03T08:20:59Z</time></trkpt><trkpt lat="42.52619007570566" lon="18.91708222326806"><ele>784.0</ele><time>2026-05-03T08:21:00Z</time></trkpt><trkpt lat="42.526475868076965" lon="18.916979463582305"><ele>781.0</ele><time>2026-05-03T08:21:01Z</time></trkpt><trkpt lat="42.52676449584767" lon="18.916880020622617"><ele>781.0</ele><time>2026-05-03T08:21:02Z</time></trkpt><trkpt lat="42.52705539391849" lon="18.916785002638633"><ele>781.0</ele><time>2026-05-03T08:21:03Z</time></trkpt><trkpt lat="42.52735229767905" lon="18.916695895222556"><ele>779.5</ele><time>2026-05-03T08:21:04Z</time></trkpt><trkpt lat="42.52765474609158" lon="18.916606109853692"><ele>778.0</ele><time>2026-05-03T08:21:05Z</time></trkpt><trkpt lat="42.52795198247313" lon="18.91651002340161"><ele>773.0</ele><time>2026-05-03T08:21:06Z</time></trkpt><trkpt lat="42.52824433315888" lon="18.916413757273304"><ele>768.0</ele><time>2026-05-03T08:21:07Z</time></trkpt><trkpt lat="42.52853663090789" lon="18.916319324240767"><ele>765.0</ele><time>2026-05-03T08:21:08Z</time></trkpt><trkpt lat="42.52880790165122" lon="18.91623133152031"><ele>762.0</ele><time>2026-05-03T08:21:09Z</time></trkpt><trkpt lat="42.529061136646206" lon="18.91614745542592"><ele>762.0</ele><time>2026-05-03T08:21:10Z</time></trkpt><trkpt lat="42.52928271449865" lon="18.916065916362967"><ele>762.0</ele><time>2026-05-03T08:21:11Z</time></trkpt><trkpt lat="42.52947719286145" lon="18.91598806111053"><ele>762.0</ele><time>2026-05-03T08:21:12Z</time></trkpt><trkpt lat="42.52966604141404" lon="18.91590541774178"><ele>763.6666666666666</ele><time>2026-05-03T08:21:13Z</time></trkpt><trkpt lat="42.52986715990711" lon="18.915810923703045"><ele>765.3333333333333</ele><time>2026-05-03T08:21:14Z</time></trkpt><trkpt lat="42.53007235311037" lon="18.915709176252044"><ele>767.0</ele><time>2026-05-03T08:21:15Z</time></trkpt><trkpt lat="42.53027651951107" lon="18.915595415706257"><ele>762.0</ele><time>2026-05-03T08:21:16Z</time></trkpt><trkpt lat="42.53047852284342" lon="18.915462616688224"><ele>757.0</ele><time>2026-05-03T08:21:17Z</time></trkpt><trkpt lat="42.530682016609816" lon="18.915310757941263"><ele>757.0</ele><time>2026-05-03T08:21:18Z</time></trkpt><trkpt lat="42.5308833282698" lon="18.915140679211873"><ele>757.0</ele><time>2026-05-03T08:21:19Z</time></trkpt><trkpt lat="42.53108358433963" lon="18.914952824874444"><ele>753.0</ele><time>2026-05-03T08:21:20Z</time></trkpt><trkpt lat="42.53128002517162" lon="18.91476462557743"><ele>749.0</ele><time>2026-05-03T08:21:21Z</time></trkpt><trkpt lat="42.531480952487556" lon="18.914579857886373"><ele>749.0</ele><time>2026-05-03T08:21:22Z</time></trkpt><trkpt lat="42.53168991436175" lon="18.914379385355616"><ele>749.0</ele><time>2026-05-03T08:21:23Z</time></trkpt><trkpt lat="42.53190327652358" lon="18.91413687255777"><ele>742.0</ele><time>2026-05-03T08:21:24Z</time></trkpt><trkpt lat="42.532114063544014" lon="18.913871391447703"><ele>735.0</ele><time>2026-05-03T08:21:25Z</time></trkpt><trkpt lat="42.53233245252253" lon="18.913575174164375"><ele>739.5</ele><time>2026-05-03T08:21:26Z</time></trkpt><trkpt lat="42.5325558789723" lon="18.91325961629159"><ele>744.0</ele><time>2026-05-03T08:21:27Z</time></trkpt><trkpt lat="42.53278488561807" lon="18.91294059576256"><ele>738.5</ele><time>2026-05-03T08:21:28Z</time></trkpt><trkpt lat="42.53302334962614" lon="18.912598728672414"><ele>733.0</ele><time>2026-05-03T08:21:29Z</time></trkpt><trkpt lat="42.533281980579225" lon="18.91223151138918"><ele>733.0</ele><time>2026-05-03T08:21:30Z</time></trkpt><trkpt lat="42.53355537102836" lon="18.91184841832757"><ele>733.0</ele><time>2026-05-03T08:21:31Z</time></trkpt><trkpt lat="42.533837630862976" lon="18.911454592925658"><ele>732.0</ele><time>2026-05-03T08:21:32Z</time></trkpt><trkpt lat="42.53412880060806" lon="18.91104111439398"><ele>731.0</ele><time>2026-05-03T08:21:33Z</time></trkpt><trkpt lat="42.53441226027543" lon="18.910631187556636"><ele>732.0</ele><time>2026-05-03T08:21:34Z</time></trkpt><trkpt lat="42.5346913376942" lon="18.91023344447524"><ele>733.0</ele><time>2026-05-03T08:21:35Z</time></trkpt><trkpt lat="42.53497425889586" lon="18.90984386402237"><ele>736.0</ele><time>2026-05-03T08:21:36Z</time></trkpt><trkpt lat="42.53527584393998" lon="18.90946837181455"><ele>739.0</ele><time>2026-05-03T08:21:37Z</time></trkpt><trkpt lat="42.535603435292245" lon="18.90911241137899"><ele>743.0</ele><time>2026-05-03T08:21:38Z</time></trkpt><trkpt lat="42.535944447593394" lon="18.908796953957125"><ele>747.0</ele><time>2026-05-03T08:21:39Z</time></trkpt><trkpt lat="42.53629697802858" lon="18.90852328753724"><ele>749.0</ele><time>2026-05-03T08:21:40Z</time></trkpt><trkpt lat="42.53666620676063" lon="18.90826436286501"><ele>751.0</ele><time>2026-05-03T08:21:41Z</time></trkpt><trkpt lat="42.537050829513355" lon="18.908019926248294"><ele>752.0</ele><time>2026-05-03T08:21:42Z</time></trkpt><trkpt lat="42.53744730185123" lon="18.907808538168293"><ele>753.0</ele><time>2026-05-03T08:21:43Z</time></trkpt><trkpt lat="42.53784788062064" lon="18.90763283387082"><ele>757.5</ele><time>2026-05-03T08:21:44Z</time></trkpt><trkpt lat="42.53823560680722" lon="18.907510788882607"><ele>762.0</ele><time>2026-05-03T08:21:45Z</time></trkpt><trkpt lat="42.53862164819281" lon="18.907424073570223"><ele>763.5</ele><time>2026-05-03T08:21:46Z</time></trkpt><trkpt lat="42.539009930067245" lon="18.90737107720381"><ele>765.0</ele><time>2026-05-03T08:21:47Z</time></trkpt><trkpt lat="42.53940692879807" lon="18.907342422553416"><ele>766.5</ele><time>2026-05-03T08:21:48Z</time></trkpt><trkpt lat="42.539809689951745" lon="18.907334297735126"><ele>768.0</ele><time>2026-05-03T08:21:49Z</time></trkpt><trkpt lat="42.5402191431602" lon="18.907331063418763"><ele>774.0</ele><time>2026-05-03T08:21:50Z</time></trkpt><trkpt lat="42.54063234876385" lon="18.90732616899838"><ele>780.0</ele><time>2026-05-03T08:21:51Z</time></trkpt><trkpt lat="42.541052917010525" lon="18.907317989237246"><ele>783.5</ele><time>2026-05-03T08:21:52Z</time></trkpt><trkpt lat="42.54147395137182" lon="18.9073045744497"><ele>787.0</ele><time>2026-05-03T08:21:53Z</time></trkpt><trkpt lat="42.5418929919238" lon="18.907292177218398"><ele>787.5</ele><time>2026-05-03T08:21:54Z</time></trkpt><trkpt lat="42.542301055890746" lon="18.907282444675694"><ele>788.0</ele><time>2026-05-03T08:21:55Z</time></trkpt><trkpt lat="42.542704496409804" lon="18.907266400701452"><ele>790.5</ele><time>2026-05-03T08:21:56Z</time></trkpt><trkpt lat="42.543099627600675" lon="18.90722022355501"><ele>793.0</ele><time>2026-05-03T08:21:57Z</time></trkpt><trkpt lat="42.543471800394244" lon="18.907147164051935"><ele>796.0</ele><time>2026-05-03T08:21:58Z</time></trkpt><trkpt lat="42.54380546083717" lon="18.907048942026933"><ele>799.0</ele><time>2026-05-03T08:21:59Z</time></trkpt><trkpt lat="42.54411037218065" lon="18.906941507208824"><ele>799.0</ele><time>2026-05-03T08:22:00Z</time></trkpt><trkpt lat="42.54438627184243" lon="18.906820594442575"><ele>799.0</ele><time>2026-05-03T08:22:01Z</time></trkpt><trkpt lat="42.54465351972038" lon="18.90669664408384"><ele>799.5</ele><time>2026-05-03T08:22:02Z</time></trkpt><trkpt lat="42.544903437402" lon="18.906573035964605"><ele>800.0</ele><time>2026-05-03T08:22:03Z</time></trkpt><trkpt lat="42.54514193328818" lon="18.906443463246912"><ele>800.0</ele><time>2026-05-03T08:22:04Z</time></trkpt><trkpt lat="42.54536785297475" lon="18.906299842011606"><ele>800.0</ele><time>2026-05-03T08:22:05Z</time></trkpt><trkpt lat="42.54558107077681" lon="18.906145971761113"><ele>800.5</ele><time>2026-05-03T08:22:06Z</time></trkpt><trkpt lat="42.545786366079376" lon="18.905993080954648"><ele>801.0</ele><time>2026-05-03T08:22:07Z</time></trkpt><trkpt lat="42.54598977918713" lon="18.905839031816257"><ele>801.0</ele><time>2026-05-03T08:22:08Z</time></trkpt><trkpt lat="42.54620070497043" lon="18.90567451444624"><ele>801.0</ele><time>2026-05-03T08:22:09Z</time></trkpt><trkpt lat="42.5464138194657" lon="18.905503407147442"><ele>807.5</ele><time>2026-05-03T08:22:10Z</time></trkpt><trkpt lat="42.54662130233081" lon="18.905332172574834"><ele>814.0</ele><time>2026-05-03T08:22:11Z</time></trkpt><trkpt lat="42.5468106970517" lon="18.90517729924065"><ele>814.3333333333333</ele><time>2026-05-03T08:22:12Z</time></trkpt><trkpt lat="42.546979196261454" lon="18.90504393542031"><ele>814.6666666666667</ele><time>2026-05-03T08:22:13Z</time></trkpt><trkpt lat="42.547132857848204" lon="18.9049235041661"><ele>815.0</ele><time>2026-05-03T08:22:14Z</time></trkpt><trkpt lat="42.54728153662336" lon="18.904811024457143"><ele>816.3333333333334</ele><time>2026-05-03T08:22:15Z</time></trkpt><trkpt lat="42.547440300291385" lon="18.90469598123446"><ele>817.6666666666667</ele><time>2026-05-03T08:22:16Z</time></trkpt><trkpt lat="42.547599686221815" lon="18.904578589913097"><ele>819.0</ele><time>2026-05-03T08:22:17Z</time></trkpt><trkpt lat="42.547761417197954" lon="18.9044622252737"><ele>821.6666666666667</ele><time>2026-05-03T08:22:18Z</time></trkpt><trkpt lat="42.547920970892015" lon="18.90435271058322"><ele>824.3333333333334</ele><time>2026-05-03T08:22:19Z</time></trkpt><trkpt lat="42.54809034941867" lon="18.90423851896958"><ele>827.0</ele><time>2026-05-03T08:22:20Z</time></trkpt><trkpt lat="42.54827427952498" lon="18.90412480679676"><ele>827.0</ele><time>2026-05-03T08:22:21Z</time></trkpt><trkpt lat="42.54846567199332" lon="18.904009721541176"><ele>827.0</ele><time>2026-05-03T08:22:22Z</time></trkpt><trkpt lat="42.54866163928179" lon="18.903899192689195"><ele>827.0</ele><time>2026-05-03T08:22:23Z</time></trkpt><trkpt lat="42.5488615275586" lon="18.90378924111778"><ele>827.6666666666667</ele><time>2026-05-03T08:22:24Z</time></trkpt><trkpt lat="42.549038809559605" lon="18.903697475799458"><ele>828.3333333333333</ele><time>2026-05-03T08:22:25Z</time></trkpt><trkpt lat="42.549176141232884" lon="18.903631874181897"><ele>829.0</ele><time>2026-05-03T08:22:26Z</time></trkpt><trkpt lat="42.54928755492792" lon="18.90359320694675"><ele>829.0</ele><time>2026-05-03T08:22:27Z</time></trkpt><trkpt lat="42.54940030556202" lon="18.903581234462962"><ele>829.0</ele><time>2026-05-03T08:22:28Z</time></trkpt><trkpt lat="42.549528079813065" lon="18.90359903504559"><ele>829.0</ele><time>2026-05-03T08:22:29Z</time></trkpt><trkpt lat="42.54966535073758" lon="18.903617588930526"><ele>829.0</ele><time>2026-05-03T08:22:30Z</time></trkpt><trkpt lat="42.54980675942501" lon="18.903595052799034"><ele>829.0</ele><time>2026-05-03T08:22:31Z</time></trkpt><trkpt lat="42.54994839480222" lon="18.903536545351788"><ele>829.0</ele><time>2026-05-03T08:22:32Z</time></trkpt><trkpt lat="42.55009290025531" lon="18.903464907685887"><ele>829.0</ele><time>2026-05-03T08:22:33Z</time></trkpt><trkpt lat="42.550232532135944" lon="18.90340327373984"><ele>829.0</ele><time>2026-05-03T08:22:34Z</time></trkpt><trkpt lat="42.550360651231614" lon="18.90334761294158"><ele>830.2</ele><time>2026-05-03T08:22:35Z</time></trkpt><trkpt lat="42.55047416315104" lon="18.903298710690436"><ele>831.4000000000001</ele><time>2026-05-03T08:22:36Z</time></trkpt><trkpt lat="42.550584213208346" lon="18.903254062157963"><ele>832.6</ele><time>2026-05-03T08:22:37Z</time></trkpt><trkpt lat="42.55068684228663" lon="18.903213744226502"><ele>833.8</ele><time>2026-05-03T08:22:38Z</time></trkpt><trkpt lat="42.55079086844895" lon="18.903179706367897"><ele>835.0</ele><time>2026-05-03T08:22:39Z</time></trkpt><trkpt lat="42.55089683309959" lon="18.903169211192665"><ele>835.0</ele><time>2026-05-03T08:22:40Z</time></trkpt><trkpt lat="42.55101440822112" lon="18.903200788425565"><ele>835.0</ele><time>2026-05-03T08:22:41Z</time></trkpt><trkpt lat="42.55113168235274" lon="18.903246750285277"><ele>835.0</ele><time>2026-05-03T08:22:42Z</time></trkpt><trkpt lat="42.55125189691022" lon="18.903290454296066"><ele>835.0</ele><time>2026-05-03T08:22:43Z</time></trkpt><trkpt lat="42.551370296908715" lon="18.90329603379981"><ele>837.25</ele><time>2026-05-03T08:22:44Z</time></trkpt><trkpt lat="42.5514950409876" lon="18.90326246887065"><ele>839.5</ele><time>2026-05-03T08:22:45Z</time></trkpt><trkpt lat="42.55161848104399" lon="18.903183605508723"><ele>841.75</ele><time>2026-05-03T08:22:46Z</time></trkpt><trkpt lat="42.55173539459586" lon="18.903077890669717"><ele>844.0</ele><time>2026-05-03T08:22:47Z</time></trkpt><trkpt lat="42.55184819986727" lon="18.902957809685063"><ele>844.0</ele><time>2026-05-03T08:22:48Z</time></trkpt><trkpt lat="42.551972449737434" lon="18.90283424567195"><ele>844.0</ele><time>2026-05-03T08:22:49Z</time></trkpt><trkpt lat="42.552112485696064" lon="18.902715693155965"><ele>844.0</ele><time>2026-05-03T08:22:50Z</time></trkpt><trkpt lat="42.55224366413353" lon="18.90261438808303"><ele>842.0</ele><time>2026-05-03T08:22:51Z</time></trkpt><trkpt lat="42.55236516045109" lon="18.90251283655647"><ele>840.0</ele><time>2026-05-03T08:22:52Z</time></trkpt><trkpt lat="42.55247779743866" lon="18.90240792794087"><ele>838.0</ele><time>2026-05-03T08:22:53Z</time></trkpt><trkpt lat="42.552593205305" lon="18.902329201319723"><ele>836.0</ele><time>2026-05-03T08:22:54Z</time></trkpt><trkpt lat="42.552714777105685" lon="18.90226411404546"><ele>836.0</ele><time>2026-05-03T08:22:55Z</time></trkpt><trkpt lat="42.552839762921444" lon="18.902201951788268"><ele>836.0</ele><time>2026-05-03T08:22:56Z</time></trkpt><trkpt lat="42.55296533115177" lon="18.9021365823367"><ele>836.0</ele><time>2026-05-03T08:22:57Z</time></trkpt><trkpt lat="42.55309297826743" lon="18.902064632593962"><ele>836.0</ele><time>2026-05-03T08:22:58Z</time></trkpt><trkpt lat="42.553228156097596" lon="18.90198433207704"><ele>835.25</ele><time>2026-05-03T08:22:59Z</time></trkpt><trkpt lat="42.55336047650058" lon="18.901904824431305"><ele>834.5</ele><time>2026-05-03T08:23:00Z</time></trkpt><trkpt lat="42.55349723699553" lon="18.90184288053517"><ele>833.75</ele><time>2026-05-03T08:23:01Z</time></trkpt><trkpt lat="42.55364120689253" lon="18.901780855871245"><ele>833.0</ele><time>2026-05-03T08:23:02Z</time></trkpt><trkpt lat="42.55377826391913" lon="18.901730970143728"><ele>833.0</ele><time>2026-05-03T08:23:03Z</time></trkpt><trkpt lat="42.55391383543031" lon="18.901703536256306"><ele>833.0</ele><time>2026-05-03T08:23:04Z</time></trkpt><trkpt lat="42.554049460076854" lon="18.901699155569197"><ele>833.0</ele><time>2026-05-03T08:23:05Z</time></trkpt><trkpt lat="42.55418315626261" lon="18.90171028124277"><ele>833.0</ele><time>2026-05-03T08:23:06Z</time></trkpt><trkpt lat="42.554310294009404" lon="18.901740514784954"><ele>836.0</ele><time>2026-05-03T08:23:07Z</time></trkpt><trkpt lat="42.554433937830524" lon="18.901780574626994"><ele>839.0</ele><time>2026-05-03T08:23:08Z</time></trkpt><trkpt lat="42.55455062287222" lon="18.90180740957274"><ele>842.0</ele><time>2026-05-03T08:23:09Z</time></trkpt><trkpt lat="42.554667650903184" lon="18.901798175166466"><ele>845.0</ele><time>2026-05-03T08:23:10Z</time></trkpt><trkpt lat="42.55477685329197" lon="18.90175297371607"><ele>843.0</ele><time>2026-05-03T08:23:11Z</time></trkpt><trkpt lat="42.5548686000482" lon="18.901691711797344"><ele>841.0</ele><time>2026-05-03T08:23:12Z</time></trkpt><trkpt lat="42.5549529145405" lon="18.901632627168443"><ele>839.0</ele><time>2026-05-03T08:23:13Z</time></trkpt><trkpt lat="42.555030303000414" lon="18.901579276431484"><ele>837.0</ele><time>2026-05-03T08:23:14Z</time></trkpt><trkpt lat="42.55511304084213" lon="18.901535242888933"><ele>835.0</ele><time>2026-05-03T08:23:15Z</time></trkpt><trkpt lat="42.55518863740295" lon="18.901497086095215"><ele>835.0000000000001</ele><time>2026-05-03T08:23:16Z</time></trkpt><trkpt lat="42.555261455498794" lon="18.901457827713728"><ele>835.0</ele><time>2026-05-03T08:23:17Z</time></trkpt><trkpt lat="42.55532697836886" lon="18.901433153383945"><ele>835.0</ele><time>2026-05-03T08:23:18Z</time></trkpt><trkpt lat="42.55539625076694" lon="18.901419503208444"><ele>835.0</ele><time>2026-05-03T08:23:19Z</time></trkpt><trkpt lat="42.55546965293068" lon="18.90141930930811"><ele>835.0</ele><time>2026-05-03T08:23:20Z</time></trkpt><trkpt lat="42.55554818571008" lon="18.901427203373785"><ele>835.0000000000001</ele><time>2026-05-03T08:23:21Z</time></trkpt><trkpt lat="42.555623638552916" lon="18.901436140733782"><ele>835.0</ele><time>2026-05-03T08:23:22Z</time></trkpt><trkpt lat="42.55570282317438" lon="18.90145156307089"><ele>835.4999999999999</ele><time>2026-05-03T08:23:23Z</time></trkpt><trkpt lat="42.55578327093288" lon="18.901472385891637"><ele>836.0</ele><time>2026-05-03T08:23:24Z</time></trkpt><trkpt lat="42.55586951149386" lon="18.90150435799761"><ele>836.5</ele><time>2026-05-03T08:23:25Z</time></trkpt><trkpt lat="42.55596210599011" lon="18.9015170783717"><ele>837.0</ele><time>2026-05-03T08:23:26Z</time></trkpt><trkpt lat="42.55604444390608" lon="18.901504431290974"><ele>837.4999999999999</ele><time>2026-05-03T08:23:27Z</time></trkpt><trkpt lat="42.55610822294197" lon="18.90146527200097"><ele>838.0</ele><time>2026-05-03T08:23:28Z</time></trkpt><trkpt lat="42.55615695297169" lon="18.901409324395587"><ele>839.3333333333333</ele><time>2026-05-03T08:23:29Z</time></trkpt><trkpt lat="42.556210063186754" lon="18.901337565517693"><ele>840.6666666666666</ele><time>2026-05-03T08:23:30Z</time></trkpt><trkpt lat="42.55627800941234" lon="18.90125959894298"><ele>842.0</ele><time>2026-05-03T08:23:31Z</time></trkpt><trkpt lat="42.55635249961249" lon="18.901183779034543"><ele>843.3333333333333</ele><time>2026-05-03T08:23:32Z</time></trkpt><trkpt lat="42.556423198182316" lon="18.901106589395816"><ele>844.6666666666666</ele><time>2026-05-03T08:23:33Z</time></trkpt><trkpt lat="42.55649484538346" lon="18.90101244304689"><ele>846.0</ele><time>2026-05-03T08:23:34Z</time></trkpt><trkpt lat="42.55655203018657" lon="18.900913736893415"><ele>846.0</ele><time>2026-05-03T08:23:35Z</time></trkpt><trkpt lat="42.55660582920708" lon="18.900814688878228"><ele>846.0</ele><time>2026-05-03T08:23:36Z</time></trkpt><trkpt lat="42.55665474664024" lon="18.900713237883163"><ele>846.0</ele><time>2026-05-03T08:23:37Z</time></trkpt><trkpt lat="42.55669478586325" lon="18.900625826165598"><ele>846.0</ele><time>2026-05-03T08:23:38Z</time></trkpt><trkpt lat="42.55675122784374" lon="18.90048724827919"><ele>846.0</ele><time>2026-05-03T08:23:40Z</time></trkpt><trkpt lat="42.55681244694723" lon="18.900349830451265"><ele>846.0</ele><time>2026-05-03T08:23:42Z</time></trkpt><trkpt lat="42.556843105777965" lon="18.900270632864594"><ele>846.0</ele><time>2026-05-03T08:23:43Z</time></trkpt><trkpt lat="42.556870987807976" lon="18.900192069212938"><ele>846.0</ele><time>2026-05-03T08:23:44Z</time></trkpt><trkpt lat="42.55690946878934" lon="18.900066002174285"><ele>846.0</ele><time>2026-05-03T08:23:46Z</time></trkpt><trkpt lat="42.55695341903503" lon="18.899963547242262"><ele>846.0</ele><time>2026-05-03T08:23:48Z</time></trkpt><trkpt lat="42.55702781760427" lon="18.899808375270098"><ele>845.3333333333334</ele><time>2026-05-03T08:23:50Z</time></trkpt><trkpt lat="42.55707866764581" lon="18.899743137525768"><ele>844.6666666666667</ele><time>2026-05-03T08:23:51Z</time></trkpt><trkpt lat="42.55713633036844" lon="18.899692653251968"><ele>844.0</ele><time>2026-05-03T08:23:52Z</time></trkpt><trkpt lat="42.55720342039292" lon="18.89966925495361"><ele>843.3333333333334</ele><time>2026-05-03T08:23:53Z</time></trkpt><trkpt lat="42.55731027993573" lon="18.899709423352782"><ele>842.6666666666667</ele><time>2026-05-03T08:23:55Z</time></trkpt><trkpt lat="42.55736203249657" lon="18.89976065670142"><ele>842.0</ele><time>2026-05-03T08:23:56Z</time></trkpt><trkpt lat="42.55742022214671" lon="18.899826385883777"><ele>842.0000000000001</ele><time>2026-05-03T08:23:57Z</time></trkpt><trkpt lat="42.55746431072895" lon="18.89990362838587"><ele>842.0</ele><time>2026-05-03T08:23:58Z</time></trkpt><trkpt lat="42.55751070991119" lon="18.899990879578915"><ele>842.0</ele><time>2026-05-03T08:23:59Z</time></trkpt><trkpt lat="42.55755373787569" lon="18.900072177355906"><ele>842.0</ele><time>2026-05-03T08:24:00Z</time></trkpt><trkpt lat="42.5575958182475" lon="18.90014880837649"><ele>842.0</ele><time>2026-05-03T08:24:01Z</time></trkpt><trkpt lat="42.55763609516896" lon="18.900230528252212"><ele>842.0000000000001</ele><time>2026-05-03T08:24:02Z</time></trkpt><trkpt lat="42.5576677750652" lon="18.900312558902705"><ele>842.0</ele><time>2026-05-03T08:24:03Z</time></trkpt><trkpt lat="42.55770337476002" lon="18.900387034922254"><ele>842.3333333333334</ele><time>2026-05-03T08:24:04Z</time></trkpt><trkpt lat="42.557766692087256" lon="18.900513552489052"><ele>842.6666666666667</ele><time>2026-05-03T08:24:06Z</time></trkpt><trkpt lat="42.55780821884989" lon="18.900612066448417"><ele>843.0</ele><time>2026-05-03T08:24:08Z</time></trkpt><trkpt lat="42.557836703749025" lon="18.900696955387396"><ele>843.3333333333333</ele><time>2026-05-03T08:24:10Z</time></trkpt><trkpt lat="42.55789155239037" lon="18.900761134030972"><ele>843.6666666666666</ele><time>2026-05-03T08:24:12Z</time></trkpt><trkpt lat="42.55795139203736" lon="18.900795395870198"><ele>844.0</ele><time>2026-05-03T08:24:14Z</time></trkpt><trkpt lat="42.55803072159159" lon="18.900815295739225"><ele>844.0</ele><time>2026-05-03T08:24:16Z</time></trkpt><trkpt lat="42.5581515459248" lon="18.90079350777711"><ele>844.0</ele><time>2026-05-03T08:24:18Z</time></trkpt><trkpt lat="42.55822806889246" lon="18.90078599865379"><ele>844.0</ele><time>2026-05-03T08:24:19Z</time></trkpt><trkpt lat="42.55831378700995" lon="18.90076919712234"><ele>844.0</ele><time>2026-05-03T08:24:20Z</time></trkpt><trkpt lat="42.55840479309923" lon="18.90074663593222"><ele>844.0</ele><time>2026-05-03T08:24:21Z</time></trkpt><trkpt lat="42.558499402907316" lon="18.900731291791004"><ele>843.9999999999999</ele><time>2026-05-03T08:24:22Z</time></trkpt><trkpt lat="42.55858043995987" lon="18.90070865894925"><ele>844.0</ele><time>2026-05-03T08:24:23Z</time></trkpt><trkpt lat="42.558648731469845" lon="18.90068179509856"><ele>844.0</ele><time>2026-05-03T08:24:24Z</time></trkpt><trkpt lat="42.55871048083546" lon="18.9006350105412"><ele>844.0</ele><time>2026-05-03T08:24:25Z</time></trkpt><trkpt lat="42.55876730019092" lon="18.900564848596233"><ele>843.9999999999999</ele><time>2026-05-03T08:24:26Z</time></trkpt><trkpt lat="42.558823742138046" lon="18.900472255412865"><ele>844.0</ele><time>2026-05-03T08:24:27Z</time></trkpt><trkpt lat="42.558869873695" lon="18.90037768067276"><ele>843.0</ele><time>2026-05-03T08:24:28Z</time></trkpt><trkpt lat="42.558922596225294" lon="18.900244171179533"><ele>842.0</ele><time>2026-05-03T08:24:29Z</time></trkpt><trkpt lat="42.55899080194701" lon="18.900083795397492"><ele>841.0</ele><time>2026-05-03T08:24:30Z</time></trkpt><trkpt lat="42.55907656587282" lon="18.899920160110526"><ele>840.0</ele><time>2026-05-03T08:24:31Z</time></trkpt><trkpt lat="42.55915703486178" lon="18.89977379413166"><ele>840.0</ele><time>2026-05-03T08:24:32Z</time></trkpt><trkpt lat="42.559232361876525" lon="18.89964074268133"><ele>840.0</ele><time>2026-05-03T08:24:33Z</time></trkpt><trkpt lat="42.55930399433305" lon="18.899525811709534"><ele>840.0</ele><time>2026-05-03T08:24:34Z</time></trkpt><trkpt lat="42.559368731677615" lon="18.899437101503036"><ele>840.0</ele><time>2026-05-03T08:24:35Z</time></trkpt><trkpt lat="42.55942832508488" lon="18.89937537996743"><ele>840.0</ele><time>2026-05-03T08:24:36Z</time></trkpt><trkpt lat="42.55948988480042" lon="18.899338911744607"><ele>840.8</ele><time>2026-05-03T08:24:37Z</time></trkpt><trkpt lat="42.559562776818" lon="18.899315446401623"><ele>841.6</ele><time>2026-05-03T08:24:38Z</time></trkpt><trkpt lat="42.5596951513992" lon="18.899258933298"><ele>842.4000000000001</ele><time>2026-05-03T08:24:40Z</time></trkpt><trkpt lat="42.559782155331376" lon="18.899191241914433"><ele>843.2</ele><time>2026-05-03T08:24:41Z</time></trkpt><trkpt lat="42.5598672911983" lon="18.89911210622623"><ele>844.0</ele><time>2026-05-03T08:24:42Z</time></trkpt><trkpt lat="42.55994305754298" lon="18.89903312026743"><ele>844.0</ele><time>2026-05-03T08:24:43Z</time></trkpt><trkpt lat="42.560018995372786" lon="18.89895556260824"><ele>844.0</ele><time>2026-05-03T08:24:44Z</time></trkpt><trkpt lat="42.560113437555806" lon="18.898900405016402"><ele>844.0</ele><time>2026-05-03T08:24:45Z</time></trkpt><trkpt lat="42.56021234372188" lon="18.89885348010334"><ele>844.0</ele><time>2026-05-03T08:24:46Z</time></trkpt><trkpt lat="42.56031482150772" lon="18.89879347467912"><ele>844.0</ele><time>2026-05-03T08:24:47Z</time></trkpt><trkpt lat="42.560426444894006" lon="18.898719843395906"><ele>849.75</ele><time>2026-05-03T08:24:48Z</time></trkpt><trkpt lat="42.56053665321978" lon="18.898648083753212"><ele>855.5</ele><time>2026-05-03T08:24:49Z</time></trkpt><trkpt lat="42.56064091326833" lon="18.89858060413809"><ele>861.25</ele><time>2026-05-03T08:24:50Z</time></trkpt><trkpt lat="42.560742079025104" lon="18.89851730603387"><ele>867.0</ele><time>2026-05-03T08:24:51Z</time></trkpt><trkpt lat="42.56083208628953" lon="18.898455303577773"><ele>861.8</ele><time>2026-05-03T08:24:52Z</time></trkpt><trkpt lat="42.56090630471541" lon="18.898388737317045"><ele>856.6</ele><time>2026-05-03T08:24:53Z</time></trkpt><trkpt lat="42.560968717503464" lon="18.898314066627226"><ele>851.4</ele><time>2026-05-03T08:24:54Z</time></trkpt><trkpt lat="42.561028193315444" lon="18.898209014828122"><ele>846.1999999999999</ele><time>2026-05-03T08:24:55Z</time></trkpt><trkpt lat="42.56107706494281" lon="18.898079968470984"><ele>841.0</ele><time>2026-05-03T08:24:56Z</time></trkpt><trkpt lat="42.56111550113338" lon="18.897948061304614"><ele>841.0</ele><time>2026-05-03T08:24:57Z</time></trkpt><trkpt lat="42.5611526312281" lon="18.8978171693099"><ele>841.0</ele><time>2026-05-03T08:24:58Z</time></trkpt><trkpt lat="42.5611873891614" lon="18.897697268139293"><ele>841.0</ele><time>2026-05-03T08:24:59Z</time></trkpt><trkpt lat="42.56122385286158" lon="18.89757201335781"><ele>841.0</ele><time>2026-05-03T08:25:00Z</time></trkpt><trkpt lat="42.561264513463335" lon="18.89743919814385"><ele>841.0</ele><time>2026-05-03T08:25:01Z</time></trkpt><trkpt lat="42.56130700540873" lon="18.897320686996597"><ele>841.8</ele><time>2026-05-03T08:25:02Z</time></trkpt><trkpt lat="42.561359788547506" lon="18.897198769858417"><ele>842.5999999999999</ele><time>2026-05-03T08:25:03Z</time></trkpt><trkpt lat="42.5614256251927" lon="18.897111292719522"><ele>843.4</ele><time>2026-05-03T08:25:04Z</time></trkpt><trkpt lat="42.56148742866573" lon="18.897058624240472"><ele>844.2</ele><time>2026-05-03T08:25:05Z</time></trkpt><trkpt lat="42.56153296815321" lon="18.89694410615302"><ele>845.0</ele><time>2026-05-03T08:25:07Z</time></trkpt><trkpt lat="42.56157274138032" lon="18.896810628740912"><ele>843.6</ele><time>2026-05-03T08:25:09Z</time></trkpt><trkpt lat="42.56164360951928" lon="18.896735366433017"><ele>842.2</ele><time>2026-05-03T08:25:11Z</time></trkpt><trkpt lat="42.561732127274254" lon="18.89670122124296"><ele>840.8</ele><time>2026-05-03T08:25:13Z</time></trkpt><trkpt lat="42.56184511465738" lon="18.896685058863888"><ele>839.4</ele><time>2026-05-03T08:25:15Z</time></trkpt><trkpt lat="42.56192376913686" lon="18.89658401920606"><ele>838.0</ele><time>2026-05-03T08:25:17Z</time></trkpt><trkpt lat="42.56196848991857" lon="18.896502179719096"><ele>838.0</ele><time>2026-05-03T08:25:18Z</time></trkpt><trkpt lat="42.56199804308909" lon="18.896394659315735"><ele>838.0</ele><time>2026-05-03T08:25:19Z</time></trkpt><trkpt lat="42.56201392183134" lon="18.896274778755224"><ele>838.0</ele><time>2026-05-03T08:25:20Z</time></trkpt><trkpt lat="42.56202490151507" lon="18.896142416576613"><ele>838.0</ele><time>2026-05-03T08:25:21Z</time></trkpt><trkpt lat="42.5620363745015" lon="18.8960031207096"><ele>838.0</ele><time>2026-05-03T08:25:22Z</time></trkpt><trkpt lat="42.56205584751099" lon="18.895859929343622"><ele>842.2</ele><time>2026-05-03T08:25:23Z</time></trkpt><trkpt lat="42.562069727048815" lon="18.89570924261127"><ele>846.4</ele><time>2026-05-03T08:25:24Z</time></trkpt><trkpt lat="42.562089007484374" lon="18.89554516284389"><ele>850.6000000000001</ele><time>2026-05-03T08:25:25Z</time></trkpt><trkpt lat="42.56210797768372" lon="18.89540567746656"><ele>854.8000000000001</ele><time>2026-05-03T08:25:26Z</time></trkpt><trkpt lat="42.562131197468496" lon="18.89526965275709"><ele>859.0</ele><time>2026-05-03T08:25:27Z</time></trkpt><trkpt lat="42.56216972738303" lon="18.895136029318333"><ele>857.0</ele><time>2026-05-03T08:25:28Z</time></trkpt><trkpt lat="42.562233821315246" lon="18.895009274402184"><ele>855.0</ele><time>2026-05-03T08:25:29Z</time></trkpt><trkpt lat="42.562314128804196" lon="18.894883528965533"><ele>853.0</ele><time>2026-05-03T08:25:30Z</time></trkpt><trkpt lat="42.562397533506505" lon="18.894737421609875"><ele>851.0</ele><time>2026-05-03T08:25:31Z</time></trkpt><trkpt lat="42.562477771099005" lon="18.894576107720088"><ele>851.0</ele><time>2026-05-03T08:25:32Z</time></trkpt><trkpt lat="42.56255557726181" lon="18.894424812552387"><ele>851.0</ele><time>2026-05-03T08:25:33Z</time></trkpt><trkpt lat="42.56263950128534" lon="18.894297496234344"><ele>851.0</ele><time>2026-05-03T08:25:34Z</time></trkpt><trkpt lat="42.562743440206305" lon="18.894191605596774"><ele>851.0</ele><time>2026-05-03T08:25:35Z</time></trkpt><trkpt lat="42.5628557498381" lon="18.89409711997657"><ele>850.4</ele><time>2026-05-03T08:25:36Z</time></trkpt><trkpt lat="42.56295963331625" lon="18.894013385989474"><ele>849.8</ele><time>2026-05-03T08:25:37Z</time></trkpt><trkpt lat="42.563055655013585" lon="18.893936900048434"><ele>849.1999999999999</ele><time>2026-05-03T08:25:38Z</time></trkpt><trkpt lat="42.56314570824479" lon="18.89385487461599"><ele>848.5999999999999</ele><time>2026-05-03T08:25:39Z</time></trkpt><trkpt lat="42.56322309278239" lon="18.893763418916794"><ele>848.0</ele><time>2026-05-03T08:25:40Z</time></trkpt><trkpt lat="42.56330637039747" lon="18.8936689473193"><ele>848.0</ele><time>2026-05-03T08:25:41Z</time></trkpt><trkpt lat="42.563387748213216" lon="18.89357116216264"><ele>848.0</ele><time>2026-05-03T08:25:42Z</time></trkpt><trkpt lat="42.563447511135664" lon="18.89347494500081"><ele>848.0</ele><time>2026-05-03T08:25:43Z</time></trkpt><trkpt lat="42.56350670486999" lon="18.893366647083788"><ele>848.0</ele><time>2026-05-03T08:25:44Z</time></trkpt><trkpt lat="42.56357103289997" lon="18.893237466080453"><ele>848.0</ele><time>2026-05-03T08:25:45Z</time></trkpt><trkpt lat="42.56361709883076" lon="18.89311060987478"><ele>846.4</ele><time>2026-05-03T08:25:46Z</time></trkpt><trkpt lat="42.56363776174998" lon="18.89298828322267"><ele>844.8</ele><time>2026-05-03T08:25:47Z</time></trkpt><trkpt lat="42.56363931937689" lon="18.892869395625063"><ele>843.2</ele><time>2026-05-03T08:25:48Z</time></trkpt><trkpt lat="42.56362304440548" lon="18.89273874660856"><ele>841.6</ele><time>2026-05-03T08:25:49Z</time></trkpt><trkpt lat="42.563581525623874" lon="18.892613161778446"><ele>840.0</ele><time>2026-05-03T08:25:50Z</time></trkpt><trkpt lat="42.563521432903" lon="18.892505916498635"><ele>840.0</ele><time>2026-05-03T08:25:51Z</time></trkpt><trkpt lat="42.563448366416466" lon="18.892400062084295"><ele>840.0</ele><time>2026-05-03T08:25:52Z</time></trkpt><trkpt lat="42.563375518346554" lon="18.89229923215371"><ele>840.0</ele><time>2026-05-03T08:25:53Z</time></trkpt><trkpt lat="42.56331547561356" lon="18.892203231479726"><ele>840.0</ele><time>2026-05-03T08:25:54Z</time></trkpt><trkpt lat="42.563283948703585" lon="18.892094952819114"><ele>840.0</ele><time>2026-05-03T08:25:55Z</time></trkpt><trkpt lat="42.563278338368995" lon="18.891974150268048"><ele>840.0</ele><time>2026-05-03T08:25:56Z</time></trkpt><trkpt lat="42.5632981187354" lon="18.89185130881214"><ele>840.0</ele><time>2026-05-03T08:25:57Z</time></trkpt><trkpt lat="42.56332031608225" lon="18.89173442477034"><ele>840.0</ele><time>2026-05-03T08:25:58Z</time></trkpt><trkpt lat="42.56333855572274" lon="18.89162085393823"><ele>840.0</ele><time>2026-05-03T08:25:59Z</time></trkpt><trkpt lat="42.56335552237084" lon="18.891505158681547"><ele>840.0</ele><time>2026-05-03T08:26:00Z</time></trkpt><trkpt lat="42.56337262889398" lon="18.891375975903255"><ele>839.6</ele><time>2026-05-03T08:26:01Z</time></trkpt><trkpt lat="42.563401985505465" lon="18.89124723270729"><ele>839.2</ele><time>2026-05-03T08:26:02Z</time></trkpt><trkpt lat="42.56344385782207" lon="18.891115019755077"><ele>838.8</ele><time>2026-05-03T08:26:03Z</time></trkpt><trkpt lat="42.56349781550397" lon="18.890970989382843"><ele>838.4</ele><time>2026-05-03T08:26:04Z</time></trkpt><trkpt lat="42.563558656875905" lon="18.89082362110232"><ele>838.0</ele><time>2026-05-03T08:26:05Z</time></trkpt><trkpt lat="42.56361866039061" lon="18.890668855576344"><ele>838.0</ele><time>2026-05-03T08:26:06Z</time></trkpt><trkpt lat="42.56367089031883" lon="18.89050998124579"><ele>838.0</ele><time>2026-05-03T08:26:07Z</time></trkpt><trkpt lat="42.563721503283254" lon="18.890355723156052"><ele>838.0</ele><time>2026-05-03T08:26:08Z</time></trkpt><trkpt lat="42.56377578822168" lon="18.890208014328678"><ele>838.0</ele><time>2026-05-03T08:26:09Z</time></trkpt><trkpt lat="42.56383001086124" lon="18.890087075369173"><ele>843.25</ele><time>2026-05-03T08:26:10Z</time></trkpt><trkpt lat="42.56390421325708" lon="18.88997969351537"><ele>848.5</ele><time>2026-05-03T08:26:11Z</time></trkpt><trkpt lat="42.56400016041654" lon="18.889875888662512"><ele>853.75</ele><time>2026-05-03T08:26:12Z</time></trkpt><trkpt lat="42.56410216951334" lon="18.889762937958864"><ele>859.0</ele><time>2026-05-03T08:26:13Z</time></trkpt><trkpt lat="42.564206528875665" lon="18.889643189108547"><ele>859.0</ele><time>2026-05-03T08:26:14Z</time></trkpt><trkpt lat="42.56431437819123" lon="18.889513357955956"><ele>859.0</ele><time>2026-05-03T08:26:15Z</time></trkpt><trkpt lat="42.56442807645939" lon="18.889383895828768"><ele>859.0</ele><time>2026-05-03T08:26:16Z</time></trkpt><trkpt lat="42.56454837129298" lon="18.88923519899283"><ele>860.3333333333333</ele><time>2026-05-03T08:26:17Z</time></trkpt><trkpt lat="42.56468280695245" lon="18.88906556936116"><ele>861.6666666666667</ele><time>2026-05-03T08:26:18Z</time></trkpt><trkpt lat="42.56480182905495" lon="18.88890032739673"><ele>863.0</ele><time>2026-05-03T08:26:19Z</time></trkpt><trkpt lat="42.56490231742856" lon="18.888752175209575"><ele>863.0</ele><time>2026-05-03T08:26:20Z</time></trkpt><trkpt lat="42.56500031013192" lon="18.888608666515918"><ele>863.0</ele><time>2026-05-03T08:26:21Z</time></trkpt><trkpt lat="42.56509910636279" lon="18.888482183470725"><ele>863.0</ele><time>2026-05-03T08:26:22Z</time></trkpt><trkpt lat="42.56520261677038" lon="18.888355314811864"><ele>863.0</ele><time>2026-05-03T08:26:23Z</time></trkpt><trkpt lat="42.56531003740552" lon="18.888230207224616"><ele>867.0</ele><time>2026-05-03T08:26:24Z</time></trkpt><trkpt lat="42.56539881575199" lon="18.8881155281882"><ele>871.0</ele><time>2026-05-03T08:26:25Z</time></trkpt><trkpt lat="42.565474962493" lon="18.88800276843296"><ele>875.0</ele><time>2026-05-03T08:26:26Z</time></trkpt><trkpt lat="42.565541534987" lon="18.887884288449236"><ele>879.0</ele><time>2026-05-03T08:26:27Z</time></trkpt><trkpt lat="42.56559945456274" lon="18.887757467643365"><ele>879.0</ele><time>2026-05-03T08:26:28Z</time></trkpt><trkpt lat="42.565651681661485" lon="18.88763301519035"><ele>879.0</ele><time>2026-05-03T08:26:29Z</time></trkpt><trkpt lat="42.56570058040091" lon="18.887522542819593"><ele>879.0</ele><time>2026-05-03T08:26:30Z</time></trkpt><trkpt lat="42.56574353662353" lon="18.88742517787589"><ele>879.0</ele><time>2026-05-03T08:26:31Z</time></trkpt><trkpt lat="42.56578416581173" lon="18.88733688285122"><ele>879.0</ele><time>2026-05-03T08:26:32Z</time></trkpt><trkpt lat="42.565824255008934" lon="18.887243402749416"><ele>879.0</ele><time>2026-05-03T08:26:33Z</time></trkpt><trkpt lat="42.56586968369924" lon="18.887137796610318"><ele>878.8000000000001</ele><time>2026-05-03T08:26:34Z</time></trkpt><trkpt lat="42.565918041822904" lon="18.887020713449985"><ele>878.6000000000001</ele><time>2026-05-03T08:26:35Z</time></trkpt><trkpt lat="42.56597315921866" lon="18.88690796715944"><ele>878.4</ele><time>2026-05-03T08:26:36Z</time></trkpt><trkpt lat="42.56603791041787" lon="18.886797328655117"><ele>878.2</ele><time>2026-05-03T08:26:37Z</time></trkpt><trkpt lat="42.566096413846914" lon="18.88668999989826"><ele>878.0</ele><time>2026-05-03T08:26:38Z</time></trkpt><trkpt lat="42.566148316435545" lon="18.88658661228342"><ele>881.5999999999999</ele><time>2026-05-03T08:26:39Z</time></trkpt><trkpt lat="42.56619901159389" lon="18.886478064481782"><ele>885.1999999999999</ele><time>2026-05-03T08:26:40Z</time></trkpt><trkpt lat="42.566255100522795" lon="18.886359364329405"><ele>888.8</ele><time>2026-05-03T08:26:41Z</time></trkpt><trkpt lat="42.56630667535797" lon="18.88623938126247"><ele>892.4</ele><time>2026-05-03T08:26:42Z</time></trkpt><trkpt lat="42.56634118713766" lon="18.886102882452935"><ele>896.0</ele><time>2026-05-03T08:26:43Z</time></trkpt><trkpt lat="42.56636047071399" lon="18.885946138076395"><ele>894.5</ele><time>2026-05-03T08:26:44Z</time></trkpt><trkpt lat="42.56636867390847" lon="18.885777023748044"><ele>893.0</ele><time>2026-05-03T08:26:45Z</time></trkpt><trkpt lat="42.56636022255629" lon="18.885609677706316"><ele>891.5</ele><time>2026-05-03T08:26:46Z</time></trkpt><trkpt lat="42.566339466304605" lon="18.88544826804275"><ele>890.0</ele><time>2026-05-03T08:26:47Z</time></trkpt><trkpt lat="42.56632656737699" lon="18.885300735524673"><ele>890.0</ele><time>2026-05-03T08:26:48Z</time></trkpt><trkpt lat="42.56633771359942" lon="18.885164836530546"><ele>890.0</ele><time>2026-05-03T08:26:49Z</time></trkpt><trkpt lat="42.56636659555138" lon="18.885027878367833"><ele>890.0</ele><time>2026-05-03T08:26:50Z</time></trkpt><trkpt lat="42.56640691051944" lon="18.884899983507303"><ele>890.0</ele><time>2026-05-03T08:26:51Z</time></trkpt><trkpt lat="42.56644235402659" lon="18.884759459021865"><ele>890.0</ele><time>2026-05-03T08:26:52Z</time></trkpt><trkpt lat="42.56646595818016" lon="18.88461522425914"><ele>889.0</ele><time>2026-05-03T08:26:53Z</time></trkpt><trkpt lat="42.5664898694676" lon="18.88446658316689"><ele>888.0</ele><time>2026-05-03T08:26:54Z</time></trkpt><trkpt lat="42.56651835087978" lon="18.884310939325623"><ele>887.0</ele><time>2026-05-03T08:26:55Z</time></trkpt><trkpt lat="42.56654956508141" lon="18.884181465903243"><ele>886.0</ele><time>2026-05-03T08:26:56Z</time></trkpt><trkpt lat="42.566598801054994" lon="18.884082988857838"><ele>885.0</ele><time>2026-05-03T08:26:57Z</time></trkpt><trkpt lat="42.56666996568197" lon="18.884015859299602"><ele>883.8</ele><time>2026-05-03T08:26:58Z</time></trkpt><trkpt lat="42.566751605151275" lon="18.883945541644383"><ele>882.6</ele><time>2026-05-03T08:26:59Z</time></trkpt><trkpt lat="42.5668392469396" lon="18.883871609050498"><ele>881.4000000000001</ele><time>2026-05-03T08:27:00Z</time></trkpt><trkpt lat="42.56692513035675" lon="18.88378885197392"><ele>880.2</ele><time>2026-05-03T08:27:01Z</time></trkpt><trkpt lat="42.56700174875819" lon="18.883697506508533"><ele>879.0</ele><time>2026-05-03T08:27:02Z</time></trkpt><trkpt lat="42.56706091863041" lon="18.88360099839691"><ele>883.0</ele><time>2026-05-03T08:27:03Z</time></trkpt><trkpt lat="42.567110221231474" lon="18.883485801944108"><ele>887.0000000000001</ele><time>2026-05-03T08:27:04Z</time></trkpt><trkpt lat="42.567163402455826" lon="18.88335296453826"><ele>891.0000000000001</ele><time>2026-05-03T08:27:05Z</time></trkpt><trkpt lat="42.56721990194185" lon="18.883222424745775"><ele>895.0</ele><time>2026-05-03T08:27:06Z</time></trkpt><trkpt lat="42.5672672212214" lon="18.88311308798083"><ele>899.0</ele><time>2026-05-03T08:27:07Z</time></trkpt><trkpt lat="42.56729842137269" lon="18.883029766686633"><ele>899.0</ele><time>2026-05-03T08:27:08Z</time></trkpt><trkpt lat="42.56734594895698" lon="18.8828729697449"><ele>899.0000000000001</ele><time>2026-05-03T08:27:10Z</time></trkpt><trkpt lat="42.567366083533734" lon="18.882758317455192"><ele>899.0000000000001</ele><time>2026-05-03T08:27:11Z</time></trkpt><trkpt lat="42.56738842786322" lon="18.882630450728776"><ele>899.0</ele><time>2026-05-03T08:27:12Z</time></trkpt><trkpt lat="42.56741685332813" lon="18.882502549077206"><ele>899.0</ele><time>2026-05-03T08:27:13Z</time></trkpt><trkpt lat="42.56745250560238" lon="18.88236517891322"><ele>897.8000000000001</ele><time>2026-05-03T08:27:14Z</time></trkpt><trkpt lat="42.56749587610561" lon="18.8822383941176"><ele>896.6000000000001</ele><time>2026-05-03T08:27:15Z</time></trkpt><trkpt lat="42.567558025119865" lon="18.882134653856664"><ele>895.4</ele><time>2026-05-03T08:27:16Z</time></trkpt><trkpt lat="42.567638564422744" lon="18.882040578531065"><ele>894.2</ele><time>2026-05-03T08:27:17Z</time></trkpt><trkpt lat="42.56772661891405" lon="18.88194955885809"><ele>893.0</ele><time>2026-05-03T08:27:18Z</time></trkpt><trkpt lat="42.56781132935416" lon="18.881860437609244"><ele>895.0</ele><time>2026-05-03T08:27:19Z</time></trkpt><trkpt lat="42.56789438664852" lon="18.881771283914592"><ele>897.0</ele><time>2026-05-03T08:27:20Z</time></trkpt><trkpt lat="42.56797335396356" lon="18.88168525710999"><ele>899.0</ele><time>2026-05-03T08:27:21Z</time></trkpt><trkpt lat="42.568055235367396" lon="18.88160258967453"><ele>901.0</ele><time>2026-05-03T08:27:22Z</time></trkpt><trkpt lat="42.56814986364416" lon="18.881542008336222"><ele>903.0</ele><time>2026-05-03T08:27:23Z</time></trkpt><trkpt lat="42.568248501852224" lon="18.88147539841344"><ele>903.0</ele><time>2026-05-03T08:27:24Z</time></trkpt><trkpt lat="42.56833734834248" lon="18.881384234425234"><ele>903.0</ele><time>2026-05-03T08:27:25Z</time></trkpt><trkpt lat="42.56840283094699" lon="18.88126125179401"><ele>903.0</ele><time>2026-05-03T08:27:26Z</time></trkpt><trkpt lat="42.5684621543003" lon="18.881131392216187"><ele>903.0</ele><time>2026-05-03T08:27:27Z</time></trkpt><trkpt lat="42.56850836681949" lon="18.88099903645278"><ele>903.0</ele><time>2026-05-03T08:27:28Z</time></trkpt><trkpt lat="42.56851890594607" lon="18.8808451212513"><ele>901.75</ele><time>2026-05-03T08:27:29Z</time></trkpt><trkpt lat="42.568489444596864" lon="18.880688406622493"><ele>900.5</ele><time>2026-05-03T08:27:30Z</time></trkpt><trkpt lat="42.56843798327021" lon="18.880527616162045"><ele>899.25</ele><time>2026-05-03T08:27:31Z</time></trkpt><trkpt lat="42.56839001157863" lon="18.88035170864965"><ele>898.0</ele><time>2026-05-03T08:27:32Z</time></trkpt><trkpt lat="42.568360329582866" lon="18.880174677046938"><ele>898.25</ele><time>2026-05-03T08:27:33Z</time></trkpt><trkpt lat="42.56834296163557" lon="18.87999322367107"><ele>898.5</ele><time>2026-05-03T08:27:34Z</time></trkpt><trkpt lat="42.56833696176871" lon="18.87980489425761"><ele>898.75</ele><time>2026-05-03T08:27:35Z</time></trkpt><trkpt lat="42.56834895479638" lon="18.879611434381896"><ele>899.0</ele><time>2026-05-03T08:27:36Z</time></trkpt><trkpt lat="42.568373855357756" lon="18.87943615936741"><ele>899.0</ele><time>2026-05-03T08:27:37Z</time></trkpt><trkpt lat="42.56837239542393" lon="18.87927925673367"><ele>899.0000000000001</ele><time>2026-05-03T08:27:38Z</time></trkpt><trkpt lat="42.56832996276624" lon="18.879147187299903"><ele>899.0000000000001</ele><time>2026-05-03T08:27:39Z</time></trkpt><trkpt lat="42.56826577552208" lon="18.8790356738456"><ele>899.0</ele><time>2026-05-03T08:27:40Z</time></trkpt><trkpt lat="42.56817309438182" lon="18.878937680044313"><ele>899.0</ele><time>2026-05-03T08:27:41Z</time></trkpt><trkpt lat="42.56805794922557" lon="18.8788585405647"><ele>900.5</ele><time>2026-05-03T08:27:42Z</time></trkpt><trkpt lat="42.56793960342736" lon="18.87876768717489"><ele>902.0</ele><time>2026-05-03T08:27:43Z</time></trkpt><trkpt lat="42.56782028479454" lon="18.878660190187947"><ele>903.5</ele><time>2026-05-03T08:27:44Z</time></trkpt><trkpt lat="42.56770003730449" lon="18.878541035035745"><ele>905.0</ele><time>2026-05-03T08:27:45Z</time></trkpt><trkpt lat="42.56757061104516" lon="18.878420616252654"><ele>905.0</ele><time>2026-05-03T08:27:46Z</time></trkpt><trkpt lat="42.5674397517599" lon="18.87829716063289"><ele>905.0</ele><time>2026-05-03T08:27:47Z</time></trkpt><trkpt lat="42.567318002520075" lon="18.878175112619086"><ele>905.0</ele><time>2026-05-03T08:27:48Z</time></trkpt><trkpt lat="42.56721730816502" lon="18.87804800560411"><ele>905.0</ele><time>2026-05-03T08:27:49Z</time></trkpt><trkpt lat="42.56714142323005" lon="18.877904688834157"><ele>905.0</ele><time>2026-05-03T08:27:50Z</time></trkpt><trkpt lat="42.56708605025645" lon="18.87776535551941"><ele>905.0</ele><time>2026-05-03T08:27:51Z</time></trkpt><trkpt lat="42.567049512170975" lon="18.87762687608265"><ele>905.0</ele><time>2026-05-03T08:27:52Z</time></trkpt><trkpt lat="42.56703176584158" lon="18.87748418069086"><ele>905.0</ele><time>2026-05-03T08:27:53Z</time></trkpt><trkpt lat="42.56703821685776" lon="18.8773238914786"><ele>907.25</ele><time>2026-05-03T08:27:54Z</time></trkpt><trkpt lat="42.567060450371585" lon="18.87715137744281"><ele>909.5</ele><time>2026-05-03T08:27:55Z</time></trkpt><trkpt lat="42.56708288968772" lon="18.87697735773946"><ele>911.75</ele><time>2026-05-03T08:27:56Z</time></trkpt><trkpt lat="42.56710324057846" lon="18.876818785901765"><ele>914.0</ele><time>2026-05-03T08:27:57Z</time></trkpt><trkpt lat="42.56712483560313" lon="18.87667401198558"><ele>914.0</ele><time>2026-05-03T08:27:58Z</time></trkpt><trkpt lat="42.56714952554285" lon="18.876547523038056"><ele>914.0000000000001</ele><time>2026-05-03T08:27:59Z</time></trkpt><trkpt lat="42.56718272093868" lon="18.876419416829236"><ele>914.0000000000001</ele><time>2026-05-03T08:28:00Z</time></trkpt><trkpt lat="42.56722097115964" lon="18.876294772451224"><ele>914.0</ele><time>2026-05-03T08:28:01Z</time></trkpt><trkpt lat="42.567258449934" lon="18.876172876279245"><ele>914.0</ele><time>2026-05-03T08:28:02Z</time></trkpt><trkpt lat="42.56729655292286" lon="18.876050059351154"><ele>912.8000000000001</ele><time>2026-05-03T08:28:03Z</time></trkpt><trkpt lat="42.56734075382245" lon="18.875923408677558"><ele>911.6000000000001</ele><time>2026-05-03T08:28:04Z</time></trkpt><trkpt lat="42.567389878693795" lon="18.875801918107623"><ele>910.4</ele><time>2026-05-03T08:28:05Z</time></trkpt><trkpt lat="42.567436999041405" lon="18.87567433820891"><ele>909.2</ele><time>2026-05-03T08:28:06Z</time></trkpt><trkpt lat="42.56748886942407" lon="18.8755395101829"><ele>908.0</ele><time>2026-05-03T08:28:07Z</time></trkpt><trkpt lat="42.567549882393145" lon="18.875417998226276"><ele>908.0</ele><time>2026-05-03T08:28:08Z</time></trkpt><trkpt lat="42.567631974050514" lon="18.87533451249147"><ele>908.0</ele><time>2026-05-03T08:28:09Z</time></trkpt><trkpt lat="42.5677372685091" lon="18.875284023787284"><ele>908.0</ele><time>2026-05-03T08:28:10Z</time></trkpt><trkpt lat="42.56784537412629" lon="18.875245940798482"><ele>908.0</ele><time>2026-05-03T08:28:11Z</time></trkpt><trkpt lat="42.567960646614615" lon="18.87518826091194"><ele>908.0</ele><time>2026-05-03T08:28:12Z</time></trkpt><trkpt lat="42.56807486314158" lon="18.875120184697593"><ele>909.0</ele><time>2026-05-03T08:28:13Z</time></trkpt><trkpt lat="42.56818842070361" lon="18.87505304235506"><ele>910.0</ele><time>2026-05-03T08:28:14Z</time></trkpt><trkpt lat="42.56829849119523" lon="18.87499143469519"><ele>911.0</ele><time>2026-05-03T08:28:15Z</time></trkpt><trkpt lat="42.5683932960026" lon="18.874934532665453"><ele>912.0</ele><time>2026-05-03T08:28:16Z</time></trkpt><trkpt lat="42.568475972299694" lon="18.87487454583881"><ele>913.0</ele><time>2026-05-03T08:28:17Z</time></trkpt><trkpt lat="42.568555272300664" lon="18.874812987652778"><ele>912.9999999999999</ele><time>2026-05-03T08:28:18Z</time></trkpt><trkpt lat="42.56863335790242" lon="18.87475421407416"><ele>913.0</ele><time>2026-05-03T08:28:19Z</time></trkpt><trkpt lat="42.5687169786607" lon="18.874692233407032"><ele>913.0</ele><time>2026-05-03T08:28:20Z</time></trkpt><trkpt lat="42.568794141579986" lon="18.87462688641402"><ele>913.0</ele><time>2026-05-03T08:28:21Z</time></trkpt><trkpt lat="42.56886208378708" lon="18.87456727846626"><ele>912.9999999999999</ele><time>2026-05-03T08:28:22Z</time></trkpt><trkpt lat="42.56892816670789" lon="18.87452499414062"><ele>913.0</ele><time>2026-05-03T08:28:23Z</time></trkpt><trkpt lat="42.56899286653922" lon="18.87447901636655"><ele>912.9999999999999</ele><time>2026-05-03T08:28:24Z</time></trkpt><trkpt lat="42.56904830193776" lon="18.874429572799713"><ele>913.0</ele><time>2026-05-03T08:28:25Z</time></trkpt><trkpt lat="42.569100717311535" lon="18.87437925555859"><ele>912.9999999999999</ele><time>2026-05-03T08:28:26Z</time></trkpt><trkpt lat="42.569158592547936" lon="18.874332032907752"><ele>912.9999999999999</ele><time>2026-05-03T08:28:27Z</time></trkpt><trkpt lat="42.569215102186924" lon="18.87428249251627"><ele>913.0</ele><time>2026-05-03T08:28:28Z</time></trkpt><trkpt lat="42.56927182540834" lon="18.87423401886604"><ele>912.9999999999999</ele><time>2026-05-03T08:28:29Z</time></trkpt><trkpt lat="42.56932681008681" lon="18.874171061395078"><ele>912.9999999999999</ele><time>2026-05-03T08:28:30Z</time></trkpt><trkpt lat="42.56937520191977" lon="18.874089969753726"><ele>912.9999999999999</ele><time>2026-05-03T08:28:31Z</time></trkpt><trkpt lat="42.5694111199569" lon="18.873996598766524"><ele>913.0</ele><time>2026-05-03T08:28:32Z</time></trkpt><trkpt lat="42.56944676310545" lon="18.87389453274287"><ele>913.0</ele><time>2026-05-03T08:28:33Z</time></trkpt><trkpt lat="42.56948358942496" lon="18.873794080189157"><ele>913.0</ele><time>2026-05-03T08:28:34Z</time></trkpt><trkpt lat="42.56952254498275" lon="18.873685410723372"><ele>912.9999999999999</ele><time>2026-05-03T08:28:35Z</time></trkpt><trkpt lat="42.569558345740475" lon="18.873586267191325"><ele>913.0</ele><time>2026-05-03T08:28:36Z</time></trkpt><trkpt lat="42.56960719691244" lon="18.873486410015268"><ele>911.0</ele><time>2026-05-03T08:28:37Z</time></trkpt><trkpt lat="42.56967624392463" lon="18.87340987294558"><ele>909.0</ele><time>2026-05-03T08:28:38Z</time></trkpt><trkpt lat="42.569760523496754" lon="18.873353687516612"><ele>907.0</ele><time>2026-05-03T08:28:39Z</time></trkpt><trkpt lat="42.5698519208805" lon="18.87329658825896"><ele>905.0</ele><time>2026-05-03T08:28:40Z</time></trkpt><trkpt lat="42.56994792021374" lon="18.873252027056598"><ele>903.0</ele><time>2026-05-03T08:28:41Z</time></trkpt><trkpt lat="42.57004787505786" lon="18.873209870793712"><ele>903.0</ele><time>2026-05-03T08:28:42Z</time></trkpt><trkpt lat="42.57014703756739" lon="18.873169631219763"><ele>903.0</ele><time>2026-05-03T08:28:43Z</time></trkpt><trkpt lat="42.570247520694416" lon="18.873122957738595"><ele>903.0</ele><time>2026-05-03T08:28:44Z</time></trkpt><trkpt lat="42.57035337060368" lon="18.873068997930492"><ele>903.0</ele><time>2026-05-03T08:28:45Z</time></trkpt><trkpt lat="42.57046711051828" lon="18.87301395995894"><ele>903.0</ele><time>2026-05-03T08:28:46Z</time></trkpt><trkpt lat="42.570575388447715" lon="18.872968368932703"><ele>901.2</ele><time>2026-05-03T08:28:47Z</time></trkpt><trkpt lat="42.57067346722926" lon="18.872932664427335"><ele>899.4</ele><time>2026-05-03T08:28:48Z</time></trkpt><trkpt lat="42.5707684244526" lon="18.872896771071886"><ele>897.6000000000001</ele><time>2026-05-03T08:28:49Z</time></trkpt><trkpt lat="42.57086089797282" lon="18.872857987720135"><ele>895.8000000000001</ele><time>2026-05-03T08:28:50Z</time></trkpt><trkpt lat="42.570959163467975" lon="18.872831215828306"><ele>894.0</ele><time>2026-05-03T08:28:51Z</time></trkpt><trkpt lat="42.57105653228659" lon="18.872839836959542"><ele>894.0</ele><time>2026-05-03T08:28:52Z</time></trkpt><trkpt lat="42.57115342666277" lon="18.87288015804166"><ele>894.0000000000001</ele><time>2026-05-03T08:28:53Z</time></trkpt><trkpt lat="42.57123758167185" lon="18.872946394130135"><ele>894.0000000000001</ele><time>2026-05-03T08:28:54Z</time></trkpt><trkpt lat="42.571323132124185" lon="18.873029186649127"><ele>894.0</ele><time>2026-05-03T08:28:55Z</time></trkpt><trkpt lat="42.57140518388338" lon="18.873114009216582"><ele>894.0</ele><time>2026-05-03T08:28:56Z</time></trkpt><trkpt lat="42.57148486967635" lon="18.873192074519174"><ele>894.8000000000001</ele><time>2026-05-03T08:28:57Z</time></trkpt><trkpt lat="42.57156263396292" lon="18.87326579733581"><ele>895.6000000000001</ele><time>2026-05-03T08:28:58Z</time></trkpt><trkpt lat="42.571645918760424" lon="18.87333472807866"><ele>896.4</ele><time>2026-05-03T08:28:59Z</time></trkpt><trkpt lat="42.571731655161024" lon="18.87338996306045"><ele>897.2</ele><time>2026-05-03T08:29:00Z</time></trkpt><trkpt lat="42.57181547159436" lon="18.87343576352531"><ele>898.0</ele><time>2026-05-03T08:29:01Z</time></trkpt><trkpt lat="42.57190414897828" lon="18.873472881257744"><ele>897.9999999999999</ele><time>2026-05-03T08:29:02Z</time></trkpt><trkpt lat="42.571985586972794" lon="18.8734896241297"><ele>898.0</ele><time>2026-05-03T08:29:03Z</time></trkpt><trkpt lat="42.57206190868477" lon="18.87349823620111"><ele>898.0</ele><time>2026-05-03T08:29:04Z</time></trkpt><trkpt lat="42.57214851947113" lon="18.87349929902821"><ele>898.0</ele><time>2026-05-03T08:29:05Z</time></trkpt><trkpt lat="42.57224278863548" lon="18.873477846648278"><ele>897.9999999999999</ele><time>2026-05-03T08:29:06Z</time></trkpt><trkpt lat="42.572340568031265" lon="18.873442473538088"><ele>898.0</ele><time>2026-05-03T08:29:07Z</time></trkpt><trkpt lat="42.57245018856075" lon="18.87339967404444"><ele>898.0</ele><time>2026-05-03T08:29:08Z</time></trkpt><trkpt lat="42.57256495693414" lon="18.873346152958934"><ele>898.0</ele><time>2026-05-03T08:29:09Z</time></trkpt><trkpt lat="42.57268147703228" lon="18.873278678027702"><ele>898.0</ele><time>2026-05-03T08:29:10Z</time></trkpt><trkpt lat="42.57279832386843" lon="18.873198872270727"><ele>898.0</ele><time>2026-05-03T08:29:11Z</time></trkpt><trkpt lat="42.57291673487554" lon="18.8731213346631"><ele>896.0</ele><time>2026-05-03T08:29:12Z</time></trkpt><trkpt lat="42.573039697408475" lon="18.87304161060908"><ele>894.0</ele><time>2026-05-03T08:29:13Z</time></trkpt><trkpt lat="42.573167954498665" lon="18.872958302310867"><ele>892.0</ele><time>2026-05-03T08:29:14Z</time></trkpt><trkpt lat="42.573290347845834" lon="18.8728767404022"><ele>890.0</ele><time>2026-05-03T08:29:15Z</time></trkpt><trkpt lat="42.57340465108589" lon="18.87279734656717"><ele>890.0</ele><time>2026-05-03T08:29:16Z</time></trkpt><trkpt lat="42.57350576257767" lon="18.872725215943472"><ele>890.0</ele><time>2026-05-03T08:29:17Z</time></trkpt><trkpt lat="42.57359457672637" lon="18.872661669913846"><ele>890.0</ele><time>2026-05-03T08:29:18Z</time></trkpt><trkpt lat="42.57367518614348" lon="18.872628007088586"><ele>890.0</ele><time>2026-05-03T08:29:19Z</time></trkpt><trkpt lat="42.57375727444885" lon="18.872642994774637"><ele>890.0</ele><time>2026-05-03T08:29:20Z</time></trkpt><trkpt lat="42.57383744633083" lon="18.87269329339452"><ele>889.8</ele><time>2026-05-03T08:29:21Z</time></trkpt><trkpt lat="42.57391512020546" lon="18.87275619553589"><ele>889.6</ele><time>2026-05-03T08:29:22Z</time></trkpt><trkpt lat="42.5739936961893" lon="18.87278901190804"><ele>889.4000000000001</ele><time>2026-05-03T08:29:23Z</time></trkpt><trkpt lat="42.5740819007432" lon="18.872802559034096"><ele>889.2</ele><time>2026-05-03T08:29:24Z</time></trkpt><trkpt lat="42.574178694891195" lon="18.872798480452524"><ele>889.0</ele><time>2026-05-03T08:29:25Z</time></trkpt><trkpt lat="42.574286351271084" lon="18.87275343509569"><ele>889.0</ele><time>2026-05-03T08:29:26Z</time></trkpt><trkpt lat="42.57439647844137" lon="18.872678718238376"><ele>889.0</ele><time>2026-05-03T08:29:27Z</time></trkpt><trkpt lat="42.57451764762702" lon="18.87259841718959"><ele>889.0</ele><time>2026-05-03T08:29:28Z</time></trkpt><trkpt lat="42.574644335510435" lon="18.872514911991313"><ele>889.0</ele><time>2026-05-03T08:29:29Z</time></trkpt><trkpt lat="42.574777706801584" lon="18.87243023222663"><ele>889.0</ele><time>2026-05-03T08:29:30Z</time></trkpt><trkpt lat="42.574912356335204" lon="18.872349492285146"><ele>889.0</ele><time>2026-05-03T08:29:31Z</time></trkpt><trkpt lat="42.57504704631971" lon="18.872269075622963"><ele>889.0</ele><time>2026-05-03T08:29:32Z</time></trkpt><trkpt lat="42.57518101698888" lon="18.87218204282784"><ele>889.0</ele><time>2026-05-03T08:29:33Z</time></trkpt><trkpt lat="42.57531502395998" lon="18.8720919003122"><ele>888.75</ele><time>2026-05-03T08:29:34Z</time></trkpt><trkpt lat="42.575447626309504" lon="18.87199595032726"><ele>888.5</ele><time>2026-05-03T08:29:35Z</time></trkpt><trkpt lat="42.57556804076791" lon="18.87190243345313"><ele>888.25</ele><time>2026-05-03T08:29:36Z</time></trkpt><trkpt lat="42.575692431079865" lon="18.871805869287037"><ele>888.0</ele><time>2026-05-03T08:29:37Z</time></trkpt><trkpt lat="42.575816605670646" lon="18.871717379634067"><ele>888.0</ele><time>2026-05-03T08:29:38Z</time></trkpt><trkpt lat="42.5759326528905" lon="18.87164679711941"><ele>888.0</ele><time>2026-05-03T08:29:39Z</time></trkpt><trkpt lat="42.57604488461634" lon="18.871587771621964"><ele>888.0</ele><time>2026-05-03T08:29:40Z</time></trkpt><trkpt lat="42.5761633340258" lon="18.871539586107954"><ele>888.0</ele><time>2026-05-03T08:29:41Z</time></trkpt><trkpt lat="42.576286791836004" lon="18.871514446718432"><ele>887.5</ele><time>2026-05-03T08:29:42Z</time></trkpt><trkpt lat="42.576412504882136" lon="18.87152388440271"><ele>887.0</ele><time>2026-05-03T08:29:43Z</time></trkpt><trkpt lat="42.57654348019255" lon="18.871539816435796"><ele>886.5</ele><time>2026-05-03T08:29:44Z</time></trkpt><trkpt lat="42.57666974056641" lon="18.87154458729004"><ele>886.0</ele><time>2026-05-03T08:29:45Z</time></trkpt><trkpt lat="42.57679207679216" lon="18.871526032739087"><ele>886.0</ele><time>2026-05-03T08:29:46Z</time></trkpt><trkpt lat="42.57691431504932" lon="18.871479635265864"><ele>886.0</ele><time>2026-05-03T08:29:47Z</time></trkpt><trkpt lat="42.577037529612305" lon="18.87141303357958"><ele>886.0</ele><time>2026-05-03T08:29:48Z</time></trkpt><trkpt lat="42.577153369174994" lon="18.871329468372274"><ele>886.0</ele><time>2026-05-03T08:29:49Z</time></trkpt><trkpt lat="42.57725644010095" lon="18.87126172589542"><ele>886.25</ele><time>2026-05-03T08:29:50Z</time></trkpt><trkpt lat="42.577369147192016" lon="18.871231903780952"><ele>886.5</ele><time>2026-05-03T08:29:51Z</time></trkpt><trkpt lat="42.577491913467775" lon="18.871242608225987"><ele>886.75</ele><time>2026-05-03T08:29:52Z</time></trkpt><trkpt lat="42.577620485836945" lon="18.871273537794497"><ele>887.0</ele><time>2026-05-03T08:29:53Z</time></trkpt><trkpt lat="42.577749660438755" lon="18.871303035647397"><ele>886.75</ele><time>2026-05-03T08:29:54Z</time></trkpt><trkpt lat="42.57787770335421" lon="18.8713204483654"><ele>886.5</ele><time>2026-05-03T08:29:55Z</time></trkpt><trkpt lat="42.57800246970513" lon="18.87132436969426"><ele>886.25</ele><time>2026-05-03T08:29:56Z</time></trkpt><trkpt lat="42.578122002056354" lon="18.871332222814964"><ele>886.0</ele><time>2026-05-03T08:29:57Z</time></trkpt><trkpt lat="42.57824793390339" lon="18.871363043463"><ele>886.0</ele><time>2026-05-03T08:29:58Z</time></trkpt><trkpt lat="42.57838629363965" lon="18.871413691531135"><ele>886.0</ele><time>2026-05-03T08:29:59Z</time></trkpt><trkpt lat="42.57851966244647" lon="18.87147268021382"><ele>886.0</ele><time>2026-05-03T08:30:00Z</time></trkpt><trkpt lat="42.57865307518996" lon="18.871515281584216"><ele>886.0</ele><time>2026-05-03T08:30:01Z</time></trkpt><trkpt lat="42.57879012458729" lon="18.871515910447542"><ele>887.0</ele><time>2026-05-03T08:30:02Z</time></trkpt><trkpt lat="42.57892995861505" lon="18.871489444073923"><ele>888.0</ele><time>2026-05-03T08:30:03Z</time></trkpt><trkpt lat="42.57905501117269" lon="18.871452331167628"><ele>889.0</ele><time>2026-05-03T08:30:04Z</time></trkpt><trkpt lat="42.57917428194439" lon="18.87140653965626"><ele>890.0</ele><time>2026-05-03T08:30:05Z</time></trkpt><trkpt lat="42.5792845013979" lon="18.871370477133333"><ele>890.0</ele><time>2026-05-03T08:30:06Z</time></trkpt><trkpt lat="42.57938648115844" lon="18.871321709964583"><ele>890.0</ele><time>2026-05-03T08:30:07Z</time></trkpt><trkpt lat="42.579477998310246" lon="18.871252434981546"><ele>890.0</ele><time>2026-05-03T08:30:08Z</time></trkpt><trkpt lat="42.579566711974195" lon="18.871171368451996"><ele>890.0</ele><time>2026-05-03T08:30:09Z</time></trkpt><trkpt lat="42.579653456531645" lon="18.871093334584312"><ele>890.0</ele><time>2026-05-03T08:30:10Z</time></trkpt><trkpt lat="42.57974597140617" lon="18.871039023819847"><ele>892.5</ele><time>2026-05-03T08:30:11Z</time></trkpt><trkpt lat="42.57985266991917" lon="18.87100460573575"><ele>895.0</ele><time>2026-05-03T08:30:12Z</time></trkpt><trkpt lat="42.579973293346605" lon="18.87100581763958"><ele>897.5</ele><time>2026-05-03T08:30:13Z</time></trkpt><trkpt lat="42.580103299442214" lon="18.871016441063645"><ele>900.0</ele><time>2026-05-03T08:30:14Z</time></trkpt><trkpt lat="42.58023995091974" lon="18.87100387896935"><ele>901.25</ele><time>2026-05-03T08:30:15Z</time></trkpt><trkpt lat="42.580379148057354" lon="18.870953692590465"><ele>902.5</ele><time>2026-05-03T08:30:16Z</time></trkpt><trkpt lat="42.58050853804827" lon="18.870861295488663"><ele>903.75</ele><time>2026-05-03T08:30:17Z</time></trkpt><trkpt lat="42.58062444134492" lon="18.870735654877414"><ele>905.0</ele><time>2026-05-03T08:30:18Z</time></trkpt><trkpt lat="42.58072473264028" lon="18.870591798122504"><ele>899.25</ele><time>2026-05-03T08:30:19Z</time></trkpt><trkpt lat="42.58082215610696" lon="18.8704504119262"><ele>893.5</ele><time>2026-05-03T08:30:20Z</time></trkpt><trkpt lat="42.580925464219575" lon="18.870334182166154"><ele>887.75</ele><time>2026-05-03T08:30:21Z</time></trkpt><trkpt lat="42.581049310903445" lon="18.870237822044817"><ele>882.0</ele><time>2026-05-03T08:30:22Z</time></trkpt><trkpt lat="42.581175405549736" lon="18.870160492421334"><ele>878.5</ele><time>2026-05-03T08:30:23Z</time></trkpt><trkpt lat="42.58130274499423" lon="18.87008862762492"><ele>875.0</ele><time>2026-05-03T08:30:24Z</time></trkpt><trkpt lat="42.58142951143461" lon="18.87001196742469"><ele>871.5</ele><time>2026-05-03T08:30:25Z</time></trkpt><trkpt lat="42.581563216117864" lon="18.86995165006758"><ele>868.0</ele><time>2026-05-03T08:30:26Z</time></trkpt><trkpt lat="42.58169943863974" lon="18.869935142267117"><ele>868.0</ele><time>2026-05-03T08:30:27Z</time></trkpt><trkpt lat="42.58183564004301" lon="18.869948360623695"><ele>868.0</ele><time>2026-05-03T08:30:28Z</time></trkpt><trkpt lat="42.58196627334822" lon="18.869964484962676"><ele>868.0</ele><time>2026-05-03T08:30:29Z</time></trkpt><trkpt lat="42.5820724600845" lon="18.869965779294976"><ele>868.0</ele><time>2026-05-03T08:30:30Z</time></trkpt><trkpt lat="42.58216169733224" lon="18.86994171232642"><ele>866.5999999999999</ele><time>2026-05-03T08:30:31Z</time></trkpt><trkpt lat="42.58224890610043" lon="18.8698839934565"><ele>865.1999999999999</ele><time>2026-05-03T08:30:32Z</time></trkpt><trkpt lat="42.58233862430402" lon="18.869789628783895"><ele>863.8</ele><time>2026-05-03T08:30:33Z</time></trkpt><trkpt lat="42.58242965002811" lon="18.869692160770057"><ele>862.4</ele><time>2026-05-03T08:30:34Z</time></trkpt><trkpt lat="42.58253562847637" lon="18.869607948256256"><ele>861.0</ele><time>2026-05-03T08:30:35Z</time></trkpt><trkpt lat="42.582633345351546" lon="18.869525484204246"><ele>861.0</ele><time>2026-05-03T08:30:36Z</time></trkpt><trkpt lat="42.58271115812623" lon="18.869404971851775"><ele>861.0</ele><time>2026-05-03T08:30:37Z</time></trkpt><trkpt lat="42.582771925562675" lon="18.869261893342227"><ele>861.0</ele><time>2026-05-03T08:30:38Z</time></trkpt><trkpt lat="42.582828214838145" lon="18.869123712001276"><ele>861.0</ele><time>2026-05-03T08:30:39Z</time></trkpt><trkpt lat="42.582892395610266" lon="18.868995363190162"><ele>859.75</ele><time>2026-05-03T08:30:40Z</time></trkpt><trkpt lat="42.58297165567698" lon="18.8688624657118"><ele>858.5</ele><time>2026-05-03T08:30:41Z</time></trkpt><trkpt lat="42.58305980809949" lon="18.86874619145195"><ele>857.25</ele><time>2026-05-03T08:30:42Z</time></trkpt><trkpt lat="42.58314947138197" lon="18.86863508775374"><ele>856.0</ele><time>2026-05-03T08:30:43Z</time></trkpt><trkpt lat="42.58324058208171" lon="18.86851787890521"><ele>856.25</ele><time>2026-05-03T08:30:44Z</time></trkpt><trkpt lat="42.5833500269222" lon="18.86842007344769"><ele>856.5</ele><time>2026-05-03T08:30:45Z</time></trkpt><trkpt lat="42.58347305588757" lon="18.86835827665652"><ele>856.75</ele><time>2026-05-03T08:30:46Z</time></trkpt><trkpt lat="42.58359470104547" lon="18.868326196782608"><ele>857.0</ele><time>2026-05-03T08:30:47Z</time></trkpt><trkpt lat="42.58370996145792" lon="18.868293938820468"><ele>857.0</ele><time>2026-05-03T08:30:48Z</time></trkpt><trkpt lat="42.58380778073368" lon="18.868231716005994"><ele>857.0</ele><time>2026-05-03T08:30:49Z</time></trkpt><trkpt lat="42.58388874653448" lon="18.868141681608652"><ele>857.0</ele><time>2026-05-03T08:30:50Z</time></trkpt><trkpt lat="42.58396011215802" lon="18.86804340265799"><ele>857.0</ele><time>2026-05-03T08:30:51Z</time></trkpt><trkpt lat="42.58404369617872" lon="18.867938230684658"><ele>857.0</ele><time>2026-05-03T08:30:52Z</time></trkpt><trkpt lat="42.58414251576786" lon="18.867843782441472"><ele>857.0</ele><time>2026-05-03T08:30:53Z</time></trkpt><trkpt lat="42.5842488469406" lon="18.86777614189291"><ele>857.0</ele><time>2026-05-03T08:30:54Z</time></trkpt><trkpt lat="42.58435683739793" lon="18.867749443054112"><ele>857.0</ele><time>2026-05-03T08:30:55Z</time></trkpt><trkpt lat="42.58445834906129" lon="18.86775577661869"><ele>857.0</ele><time>2026-05-03T08:30:56Z</time></trkpt><trkpt lat="42.584550312517536" lon="18.86779239186432"><ele>857.0</ele><time>2026-05-03T08:30:57Z</time></trkpt><trkpt lat="42.58462510289519" lon="18.867853170811195"><ele>857.0000000000001</ele><time>2026-05-03T08:30:58Z</time></trkpt><trkpt lat="42.58469374244406" lon="18.86791685887638"><ele>857.0</ele><time>2026-05-03T08:30:59Z</time></trkpt><trkpt lat="42.58475658532343" lon="18.867955551458053"><ele>857.0</ele><time>2026-05-03T08:31:00Z</time></trkpt><trkpt lat="42.58483183092169" lon="18.867985518409164"><ele>857.0</ele><time>2026-05-03T08:31:01Z</time></trkpt><trkpt lat="42.584925342674836" lon="18.868001631228303"><ele>857.0000000000001</ele><time>2026-05-03T08:31:02Z</time></trkpt><trkpt lat="42.58504200453188" lon="18.86802035668428"><ele>857.0</ele><time>2026-05-03T08:31:03Z</time></trkpt><trkpt lat="42.58518398158839" lon="18.868054216771313"><ele>857.0</ele><time>2026-05-03T08:31:04Z</time></trkpt><trkpt lat="42.58532586521978" lon="18.868091196956644"><ele>857.0</ele><time>2026-05-03T08:31:05Z</time></trkpt><trkpt lat="42.58545403628038" lon="18.86812320973013"><ele>857.0</ele><time>2026-05-03T08:31:06Z</time></trkpt><trkpt lat="42.58559029116315" lon="18.8681318393584"><ele>857.0</ele><time>2026-05-03T08:31:07Z</time></trkpt><trkpt lat="42.58573654739936" lon="18.868124217569317"><ele>858.25</ele><time>2026-05-03T08:31:08Z</time></trkpt><trkpt lat="42.585875146222236" lon="18.868115917878598"><ele>859.5</ele><time>2026-05-03T08:31:09Z</time></trkpt><trkpt lat="42.58601271240272" lon="18.868110450724092"><ele>860.75</ele><time>2026-05-03T08:31:10Z</time></trkpt><trkpt lat="42.58613896909021" lon="18.868086655019162"><ele>862.0</ele><time>2026-05-03T08:31:11Z</time></trkpt><trkpt lat="42.58624909433089" lon="18.868045518329858"><ele>862.2</ele><time>2026-05-03T08:31:12Z</time></trkpt><trkpt lat="42.58634949601296" lon="18.868027991717202"><ele>862.4000000000001</ele><time>2026-05-03T08:31:13Z</time></trkpt><trkpt lat="42.58644449923001" lon="18.86804311404229"><ele>862.5999999999999</ele><time>2026-05-03T08:31:14Z</time></trkpt><trkpt lat="42.58653794512433" lon="18.868089488041235"><ele>862.8</ele><time>2026-05-03T08:31:15Z</time></trkpt><trkpt lat="42.58662823916729" lon="18.86815129625316"><ele>863.0</ele><time>2026-05-03T08:31:16Z</time></trkpt><trkpt lat="42.58672222276903" lon="18.868206384735206"><ele>863.0</ele><time>2026-05-03T08:31:17Z</time></trkpt><trkpt lat="42.58681713029674" lon="18.868259079821144"><ele>863.0</ele><time>2026-05-03T08:31:18Z</time></trkpt><trkpt lat="42.58690755563355" lon="18.868314655875817"><ele>863.0</ele><time>2026-05-03T08:31:19Z</time></trkpt><trkpt lat="42.58700575200758" lon="18.86836653991996"><ele>863.0</ele><time>2026-05-03T08:31:20Z</time></trkpt><trkpt lat="42.587111796996226" lon="18.868406547722365"><ele>863.0</ele><time>2026-05-03T08:31:21Z</time></trkpt><trkpt lat="42.587233135364606" lon="18.868414320820992"><ele>863.25</ele><time>2026-05-03T08:31:22Z</time></trkpt><trkpt lat="42.58735979133955" lon="18.868394752473694"><ele>863.5</ele><time>2026-05-03T08:31:23Z</time></trkpt><trkpt lat="42.58748681388499" lon="18.86836022465084"><ele>863.75</ele><time>2026-05-03T08:31:24Z</time></trkpt><trkpt lat="42.58761376068317" lon="18.86832337564792"><ele>864.0</ele><time>2026-05-03T08:31:25Z</time></trkpt><trkpt lat="42.58774118723756" lon="18.868291961845674"><ele>866.0</ele><time>2026-05-03T08:31:26Z</time></trkpt><trkpt lat="42.587873699178516" lon="18.86826411431371"><ele>868.0</ele><time>2026-05-03T08:31:27Z</time></trkpt><trkpt lat="42.5880061883169" lon="18.86822321975338"><ele>870.0</ele><time>2026-05-03T08:31:28Z</time></trkpt><trkpt lat="42.588148980431406" lon="18.868178312391024"><ele>872.0</ele><time>2026-05-03T08:31:29Z</time></trkpt><trkpt lat="42.58829664612225" lon="18.868130324113565"><ele>872.0</ele><time>2026-05-03T08:31:30Z</time></trkpt><trkpt lat="42.588453086787936" lon="18.868078762388127"><ele>872.0</ele><time>2026-05-03T08:31:31Z</time></trkpt><trkpt lat="42.588613624402605" lon="18.86802306391427"><ele>872.0</ele><time>2026-05-03T08:31:32Z</time></trkpt><trkpt lat="42.58876119918515" lon="18.867961211077933"><ele>874.3333333333334</ele><time>2026-05-03T08:31:33Z</time></trkpt><trkpt lat="42.588906198223164" lon="18.86788768594887"><ele>876.6666666666667</ele><time>2026-05-03T08:31:34Z</time></trkpt><trkpt lat="42.5890592143536" lon="18.86782087925487"><ele>879.0</ele><time>2026-05-03T08:31:35Z</time></trkpt><trkpt lat="42.58922276416887" lon="18.86777608105513"><ele>879.0</ele><time>2026-05-03T08:31:36Z</time></trkpt><trkpt lat="42.58938030178441" lon="18.867737180859915"><ele>879.0</ele><time>2026-05-03T08:31:37Z</time></trkpt><trkpt lat="42.58952471026675" lon="18.867693947161328"><ele>879.0</ele><time>2026-05-03T08:31:38Z</time></trkpt><trkpt lat="42.589653526099795" lon="18.867639310820064"><ele>879.0</ele><time>2026-05-03T08:31:39Z</time></trkpt><trkpt lat="42.58978343082397" lon="18.8675811474001"><ele>876.8000000000001</ele><time>2026-05-03T08:31:40Z</time></trkpt><trkpt lat="42.589895581462784" lon="18.867531866565532"><ele>874.6000000000001</ele><time>2026-05-03T08:31:41Z</time></trkpt><trkpt lat="42.58998626813744" lon="18.86749486014831"><ele>872.4</ele><time>2026-05-03T08:31:42Z</time></trkpt><trkpt lat="42.590063098412095" lon="18.867461405001396"><ele>870.2</ele><time>2026-05-03T08:31:43Z</time></trkpt><trkpt lat="42.59013926104578" lon="18.867419424262238"><ele>868.0</ele><time>2026-05-03T08:31:44Z</time></trkpt><trkpt lat="42.59022362076261" lon="18.867373669227618"><ele>868.0</ele><time>2026-05-03T08:31:45Z</time></trkpt><trkpt lat="42.59033664743029" lon="18.867334376619585"><ele>868.0</ele><time>2026-05-03T08:31:46Z</time></trkpt><trkpt lat="42.590446862922185" lon="18.867299132997996"><ele>868.0</ele><time>2026-05-03T08:31:47Z</time></trkpt><trkpt lat="42.59055754757057" lon="18.867256984847177"><ele>868.0</ele><time>2026-05-03T08:31:48Z</time></trkpt><trkpt lat="42.59065133324452" lon="18.867224121160945"><ele>868.0</ele><time>2026-05-03T08:31:49Z</time></trkpt><trkpt lat="42.59074452332335" lon="18.867207675711136"><ele>871.0</ele><time>2026-05-03T08:31:50Z</time></trkpt><trkpt lat="42.590847771602384" lon="18.867224352568787"><ele>874.0</ele><time>2026-05-03T08:31:51Z</time></trkpt><trkpt lat="42.590947247192176" lon="18.867264272325134"><ele>877.0</ele><time>2026-05-03T08:31:52Z</time></trkpt><trkpt lat="42.591026070328454" lon="18.867316795635354"><ele>880.0</ele><time>2026-05-03T08:31:53Z</time></trkpt><trkpt lat="42.591092669305276" lon="18.867382848549173"><ele>883.0</ele><time>2026-05-03T08:31:54Z</time></trkpt><trkpt lat="42.59116570609984" lon="18.867457389109124"><ele>880.8</ele><time>2026-05-03T08:31:55Z</time></trkpt><trkpt lat="42.5912502539354" lon="18.86753421773261"><ele>878.5999999999999</ele><time>2026-05-03T08:31:56Z</time></trkpt><trkpt lat="42.59134604157983" lon="18.86760523187114"><ele>876.4000000000001</ele><time>2026-05-03T08:31:57Z</time></trkpt><trkpt lat="42.59145082884924" lon="18.867674873990946"><ele>874.2</ele><time>2026-05-03T08:31:58Z</time></trkpt><trkpt lat="42.5915577439698" lon="18.86772433259523"><ele>872.0</ele><time>2026-05-03T08:31:59Z</time></trkpt><trkpt lat="42.59166883000523" lon="18.867756602974012"><ele>877.8</ele><time>2026-05-03T08:32:00Z</time></trkpt><trkpt lat="42.59177395986975" lon="18.867776343421006"><ele>883.6</ele><time>2026-05-03T08:32:01Z</time></trkpt><trkpt lat="42.59187673287471" lon="18.867784797231156"><ele>889.3999999999999</ele><time>2026-05-03T08:32:02Z</time></trkpt><trkpt lat="42.59198457854458" lon="18.86779333025806"><ele>895.1999999999999</ele><time>2026-05-03T08:32:03Z</time></trkpt><trkpt lat="42.59210121444489" lon="18.867807785945327"><ele>901.0</ele><time>2026-05-03T08:32:04Z</time></trkpt><trkpt lat="42.59222274603746" lon="18.86782532186413"><ele>901.5</ele><time>2026-05-03T08:32:05Z</time></trkpt><trkpt lat="42.592346452537925" lon="18.867841610770526"><ele>902.0</ele><time>2026-05-03T08:32:06Z</time></trkpt><trkpt lat="42.59246692059532" lon="18.86785942371762"><ele>902.5</ele><time>2026-05-03T08:32:07Z</time></trkpt><trkpt lat="42.59258276867243" lon="18.86787868562308"><ele>903.0</ele><time>2026-05-03T08:32:08Z</time></trkpt><trkpt lat="42.59269957844244" lon="18.867893968808026"><ele>903.0</ele><time>2026-05-03T08:32:09Z</time></trkpt><trkpt lat="42.59281701815944" lon="18.867898875786377"><ele>903.0</ele><time>2026-05-03T08:32:10Z</time></trkpt><trkpt lat="42.59292310379865" lon="18.867895272087274"><ele>903.0</ele><time>2026-05-03T08:32:11Z</time></trkpt><trkpt lat="42.59302694901574" lon="18.867871227257023"><ele>903.0</ele><time>2026-05-03T08:32:12Z</time></trkpt><trkpt lat="42.5931390426178" lon="18.867827531259497"><ele>903.0</ele><time>2026-05-03T08:32:13Z</time></trkpt><trkpt lat="42.593256445005245" lon="18.8677782327067"><ele>902.75</ele><time>2026-05-03T08:32:14Z</time></trkpt><trkpt lat="42.59337342288956" lon="18.86772267664425"><ele>902.5</ele><time>2026-05-03T08:32:15Z</time></trkpt><trkpt lat="42.59349201452625" lon="18.867655838188913"><ele>902.25</ele><time>2026-05-03T08:32:16Z</time></trkpt><trkpt lat="42.59361061865839" lon="18.867573971882113"><ele>902.0</ele><time>2026-05-03T08:32:17Z</time></trkpt><trkpt lat="42.59373282970618" lon="18.867468962930936"><ele>902.0</ele><time>2026-05-03T08:32:18Z</time></trkpt><trkpt lat="42.5938633193442" lon="18.86734585778511"><ele>902.0</ele><time>2026-05-03T08:32:19Z</time></trkpt><trkpt lat="42.594001876845255" lon="18.867211893645816"><ele>902.0</ele><time>2026-05-03T08:32:20Z</time></trkpt><trkpt lat="42.59413871353172" lon="18.86706146674099"><ele>902.0</ele><time>2026-05-03T08:32:21Z</time></trkpt><trkpt lat="42.59425226560974" lon="18.86692327548348"><ele>902.0</ele><time>2026-05-03T08:32:22Z</time></trkpt><trkpt lat="42.594358848869504" lon="18.866794000100693"><ele>902.0</ele><time>2026-05-03T08:32:23Z</time></trkpt><trkpt lat="42.59447024637007" lon="18.866686884545416"><ele>902.0</ele><time>2026-05-03T08:32:24Z</time></trkpt><trkpt lat="42.594595601198705" lon="18.866598271130037"><ele>900.6</ele><time>2026-05-03T08:32:25Z</time></trkpt><trkpt lat="42.59471942250517" lon="18.866512764576036"><ele>899.2</ele><time>2026-05-03T08:32:26Z</time></trkpt><trkpt lat="42.594831309290065" lon="18.866435051748866"><ele>897.8</ele><time>2026-05-03T08:32:27Z</time></trkpt><trkpt lat="42.59492205521036" lon="18.866380907682856"><ele>896.4</ele><time>2026-05-03T08:32:28Z</time></trkpt><trkpt lat="42.59499138732793" lon="18.86635854589562"><ele>895.0</ele><time>2026-05-03T08:32:29Z</time></trkpt><trkpt lat="42.59506591733604" lon="18.866350505070155"><ele>894.9999999999999</ele><time>2026-05-03T08:32:30Z</time></trkpt><trkpt lat="42.59514570472405" lon="18.866359757820494"><ele>895.0</ele><time>2026-05-03T08:32:31Z</time></trkpt><trkpt lat="42.59522793990594" lon="18.866359010796483"><ele>895.0</ele><time>2026-05-03T08:32:32Z</time></trkpt><trkpt lat="42.595298640087385" lon="18.86634839514479"><ele>895.0</ele><time>2026-05-03T08:32:33Z</time></trkpt><trkpt lat="42.595387145672035" lon="18.866338241098923"><ele>894.9999999999999</ele><time>2026-05-03T08:32:34Z</time></trkpt><trkpt lat="42.595488544074364" lon="18.86633172375223"><ele>895.0</ele><time>2026-05-03T08:32:35Z</time></trkpt><trkpt lat="42.595611736552065" lon="18.866333000111364"><ele>896.6</ele><time>2026-05-03T08:32:36Z</time></trkpt><trkpt lat="42.59573192608978" lon="18.866327690590875"><ele>898.2</ele><time>2026-05-03T08:32:37Z</time></trkpt><trkpt lat="42.595823446078455" lon="18.866321788452947"><ele>899.8</ele><time>2026-05-03T08:32:38Z</time></trkpt><trkpt lat="42.5959176961278" lon="18.86630856728546"><ele>901.4</ele><time>2026-05-03T08:32:39Z</time></trkpt><trkpt lat="42.59601986316779" lon="18.866297165904534"><ele>903.0</ele><time>2026-05-03T08:32:40Z</time></trkpt><trkpt lat="42.596126492691376" lon="18.866275336364666"><ele>905.4</ele><time>2026-05-03T08:32:41Z</time></trkpt><trkpt lat="42.596241891489015" lon="18.86625402289475"><ele>907.8</ele><time>2026-05-03T08:32:42Z</time></trkpt><trkpt lat="42.596344617583945" lon="18.866232158734395"><ele>910.2</ele><time>2026-05-03T08:32:43Z</time></trkpt><trkpt lat="42.596441321692254" lon="18.86620448633523"><ele>912.6</ele><time>2026-05-03T08:32:44Z</time></trkpt><trkpt lat="42.596526295083535" lon="18.866156231654845"><ele>915.0</ele><time>2026-05-03T08:32:45Z</time></trkpt><trkpt lat="42.59660916501501" lon="18.8660994868088"><ele>915.0</ele><time>2026-05-03T08:32:46Z</time></trkpt><trkpt lat="42.596695230512125" lon="18.866014203384385"><ele>915.0</ele><time>2026-05-03T08:32:47Z</time></trkpt><trkpt lat="42.59678011086409" lon="18.86590414326312"><ele>915.0</ele><time>2026-05-03T08:32:48Z</time></trkpt><trkpt lat="42.59684971622171" lon="18.865795224553025"><ele>915.0</ele><time>2026-05-03T08:32:49Z</time></trkpt><trkpt lat="42.5969383625371" lon="18.865667473858096"><ele>912.0</ele><time>2026-05-03T08:32:50Z</time></trkpt><trkpt lat="42.59703543598194" lon="18.865565671800624"><ele>909.0</ele><time>2026-05-03T08:32:51Z</time></trkpt><trkpt lat="42.59711363478938" lon="18.865491855129978"><ele>906.0</ele><time>2026-05-03T08:32:52Z</time></trkpt><trkpt lat="42.597186094080534" lon="18.865432294648897"><ele>903.0</ele><time>2026-05-03T08:32:53Z</time></trkpt><trkpt lat="42.59725945677887" lon="18.865395515119978"><ele>900.0</ele><time>2026-05-03T08:32:54Z</time></trkpt><trkpt lat="42.597335131594654" lon="18.865390060446806"><ele>900.0</ele><time>2026-05-03T08:32:55Z</time></trkpt><trkpt lat="42.597419860269994" lon="18.86540903002602"><ele>900.0</ele><time>2026-05-03T08:32:56Z</time></trkpt><trkpt lat="42.59751119764118" lon="18.865448945073876"><ele>900.0</ele><time>2026-05-03T08:32:57Z</time></trkpt><trkpt lat="42.59760776313155" lon="18.86550411772362"><ele>900.0</ele><time>2026-05-03T08:32:58Z</time></trkpt><trkpt lat="42.59771579844603" lon="18.86556717260243"><ele>900.0</ele><time>2026-05-03T08:32:59Z</time></trkpt><trkpt lat="42.59781766467492" lon="18.865618547928687"><ele>899.8</ele><time>2026-05-03T08:33:00Z</time></trkpt><trkpt lat="42.59791528912686" lon="18.86565472040462"><ele>899.6</ele><time>2026-05-03T08:33:01Z</time></trkpt><trkpt lat="42.598007754020294" lon="18.865665882078275"><ele>899.4000000000001</ele><time>2026-05-03T08:33:02Z</time></trkpt><trkpt lat="42.598108959922975" lon="18.86566504987864"><ele>899.2</ele><time>2026-05-03T08:33:03Z</time></trkpt><trkpt lat="42.59821270294438" lon="18.865665169505945"><ele>899.0</ele><time>2026-05-03T08:33:04Z</time></trkpt><trkpt lat="42.5983122077846" lon="18.86565342439621"><ele>899.0</ele><time>2026-05-03T08:33:05Z</time></trkpt><trkpt lat="42.59841361202691" lon="18.865613795853342"><ele>899.0000000000001</ele><time>2026-05-03T08:33:06Z</time></trkpt><trkpt lat="42.59850366766351" lon="18.86556501434125"><ele>899.0000000000001</ele><time>2026-05-03T08:33:07Z</time></trkpt><trkpt lat="42.59859030088269" lon="18.865525661543742"><ele>899.0</ele><time>2026-05-03T08:33:08Z</time></trkpt><trkpt lat="42.59867683381818" lon="18.865495252066832"><ele>899.0</ele><time>2026-05-03T08:33:09Z</time></trkpt><trkpt lat="42.59876136313444" lon="18.865458515119684"><ele>900.8000000000001</ele><time>2026-05-03T08:33:10Z</time></trkpt><trkpt lat="42.598847614832266" lon="18.865403142846844"><ele>902.6000000000001</ele><time>2026-05-03T08:33:11Z</time></trkpt><trkpt lat="42.59893719150146" lon="18.865348318143322"><ele>904.4</ele><time>2026-05-03T08:33:12Z</time></trkpt><trkpt lat="42.59902405305202" lon="18.865296633894673"><ele>906.2</ele><time>2026-05-03T08:33:13Z</time></trkpt><trkpt lat="42.599108491288405" lon="18.86525505459114"><ele>908.0</ele><time>2026-05-03T08:33:14Z</time></trkpt><trkpt lat="42.599188758795705" lon="18.865232125227262"><ele>908.0</ele><time>2026-05-03T08:33:15Z</time></trkpt><trkpt lat="42.59925837923714" lon="18.8652167076735"><ele>908.0000000000001</ele><time>2026-05-03T08:33:16Z</time></trkpt><trkpt lat="42.599319482769324" lon="18.865188936277463"><ele>908.0</ele><time>2026-05-03T08:33:17Z</time></trkpt><trkpt lat="42.59937780316206" lon="18.865154315637934"><ele>908.0</ele><time>2026-05-03T08:33:18Z</time></trkpt><trkpt lat="42.59944651352191" lon="18.86513079359108"><ele>908.0000000000001</ele><time>2026-05-03T08:33:19Z</time></trkpt><trkpt lat="42.59952475130148" lon="18.865138478900384"><ele>908.0</ele><time>2026-05-03T08:33:20Z</time></trkpt><trkpt lat="42.59959856861208" lon="18.865150726380158"><ele>908.0</ele><time>2026-05-03T08:33:21Z</time></trkpt><trkpt lat="42.599685399705876" lon="18.865147229371736"><ele>908.5999999999999</ele><time>2026-05-03T08:33:22Z</time></trkpt><trkpt lat="42.59978702360187" lon="18.865130160677847"><ele>909.1999999999999</ele><time>2026-05-03T08:33:23Z</time></trkpt><trkpt lat="42.599888221201745" lon="18.86509517051201"><ele>909.8</ele><time>2026-05-03T08:33:24Z</time></trkpt><trkpt lat="42.599987962945704" lon="18.86505185232544"><ele>910.4</ele><time>2026-05-03T08:33:25Z</time></trkpt><trkpt lat="42.60009152435439" lon="18.86499079152447"><ele>911.0</ele><time>2026-05-03T08:33:26Z</time></trkpt><trkpt lat="42.60017378992693" lon="18.864932789060955"><ele>907.5000000000001</ele><time>2026-05-03T08:33:27Z</time></trkpt><trkpt lat="42.60026330938102" lon="18.864872070012243"><ele>904.0</ele><time>2026-05-03T08:33:28Z</time></trkpt><trkpt lat="42.60034105157059" lon="18.864836337490253"><ele>900.5</ele><time>2026-05-03T08:33:29Z</time></trkpt><trkpt lat="42.600411547657224" lon="18.864829539396"><ele>897.0</ele><time>2026-05-03T08:33:30Z</time></trkpt><trkpt lat="42.60048535016982" lon="18.864841459760257"><ele>893.5000000000001</ele><time>2026-05-03T08:33:31Z</time></trkpt><trkpt lat="42.60054527670715" lon="18.86487330789295"><ele>890.0</ele><time>2026-05-03T08:33:32Z</time></trkpt><trkpt lat="42.60060314123453" lon="18.86491225661754"><ele>890.0000000000001</ele><time>2026-05-03T08:33:33Z</time></trkpt><trkpt lat="42.600663666405666" lon="18.864959958293785"><ele>890.0</ele><time>2026-05-03T08:33:34Z</time></trkpt><trkpt lat="42.60072431361215" lon="18.86501984795547"><ele>890.0</ele><time>2026-05-03T08:33:35Z</time></trkpt><trkpt lat="42.600791180251086" lon="18.86508471623504"><ele>890.0</ele><time>2026-05-03T08:33:36Z</time></trkpt><trkpt lat="42.60085743567654" lon="18.86514169938274"><ele>890.0000000000001</ele><time>2026-05-03T08:33:37Z</time></trkpt><trkpt lat="42.600930721786824" lon="18.865184406699637"><ele>890.0</ele><time>2026-05-03T08:33:38Z</time></trkpt><trkpt lat="42.6010063626167" lon="18.86520101361268"><ele>893.1666666666667</ele><time>2026-05-03T08:33:39Z</time></trkpt><trkpt lat="42.601083456436804" lon="18.865204408165287"><ele>896.3333333333334</ele><time>2026-05-03T08:33:40Z</time></trkpt><trkpt lat="42.60116295652149" lon="18.865201021539534"><ele>899.5</ele><time>2026-05-03T08:33:41Z</time></trkpt><trkpt lat="42.60125184334689" lon="18.865189781607427"><ele>902.6666666666667</ele><time>2026-05-03T08:33:42Z</time></trkpt><trkpt lat="42.601341510671986" lon="18.865175500845467"><ele>905.8333333333334</ele><time>2026-05-03T08:33:43Z</time></trkpt><trkpt lat="42.60143092284436" lon="18.86516334084929"><ele>909.0</ele><time>2026-05-03T08:33:44Z</time></trkpt><trkpt lat="42.60153391007411" lon="18.865143672534185"><ele>909.4000000000001</ele><time>2026-05-03T08:33:45Z</time></trkpt><trkpt lat="42.60162326552971" lon="18.865138338786895"><ele>909.8000000000001</ele><time>2026-05-03T08:33:46Z</time></trkpt><trkpt lat="42.60171631002391" lon="18.865138450716557"><ele>910.1999999999999</ele><time>2026-05-03T08:33:47Z</time></trkpt><trkpt lat="42.60182282625669" lon="18.865150322888038"><ele>910.5999999999999</ele><time>2026-05-03T08:33:48Z</time></trkpt><trkpt lat="42.60193101086033" lon="18.865170451471112"><ele>911.0</ele><time>2026-05-03T08:33:49Z</time></trkpt><trkpt lat="42.602039250123966" lon="18.865183526068037"><ele>911.0</ele><time>2026-05-03T08:33:50Z</time></trkpt><trkpt lat="42.60214438206675" lon="18.865188706747183"><ele>910.9999999999999</ele><time>2026-05-03T08:33:51Z</time></trkpt><trkpt lat="42.60224521705974" lon="18.86518128515813"><ele>910.9999999999999</ele><time>2026-05-03T08:33:52Z</time></trkpt><trkpt lat="42.60233656535397" lon="18.865153635891488"><ele>911.0</ele><time>2026-05-03T08:33:53Z</time></trkpt><trkpt lat="42.60241292514776" lon="18.86510794735985"><ele>911.0</ele><time>2026-05-03T08:33:54Z</time></trkpt><trkpt lat="42.60248750821768" lon="18.865043578785347"><ele>907.4</ele><time>2026-05-03T08:33:55Z</time></trkpt><trkpt lat="42.60255615205742" lon="18.86496846189632"><ele>903.8</ele><time>2026-05-03T08:33:56Z</time></trkpt><trkpt lat="42.60263987231192" lon="18.864869124047114"><ele>900.1999999999999</ele><time>2026-05-03T08:33:57Z</time></trkpt><trkpt lat="42.602715823336766" lon="18.8647837009651"><ele>896.5999999999999</ele><time>2026-05-03T08:33:58Z</time></trkpt><trkpt lat="42.60278925071124" lon="18.864717316745274"><ele>893.0</ele><time>2026-05-03T08:33:59Z</time></trkpt><trkpt lat="42.602862911404465" lon="18.864664735562943"><ele>893.0000000000001</ele><time>2026-05-03T08:34:00Z</time></trkpt><trkpt lat="42.60293107361678" lon="18.864622043101658"><ele>893.0</ele><time>2026-05-03T08:34:01Z</time></trkpt><trkpt lat="42.602997552425876" lon="18.864591842833626"><ele>893.0</ele><time>2026-05-03T08:34:02Z</time></trkpt><trkpt lat="42.60306562817999" lon="18.864567715671953"><ele>893.0</ele><time>2026-05-03T08:34:03Z</time></trkpt><trkpt lat="42.60319191862684" lon="18.86456106948619"><ele>893.0000000000001</ele><time>2026-05-03T08:34:05Z</time></trkpt><trkpt lat="42.60325853034303" lon="18.864560504617067"><ele>893.0</ele><time>2026-05-03T08:34:06Z</time></trkpt><trkpt lat="42.60338977732424" lon="18.864595195602583"><ele>893.0</ele><time>2026-05-03T08:34:08Z</time></trkpt><trkpt lat="42.60344562195806" lon="18.86464061779699"><ele>893.0</ele><time>2026-05-03T08:34:09Z</time></trkpt><trkpt lat="42.60349909034695" lon="18.864702085756562"><ele>893.0</ele><time>2026-05-03T08:34:10Z</time></trkpt><trkpt lat="42.60355468683682" lon="18.864763767910166"><ele>893.0</ele><time>2026-05-03T08:34:11Z</time></trkpt><trkpt lat="42.60362037891357" lon="18.864824670584404"><ele>893.0</ele><time>2026-05-03T08:34:12Z</time></trkpt><trkpt lat="42.60368567813205" lon="18.864888091699076"><ele>893.0</ele><time>2026-05-03T08:34:13Z</time></trkpt><trkpt lat="42.60374209918592" lon="18.86493953126467"><ele>893.0</ele><time>2026-05-03T08:34:14Z</time></trkpt><trkpt lat="42.60386052530929" lon="18.86496387597458"><ele>893.2</ele><time>2026-05-03T08:34:16Z</time></trkpt><trkpt lat="42.603965520820424" lon="18.864959851258952"><ele>893.4</ele><time>2026-05-03T08:34:18Z</time></trkpt><trkpt lat="42.604055237130794" lon="18.864971351164527"><ele>893.6000000000001</ele><time>2026-05-03T08:34:20Z</time></trkpt><trkpt lat="42.60412757259368" lon="18.865014682354932"><ele>893.8000000000001</ele><time>2026-05-03T08:34:22Z</time></trkpt><trkpt lat="42.60418375454184" lon="18.865071155230364"><ele>894.0</ele><time>2026-05-03T08:34:24Z</time></trkpt><trkpt lat="42.60429566912096" lon="18.865078032101636"><ele>894.0</ele><time>2026-05-03T08:34:26Z</time></trkpt><trkpt lat="42.60436079554673" lon="18.86507873395059"><ele>894.0</ele><time>2026-05-03T08:34:27Z</time></trkpt><trkpt lat="42.6044262336223" lon="18.865081015287583"><ele>894.0</ele><time>2026-05-03T08:34:28Z</time></trkpt><trkpt lat="42.60452441568241" lon="18.865103185242415"><ele>894.0</ele><time>2026-05-03T08:34:30Z</time></trkpt><trkpt lat="42.60460051849143" lon="18.865109233950932"><ele>894.0</ele><time>2026-05-03T08:34:32Z</time></trkpt><trkpt lat="42.604681237373946" lon="18.865137007502362"><ele>894.0</ele><time>2026-05-03T08:34:34Z</time></trkpt><trkpt lat="42.6047659350815" lon="18.865178100082975"><ele>894.0</ele><time>2026-05-03T08:34:36Z</time></trkpt><trkpt lat="42.60485503973665" lon="18.865203359725115"><ele>894.0</ele><time>2026-05-03T08:34:38Z</time></trkpt><trkpt lat="42.604939882909406" lon="18.86522538566897"><ele>894.0</ele><time>2026-05-03T08:34:40Z</time></trkpt><trkpt lat="42.60503202535736" lon="18.865246259386083"><ele>894.0</ele><time>2026-05-03T08:34:42Z</time></trkpt><trkpt lat="42.60514070502282" lon="18.865229014237404"><ele>894.0</ele><time>2026-05-03T08:34:44Z</time></trkpt><trkpt lat="42.60520260669592" lon="18.865197530135504"><ele>894.0</ele><time>2026-05-03T08:34:45Z</time></trkpt><trkpt lat="42.605267619020324" lon="18.865173272979344"><ele>895.0</ele><time>2026-05-03T08:34:46Z</time></trkpt><trkpt lat="42.605409233121236" lon="18.865161089600598"><ele>896.0</ele><time>2026-05-03T08:34:48Z</time></trkpt><trkpt lat="42.605540711889276" lon="18.865140345061583"><ele>897.0</ele><time>2026-05-03T08:34:49Z</time></trkpt><trkpt lat="42.605695634911115" lon="18.865111162286016"><ele>898.0</ele><time>2026-05-03T08:34:50Z</time></trkpt><trkpt lat="42.60584104171771" lon="18.86509518894123"><ele>898.0</ele><time>2026-05-03T08:34:51Z</time></trkpt><trkpt lat="42.60596679797136" lon="18.865097312534036"><ele>898.0</ele><time>2026-05-03T08:34:52Z</time></trkpt><trkpt lat="42.606084847926155" lon="18.865118993632695"><ele>898.0</ele><time>2026-05-03T08:34:53Z</time></trkpt><trkpt lat="42.60619488322376" lon="18.865135461138145"><ele>898.0</ele><time>2026-05-03T08:34:54Z</time></trkpt><trkpt lat="42.606304836490644" lon="18.865182628530036"><ele>894.75</ele><time>2026-05-03T08:34:55Z</time></trkpt><trkpt lat="42.60642335867754" lon="18.865235883633403"><ele>891.5</ele><time>2026-05-03T08:34:56Z</time></trkpt><trkpt lat="42.6065374871997" lon="18.86526788008895"><ele>888.25</ele><time>2026-05-03T08:34:57Z</time></trkpt><trkpt lat="42.60665524937176" lon="18.865280341223855"><ele>885.0</ele><time>2026-05-03T08:34:58Z</time></trkpt><trkpt lat="42.60676944231797" lon="18.865286263725743"><ele>885.0</ele><time>2026-05-03T08:34:59Z</time></trkpt><trkpt lat="42.60687186912054" lon="18.865296109394148"><ele>885.0</ele><time>2026-05-03T08:35:00Z</time></trkpt><trkpt lat="42.60698389714848" lon="18.865302239320883"><ele>885.0</ele><time>2026-05-03T08:35:01Z</time></trkpt><trkpt lat="42.60710234142955" lon="18.86531296842373"><ele>885.0</ele><time>2026-05-03T08:35:02Z</time></trkpt><trkpt lat="42.60721100912179" lon="18.865351818230696"><ele>885.0</ele><time>2026-05-03T08:35:03Z</time></trkpt><trkpt lat="42.60731012055511" lon="18.865402608930943"><ele>885.0</ele><time>2026-05-03T08:35:04Z</time></trkpt><trkpt lat="42.607400779957516" lon="18.865448473884246"><ele>885.0</ele><time>2026-05-03T08:35:05Z</time></trkpt><trkpt lat="42.60748725062578" lon="18.865498866733883"><ele>885.0</ele><time>2026-05-03T08:35:06Z</time></trkpt><trkpt lat="42.60756147283363" lon="18.865545991031997"><ele>885.0</ele><time>2026-05-03T08:35:07Z</time></trkpt><trkpt lat="42.607643069561476" lon="18.865596407381727"><ele>885.0</ele><time>2026-05-03T08:35:08Z</time></trkpt><trkpt lat="42.60772932653152" lon="18.865647490354068"><ele>885.0</ele><time>2026-05-03T08:35:09Z</time></trkpt><trkpt lat="42.607813549115484" lon="18.865679207491993"><ele>885.0</ele><time>2026-05-03T08:35:10Z</time></trkpt><trkpt lat="42.60790128440652" lon="18.86570016432826"><ele>885.0</ele><time>2026-05-03T08:35:11Z</time></trkpt><trkpt lat="42.60798540941825" lon="18.86571735846966"><ele>885.0</ele><time>2026-05-03T08:35:12Z</time></trkpt><trkpt lat="42.608065845675014" lon="18.865710797957444"><ele>885.0</ele><time>2026-05-03T08:35:13Z</time></trkpt><trkpt lat="42.60814325417448" lon="18.86569033671476"><ele>885.0</ele><time>2026-05-03T08:35:14Z</time></trkpt><trkpt lat="42.60821691320642" lon="18.865659824488965"><ele>885.1666666666666</ele><time>2026-05-03T08:35:15Z</time></trkpt><trkpt lat="42.60829690645338" lon="18.86563579770194"><ele>885.3333333333333</ele><time>2026-05-03T08:35:16Z</time></trkpt><trkpt lat="42.60837251700535" lon="18.86562368374118"><ele>885.5</ele><time>2026-05-03T08:35:17Z</time></trkpt><trkpt lat="42.608458283470796" lon="18.865609927136656"><ele>885.6666666666666</ele><time>2026-05-03T08:35:18Z</time></trkpt><trkpt lat="42.60853158627836" lon="18.86559271791562"><ele>885.8333333333333</ele><time>2026-05-03T08:35:19Z</time></trkpt><trkpt lat="42.60860682528924" lon="18.86554029779673"><ele>886.0</ele><time>2026-05-03T08:35:20Z</time></trkpt><trkpt lat="42.60868213632891" lon="18.865473468819285"><ele>882.4</ele><time>2026-05-03T08:35:21Z</time></trkpt><trkpt lat="42.60876290681869" lon="18.865415563651823"><ele>878.8</ele><time>2026-05-03T08:35:22Z</time></trkpt><trkpt lat="42.60884693844737" lon="18.865365963304868"><ele>875.1999999999999</ele><time>2026-05-03T08:35:23Z</time></trkpt><trkpt lat="42.60893152450289" lon="18.865311817409076"><ele>871.5999999999999</ele><time>2026-05-03T08:35:24Z</time></trkpt><trkpt lat="42.60900599432696" lon="18.865251411422683"><ele>868.0</ele><time>2026-05-03T08:35:25Z</time></trkpt><trkpt lat="42.609077866877655" lon="18.865180894734063"><ele>872.1666666666666</ele><time>2026-05-03T08:35:26Z</time></trkpt><trkpt lat="42.60913491767005" lon="18.86510726768541"><ele>876.3333333333333</ele><time>2026-05-03T08:35:27Z</time></trkpt><trkpt lat="42.60918252617548" lon="18.86502729294422"><ele>880.5</ele><time>2026-05-03T08:35:28Z</time></trkpt><trkpt lat="42.60922424069859" lon="18.864934376047334"><ele>884.6666666666667</ele><time>2026-05-03T08:35:29Z</time></trkpt><trkpt lat="42.60926229162686" lon="18.864830945525306"><ele>888.8333333333334</ele><time>2026-05-03T08:35:30Z</time></trkpt><trkpt lat="42.60930912503859" lon="18.86471610168956"><ele>893.0</ele><time>2026-05-03T08:35:31Z</time></trkpt><trkpt lat="42.609358330549924" lon="18.864603419496458"><ele>893.0</ele><time>2026-05-03T08:35:32Z</time></trkpt><trkpt lat="42.60940698586503" lon="18.864490421084255"><ele>893.0</ele><time>2026-05-03T08:35:33Z</time></trkpt><trkpt lat="42.609449765249146" lon="18.86436548410135"><ele>893.0</ele><time>2026-05-03T08:35:34Z</time></trkpt><trkpt lat="42.609497916525044" lon="18.864232360905753"><ele>893.0</ele><time>2026-05-03T08:35:35Z</time></trkpt><trkpt lat="42.60955142962925" lon="18.864112797185175"><ele>893.0</ele><time>2026-05-03T08:35:36Z</time></trkpt><trkpt lat="42.60959661894421" lon="18.864009604482884"><ele>892.6666666666667</ele><time>2026-05-03T08:35:37Z</time></trkpt><trkpt lat="42.60962542028315" lon="18.863904755959886"><ele>892.3333333333334</ele><time>2026-05-03T08:35:38Z</time></trkpt><trkpt lat="42.609642047656116" lon="18.863793730257115"><ele>892.0</ele><time>2026-05-03T08:35:39Z</time></trkpt><trkpt lat="42.6096535880864" lon="18.86366546400534"><ele>891.6666666666667</ele><time>2026-05-03T08:35:40Z</time></trkpt><trkpt lat="42.60965706532194" lon="18.863554737205252"><ele>891.3333333333334</ele><time>2026-05-03T08:35:41Z</time></trkpt><trkpt lat="42.609672441266895" lon="18.86345420106512"><ele>891.0</ele><time>2026-05-03T08:35:42Z</time></trkpt><trkpt lat="42.60970525249549" lon="18.863358656222484"><ele>891.0</ele><time>2026-05-03T08:35:43Z</time></trkpt><trkpt lat="42.60975754345818" lon="18.863263704428856"><ele>890.9999999999999</ele><time>2026-05-03T08:35:44Z</time></trkpt><trkpt lat="42.60982991906366" lon="18.863198464021018"><ele>890.9999999999999</ele><time>2026-05-03T08:35:45Z</time></trkpt><trkpt lat="42.609912192477246" lon="18.86315863640208"><ele>891.0</ele><time>2026-05-03T08:35:46Z</time></trkpt><trkpt lat="42.610006635423176" lon="18.86314971598704"><ele>891.0</ele><time>2026-05-03T08:35:47Z</time></trkpt><trkpt lat="42.61010813862421" lon="18.86316007337568"><ele>891.0</ele><time>2026-05-03T08:35:48Z</time></trkpt><trkpt lat="42.61021789916869" lon="18.863182606228552"><ele>890.9999999999999</ele><time>2026-05-03T08:35:49Z</time></trkpt><trkpt lat="42.61032910078437" lon="18.863221831372794"><ele>890.9999999999999</ele><time>2026-05-03T08:35:50Z</time></trkpt><trkpt lat="42.61042581110675" lon="18.863279159651608"><ele>891.0</ele><time>2026-05-03T08:35:51Z</time></trkpt><trkpt lat="42.61050472678643" lon="18.86333199560338"><ele>891.0</ele><time>2026-05-03T08:35:52Z</time></trkpt><trkpt lat="42.61057545892274" lon="18.86337935562354"><ele>891.0</ele><time>2026-05-03T08:35:53Z</time></trkpt><trkpt lat="42.610650581751614" lon="18.86341008700639"><ele>891.0</ele><time>2026-05-03T08:35:54Z</time></trkpt><trkpt lat="42.61073149744569" lon="18.863422035245723"><ele>891.0</ele><time>2026-05-03T08:35:55Z</time></trkpt><trkpt lat="42.61081861661546" lon="18.86341006611571"><ele>891.0</ele><time>2026-05-03T08:35:56Z</time></trkpt><trkpt lat="42.61089275378084" lon="18.863390304167"><ele>891.0</ele><time>2026-05-03T08:35:57Z</time></trkpt><trkpt lat="42.61097412519777" lon="18.863363331009413"><ele>891.0</ele><time>2026-05-03T08:35:58Z</time></trkpt><trkpt lat="42.61104845903308" lon="18.863343091770098"><ele>891.0</ele><time>2026-05-03T08:35:59Z</time></trkpt><trkpt lat="42.611123947529116" lon="18.86332977087705"><ele>891.0</ele><time>2026-05-03T08:36:00Z</time></trkpt><trkpt lat="42.61120159327674" lon="18.86332531717269"><ele>891.0</ele><time>2026-05-03T08:36:01Z</time></trkpt><trkpt lat="42.61127040005229" lon="18.863324710708376"><ele>891.0</ele><time>2026-05-03T08:36:02Z</time></trkpt><trkpt lat="42.61133612572223" lon="18.863335119199135"><ele>891.0</ele><time>2026-05-03T08:36:03Z</time></trkpt><trkpt lat="42.611414005743846" lon="18.863351184983777"><ele>891.0</ele><time>2026-05-03T08:36:04Z</time></trkpt><trkpt lat="42.611497229911734" lon="18.86339712286475"><ele>890.3333333333334</ele><time>2026-05-03T08:36:05Z</time></trkpt><trkpt lat="42.61158083244579" lon="18.863454405076105"><ele>889.6666666666667</ele><time>2026-05-03T08:36:06Z</time></trkpt><trkpt lat="42.61165722581492" lon="18.863490647398105"><ele>889.0</ele><time>2026-05-03T08:36:07Z</time></trkpt><trkpt lat="42.6117352449232" lon="18.86349615681081"><ele>888.3333333333334</ele><time>2026-05-03T08:36:08Z</time></trkpt><trkpt lat="42.61180745961892" lon="18.863486108651042"><ele>887.6666666666667</ele><time>2026-05-03T08:36:09Z</time></trkpt><trkpt lat="42.611884473430315" lon="18.863472002635767"><ele>887.0</ele><time>2026-05-03T08:36:10Z</time></trkpt><trkpt lat="42.61196858584081" lon="18.863465827171087"><ele>886.6</ele><time>2026-05-03T08:36:11Z</time></trkpt><trkpt lat="42.612068923739244" lon="18.863463421672968"><ele>886.2</ele><time>2026-05-03T08:36:12Z</time></trkpt><trkpt lat="42.61217807497576" lon="18.86345878495722"><ele>885.8</ele><time>2026-05-03T08:36:13Z</time></trkpt><trkpt lat="42.61228275409515" lon="18.863451077005195"><ele>885.4</ele><time>2026-05-03T08:36:14Z</time></trkpt><trkpt lat="42.61238700631163" lon="18.863452233690197"><ele>885.0</ele><time>2026-05-03T08:36:15Z</time></trkpt><trkpt lat="42.6124908649941" lon="18.86345102760847"><ele>885.0</ele><time>2026-05-03T08:36:16Z</time></trkpt><trkpt lat="42.61259388583003" lon="18.86345201566019"><ele>885.0</ele><time>2026-05-03T08:36:17Z</time></trkpt><trkpt lat="42.612702520937276" lon="18.863451322185497"><ele>885.0</ele><time>2026-05-03T08:36:18Z</time></trkpt><trkpt lat="42.61280959984152" lon="18.86344897977957"><ele>885.0</ele><time>2026-05-03T08:36:19Z</time></trkpt><trkpt lat="42.612915644027794" lon="18.86344864739047"><ele>885.0</ele><time>2026-05-03T08:36:20Z</time></trkpt><trkpt lat="42.61301806698794" lon="18.863445565247304"><ele>885.25</ele><time>2026-05-03T08:36:21Z</time></trkpt><trkpt lat="42.61313217888871" lon="18.863445049179564"><ele>885.5</ele><time>2026-05-03T08:36:22Z</time></trkpt><trkpt lat="42.613246670313906" lon="18.863448986971285"><ele>885.75</ele><time>2026-05-03T08:36:23Z</time></trkpt><trkpt lat="42.61337019482133" lon="18.86344820393439"><ele>886.0</ele><time>2026-05-03T08:36:24Z</time></trkpt><trkpt lat="42.61349471176791" lon="18.863451671528725"><ele>886.0</ele><time>2026-05-03T08:36:25Z</time></trkpt><trkpt lat="42.61361731251769" lon="18.86344949733538"><ele>885.9999999999999</ele><time>2026-05-03T08:36:26Z</time></trkpt><trkpt lat="42.61372948703646" lon="18.863446362246037"><ele>885.9999999999999</ele><time>2026-05-03T08:36:27Z</time></trkpt><trkpt lat="42.61383086568609" lon="18.86345514498595"><ele>886.0</ele><time>2026-05-03T08:36:28Z</time></trkpt><trkpt lat="42.613928839034116" lon="18.86349335843405"><ele>886.0</ele><time>2026-05-03T08:36:29Z</time></trkpt><trkpt lat="42.61402224769001" lon="18.86356854984233"><ele>885.25</ele><time>2026-05-03T08:36:30Z</time></trkpt><trkpt lat="42.61410896974001" lon="18.863669430683142"><ele>884.5</ele><time>2026-05-03T08:36:31Z</time></trkpt><trkpt lat="42.614190181754296" lon="18.863795689832678"><ele>883.75</ele><time>2026-05-03T08:36:32Z</time></trkpt><trkpt lat="42.61427115706073" lon="18.86393943383574"><ele>883.0</ele><time>2026-05-03T08:36:33Z</time></trkpt><trkpt lat="42.61435705752978" lon="18.864072855893433"><ele>883.0</ele><time>2026-05-03T08:36:34Z</time></trkpt><trkpt lat="42.61444062214908" lon="18.864203485121983"><ele>883.0</ele><time>2026-05-03T08:36:35Z</time></trkpt><trkpt lat="42.61453080747826" lon="18.86433346002247"><ele>883.0</ele><time>2026-05-03T08:36:36Z</time></trkpt><trkpt lat="42.614623602328734" lon="18.86446803432567"><ele>883.0</ele><time>2026-05-03T08:36:37Z</time></trkpt><trkpt lat="42.6147155700551" lon="18.864606074308583"><ele>880.75</ele><time>2026-05-03T08:36:38Z</time></trkpt><trkpt lat="42.6148077627653" lon="18.86474203234971"><ele>878.5</ele><time>2026-05-03T08:36:39Z</time></trkpt><trkpt lat="42.61490035214619" lon="18.864863491279547"><ele>876.25</ele><time>2026-05-03T08:36:40Z</time></trkpt><trkpt lat="42.61499719905178" lon="18.864991059844726"><ele>874.0</ele><time>2026-05-03T08:36:41Z</time></trkpt><trkpt lat="42.61509093793897" lon="18.86511244548604"><ele>876.25</ele><time>2026-05-03T08:36:42Z</time></trkpt><trkpt lat="42.6151914542554" lon="18.86522691608282"><ele>878.5</ele><time>2026-05-03T08:36:43Z</time></trkpt><trkpt lat="42.61529608122392" lon="18.865330446777623"><ele>880.75</ele><time>2026-05-03T08:36:44Z</time></trkpt><trkpt lat="42.61540466212945" lon="18.865421047257225"><ele>883.0</ele><time>2026-05-03T08:36:45Z</time></trkpt><trkpt lat="42.61551676787564" lon="18.865495753502397"><ele>883.0</ele><time>2026-05-03T08:36:46Z</time></trkpt><trkpt lat="42.61563952789443" lon="18.865555068927414"><ele>883.0</ele><time>2026-05-03T08:36:47Z</time></trkpt><trkpt lat="42.61576597719672" lon="18.865597928135152"><ele>883.0</ele><time>2026-05-03T08:36:48Z</time></trkpt><trkpt lat="42.61589552232001" lon="18.865640921537146"><ele>883.0</ele><time>2026-05-03T08:36:49Z</time></trkpt><trkpt lat="42.61601155574805" lon="18.865659808484715"><ele>883.0</ele><time>2026-05-03T08:36:50Z</time></trkpt><trkpt lat="42.61611850928889" lon="18.86563338206777"><ele>883.0</ele><time>2026-05-03T08:36:51Z</time></trkpt><trkpt lat="42.616213938948086" lon="18.865568869443962"><ele>883.0</ele><time>2026-05-03T08:36:52Z</time></trkpt><trkpt lat="42.616298180964044" lon="18.865484721408354"><ele>883.0</ele><time>2026-05-03T08:36:53Z</time></trkpt><trkpt lat="42.61640326998042" lon="18.865387171816828"><ele>883.0</ele><time>2026-05-03T08:36:54Z</time></trkpt><trkpt lat="42.616502444815644" lon="18.865289720415213"><ele>883.75</ele><time>2026-05-03T08:36:55Z</time></trkpt><trkpt lat="42.616600503008705" lon="18.865187261162816"><ele>884.5</ele><time>2026-05-03T08:36:56Z</time></trkpt><trkpt lat="42.616691152612084" lon="18.865067373259716"><ele>885.25</ele><time>2026-05-03T08:36:57Z</time></trkpt><trkpt lat="42.616777162133054" lon="18.86492291150438"><ele>886.0</ele><time>2026-05-03T08:36:58Z</time></trkpt><trkpt lat="42.61685045380931" lon="18.86475912517924"><ele>887.3333333333333</ele><time>2026-05-03T08:36:59Z</time></trkpt><trkpt lat="42.6169171842102" lon="18.86456547213807"><ele>888.6666666666667</ele><time>2026-05-03T08:37:00Z</time></trkpt><trkpt lat="42.61697942894838" lon="18.864358541344988"><ele>890.0</ele><time>2026-05-03T08:37:01Z</time></trkpt><trkpt lat="42.6170489687347" lon="18.86413644205177"><ele>890.0</ele><time>2026-05-03T08:37:02Z</time></trkpt><trkpt lat="42.61712633677468" lon="18.86392674491985"><ele>890.0</ele><time>2026-05-03T08:37:03Z</time></trkpt><trkpt lat="42.61720081114734" lon="18.863737655070242"><ele>890.0</ele><time>2026-05-03T08:37:04Z</time></trkpt><trkpt lat="42.61728594405175" lon="18.863566340459975"><ele>887.75</ele><time>2026-05-03T08:37:05Z</time></trkpt><trkpt lat="42.617389395177526" lon="18.863413061191523"><ele>885.5</ele><time>2026-05-03T08:37:06Z</time></trkpt><trkpt lat="42.617500285004546" lon="18.86328371790473"><ele>883.25</ele><time>2026-05-03T08:37:07Z</time></trkpt><trkpt lat="42.61760049143292" lon="18.863172745030475"><ele>881.0</ele><time>2026-05-03T08:37:08Z</time></trkpt><trkpt lat="42.61769551639886" lon="18.86310356451105"><ele>881.0</ele><time>2026-05-03T08:37:09Z</time></trkpt><trkpt lat="42.617805224902774" lon="18.863074150613993"><ele>881.0</ele><time>2026-05-03T08:37:10Z</time></trkpt><trkpt lat="42.61792177543627" lon="18.863078073174677"><ele>881.0</ele><time>2026-05-03T08:37:11Z</time></trkpt><trkpt lat="42.618039584760275" lon="18.86312189262921"><ele>881.0</ele><time>2026-05-03T08:37:12Z</time></trkpt><trkpt lat="42.6181425632928" lon="18.863172746158597"><ele>883.75</ele><time>2026-05-03T08:37:13Z</time></trkpt><trkpt lat="42.618251601678125" lon="18.86322298932216"><ele>886.5</ele><time>2026-05-03T08:37:14Z</time></trkpt><trkpt lat="42.61836848056915" lon="18.863274625574352"><ele>889.25</ele><time>2026-05-03T08:37:15Z</time></trkpt><trkpt lat="42.61848624358869" lon="18.863335913647013"><ele>892.0</ele><time>2026-05-03T08:37:16Z</time></trkpt><trkpt lat="42.61860204790626" lon="18.86339932587983"><ele>888.0</ele><time>2026-05-03T08:37:17Z</time></trkpt><trkpt lat="42.618720347605645" lon="18.86345775897611"><ele>884.0</ele><time>2026-05-03T08:37:18Z</time></trkpt><trkpt lat="42.618839463777924" lon="18.863493849993798"><ele>880.0</ele><time>2026-05-03T08:37:19Z</time></trkpt><trkpt lat="42.618962282106125" lon="18.863493374083607"><ele>876.0</ele><time>2026-05-03T08:37:20Z</time></trkpt><trkpt lat="42.61908276876443" lon="18.863479743537425"><ele>876.0</ele><time>2026-05-03T08:37:21Z</time></trkpt><trkpt lat="42.61920022319814" lon="18.863467812617948"><ele>876.0</ele><time>2026-05-03T08:37:22Z</time></trkpt><trkpt lat="42.61932057489436" lon="18.863477548817066"><ele>876.0</ele><time>2026-05-03T08:37:23Z</time></trkpt><trkpt lat="42.619429167694825" lon="18.863516496463415"><ele>876.0</ele><time>2026-05-03T08:37:24Z</time></trkpt><trkpt lat="42.61953594015909" lon="18.863569280118035"><ele>878.0</ele><time>2026-05-03T08:37:25Z</time></trkpt><trkpt lat="42.61963123329547" lon="18.863636058155112"><ele>880.0</ele><time>2026-05-03T08:37:26Z</time></trkpt><trkpt lat="42.61973563469295" lon="18.863717889223594"><ele>882.0</ele><time>2026-05-03T08:37:27Z</time></trkpt><trkpt lat="42.619840700521344" lon="18.863808232189697"><ele>884.0</ele><time>2026-05-03T08:37:28Z</time></trkpt><trkpt lat="42.619952215068274" lon="18.863893265396815"><ele>884.0</ele><time>2026-05-03T08:37:29Z</time></trkpt><trkpt lat="42.62007003728559" lon="18.863970533812314"><ele>884.0</ele><time>2026-05-03T08:37:30Z</time></trkpt><trkpt lat="42.62019912823792" lon="18.86404217368336"><ele>884.0</ele><time>2026-05-03T08:37:31Z</time></trkpt><trkpt lat="42.620347816663426" lon="18.864108971496805"><ele>884.0</ele><time>2026-05-03T08:37:32Z</time></trkpt><trkpt lat="42.62051901885857" lon="18.86418245101841"><ele>883.3333333333334</ele><time>2026-05-03T08:37:33Z</time></trkpt><trkpt lat="42.62072031512298" lon="18.86425588466436"><ele>882.6666666666667</ele><time>2026-05-03T08:37:34Z</time></trkpt><trkpt lat="42.620899570301816" lon="18.864329292865378"><ele>882.0</ele><time>2026-05-03T08:37:35Z</time></trkpt><trkpt lat="42.62105301729448" lon="18.864402780436297"><ele>884.5</ele><time>2026-05-03T08:37:36Z</time></trkpt><trkpt lat="42.62119112423698" lon="18.864474952221613"><ele>887.0</ele><time>2026-05-03T08:37:37Z</time></trkpt><trkpt lat="42.62131623183981" lon="18.864553726210172"><ele>889.5</ele><time>2026-05-03T08:37:38Z</time></trkpt><trkpt lat="42.62143127055155" lon="18.864631902077228"><ele>892.0</ele><time>2026-05-03T08:37:39Z</time></trkpt><trkpt lat="42.62153496639246" lon="18.864682307139834"><ele>892.0</ele><time>2026-05-03T08:37:40Z</time></trkpt><trkpt lat="42.62163606693862" lon="18.864703453858386"><ele>892.0</ele><time>2026-05-03T08:37:41Z</time></trkpt><trkpt lat="42.62175528529799" lon="18.864705121758348"><ele>892.0</ele><time>2026-05-03T08:37:42Z</time></trkpt><trkpt lat="42.62189877158987" lon="18.86470897555846"><ele>892.0</ele><time>2026-05-03T08:37:43Z</time></trkpt><trkpt lat="42.622045942153875" lon="18.864706378438125"><ele>894.0</ele><time>2026-05-03T08:37:44Z</time></trkpt><trkpt lat="42.622195037559834" lon="18.86470288910506"><ele>896.0</ele><time>2026-05-03T08:37:45Z</time></trkpt><trkpt lat="42.62233657284806" lon="18.86470259296924"><ele>898.0</ele><time>2026-05-03T08:37:46Z</time></trkpt><trkpt lat="42.622481136160644" lon="18.864706952677224"><ele>900.0</ele><time>2026-05-03T08:37:47Z</time></trkpt><trkpt lat="42.622619762617376" lon="18.86474258117501"><ele>900.0</ele><time>2026-05-03T08:37:48Z</time></trkpt><trkpt lat="42.62275092313056" lon="18.86480766472539"><ele>900.0</ele><time>2026-05-03T08:37:49Z</time></trkpt><trkpt lat="42.622870105776535" lon="18.864892352788825"><ele>900.0</ele><time>2026-05-03T08:37:50Z</time></trkpt><trkpt lat="42.622987937437145" lon="18.864968468559496"><ele>900.0</ele><time>2026-05-03T08:37:51Z</time></trkpt><trkpt lat="42.623106081758195" lon="18.865041525678805"><ele>898.5</ele><time>2026-05-03T08:37:52Z</time></trkpt><trkpt lat="42.62322669801598" lon="18.86511359091989"><ele>897.0</ele><time>2026-05-03T08:37:53Z</time></trkpt><trkpt lat="42.6233467228885" lon="18.865186534877225"><ele>895.5</ele><time>2026-05-03T08:37:54Z</time></trkpt><trkpt lat="42.62346209972438" lon="18.86527160213826"><ele>894.0</ele><time>2026-05-03T08:37:55Z</time></trkpt><trkpt lat="42.62357693079772" lon="18.865366106127397"><ele>898.5</ele><time>2026-05-03T08:37:56Z</time></trkpt><trkpt lat="42.6236875110275" lon="18.865457303247364"><ele>903.0</ele><time>2026-05-03T08:37:57Z</time></trkpt><trkpt lat="42.62379650435618" lon="18.86554566716359"><ele>907.5</ele><time>2026-05-03T08:37:58Z</time></trkpt><trkpt lat="42.62389531759042" lon="18.865635599121514"><ele>912.0</ele><time>2026-05-03T08:37:59Z</time></trkpt><trkpt lat="42.623990020433915" lon="18.86572079738086"><ele>912.0</ele><time>2026-05-03T08:38:00Z</time></trkpt><trkpt lat="42.62409429333412" lon="18.865801362226435"><ele>912.0</ele><time>2026-05-03T08:38:01Z</time></trkpt><trkpt lat="42.62420470216655" lon="18.865864422523387"><ele>912.0</ele><time>2026-05-03T08:38:02Z</time></trkpt><trkpt lat="42.624313445160276" lon="18.86590211595126"><ele>912.0</ele><time>2026-05-03T08:38:03Z</time></trkpt><trkpt lat="42.62442904844294" lon="18.86592974337785"><ele>908.25</ele><time>2026-05-03T08:38:04Z</time></trkpt><trkpt lat="42.62454242393519" lon="18.865945134061064"><ele>904.5</ele><time>2026-05-03T08:38:05Z</time></trkpt><trkpt lat="42.62465530340909" lon="18.865949660496288"><ele>900.75</ele><time>2026-05-03T08:38:06Z</time></trkpt><trkpt lat="42.62476649534051" lon="18.865954309162124"><ele>897.0</ele><time>2026-05-03T08:38:07Z</time></trkpt><trkpt lat="42.624880317809996" lon="18.86595321627025"><ele>901.8</ele><time>2026-05-03T08:38:08Z</time></trkpt><trkpt lat="42.62498248583726" lon="18.865942857089003"><ele>906.6</ele><time>2026-05-03T08:38:09Z</time></trkpt><trkpt lat="42.625081788487314" lon="18.865907236343364"><ele>911.3999999999999</ele><time>2026-05-03T08:38:10Z</time></trkpt><trkpt lat="42.625179071641924" lon="18.86583783601245"><ele>916.1999999999999</ele><time>2026-05-03T08:38:11Z</time></trkpt><trkpt lat="42.625272152480775" lon="18.865736834660815"><ele>921.0</ele><time>2026-05-03T08:38:12Z</time></trkpt><trkpt lat="42.62536590567336" lon="18.86562349398654"><ele>921.75</ele><time>2026-05-03T08:38:13Z</time></trkpt><trkpt lat="42.6254538187399" lon="18.865532610857247"><ele>922.5</ele><time>2026-05-03T08:38:14Z</time></trkpt><trkpt lat="42.62555535250686" lon="18.865486588533983"><ele>923.25</ele><time>2026-05-03T08:38:15Z</time></trkpt><trkpt lat="42.625674047854254" lon="18.86548700126101"><ele>924.0</ele><time>2026-05-03T08:38:16Z</time></trkpt><trkpt lat="42.62579443748444" lon="18.865523612681503"><ele>924.0</ele><time>2026-05-03T08:38:17Z</time></trkpt><trkpt lat="42.62590023697189" lon="18.86560110550753"><ele>924.0</ele><time>2026-05-03T08:38:18Z</time></trkpt><trkpt lat="42.62599502851374" lon="18.865730238467677"><ele>924.0</ele><time>2026-05-03T08:38:19Z</time></trkpt><trkpt lat="42.62607514233383" lon="18.865888632481678"><ele>924.0</ele><time>2026-05-03T08:38:20Z</time></trkpt><trkpt lat="42.62614282452231" lon="18.86604017655037"><ele>924.2</ele><time>2026-05-03T08:38:21Z</time></trkpt><trkpt lat="42.62621354341561" lon="18.866166766552375"><ele>924.4000000000001</ele><time>2026-05-03T08:38:22Z</time></trkpt><trkpt lat="42.62629393960339" lon="18.866285993027862"><ele>924.6</ele><time>2026-05-03T08:38:23Z</time></trkpt><trkpt lat="42.62637379061694" lon="18.86639357346491"><ele>924.8</ele><time>2026-05-03T08:38:24Z</time></trkpt><trkpt lat="42.62644162188024" lon="18.866489949868164"><ele>925.0</ele><time>2026-05-03T08:38:25Z</time></trkpt><trkpt lat="42.62651244718542" lon="18.866564405189962"><ele>925.0</ele><time>2026-05-03T08:38:26Z</time></trkpt><trkpt lat="42.62659505399497" lon="18.86661444259175"><ele>925.0</ele><time>2026-05-03T08:38:27Z</time></trkpt><trkpt lat="42.62669105806671" lon="18.866646068260778"><ele>925.0</ele><time>2026-05-03T08:38:28Z</time></trkpt><trkpt lat="42.62679334894297" lon="18.86666656322911"><ele>925.0</ele><time>2026-05-03T08:38:29Z</time></trkpt><trkpt lat="42.62689636436784" lon="18.866687949271473"><ele>925.0</ele><time>2026-05-03T08:38:30Z</time></trkpt><trkpt lat="42.627005713640486" lon="18.86669700522345"><ele>926.75</ele><time>2026-05-03T08:38:31Z</time></trkpt><trkpt lat="42.627117688619826" lon="18.866689690505485"><ele>928.5</ele><time>2026-05-03T08:38:32Z</time></trkpt><trkpt lat="42.62723323890995" lon="18.866661490980967"><ele>930.25</ele><time>2026-05-03T08:38:33Z</time></trkpt><trkpt lat="42.62734930685654" lon="18.866631012533695"><ele>932.0</ele><time>2026-05-03T08:38:34Z</time></trkpt><trkpt lat="42.62746280576752" lon="18.866602948288598"><ele>932.0</ele><time>2026-05-03T08:38:35Z</time></trkpt><trkpt lat="42.627575786929576" lon="18.866571874243256"><ele>932.0</ele><time>2026-05-03T08:38:36Z</time></trkpt><trkpt lat="42.627688090258516" lon="18.866529669679284"><ele>932.0</ele><time>2026-05-03T08:38:37Z</time></trkpt><trkpt lat="42.62779852187931" lon="18.866468373781263"><ele>932.0</ele><time>2026-05-03T08:38:38Z</time></trkpt><trkpt lat="42.62790472547573" lon="18.866394696703875"><ele>934.25</ele><time>2026-05-03T08:38:39Z</time></trkpt><trkpt lat="42.628010749684165" lon="18.866323366437154"><ele>936.5</ele><time>2026-05-03T08:38:40Z</time></trkpt><trkpt lat="42.62811908484621" lon="18.866252118312897"><ele>938.75</ele><time>2026-05-03T08:38:41Z</time></trkpt><trkpt lat="42.628235991557574" lon="18.86617170332066"><ele>941.0</ele><time>2026-05-03T08:38:42Z</time></trkpt><trkpt lat="42.62835528684911" lon="18.86608913908771"><ele>941.0</ele><time>2026-05-03T08:38:43Z</time></trkpt><trkpt lat="42.628489356952656" lon="18.865999778366337"><ele>941.0</ele><time>2026-05-03T08:38:44Z</time></trkpt><trkpt lat="42.62863075705265" lon="18.865903090705526"><ele>941.0</ele><time>2026-05-03T08:38:45Z</time></trkpt><trkpt lat="42.62878137333626" lon="18.86580191943507"><ele>938.3333333333334</ele><time>2026-05-03T08:38:46Z</time></trkpt><trkpt lat="42.62894531636257" lon="18.865694194167364"><ele>935.6666666666667</ele><time>2026-05-03T08:38:47Z</time></trkpt><trkpt lat="42.62912531536007" lon="18.865580970480337"><ele>933.0</ele><time>2026-05-03T08:38:48Z</time></trkpt><trkpt lat="42.629316111157465" lon="18.86545980189055"><ele>934.0</ele><time>2026-05-03T08:38:49Z</time></trkpt><trkpt lat="42.62950921876196" lon="18.86532990549987"><ele>935.0</ele><time>2026-05-03T08:38:50Z</time></trkpt><trkpt lat="42.6296939658025" lon="18.865202750073138"><ele>936.0</ele><time>2026-05-03T08:38:51Z</time></trkpt><trkpt lat="42.62985489938138" lon="18.86508773085987"><ele>936.0</ele><time>2026-05-03T08:38:52Z</time></trkpt><trkpt lat="42.629993284280175" lon="18.86498765244899"><ele>936.0</ele><time>2026-05-03T08:38:53Z</time></trkpt><trkpt lat="42.63012634192412" lon="18.864923892306695"><ele>936.0</ele><time>2026-05-03T08:38:54Z</time></trkpt><trkpt lat="42.63025182328424" lon="18.864937439587198"><ele>936.0</ele><time>2026-05-03T08:38:55Z</time></trkpt><trkpt lat="42.630361034993655" lon="18.865008931610824"><ele>937.0</ele><time>2026-05-03T08:38:56Z</time></trkpt><trkpt lat="42.63046661073571" lon="18.865101388674912"><ele>938.0</ele><time>2026-05-03T08:38:57Z</time></trkpt><trkpt lat="42.63056777750142" lon="18.86516929846937"><ele>939.0</ele><time>2026-05-03T08:38:58Z</time></trkpt><trkpt lat="42.63067431320354" lon="18.86519720477459"><ele>940.0</ele><time>2026-05-03T08:38:59Z</time></trkpt><trkpt lat="42.63078596881241" lon="18.865184667582252"><ele>940.0</ele><time>2026-05-03T08:39:00Z</time></trkpt><trkpt lat="42.630903359602236" lon="18.86513125079385"><ele>940.0</ele><time>2026-05-03T08:39:01Z</time></trkpt><trkpt lat="42.63103256452678" lon="18.865072293388916"><ele>940.0</ele><time>2026-05-03T08:39:02Z</time></trkpt><trkpt lat="42.631178683764155" lon="18.865023318609513"><ele>940.0</ele><time>2026-05-03T08:39:03Z</time></trkpt><trkpt lat="42.6313215115068" lon="18.864982002684354"><ele>940.5</ele><time>2026-05-03T08:39:04Z</time></trkpt><trkpt lat="42.631475193934" lon="18.86492954891047"><ele>941.0</ele><time>2026-05-03T08:39:05Z</time></trkpt><trkpt lat="42.631605482798165" lon="18.864866176961872"><ele>941.5</ele><time>2026-05-03T08:39:06Z</time></trkpt><trkpt lat="42.63172263078873" lon="18.864761666834575"><ele>942.0</ele><time>2026-05-03T08:39:07Z</time></trkpt><trkpt lat="42.631824411376336" lon="18.86461714757087"><ele>942.0</ele><time>2026-05-03T08:39:08Z</time></trkpt><trkpt lat="42.631928836733195" lon="18.86443142857794"><ele>942.0</ele><time>2026-05-03T08:39:09Z</time></trkpt><trkpt lat="42.63206951750391" lon="18.864221470052783"><ele>942.0</ele><time>2026-05-03T08:39:10Z</time></trkpt><trkpt lat="42.63222791857474" lon="18.864008214223848"><ele>946.3333333333333</ele><time>2026-05-03T08:39:11Z</time></trkpt><trkpt lat="42.63235300307146" lon="18.86383501899042"><ele>950.6666666666666</ele><time>2026-05-03T08:39:12Z</time></trkpt><trkpt lat="42.632462359720904" lon="18.863687837545978"><ele>955.0</ele><time>2026-05-03T08:39:13Z</time></trkpt><trkpt lat="42.63256617079913" lon="18.863548752903522"><ele>954.0</ele><time>2026-05-03T08:39:14Z</time></trkpt><trkpt lat="42.63266634155865" lon="18.86343089270669"><ele>953.0</ele><time>2026-05-03T08:39:15Z</time></trkpt><trkpt lat="42.63275991822802" lon="18.863342003288643"><ele>952.0</ele><time>2026-05-03T08:39:16Z</time></trkpt><trkpt lat="42.63286164327049" lon="18.86327896399232"><ele>951.0</ele><time>2026-05-03T08:39:17Z</time></trkpt><trkpt lat="42.63298771381566" lon="18.86323270339792"><ele>953.75</ele><time>2026-05-03T08:39:18Z</time></trkpt><trkpt lat="42.633133141916026" lon="18.86319774546954"><ele>956.5</ele><time>2026-05-03T08:39:19Z</time></trkpt><trkpt lat="42.6332783198597" lon="18.86315266163439"><ele>959.25</ele><time>2026-05-03T08:39:20Z</time></trkpt><trkpt lat="42.63342410774322" lon="18.86309041780586"><ele>962.0</ele><time>2026-05-03T08:39:21Z</time></trkpt><trkpt lat="42.63356590927477" lon="18.862990428371944"><ele>962.6666666666667</ele><time>2026-05-03T08:39:22Z</time></trkpt><trkpt lat="42.63370393938465" lon="18.86285190228226"><ele>963.3333333333333</ele><time>2026-05-03T08:39:23Z</time></trkpt><trkpt lat="42.63384922432207" lon="18.862705718821065"><ele>964.0</ele><time>2026-05-03T08:39:24Z</time></trkpt><trkpt lat="42.63399552537118" lon="18.862561973727008"><ele>960.6666666666666</ele><time>2026-05-03T08:39:25Z</time></trkpt><trkpt lat="42.63413598732289" lon="18.86242973994008"><ele>957.3333333333333</ele><time>2026-05-03T08:39:26Z</time></trkpt><trkpt lat="42.63426253686349" lon="18.862311648649086"><ele>954.0</ele><time>2026-05-03T08:39:27Z</time></trkpt><trkpt lat="42.634380093396224" lon="18.8621787448918"><ele>955.0</ele><time>2026-05-03T08:39:28Z</time></trkpt><trkpt lat="42.63447972881751" lon="18.862021955634127"><ele>956.0</ele><time>2026-05-03T08:39:29Z</time></trkpt><trkpt lat="42.63456297091656" lon="18.86184955796676"><ele>957.0</ele><time>2026-05-03T08:39:30Z</time></trkpt><trkpt lat="42.63463323571495" lon="18.8616777063651"><ele>958.0</ele><time>2026-05-03T08:39:31Z</time></trkpt><trkpt lat="42.63468891865571" lon="18.86152302053095"><ele>958.0</ele><time>2026-05-03T08:39:32Z</time></trkpt><trkpt lat="42.63472197248882" lon="18.861362837578614"><ele>958.0</ele><time>2026-05-03T08:39:33Z</time></trkpt><trkpt lat="42.63474083693135" lon="18.861188646865564"><ele>958.0</ele><time>2026-05-03T08:39:34Z</time></trkpt><trkpt lat="42.63475342451871" lon="18.861019522134395"><ele>958.0</ele><time>2026-05-03T08:39:35Z</time></trkpt><trkpt lat="42.63478379488738" lon="18.860879719563197"><ele>958.4</ele><time>2026-05-03T08:39:36Z</time></trkpt><trkpt lat="42.63485211422902" lon="18.860790856836882"><ele>958.8</ele><time>2026-05-03T08:39:37Z</time></trkpt><trkpt lat="42.63494859294981" lon="18.86073067731945"><ele>959.2</ele><time>2026-05-03T08:39:38Z</time></trkpt><trkpt lat="42.635057588741624" lon="18.860725548968595"><ele>959.6</ele><time>2026-05-03T08:39:39Z</time></trkpt><trkpt lat="42.63516811434543" lon="18.860779534719224"><ele>960.0</ele><time>2026-05-03T08:39:40Z</time></trkpt><trkpt lat="42.63527199879706" lon="18.8608574255865"><ele>965.25</ele><time>2026-05-03T08:39:41Z</time></trkpt><trkpt lat="42.63537770538515" lon="18.86093772323308"><ele>970.5</ele><time>2026-05-03T08:39:42Z</time></trkpt><trkpt lat="42.635457947034034" lon="18.8610377818489"><ele>975.75</ele><time>2026-05-03T08:39:43Z</time></trkpt><trkpt lat="42.63550108910168" lon="18.86118002497458"><ele>981.0</ele><time>2026-05-03T08:39:44Z</time></trkpt><trkpt lat="42.63550578963619" lon="18.861360181318656"><ele>982.0</ele><time>2026-05-03T08:39:45Z</time></trkpt><trkpt lat="42.63549310551221" lon="18.861567810646257"><ele>983.0</ele><time>2026-05-03T08:39:46Z</time></trkpt><trkpt lat="42.635484533215696" lon="18.861771965461113"><ele>984.0</ele><time>2026-05-03T08:39:47Z</time></trkpt><trkpt lat="42.63547601945354" lon="18.861987107246197"><ele>985.25</ele><time>2026-05-03T08:39:48Z</time></trkpt><trkpt lat="42.635468130567574" lon="18.86219614088668"><ele>986.5</ele><time>2026-05-03T08:39:49Z</time></trkpt><trkpt lat="42.63545630817486" lon="18.862398683406955"><ele>987.75</ele><time>2026-05-03T08:39:50Z</time></trkpt><trkpt lat="42.63544128613149" lon="18.862589736639187"><ele>989.0</ele><time>2026-05-03T08:39:51Z</time></trkpt><trkpt lat="42.635411468371814" lon="18.862784814644527"><ele>990.0</ele><time>2026-05-03T08:39:52Z</time></trkpt><trkpt lat="42.63535707958766" lon="18.862970667301354"><ele>991.0</ele><time>2026-05-03T08:39:53Z</time></trkpt><trkpt lat="42.635296099396996" lon="18.86314889491388"><ele>992.0</ele><time>2026-05-03T08:39:54Z</time></trkpt><trkpt lat="42.6352567164173" lon="18.86330352700596"><ele>993.0</ele><time>2026-05-03T08:39:55Z</time></trkpt><trkpt lat="42.635239890367295" lon="18.86342255810037"><ele>991.2</ele><time>2026-05-03T08:39:56Z</time></trkpt><trkpt lat="42.63525427095179" lon="18.863530707992034"><ele>989.4</ele><time>2026-05-03T08:39:57Z</time></trkpt><trkpt lat="42.63529502686068" lon="18.86363942163853"><ele>987.6000000000001</ele><time>2026-05-03T08:39:58Z</time></trkpt><trkpt lat="42.63536076579217" lon="18.863739091140307"><ele>985.8000000000001</ele><time>2026-05-03T08:39:59Z</time></trkpt><trkpt lat="42.6354449874301" lon="18.86384078772379"><ele>984.0</ele><time>2026-05-03T08:40:00Z</time></trkpt><trkpt lat="42.63553732817672" lon="18.863932262695773"><ele>984.0</ele><time>2026-05-03T08:40:01Z</time></trkpt><trkpt lat="42.63564908353064" lon="18.864002186134393"><ele>984.0</ele><time>2026-05-03T08:40:02Z</time></trkpt><trkpt lat="42.63577293599667" lon="18.864063643518268"><ele>984.0</ele><time>2026-05-03T08:40:03Z</time></trkpt><trkpt lat="42.63590268133938" lon="18.864128637632014"><ele>984.0</ele><time>2026-05-03T08:40:04Z</time></trkpt><trkpt lat="42.63603092209157" lon="18.864187980124115"><ele>985.0</ele><time>2026-05-03T08:40:05Z</time></trkpt><trkpt lat="42.636148893999014" lon="18.8642482563221"><ele>986.0000000000001</ele><time>2026-05-03T08:40:06Z</time></trkpt><trkpt lat="42.636248751245525" lon="18.86429026159893"><ele>987.0000000000001</ele><time>2026-05-03T08:40:07Z</time></trkpt><trkpt lat="42.63634528194072" lon="18.864288679140394"><ele>988.0</ele><time>2026-05-03T08:40:08Z</time></trkpt><trkpt lat="42.63645361883047" lon="18.864245557638316"><ele>989.0</ele><time>2026-05-03T08:40:09Z</time></trkpt><trkpt lat="42.63656672947208" lon="18.864172115036084"><ele>989.0</ele><time>2026-05-03T08:40:10Z</time></trkpt><trkpt lat="42.6366940013256" lon="18.864095123149507"><ele>989.0</ele><time>2026-05-03T08:40:11Z</time></trkpt><trkpt lat="42.63682733268813" lon="18.864012318539366"><ele>989.0</ele><time>2026-05-03T08:40:12Z</time></trkpt><trkpt lat="42.636953360898865" lon="18.863911164179093"><ele>989.0</ele><time>2026-05-03T08:40:13Z</time></trkpt><trkpt lat="42.63706646714198" lon="18.86378124219711"><ele>986.0</ele><time>2026-05-03T08:40:14Z</time></trkpt><trkpt lat="42.63717365957258" lon="18.863641415408114"><ele>983.0</ele><time>2026-05-03T08:40:15Z</time></trkpt><trkpt lat="42.637270241390745" lon="18.86348736999872"><ele>980.0</ele><time>2026-05-03T08:40:16Z</time></trkpt><trkpt lat="42.63736007856329" lon="18.863311315639603"><ele>984.5</ele><time>2026-05-03T08:40:17Z</time></trkpt><trkpt lat="42.6374406759425" lon="18.863131558748545"><ele>989.0</ele><time>2026-05-03T08:40:18Z</time></trkpt><trkpt lat="42.637509432574696" lon="18.862981521066587"><ele>993.5</ele><time>2026-05-03T08:40:19Z</time></trkpt><trkpt lat="42.63758033321564" lon="18.862884484815467"><ele>998.0</ele><time>2026-05-03T08:40:20Z</time></trkpt><trkpt lat="42.63767062598372" lon="18.86286783364591"><ele>998.0</ele><time>2026-05-03T08:40:21Z</time></trkpt><trkpt lat="42.6377782234628" lon="18.862893900152883"><ele>998.0</ele><time>2026-05-03T08:40:22Z</time></trkpt><trkpt lat="42.63788967852075" lon="18.862939931990123"><ele>998.0</ele><time>2026-05-03T08:40:23Z</time></trkpt><trkpt lat="42.638014771856184" lon="18.862959999853597"><ele>998.0</ele><time>2026-05-03T08:40:24Z</time></trkpt><trkpt lat="42.63814758745519" lon="18.862940992499404"><ele>998.6666666666667</ele><time>2026-05-03T08:40:25Z</time></trkpt><trkpt lat="42.63829075912793" lon="18.862896091391217"><ele>999.3333333333333</ele><time>2026-05-03T08:40:26Z</time></trkpt><trkpt lat="42.638442859739534" lon="18.862850030563788"><ele>1000.0</ele><time>2026-05-03T08:40:27Z</time></trkpt><trkpt lat="42.63858831246714" lon="18.862808164401525"><ele>1002.0</ele><time>2026-05-03T08:40:28Z</time></trkpt><trkpt lat="42.63872069481227" lon="18.862767274304755"><ele>1004.0</ele><time>2026-05-03T08:40:29Z</time></trkpt><trkpt lat="42.63885192099811" lon="18.862732691829073"><ele>1006.0</ele><time>2026-05-03T08:40:30Z</time></trkpt><trkpt lat="42.638978232762504" lon="18.86271998575118"><ele>1008.0</ele><time>2026-05-03T08:40:31Z</time></trkpt><trkpt lat="42.63910295105667" lon="18.862741974941162"><ele>1008.0</ele><time>2026-05-03T08:40:32Z</time></trkpt><trkpt lat="42.639218198906406" lon="18.862807389145125"><ele>1008.0</ele><time>2026-05-03T08:40:33Z</time></trkpt><trkpt lat="42.639328447071364" lon="18.862901532094664"><ele>1008.0</ele><time>2026-05-03T08:40:34Z</time></trkpt><trkpt lat="42.63944163273384" lon="18.863024132252388"><ele>1008.0</ele><time>2026-05-03T08:40:35Z</time></trkpt><trkpt lat="42.63956070038144" lon="18.86316888853976"><ele>1011.0</ele><time>2026-05-03T08:40:36Z</time></trkpt><trkpt lat="42.63968784247368" lon="18.86331803490646"><ele>1014.0</ele><time>2026-05-03T08:40:37Z</time></trkpt><trkpt lat="42.639828732283384" lon="18.863477159829092"><ele>1017.0</ele><time>2026-05-03T08:40:38Z</time></trkpt><trkpt lat="42.63997450501357" lon="18.86364274992294"><ele>1017.0</ele><time>2026-05-03T08:40:39Z</time></trkpt><trkpt lat="42.64012750387877" lon="18.863828217845935"><ele>1017.0</ele><time>2026-05-03T08:40:40Z</time></trkpt><trkpt lat="42.640271634073336" lon="18.864015375628004"><ele>1017.0</ele><time>2026-05-03T08:40:41Z</time></trkpt><trkpt lat="42.64039770772699" lon="18.864193506108982"><ele>1022.5</ele><time>2026-05-03T08:40:42Z</time></trkpt><trkpt lat="42.64050789777681" lon="18.864345058833727"><ele>1028.0</ele><time>2026-05-03T08:40:43Z</time></trkpt><trkpt lat="42.64059818775675" lon="18.864456972991487"><ele>1033.5</ele><time>2026-05-03T08:40:44Z</time></trkpt><trkpt lat="42.64068175372456" lon="18.864520881888485"><ele>1039.0</ele><time>2026-05-03T08:40:45Z</time></trkpt><trkpt lat="42.64078699270862" lon="18.864559228795244"><ele>1039.0</ele><time>2026-05-03T08:40:46Z</time></trkpt><trkpt lat="42.64090848192054" lon="18.864575099110773"><ele>1039.0</ele><time>2026-05-03T08:40:47Z</time></trkpt><trkpt lat="42.64103867255194" lon="18.864572319109282"><ele>1039.0</ele><time>2026-05-03T08:40:48Z</time></trkpt><trkpt lat="42.64117867529489" lon="18.86457061929453"><ele>1039.0</ele><time>2026-05-03T08:40:49Z</time></trkpt><trkpt lat="42.64131770813604" lon="18.86460487914906"><ele>1039.75</ele><time>2026-05-03T08:40:50Z</time></trkpt><trkpt lat="42.641445162233836" lon="18.864650083003053"><ele>1040.5</ele><time>2026-05-03T08:40:51Z</time></trkpt><trkpt lat="42.64155786137327" lon="18.86468917215565"><ele>1041.25</ele><time>2026-05-03T08:40:52Z</time></trkpt><trkpt lat="42.64167079179782" lon="18.864768163128833"><ele>1042.0</ele><time>2026-05-03T08:40:53Z</time></trkpt><trkpt lat="42.6417912033218" lon="18.864872730644596"><ele>1042.0</ele><time>2026-05-03T08:40:54Z</time></trkpt><trkpt lat="42.6419182647961" lon="18.86497449113882"><ele>1042.0</ele><time>2026-05-03T08:40:55Z</time></trkpt><trkpt lat="42.64205592464714" lon="18.865054767610584"><ele>1042.0</ele><time>2026-05-03T08:40:56Z</time></trkpt><trkpt lat="42.64219985562398" lon="18.865104621394902"><ele>1042.0</ele><time>2026-05-03T08:40:57Z</time></trkpt><trkpt lat="42.64234967011929" lon="18.865145470799998"><ele>1043.3333333333333</ele><time>2026-05-03T08:40:58Z</time></trkpt><trkpt lat="42.642514648917135" lon="18.865164380005158"><ele>1044.6666666666667</ele><time>2026-05-03T08:40:59Z</time></trkpt><trkpt lat="42.64269739427799" lon="18.86518685065106"><ele>1046.0</ele><time>2026-05-03T08:41:00Z</time></trkpt><trkpt lat="42.64286625243926" lon="18.865212808155032"><ele>1046.6666666666667</ele><time>2026-05-03T08:41:01Z</time></trkpt><trkpt lat="42.643042883233846" lon="18.865244851154685"><ele>1047.3333333333333</ele><time>2026-05-03T08:41:02Z</time></trkpt><trkpt lat="42.64321219110056" lon="18.86527740459208"><ele>1048.0</ele><time>2026-05-03T08:41:03Z</time></trkpt><trkpt lat="42.643381268111966" lon="18.86530775412958"><ele>1048.0</ele><time>2026-05-03T08:41:04Z</time></trkpt><trkpt lat="42.64355569770927" lon="18.86532740980687"><ele>1048.0</ele><time>2026-05-03T08:41:05Z</time></trkpt><trkpt lat="42.64372005919782" lon="18.865334091562236"><ele>1048.0</ele><time>2026-05-03T08:41:06Z</time></trkpt><trkpt lat="42.64386487402717" lon="18.865342705415756"><ele>1047.5</ele><time>2026-05-03T08:41:07Z</time></trkpt><trkpt lat="42.643992072599936" lon="18.865341842567712"><ele>1047.0</ele><time>2026-05-03T08:41:08Z</time></trkpt><trkpt lat="42.644103367016314" lon="18.86531779817961"><ele>1046.5</ele><time>2026-05-03T08:41:09Z</time></trkpt><trkpt lat="42.644215036168" lon="18.865262231331446"><ele>1046.0</ele><time>2026-05-03T08:41:10Z</time></trkpt><trkpt lat="42.644336773367456" lon="18.865188923772955"><ele>1046.0</ele><time>2026-05-03T08:41:11Z</time></trkpt><trkpt lat="42.6444434925581" lon="18.86512551148777"><ele>1046.0</ele><time>2026-05-03T08:41:12Z</time></trkpt><trkpt lat="42.644555701016436" lon="18.865110548648264"><ele>1046.0</ele><time>2026-05-03T08:41:13Z</time></trkpt><trkpt lat="42.6446687393561" lon="18.865146779088676"><ele>1046.0</ele><time>2026-05-03T08:41:14Z</time></trkpt><trkpt lat="42.64477728566226" lon="18.865227405946044"><ele>1044.5</ele><time>2026-05-03T08:41:15Z</time></trkpt><trkpt lat="42.64488111387027" lon="18.86532171326984"><ele>1043.0</ele><time>2026-05-03T08:41:16Z</time></trkpt><trkpt lat="42.6449901311615" lon="18.865415407878462"><ele>1041.5</ele><time>2026-05-03T08:41:17Z</time></trkpt><trkpt lat="42.64511234404501" lon="18.86549541751045"><ele>1040.0</ele><time>2026-05-03T08:41:18Z</time></trkpt><trkpt lat="42.64523900868444" lon="18.8655848684094"><ele>1041.25</ele><time>2026-05-03T08:41:19Z</time></trkpt><trkpt lat="42.645378014539226" lon="18.865662087561958"><ele>1042.5</ele><time>2026-05-03T08:41:20Z</time></trkpt><trkpt lat="42.645518752914754" lon="18.865723740454023"><ele>1043.75</ele><time>2026-05-03T08:41:21Z</time></trkpt><trkpt lat="42.64565428778347" lon="18.86578229500942"><ele>1045.0</ele><time>2026-05-03T08:41:22Z</time></trkpt><trkpt lat="42.6457921424532" lon="18.865838905099405"><ele>1045.0</ele><time>2026-05-03T08:41:23Z</time></trkpt><trkpt lat="42.64592055362633" lon="18.865896926799355"><ele>1045.0</ele><time>2026-05-03T08:41:24Z</time></trkpt><trkpt lat="42.64603708883689" lon="18.865957658549963"><ele>1045.0</ele><time>2026-05-03T08:41:25Z</time></trkpt><trkpt lat="42.64615675300772" lon="18.86603857241442"><ele>1045.0</ele><time>2026-05-03T08:41:26Z</time></trkpt><trkpt lat="42.64627801345933" lon="18.866148934393493"><ele>1047.0</ele><time>2026-05-03T08:41:27Z</time></trkpt><trkpt lat="42.646406410244296" lon="18.866257177597713"><ele>1049.0</ele><time>2026-05-03T08:41:28Z</time></trkpt><trkpt lat="42.64653439413167" lon="18.866359868203922"><ele>1051.0</ele><time>2026-05-03T08:41:29Z</time></trkpt><trkpt lat="42.64665932795002" lon="18.86644552763314"><ele>1053.0</ele><time>2026-05-03T08:41:30Z</time></trkpt><trkpt lat="42.6467745234087" lon="18.86651789889389"><ele>1053.0</ele><time>2026-05-03T08:41:31Z</time></trkpt><trkpt lat="42.64687635782661" lon="18.866564131991794"><ele>1053.0</ele><time>2026-05-03T08:41:32Z</time></trkpt><trkpt lat="42.64697377236768" lon="18.866568735871134"><ele>1053.0</ele><time>2026-05-03T08:41:33Z</time></trkpt><trkpt lat="42.64708126683905" lon="18.866541464164413"><ele>1053.0</ele><time>2026-05-03T08:41:34Z</time></trkpt><trkpt lat="42.647198375177084" lon="18.866480863412303"><ele>1053.0</ele><time>2026-05-03T08:41:35Z</time></trkpt><trkpt lat="42.647327545190734" lon="18.866403915455567"><ele>1057.0</ele><time>2026-05-03T08:41:36Z</time></trkpt><trkpt lat="42.64746934198907" lon="18.866327019734317"><ele>1061.0</ele><time>2026-05-03T08:41:37Z</time></trkpt><trkpt lat="42.64761282156692" lon="18.866244102308254"><ele>1065.0</ele><time>2026-05-03T08:41:38Z</time></trkpt><trkpt lat="42.64774799892133" lon="18.866122539152265"><ele>1065.0</ele><time>2026-05-03T08:41:39Z</time></trkpt><trkpt lat="42.64788729202362" lon="18.865990575399664"><ele>1065.0</ele><time>2026-05-03T08:41:40Z</time></trkpt><trkpt lat="42.64803220723018" lon="18.865854171855535"><ele>1065.0</ele><time>2026-05-03T08:41:41Z</time></trkpt><trkpt lat="42.64817306193377" lon="18.865719914760074"><ele>1065.0</ele><time>2026-05-03T08:41:42Z</time></trkpt><trkpt lat="42.64830533652213" lon="18.865592639273117"><ele>1065.0</ele><time>2026-05-03T08:41:43Z</time></trkpt><trkpt lat="42.64843285875562" lon="18.86547461326917"><ele>1065.0</ele><time>2026-05-03T08:41:44Z</time></trkpt><trkpt lat="42.64854742425494" lon="18.865369016762628"><ele>1064.75</ele><time>2026-05-03T08:41:45Z</time></trkpt><trkpt lat="42.64865739929892" lon="18.865246973266366"><ele>1064.5</ele><time>2026-05-03T08:41:46Z</time></trkpt><trkpt lat="42.64873693790228" lon="18.865095407755508"><ele>1064.25</ele><time>2026-05-03T08:41:47Z</time></trkpt><trkpt lat="42.64880037125968" lon="18.864951991071155"><ele>1064.0</ele><time>2026-05-03T08:41:48Z</time></trkpt><trkpt lat="42.648882530281675" lon="18.864850321316876"><ele>1064.0</ele><time>2026-05-03T08:41:49Z</time></trkpt><trkpt lat="42.64899479544383" lon="18.86478623164394"><ele>1064.0</ele><time>2026-05-03T08:41:50Z</time></trkpt><trkpt lat="42.64911274584947" lon="18.86475615030643"><ele>1064.0</ele><time>2026-05-03T08:41:51Z</time></trkpt><trkpt lat="42.64923318747882" lon="18.864762465594513"><ele>1064.0</ele><time>2026-05-03T08:41:52Z</time></trkpt><trkpt lat="42.6493480857939" lon="18.86479678575183"><ele>1062.75</ele><time>2026-05-03T08:41:53Z</time></trkpt><trkpt lat="42.64946846933397" lon="18.86484341796183"><ele>1061.5</ele><time>2026-05-03T08:41:54Z</time></trkpt><trkpt lat="42.64958965060198" lon="18.8649103994391"><ele>1060.25</ele><time>2026-05-03T08:41:55Z</time></trkpt><trkpt lat="42.64971493334776" lon="18.86497989309348"><ele>1059.0</ele><time>2026-05-03T08:41:56Z</time></trkpt><trkpt lat="42.64983409136437" lon="18.865046812456544"><ele>1057.8</ele><time>2026-05-03T08:41:57Z</time></trkpt><trkpt lat="42.64994296442221" lon="18.86512068570633"><ele>1056.6000000000001</ele><time>2026-05-03T08:41:58Z</time></trkpt><trkpt lat="42.65004704899437" lon="18.865188011410712"><ele>1055.4</ele><time>2026-05-03T08:41:59Z</time></trkpt><trkpt lat="42.6501311140823" lon="18.86525368524426"><ele>1054.2</ele><time>2026-05-03T08:42:00Z</time></trkpt><trkpt lat="42.6502164073717" lon="18.8653253549699"><ele>1053.0</ele><time>2026-05-03T08:42:01Z</time></trkpt><trkpt lat="42.65031520441035" lon="18.865412610951342"><ele>1053.0</ele><time>2026-05-03T08:42:02Z</time></trkpt><trkpt lat="42.650414716753815" lon="18.865522953587295"><ele>1053.0</ele><time>2026-05-03T08:42:03Z</time></trkpt><trkpt lat="42.650521923970786" lon="18.865636905954187"><ele>1053.0</ele><time>2026-05-03T08:42:04Z</time></trkpt><trkpt lat="42.65062539510553" lon="18.865746528455038"><ele>1053.0</ele><time>2026-05-03T08:42:05Z</time></trkpt><trkpt lat="42.6507359693555" lon="18.86583530140943"><ele>1053.0</ele><time>2026-05-03T08:42:06Z</time></trkpt><trkpt lat="42.650839652399945" lon="18.8658869765639"><ele>1053.0</ele><time>2026-05-03T08:42:07Z</time></trkpt><trkpt lat="42.65093607755137" lon="18.86591405553931"><ele>1053.0</ele><time>2026-05-03T08:42:08Z</time></trkpt><trkpt lat="42.65103316312656" lon="18.86590810420031"><ele>1053.0</ele><time>2026-05-03T08:42:09Z</time></trkpt><trkpt lat="42.65114975297554" lon="18.86588945806479"><ele>1053.0</ele><time>2026-05-03T08:42:10Z</time></trkpt><trkpt lat="42.651259296123364" lon="18.865874041477237"><ele>1054.0</ele><time>2026-05-03T08:42:11Z</time></trkpt><trkpt lat="42.65136059600876" lon="18.86584491851365"><ele>1055.0</ele><time>2026-05-03T08:42:12Z</time></trkpt><trkpt lat="42.65145980635512" lon="18.865789692829395"><ele>1056.0</ele><time>2026-05-03T08:42:13Z</time></trkpt><trkpt lat="42.651556517412295" lon="18.865707595257575"><ele>1057.0</ele><time>2026-05-03T08:42:14Z</time></trkpt><trkpt lat="42.65164271544193" lon="18.86564228126366"><ele>1058.0</ele><time>2026-05-03T08:42:15Z</time></trkpt><trkpt lat="42.65174056315569" lon="18.865591435623628"><ele>1058.0</ele><time>2026-05-03T08:42:16Z</time></trkpt><trkpt lat="42.6518358112141" lon="18.86555697250633"><ele>1058.0</ele><time>2026-05-03T08:42:17Z</time></trkpt><trkpt lat="42.6519253525677" lon="18.865522932194946"><ele>1058.0</ele><time>2026-05-03T08:42:18Z</time></trkpt><trkpt lat="42.652014996164084" lon="18.865484541541484"><ele>1058.0</ele><time>2026-05-03T08:42:19Z</time></trkpt><trkpt lat="42.65210151116196" lon="18.865453592612113"><ele>1058.0</ele><time>2026-05-03T08:42:20Z</time></trkpt><trkpt lat="42.65219239914974" lon="18.865431912800755"><ele>1060.2</ele><time>2026-05-03T08:42:21Z</time></trkpt><trkpt lat="42.652283874925345" lon="18.86540416363291"><ele>1062.4</ele><time>2026-05-03T08:42:22Z</time></trkpt><trkpt lat="42.65237130621819" lon="18.865350582116534"><ele>1064.6000000000001</ele><time>2026-05-03T08:42:23Z</time></trkpt><trkpt lat="42.65246735044417" lon="18.865287274964338"><ele>1066.8</ele><time>2026-05-03T08:42:24Z</time></trkpt><trkpt lat="42.65255531501142" lon="18.86520851337605"><ele>1069.0</ele><time>2026-05-03T08:42:25Z</time></trkpt><trkpt lat="42.65264941333457" lon="18.86511745353545"><ele>1066.5</ele><time>2026-05-03T08:42:26Z</time></trkpt><trkpt lat="42.652736810680146" lon="18.865008873113336"><ele>1064.0</ele><time>2026-05-03T08:42:27Z</time></trkpt><trkpt lat="42.65283391881246" lon="18.864917346864356"><ele>1061.5</ele><time>2026-05-03T08:42:28Z</time></trkpt><trkpt lat="42.65294514199872" lon="18.864843786793347"><ele>1059.0</ele><time>2026-05-03T08:42:29Z</time></trkpt><trkpt lat="42.65305840217954" lon="18.864797707616862"><ele>1059.0</ele><time>2026-05-03T08:42:30Z</time></trkpt><trkpt lat="42.653167726328974" lon="18.86475625909278"><ele>1059.0</ele><time>2026-05-03T08:42:31Z</time></trkpt><trkpt lat="42.65325333601385" lon="18.864716844546557"><ele>1059.0</ele><time>2026-05-03T08:42:32Z</time></trkpt><trkpt lat="42.65333492497225" lon="18.8647122987173"><ele>1059.0</ele><time>2026-05-03T08:42:33Z</time></trkpt><trkpt lat="42.653433549794734" lon="18.86475315494964"><ele>1059.0</ele><time>2026-05-03T08:42:34Z</time></trkpt><trkpt lat="42.653550397557936" lon="18.864796801005763"><ele>1059.0</ele><time>2026-05-03T08:42:35Z</time></trkpt><trkpt lat="42.653674422985326" lon="18.864804284884272"><ele>1059.0</ele><time>2026-05-03T08:42:36Z</time></trkpt><trkpt lat="42.65377869927239" lon="18.86481422921046"><ele>1059.0</ele><time>2026-05-03T08:42:37Z</time></trkpt><trkpt lat="42.65385979221198" lon="18.864885710670638"><ele>1059.0</ele><time>2026-05-03T08:42:38Z</time></trkpt><trkpt lat="42.65392114265399" lon="18.865000821749785"><ele>1059.0</ele><time>2026-05-03T08:42:39Z</time></trkpt><trkpt lat="42.6539866422711" lon="18.865118777674507"><ele>1059.4</ele><time>2026-05-03T08:42:40Z</time></trkpt><trkpt lat="42.65405787169229" lon="18.865218683369214"><ele>1059.8000000000002</ele><time>2026-05-03T08:42:41Z</time></trkpt><trkpt lat="42.654107021762876" lon="18.86531057701279"><ele>1060.1999999999998</ele><time>2026-05-03T08:42:42Z</time></trkpt><trkpt lat="42.6541114155021" lon="18.86543157183905"><ele>1060.6</ele><time>2026-05-03T08:42:43Z</time></trkpt><trkpt lat="42.65410127468403" lon="18.865572272458927"><ele>1061.0</ele><time>2026-05-03T08:42:44Z</time></trkpt><trkpt lat="42.65409604249055" lon="18.865723210840486"><ele>1061.0</ele><time>2026-05-03T08:42:45Z</time></trkpt><trkpt lat="42.65405967029429" lon="18.86588313442524"><ele>1061.0</ele><time>2026-05-03T08:42:46Z</time></trkpt><trkpt lat="42.65399553116027" lon="18.86601512492075"><ele>1061.0</ele><time>2026-05-03T08:42:47Z</time></trkpt><trkpt lat="42.65391511214953" lon="18.866127078291978"><ele>1061.0</ele><time>2026-05-03T08:42:48Z</time></trkpt><trkpt lat="42.65386640680678" lon="18.866248604429565"><ele>1062.3999999999999</ele><time>2026-05-03T08:42:49Z</time></trkpt><trkpt lat="42.653879732187136" lon="18.866387690246263"><ele>1063.8</ele><time>2026-05-03T08:42:50Z</time></trkpt><trkpt lat="42.65392977662736" lon="18.86652623658699"><ele>1065.1999999999998</ele><time>2026-05-03T08:42:51Z</time></trkpt><trkpt lat="42.65399480854787" lon="18.866638644733513"><ele>1066.6</ele><time>2026-05-03T08:42:52Z</time></trkpt><trkpt lat="42.65407079753417" lon="18.86671344504006"><ele>1068.0</ele><time>2026-05-03T08:42:53Z</time></trkpt><trkpt lat="42.6541689330514" lon="18.866718374858507"><ele>1068.0</ele><time>2026-05-03T08:42:54Z</time></trkpt><trkpt lat="42.65426736949644" lon="18.86665705191328"><ele>1068.0</ele><time>2026-05-03T08:42:55Z</time></trkpt><trkpt lat="42.65435928229117" lon="18.866549864892256"><ele>1068.0</ele><time>2026-05-03T08:42:56Z</time></trkpt><trkpt lat="42.65443846303599" lon="18.8664279709695"><ele>1068.0</ele><time>2026-05-03T08:42:57Z</time></trkpt><trkpt lat="42.654513121174716" lon="18.86633674667594"><ele>1068.0</ele><time>2026-05-03T08:42:58Z</time></trkpt><trkpt lat="42.65461501171175" lon="18.86630944930319"><ele>1069.25</ele><time>2026-05-03T08:42:59Z</time></trkpt><trkpt lat="42.654737223820455" lon="18.866327292957504"><ele>1070.5</ele><time>2026-05-03T08:43:00Z</time></trkpt><trkpt lat="42.65486820306424" lon="18.86632151153499"><ele>1071.75</ele><time>2026-05-03T08:43:01Z</time></trkpt><trkpt lat="42.65497676567746" lon="18.866273886405114"><ele>1073.0</ele><time>2026-05-03T08:43:02Z</time></trkpt><trkpt lat="42.65505517110651" lon="18.866169681697873"><ele>1073.0</ele><time>2026-05-03T08:43:03Z</time></trkpt><trkpt lat="42.65511944680216" lon="18.866024281430633"><ele>1073.0</ele><time>2026-05-03T08:43:04Z</time></trkpt><trkpt lat="42.65519025514458" lon="18.865881684200527"><ele>1073.0</ele><time>2026-05-03T08:43:05Z</time></trkpt><trkpt lat="42.655278668709144" lon="18.865782919405838"><ele>1073.0</ele><time>2026-05-03T08:43:06Z</time></trkpt><trkpt lat="42.65539246785557" lon="18.865716925085408"><ele>1071.5</ele><time>2026-05-03T08:43:07Z</time></trkpt><trkpt lat="42.655523458723714" lon="18.865661845763164"><ele>1070.0</ele><time>2026-05-03T08:43:08Z</time></trkpt><trkpt lat="42.65562577680363" lon="18.865601357832055"><ele>1068.5</ele><time>2026-05-03T08:43:09Z</time></trkpt><trkpt lat="42.65570465250055" lon="18.865511132571395"><ele>1067.0</ele><time>2026-05-03T08:43:10Z</time></trkpt><trkpt lat="42.655745173403346" lon="18.865377125643406"><ele>1067.0</ele><time>2026-05-03T08:43:11Z</time></trkpt><trkpt lat="42.655753087734155" lon="18.865214649653737"><ele>1067.0</ele><time>2026-05-03T08:43:12Z</time></trkpt><trkpt lat="42.655779754478196" lon="18.86507804112959"><ele>1067.0</ele><time>2026-05-03T08:43:13Z</time></trkpt><trkpt lat="42.65584970285797" lon="18.864980746083273"><ele>1067.0</ele><time>2026-05-03T08:43:14Z</time></trkpt><trkpt lat="42.65594580882091" lon="18.864889355133286"><ele>1067.0</ele><time>2026-05-03T08:43:15Z</time></trkpt><trkpt lat="42.6560395607743" lon="18.864803629978358"><ele>1067.2</ele><time>2026-05-03T08:43:16Z</time></trkpt><trkpt lat="42.65612764079421" lon="18.864734139508606"><ele>1067.4</ele><time>2026-05-03T08:43:17Z</time></trkpt><trkpt lat="42.65622131280399" lon="18.864692111054907"><ele>1067.6</ele><time>2026-05-03T08:43:18Z</time></trkpt><trkpt lat="42.65631293640991" lon="18.864684231746633"><ele>1067.8</ele><time>2026-05-03T08:43:19Z</time></trkpt><trkpt lat="42.65640286531159" lon="18.86471267000546"><ele>1068.0</ele><time>2026-05-03T08:43:20Z</time></trkpt><trkpt lat="42.65649141535833" lon="18.864763397112526"><ele>1068.0</ele><time>2026-05-03T08:43:21Z</time></trkpt><trkpt lat="42.656584501177925" lon="18.86484119216304"><ele>1068.0</ele><time>2026-05-03T08:43:22Z</time></trkpt><trkpt lat="42.65667216775122" lon="18.864931112859438"><ele>1068.0</ele><time>2026-05-03T08:43:23Z</time></trkpt><trkpt lat="42.65677590911486" lon="18.8650051579653"><ele>1068.0</ele><time>2026-05-03T08:43:24Z</time></trkpt><trkpt lat="42.656886949878924" lon="18.865058746620733"><ele>1065.25</ele><time>2026-05-03T08:43:25Z</time></trkpt><trkpt lat="42.65699258811498" lon="18.865068133842463"><ele>1062.5</ele><time>2026-05-03T08:43:26Z</time></trkpt><trkpt lat="42.65711442476513" lon="18.865073753969238"><ele>1059.75</ele><time>2026-05-03T08:43:27Z</time></trkpt><trkpt lat="42.657219361804565" lon="18.8650310632582"><ele>1057.0</ele><time>2026-05-03T08:43:28Z</time></trkpt><trkpt lat="42.65732085366213" lon="18.86496281018901"><ele>1057.0</ele><time>2026-05-03T08:43:29Z</time></trkpt><trkpt lat="42.6574225997289" lon="18.864859971472228"><ele>1057.0</ele><time>2026-05-03T08:43:30Z</time></trkpt><trkpt lat="42.657522580093485" lon="18.864759538575285"><ele>1057.0</ele><time>2026-05-03T08:43:31Z</time></trkpt><trkpt lat="42.657610620618705" lon="18.86467350852099"><ele>1057.0</ele><time>2026-05-03T08:43:32Z</time></trkpt><trkpt lat="42.65767567565203" lon="18.864572962051035"><ele>1057.0</ele><time>2026-05-03T08:43:33Z</time></trkpt><trkpt lat="42.65770407720805" lon="18.864465065899097"><ele>1057.0</ele><time>2026-05-03T08:43:34Z</time></trkpt><trkpt lat="42.65769652300913" lon="18.864332577054057"><ele>1057.0</ele><time>2026-05-03T08:43:35Z</time></trkpt><trkpt lat="42.65765755374584" lon="18.864207855043617"><ele>1057.0</ele><time>2026-05-03T08:43:36Z</time></trkpt><trkpt lat="42.65761054954661" lon="18.86407286200356"><ele>1057.0</ele><time>2026-05-03T08:43:37Z</time></trkpt><trkpt lat="42.657587111843114" lon="18.863939822206863"><ele>1057.0</ele><time>2026-05-03T08:43:38Z</time></trkpt><trkpt lat="42.65760239801989" lon="18.863798033741237"><ele>1057.0</ele><time>2026-05-03T08:43:39Z</time></trkpt><trkpt lat="42.65763355070302" lon="18.863655487783188"><ele>1057.0</ele><time>2026-05-03T08:43:40Z</time></trkpt><trkpt lat="42.65766297960533" lon="18.86351124436822"><ele>1057.0</ele><time>2026-05-03T08:43:41Z</time></trkpt><trkpt lat="42.65769991159067" lon="18.863372470006837"><ele>1057.0</ele><time>2026-05-03T08:43:42Z</time></trkpt><trkpt lat="42.65775580267901" lon="18.863249703554843"><ele>1058.5</ele><time>2026-05-03T08:43:43Z</time></trkpt><trkpt lat="42.65783222945216" lon="18.863128033809545"><ele>1060.0</ele><time>2026-05-03T08:43:44Z</time></trkpt><trkpt lat="42.657917821818046" lon="18.863027238659505"><ele>1061.5</ele><time>2026-05-03T08:43:45Z</time></trkpt><trkpt lat="42.65801668625695" lon="18.86293802073527"><ele>1063.0</ele><time>2026-05-03T08:43:46Z</time></trkpt><trkpt lat="42.658113634842636" lon="18.862843765226206"><ele>1063.0</ele><time>2026-05-03T08:43:47Z</time></trkpt><trkpt lat="42.65821115664893" lon="18.86275316372841"><ele>1063.0</ele><time>2026-05-03T08:43:48Z</time></trkpt><trkpt lat="42.658309903603936" lon="18.86267275123724"><ele>1063.0</ele><time>2026-05-03T08:43:49Z</time></trkpt><trkpt lat="42.65840310057063" lon="18.862602230481873"><ele>1063.0</ele><time>2026-05-03T08:43:50Z</time></trkpt><trkpt lat="42.658481323182045" lon="18.862495476513843"><ele>1062.0</ele><time>2026-05-03T08:43:51Z</time></trkpt><trkpt lat="42.658539557570855" lon="18.86236299046732"><ele>1061.0</ele><time>2026-05-03T08:43:52Z</time></trkpt><trkpt lat="42.6585863114299" lon="18.86222087798374"><ele>1060.0</ele><time>2026-05-03T08:43:53Z</time></trkpt><trkpt lat="42.65863015528505" lon="18.862078681377653"><ele>1059.0</ele><time>2026-05-03T08:43:54Z</time></trkpt><trkpt lat="42.65869212175249" lon="18.86196542561529"><ele>1058.0</ele><time>2026-05-03T08:43:55Z</time></trkpt><trkpt lat="42.65877807546274" lon="18.86190443439492"><ele>1058.0</ele><time>2026-05-03T08:43:56Z</time></trkpt><trkpt lat="42.65888651298579" lon="18.861885863103197"><ele>1058.0</ele><time>2026-05-03T08:43:57Z</time></trkpt><trkpt lat="42.65900154419018" lon="18.86187200256232"><ele>1058.0</ele><time>2026-05-03T08:43:58Z</time></trkpt><trkpt lat="42.65911780450826" lon="18.861818764899144"><ele>1058.0</ele><time>2026-05-03T08:43:59Z</time></trkpt><trkpt lat="42.65921778104316" lon="18.861722246916734"><ele>1057.4</ele><time>2026-05-03T08:44:00Z</time></trkpt><trkpt lat="42.65931364617013" lon="18.86163361058106"><ele>1056.8</ele><time>2026-05-03T08:44:01Z</time></trkpt><trkpt lat="42.659410646972304" lon="18.861559885320776"><ele>1056.2</ele><time>2026-05-03T08:44:02Z</time></trkpt><trkpt lat="42.65950208143954" lon="18.86150781613357"><ele>1055.6</ele><time>2026-05-03T08:44:03Z</time></trkpt><trkpt lat="42.6596147921954" lon="18.861473584790307"><ele>1055.0</ele><time>2026-05-03T08:44:04Z</time></trkpt><trkpt lat="42.65973314249242" lon="18.861455997371298"><ele>1055.0</ele><time>2026-05-03T08:44:05Z</time></trkpt><trkpt lat="42.65985414480849" lon="18.861451033772827"><ele>1055.0</ele><time>2026-05-03T08:44:06Z</time></trkpt><trkpt lat="42.6599707689023" lon="18.861472140976435"><ele>1055.0</ele><time>2026-05-03T08:44:07Z</time></trkpt><trkpt lat="42.660073744357646" lon="18.861531638040475"><ele>1055.0</ele><time>2026-05-03T08:44:08Z</time></trkpt><trkpt lat="42.66016375228724" lon="18.86163837752801"><ele>1055.0</ele><time>2026-05-03T08:44:09Z</time></trkpt><trkpt lat="42.660245567558846" lon="18.86177148453277"><ele>1055.0</ele><time>2026-05-03T08:44:10Z</time></trkpt><trkpt lat="42.66036237182394" lon="18.861868867835458"><ele>1055.0</ele><time>2026-05-03T08:44:11Z</time></trkpt><trkpt lat="42.66049276473216" lon="18.861945179644632"><ele>1055.0</ele><time>2026-05-03T08:44:12Z</time></trkpt><trkpt lat="42.660623724151726" lon="18.862056564770832"><ele>1050.6666666666667</ele><time>2026-05-03T08:44:13Z</time></trkpt><trkpt lat="42.660750503693826" lon="18.862178542337816"><ele>1046.3333333333333</ele><time>2026-05-03T08:44:14Z</time></trkpt><trkpt lat="42.660871813505885" lon="18.862307634111424"><ele>1042.0</ele><time>2026-05-03T08:44:15Z</time></trkpt><trkpt lat="42.660982957968145" lon="18.862427712934064"><ele>1042.0</ele><time>2026-05-03T08:44:16Z</time></trkpt><trkpt lat="42.66108185987982" lon="18.862559913486734"><ele>1042.0</ele><time>2026-05-03T08:44:17Z</time></trkpt><trkpt lat="42.66114839532292" lon="18.86272139295225"><ele>1042.0</ele><time>2026-05-03T08:44:18Z</time></trkpt><trkpt lat="42.661196914695005" lon="18.862911674010316"><ele>1042.0</ele><time>2026-05-03T08:44:19Z</time></trkpt><trkpt lat="42.661234388325695" lon="18.863106363345697"><ele>1042.25</ele><time>2026-05-03T08:44:20Z</time></trkpt><trkpt lat="42.66128148850587" lon="18.8632919070907"><ele>1042.5</ele><time>2026-05-03T08:44:21Z</time></trkpt><trkpt lat="42.66134110621993" lon="18.86345348984468"><ele>1042.75</ele><time>2026-05-03T08:44:22Z</time></trkpt><trkpt lat="42.66141469195294" lon="18.863603979948792"><ele>1043.0</ele><time>2026-05-03T08:44:23Z</time></trkpt><trkpt lat="42.661496154351276" lon="18.863748231870254"><ele>1043.0</ele><time>2026-05-03T08:44:24Z</time></trkpt><trkpt lat="42.66156240821449" lon="18.863888034947813"><ele>1043.0</ele><time>2026-05-03T08:44:25Z</time></trkpt><trkpt lat="42.661602597424235" lon="18.864040166187277"><ele>1043.0</ele><time>2026-05-03T08:44:26Z</time></trkpt><trkpt lat="42.66161634163499" lon="18.8642058213526"><ele>1043.0</ele><time>2026-05-03T08:44:27Z</time></trkpt><trkpt lat="42.66165112691297" lon="18.86437702916184"><ele>1042.0</ele><time>2026-05-03T08:44:28Z</time></trkpt><trkpt lat="42.66170944155105" lon="18.86453468926803"><ele>1041.0</ele><time>2026-05-03T08:44:29Z</time></trkpt><trkpt lat="42.661787208696396" lon="18.86466778305095"><ele>1040.0</ele><time>2026-05-03T08:44:30Z</time></trkpt><trkpt lat="42.661843823476666" lon="18.864795173556434"><ele>1039.0</ele><time>2026-05-03T08:44:31Z</time></trkpt><trkpt lat="42.66187448839923" lon="18.86494303782236"><ele>1039.0</ele><time>2026-05-03T08:44:32Z</time></trkpt><trkpt lat="42.661892600300206" lon="18.86510201535746"><ele>1039.0</ele><time>2026-05-03T08:44:33Z</time></trkpt><trkpt lat="42.66191434889654" lon="18.865258629206185"><ele>1039.0</ele><time>2026-05-03T08:44:34Z</time></trkpt><trkpt lat="42.66194165719782" lon="18.86539474451068"><ele>1039.0</ele><time>2026-05-03T08:44:35Z</time></trkpt><trkpt lat="42.661973977298636" lon="18.86550062887537"><ele>1039.0</ele><time>2026-05-03T08:44:36Z</time></trkpt><trkpt lat="42.662037429766265" lon="18.865566272254284"><ele>1036.0</ele><time>2026-05-03T08:44:37Z</time></trkpt><trkpt lat="42.66212810905599" lon="18.865593114204565"><ele>1033.0</ele><time>2026-05-03T08:44:38Z</time></trkpt><trkpt lat="42.66224781086021" lon="18.86559419738423"><ele>1030.0</ele><time>2026-05-03T08:44:39Z</time></trkpt><trkpt lat="42.66238025177036" lon="18.86561174667109"><ele>1027.0</ele><time>2026-05-03T08:44:40Z</time></trkpt><trkpt lat="42.66251414353568" lon="18.865657778161356"><ele>1027.0</ele><time>2026-05-03T08:44:41Z</time></trkpt><trkpt lat="42.6626497566827" lon="18.86570713450265"><ele>1027.0</ele><time>2026-05-03T08:44:42Z</time></trkpt><trkpt lat="42.662785401073556" lon="18.865752521685707"><ele>1027.0</ele><time>2026-05-03T08:44:43Z</time></trkpt><trkpt lat="42.66291282805336" lon="18.8657993863011"><ele>1027.0</ele><time>2026-05-03T08:44:44Z</time></trkpt><trkpt lat="42.66303523825953" lon="18.86586845118979"><ele>1022.25</ele><time>2026-05-03T08:44:45Z</time></trkpt><trkpt lat="42.66314756744396" lon="18.865975726727616"><ele>1017.5</ele><time>2026-05-03T08:44:46Z</time></trkpt><trkpt lat="42.66324282532506" lon="18.866101979642625"><ele>1012.75</ele><time>2026-05-03T08:44:47Z</time></trkpt><trkpt lat="42.66334398201969" lon="18.866196474472847"><ele>1008.0</ele><time>2026-05-03T08:44:48Z</time></trkpt><trkpt lat="42.66346606234351" lon="18.86623515055683"><ele>1008.0</ele><time>2026-05-03T08:44:49Z</time></trkpt><trkpt lat="42.6635958220974" lon="18.86624251049574"><ele>1008.0</ele><time>2026-05-03T08:44:50Z</time></trkpt><trkpt lat="42.66373141270183" lon="18.866217806692873"><ele>1008.0</ele><time>2026-05-03T08:44:51Z</time></trkpt><trkpt lat="42.663858717634454" lon="18.86616119646816"><ele>1008.0</ele><time>2026-05-03T08:44:52Z</time></trkpt><trkpt lat="42.66397447822582" lon="18.86608544050121"><ele>1007.25</ele><time>2026-05-03T08:44:53Z</time></trkpt><trkpt lat="42.66407201006163" lon="18.865978731640986"><ele>1006.5</ele><time>2026-05-03T08:44:54Z</time></trkpt><trkpt lat="42.66415648264407" lon="18.865845358272075"><ele>1005.75</ele><time>2026-05-03T08:44:55Z</time></trkpt><trkpt lat="42.664244152955696" lon="18.865718540902602"><ele>1005.0</ele><time>2026-05-03T08:44:56Z</time></trkpt><trkpt lat="42.66435793346351" lon="18.86562161050786"><ele>1006.0</ele><time>2026-05-03T08:44:57Z</time></trkpt><trkpt lat="42.66450264367952" lon="18.86555752887407"><ele>1007.0</ele><time>2026-05-03T08:44:58Z</time></trkpt><trkpt lat="42.66466836309271" lon="18.86548881519719"><ele>1008.0</ele><time>2026-05-03T08:44:59Z</time></trkpt><trkpt lat="42.664850005037295" lon="18.865400801862194"><ele>1008.0</ele><time>2026-05-03T08:45:00Z</time></trkpt><trkpt lat="42.66503980695903" lon="18.865300678681535"><ele>1008.0</ele><time>2026-05-03T08:45:01Z</time></trkpt><trkpt lat="42.66524068487295" lon="18.8651849217067"><ele>1008.0</ele><time>2026-05-03T08:45:02Z</time></trkpt><trkpt lat="42.66543567101783" lon="18.865085054900597"><ele>1010.6666666666667</ele><time>2026-05-03T08:45:03Z</time></trkpt><trkpt lat="42.66561742707565" lon="18.864990421858355"><ele>1013.3333333333334</ele><time>2026-05-03T08:45:04Z</time></trkpt><trkpt lat="42.665787634446126" lon="18.864901183560846"><ele>1016.0</ele><time>2026-05-03T08:45:05Z</time></trkpt><trkpt lat="42.6659539919325" lon="18.86484120791964"><ele>1016.0</ele><time>2026-05-03T08:45:06Z</time></trkpt><trkpt lat="42.666110734904755" lon="18.86480133967107"><ele>1016.0</ele><time>2026-05-03T08:45:07Z</time></trkpt><trkpt lat="42.66624459391451" lon="18.864766756058753"><ele>1016.0</ele><time>2026-05-03T08:45:08Z</time></trkpt><trkpt lat="42.66632508158606" lon="18.864711378963566"><ele>1016.0</ele><time>2026-05-03T08:45:09Z</time></trkpt><trkpt lat="42.66638245613109" lon="18.864622604757024"><ele>1018.75</ele><time>2026-05-03T08:45:10Z</time></trkpt><trkpt lat="42.66641885283642" lon="18.86449195966459"><ele>1021.5</ele><time>2026-05-03T08:45:11Z</time></trkpt><trkpt lat="42.666438564318746" lon="18.86434709511458"><ele>1024.25</ele><time>2026-05-03T08:45:12Z</time></trkpt><trkpt lat="42.66647028739774" lon="18.86418798978696"><ele>1027.0</ele><time>2026-05-03T08:45:13Z</time></trkpt><trkpt lat="42.66653772973613" lon="18.86403906547419"><ele>1027.0</ele><time>2026-05-03T08:45:14Z</time></trkpt><trkpt lat="42.66662634607567" lon="18.863895543166535"><ele>1027.0</ele><time>2026-05-03T08:45:15Z</time></trkpt><trkpt lat="42.666719857438316" lon="18.863749366302592"><ele>1027.0</ele><time>2026-05-03T08:45:16Z</time></trkpt><trkpt lat="42.66682199139303" lon="18.86360311314769"><ele>1027.0</ele><time>2026-05-03T08:45:17Z</time></trkpt><trkpt lat="42.66693768166233" lon="18.86345600823635"><ele>1030.0</ele><time>2026-05-03T08:45:18Z</time></trkpt><trkpt lat="42.66705084614226" lon="18.863316065678"><ele>1033.0</ele><time>2026-05-03T08:45:19Z</time></trkpt><trkpt lat="42.66715010044691" lon="18.8632011862064"><ele>1036.0</ele><time>2026-05-03T08:45:20Z</time></trkpt><trkpt lat="42.667251479524516" lon="18.863114884733083"><ele>1039.0</ele><time>2026-05-03T08:45:21Z</time></trkpt><trkpt lat="42.66735348250209" lon="18.86306411011715"><ele>1039.0</ele><time>2026-05-03T08:45:22Z</time></trkpt><trkpt lat="42.667466682546966" lon="18.86303236598977"><ele>1039.0</ele><time>2026-05-03T08:45:23Z</time></trkpt><trkpt lat="42.66758095938982" lon="18.862987775447372"><ele>1039.0</ele><time>2026-05-03T08:45:24Z</time></trkpt><trkpt lat="42.66768771948554" lon="18.86290939971108"><ele>1039.0</ele><time>2026-05-03T08:45:25Z</time></trkpt><trkpt lat="42.667761608519235" lon="18.86278216531145"><ele>1043.0</ele><time>2026-05-03T08:45:26Z</time></trkpt><trkpt lat="42.66781445749254" lon="18.862614564813963"><ele>1047.0</ele><time>2026-05-03T08:45:27Z</time></trkpt><trkpt lat="42.66785479727249" lon="18.862424955914612"><ele>1051.0</ele><time>2026-05-03T08:45:28Z</time></trkpt><trkpt lat="42.66789781869995" lon="18.862221911995775"><ele>1055.0</ele><time>2026-05-03T08:45:29Z</time></trkpt><trkpt lat="42.667951408969316" lon="18.862018163437902"><ele>1055.25</ele><time>2026-05-03T08:45:30Z</time></trkpt><trkpt lat="42.66801443252481" lon="18.86183321605646"><ele>1055.5</ele><time>2026-05-03T08:45:31Z</time></trkpt><trkpt lat="42.66808373497765" lon="18.861680120111902"><ele>1055.75</ele><time>2026-05-03T08:45:32Z</time></trkpt><trkpt lat="42.66816572363943" lon="18.86155939967026"><ele>1056.0</ele><time>2026-05-03T08:45:33Z</time></trkpt><trkpt lat="42.6682604774671" lon="18.861473302072493"><ele>1054.5</ele><time>2026-05-03T08:45:34Z</time></trkpt><trkpt lat="42.66837398458249" lon="18.861405022139238"><ele>1053.0</ele><time>2026-05-03T08:45:35Z</time></trkpt><trkpt lat="42.66849123676441" lon="18.86133301322096"><ele>1051.5</ele><time>2026-05-03T08:45:36Z</time></trkpt><trkpt lat="42.668608493685525" lon="18.861257003774043"><ele>1050.0</ele><time>2026-05-03T08:45:37Z</time></trkpt><trkpt lat="42.668728258037625" lon="18.861202690552798"><ele>1050.0</ele><time>2026-05-03T08:45:38Z</time></trkpt><trkpt lat="42.66885289939524" lon="18.86118608484906"><ele>1050.0</ele><time>2026-05-03T08:45:39Z</time></trkpt><trkpt lat="42.66898064225305" lon="18.86119410825971"><ele>1050.0</ele><time>2026-05-03T08:45:40Z</time></trkpt><trkpt lat="42.66910928954742" lon="18.861212869271142"><ele>1050.0</ele><time>2026-05-03T08:45:41Z</time></trkpt><trkpt lat="42.66923977359296" lon="18.861229341824846"><ele>1050.0</ele><time>2026-05-03T08:45:42Z</time></trkpt><trkpt lat="42.669369192854695" lon="18.861230873571497"><ele>1050.0</ele><time>2026-05-03T08:45:43Z</time></trkpt><trkpt lat="42.669508028805424" lon="18.861209809861336"><ele>1050.0</ele><time>2026-05-03T08:45:44Z</time></trkpt><trkpt lat="42.66964548923547" lon="18.861149427855278"><ele>1050.0</ele><time>2026-05-03T08:45:45Z</time></trkpt><trkpt lat="42.66978316257443" lon="18.861057980276335"><ele>1051.3333333333333</ele><time>2026-05-03T08:45:46Z</time></trkpt><trkpt lat="42.669922999541576" lon="18.860950648748542"><ele>1052.6666666666665</ele><time>2026-05-03T08:45:47Z</time></trkpt><trkpt lat="42.670070327975665" lon="18.86086927511545"><ele>1054.0</ele><time>2026-05-03T08:45:48Z</time></trkpt><trkpt lat="42.67022969743794" lon="18.860817252036167"><ele>1047.6666666666665</ele><time>2026-05-03T08:45:49Z</time></trkpt><trkpt lat="42.670385419140786" lon="18.860779207325493"><ele>1041.3333333333333</ele><time>2026-05-03T08:45:50Z</time></trkpt><trkpt lat="42.670540539636804" lon="18.860733105664252"><ele>1035.0</ele><time>2026-05-03T08:45:51Z</time></trkpt><trkpt lat="42.6707016071268" lon="18.860673172219503"><ele>1035.0</ele><time>2026-05-03T08:45:52Z</time></trkpt><trkpt lat="42.67084076127876" lon="18.86062251065926"><ele>1035.0</ele><time>2026-05-03T08:45:53Z</time></trkpt><trkpt lat="42.67097960621611" lon="18.860583589905193"><ele>1035.0</ele><time>2026-05-03T08:45:54Z</time></trkpt><trkpt lat="42.67112619448647" lon="18.86057449969027"><ele>1035.0</ele><time>2026-05-03T08:45:55Z</time></trkpt><trkpt lat="42.671275405105234" lon="18.860580998950756"><ele>1034.75</ele><time>2026-05-03T08:45:56Z</time></trkpt><trkpt lat="42.67142038304823" lon="18.860577756518463"><ele>1034.5</ele><time>2026-05-03T08:45:57Z</time></trkpt><trkpt lat="42.67156070765468" lon="18.860564352884754"><ele>1034.25</ele><time>2026-05-03T08:45:58Z</time></trkpt><trkpt lat="42.67168920531584" lon="18.860551284919858"><ele>1034.0</ele><time>2026-05-03T08:45:59Z</time></trkpt><trkpt lat="42.67180441049229" lon="18.860554258610577"><ele>1034.0</ele><time>2026-05-03T08:46:00Z</time></trkpt><trkpt lat="42.671905550838126" lon="18.860597675885526"><ele>1034.0</ele><time>2026-05-03T08:46:01Z</time></trkpt><trkpt lat="42.67200332628624" lon="18.860685495601768"><ele>1034.0</ele><time>2026-05-03T08:46:02Z</time></trkpt><trkpt lat="42.67210770077356" lon="18.86079271662827"><ele>1034.0</ele><time>2026-05-03T08:46:03Z</time></trkpt><trkpt lat="42.67222912156832" lon="18.86089086633362"><ele>1036.0</ele><time>2026-05-03T08:46:04Z</time></trkpt><trkpt lat="42.67235769133286" lon="18.860982203677466"><ele>1038.0</ele><time>2026-05-03T08:46:05Z</time></trkpt><trkpt lat="42.672485874846004" lon="18.86107305344849"><ele>1040.0</ele><time>2026-05-03T08:46:06Z</time></trkpt><trkpt lat="42.67262156942495" lon="18.86116170534583"><ele>1042.0</ele><time>2026-05-03T08:46:07Z</time></trkpt><trkpt lat="42.67276220719205" lon="18.861236918358028"><ele>1037.6666666666665</ele><time>2026-05-03T08:46:08Z</time></trkpt><trkpt lat="42.67290242592054" lon="18.861300080441854"><ele>1033.3333333333333</ele><time>2026-05-03T08:46:09Z</time></trkpt><trkpt lat="42.673048063200454" lon="18.86136494332907"><ele>1029.0</ele><time>2026-05-03T08:46:10Z</time></trkpt><trkpt lat="42.67319396876643" lon="18.86143539306551"><ele>1029.0</ele><time>2026-05-03T08:46:11Z</time></trkpt><trkpt lat="42.67333144925331" lon="18.861511445311216"><ele>1029.0</ele><time>2026-05-03T08:46:12Z</time></trkpt><trkpt lat="42.673467509456124" lon="18.861583483206605"><ele>1029.0</ele><time>2026-05-03T08:46:13Z</time></trkpt><trkpt lat="42.6736063387196" lon="18.861627918910578"><ele>1029.0</ele><time>2026-05-03T08:46:14Z</time></trkpt><trkpt lat="42.67375343090665" lon="18.86163314869142"><ele>1025.75</ele><time>2026-05-03T08:46:15Z</time></trkpt><trkpt lat="42.67390273625698" lon="18.861612361269206"><ele>1022.5</ele><time>2026-05-03T08:46:16Z</time></trkpt><trkpt lat="42.674045202246106" lon="18.86157058206471"><ele>1019.25</ele><time>2026-05-03T08:46:17Z</time></trkpt><trkpt lat="42.67419488361836" lon="18.861535703796186"><ele>1016.0</ele><time>2026-05-03T08:46:18Z</time></trkpt><trkpt lat="42.6743381899646" lon="18.861522815025676"><ele>1013.0</ele><time>2026-05-03T08:46:19Z</time></trkpt><trkpt lat="42.674468384057235" lon="18.86154425396462"><ele>1010.0</ele><time>2026-05-03T08:46:20Z</time></trkpt><trkpt lat="42.67458164720636" lon="18.86159428245995"><ele>1007.0</ele><time>2026-05-03T08:46:21Z</time></trkpt><trkpt lat="42.674684438307544" lon="18.861664790751615"><ele>1004.0</ele><time>2026-05-03T08:46:22Z</time></trkpt><trkpt lat="42.674790774147546" lon="18.86175476612995"><ele>1008.5</ele><time>2026-05-03T08:46:23Z</time></trkpt><trkpt lat="42.67490418564989" lon="18.861853522405372"><ele>1013.0</ele><time>2026-05-03T08:46:24Z</time></trkpt><trkpt lat="42.675023420723605" lon="18.86196817965919"><ele>1017.5</ele><time>2026-05-03T08:46:25Z</time></trkpt><trkpt lat="42.675150546959195" lon="18.862082745885278"><ele>1022.0</ele><time>2026-05-03T08:46:26Z</time></trkpt><trkpt lat="42.67528175424006" lon="18.86217914138815"><ele>1022.0</ele><time>2026-05-03T08:46:27Z</time></trkpt><trkpt lat="42.675423765227556" lon="18.862246398079286"><ele>1022.0</ele><time>2026-05-03T08:46:28Z</time></trkpt><trkpt lat="42.67557549208317" lon="18.862306124654584"><ele>1022.0</ele><time>2026-05-03T08:46:29Z</time></trkpt><trkpt lat="42.67572398189028" lon="18.862352106045748"><ele>1022.0</ele><time>2026-05-03T08:46:30Z</time></trkpt><trkpt lat="42.67587442848176" lon="18.86239805526514"><ele>1022.0</ele><time>2026-05-03T08:46:31Z</time></trkpt><trkpt lat="42.676022133946525" lon="18.862435749675416"><ele>1022.0</ele><time>2026-05-03T08:46:32Z</time></trkpt><trkpt lat="42.676160642943174" lon="18.862447592172423"><ele>1022.0</ele><time>2026-05-03T08:46:33Z</time></trkpt><trkpt lat="42.67630064726635" lon="18.862434670676116"><ele>1020.5</ele><time>2026-05-03T08:46:34Z</time></trkpt><trkpt lat="42.67643657888284" lon="18.86240052824167"><ele>1019.0</ele><time>2026-05-03T08:46:35Z</time></trkpt><trkpt lat="42.6765815607112" lon="18.862359091104743"><ele>1017.5</ele><time>2026-05-03T08:46:36Z</time></trkpt><trkpt lat="42.67673411067977" lon="18.86232151398383"><ele>1016.0</ele><time>2026-05-03T08:46:37Z</time></trkpt><trkpt lat="42.676885607254086" lon="18.86228822811318"><ele>1015.75</ele><time>2026-05-03T08:46:38Z</time></trkpt><trkpt lat="42.67702560647541" lon="18.86226120790175"><ele>1015.5</ele><time>2026-05-03T08:46:39Z</time></trkpt><trkpt lat="42.677164617876386" lon="18.86224464698771"><ele>1015.25</ele><time>2026-05-03T08:46:40Z</time></trkpt><trkpt lat="42.67728574108748" lon="18.862218347437693"><ele>1015.0</ele><time>2026-05-03T08:46:41Z</time></trkpt><trkpt lat="42.67738806073433" lon="18.862164866007987"><ele>1015.0</ele><time>2026-05-03T08:46:42Z</time></trkpt><trkpt lat="42.67746647682663" lon="18.862072268760315"><ele>1015.0</ele><time>2026-05-03T08:46:43Z</time></trkpt><trkpt lat="42.67751778600281" lon="18.861954309989425"><ele>1015.0</ele><time>2026-05-03T08:46:44Z</time></trkpt><trkpt lat="42.67754550379837" lon="18.861811310956913"><ele>1015.0</ele><time>2026-05-03T08:46:45Z</time></trkpt><trkpt lat="42.677576088829234" lon="18.861658430188715"><ele>1015.0</ele><time>2026-05-03T08:46:46Z</time></trkpt><trkpt lat="42.677636968569814" lon="18.861529074394912"><ele>1014.6</ele><time>2026-05-03T08:46:47Z</time></trkpt><trkpt lat="42.67771873172259" lon="18.86144235288374"><ele>1014.2</ele><time>2026-05-03T08:46:48Z</time></trkpt><trkpt lat="42.677809804944545" lon="18.861398175150608"><ele>1013.8</ele><time>2026-05-03T08:46:49Z</time></trkpt><trkpt lat="42.677921806743726" lon="18.861365430538083"><ele>1013.4</ele><time>2026-05-03T08:46:50Z</time></trkpt><trkpt lat="42.678039350415595" lon="18.861332140283427"><ele>1013.0</ele><time>2026-05-03T08:46:51Z</time></trkpt><trkpt lat="42.67815735952889" lon="18.861279514205147"><ele>1013.0</ele><time>2026-05-03T08:46:52Z</time></trkpt><trkpt lat="42.6782765603909" lon="18.861213825496776"><ele>1013.0</ele><time>2026-05-03T08:46:53Z</time></trkpt><trkpt lat="42.678381358514315" lon="18.861147472720614"><ele>1013.0</ele><time>2026-05-03T08:46:54Z</time></trkpt><trkpt lat="42.678469994073005" lon="18.861071225971724"><ele>1013.0</ele><time>2026-05-03T08:46:55Z</time></trkpt><trkpt lat="42.67854759724786" lon="18.860969312116204"><ele>1011.0</ele><time>2026-05-03T08:46:56Z</time></trkpt><trkpt lat="42.67859868338445" lon="18.860843246390903"><ele>1009.0</ele><time>2026-05-03T08:46:57Z</time></trkpt><trkpt lat="42.678620450276405" lon="18.860727943158405"><ele>1007.0</ele><time>2026-05-03T08:46:58Z</time></trkpt><trkpt lat="42.67862822107376" lon="18.8606019097745"><ele>1005.0</ele><time>2026-05-03T08:46:59Z</time></trkpt><trkpt lat="42.67864198150393" lon="18.860469992051154"><ele>1003.0</ele><time>2026-05-03T08:47:00Z</time></trkpt><trkpt lat="42.678657965633235" lon="18.860322136211433"><ele>1005.5</ele><time>2026-05-03T08:47:01Z</time></trkpt><trkpt lat="42.67868719339181" lon="18.860174435697555"><ele>1008.0</ele><time>2026-05-03T08:47:02Z</time></trkpt><trkpt lat="42.67873576326912" lon="18.860035489576706"><ele>1010.5</ele><time>2026-05-03T08:47:03Z</time></trkpt><trkpt lat="42.67880858002738" lon="18.859912450259102"><ele>1013.0</ele><time>2026-05-03T08:47:04Z</time></trkpt><trkpt lat="42.67889603510377" lon="18.85980727568713"><ele>1013.0</ele><time>2026-05-03T08:47:05Z</time></trkpt><trkpt lat="42.67898974033127" lon="18.85971131206882"><ele>1013.0</ele><time>2026-05-03T08:47:06Z</time></trkpt><trkpt lat="42.679083111459875" lon="18.859615925797144"><ele>1013.0</ele><time>2026-05-03T08:47:07Z</time></trkpt><trkpt lat="42.67916636294159" lon="18.85952478278023"><ele>1013.0</ele><time>2026-05-03T08:47:08Z</time></trkpt><trkpt lat="42.679248690548214" lon="18.859417844918532"><ele>1013.0</ele><time>2026-05-03T08:47:09Z</time></trkpt><trkpt lat="42.67933079930308" lon="18.859296555576186"><ele>1013.0</ele><time>2026-05-03T08:47:10Z</time></trkpt><trkpt lat="42.679412103114096" lon="18.85917604250477"><ele>1013.0</ele><time>2026-05-03T08:47:11Z</time></trkpt><trkpt lat="42.67949373708557" lon="18.859056551453197"><ele>1013.0</ele><time>2026-05-03T08:47:12Z</time></trkpt><trkpt lat="42.67958323961925" lon="18.858950422766476"><ele>1011.0</ele><time>2026-05-03T08:47:13Z</time></trkpt><trkpt lat="42.67968009892568" lon="18.85886346993954"><ele>1009.0</ele><time>2026-05-03T08:47:14Z</time></trkpt><trkpt lat="42.679781981562314" lon="18.85881059957074"><ele>1007.0</ele><time>2026-05-03T08:47:15Z</time></trkpt><trkpt lat="42.67988242924479" lon="18.8588014655961"><ele>1005.0</ele><time>2026-05-03T08:47:16Z</time></trkpt><trkpt lat="42.679984688779726" lon="18.85884542000622"><ele>1003.0</ele><time>2026-05-03T08:47:17Z</time></trkpt><trkpt lat="42.68008563263683" lon="18.858927634558736"><ele>1003.0</ele><time>2026-05-03T08:47:18Z</time></trkpt><trkpt lat="42.68019339470837" lon="18.859018895688276"><ele>1003.0</ele><time>2026-05-03T08:47:19Z</time></trkpt><trkpt lat="42.68031469240319" lon="18.859055762896702"><ele>1003.0</ele><time>2026-05-03T08:47:20Z</time></trkpt><trkpt lat="42.68044642780528" lon="18.859019765797715"><ele>1003.0</ele><time>2026-05-03T08:47:21Z</time></trkpt><trkpt lat="42.68058826324651" lon="18.85898068103604"><ele>1003.5</ele><time>2026-05-03T08:47:22Z</time></trkpt><trkpt lat="42.68073256918268" lon="18.858992739060266"><ele>1004.0</ele><time>2026-05-03T08:47:23Z</time></trkpt><trkpt lat="42.6808730495598" lon="18.85902871412064"><ele>1004.5</ele><time>2026-05-03T08:47:24Z</time></trkpt><trkpt lat="42.68101081827367" lon="18.859025963162214"><ele>1005.0</ele><time>2026-05-03T08:47:25Z</time></trkpt><trkpt lat="42.68114749847082" lon="18.858979867934867"><ele>1002.0</ele><time>2026-05-03T08:47:26Z</time></trkpt><trkpt lat="42.68126954910127" lon="18.858902126438984"><ele>999.0</ele><time>2026-05-03T08:47:27Z</time></trkpt><trkpt lat="42.68137130296342" lon="18.858790854879068"><ele>996.0</ele><time>2026-05-03T08:47:28Z</time></trkpt><trkpt lat="42.68147271739356" lon="18.858676932748043"><ele>993.0</ele><time>2026-05-03T08:47:29Z</time></trkpt><trkpt lat="42.681581878615575" lon="18.858602505248324"><ele>993.0</ele><time>2026-05-03T08:47:30Z</time></trkpt><trkpt lat="42.68170560379341" lon="18.858576595035807"><ele>993.0</ele><time>2026-05-03T08:47:31Z</time></trkpt><trkpt lat="42.681842510646405" lon="18.858594157404184"><ele>993.0</ele><time>2026-05-03T08:47:32Z</time></trkpt><trkpt lat="42.68197943765265" lon="18.858628523729582"><ele>993.0</ele><time>2026-05-03T08:47:33Z</time></trkpt><trkpt lat="42.68210353820802" lon="18.858670013045476"><ele>991.5</ele><time>2026-05-03T08:47:34Z</time></trkpt><trkpt lat="42.68221115630837" lon="18.8587520468668"><ele>990.0</ele><time>2026-05-03T08:47:35Z</time></trkpt><trkpt lat="42.68231772907309" lon="18.858858504206278"><ele>988.5</ele><time>2026-05-03T08:47:36Z</time></trkpt><trkpt lat="42.68243030449946" lon="18.85897024475548"><ele>987.0</ele><time>2026-05-03T08:47:37Z</time></trkpt><trkpt lat="42.68255015134798" lon="18.859070263473495"><ele>987.0</ele><time>2026-05-03T08:47:38Z</time></trkpt><trkpt lat="42.6826758331421" lon="18.859162959697787"><ele>987.0</ele><time>2026-05-03T08:47:39Z</time></trkpt><trkpt lat="42.68280923949833" lon="18.859252264698956"><ele>987.0</ele><time>2026-05-03T08:47:40Z</time></trkpt><trkpt lat="42.68294006707433" lon="18.859353154605657"><ele>987.0</ele><time>2026-05-03T08:47:41Z</time></trkpt><trkpt lat="42.68305051619001" lon="18.85947736051727"><ele>985.75</ele><time>2026-05-03T08:47:42Z</time></trkpt><trkpt lat="42.68314892913045" lon="18.859599707691594"><ele>984.5</ele><time>2026-05-03T08:47:43Z</time></trkpt><trkpt lat="42.683252634525395" lon="18.859688144013557"><ele>983.25</ele><time>2026-05-03T08:47:44Z</time></trkpt><trkpt lat="42.683352925216944" lon="18.85974260782636"><ele>982.0</ele><time>2026-05-03T08:47:45Z</time></trkpt><trkpt lat="42.68345442142832" lon="18.85977477501044"><ele>982.0</ele><time>2026-05-03T08:47:46Z</time></trkpt><trkpt lat="42.683563376042144" lon="18.859813335788775"><ele>982.0</ele><time>2026-05-03T08:47:47Z</time></trkpt><trkpt lat="42.68366655269672" lon="18.859895533105515"><ele>982.0</ele><time>2026-05-03T08:47:48Z</time></trkpt><trkpt lat="42.68375838352934" lon="18.860005909153482"><ele>982.0</ele><time>2026-05-03T08:47:49Z</time></trkpt><trkpt lat="42.68382915470349" lon="18.86013022901105"><ele>980.5</ele><time>2026-05-03T08:47:50Z</time></trkpt><trkpt lat="42.683884910534864" lon="18.86027181522029"><ele>979.0</ele><time>2026-05-03T08:47:51Z</time></trkpt><trkpt lat="42.68392591049256" lon="18.860420392808162"><ele>977.5</ele><time>2026-05-03T08:47:52Z</time></trkpt><trkpt lat="42.68395419082342" lon="18.86057291291436"><ele>976.0</ele><time>2026-05-03T08:47:53Z</time></trkpt><trkpt lat="42.68395217521371" lon="18.860733872939484"><ele>976.0</ele><time>2026-05-03T08:47:54Z</time></trkpt><trkpt lat="42.683932357651834" lon="18.86089657652804"><ele>976.0</ele><time>2026-05-03T08:47:55Z</time></trkpt><trkpt lat="42.683918268574864" lon="18.86106269814353"><ele>976.0</ele><time>2026-05-03T08:47:56Z</time></trkpt><trkpt lat="42.68391321315868" lon="18.861234680987682"><ele>976.0</ele><time>2026-05-03T08:47:57Z</time></trkpt><trkpt lat="42.68391029605858" lon="18.861403791464554"><ele>976.0</ele><time>2026-05-03T08:47:58Z</time></trkpt><trkpt lat="42.68389823000207" lon="18.861567795944747"><ele>976.0</ele><time>2026-05-03T08:47:59Z</time></trkpt><trkpt lat="42.683855221430974" lon="18.861722533099524"><ele>976.0</ele><time>2026-05-03T08:48:00Z</time></trkpt><trkpt lat="42.683790476666346" lon="18.861874373781106"><ele>976.0</ele><time>2026-05-03T08:48:01Z</time></trkpt><trkpt lat="42.683719994420144" lon="18.862036423851404"><ele>974.5</ele><time>2026-05-03T08:48:02Z</time></trkpt><trkpt lat="42.68366336944291" lon="18.86221489153779"><ele>973.0</ele><time>2026-05-03T08:48:03Z</time></trkpt><trkpt lat="42.68362107521722" lon="18.862402262453806"><ele>971.5</ele><time>2026-05-03T08:48:04Z</time></trkpt><trkpt lat="42.683598562689" lon="18.862598998361374"><ele>970.0</ele><time>2026-05-03T08:48:05Z</time></trkpt><trkpt lat="42.68358438799679" lon="18.862792066201877"><ele>973.75</ele><time>2026-05-03T08:48:06Z</time></trkpt><trkpt lat="42.683567303866496" lon="18.862972196951176"><ele>977.5</ele><time>2026-05-03T08:48:07Z</time></trkpt><trkpt lat="42.68354959142741" lon="18.86314554999087"><ele>981.25</ele><time>2026-05-03T08:48:08Z</time></trkpt><trkpt lat="42.68352860017261" lon="18.863300265668308"><ele>985.0</ele><time>2026-05-03T08:48:09Z</time></trkpt><trkpt lat="42.68351368320688" lon="18.863448071510543"><ele>985.0</ele><time>2026-05-03T08:48:10Z</time></trkpt><trkpt lat="42.68349972679662" lon="18.86359931538857"><ele>985.0</ele><time>2026-05-03T08:48:11Z</time></trkpt><trkpt lat="42.683477353667975" lon="18.86375717462916"><ele>985.0</ele><time>2026-05-03T08:48:12Z</time></trkpt><trkpt lat="42.68342885309491" lon="18.863897956782292"><ele>985.0</ele><time>2026-05-03T08:48:13Z</time></trkpt><trkpt lat="42.68335165138586" lon="18.864020944410527"><ele>985.0</ele><time>2026-05-03T08:48:14Z</time></trkpt><trkpt lat="42.68330413758671" lon="18.864148472037446"><ele>985.0</ele><time>2026-05-03T08:48:15Z</time></trkpt><trkpt lat="42.68330101092942" lon="18.864298177709422"><ele>985.0</ele><time>2026-05-03T08:48:16Z</time></trkpt><trkpt lat="42.683343543926036" lon="18.864457906722564"><ele>985.0</ele><time>2026-05-03T08:48:17Z</time></trkpt><trkpt lat="42.68340419649097" lon="18.86461444815786"><ele>985.5</ele><time>2026-05-03T08:48:18Z</time></trkpt><trkpt lat="42.683468658166824" lon="18.864779754257118"><ele>986.0</ele><time>2026-05-03T08:48:19Z</time></trkpt><trkpt lat="42.683513845322146" lon="18.8649554808136"><ele>986.5</ele><time>2026-05-03T08:48:20Z</time></trkpt><trkpt lat="42.683546554245495" lon="18.865129296375947"><ele>987.0</ele><time>2026-05-03T08:48:21Z</time></trkpt><trkpt lat="42.683603131445786" lon="18.865291265416488"><ele>988.5</ele><time>2026-05-03T08:48:22Z</time></trkpt><trkpt lat="42.68369770128059" lon="18.865440481801294"><ele>990.0</ele><time>2026-05-03T08:48:23Z</time></trkpt><trkpt lat="42.68380935151702" lon="18.865563573703206"><ele>991.5</ele><time>2026-05-03T08:48:24Z</time></trkpt><trkpt lat="42.68391852975415" lon="18.865674132494572"><ele>993.0</ele><time>2026-05-03T08:48:25Z</time></trkpt><trkpt lat="42.68400758486673" lon="18.86579261622965"><ele>993.0</ele><time>2026-05-03T08:48:26Z</time></trkpt><trkpt lat="42.684074919670806" lon="18.865914129583768"><ele>993.0</ele><time>2026-05-03T08:48:27Z</time></trkpt><trkpt lat="42.68412043703217" lon="18.866041850501002"><ele>993.0</ele><time>2026-05-03T08:48:28Z</time></trkpt><trkpt lat="42.68414111716901" lon="18.86618569843571"><ele>993.0</ele><time>2026-05-03T08:48:29Z</time></trkpt><trkpt lat="42.68417382387692" lon="18.86631703540566"><ele>993.0</ele><time>2026-05-03T08:48:30Z</time></trkpt><trkpt lat="42.68423371583368" lon="18.866417382062643"><ele>992.0</ele><time>2026-05-03T08:48:31Z</time></trkpt><trkpt lat="42.68431103093946" lon="18.866487722492717"><ele>991.0</ele><time>2026-05-03T08:48:32Z</time></trkpt><trkpt lat="42.68441199752001" lon="18.866533099736866"><ele>990.0</ele><time>2026-05-03T08:48:33Z</time></trkpt><trkpt lat="42.684531873757734" lon="18.86656244369289"><ele>989.0</ele><time>2026-05-03T08:48:34Z</time></trkpt><trkpt lat="42.684650096319736" lon="18.866605871521013"><ele>988.0</ele><time>2026-05-03T08:48:35Z</time></trkpt><trkpt lat="42.68476285387182" lon="18.86666451345706"><ele>986.0</ele><time>2026-05-03T08:48:36Z</time></trkpt><trkpt lat="42.6848733663652" lon="18.866740454619045"><ele>984.0</ele><time>2026-05-03T08:48:37Z</time></trkpt><trkpt lat="42.6849656231323" lon="18.866853377409363"><ele>982.0</ele><time>2026-05-03T08:48:38Z</time></trkpt><trkpt lat="42.68503061878167" lon="18.867004629101093"><ele>980.0</ele><time>2026-05-03T08:48:39Z</time></trkpt><trkpt lat="42.685077160589415" lon="18.867161149942124"><ele>980.8</ele><time>2026-05-03T08:48:40Z</time></trkpt><trkpt lat="42.6851271376038" lon="18.867288115455025"><ele>981.6</ele><time>2026-05-03T08:48:41Z</time></trkpt><trkpt lat="42.6851814611329" lon="18.867394972996795"><ele>982.4000000000001</ele><time>2026-05-03T08:48:42Z</time></trkpt><trkpt lat="42.68524186255158" lon="18.86748985385725"><ele>983.2</ele><time>2026-05-03T08:48:43Z</time></trkpt><trkpt lat="42.685311176490664" lon="18.867580043601194"><ele>984.0</ele><time>2026-05-03T08:48:44Z</time></trkpt><trkpt lat="42.6853833301021" lon="18.8676646324864"><ele>984.4000000000001</ele><time>2026-05-03T08:48:45Z</time></trkpt><trkpt lat="42.685467142893536" lon="18.867743574673934"><ele>984.8000000000001</ele><time>2026-05-03T08:48:46Z</time></trkpt><trkpt lat="42.68555030651804" lon="18.867829372957814"><ele>985.1999999999999</ele><time>2026-05-03T08:48:47Z</time></trkpt><trkpt lat="42.68562643236071" lon="18.867937502163354"><ele>985.5999999999999</ele><time>2026-05-03T08:48:48Z</time></trkpt><trkpt lat="42.68566578069283" lon="18.868078650057367"><ele>986.0</ele><time>2026-05-03T08:48:49Z</time></trkpt><trkpt lat="42.68567144416276" lon="18.86824695902554"><ele>986.0</ele><time>2026-05-03T08:48:50Z</time></trkpt><trkpt lat="42.68565580286181" lon="18.86841728575123"><ele>986.0</ele><time>2026-05-03T08:48:51Z</time></trkpt><trkpt lat="42.6856487999067" lon="18.868596656754864"><ele>986.0</ele><time>2026-05-03T08:48:52Z</time></trkpt><trkpt lat="42.68564798005395" lon="18.868780425066927"><ele>986.0</ele><time>2026-05-03T08:48:53Z</time></trkpt><trkpt lat="42.685652838573176" lon="18.868957888760825"><ele>986.5</ele><time>2026-05-03T08:48:54Z</time></trkpt><trkpt lat="42.68568042173502" lon="18.8691395688552"><ele>987.0</ele><time>2026-05-03T08:48:55Z</time></trkpt><trkpt lat="42.68573828442185" lon="18.869323080946888"><ele>987.5</ele><time>2026-05-03T08:48:56Z</time></trkpt><trkpt lat="42.685797835876805" lon="18.86951029145691"><ele>988.0</ele><time>2026-05-03T08:48:57Z</time></trkpt><trkpt lat="42.685841452771996" lon="18.869684871320416"><ele>988.0</ele><time>2026-05-03T08:48:58Z</time></trkpt><trkpt lat="42.6858734363361" lon="18.869860190017686"><ele>988.0</ele><time>2026-05-03T08:48:59Z</time></trkpt><trkpt lat="42.68586775327156" lon="18.87001660135168"><ele>988.0</ele><time>2026-05-03T08:49:00Z</time></trkpt><trkpt lat="42.685825492866826" lon="18.870170488557978"><ele>988.0</ele><time>2026-05-03T08:49:01Z</time></trkpt><trkpt lat="42.68576478299439" lon="18.870341926545326"><ele>991.6666666666666</ele><time>2026-05-03T08:49:02Z</time></trkpt><trkpt lat="42.68571017630684" lon="18.870532459439314"><ele>995.3333333333333</ele><time>2026-05-03T08:49:03Z</time></trkpt><trkpt lat="42.68567162658834" lon="18.87073768605921"><ele>999.0</ele><time>2026-05-03T08:49:04Z</time></trkpt><trkpt lat="42.68563462768696" lon="18.870940675645752"><ele>999.25</ele><time>2026-05-03T08:49:05Z</time></trkpt><trkpt lat="42.68559360130036" lon="18.871112713994812"><ele>999.5</ele><time>2026-05-03T08:49:06Z</time></trkpt><trkpt lat="42.68552871330678" lon="18.871272781626363"><ele>999.75</ele><time>2026-05-03T08:49:07Z</time></trkpt><trkpt lat="42.68543349118202" lon="18.8714180933329"><ele>1000.0</ele><time>2026-05-03T08:49:08Z</time></trkpt><trkpt lat="42.68534997652687" lon="18.87155473551607"><ele>1000.0</ele><time>2026-05-03T08:49:09Z</time></trkpt><trkpt lat="42.68528472951499" lon="18.87168523293414"><ele>1000.0</ele><time>2026-05-03T08:49:10Z</time></trkpt><trkpt lat="42.685246078945646" lon="18.87182548392487"><ele>1000.0</ele><time>2026-05-03T08:49:11Z</time></trkpt><trkpt lat="42.685250572966204" lon="18.871982051553505"><ele>1000.0</ele><time>2026-05-03T08:49:12Z</time></trkpt><trkpt lat="42.685273897445846" lon="18.87215019079796"><ele>999.6</ele><time>2026-05-03T08:49:13Z</time></trkpt><trkpt lat="42.685282721982226" lon="18.872308390789616"><ele>999.2</ele><time>2026-05-03T08:49:14Z</time></trkpt><trkpt lat="42.685285683472905" lon="18.872447831605832"><ele>998.8</ele><time>2026-05-03T08:49:15Z</time></trkpt><trkpt lat="42.68531189905077" lon="18.872554440533715"><ele>998.4</ele><time>2026-05-03T08:49:16Z</time></trkpt><trkpt lat="42.6853752092621" lon="18.872624073096677"><ele>998.0</ele><time>2026-05-03T08:49:17Z</time></trkpt><trkpt lat="42.685469928577795" lon="18.872677981841235"><ele>997.25</ele><time>2026-05-03T08:49:18Z</time></trkpt><trkpt lat="42.685578051514895" lon="18.872738043809967"><ele>996.5</ele><time>2026-05-03T08:49:19Z</time></trkpt><trkpt lat="42.68567019744379" lon="18.872824211782184"><ele>995.75</ele><time>2026-05-03T08:49:20Z</time></trkpt><trkpt lat="42.68573371573158" lon="18.87296499389813"><ele>995.0</ele><time>2026-05-03T08:49:21Z</time></trkpt><trkpt lat="42.68577352224294" lon="18.873135172807206"><ele>995.0</ele><time>2026-05-03T08:49:22Z</time></trkpt><trkpt lat="42.68581217228289" lon="18.873300982498073"><ele>995.0</ele><time>2026-05-03T08:49:23Z</time></trkpt><trkpt lat="42.68585712590054" lon="18.87345601947188"><ele>995.0</ele><time>2026-05-03T08:49:24Z</time></trkpt><trkpt lat="42.68588459563888" lon="18.873601930174463"><ele>995.0</ele><time>2026-05-03T08:49:25Z</time></trkpt><trkpt lat="42.685879690690676" lon="18.87376399997853"><ele>994.5</ele><time>2026-05-03T08:49:26Z</time></trkpt><trkpt lat="42.68585200799697" lon="18.873936455480635"><ele>994.0</ele><time>2026-05-03T08:49:27Z</time></trkpt><trkpt lat="42.68584046751508" lon="18.8740965263128"><ele>993.5</ele><time>2026-05-03T08:49:28Z</time></trkpt><trkpt lat="42.68586138834122" lon="18.87423573113197"><ele>993.0</ele><time>2026-05-03T08:49:29Z</time></trkpt><trkpt lat="42.685913783589044" lon="18.874351785313838"><ele>991.25</ele><time>2026-05-03T08:49:30Z</time></trkpt><trkpt lat="42.68599635430085" lon="18.87446939410212"><ele>989.5</ele><time>2026-05-03T08:49:31Z</time></trkpt><trkpt lat="42.68609087171159" lon="18.874594266017432"><ele>987.75</ele><time>2026-05-03T08:49:32Z</time></trkpt><trkpt lat="42.68615764512331" lon="18.874744566808246"><ele>986.0</ele><time>2026-05-03T08:49:33Z</time></trkpt><trkpt lat="42.6861900355521" lon="18.874917230393795"><ele>987.8</ele><time>2026-05-03T08:49:34Z</time></trkpt><trkpt lat="42.68619682148572" lon="18.875091048126063"><ele>989.5999999999999</ele><time>2026-05-03T08:49:35Z</time></trkpt><trkpt lat="42.68620479702257" lon="18.875248407093537"><ele>991.4</ele><time>2026-05-03T08:49:36Z</time></trkpt><trkpt lat="42.68622452003145" lon="18.875384578976316"><ele>993.2</ele><time>2026-05-03T08:49:37Z</time></trkpt><trkpt lat="42.68627778149626" lon="18.875500611194802"><ele>995.0</ele><time>2026-05-03T08:49:38Z</time></trkpt><trkpt lat="42.686368598289036" lon="18.87560475170784"><ele>995.0</ele><time>2026-05-03T08:49:39Z</time></trkpt><trkpt lat="42.68646757560107" lon="18.875721270744567"><ele>995.0</ele><time>2026-05-03T08:49:40Z</time></trkpt><trkpt lat="42.686532731055095" lon="18.875866094718493"><ele>995.0</ele><time>2026-05-03T08:49:41Z</time></trkpt><trkpt lat="42.686583182982666" lon="18.876033845754744"><ele>995.0</ele><time>2026-05-03T08:49:42Z</time></trkpt><trkpt lat="42.68663728358634" lon="18.87617179386953"><ele>995.4</ele><time>2026-05-03T08:49:43Z</time></trkpt><trkpt lat="42.68670208140595" lon="18.87627304256956"><ele>995.8</ele><time>2026-05-03T08:49:44Z</time></trkpt><trkpt lat="42.68678817004115" lon="18.876334369202613"><ele>996.2</ele><time>2026-05-03T08:49:45Z</time></trkpt><trkpt lat="42.68690368763297" lon="18.876373257746614"><ele>996.6</ele><time>2026-05-03T08:49:46Z</time></trkpt><trkpt lat="42.687029523227096" lon="18.876432190166266"><ele>997.0</ele><time>2026-05-03T08:49:47Z</time></trkpt><trkpt lat="42.68713154447623" lon="18.876529040145623"><ele>997.0</ele><time>2026-05-03T08:49:48Z</time></trkpt><trkpt lat="42.687202145929106" lon="18.876642586795736"><ele>997.0</ele><time>2026-05-03T08:49:49Z</time></trkpt><trkpt lat="42.68725621023962" lon="18.876757702245683"><ele>997.0</ele><time>2026-05-03T08:49:50Z</time></trkpt><trkpt lat="42.68729063222823" lon="18.876891046861466"><ele>997.0</ele><time>2026-05-03T08:49:51Z</time></trkpt><trkpt lat="42.68729272221971" lon="18.877035481480313"><ele>997.0</ele><time>2026-05-03T08:49:52Z</time></trkpt><trkpt lat="42.68730075662581" lon="18.8771673011455"><ele>996.2</ele><time>2026-05-03T08:49:53Z</time></trkpt><trkpt lat="42.68735472085018" lon="18.8772628283015"><ele>995.4000000000001</ele><time>2026-05-03T08:49:54Z</time></trkpt><trkpt lat="42.68744753658848" lon="18.87731656438999"><ele>994.5999999999999</ele><time>2026-05-03T08:49:55Z</time></trkpt><trkpt lat="42.68756790832526" lon="18.877348730120485"><ele>993.8</ele><time>2026-05-03T08:49:56Z</time></trkpt><trkpt lat="42.68769584195732" lon="18.877379031078966"><ele>993.0</ele><time>2026-05-03T08:49:57Z</time></trkpt><trkpt lat="42.687813005529335" lon="18.877429691230503"><ele>992.75</ele><time>2026-05-03T08:49:58Z</time></trkpt><trkpt lat="42.687917434206994" lon="18.8775009819795"><ele>992.5</ele><time>2026-05-03T08:49:59Z</time></trkpt><trkpt lat="42.68800865699903" lon="18.877605474339372"><ele>992.25</ele><time>2026-05-03T08:50:00Z</time></trkpt><trkpt lat="42.68810487711888" lon="18.87771827772789"><ele>992.0</ele><time>2026-05-03T08:50:01Z</time></trkpt><trkpt lat="42.688222002414264" lon="18.87779743755701"><ele>990.0</ele><time>2026-05-03T08:50:02Z</time></trkpt><trkpt lat="42.68834010888559" lon="18.87785010521392"><ele>988.0</ele><time>2026-05-03T08:50:03Z</time></trkpt><trkpt lat="42.688447751739396" lon="18.87789487023825"><ele>986.0</ele><time>2026-05-03T08:50:04Z</time></trkpt><trkpt lat="42.68853776534647" lon="18.87793508193306"><ele>984.0</ele><time>2026-05-03T08:50:05Z</time></trkpt><trkpt lat="42.68862550358999" lon="18.877928835759043"><ele>982.0</ele><time>2026-05-03T08:50:06Z</time></trkpt><trkpt lat="42.68871064868451" lon="18.877858549589146"><ele>983.25</ele><time>2026-05-03T08:50:07Z</time></trkpt><trkpt lat="42.6887939929107" lon="18.87774718096741"><ele>984.5</ele><time>2026-05-03T08:50:08Z</time></trkpt><trkpt lat="42.688875800151656" lon="18.877630545865937"><ele>985.75</ele><time>2026-05-03T08:50:09Z</time></trkpt><trkpt lat="42.688969268947744" lon="18.877542074668046"><ele>987.0</ele><time>2026-05-03T08:50:10Z</time></trkpt><trkpt lat="42.689075236415384" lon="18.877502041610402"><ele>987.0</ele><time>2026-05-03T08:50:11Z</time></trkpt><trkpt lat="42.68919310876878" lon="18.87752467210444"><ele>987.0</ele><time>2026-05-03T08:50:12Z</time></trkpt><trkpt lat="42.6893066554718" lon="18.877594401768235"><ele>987.0</ele><time>2026-05-03T08:50:13Z</time></trkpt><trkpt lat="42.6894307582451" lon="18.877677016372076"><ele>987.0</ele><time>2026-05-03T08:50:14Z</time></trkpt><trkpt lat="42.68956457655428" lon="18.877737798007715"><ele>980.0</ele><time>2026-05-03T08:50:15Z</time></trkpt><trkpt lat="42.68970418493335" lon="18.8777974697507"><ele>973.0</ele><time>2026-05-03T08:50:16Z</time></trkpt><trkpt lat="42.68985157043855" lon="18.87787162078062"><ele>966.0</ele><time>2026-05-03T08:50:17Z</time></trkpt><trkpt lat="42.6899964482386" lon="18.87795875646337"><ele>966.0</ele><time>2026-05-03T08:50:18Z</time></trkpt><trkpt lat="42.690141267774045" lon="18.878059993311968"><ele>966.0</ele><time>2026-05-03T08:50:19Z</time></trkpt><trkpt lat="42.69028611753509" lon="18.8781718883141"><ele>966.0</ele><time>2026-05-03T08:50:20Z</time></trkpt><trkpt lat="42.69042215627024" lon="18.878286896228907"><ele>965.5</ele><time>2026-05-03T08:50:21Z</time></trkpt><trkpt lat="42.690542035047606" lon="18.878394628343646"><ele>965.0</ele><time>2026-05-03T08:50:22Z</time></trkpt><trkpt lat="42.69064949117167" lon="18.878508106759"><ele>964.5</ele><time>2026-05-03T08:50:23Z</time></trkpt><trkpt lat="42.69072405040408" lon="18.87865223138573"><ele>964.0</ele><time>2026-05-03T08:50:24Z</time></trkpt><trkpt lat="42.69076849436717" lon="18.878825005091404"><ele>964.0</ele><time>2026-05-03T08:50:25Z</time></trkpt><trkpt lat="42.69082187506574" lon="18.8789692167636"><ele>964.0</ele><time>2026-05-03T08:50:26Z</time></trkpt><trkpt lat="42.690910326778685" lon="18.8790561516928"><ele>964.0</ele><time>2026-05-03T08:50:27Z</time></trkpt><trkpt lat="42.691016348552516" lon="18.87908395775145"><ele>964.0</ele><time>2026-05-03T08:50:28Z</time></trkpt><trkpt lat="42.691138817341404" lon="18.87907229180276"><ele>963.5</ele><time>2026-05-03T08:50:29Z</time></trkpt><trkpt lat="42.69125715392995" lon="18.879065591772893"><ele>963.0</ele><time>2026-05-03T08:50:30Z</time></trkpt><trkpt lat="42.69137290688729" lon="18.879115439124426"><ele>962.5</ele><time>2026-05-03T08:50:31Z</time></trkpt><trkpt lat="42.69146114986713" lon="18.87919934568651"><ele>962.0</ele><time>2026-05-03T08:50:32Z</time></trkpt><trkpt lat="42.69154248642036" lon="18.879286944006726"><ele>962.0</ele><time>2026-05-03T08:50:33Z</time></trkpt><trkpt lat="42.691625630231385" lon="18.87937336465063"><ele>962.0</ele><time>2026-05-03T08:50:34Z</time></trkpt><trkpt lat="42.69172941237826" lon="18.879435409187003"><ele>962.0</ele><time>2026-05-03T08:50:35Z</time></trkpt><trkpt lat="42.69184178764238" lon="18.879466398466263"><ele>962.0</ele><time>2026-05-03T08:50:36Z</time></trkpt><trkpt lat="42.6919551268204" lon="18.87948833067022"><ele>962.0</ele><time>2026-05-03T08:50:37Z</time></trkpt><trkpt lat="42.69206116672565" lon="18.879518719366814"><ele>965.4000000000001</ele><time>2026-05-03T08:50:38Z</time></trkpt><trkpt lat="42.692158390236685" lon="18.879586170122426"><ele>968.8000000000001</ele><time>2026-05-03T08:50:39Z</time></trkpt><trkpt lat="42.69223359106914" lon="18.879688002719284"><ele>972.2</ele><time>2026-05-03T08:50:40Z</time></trkpt><trkpt lat="42.69229911827529" lon="18.879817390469018"><ele>975.6</ele><time>2026-05-03T08:50:41Z</time></trkpt><trkpt lat="42.692359749358445" lon="18.879933805220876"><ele>979.0</ele><time>2026-05-03T08:50:42Z</time></trkpt><trkpt lat="42.69242154380173" lon="18.88003282257478"><ele>979.2</ele><time>2026-05-03T08:50:43Z</time></trkpt><trkpt lat="42.69248936296272" lon="18.88010104071717"><ele>979.4000000000001</ele><time>2026-05-03T08:50:44Z</time></trkpt><trkpt lat="42.69256888737131" lon="18.88011546417924"><ele>979.6</ele><time>2026-05-03T08:50:45Z</time></trkpt><trkpt lat="42.69266707073684" lon="18.880111694153232"><ele>979.8</ele><time>2026-05-03T08:50:46Z</time></trkpt><trkpt lat="42.692786285098244" lon="18.880079147976325"><ele>980.0</ele><time>2026-05-03T08:50:47Z</time></trkpt><trkpt lat="42.692909632283275" lon="18.880038856045253"><ele>980.0</ele><time>2026-05-03T08:50:48Z</time></trkpt><trkpt lat="42.69303456745668" lon="18.880000459275664"><ele>980.0</ele><time>2026-05-03T08:50:49Z</time></trkpt><trkpt lat="42.69316042753891" lon="18.879969198960325"><ele>980.0</ele><time>2026-05-03T08:50:50Z</time></trkpt><trkpt lat="42.69327850382993" lon="18.879939931070655"><ele>980.0</ele><time>2026-05-03T08:50:51Z</time></trkpt><trkpt lat="42.69339640725012" lon="18.87990431328972"><ele>980.0</ele><time>2026-05-03T08:50:52Z</time></trkpt><trkpt lat="42.6935063960353" lon="18.879850365821657"><ele>980.0</ele><time>2026-05-03T08:50:53Z</time></trkpt><trkpt lat="42.69361848943929" lon="18.879781580262684"><ele>980.0</ele><time>2026-05-03T08:50:54Z</time></trkpt><trkpt lat="42.69372588181754" lon="18.879697991773927"><ele>980.0</ele><time>2026-05-03T08:50:55Z</time></trkpt><trkpt lat="42.69383364054181" lon="18.879619314378484"><ele>979.75</ele><time>2026-05-03T08:50:56Z</time></trkpt><trkpt lat="42.69393954041686" lon="18.879547134021188"><ele>979.5</ele><time>2026-05-03T08:50:57Z</time></trkpt><trkpt lat="42.694042550250785" lon="18.879460468964254"><ele>979.25</ele><time>2026-05-03T08:50:58Z</time></trkpt><trkpt lat="42.694136606604296" lon="18.879348131099338"><ele>979.0</ele><time>2026-05-03T08:50:59Z</time></trkpt><trkpt lat="42.69422588435438" lon="18.87923129015474"><ele>979.5</ele><time>2026-05-03T08:51:00Z</time></trkpt><trkpt lat="42.69431421580421" lon="18.8791140740073"><ele>980.0</ele><time>2026-05-03T08:51:01Z</time></trkpt><trkpt lat="42.69440869603865" lon="18.87899071758544"><ele>980.5</ele><time>2026-05-03T08:51:02Z</time></trkpt><trkpt lat="42.69450317720169" lon="18.878878270969864"><ele>981.0</ele><time>2026-05-03T08:51:03Z</time></trkpt><trkpt lat="42.69459539205387" lon="18.878789665913043"><ele>981.5</ele><time>2026-05-03T08:51:04Z</time></trkpt><trkpt lat="42.69469338507351" lon="18.878736279191216"><ele>982.0</ele><time>2026-05-03T08:51:05Z</time></trkpt><trkpt lat="42.694810806832386" lon="18.878727342503044"><ele>982.5</ele><time>2026-05-03T08:51:06Z</time></trkpt><trkpt lat="42.69493747386699" lon="18.878711374556953"><ele>983.0</ele><time>2026-05-03T08:51:07Z</time></trkpt><trkpt lat="42.69507050780418" lon="18.878681086552092"><ele>983.0</ele><time>2026-05-03T08:51:08Z</time></trkpt><trkpt lat="42.69520250263223" lon="18.878649557568025"><ele>983.0</ele><time>2026-05-03T08:51:09Z</time></trkpt><trkpt lat="42.69532942327534" lon="18.878615098335025"><ele>983.0</ele><time>2026-05-03T08:51:10Z</time></trkpt><trkpt lat="42.695437184584854" lon="18.878555838625946"><ele>983.0</ele><time>2026-05-03T08:51:11Z</time></trkpt><trkpt lat="42.6955299679467" lon="18.87844496971473"><ele>985.0</ele><time>2026-05-03T08:51:12Z</time></trkpt><trkpt lat="42.69559451452765" lon="18.87828277906713"><ele>987.0</ele><time>2026-05-03T08:51:13Z</time></trkpt><trkpt lat="42.695647185815155" lon="18.878105313966827"><ele>989.0</ele><time>2026-05-03T08:51:14Z</time></trkpt><trkpt lat="42.695711349769645" lon="18.877929556013914"><ele>991.0</ele><time>2026-05-03T08:51:15Z</time></trkpt><trkpt lat="42.69578409106773" lon="18.877767616052243"><ele>991.0</ele><time>2026-05-03T08:51:16Z</time></trkpt><trkpt lat="42.69586236576591" lon="18.877633661866124"><ele>991.0</ele><time>2026-05-03T08:51:17Z</time></trkpt><trkpt lat="42.69595208697238" lon="18.87754845875252"><ele>991.0</ele><time>2026-05-03T08:51:18Z</time></trkpt><trkpt lat="42.69607100108059" lon="18.877502470664773"><ele>991.0</ele><time>2026-05-03T08:51:19Z</time></trkpt><trkpt lat="42.69621419054154" lon="18.877457800786818"><ele>989.6666666666666</ele><time>2026-05-03T08:51:20Z</time></trkpt><trkpt lat="42.6963733892498" lon="18.877389051969622"><ele>988.3333333333333</ele><time>2026-05-03T08:51:21Z</time></trkpt><trkpt lat="42.69654463582601" lon="18.877305536229024"><ele>987.0</ele><time>2026-05-03T08:51:22Z</time></trkpt><trkpt lat="42.69670958031008" lon="18.87723769848958"><ele>987.0</ele><time>2026-05-03T08:51:23Z</time></trkpt><trkpt lat="42.696861727534376" lon="18.877199801009915"><ele>987.0</ele><time>2026-05-03T08:51:24Z</time></trkpt><trkpt lat="42.696999418200775" lon="18.877141122853878"><ele>987.0</ele><time>2026-05-03T08:51:25Z</time></trkpt><trkpt lat="42.69713153050663" lon="18.87701118599022"><ele>988.75</ele><time>2026-05-03T08:51:26Z</time></trkpt><trkpt lat="42.69723139548428" lon="18.876834360769962"><ele>990.5</ele><time>2026-05-03T08:51:27Z</time></trkpt><trkpt lat="42.69731954112454" lon="18.876681685280424"><ele>992.25</ele><time>2026-05-03T08:51:28Z</time></trkpt><trkpt lat="42.697418530165116" lon="18.876598641859257"><ele>994.0</ele><time>2026-05-03T08:51:29Z</time></trkpt><trkpt lat="42.69753052049668" lon="18.876605423960722"><ele>993.0</ele><time>2026-05-03T08:51:30Z</time></trkpt><trkpt lat="42.6976505714535" lon="18.876640336208368"><ele>992.0</ele><time>2026-05-03T08:51:31Z</time></trkpt><trkpt lat="42.69777523972997" lon="18.87661201704466"><ele>991.0</ele><time>2026-05-03T08:51:32Z</time></trkpt><trkpt lat="42.69788434301559" lon="18.876503181775824"><ele>990.0</ele><time>2026-05-03T08:51:33Z</time></trkpt><trkpt lat="42.697961663320655" lon="18.87635082850002"><ele>990.0</ele><time>2026-05-03T08:51:34Z</time></trkpt><trkpt lat="42.698004335125496" lon="18.876163077330364"><ele>990.0</ele><time>2026-05-03T08:51:35Z</time></trkpt><trkpt lat="42.698035107955064" lon="18.8759857973283"><ele>990.0</ele><time>2026-05-03T08:51:36Z</time></trkpt><trkpt lat="42.69808674433135" lon="18.875851205110916"><ele>990.0</ele><time>2026-05-03T08:51:37Z</time></trkpt><trkpt lat="42.69816363426081" lon="18.875763539714164"><ele>988.5</ele><time>2026-05-03T08:51:38Z</time></trkpt><trkpt lat="42.69827331432764" lon="18.87573114272255"><ele>987.0</ele><time>2026-05-03T08:51:39Z</time></trkpt><trkpt lat="42.6984053104813" lon="18.87573055302002"><ele>985.5</ele><time>2026-05-03T08:51:40Z</time></trkpt><trkpt lat="42.69854285103661" lon="18.875724398602255"><ele>984.0</ele><time>2026-05-03T08:51:41Z</time></trkpt><trkpt lat="42.698674109883" lon="18.87568779258541"><ele>984.0</ele><time>2026-05-03T08:51:42Z</time></trkpt><trkpt lat="42.69879799681219" lon="18.875605737414464"><ele>984.0</ele><time>2026-05-03T08:51:43Z</time></trkpt><trkpt lat="42.698922188858184" lon="18.87550215167779"><ele>984.0</ele><time>2026-05-03T08:51:44Z</time></trkpt><trkpt lat="42.699049674245714" lon="18.875396577899384"><ele>984.0</ele><time>2026-05-03T08:51:45Z</time></trkpt><trkpt lat="42.69918846642524" lon="18.875324912157353"><ele>984.0</ele><time>2026-05-03T08:51:46Z</time></trkpt><trkpt lat="42.69933614273389" lon="18.87528762074705"><ele>984.0</ele><time>2026-05-03T08:51:47Z</time></trkpt><trkpt lat="42.699478685612654" lon="18.875280769361595"><ele>984.0</ele><time>2026-05-03T08:51:48Z</time></trkpt><trkpt lat="42.69961141401101" lon="18.875280662747084"><ele>984.0</ele><time>2026-05-03T08:51:49Z</time></trkpt><trkpt lat="42.699736428176415" lon="18.87523590153624"><ele>984.25</ele><time>2026-05-03T08:51:50Z</time></trkpt><trkpt lat="42.69984176972928" lon="18.875145652038984"><ele>984.5</ele><time>2026-05-03T08:51:51Z</time></trkpt><trkpt lat="42.69991818045935" lon="18.875017865915154"><ele>984.75</ele><time>2026-05-03T08:51:52Z</time></trkpt><trkpt lat="42.69996127751413" lon="18.874865482185765"><ele>985.0</ele><time>2026-05-03T08:51:53Z</time></trkpt><trkpt lat="42.6999860600048" lon="18.874691229287514"><ele>982.5</ele><time>2026-05-03T08:51:54Z</time></trkpt><trkpt lat="42.700003951927165" lon="18.874514268717608"><ele>980.0</ele><time>2026-05-03T08:51:55Z</time></trkpt><trkpt lat="42.70003099704798" lon="18.874348182192335"><ele>977.5</ele><time>2026-05-03T08:51:56Z</time></trkpt><trkpt lat="42.70008922842027" lon="18.8742111543461"><ele>975.0</ele><time>2026-05-03T08:51:57Z</time></trkpt><trkpt lat="42.70017903688386" lon="18.87410395377381"><ele>977.3333333333333</ele><time>2026-05-03T08:51:58Z</time></trkpt><trkpt lat="42.700294429603595" lon="18.873992023516745"><ele>979.6666666666666</ele><time>2026-05-03T08:51:59Z</time></trkpt><trkpt lat="42.7004210486054" lon="18.873873198601384"><ele>982.0</ele><time>2026-05-03T08:52:00Z</time></trkpt><trkpt lat="42.70054286487204" lon="18.873744585235315"><ele>982.0</ele><time>2026-05-03T08:52:01Z</time></trkpt><trkpt lat="42.7006471046271" lon="18.87362760984132"><ele>982.0</ele><time>2026-05-03T08:52:02Z</time></trkpt><trkpt lat="42.700738601603526" lon="18.87351283993731"><ele>982.0</ele><time>2026-05-03T08:52:03Z</time></trkpt><trkpt lat="42.70079975193405" lon="18.873381004492728"><ele>982.0</ele><time>2026-05-03T08:52:04Z</time></trkpt><trkpt lat="42.700816790926595" lon="18.87321678659103"><ele>978.25</ele><time>2026-05-03T08:52:05Z</time></trkpt><trkpt lat="42.70079350794649" lon="18.87304673378623"><ele>974.5</ele><time>2026-05-03T08:52:06Z</time></trkpt><trkpt lat="42.7007425748347" lon="18.872870029058447"><ele>970.75</ele><time>2026-05-03T08:52:07Z</time></trkpt><trkpt lat="42.700718259650536" lon="18.87269259826262"><ele>967.0</ele><time>2026-05-03T08:52:08Z</time></trkpt><trkpt lat="42.70073598754296" lon="18.87251109257377"><ele>964.6666666666666</ele><time>2026-05-03T08:52:09Z</time></trkpt><trkpt lat="42.70078041464521" lon="18.87230551746855"><ele>962.3333333333333</ele><time>2026-05-03T08:52:10Z</time></trkpt><trkpt lat="42.700830157879636" lon="18.872077866670242"><ele>960.0</ele><time>2026-05-03T08:52:11Z</time></trkpt><trkpt lat="42.70086908482135" lon="18.871835593562054"><ele>958.6666666666667</ele><time>2026-05-03T08:52:12Z</time></trkpt><trkpt lat="42.70089762130478" lon="18.871604091214678"><ele>957.3333333333334</ele><time>2026-05-03T08:52:13Z</time></trkpt><trkpt lat="42.70091704167229" lon="18.871398182947523"><ele>956.0</ele><time>2026-05-03T08:52:14Z</time></trkpt><trkpt lat="42.70093645323606" lon="18.871212845273845"><ele>956.0</ele><time>2026-05-03T08:52:15Z</time></trkpt><trkpt lat="42.70098153131038" lon="18.871055687981645"><ele>956.0</ele><time>2026-05-03T08:52:16Z</time></trkpt><trkpt lat="42.7010769025755" lon="18.870933537965712"><ele>956.0</ele><time>2026-05-03T08:52:17Z</time></trkpt><trkpt lat="42.70120811190741" lon="18.870847373689326"><ele>956.0</ele><time>2026-05-03T08:52:18Z</time></trkpt><trkpt lat="42.70135557532086" lon="18.87079113120409"><ele>956.75</ele><time>2026-05-03T08:52:19Z</time></trkpt><trkpt lat="42.701488284456346" lon="18.870712756098825"><ele>957.5</ele><time>2026-05-03T08:52:20Z</time></trkpt><trkpt lat="42.701589670803735" lon="18.87057538384726"><ele>958.25</ele><time>2026-05-03T08:52:21Z</time></trkpt><trkpt lat="42.70166400376486" lon="18.87039849599928"><ele>959.0</ele><time>2026-05-03T08:52:22Z</time></trkpt><trkpt lat="42.70172579411148" lon="18.87019334633772"><ele>959.5</ele><time>2026-05-03T08:52:23Z</time></trkpt><trkpt lat="42.70178053108714" lon="18.869995378905106"><ele>960.0</ele><time>2026-05-03T08:52:24Z</time></trkpt><trkpt lat="42.70183483880539" lon="18.869812024612656"><ele>960.5</ele><time>2026-05-03T08:52:25Z</time></trkpt><trkpt lat="42.701895071558916" lon="18.86965506086898"><ele>961.0</ele><time>2026-05-03T08:52:26Z</time></trkpt><trkpt lat="42.70198681047856" lon="18.869538594726315"><ele>961.0</ele><time>2026-05-03T08:52:27Z</time></trkpt><trkpt lat="42.70210920476469" lon="18.869492051005057"><ele>961.0</ele><time>2026-05-03T08:52:28Z</time></trkpt><trkpt lat="42.70225522398661" lon="18.86947522614678"><ele>961.0</ele><time>2026-05-03T08:52:29Z</time></trkpt><trkpt lat="42.70241718540213" lon="18.86946349382577"><ele>961.0</ele><time>2026-05-03T08:52:30Z</time></trkpt><trkpt lat="42.70258630299528" lon="18.8694494240062"><ele>960.6666666666666</ele><time>2026-05-03T08:52:31Z</time></trkpt><trkpt lat="42.702752308738454" lon="18.86942670065201"><ele>960.3333333333333</ele><time>2026-05-03T08:52:32Z</time></trkpt><trkpt lat="42.70291797655709" lon="18.86937091343799"><ele>960.0</ele><time>2026-05-03T08:52:33Z</time></trkpt><trkpt lat="42.703073531775004" lon="18.86925699064522"><ele>958.0</ele><time>2026-05-03T08:52:34Z</time></trkpt><trkpt lat="42.703229409481146" lon="18.869102570567247"><ele>956.0</ele><time>2026-05-03T08:52:35Z</time></trkpt><trkpt lat="42.70339443713447" lon="18.86895221928341"><ele>954.0</ele><time>2026-05-03T08:52:36Z</time></trkpt><trkpt lat="42.70356138529271" lon="18.868828067045417"><ele>953.75</ele><time>2026-05-03T08:52:37Z</time></trkpt><trkpt lat="42.703713592525915" lon="18.868716927423154"><ele>953.5</ele><time>2026-05-03T08:52:38Z</time></trkpt><trkpt lat="42.70384657730818" lon="18.868627237774067"><ele>953.25</ele><time>2026-05-03T08:52:39Z</time></trkpt><trkpt lat="42.70396623189012" lon="18.868584705083496"><ele>953.0</ele><time>2026-05-03T08:52:40Z</time></trkpt><trkpt lat="42.70408671531243" lon="18.868596983583135"><ele>953.0</ele><time>2026-05-03T08:52:41Z</time></trkpt><trkpt lat="42.70420076166338" lon="18.86866351100778"><ele>953.0</ele><time>2026-05-03T08:52:42Z</time></trkpt><trkpt lat="42.70428350106961" lon="18.868779725400298"><ele>953.0</ele><time>2026-05-03T08:52:43Z</time></trkpt><trkpt lat="42.70433907014593" lon="18.868942096587052"><ele>953.0</ele><time>2026-05-03T08:52:44Z</time></trkpt><trkpt lat="42.70438617614093" lon="18.869118465245467"><ele>950.5</ele><time>2026-05-03T08:52:45Z</time></trkpt><trkpt lat="42.70443690969411" lon="18.869271596666774"><ele>948.0</ele><time>2026-05-03T08:52:46Z</time></trkpt><trkpt lat="42.70450984672603" lon="18.869411053845134"><ele>945.5</ele><time>2026-05-03T08:52:47Z</time></trkpt><trkpt lat="42.70461411734688" lon="18.86954677203694"><ele>943.0</ele><time>2026-05-03T08:52:48Z</time></trkpt><trkpt lat="42.70474140053581" lon="18.869695483111588"><ele>943.0</ele><time>2026-05-03T08:52:49Z</time></trkpt><trkpt lat="42.70486515375881" lon="18.869847407928024"><ele>943.0</ele><time>2026-05-03T08:52:50Z</time></trkpt><trkpt lat="42.704971981351235" lon="18.869989478157084"><ele>943.0</ele><time>2026-05-03T08:52:51Z</time></trkpt><trkpt lat="42.70507361199535" lon="18.870116285914747"><ele>943.0</ele><time>2026-05-03T08:52:52Z</time></trkpt><trkpt lat="42.70516565346808" lon="18.870195438209343"><ele>943.0</ele><time>2026-05-03T08:52:53Z</time></trkpt><trkpt lat="42.705259202742404" lon="18.87021237117388"><ele>943.0</ele><time>2026-05-03T08:52:54Z</time></trkpt><trkpt lat="42.70535301561005" lon="18.87016558644705"><ele>943.0</ele><time>2026-05-03T08:52:55Z</time></trkpt><trkpt lat="42.70544177787131" lon="18.870061606862674"><ele>943.0</ele><time>2026-05-03T08:52:56Z</time></trkpt><trkpt lat="42.705518986897495" lon="18.869914349330827"><ele>943.0</ele><time>2026-05-03T08:52:57Z</time></trkpt><trkpt lat="42.7056017838275" lon="18.869763347175294"><ele>943.0</ele><time>2026-05-03T08:52:58Z</time></trkpt><trkpt lat="42.70569806533909" lon="18.869667140263925"><ele>943.0</ele><time>2026-05-03T08:52:59Z</time></trkpt><trkpt lat="42.70581585005493" lon="18.86963502555807"><ele>943.0</ele><time>2026-05-03T08:53:00Z</time></trkpt><trkpt lat="42.70596145088393" lon="18.869644812515467"><ele>943.6666666666666</ele><time>2026-05-03T08:53:01Z</time></trkpt><trkpt lat="42.706125740654585" lon="18.869645911727936"><ele>944.3333333333333</ele><time>2026-05-03T08:53:02Z</time></trkpt><trkpt lat="42.70630078612489" lon="18.869636484542934"><ele>945.0</ele><time>2026-05-03T08:53:03Z</time></trkpt><trkpt lat="42.706463408122076" lon="18.869646140583672"><ele>945.0</ele><time>2026-05-03T08:53:04Z</time></trkpt><trkpt lat="42.706616971034535" lon="18.86966896206942"><ele>945.0</ele><time>2026-05-03T08:53:05Z</time></trkpt><trkpt lat="42.7067690964187" lon="18.869663823962036"><ele>945.0</ele><time>2026-05-03T08:53:06Z</time></trkpt><trkpt lat="42.70692047482081" lon="18.869600697952876"><ele>942.0</ele><time>2026-05-03T08:53:07Z</time></trkpt><trkpt lat="42.707071703777125" lon="18.86949550296303"><ele>939.0</ele><time>2026-05-03T08:53:08Z</time></trkpt><trkpt lat="42.70721668039103" lon="18.86936002316512"><ele>936.0</ele><time>2026-05-03T08:53:09Z</time></trkpt><trkpt lat="42.70735149038252" lon="18.869201499618228"><ele>936.0</ele><time>2026-05-03T08:53:10Z</time></trkpt><trkpt lat="42.70748546975946" lon="18.86902849774921"><ele>936.0</ele><time>2026-05-03T08:53:11Z</time></trkpt><trkpt lat="42.70762903218066" lon="18.868863482559508"><ele>936.0</ele><time>2026-05-03T08:53:12Z</time></trkpt><trkpt lat="42.70778182587685" lon="18.868739966456296"><ele>939.3333333333333</ele><time>2026-05-03T08:53:13Z</time></trkpt><trkpt lat="42.70794656007388" lon="18.868671193798388"><ele>942.6666666666666</ele><time>2026-05-03T08:53:14Z</time></trkpt><trkpt lat="42.708113818760225" lon="18.868611659736548"><ele>946.0</ele><time>2026-05-03T08:53:15Z</time></trkpt><trkpt lat="42.70827648607783" lon="18.86856519142355"><ele>946.0</ele><time>2026-05-03T08:53:16Z</time></trkpt><trkpt lat="42.708445649124855" lon="18.868510519804985"><ele>946.0</ele><time>2026-05-03T08:53:17Z</time></trkpt><trkpt lat="42.70858947178727" lon="18.86841151676601"><ele>946.0</ele><time>2026-05-03T08:53:18Z</time></trkpt><trkpt lat="42.708716831340176" lon="18.868288795956047"><ele>944.5</ele><time>2026-05-03T08:53:19Z</time></trkpt><trkpt lat="42.70880807768468" lon="18.868171153648237"><ele>943.0</ele><time>2026-05-03T08:53:20Z</time></trkpt><trkpt lat="42.70887432830644" lon="18.86805252158078"><ele>941.5</ele><time>2026-05-03T08:53:21Z</time></trkpt><trkpt lat="42.708901583315345" lon="18.867893763205434"><ele>940.0</ele><time>2026-05-03T08:53:22Z</time></trkpt><trkpt lat="42.70889050232821" lon="18.86770302157714"><ele>938.0</ele><time>2026-05-03T08:53:23Z</time></trkpt><trkpt lat="42.70885802745888" lon="18.867510775218282"><ele>936.0</ele><time>2026-05-03T08:53:24Z</time></trkpt><trkpt lat="42.70885129081062" lon="18.86731548792953"><ele>934.0</ele><time>2026-05-03T08:53:25Z</time></trkpt><trkpt lat="42.70887370488753" lon="18.86713969265385"><ele>932.0</ele><time>2026-05-03T08:53:26Z</time></trkpt><trkpt lat="42.708931027181244" lon="18.86697190243104"><ele>932.0</ele><time>2026-05-03T08:53:27Z</time></trkpt><trkpt lat="42.70902437127271" lon="18.86681405798075"><ele>932.0</ele><time>2026-05-03T08:53:28Z</time></trkpt><trkpt lat="42.70913450664511" lon="18.86666084473944"><ele>932.0</ele><time>2026-05-03T08:53:29Z</time></trkpt><trkpt lat="42.7092342196258" lon="18.86649604330002"><ele>933.0</ele><time>2026-05-03T08:53:30Z</time></trkpt><trkpt lat="42.70931168197924" lon="18.866327800270557"><ele>934.0</ele><time>2026-05-03T08:53:31Z</time></trkpt><trkpt lat="42.70938669979009" lon="18.86619090358345"><ele>935.0</ele><time>2026-05-03T08:53:32Z</time></trkpt><trkpt lat="42.70949717861351" lon="18.866095019641676"><ele>936.0</ele><time>2026-05-03T08:53:33Z</time></trkpt><trkpt lat="42.70964062262179" lon="18.866052507985565"><ele>936.0</ele><time>2026-05-03T08:53:34Z</time></trkpt><trkpt lat="42.709774107141904" lon="18.86602529808774"><ele>936.0</ele><time>2026-05-03T08:53:35Z</time></trkpt><trkpt lat="42.70986796630412" lon="18.86593923178725"><ele>936.0</ele><time>2026-05-03T08:53:36Z</time></trkpt><trkpt lat="42.70994212332476" lon="18.86581145237259"><ele>936.0</ele><time>2026-05-03T08:53:37Z</time></trkpt><trkpt lat="42.710023109691136" lon="18.865662980970075"><ele>935.5</ele><time>2026-05-03T08:53:38Z</time></trkpt><trkpt lat="42.71010142123043" lon="18.865517724978663"><ele>935.0</ele><time>2026-05-03T08:53:39Z</time></trkpt><trkpt lat="42.71017764480895" lon="18.865390947040694"><ele>934.5</ele><time>2026-05-03T08:53:40Z</time></trkpt><trkpt lat="42.71026190851087" lon="18.865284719594786"><ele>934.0</ele><time>2026-05-03T08:53:41Z</time></trkpt><trkpt lat="42.710359008820944" lon="18.86520859321782"><ele>934.0</ele><time>2026-05-03T08:53:42Z</time></trkpt><trkpt lat="42.71047935618929" lon="18.865164231371143"><ele>934.0</ele><time>2026-05-03T08:53:43Z</time></trkpt><trkpt lat="42.71062447356259" lon="18.865133382818932"><ele>934.0</ele><time>2026-05-03T08:53:44Z</time></trkpt><trkpt lat="42.71077946060478" lon="18.86510148839642"><ele>934.0</ele><time>2026-05-03T08:53:45Z</time></trkpt><trkpt lat="42.71094003629417" lon="18.865027405815336"><ele>928.3333333333333</ele><time>2026-05-03T08:53:46Z</time></trkpt><trkpt lat="42.711098308461374" lon="18.864906950764592"><ele>922.6666666666667</ele><time>2026-05-03T08:53:47Z</time></trkpt><trkpt lat="42.711265845113516" lon="18.864755809896703"><ele>917.0</ele><time>2026-05-03T08:53:48Z</time></trkpt><trkpt lat="42.71144790574452" lon="18.86460253462148"><ele>917.0</ele><time>2026-05-03T08:53:49Z</time></trkpt><trkpt lat="42.71165145478412" lon="18.864449837801658"><ele>917.0</ele><time>2026-05-03T08:53:50Z</time></trkpt><trkpt lat="42.71184976007198" lon="18.86430358172831"><ele>912.6666666666667</ele><time>2026-05-03T08:53:51Z</time></trkpt><trkpt lat="42.712041139481364" lon="18.864163088684133"><ele>908.3333333333333</ele><time>2026-05-03T08:53:52Z</time></trkpt><trkpt lat="42.71222967724992" lon="18.8640389435601"><ele>904.0</ele><time>2026-05-03T08:53:53Z</time></trkpt><trkpt lat="42.71241019980569" lon="18.863917926605545"><ele>904.0</ele><time>2026-05-03T08:53:54Z</time></trkpt><trkpt lat="42.71256567979052" lon="18.863806473974666"><ele>904.0</ele><time>2026-05-03T08:53:55Z</time></trkpt><trkpt lat="42.712697376103215" lon="18.863693553532087"><ele>904.0</ele><time>2026-05-03T08:53:56Z</time></trkpt><trkpt lat="42.712803365705426" lon="18.863576598759302"><ele>906.75</ele><time>2026-05-03T08:53:57Z</time></trkpt><trkpt lat="42.712909269651966" lon="18.863483569461224"><ele>909.5</ele><time>2026-05-03T08:53:58Z</time></trkpt><trkpt lat="42.71305124999339" lon="18.86343605837285"><ele>912.25</ele><time>2026-05-03T08:53:59Z</time></trkpt><trkpt lat="42.713205435299265" lon="18.86339438827581"><ele>915.0</ele><time>2026-05-03T08:54:00Z</time></trkpt><trkpt lat="42.71333993984118" lon="18.86333989497746"><ele>912.8</ele><time>2026-05-03T08:54:01Z</time></trkpt><trkpt lat="42.71345600885297" lon="18.863276311913076"><ele>910.6</ele><time>2026-05-03T08:54:02Z</time></trkpt><trkpt lat="42.71354772720309" lon="18.863199186793235"><ele>908.4000000000001</ele><time>2026-05-03T08:54:03Z</time></trkpt><trkpt lat="42.71360358919558" lon="18.863087966884933"><ele>906.2</ele><time>2026-05-03T08:54:04Z</time></trkpt><trkpt lat="42.71361644430175" lon="18.86294210611832"><ele>904.0</ele><time>2026-05-03T08:54:05Z</time></trkpt><trkpt lat="42.71358385912231" lon="18.862808423371867"><ele>901.0</ele><time>2026-05-03T08:54:06Z</time></trkpt><trkpt lat="42.71353376559019" lon="18.862676959048667"><ele>898.0000000000001</ele><time>2026-05-03T08:54:07Z</time></trkpt><trkpt lat="42.71349197342482" lon="18.862548083008694"><ele>895.0000000000001</ele><time>2026-05-03T08:54:08Z</time></trkpt><trkpt lat="42.713466079113985" lon="18.86241116900394"><ele>892.0</ele><time>2026-05-03T08:54:09Z</time></trkpt><trkpt lat="42.71345557187737" lon="18.86225273490886"><ele>889.0</ele><time>2026-05-03T08:54:10Z</time></trkpt><trkpt lat="42.713438978680884" lon="18.86207385480256"><ele>886.5</ele><time>2026-05-03T08:54:11Z</time></trkpt><trkpt lat="42.71342121612327" lon="18.861882067138254"><ele>884.0</ele><time>2026-05-03T08:54:12Z</time></trkpt><trkpt lat="42.71340260120718" lon="18.86169419447749"><ele>881.5</ele><time>2026-05-03T08:54:13Z</time></trkpt><trkpt lat="42.71338910865819" lon="18.861515926045602"><ele>879.0</ele><time>2026-05-03T08:54:14Z</time></trkpt><trkpt lat="42.7133978451469" lon="18.86134946420403"><ele>878.75</ele><time>2026-05-03T08:54:15Z</time></trkpt><trkpt lat="42.71344411380208" lon="18.86122223028959"><ele>878.5</ele><time>2026-05-03T08:54:16Z</time></trkpt><trkpt lat="42.71353866565704" lon="18.861145567613658"><ele>878.25</ele><time>2026-05-03T08:54:17Z</time></trkpt><trkpt lat="42.713652685209766" lon="18.861095383637892"><ele>878.0</ele><time>2026-05-03T08:54:18Z</time></trkpt><trkpt lat="42.713776190322456" lon="18.861063403847506"><ele>878.0</ele><time>2026-05-03T08:54:19Z</time></trkpt><trkpt lat="42.71388667869559" lon="18.86103029669021"><ele>878.0</ele><time>2026-05-03T08:54:20Z</time></trkpt><trkpt lat="42.71399589665375" lon="18.861061790546255"><ele>878.0</ele><time>2026-05-03T08:54:21Z</time></trkpt><trkpt lat="42.71409762871104" lon="18.861126853740444"><ele>878.0</ele><time>2026-05-03T08:54:22Z</time></trkpt><trkpt lat="42.714191755936724" lon="18.861182129381262"><ele>878.0</ele><time>2026-05-03T08:54:23Z</time></trkpt><trkpt lat="42.71429887312108" lon="18.861175100249433"><ele>876.8</ele><time>2026-05-03T08:54:24Z</time></trkpt><trkpt lat="42.71440582055084" lon="18.86111970087267"><ele>875.5999999999999</ele><time>2026-05-03T08:54:25Z</time></trkpt><trkpt lat="42.71450784708532" lon="18.861071703374307"><ele>874.4000000000001</ele><time>2026-05-03T08:54:26Z</time></trkpt><trkpt lat="42.71461006727245" lon="18.86107183497057"><ele>873.2</ele><time>2026-05-03T08:54:27Z</time></trkpt><trkpt lat="42.71470522969888" lon="18.86113630445834"><ele>872.0</ele><time>2026-05-03T08:54:28Z</time></trkpt><trkpt lat="42.71478990788992" lon="18.86124627991745"><ele>872.0</ele><time>2026-05-03T08:54:29Z</time></trkpt><trkpt lat="42.71488961930732" lon="18.861332211211124"><ele>872.0</ele><time>2026-05-03T08:54:30Z</time></trkpt><trkpt lat="42.71502103171635" lon="18.861354783360106"><ele>872.0</ele><time>2026-05-03T08:54:31Z</time></trkpt><trkpt lat="42.71517472660524" lon="18.86133271699884"><ele>872.0</ele><time>2026-05-03T08:54:32Z</time></trkpt><trkpt lat="42.71533139266446" lon="18.86131967306023"><ele>872.5</ele><time>2026-05-03T08:54:33Z</time></trkpt><trkpt lat="42.715474509974" lon="18.8613248784118"><ele>873.0</ele><time>2026-05-03T08:54:34Z</time></trkpt><trkpt lat="42.71560050508538" lon="18.861318586182584"><ele>873.5</ele><time>2026-05-03T08:54:35Z</time></trkpt><trkpt lat="42.71571849364784" lon="18.861273173656695"><ele>874.0</ele><time>2026-05-03T08:54:36Z</time></trkpt><trkpt lat="42.71581524580407" lon="18.861168828044825"><ele>874.0</ele><time>2026-05-03T08:54:37Z</time></trkpt><trkpt lat="42.715888184123486" lon="18.861015980463872"><ele>874.0</ele><time>2026-05-03T08:54:38Z</time></trkpt><trkpt lat="42.71593254988337" lon="18.860832945809108"><ele>874.0</ele><time>2026-05-03T08:54:39Z</time></trkpt><trkpt lat="42.715967430033345" lon="18.86065683109123"><ele>874.0</ele><time>2026-05-03T08:54:40Z</time></trkpt><trkpt lat="42.7160197099292" lon="18.860485916419478"><ele>872.25</ele><time>2026-05-03T08:54:41Z</time></trkpt><trkpt lat="42.716098668942884" lon="18.860332586810532"><ele>870.5</ele><time>2026-05-03T08:54:42Z</time></trkpt><trkpt lat="42.71618323532152" lon="18.860185504755947"><ele>868.75</ele><time>2026-05-03T08:54:43Z</time></trkpt><trkpt lat="42.716268127176505" lon="18.860056625436915"><ele>867.0</ele><time>2026-05-03T08:54:44Z</time></trkpt><trkpt lat="42.71635839073157" lon="18.85996411810043"><ele>862.25</ele><time>2026-05-03T08:54:45Z</time></trkpt><trkpt lat="42.716468033950896" lon="18.859916411010737"><ele>857.5</ele><time>2026-05-03T08:54:46Z</time></trkpt><trkpt lat="42.71658604722578" lon="18.859916792836188"><ele>852.75</ele><time>2026-05-03T08:54:47Z</time></trkpt><trkpt lat="42.716708788029784" lon="18.859932449841608"><ele>848.0</ele><time>2026-05-03T08:54:48Z</time></trkpt><trkpt lat="42.71682805922846" lon="18.85989976714279"><ele>849.75</ele><time>2026-05-03T08:54:49Z</time></trkpt><trkpt lat="42.71693264448891" lon="18.859825693961916"><ele>851.5</ele><time>2026-05-03T08:54:50Z</time></trkpt><trkpt lat="42.71702589937995" lon="18.859710404621556"><ele>853.25</ele><time>2026-05-03T08:54:51Z</time></trkpt><trkpt lat="42.717100450140585" lon="18.85956899534009"><ele>855.0</ele><time>2026-05-03T08:54:52Z</time></trkpt><trkpt lat="42.717166155069805" lon="18.85943073967851"><ele>855.0</ele><time>2026-05-03T08:54:53Z</time></trkpt><trkpt lat="42.7172404629716" lon="18.85931286243535"><ele>855.0</ele><time>2026-05-03T08:54:54Z</time></trkpt><trkpt lat="42.71734567992499" lon="18.85922072956295"><ele>855.0</ele><time>2026-05-03T08:54:55Z</time></trkpt><trkpt lat="42.717479221689175" lon="18.85915661185422"><ele>855.0</ele><time>2026-05-03T08:54:56Z</time></trkpt><trkpt lat="42.717614392429276" lon="18.85910073863579"><ele>852.25</ele><time>2026-05-03T08:54:57Z</time></trkpt><trkpt lat="42.71774959634485" lon="18.859041667843403"><ele>849.5</ele><time>2026-05-03T08:54:58Z</time></trkpt><trkpt lat="42.71787758262896" lon="18.858974125899746"><ele>846.75</ele><time>2026-05-03T08:54:59Z</time></trkpt><trkpt lat="42.71799942048372" lon="18.858901549521544"><ele>844.0</ele><time>2026-05-03T08:55:00Z</time></trkpt><trkpt lat="42.718116351822935" lon="18.85882823734356"><ele>844.0</ele><time>2026-05-03T08:55:01Z</time></trkpt><trkpt lat="42.71822856602743" lon="18.858760708095616"><ele>844.0</ele><time>2026-05-03T08:55:02Z</time></trkpt><trkpt lat="42.71833720072562" lon="18.85869738675379"><ele>844.0</ele><time>2026-05-03T08:55:03Z</time></trkpt><trkpt lat="42.718448336160776" lon="18.85864034508773"><ele>844.0</ele><time>2026-05-03T08:55:04Z</time></trkpt><trkpt lat="42.71855929809986" lon="18.858570045020596"><ele>841.75</ele><time>2026-05-03T08:55:05Z</time></trkpt><trkpt lat="42.71866241151689" lon="18.85849280031013"><ele>839.5</ele><time>2026-05-03T08:55:06Z</time></trkpt><trkpt lat="42.71875882316943" lon="18.85841495316522"><ele>837.25</ele><time>2026-05-03T08:55:07Z</time></trkpt><trkpt lat="42.71886437819223" lon="18.858332157981526"><ele>835.0</ele><time>2026-05-03T08:55:08Z</time></trkpt><trkpt lat="42.71898099330073" lon="18.858237141730864"><ele>835.0</ele><time>2026-05-03T08:55:09Z</time></trkpt><trkpt lat="42.71910481701459" lon="18.858118229178306"><ele>835.0</ele><time>2026-05-03T08:55:10Z</time></trkpt><trkpt lat="42.719233252504296" lon="18.8579807239663"><ele>835.0</ele><time>2026-05-03T08:55:11Z</time></trkpt><trkpt lat="42.71936415698197" lon="18.857830835764197"><ele>840.6666666666666</ele><time>2026-05-03T08:55:12Z</time></trkpt><trkpt lat="42.71949661913852" lon="18.85768590534055"><ele>846.3333333333333</ele><time>2026-05-03T08:55:13Z</time></trkpt><trkpt lat="42.71962317626466" lon="18.857565166222944"><ele>852.0</ele><time>2026-05-03T08:55:14Z</time></trkpt><trkpt lat="42.719765777334956" lon="18.85749385423183"><ele>843.0</ele><time>2026-05-03T08:55:15Z</time></trkpt><trkpt lat="42.71991507025107" lon="18.85746153059829"><ele>834.0</ele><time>2026-05-03T08:55:16Z</time></trkpt><trkpt lat="42.72005493574418" lon="18.857415017310895"><ele>825.0</ele><time>2026-05-03T08:55:17Z</time></trkpt><trkpt lat="42.72018832679159" lon="18.857359455827293"><ele>816.0</ele><time>2026-05-03T08:55:18Z</time></trkpt><trkpt lat="42.720329741703694" lon="18.857334663257816"><ele>816.0</ele><time>2026-05-03T08:55:19Z</time></trkpt><trkpt lat="42.72048712659516" lon="18.85733787560264"><ele>816.0</ele><time>2026-05-03T08:55:20Z</time></trkpt><trkpt lat="42.72066087164864" lon="18.857340282201978"><ele>816.0</ele><time>2026-05-03T08:55:21Z</time></trkpt><trkpt lat="42.72084081182481" lon="18.857334829758518"><ele>816.0</ele><time>2026-05-03T08:55:22Z</time></trkpt><trkpt lat="42.72103522621644" lon="18.85731751090625"><ele>816.0</ele><time>2026-05-03T08:55:23Z</time></trkpt><trkpt lat="42.721221460176956" lon="18.857292971727713"><ele>816.0</ele><time>2026-05-03T08:55:24Z</time></trkpt><trkpt lat="42.72140358922021" lon="18.857262783727556"><ele>816.6666666666667</ele><time>2026-05-03T08:55:25Z</time></trkpt><trkpt lat="42.72158686161849" lon="18.857210801286605"><ele>817.3333333333334</ele><time>2026-05-03T08:55:26Z</time></trkpt><trkpt lat="42.72176278190082" lon="18.8571430588039"><ele>818.0</ele><time>2026-05-03T08:55:27Z</time></trkpt><trkpt lat="42.721936054290325" lon="18.857068448727606"><ele>821.0</ele><time>2026-05-03T08:55:28Z</time></trkpt><trkpt lat="42.722104326483276" lon="18.85699919186968"><ele>824.0</ele><time>2026-05-03T08:55:29Z</time></trkpt><trkpt lat="42.7222610402881" lon="18.856935119077157"><ele>827.0</ele><time>2026-05-03T08:55:30Z</time></trkpt><trkpt lat="42.72241344887571" lon="18.85687375042193"><ele>827.0</ele><time>2026-05-03T08:55:31Z</time></trkpt><trkpt lat="42.722567016433864" lon="18.85682015100475"><ele>827.0</ele><time>2026-05-03T08:55:32Z</time></trkpt><trkpt lat="42.72273509075095" lon="18.85678297995259"><ele>827.0</ele><time>2026-05-03T08:55:33Z</time></trkpt><trkpt lat="42.72291354288737" lon="18.8567733738706"><ele>812.6666666666667</ele><time>2026-05-03T08:55:34Z</time></trkpt><trkpt lat="42.723111443063914" lon="18.85674151721307"><ele>798.3333333333333</ele><time>2026-05-03T08:55:35Z</time></trkpt><trkpt lat="42.723289305168336" lon="18.856663333997744"><ele>784.0</ele><time>2026-05-03T08:55:36Z</time></trkpt><trkpt lat="42.723489507866596" lon="18.85659128374922"><ele>784.3333333333333</ele><time>2026-05-03T08:55:37Z</time></trkpt><trkpt lat="42.72369375910183" lon="18.85652934083499"><ele>784.6666666666667</ele><time>2026-05-03T08:55:38Z</time></trkpt><trkpt lat="42.723890842087684" lon="18.85645742049428"><ele>785.0</ele><time>2026-05-03T08:55:39Z</time></trkpt><trkpt lat="42.72408280643941" lon="18.856376452590318"><ele>785.0</ele><time>2026-05-03T08:55:40Z</time></trkpt><trkpt lat="42.72426773495722" lon="18.856299266514018"><ele>785.0</ele><time>2026-05-03T08:55:41Z</time></trkpt><trkpt lat="42.72443095589988" lon="18.85624011990741"><ele>785.0</ele><time>2026-05-03T08:55:42Z</time></trkpt><trkpt lat="42.7245793807606" lon="18.856214000910715"><ele>784.25</ele><time>2026-05-03T08:55:43Z</time></trkpt><trkpt lat="42.72472322113304" lon="18.85623499318105"><ele>783.5</ele><time>2026-05-03T08:55:44Z</time></trkpt><trkpt lat="42.7248625637188" lon="18.856280906476535"><ele>782.75</ele><time>2026-05-03T08:55:45Z</time></trkpt><trkpt lat="42.72500018821514" lon="18.856269989117557"><ele>782.0</ele><time>2026-05-03T08:55:46Z</time></trkpt><trkpt lat="42.72512841515069" lon="18.85618995548276"><ele>782.5</ele><time>2026-05-03T08:55:47Z</time></trkpt><trkpt lat="42.72525152509256" lon="18.856083114542162"><ele>783.0</ele><time>2026-05-03T08:55:48Z</time></trkpt><trkpt lat="42.72536596991639" lon="18.85596220944056"><ele>783.5</ele><time>2026-05-03T08:55:49Z</time></trkpt><trkpt lat="42.725479026268715" lon="18.85584078510918"><ele>784.0</ele><time>2026-05-03T08:55:50Z</time></trkpt><trkpt lat="42.725592843218344" lon="18.855748397367986"><ele>777.5</ele><time>2026-05-03T08:55:51Z</time></trkpt><trkpt lat="42.72570665677619" lon="18.855719956662945"><ele>771.0</ele><time>2026-05-03T08:55:52Z</time></trkpt><trkpt lat="42.725824328340344" lon="18.85577137140575"><ele>764.5</ele><time>2026-05-03T08:55:53Z</time></trkpt><trkpt lat="42.725935110079746" lon="18.855857565236676"><ele>758.0</ele><time>2026-05-03T08:55:54Z</time></trkpt><trkpt lat="42.726048798740884" lon="18.8559150181113"><ele>758.0</ele><time>2026-05-03T08:55:55Z</time></trkpt><trkpt lat="42.72615961837695" lon="18.855922011668902"><ele>758.0</ele><time>2026-05-03T08:55:56Z</time></trkpt><trkpt lat="42.726263403533096" lon="18.855885504447425"><ele>758.0</ele><time>2026-05-03T08:55:57Z</time></trkpt><trkpt lat="42.726356553288205" lon="18.855797822359317"><ele>758.0</ele><time>2026-05-03T08:55:58Z</time></trkpt><trkpt lat="42.72644787394873" lon="18.85567963972323"><ele>758.0</ele><time>2026-05-03T08:55:59Z</time></trkpt><trkpt lat="42.72655429481224" lon="18.85560155468331"><ele>758.0</ele><time>2026-05-03T08:56:00Z</time></trkpt><trkpt lat="42.72666993195054" lon="18.855583063323298"><ele>758.0</ele><time>2026-05-03T08:56:01Z</time></trkpt><trkpt lat="42.72679931501333" lon="18.855602255313677"><ele>758.0</ele><time>2026-05-03T08:56:02Z</time></trkpt><trkpt lat="42.72693574355387" lon="18.85563633540596"><ele>757.6666666666666</ele><time>2026-05-03T08:56:03Z</time></trkpt><trkpt lat="42.7270810946687" lon="18.855661851324914"><ele>757.3333333333334</ele><time>2026-05-03T08:56:04Z</time></trkpt><trkpt lat="42.72723517884459" lon="18.855684183014095"><ele>757.0</ele><time>2026-05-03T08:56:05Z</time></trkpt><trkpt lat="42.72739698040064" lon="18.85570365878196"><ele>757.0</ele><time>2026-05-03T08:56:06Z</time></trkpt><trkpt lat="42.72756178886156" lon="18.85569946549386"><ele>757.0</ele><time>2026-05-03T08:56:07Z</time></trkpt><trkpt lat="42.72772955085688" lon="18.855652876407206"><ele>757.0</ele><time>2026-05-03T08:56:08Z</time></trkpt><trkpt lat="42.7278965076745" lon="18.855591314832598"><ele>756.3333333333334</ele><time>2026-05-03T08:56:09Z</time></trkpt><trkpt lat="42.728060697640295" lon="18.855552428499532"><ele>755.6666666666666</ele><time>2026-05-03T08:56:10Z</time></trkpt><trkpt lat="42.728219090264155" lon="18.85555093830236"><ele>755.0</ele><time>2026-05-03T08:56:11Z</time></trkpt><trkpt lat="42.72836693385107" lon="18.855578249964744"><ele>755.0</ele><time>2026-05-03T08:56:12Z</time></trkpt><trkpt lat="42.7284981106659" lon="18.85560416446325"><ele>755.0</ele><time>2026-05-03T08:56:13Z</time></trkpt><trkpt lat="42.72861666586398" lon="18.855605446841874"><ele>755.0</ele><time>2026-05-03T08:56:14Z</time></trkpt><trkpt lat="42.728727193136606" lon="18.855559248327868"><ele>755.0</ele><time>2026-05-03T08:56:15Z</time></trkpt><trkpt lat="42.72882763558837" lon="18.855459348159133"><ele>756.0</ele><time>2026-05-03T08:56:16Z</time></trkpt><trkpt lat="42.72891847604125" lon="18.855345035139976"><ele>757.0</ele><time>2026-05-03T08:56:17Z</time></trkpt><trkpt lat="42.72900855024789" lon="18.855265545075493"><ele>758.0</ele><time>2026-05-03T08:56:18Z</time></trkpt><trkpt lat="42.72911440283812" lon="18.855232076093067"><ele>759.0</ele><time>2026-05-03T08:56:19Z</time></trkpt><trkpt lat="42.72924246662681" lon="18.855232639717034"><ele>759.0</ele><time>2026-05-03T08:56:20Z</time></trkpt><trkpt lat="42.72937222725505" lon="18.855237019342507"><ele>759.0</ele><time>2026-05-03T08:56:21Z</time></trkpt><trkpt lat="42.729489342233784" lon="18.8552296595582"><ele>759.0</ele><time>2026-05-03T08:56:22Z</time></trkpt><trkpt lat="42.72958551522543" lon="18.855214931292362"><ele>759.0</ele><time>2026-05-03T08:56:23Z</time></trkpt><trkpt lat="42.72968581050928" lon="18.855193048665303"><ele>759.0</ele><time>2026-05-03T08:56:24Z</time></trkpt><trkpt lat="42.72978841033241" lon="18.855168590770504"><ele>756.75</ele><time>2026-05-03T08:56:25Z</time></trkpt><trkpt lat="42.72989435550198" lon="18.8551651818939"><ele>754.5</ele><time>2026-05-03T08:56:26Z</time></trkpt><trkpt lat="42.729998277484604" lon="18.855202607082422"><ele>752.25</ele><time>2026-05-03T08:56:27Z</time></trkpt><trkpt lat="42.73010570339432" lon="18.85528235977123"><ele>750.0</ele><time>2026-05-03T08:56:28Z</time></trkpt><trkpt lat="42.73021894894373" lon="18.855376980055414"><ele>749.25</ele><time>2026-05-03T08:56:29Z</time></trkpt><trkpt lat="42.730342512701235" lon="18.855439298980052"><ele>748.5</ele><time>2026-05-03T08:56:30Z</time></trkpt><trkpt lat="42.73047775739133" lon="18.85542880028087"><ele>747.75</ele><time>2026-05-03T08:56:31Z</time></trkpt><trkpt lat="42.73061216747748" lon="18.855353349775527"><ele>747.0</ele><time>2026-05-03T08:56:32Z</time></trkpt><trkpt lat="42.73073777163341" lon="18.85522802418407"><ele>744.0</ele><time>2026-05-03T08:56:33Z</time></trkpt><trkpt lat="42.730868451280585" lon="18.85508033180184"><ele>741.0</ele><time>2026-05-03T08:56:34Z</time></trkpt><trkpt lat="42.73100216920992" lon="18.85495750415958"><ele>738.0</ele><time>2026-05-03T08:56:35Z</time></trkpt><trkpt lat="42.73113402171447" lon="18.854887371503406"><ele>738.0</ele><time>2026-05-03T08:56:36Z</time></trkpt><trkpt lat="42.73127576152332" lon="18.854844983809496"><ele>738.0</ele><time>2026-05-03T08:56:37Z</time></trkpt><trkpt lat="42.7314144576145" lon="18.854845656572643"><ele>738.0</ele><time>2026-05-03T08:56:38Z</time></trkpt><trkpt lat="42.7315660546785" lon="18.854879042899917"><ele>738.0</ele><time>2026-05-03T08:56:39Z</time></trkpt><trkpt lat="42.73172510818605" lon="18.854910704898057"><ele>738.3333333333334</ele><time>2026-05-03T08:56:40Z</time></trkpt><trkpt lat="42.73189575881232" lon="18.85493762452036"><ele>738.6666666666667</ele><time>2026-05-03T08:56:41Z</time></trkpt><trkpt lat="42.73207701668761" lon="18.8549671515717"><ele>739.0</ele><time>2026-05-03T08:56:42Z</time></trkpt><trkpt lat="42.73225918623119" lon="18.854997556732503"><ele>739.0</ele><time>2026-05-03T08:56:43Z</time></trkpt><trkpt lat="42.7324313387161" lon="18.855011052972703"><ele>739.0</ele><time>2026-05-03T08:56:44Z</time></trkpt><trkpt lat="42.732584764544704" lon="18.854980643226646"><ele>739.0</ele><time>2026-05-03T08:56:45Z</time></trkpt><trkpt lat="42.732719195686855" lon="18.85488662752197"><ele>740.75</ele><time>2026-05-03T08:56:46Z</time></trkpt><trkpt lat="42.7328195539115" lon="18.854739618467175"><ele>742.5</ele><time>2026-05-03T08:56:47Z</time></trkpt><trkpt lat="42.73291795200882" lon="18.854583992897837"><ele>744.25</ele><time>2026-05-03T08:56:48Z</time></trkpt><trkpt lat="42.73304287023454" lon="18.854486884647184"><ele>746.0</ele><time>2026-05-03T08:56:49Z</time></trkpt><trkpt lat="42.7331814832563" lon="18.854487045815286"><ele>746.0</ele><time>2026-05-03T08:56:50Z</time></trkpt><trkpt lat="42.733315711386055" lon="18.854575161222854"><ele>746.0</ele><time>2026-05-03T08:56:51Z</time></trkpt><trkpt lat="42.73344379225218" lon="18.85468409238548"><ele>746.0</ele><time>2026-05-03T08:56:52Z</time></trkpt><trkpt lat="42.73357926887966" lon="18.854720211858275"><ele>746.0</ele><time>2026-05-03T08:56:53Z</time></trkpt><trkpt lat="42.73373238018329" lon="18.854668883951078"><ele>746.3333333333333</ele><time>2026-05-03T08:56:54Z</time></trkpt><trkpt lat="42.733891923684034" lon="18.854569356603175"><ele>746.6666666666666</ele><time>2026-05-03T08:56:55Z</time></trkpt><trkpt lat="42.73404763807081" lon="18.854500366417362"><ele>747.0</ele><time>2026-05-03T08:56:56Z</time></trkpt><trkpt lat="42.734186699190616" lon="18.854514452262094"><ele>747.0</ele><time>2026-05-03T08:56:57Z</time></trkpt><trkpt lat="42.734308720513724" lon="18.854581305594923"><ele>747.0</ele><time>2026-05-03T08:56:58Z</time></trkpt><trkpt lat="42.73441330682689" lon="18.854676244978155"><ele>747.0</ele><time>2026-05-03T08:56:59Z</time></trkpt><trkpt lat="42.73451607122015" lon="18.854763280883056"><ele>747.0</ele><time>2026-05-03T08:57:00Z</time></trkpt><trkpt lat="42.73462431192217" lon="18.8548303113614"><ele>746.0</ele><time>2026-05-03T08:57:01Z</time></trkpt><trkpt lat="42.734732458132996" lon="18.854859467406598"><ele>745.0</ele><time>2026-05-03T08:57:02Z</time></trkpt><trkpt lat="42.73484067006535" lon="18.85484154371136"><ele>744.0</ele><time>2026-05-03T08:57:03Z</time></trkpt><trkpt lat="42.73493063998137" lon="18.854766979858912"><ele>743.0</ele><time>2026-05-03T08:57:04Z</time></trkpt><trkpt lat="42.73498031897628" lon="18.85462911802145"><ele>742.0</ele><time>2026-05-03T08:57:05Z</time></trkpt><trkpt lat="42.7349987613455" lon="18.854460025657627"><ele>738.5</ele><time>2026-05-03T08:57:06Z</time></trkpt><trkpt lat="42.73499903686448" lon="18.854275600784838"><ele>735.0</ele><time>2026-05-03T08:57:07Z</time></trkpt><trkpt lat="42.73500401225954" lon="18.854090348118774"><ele>731.5</ele><time>2026-05-03T08:57:08Z</time></trkpt><trkpt lat="42.735028950874664" lon="18.853916045715856"><ele>728.0</ele><time>2026-05-03T08:57:09Z</time></trkpt><trkpt lat="42.735085607650326" lon="18.853765653836263"><ele>728.0</ele><time>2026-05-03T08:57:10Z</time></trkpt><trkpt lat="42.73517491854471" lon="18.85364156911988"><ele>728.0</ele><time>2026-05-03T08:57:11Z</time></trkpt><trkpt lat="42.73528376305631" lon="18.85353562312023"><ele>728.0</ele><time>2026-05-03T08:57:12Z</time></trkpt><trkpt lat="42.73539673669442" lon="18.8534247494108"><ele>728.0</ele><time>2026-05-03T08:57:13Z</time></trkpt><trkpt lat="42.73551036043715" lon="18.85330065515526"><ele>728.0</ele><time>2026-05-03T08:57:14Z</time></trkpt><trkpt lat="42.735626812735035" lon="18.853169410627352"><ele>728.0</ele><time>2026-05-03T08:57:15Z</time></trkpt><trkpt lat="42.73573881935406" lon="18.853042916356763"><ele>728.0</ele><time>2026-05-03T08:57:16Z</time></trkpt><trkpt lat="42.73584616601927" lon="18.852917739452206"><ele>728.0</ele><time>2026-05-03T08:57:17Z</time></trkpt><trkpt lat="42.73594657457619" lon="18.85280064205816"><ele>728.0</ele><time>2026-05-03T08:57:18Z</time></trkpt><trkpt lat="42.736049008505056" lon="18.852687730926753"><ele>728.0</ele><time>2026-05-03T08:57:19Z</time></trkpt><trkpt lat="42.736147123895954" lon="18.85258995241266"><ele>728.0</ele><time>2026-05-03T08:57:20Z</time></trkpt><trkpt lat="42.73624937209193" lon="18.85250371431478"><ele>728.0</ele><time>2026-05-03T08:57:21Z</time></trkpt><trkpt lat="42.73636265912495" lon="18.852424403861292"><ele>726.25</ele><time>2026-05-03T08:57:22Z</time></trkpt><trkpt lat="42.736477840631075" lon="18.85236627394224"><ele>724.5</ele><time>2026-05-03T08:57:23Z</time></trkpt><trkpt lat="42.736590297561754" lon="18.85233025647182"><ele>722.75</ele><time>2026-05-03T08:57:24Z</time></trkpt><trkpt lat="42.73669874474059" lon="18.852307698400207"><ele>721.0</ele><time>2026-05-03T08:57:25Z</time></trkpt><trkpt lat="42.73680766483094" lon="18.852281727451984"><ele>721.0</ele><time>2026-05-03T08:57:26Z</time></trkpt><trkpt lat="42.736915573088474" lon="18.852239922909757"><ele>721.0</ele><time>2026-05-03T08:57:27Z</time></trkpt><trkpt lat="42.73701817840537" lon="18.852163539976655"><ele>721.0</ele><time>2026-05-03T08:57:28Z</time></trkpt><trkpt lat="42.73710450537202" lon="18.852045154280745"><ele>721.0</ele><time>2026-05-03T08:57:29Z</time></trkpt><trkpt lat="42.73716369991191" lon="18.85189481682458"><ele>721.25</ele><time>2026-05-03T08:57:30Z</time></trkpt><trkpt lat="42.73720014617794" lon="18.851727094206456"><ele>721.5</ele><time>2026-05-03T08:57:31Z</time></trkpt><trkpt lat="42.737227690787236" lon="18.851569329675826"><ele>721.75</ele><time>2026-05-03T08:57:32Z</time></trkpt><trkpt lat="42.73728443259219" lon="18.851447580764535"><ele>722.0</ele><time>2026-05-03T08:57:33Z</time></trkpt><trkpt lat="42.737365503237505" lon="18.851371303098425"><ele>722.0</ele><time>2026-05-03T08:57:34Z</time></trkpt><trkpt lat="42.73746005757467" lon="18.85132028097026"><ele>722.0</ele><time>2026-05-03T08:57:35Z</time></trkpt><trkpt lat="42.73756892643664" lon="18.851280158335932"><ele>722.0</ele><time>2026-05-03T08:57:36Z</time></trkpt><trkpt lat="42.737683279989426" lon="18.851238162802698"><ele>722.0</ele><time>2026-05-03T08:57:37Z</time></trkpt><trkpt lat="42.73780897451746" lon="18.851196726765817"><ele>721.5</ele><time>2026-05-03T08:57:38Z</time></trkpt><trkpt lat="42.737936708752144" lon="18.851174939080643"><ele>721.0</ele><time>2026-05-03T08:57:39Z</time></trkpt><trkpt lat="42.738065357795435" lon="18.851210621799154"><ele>720.5</ele><time>2026-05-03T08:57:40Z</time></trkpt><trkpt lat="42.738171663840156" lon="18.85131760493511"><ele>720.0</ele><time>2026-05-03T08:57:41Z</time></trkpt><trkpt lat="42.73824985124436" lon="18.851468359583944"><ele>720.0</ele><time>2026-05-03T08:57:42Z</time></trkpt><trkpt lat="42.73829634193988" lon="18.85164232178484"><ele>720.0</ele><time>2026-05-03T08:57:43Z</time></trkpt><trkpt lat="42.738341141690015" lon="18.85181478226885"><ele>720.0</ele><time>2026-05-03T08:57:44Z</time></trkpt><trkpt lat="42.73838599432012" lon="18.85197494782992"><ele>720.0</ele><time>2026-05-03T08:57:45Z</time></trkpt><trkpt lat="42.73842949158743" lon="18.852117518902933"><ele>719.2</ele><time>2026-05-03T08:57:46Z</time></trkpt><trkpt lat="42.73847401353238" lon="18.852255561122274"><ele>718.4</ele><time>2026-05-03T08:57:47Z</time></trkpt><trkpt lat="42.73851194293571" lon="18.852388499094634"><ele>717.5999999999999</ele><time>2026-05-03T08:57:48Z</time></trkpt><trkpt lat="42.738538082887" lon="18.852535447664934"><ele>716.8</ele><time>2026-05-03T08:57:49Z</time></trkpt><trkpt lat="42.73852683123464" lon="18.85269120023731"><ele>716.0</ele><time>2026-05-03T08:57:50Z</time></trkpt><trkpt lat="42.7384835001307" lon="18.85285419088575"><ele>713.5</ele><time>2026-05-03T08:57:51Z</time></trkpt><trkpt lat="42.73841145995453" lon="18.85301051600577"><ele>711.0</ele><time>2026-05-03T08:57:52Z</time></trkpt><trkpt lat="42.73831616368005" lon="18.853149404369027"><ele>708.5</ele><time>2026-05-03T08:57:53Z</time></trkpt><trkpt lat="42.73819840657477" lon="18.8532712362822"><ele>706.0</ele><time>2026-05-03T08:57:54Z</time></trkpt><trkpt lat="42.738073567140795" lon="18.853376609217868"><ele>706.0</ele><time>2026-05-03T08:57:55Z</time></trkpt><trkpt lat="42.73795123080413" lon="18.853448697214418"><ele>706.0</ele><time>2026-05-03T08:57:56Z</time></trkpt><trkpt lat="42.737804608233624" lon="18.85348266382502"><ele>706.0</ele><time>2026-05-03T08:57:57Z</time></trkpt><trkpt lat="42.737650798160985" lon="18.85348123455869"><ele>706.0</ele><time>2026-05-03T08:57:58Z</time></trkpt><trkpt lat="42.73751480911042" lon="18.853506622219967"><ele>706.25</ele><time>2026-05-03T08:57:59Z</time></trkpt><trkpt lat="42.73740013169361" lon="18.853599387316855"><ele>706.5</ele><time>2026-05-03T08:58:00Z</time></trkpt><trkpt lat="42.73733148710433" lon="18.853746049652454"><ele>706.75</ele><time>2026-05-03T08:58:01Z</time></trkpt><trkpt lat="42.73731310516691" lon="18.85390878815294"><ele>707.0</ele><time>2026-05-03T08:58:02Z</time></trkpt><trkpt lat="42.737357470384445" lon="18.854065232751545"><ele>707.0</ele><time>2026-05-03T08:58:03Z</time></trkpt><trkpt lat="42.73744179663052" lon="18.854224015221646"><ele>707.0</ele><time>2026-05-03T08:58:04Z</time></trkpt><trkpt lat="42.737543229063625" lon="18.854411160780234"><ele>707.0</ele><time>2026-05-03T08:58:05Z</time></trkpt><trkpt lat="42.73765184471209" lon="18.854637756066293"><ele>706.0</ele><time>2026-05-03T08:58:06Z</time></trkpt><trkpt lat="42.737764085414206" lon="18.854893391696322"><ele>705.0</ele><time>2026-05-03T08:58:07Z</time></trkpt><trkpt lat="42.737859092370584" lon="18.855110855772516"><ele>704.0</ele><time>2026-05-03T08:58:08Z</time></trkpt><trkpt lat="42.73794928927793" lon="18.85531094754748"><ele>704.0</ele><time>2026-05-03T08:58:09Z</time></trkpt><trkpt lat="42.738033831440426" lon="18.85550380986816"><ele>704.0</ele><time>2026-05-03T08:58:10Z</time></trkpt><trkpt lat="42.738107789873766" lon="18.85566466211164"><ele>704.0</ele><time>2026-05-03T08:58:11Z</time></trkpt><trkpt lat="42.73817792521991" lon="18.855798848395263"><ele>704.0</ele><time>2026-05-03T08:58:12Z</time></trkpt><trkpt lat="42.73826778890103" lon="18.855893895267243"><ele>704.0</ele><time>2026-05-03T08:58:13Z</time></trkpt><trkpt lat="42.73838096500334" lon="18.855939102138972"><ele>704.0</ele><time>2026-05-03T08:58:14Z</time></trkpt><trkpt lat="42.738505529547346" lon="18.855922637526017"><ele>704.0</ele><time>2026-05-03T08:58:15Z</time></trkpt><trkpt lat="42.73863539374217" lon="18.85586331533656"><ele>704.0</ele><time>2026-05-03T08:58:16Z</time></trkpt><trkpt lat="42.73876230556683" lon="18.855773886855218"><ele>701.6666666666666</ele><time>2026-05-03T08:58:17Z</time></trkpt><trkpt lat="42.738894561525555" lon="18.855658297883373"><ele>699.3333333333334</ele><time>2026-05-03T08:58:18Z</time></trkpt><trkpt lat="42.73902601717616" lon="18.855537463892183"><ele>697.0</ele><time>2026-05-03T08:58:19Z</time></trkpt><trkpt lat="42.739147861880326" lon="18.855437683632434"><ele>697.0</ele><time>2026-05-03T08:58:20Z</time></trkpt><trkpt lat="42.739279461335066" lon="18.855374103177393"><ele>697.0</ele><time>2026-05-03T08:58:21Z</time></trkpt><trkpt lat="42.7394141808828" lon="18.855357265382672"><ele>697.0</ele><time>2026-05-03T08:58:22Z</time></trkpt><trkpt lat="42.73953825998055" lon="18.855367088577093"><ele>697.0</ele><time>2026-05-03T08:58:23Z</time></trkpt><trkpt lat="42.7396495854466" lon="18.855416331154743"><ele>693.0</ele><time>2026-05-03T08:58:24Z</time></trkpt><trkpt lat="42.73971959725837" lon="18.855513594521447"><ele>689.0</ele><time>2026-05-03T08:58:25Z</time></trkpt><trkpt lat="42.739743210800114" lon="18.855663217684945"><ele>685.0</ele><time>2026-05-03T08:58:26Z</time></trkpt><trkpt lat="42.73974979154953" lon="18.855830786453343"><ele>681.0</ele><time>2026-05-03T08:58:27Z</time></trkpt><trkpt lat="42.739723818888564" lon="18.85598985645803"><ele>680.4</ele><time>2026-05-03T08:58:28Z</time></trkpt><trkpt lat="42.73965860486372" lon="18.85612246737702"><ele>679.8</ele><time>2026-05-03T08:58:29Z</time></trkpt><trkpt lat="42.739576142371206" lon="18.856223764094292"><ele>679.1999999999999</ele><time>2026-05-03T08:58:30Z</time></trkpt><trkpt lat="42.73949237919957" lon="18.856315517344655"><ele>678.5999999999999</ele><time>2026-05-03T08:58:31Z</time></trkpt><trkpt lat="42.73944571875689" lon="18.85645067199765"><ele>678.0</ele><time>2026-05-03T08:58:32Z</time></trkpt><trkpt lat="42.73946155171691" lon="18.856619415484055"><ele>678.0</ele><time>2026-05-03T08:58:33Z</time></trkpt><trkpt lat="42.73951625383536" lon="18.856778682281444"><ele>678.0</ele><time>2026-05-03T08:58:34Z</time></trkpt><trkpt lat="42.739605787752986" lon="18.85693340572949"><ele>678.0</ele><time>2026-05-03T08:58:35Z</time></trkpt><trkpt lat="42.73971408433786" lon="18.857079685142747"><ele>678.0</ele><time>2026-05-03T08:58:36Z</time></trkpt><trkpt lat="42.73981619551901" lon="18.85723292279168"><ele>678.5</ele><time>2026-05-03T08:58:37Z</time></trkpt><trkpt lat="42.739881722988166" lon="18.857393402614814"><ele>679.0</ele><time>2026-05-03T08:58:38Z</time></trkpt><trkpt lat="42.73991506347061" lon="18.857572191024644"><ele>679.5</ele><time>2026-05-03T08:58:39Z</time></trkpt><trkpt lat="42.73993866737809" lon="18.85776664188258"><ele>680.0</ele><time>2026-05-03T08:58:40Z</time></trkpt><trkpt lat="42.7399818406793" lon="18.85794775937023"><ele>679.25</ele><time>2026-05-03T08:58:41Z</time></trkpt><trkpt lat="42.74006002961274" lon="18.858098774176455"><ele>678.5</ele><time>2026-05-03T08:58:42Z</time></trkpt><trkpt lat="42.74016700487587" lon="18.858214028444515"><ele>677.75</ele><time>2026-05-03T08:58:43Z</time></trkpt><trkpt lat="42.74028872705277" lon="18.858279922029755"><ele>677.0</ele><time>2026-05-03T08:58:44Z</time></trkpt><trkpt lat="42.740420690890105" lon="18.85828278092292"><ele>677.0</ele><time>2026-05-03T08:58:45Z</time></trkpt><trkpt lat="42.74055482205271" lon="18.858263298651277"><ele>677.0</ele><time>2026-05-03T08:58:46Z</time></trkpt><trkpt lat="42.74069542736095" lon="18.85824403316992"><ele>677.0</ele><time>2026-05-03T08:58:47Z</time></trkpt><trkpt lat="42.740834116531836" lon="18.85824114783672"><ele>677.0</ele><time>2026-05-03T08:58:48Z</time></trkpt><trkpt lat="42.740968804435596" lon="18.8582684329202"><ele>677.25</ele><time>2026-05-03T08:58:49Z</time></trkpt><trkpt lat="42.74108942865272" lon="18.858349108046603"><ele>677.5</ele><time>2026-05-03T08:58:50Z</time></trkpt><trkpt lat="42.74119684558222" lon="18.858474638526165"><ele>677.75</ele><time>2026-05-03T08:58:51Z</time></trkpt><trkpt lat="42.741281275487076" lon="18.85862431715674"><ele>678.0</ele><time>2026-05-03T08:58:52Z</time></trkpt><trkpt lat="42.74136167672263" lon="18.858789220032453"><ele>678.0</ele><time>2026-05-03T08:58:53Z</time></trkpt><trkpt lat="42.74144895464984" lon="18.85896034282611"><ele>678.0</ele><time>2026-05-03T08:58:54Z</time></trkpt><trkpt lat="42.741583512449566" lon="18.859112265277957"><ele>678.0</ele><time>2026-05-03T08:58:55Z</time></trkpt><trkpt lat="42.74173880759945" lon="18.859212832464696"><ele>678.5</ele><time>2026-05-03T08:58:56Z</time></trkpt><trkpt lat="42.74187998217462" lon="18.85930716756673"><ele>679.0</ele><time>2026-05-03T08:58:57Z</time></trkpt><trkpt lat="42.74198888271688" lon="18.859430888982697"><ele>679.5</ele><time>2026-05-03T08:58:58Z</time></trkpt><trkpt lat="42.742064969057786" lon="18.859583219578223"><ele>680.0</ele><time>2026-05-03T08:58:59Z</time></trkpt><trkpt lat="42.74212086308357" lon="18.85975224234946"><ele>680.0</ele><time>2026-05-03T08:59:00Z</time></trkpt><trkpt lat="42.74219411265234" lon="18.859932319906747"><ele>680.0</ele><time>2026-05-03T08:59:01Z</time></trkpt><trkpt lat="42.742274779621944" lon="18.860126012706107"><ele>680.0</ele><time>2026-05-03T08:59:02Z</time></trkpt><trkpt lat="42.74235400184897" lon="18.860347437390562"><ele>680.3333333333333</ele><time>2026-05-03T08:59:03Z</time></trkpt><trkpt lat="42.7424341707931" lon="18.860592037978353"><ele>680.6666666666666</ele><time>2026-05-03T08:59:04Z</time></trkpt><trkpt lat="42.742505146353075" lon="18.860834486682588"><ele>681.0</ele><time>2026-05-03T08:59:05Z</time></trkpt><trkpt lat="42.74258262663756" lon="18.861089392883034"><ele>681.6666666666666</ele><time>2026-05-03T08:59:06Z</time></trkpt><trkpt lat="42.742656503593814" lon="18.86133371682951"><ele>682.3333333333333</ele><time>2026-05-03T08:59:07Z</time></trkpt><trkpt lat="42.742725863859945" lon="18.861560846553765"><ele>683.0</ele><time>2026-05-03T08:59:08Z</time></trkpt><trkpt lat="42.74279164699774" lon="18.86177985790268"><ele>683.3333333333333</ele><time>2026-05-03T08:59:09Z</time></trkpt><trkpt lat="42.742853079735966" lon="18.86198845702272"><ele>683.6666666666666</ele><time>2026-05-03T08:59:10Z</time></trkpt><trkpt lat="42.742907817320784" lon="18.862201130878304"><ele>684.0</ele><time>2026-05-03T08:59:11Z</time></trkpt><trkpt lat="42.74295307167304" lon="18.86242099444258"><ele>680.3333333333334</ele><time>2026-05-03T08:59:12Z</time></trkpt><trkpt lat="42.74298291344291" lon="18.862640904388762"><ele>676.6666666666667</ele><time>2026-05-03T08:59:13Z</time></trkpt><trkpt lat="42.743002923794045" lon="18.8628637219917"><ele>673.0</ele><time>2026-05-03T08:59:14Z</time></trkpt><trkpt lat="42.74302331988333" lon="18.863059969313547"><ele>673.0</ele><time>2026-05-03T08:59:15Z</time></trkpt><trkpt lat="42.74307044563681" lon="18.863235881668267"><ele>673.0</ele><time>2026-05-03T08:59:16Z</time></trkpt><trkpt lat="42.743152122713525" lon="18.863395571915323"><ele>673.0</ele><time>2026-05-03T08:59:17Z</time></trkpt><trkpt lat="42.74326661783453" lon="18.86353779444532"><ele>673.0</ele><time>2026-05-03T08:59:18Z</time></trkpt><trkpt lat="42.74338864962656" lon="18.863672819220607"><ele>670.6666666666667</ele><time>2026-05-03T08:59:19Z</time></trkpt><trkpt lat="42.743478625826306" lon="18.86383742318311"><ele>668.3333333333334</ele><time>2026-05-03T08:59:20Z</time></trkpt><trkpt lat="42.743544492960396" lon="18.86403169422602"><ele>666.0</ele><time>2026-05-03T08:59:21Z</time></trkpt><trkpt lat="42.743629771282066" lon="18.86421227192419"><ele>667.0</ele><time>2026-05-03T08:59:22Z</time></trkpt><trkpt lat="42.74374240199421" lon="18.864372103773775"><ele>668.0</ele><time>2026-05-03T08:59:23Z</time></trkpt><trkpt lat="42.743838106456" lon="18.864530543957006"><ele>669.0</ele><time>2026-05-03T08:59:24Z</time></trkpt><trkpt lat="42.74388854127897" lon="18.8647014353042"><ele>670.0</ele><time>2026-05-03T08:59:25Z</time></trkpt><trkpt lat="42.74390041744324" lon="18.864891722707362"><ele>670.0</ele><time>2026-05-03T08:59:26Z</time></trkpt><trkpt lat="42.74388571377459" lon="18.865089320812032"><ele>670.0</ele><time>2026-05-03T08:59:27Z</time></trkpt><trkpt lat="42.74388298356539" lon="18.865284265867952"><ele>670.0</ele><time>2026-05-03T08:59:28Z</time></trkpt><trkpt lat="42.74391230650064" lon="18.865483969739376"><ele>670.0</ele><time>2026-05-03T08:59:29Z</time></trkpt><trkpt lat="42.74397164620031" lon="18.865673960538444"><ele>668.0</ele><time>2026-05-03T08:59:30Z</time></trkpt><trkpt lat="42.74404179758118" lon="18.86585303502387"><ele>666.0</ele><time>2026-05-03T08:59:31Z</time></trkpt><trkpt lat="42.74411673067768" lon="18.86601861405609"><ele>664.0</ele><time>2026-05-03T08:59:32Z</time></trkpt><trkpt lat="42.744204862555286" lon="18.866166477739323"><ele>662.0</ele><time>2026-05-03T08:59:33Z</time></trkpt><trkpt lat="42.74432100481148" lon="18.866258323687322"><ele>661.6666666666666</ele><time>2026-05-03T08:59:34Z</time></trkpt><trkpt lat="42.74446442290949" lon="18.866314143242214"><ele>661.3333333333334</ele><time>2026-05-03T08:59:35Z</time></trkpt><trkpt lat="42.74462051171016" lon="18.86637173613399"><ele>661.0</ele><time>2026-05-03T08:59:36Z</time></trkpt><trkpt lat="42.74476779430773" lon="18.866445000357864"><ele>661.0</ele><time>2026-05-03T08:59:37Z</time></trkpt><trkpt lat="42.74490808222361" lon="18.866533638716426"><ele>661.0</ele><time>2026-05-03T08:59:38Z</time></trkpt><trkpt lat="42.745036983290035" lon="18.866623853975607"><ele>661.0</ele><time>2026-05-03T08:59:39Z</time></trkpt><trkpt lat="42.745159858749346" lon="18.866707352120834"><ele>661.0</ele><time>2026-05-03T08:59:40Z</time></trkpt><trkpt lat="42.74527299083364" lon="18.86678517161061"><ele>658.25</ele><time>2026-05-03T08:59:41Z</time></trkpt><trkpt lat="42.74538667440814" lon="18.866872064857503"><ele>655.5</ele><time>2026-05-03T08:59:42Z</time></trkpt><trkpt lat="42.74549311241672" lon="18.866959258749805"><ele>652.75</ele><time>2026-05-03T08:59:43Z</time></trkpt><trkpt lat="42.74560540230478" lon="18.86704451968148"><ele>650.0</ele><time>2026-05-03T08:59:44Z</time></trkpt><trkpt lat="42.7457180972287" lon="18.86712608663608"><ele>650.0</ele><time>2026-05-03T08:59:45Z</time></trkpt><trkpt lat="42.745814379247804" lon="18.86720567291017"><ele>650.0</ele><time>2026-05-03T08:59:46Z</time></trkpt><trkpt lat="42.7458972714521" lon="18.86727796320038"><ele>650.0</ele><time>2026-05-03T08:59:47Z</time></trkpt><trkpt lat="42.74596224000522" lon="18.86737197973137"><ele>650.0</ele><time>2026-05-03T08:59:48Z</time></trkpt><trkpt lat="42.74601094865731" lon="18.86748285484896"><ele>650.0</ele><time>2026-05-03T08:59:49Z</time></trkpt><trkpt lat="42.746028770346555" lon="18.867622541191057"><ele>645.2</ele><time>2026-05-03T08:59:50Z</time></trkpt><trkpt lat="42.74605411751444" lon="18.867750078216943"><ele>640.4</ele><time>2026-05-03T08:59:51Z</time></trkpt><trkpt lat="42.74608764084248" lon="18.867875785275128"><ele>635.6</ele><time>2026-05-03T08:59:52Z</time></trkpt><trkpt lat="42.74612019858751" lon="18.86799767577334"><ele>630.8</ele><time>2026-05-03T08:59:53Z</time></trkpt><trkpt lat="42.74615099654643" lon="18.86810957046078"><ele>626.0</ele><time>2026-05-03T08:59:54Z</time></trkpt><trkpt lat="42.74618048874129" lon="18.86822035322048"><ele>626.0</ele><time>2026-05-03T08:59:55Z</time></trkpt><trkpt lat="42.74619798753933" lon="18.868343599739397"><ele>626.0</ele><time>2026-05-03T08:59:56Z</time></trkpt><trkpt lat="42.74620538318722" lon="18.868472898688676"><ele>626.0</ele><time>2026-05-03T08:59:57Z</time></trkpt><trkpt lat="42.74621252759133" lon="18.86860955394828"><ele>626.0</ele><time>2026-05-03T08:59:58Z</time></trkpt><trkpt lat="42.74621884539674" lon="18.868750429109113"><ele>626.0</ele><time>2026-05-03T08:59:59Z</time></trkpt><trkpt lat="42.74622320351722" lon="18.86889356939915"><ele>625.8</ele><time>2026-05-03T09:00:00Z</time></trkpt><trkpt lat="42.74622801320253" lon="18.86904369664028"><ele>625.6</ele><time>2026-05-03T09:00:01Z</time></trkpt><trkpt lat="42.74623354520878" lon="18.86919215178496"><ele>625.4</ele><time>2026-05-03T09:00:02Z</time></trkpt><trkpt lat="42.74623474748455" lon="18.86933641813013"><ele>625.2</ele><time>2026-05-03T09:00:03Z</time></trkpt><trkpt lat="42.7462395253075" lon="18.86947289326375"><ele>625.0</ele><time>2026-05-03T09:00:04Z</time></trkpt><trkpt lat="42.74624229462209" lon="18.869605096174293"><ele>624.2</ele><time>2026-05-03T09:00:05Z</time></trkpt><trkpt lat="42.746248723151645" lon="18.86973774165857"><ele>623.4</ele><time>2026-05-03T09:00:06Z</time></trkpt><trkpt lat="42.74624811247683" lon="18.869870843160093"><ele>622.6</ele><time>2026-05-03T09:00:07Z</time></trkpt><trkpt lat="42.74622788763565" lon="18.870001986328507"><ele>621.8</ele><time>2026-05-03T09:00:08Z</time></trkpt><trkpt lat="42.74618814108092" lon="18.870123934955036"><ele>621.0</ele><time>2026-05-03T09:00:09Z</time></trkpt><trkpt lat="42.746125614118085" lon="18.870229549416624"><ele>620.6</ele><time>2026-05-03T09:00:10Z</time></trkpt><trkpt lat="42.74605819497697" lon="18.870338403869237"><ele>620.2</ele><time>2026-05-03T09:00:11Z</time></trkpt><trkpt lat="42.7460093331201" lon="18.87045904002133"><ele>619.8</ele><time>2026-05-03T09:00:12Z</time></trkpt><trkpt lat="42.745962120363274" lon="18.870575005150005"><ele>619.4</ele><time>2026-05-03T09:00:13Z</time></trkpt><trkpt lat="42.745882263662395" lon="18.870647646428747"><ele>619.0</ele><time>2026-05-03T09:00:14Z</time></trkpt><trkpt lat="42.745777131347516" lon="18.870692454456975"><ele>620.75</ele><time>2026-05-03T09:00:15Z</time></trkpt><trkpt lat="42.74567851534342" lon="18.87076277164166"><ele>622.5</ele><time>2026-05-03T09:00:16Z</time></trkpt><trkpt lat="42.74562471828359" lon="18.870895463185406"><ele>624.25</ele><time>2026-05-03T09:00:17Z</time></trkpt><trkpt lat="42.74560986774886" lon="18.871065543943164"><ele>626.0</ele><time>2026-05-03T09:00:18Z</time></trkpt><trkpt lat="42.745617686832404" lon="18.871235977521433"><ele>626.0</ele><time>2026-05-03T09:00:19Z</time></trkpt><trkpt lat="42.7456178874781" lon="18.87141652995131"><ele>626.0</ele><time>2026-05-03T09:00:20Z</time></trkpt><trkpt lat="42.74557461246426" lon="18.87161100692299"><ele>626.0</ele><time>2026-05-03T09:00:21Z</time></trkpt><trkpt lat="42.74549051310817" lon="18.87182257720261"><ele>623.6666666666666</ele><time>2026-05-03T09:00:22Z</time></trkpt><trkpt lat="42.745388579567" lon="18.872033815620284"><ele>621.3333333333334</ele><time>2026-05-03T09:00:23Z</time></trkpt><trkpt lat="42.74529098751689" lon="18.87222815012194"><ele>619.0</ele><time>2026-05-03T09:00:24Z</time></trkpt><trkpt lat="42.745204517943655" lon="18.872403861632232"><ele>620.5</ele><time>2026-05-03T09:00:25Z</time></trkpt><trkpt lat="42.745117430310096" lon="18.872559114824277"><ele>622.0</ele><time>2026-05-03T09:00:26Z</time></trkpt><trkpt lat="42.74500668453729" lon="18.872654207156128"><ele>623.5</ele><time>2026-05-03T09:00:27Z</time></trkpt><trkpt lat="42.744870084184065" lon="18.87271711669037"><ele>625.0</ele><time>2026-05-03T09:00:28Z</time></trkpt><trkpt lat="42.74474755752576" lon="18.87276549320017"><ele>625.0</ele><time>2026-05-03T09:00:29Z</time></trkpt><trkpt lat="42.74463961765426" lon="18.87285091938877"><ele>625.0</ele><time>2026-05-03T09:00:30Z</time></trkpt><trkpt lat="42.74457564063215" lon="18.872990726852358"><ele>625.0</ele><time>2026-05-03T09:00:31Z</time></trkpt><trkpt lat="42.74455505991599" lon="18.873156559418074"><ele>625.0</ele><time>2026-05-03T09:00:32Z</time></trkpt><trkpt lat="42.74458418516162" lon="18.873312279509562"><ele>625.25</ele><time>2026-05-03T09:00:33Z</time></trkpt><trkpt lat="42.74465114345222" lon="18.87346033516465"><ele>625.5</ele><time>2026-05-03T09:00:34Z</time></trkpt><trkpt lat="42.74473712920252" lon="18.87359295914489"><ele>625.75</ele><time>2026-05-03T09:00:35Z</time></trkpt><trkpt lat="42.74481632564151" lon="18.873730232176353"><ele>626.0</ele><time>2026-05-03T09:00:36Z</time></trkpt><trkpt lat="42.74488705822666" lon="18.87387453729186"><ele>626.0</ele><time>2026-05-03T09:00:37Z</time></trkpt><trkpt lat="42.74495550571323" lon="18.874024070939807"><ele>626.0</ele><time>2026-05-03T09:00:38Z</time></trkpt><trkpt lat="42.745015992126554" lon="18.874182564326667"><ele>626.0</ele><time>2026-05-03T09:00:39Z</time></trkpt><trkpt lat="42.74507264554204" lon="18.874348865250603"><ele>626.0</ele><time>2026-05-03T09:00:40Z</time></trkpt><trkpt lat="42.745133327433955" lon="18.874524230184203"><ele>626.0</ele><time>2026-05-03T09:00:41Z</time></trkpt><trkpt lat="42.74518712330012" lon="18.87470131398609"><ele>626.0</ele><time>2026-05-03T09:00:42Z</time></trkpt><trkpt lat="42.745259945993254" lon="18.874879498974874"><ele>626.0</ele><time>2026-05-03T09:00:43Z</time></trkpt><trkpt lat="42.74534734898032" lon="18.875054234722935"><ele>626.0</ele><time>2026-05-03T09:00:44Z</time></trkpt><trkpt lat="42.74545816349108" lon="18.875211249045556"><ele>626.0</ele><time>2026-05-03T09:00:45Z</time></trkpt><trkpt lat="42.7455870181519" lon="18.875348097907786"><ele>626.0</ele><time>2026-05-03T09:00:46Z</time></trkpt><trkpt lat="42.74572222097769" lon="18.87545727074668"><ele>626.0</ele><time>2026-05-03T09:00:47Z</time></trkpt><trkpt lat="42.74585936371085" lon="18.875556488998903"><ele>626.0</ele><time>2026-05-03T09:00:48Z</time></trkpt><trkpt lat="42.745989633264806" lon="18.8756357279259"><ele>626.0</ele><time>2026-05-03T09:00:49Z</time></trkpt><trkpt lat="42.7461152666153" lon="18.875673792886534"><ele>626.0</ele><time>2026-05-03T09:00:50Z</time></trkpt><trkpt lat="42.746253534571125" lon="18.875643857833822"><ele>626.0</ele><time>2026-05-03T09:00:51Z</time></trkpt><trkpt lat="42.74639118613729" lon="18.875573329877522"><ele>626.0</ele><time>2026-05-03T09:00:52Z</time></trkpt><trkpt lat="42.74652714006269" lon="18.875532747632633"><ele>626.0</ele><time>2026-05-03T09:00:53Z</time></trkpt><trkpt lat="42.74664884819606" lon="18.875582124078292"><ele>626.0</ele><time>2026-05-03T09:00:54Z</time></trkpt><trkpt lat="42.7467460266242" lon="18.875695347242445"><ele>626.0</ele><time>2026-05-03T09:00:55Z</time></trkpt><trkpt lat="42.74682177818241" lon="18.875852374794903"><ele>627.25</ele><time>2026-05-03T09:00:56Z</time></trkpt><trkpt lat="42.74689228270001" lon="18.876017950240552"><ele>628.5</ele><time>2026-05-03T09:00:57Z</time></trkpt><trkpt lat="42.746950274145654" lon="18.87617772129959"><ele>629.75</ele><time>2026-05-03T09:00:58Z</time></trkpt><trkpt lat="42.747002120536145" lon="18.876317329774054"><ele>631.0</ele><time>2026-05-03T09:00:59Z</time></trkpt><trkpt lat="42.747061418282286" lon="18.876440766112303"><ele>631.0</ele><time>2026-05-03T09:01:00Z</time></trkpt><trkpt lat="42.74714514942219" lon="18.876520027157532"><ele>631.0</ele><time>2026-05-03T09:01:01Z</time></trkpt><trkpt lat="42.74724637298691" lon="18.87654016557217"><ele>631.0</ele><time>2026-05-03T09:01:02Z</time></trkpt><trkpt lat="42.747339161201324" lon="18.876516415694493"><ele>631.0</ele><time>2026-05-03T09:01:03Z</time></trkpt><trkpt lat="42.74743017540356" lon="18.876503997927525"><ele>631.0</ele><time>2026-05-03T09:01:04Z</time></trkpt><trkpt lat="42.74754024554484" lon="18.876522520450617"><ele>631.0</ele><time>2026-05-03T09:01:05Z</time></trkpt><trkpt lat="42.74766226687757" lon="18.87655896424527"><ele>631.0</ele><time>2026-05-03T09:01:06Z</time></trkpt><trkpt lat="42.747790781546335" lon="18.87662703060321"><ele>631.0</ele><time>2026-05-03T09:01:07Z</time></trkpt><trkpt lat="42.74791744549371" lon="18.876751540254197"><ele>631.0</ele><time>2026-05-03T09:01:08Z</time></trkpt><trkpt lat="42.7480546877986" lon="18.87689320977729"><ele>632.0</ele><time>2026-05-03T09:01:09Z</time></trkpt><trkpt lat="42.74820859799431" lon="18.876996660237566"><ele>633.0</ele><time>2026-05-03T09:01:10Z</time></trkpt><trkpt lat="42.74834963721424" lon="18.877080328344398"><ele>634.0</ele><time>2026-05-03T09:01:11Z</time></trkpt><trkpt lat="42.748474352652124" lon="18.87717018628329"><ele>632.0</ele><time>2026-05-03T09:01:12Z</time></trkpt><trkpt lat="42.74857614125951" lon="18.877291092291998"><ele>630.0</ele><time>2026-05-03T09:01:13Z</time></trkpt><trkpt lat="42.74867265312034" lon="18.87746249598466"><ele>628.0</ele><time>2026-05-03T09:01:14Z</time></trkpt><trkpt lat="42.74878389984556" lon="18.87763159684332"><ele>628.0</ele><time>2026-05-03T09:01:15Z</time></trkpt><trkpt lat="42.74889480843718" lon="18.877792893948257"><ele>628.0</ele><time>2026-05-03T09:01:16Z</time></trkpt><trkpt lat="42.748992748081854" lon="18.877935318032268"><ele>628.0</ele><time>2026-05-03T09:01:17Z</time></trkpt><trkpt lat="42.749073015478956" lon="18.87807345443573"><ele>628.0</ele><time>2026-05-03T09:01:18Z</time></trkpt><trkpt lat="42.749120179815435" lon="18.878244191966076"><ele>627.75</ele><time>2026-05-03T09:01:19Z</time></trkpt><trkpt lat="42.749142664407664" lon="18.8784349739833"><ele>627.5</ele><time>2026-05-03T09:01:20Z</time></trkpt><trkpt lat="42.74916081798747" lon="18.878644269285328"><ele>627.25</ele><time>2026-05-03T09:01:21Z</time></trkpt><trkpt lat="42.7491597256255" lon="18.878851519469393"><ele>627.0</ele><time>2026-05-03T09:01:22Z</time></trkpt><trkpt lat="42.749143060318644" lon="18.879056094775617"><ele>627.0</ele><time>2026-05-03T09:01:23Z</time></trkpt><trkpt lat="42.74911249694813" lon="18.87926155996189"><ele>627.0</ele><time>2026-05-03T09:01:24Z</time></trkpt><trkpt lat="42.7490837958462" lon="18.879464434582108"><ele>627.0</ele><time>2026-05-03T09:01:25Z</time></trkpt><trkpt lat="42.74906539873446" lon="18.879635357436975"><ele>627.0</ele><time>2026-05-03T09:01:26Z</time></trkpt><trkpt lat="42.74905048098292" lon="18.879777577617016"><ele>627.8000000000001</ele><time>2026-05-03T09:01:27Z</time></trkpt><trkpt lat="42.749034797344144" lon="18.879903126559057"><ele>628.6</ele><time>2026-05-03T09:01:28Z</time></trkpt><trkpt lat="42.74901871784333" lon="18.880019827503457"><ele>629.4000000000001</ele><time>2026-05-03T09:01:29Z</time></trkpt><trkpt lat="42.74900940964541" lon="18.880141313394397"><ele>630.2</ele><time>2026-05-03T09:01:30Z</time></trkpt><trkpt lat="42.74901194168431" lon="18.880279670833488"><ele>631.0</ele><time>2026-05-03T09:01:31Z</time></trkpt><trkpt lat="42.749040773561376" lon="18.880429480062315"><ele>631.0</ele><time>2026-05-03T09:01:32Z</time></trkpt><trkpt lat="42.749087282926865" lon="18.880570757505712"><ele>631.0</ele><time>2026-05-03T09:01:33Z</time></trkpt><trkpt lat="42.74913946157825" lon="18.88068089775936"><ele>631.0</ele><time>2026-05-03T09:01:34Z</time></trkpt><trkpt lat="42.74920076918747" lon="18.880772749678286"><ele>631.0</ele><time>2026-05-03T09:01:35Z</time></trkpt><trkpt lat="42.74928035229674" lon="18.88086123871258"><ele>631.0</ele><time>2026-05-03T09:01:36Z</time></trkpt><trkpt lat="42.749378248644376" lon="18.880937867826702"><ele>631.75</ele><time>2026-05-03T09:01:37Z</time></trkpt><trkpt lat="42.7494994189551" lon="18.880979630643175"><ele>632.5</ele><time>2026-05-03T09:01:38Z</time></trkpt><trkpt lat="42.74963623435365" lon="18.880965317552096"><ele>633.25</ele><time>2026-05-03T09:01:39Z</time></trkpt><trkpt lat="42.749778393966075" lon="18.880909750093895"><ele>634.0</ele><time>2026-05-03T09:01:40Z</time></trkpt><trkpt lat="42.7499160831185" lon="18.880887372385633"><ele>631.25</ele><time>2026-05-03T09:01:41Z</time></trkpt><trkpt lat="42.75004996040757" lon="18.88089645219087"><ele>628.5</ele><time>2026-05-03T09:01:42Z</time></trkpt><trkpt lat="42.75016181604511" lon="18.880930282014695"><ele>625.75</ele><time>2026-05-03T09:01:43Z</time></trkpt><trkpt lat="42.750256209592415" lon="18.880998959834706"><ele>623.0</ele><time>2026-05-03T09:01:44Z</time></trkpt><trkpt lat="42.75031827930839" lon="18.881120429692352"><ele>622.5</ele><time>2026-05-03T09:01:45Z</time></trkpt><trkpt lat="42.750356527314835" lon="18.881287478615903"><ele>622.0</ele><time>2026-05-03T09:01:46Z</time></trkpt><trkpt lat="42.75039659169955" lon="18.881464758283418"><ele>621.5</ele><time>2026-05-03T09:01:47Z</time></trkpt><trkpt lat="42.75044827107282" lon="18.88164972667545"><ele>621.0</ele><time>2026-05-03T09:01:48Z</time></trkpt><trkpt lat="42.75050850911488" lon="18.88182120632638"><ele>625.6666666666666</ele><time>2026-05-03T09:01:49Z</time></trkpt><trkpt lat="42.7505952856167" lon="18.881981066961274"><ele>630.3333333333333</ele><time>2026-05-03T09:01:50Z</time></trkpt><trkpt lat="42.75070697962738" lon="18.88212410122503"><ele>635.0</ele><time>2026-05-03T09:01:51Z</time></trkpt><trkpt lat="42.750819322166265" lon="18.882270444572956"><ele>635.0</ele><time>2026-05-03T09:01:52Z</time></trkpt><trkpt lat="42.750905678152364" lon="18.882424041301384"><ele>635.0</ele><time>2026-05-03T09:01:53Z</time></trkpt><trkpt lat="42.75096978946623" lon="18.88257909543008"><ele>635.0</ele><time>2026-05-03T09:01:54Z</time></trkpt><trkpt lat="42.751019597521584" lon="18.882716024040885"><ele>635.0</ele><time>2026-05-03T09:01:55Z</time></trkpt><trkpt lat="42.75107722094588" lon="18.882828493233745"><ele>632.1666666666666</ele><time>2026-05-03T09:01:56Z</time></trkpt><trkpt lat="42.751142043847686" lon="18.882921472361527"><ele>629.3333333333333</ele><time>2026-05-03T09:01:57Z</time></trkpt><trkpt lat="42.75120673665063" lon="18.883001420580865"><ele>626.5</ele><time>2026-05-03T09:01:58Z</time></trkpt><trkpt lat="42.75127097903545" lon="18.883053332869373"><ele>623.6666666666666</ele><time>2026-05-03T09:01:59Z</time></trkpt><trkpt lat="42.751344818544894" lon="18.88308827856807"><ele>620.8333333333334</ele><time>2026-05-03T09:02:00Z</time></trkpt><trkpt lat="42.751423604425995" lon="18.88314632695138"><ele>618.0</ele><time>2026-05-03T09:02:01Z</time></trkpt><trkpt lat="42.7515060937057" lon="18.883151876707483"><ele>618.0</ele><time>2026-05-03T09:02:02Z</time></trkpt><trkpt lat="42.75158979750083" lon="18.88314466759669"><ele>618.0</ele><time>2026-05-03T09:02:03Z</time></trkpt><trkpt lat="42.75167197224015" lon="18.88313311536329"><ele>618.0</ele><time>2026-05-03T09:02:04Z</time></trkpt><trkpt lat="42.7517517539492" lon="18.88312442125346"><ele>618.0</ele><time>2026-05-03T09:02:05Z</time></trkpt><trkpt lat="42.75183919616155" lon="18.88312589777997"><ele>618.0</ele><time>2026-05-03T09:02:06Z</time></trkpt><trkpt lat="42.751927957690114" lon="18.883127444788926"><ele>618.0</ele><time>2026-05-03T09:02:07Z</time></trkpt><trkpt lat="42.75201550553117" lon="18.88312742183097"><ele>617.5</ele><time>2026-05-03T09:02:08Z</time></trkpt><trkpt lat="42.752102874115266" lon="18.883126735606677"><ele>617.0</ele><time>2026-05-03T09:02:09Z</time></trkpt><trkpt lat="42.75218165271149" lon="18.883119320162802"><ele>616.5</ele><time>2026-05-03T09:02:10Z</time></trkpt><trkpt lat="42.75225910247382" lon="18.883117745183384"><ele>616.0</ele><time>2026-05-03T09:02:11Z</time></trkpt><trkpt lat="42.752328166039575" lon="18.883112519926463"><ele>615.5</ele><time>2026-05-03T09:02:12Z</time></trkpt><trkpt lat="42.7523964865555" lon="18.883114818329652"><ele>615.0</ele><time>2026-05-03T09:02:13Z</time></trkpt><trkpt lat="42.75247117791978" lon="18.88311998080355"><ele>615.0</ele><time>2026-05-03T09:02:14Z</time></trkpt><trkpt lat="42.7525368180937" lon="18.883119343171824"><ele>615.0</ele><time>2026-05-03T09:02:15Z</time></trkpt><trkpt lat="42.752609982116624" lon="18.883115289655283"><ele>615.0</ele><time>2026-05-03T09:02:16Z</time></trkpt><trkpt lat="42.752698589032576" lon="18.88311420810886"><ele>615.0</ele><time>2026-05-03T09:02:17Z</time></trkpt><trkpt lat="42.75279530711837" lon="18.883111344581046"><ele>615.0</ele><time>2026-05-03T09:02:18Z</time></trkpt><trkpt lat="42.752885518196216" lon="18.88311532360846"><ele>615.0</ele><time>2026-05-03T09:02:19Z</time></trkpt><trkpt lat="42.7529677650599" lon="18.8831226150982"><ele>614.6666666666666</ele><time>2026-05-03T09:02:20Z</time></trkpt><trkpt lat="42.75304148702106" lon="18.88312207601744"><ele>614.3333333333334</ele><time>2026-05-03T09:02:21Z</time></trkpt><trkpt lat="42.753107773138446" lon="18.883119987722598"><ele>614.0</ele><time>2026-05-03T09:02:22Z</time></trkpt><trkpt lat="42.75317507512495" lon="18.883128744129518"><ele>613.6666666666667</ele><time>2026-05-03T09:02:23Z</time></trkpt><trkpt lat="42.75325190491111" lon="18.88313154814745"><ele>613.3333333333334</ele><time>2026-05-03T09:02:24Z</time></trkpt><trkpt lat="42.75332652013805" lon="18.883132329230392"><ele>613.0</ele><time>2026-05-03T09:02:25Z</time></trkpt><trkpt lat="42.753437930772925" lon="18.88313843892123"><ele>612.6666666666667</ele><time>2026-05-03T09:02:27Z</time></trkpt><trkpt lat="42.7535515184997" lon="18.883149087230585"><ele>612.3333333333334</ele><time>2026-05-03T09:02:29Z</time></trkpt><trkpt lat="42.75361682290237" lon="18.883149154213854"><ele>612.0</ele><time>2026-05-03T09:02:30Z</time></trkpt><trkpt lat="42.75368024445194" lon="18.883149281586242"><ele>611.6666666666666</ele><time>2026-05-03T09:02:31Z</time></trkpt><trkpt lat="42.75374399242981" lon="18.88315194590279"><ele>611.3333333333333</ele><time>2026-05-03T09:02:32Z</time></trkpt><trkpt lat="42.75380749453766" lon="18.883156282467553"><ele>611.0</ele><time>2026-05-03T09:02:33Z</time></trkpt><trkpt lat="42.753910022472596" lon="18.883161035926133"><ele>611.0</ele><time>2026-05-03T09:02:35Z</time></trkpt><trkpt lat="42.754014595803746" lon="18.883150490346065"><ele>611.0</ele><time>2026-05-03T09:02:37Z</time></trkpt><trkpt lat="42.75411457131363" lon="18.8831623513713"><ele>611.0</ele><time>2026-05-03T09:02:39Z</time></trkpt><trkpt lat="42.754227092559695" lon="18.883163115415037"><ele>611.0</ele><time>2026-05-03T09:02:41Z</time></trkpt><trkpt lat="42.75435730406753" lon="18.883160518313346"><ele>611.0</ele><time>2026-05-03T09:02:43Z</time></trkpt><trkpt lat="42.754432587145885" lon="18.883159537032515"><ele>610.8333333333333</ele><time>2026-05-03T09:02:44Z</time></trkpt><trkpt lat="42.754503698693846" lon="18.883160070283374"><ele>610.6666666666666</ele><time>2026-05-03T09:02:45Z</time></trkpt><trkpt lat="42.75458223381281" lon="18.883160321354268"><ele>610.5</ele><time>2026-05-03T09:02:46Z</time></trkpt><trkpt lat="42.75466857251428" lon="18.883160909012425"><ele>610.3333333333334</ele><time>2026-05-03T09:02:47Z</time></trkpt><trkpt lat="42.754748786187484" lon="18.88316316701781"><ele>610.1666666666667</ele><time>2026-05-03T09:02:48Z</time></trkpt><trkpt lat="42.75482546261103" lon="18.883163762947998"><ele>610.0</ele><time>2026-05-03T09:02:49Z</time></trkpt><trkpt lat="42.75490133677131" lon="18.88316351869544"><ele>610.0</ele><time>2026-05-03T09:02:50Z</time></trkpt><trkpt lat="42.754978813848396" lon="18.883161563781666"><ele>610.0</ele><time>2026-05-03T09:02:51Z</time></trkpt><trkpt lat="42.75505459421898" lon="18.883160591785344"><ele>610.0</ele><time>2026-05-03T09:02:52Z</time></trkpt><trkpt lat="42.75512692998268" lon="18.88316010770286"><ele>610.0</ele><time>2026-05-03T09:02:53Z</time></trkpt><trkpt lat="42.75520043904742" lon="18.883158181427387"><ele>610.0</ele><time>2026-05-03T09:02:54Z</time></trkpt><trkpt lat="42.75526869234259" lon="18.883154834030933"><ele>610.0</ele><time>2026-05-03T09:02:55Z</time></trkpt><trkpt lat="42.75533661341474" lon="18.8831526477034"><ele>610.0</ele><time>2026-05-03T09:02:56Z</time></trkpt><trkpt lat="42.75540423031991" lon="18.883156053221438"><ele>610.8</ele><time>2026-05-03T09:02:57Z</time></trkpt><trkpt lat="42.75552543639561" lon="18.883167690197766"><ele>611.6</ele><time>2026-05-03T09:02:59Z</time></trkpt><trkpt lat="42.75565319760694" lon="18.88316748413512"><ele>612.4</ele><time>2026-05-03T09:03:01Z</time></trkpt><trkpt lat="42.75572868292104" lon="18.8831693693266"><ele>613.2</ele><time>2026-05-03T09:03:02Z</time></trkpt><trkpt lat="42.755808226176164" lon="18.883175739369054"><ele>614.0</ele><time>2026-05-03T09:03:03Z</time></trkpt><trkpt lat="42.755894656382694" lon="18.88318436672769"><ele>614.0</ele><time>2026-05-03T09:03:04Z</time></trkpt><trkpt lat="42.755992132584005" lon="18.883190506472584"><ele>614.0</ele><time>2026-05-03T09:03:05Z</time></trkpt><trkpt lat="42.756072468564966" lon="18.88319530168642"><ele>614.0</ele><time>2026-05-03T09:03:06Z</time></trkpt><trkpt lat="42.75614751172515" lon="18.883196541398227"><ele>614.0</ele><time>2026-05-03T09:03:07Z</time></trkpt><trkpt lat="42.7562168037103" lon="18.88319510565197"><ele>614.0</ele><time>2026-05-03T09:03:08Z</time></trkpt><trkpt lat="42.756343617759654" lon="18.883189259293427"><ele>614.0</ele><time>2026-05-03T09:03:10Z</time></trkpt><trkpt lat="42.75641142108272" lon="18.88319213463514"><ele>613.8571428571428</ele><time>2026-05-03T09:03:11Z</time></trkpt><trkpt lat="42.756479598542064" lon="18.883191170669935"><ele>613.7142857142857</ele><time>2026-05-03T09:03:12Z</time></trkpt><trkpt lat="42.7565507058878" lon="18.883189904190587"><ele>613.5714285714286</ele><time>2026-05-03T09:03:13Z</time></trkpt><trkpt lat="42.75662060669974" lon="18.883190988295986"><ele>613.4285714285713</ele><time>2026-05-03T09:03:14Z</time></trkpt><trkpt lat="42.75669222611238" lon="18.88319512456518"><ele>613.2857142857142</ele><time>2026-05-03T09:03:15Z</time></trkpt><trkpt lat="42.75675930064222" lon="18.883193231791896"><ele>613.1428571428571</ele><time>2026-05-03T09:03:16Z</time></trkpt><trkpt lat="42.756834436257485" lon="18.883196100851393"><ele>613.0</ele><time>2026-05-03T09:03:17Z</time></trkpt><trkpt lat="42.75690829082515" lon="18.883196222921075"><ele>613.0</ele><time>2026-05-03T09:03:18Z</time></trkpt><trkpt lat="42.756983313894956" lon="18.88319076173225"><ele>613.0</ele><time>2026-05-03T09:03:19Z</time></trkpt><trkpt lat="42.75705078727598" lon="18.88318608535636"><ele>613.0</ele><time>2026-05-03T09:03:20Z</time></trkpt><trkpt lat="42.75712026423124" lon="18.883186645468303"><ele>613.0</ele><time>2026-05-03T09:03:21Z</time></trkpt><trkpt lat="42.75719439855925" lon="18.883187741774623"><ele>613.0</ele><time>2026-05-03T09:03:22Z</time></trkpt><trkpt lat="42.75726875880677" lon="18.883186599554264"><ele>613.0</ele><time>2026-05-03T09:03:23Z</time></trkpt><trkpt lat="42.75734122920604" lon="18.88318876150763"><ele>613.0</ele><time>2026-05-03T09:03:24Z</time></trkpt><trkpt lat="42.757410487918605" lon="18.88319059879966"><ele>613.0</ele><time>2026-05-03T09:03:25Z</time></trkpt><trkpt lat="42.75748105021296" lon="18.883193624693675"><ele>613.0</ele><time>2026-05-03T09:03:26Z</time></trkpt><trkpt lat="42.757553755601656" lon="18.88319939517989"><ele>613.0</ele><time>2026-05-03T09:03:27Z</time></trkpt><trkpt lat="42.75762613401616" lon="18.883204043095375"><ele>613.0</ele><time>2026-05-03T09:03:28Z</time></trkpt><trkpt lat="42.75769727822552" lon="18.883208081945234"><ele>613.0</ele><time>2026-05-03T09:03:29Z</time></trkpt><trkpt lat="42.757767870212916" lon="18.883211433548738"><ele>613.0</ele><time>2026-05-03T09:03:30Z</time></trkpt><trkpt lat="42.75783900392187" lon="18.88321392407569"><ele>613.0</ele><time>2026-05-03T09:03:31Z</time></trkpt><trkpt lat="42.75791026618066" lon="18.88321483243212"><ele>613.0</ele><time>2026-05-03T09:03:32Z</time></trkpt><trkpt lat="42.75798580716501" lon="18.883206545523073"><ele>613.0</ele><time>2026-05-03T09:03:33Z</time></trkpt><trkpt lat="42.75805770333533" lon="18.88320743680142"><ele>613.0</ele><time>2026-05-03T09:03:34Z</time></trkpt><trkpt lat="42.75813080453677" lon="18.88321313739148"><ele>613.0</ele><time>2026-05-03T09:03:35Z</time></trkpt><trkpt lat="42.758204015721475" lon="18.883214567754177"><ele>613.0</ele><time>2026-05-03T09:03:36Z</time></trkpt><trkpt lat="42.75827382790827" lon="18.883212982292775"><ele>613.0</ele><time>2026-05-03T09:03:37Z</time></trkpt><trkpt lat="42.75834491715326" lon="18.8832161763621"><ele>613.0</ele><time>2026-05-03T09:03:38Z</time></trkpt><trkpt lat="42.75841601209793" lon="18.883220419220656"><ele>613.0</ele><time>2026-05-03T09:03:39Z</time></trkpt><trkpt lat="42.75848685363426" lon="18.883226260702486"><ele>613.0</ele><time>2026-05-03T09:03:40Z</time></trkpt><trkpt lat="42.75855756168083" lon="18.8832275579366"><ele>613.0</ele><time>2026-05-03T09:03:41Z</time></trkpt><trkpt lat="42.75862774333864" lon="18.883228647239378"><ele>613.0</ele><time>2026-05-03T09:03:42Z</time></trkpt><trkpt lat="42.7587007804803" lon="18.883228617408854"><ele>613.0</ele><time>2026-05-03T09:03:43Z</time></trkpt><trkpt lat="42.758771293821056" lon="18.883226244647"><ele>613.0</ele><time>2026-05-03T09:03:44Z</time></trkpt><trkpt lat="42.75884082512333" lon="18.883227599197777"><ele>613.0</ele><time>2026-05-03T09:03:45Z</time></trkpt><trkpt lat="42.75895489986424" lon="18.883242155939428"><ele>613.0</ele><time>2026-05-03T09:03:47Z</time></trkpt><trkpt lat="42.759022774412436" lon="18.88324843178736"><ele>613.0</ele><time>2026-05-03T09:03:49Z</time></trkpt><trkpt lat="42.75910256622835" lon="18.883254286989448"><ele>613.0</ele><time>2026-05-03T09:05:58Z</time></trkpt><trkpt lat="42.75921186438846" lon="18.883249680063223"><ele>613.0</ele><time>2026-05-03T09:06:00Z</time></trkpt><trkpt lat="42.759278369741445" lon="18.883251459880626"><ele>613.0</ele><time>2026-05-03T09:06:01Z</time></trkpt><trkpt lat="42.75935585832372" lon="18.883250556411387"><ele>613.0</ele><time>2026-05-03T09:06:02Z</time></trkpt><trkpt lat="42.75943848514905" lon="18.88325019625314"><ele>613.0</ele><time>2026-05-03T09:06:03Z</time></trkpt><trkpt lat="42.759529307958566" lon="18.88325071682051"><ele>613.0</ele><time>2026-05-03T09:06:04Z</time></trkpt><trkpt lat="42.759623456686846" lon="18.883253083263508"><ele>613.0</ele><time>2026-05-03T09:06:05Z</time></trkpt><trkpt lat="42.75971660947741" lon="18.883254997230782"><ele>613.0</ele><time>2026-05-03T09:06:06Z</time></trkpt><trkpt lat="42.75980662222447" lon="18.883259115682403"><ele>613.0</ele><time>2026-05-03T09:06:07Z</time></trkpt><trkpt lat="42.75989366455579" lon="18.883263647130413"><ele>613.0</ele><time>2026-05-03T09:06:08Z</time></trkpt><trkpt lat="42.75997152299758" lon="18.883262988704384"><ele>613.0</ele><time>2026-05-03T09:06:09Z</time></trkpt><trkpt lat="42.760048116235154" lon="18.883259626158182"><ele>613.0</ele><time>2026-05-03T09:06:10Z</time></trkpt><trkpt lat="42.76012013429402" lon="18.88328211600069"><ele>613.0</ele><time>2026-05-03T09:06:11Z</time></trkpt><trkpt lat="42.76019000938471" lon="18.88328314388238"><ele>613.0</ele><time>2026-05-03T09:06:12Z</time></trkpt><trkpt lat="42.760256259273476" lon="18.883284197532284"><ele>613.0</ele><time>2026-05-03T09:06:13Z</time></trkpt><trkpt lat="42.76032021555335" lon="18.88328521783898"><ele>613.0</ele><time>2026-05-03T09:06:14Z</time></trkpt><trkpt lat="42.76043832318376" lon="18.883287041352144"><ele>613.1999999999999</ele><time>2026-05-03T09:06:16Z</time></trkpt><trkpt lat="42.760555404354875" lon="18.883289252811103"><ele>613.4</ele><time>2026-05-03T09:06:18Z</time></trkpt><trkpt lat="42.76067095607818" lon="18.883291532604474"><ele>613.5999999999999</ele><time>2026-05-03T09:06:20Z</time></trkpt><trkpt lat="42.76076944886122" lon="18.883293375248385"><ele>613.8</ele><time>2026-05-03T09:06:22Z</time></trkpt><trkpt lat="42.760851260216576" lon="18.88329475065802"><ele>614.0</ele><time>2026-05-03T09:06:24Z</time></trkpt><trkpt lat="42.76092015084231" lon="18.883295819821097"><ele>614.0</ele><time>2026-05-03T09:06:26Z</time></trkpt><trkpt lat="42.76100273792859" lon="18.88325506413991"><ele>614.0</ele><time>2026-05-03T09:06:44Z</time></trkpt><trkpt lat="42.76113815459272" lon="18.88325356338612"><ele>614.0</ele><time>2026-05-03T09:06:46Z</time></trkpt><trkpt lat="42.76122142554523" lon="18.883260687671335"><ele>614.0</ele><time>2026-05-03T09:06:47Z</time></trkpt><trkpt lat="42.76131393181308" lon="18.8833025414416"><ele>614.0</ele><time>2026-05-03T09:06:48Z</time></trkpt><trkpt lat="42.761417165175764" lon="18.88330425364446"><ele>614.25</ele><time>2026-05-03T09:06:49Z</time></trkpt><trkpt lat="42.7615248253545" lon="18.883305918972468"><ele>614.5</ele><time>2026-05-03T09:06:50Z</time></trkpt><trkpt lat="42.76163940731084" lon="18.88330683392209"><ele>614.75</ele><time>2026-05-03T09:06:51Z</time></trkpt><trkpt lat="42.761761074477064" lon="18.883307597722013"><ele>615.0</ele><time>2026-05-03T09:06:52Z</time></trkpt><trkpt lat="42.76188782510604" lon="18.88330759772259"><ele>615.5</ele><time>2026-05-03T09:06:53Z</time></trkpt><trkpt lat="42.76201503925449" lon="18.88330755718108"><ele>616.0</ele><time>2026-05-03T09:06:54Z</time></trkpt><trkpt lat="42.762141320282254" lon="18.883306769682054"><ele>616.5</ele><time>2026-05-03T09:06:55Z</time></trkpt><trkpt lat="42.762266660468235" lon="18.8832890074942"><ele>617.0</ele><time>2026-05-03T09:06:56Z</time></trkpt><trkpt lat="42.7623846641314" lon="18.883298467491063"><ele>617.0</ele><time>2026-05-03T09:06:57Z</time></trkpt><trkpt lat="42.76250145627724" lon="18.88330431066858"><ele>617.0</ele><time>2026-05-03T09:06:58Z</time></trkpt><trkpt lat="42.76261677500046" lon="18.883306432513404"><ele>617.0</ele><time>2026-05-03T09:06:59Z</time></trkpt><trkpt lat="42.76273059744924" lon="18.88330620118943"><ele>617.0</ele><time>2026-05-03T09:07:00Z</time></trkpt><trkpt lat="42.76284223067734" lon="18.883306494434372"><ele>616.0</ele><time>2026-05-03T09:07:01Z</time></trkpt><trkpt lat="42.7629504827825" lon="18.883307261608536"><ele>615.0</ele><time>2026-05-03T09:07:02Z</time></trkpt><trkpt lat="42.763060493188284" lon="18.8833081053734"><ele>614.0</ele><time>2026-05-03T09:07:03Z</time></trkpt><trkpt lat="42.763170888892205" lon="18.88331226119991"><ele>613.0</ele><time>2026-05-03T09:07:04Z</time></trkpt><trkpt lat="42.763280593520875" lon="18.883317074237294"><ele>612.0</ele><time>2026-05-03T09:07:05Z</time></trkpt><trkpt lat="42.763389772454474" lon="18.88331729284882"><ele>612.0</ele><time>2026-05-03T09:07:06Z</time></trkpt><trkpt lat="42.76349808378718" lon="18.883318282561365"><ele>612.0</ele><time>2026-05-03T09:07:07Z</time></trkpt><trkpt lat="42.76360510800283" lon="18.88332094492035"><ele>612.0</ele><time>2026-05-03T09:07:08Z</time></trkpt><trkpt lat="42.76370983000772" lon="18.883324534607947"><ele>612.0</ele><time>2026-05-03T09:07:09Z</time></trkpt><trkpt lat="42.763815775445686" lon="18.88332149571903"><ele>612.0</ele><time>2026-05-03T09:07:10Z</time></trkpt><trkpt lat="42.76391707942543" lon="18.88330307021653"><ele>612.2</ele><time>2026-05-03T09:07:11Z</time></trkpt><trkpt lat="42.76401391378079" lon="18.883281155618295"><ele>612.4000000000001</ele><time>2026-05-03T09:07:12Z</time></trkpt><trkpt lat="42.7641090678714" lon="18.883257944841105"><ele>612.5999999999999</ele><time>2026-05-03T09:07:13Z</time></trkpt><trkpt lat="42.76420606829241" lon="18.883224617522615"><ele>612.8</ele><time>2026-05-03T09:07:14Z</time></trkpt><trkpt lat="42.76429911921102" lon="18.883177051011025"><ele>613.0</ele><time>2026-05-03T09:07:15Z</time></trkpt><trkpt lat="42.764399588928526" lon="18.883156338426563"><ele>613.0</ele><time>2026-05-03T09:07:16Z</time></trkpt><trkpt lat="42.76449382523227" lon="18.883084465089837"><ele>613.0</ele><time>2026-05-03T09:07:17Z</time></trkpt><trkpt lat="42.76458920412365" lon="18.883018220446477"><ele>613.0</ele><time>2026-05-03T09:07:18Z</time></trkpt><trkpt lat="42.764688219329706" lon="18.882949450148942"><ele>613.0</ele><time>2026-05-03T09:07:19Z</time></trkpt><trkpt lat="42.764783907581155" lon="18.882882990659937"><ele>613.0</ele><time>2026-05-03T09:07:20Z</time></trkpt><trkpt lat="42.7648844276719" lon="18.882813570325737"><ele>613.0</ele><time>2026-05-03T09:07:21Z</time></trkpt><trkpt lat="42.76498262734051" lon="18.882746469798533"><ele>613.0</ele><time>2026-05-03T09:07:22Z</time></trkpt><trkpt lat="42.76507021464644" lon="18.882661880278786"><ele>613.0</ele><time>2026-05-03T09:07:23Z</time></trkpt><trkpt lat="42.76516570591354" lon="18.88259818313757"><ele>613.0</ele><time>2026-05-03T09:07:24Z</time></trkpt><trkpt lat="42.76526146571391" lon="18.882530725299514"><ele>613.0</ele><time>2026-05-03T09:07:25Z</time></trkpt><trkpt lat="42.76535742236965" lon="18.882465154970202"><ele>614.0</ele><time>2026-05-03T09:07:26Z</time></trkpt><trkpt lat="42.76545408148478" lon="18.882401891055487"><ele>615.0</ele><time>2026-05-03T09:07:27Z</time></trkpt><trkpt lat="42.76555066276656" lon="18.8823388037773"><ele>616.0</ele><time>2026-05-03T09:07:28Z</time></trkpt><trkpt lat="42.765641842429865" lon="18.882280312104836"><ele>617.0</ele><time>2026-05-03T09:07:29Z</time></trkpt><trkpt lat="42.76572409050314" lon="18.882229738334058"><ele>618.0</ele><time>2026-05-03T09:07:30Z</time></trkpt><trkpt lat="42.765800809876474" lon="18.882180306883424"><ele>618.0</ele><time>2026-05-03T09:07:31Z</time></trkpt><trkpt lat="42.76586917679643" lon="18.882132610228517"><ele>618.0</ele><time>2026-05-03T09:07:32Z</time></trkpt><trkpt lat="42.76593637616181" lon="18.88208994205384"><ele>618.0</ele><time>2026-05-03T09:07:33Z</time></trkpt><trkpt lat="42.765999452637175" lon="18.882061299693376"><ele>618.0</ele><time>2026-05-03T09:07:34Z</time></trkpt><trkpt lat="42.76609468743661" lon="18.88209170989304"><ele>618.0</ele><time>2026-05-03T09:07:36Z</time></trkpt><trkpt lat="42.76614463000781" lon="18.882155544067828"><ele>618.0</ele><time>2026-05-03T09:07:39Z</time></trkpt><trkpt lat="42.76621744006662" lon="18.88221712135295"><ele>619.6666666666666</ele><time>2026-05-03T09:18:42Z</time></trkpt><trkpt lat="42.76628374102036" lon="18.882254813430258"><ele>621.3333333333334</ele><time>2026-05-03T09:18:44Z</time></trkpt><trkpt lat="42.76635597493282" lon="18.88231566793379"><ele>623.0</ele><time>2026-05-03T09:18:46Z</time></trkpt><trkpt lat="42.766420500376796" lon="18.88238730570325"><ele>624.6666666666667</ele><time>2026-05-03T09:18:47Z</time></trkpt><trkpt lat="42.76646977890594" lon="18.882460645030314"><ele>626.3333333333334</ele><time>2026-05-03T09:18:48Z</time></trkpt><trkpt lat="42.766518797377394" lon="18.88252394596685"><ele>628.0</ele><time>2026-05-03T09:18:49Z</time></trkpt><trkpt lat="42.766569134627794" lon="18.88259743133693"><ele>627.8</ele><time>2026-05-03T09:18:50Z</time></trkpt><trkpt lat="42.766623539159546" lon="18.882674741300754"><ele>627.5999999999999</ele><time>2026-05-03T09:18:51Z</time></trkpt><trkpt lat="42.7667137872563" lon="18.882805017528906"><ele>627.4000000000001</ele><time>2026-05-03T09:18:53Z</time></trkpt><trkpt lat="42.766754632873415" lon="18.882887574341275"><ele>627.2</ele><time>2026-05-03T09:18:54Z</time></trkpt><trkpt lat="42.766814036586815" lon="18.882964073769795"><ele>627.0</ele><time>2026-05-03T09:18:55Z</time></trkpt><trkpt lat="42.76689827584129" lon="18.88304694933909"><ele>627.0</ele><time>2026-05-03T09:18:56Z</time></trkpt><trkpt lat="42.76697390710573" lon="18.883187070319305"><ele>627.0</ele><time>2026-05-03T09:18:57Z</time></trkpt><trkpt lat="42.76708945370083" lon="18.88336937504927"><ele>627.0</ele><time>2026-05-03T09:18:58Z</time></trkpt><trkpt lat="42.767190304233914" lon="18.883540944693113"><ele>627.0</ele><time>2026-05-03T09:18:59Z</time></trkpt><trkpt lat="42.76722977552645" lon="18.883747892215744"><ele>627.0</ele><time>2026-05-03T09:19:00Z</time></trkpt><trkpt lat="42.76732589025375" lon="18.88387571631749"><ele>627.0</ele><time>2026-05-03T09:19:01Z</time></trkpt><trkpt lat="42.76746612477575" lon="18.88395909611662"><ele>627.0</ele><time>2026-05-03T09:19:02Z</time></trkpt><trkpt lat="42.767585381455326" lon="18.88405042692475"><ele>629.0</ele><time>2026-05-03T09:19:03Z</time></trkpt><trkpt lat="42.76772054700985" lon="18.88412776390735"><ele>631.0</ele><time>2026-05-03T09:19:04Z</time></trkpt><trkpt lat="42.76787486943533" lon="18.884186861581064"><ele>633.0</ele><time>2026-05-03T09:19:05Z</time></trkpt><trkpt lat="42.76803410215485" lon="18.884232527162336"><ele>632.3333333333334</ele><time>2026-05-03T09:19:06Z</time></trkpt><trkpt lat="42.76820102799109" lon="18.884279376370106"><ele>631.6666666666667</ele><time>2026-05-03T09:19:07Z</time></trkpt><trkpt lat="42.76836944391229" lon="18.884322259149375"><ele>631.0</ele><time>2026-05-03T09:19:08Z</time></trkpt><trkpt lat="42.76853758245065" lon="18.88439075654772"><ele>631.0</ele><time>2026-05-03T09:19:09Z</time></trkpt><trkpt lat="42.76871551811708" lon="18.88444127766279"><ele>631.0</ele><time>2026-05-03T09:19:10Z</time></trkpt><trkpt lat="42.768898104807796" lon="18.88445883301821"><ele>631.0</ele><time>2026-05-03T09:19:11Z</time></trkpt><trkpt lat="42.7690784325114" lon="18.884503142553957"><ele>631.0</ele><time>2026-05-03T09:19:12Z</time></trkpt><trkpt lat="42.76925457360636" lon="18.88452623771354"><ele>631.0</ele><time>2026-05-03T09:19:13Z</time></trkpt><trkpt lat="42.769432493145615" lon="18.88453579817386"><ele>631.0</ele><time>2026-05-03T09:19:14Z</time></trkpt><trkpt lat="42.769613967003465" lon="18.884543035352305"><ele>631.0</ele><time>2026-05-03T09:19:15Z</time></trkpt><trkpt lat="42.76978507819613" lon="18.884545769342203"><ele>631.0</ele><time>2026-05-03T09:19:16Z</time></trkpt><trkpt lat="42.769955616995574" lon="18.8845477949079"><ele>631.0</ele><time>2026-05-03T09:19:17Z</time></trkpt><trkpt lat="42.77011634425385" lon="18.884550743622757"><ele>631.3333333333334</ele><time>2026-05-03T09:19:18Z</time></trkpt><trkpt lat="42.770274544237" lon="18.88455730010919"><ele>631.6666666666666</ele><time>2026-05-03T09:19:19Z</time></trkpt><trkpt lat="42.770427542449845" lon="18.884565271539877"><ele>632.0</ele><time>2026-05-03T09:19:20Z</time></trkpt><trkpt lat="42.77057610057998" lon="18.884573575790945"><ele>632.0</ele><time>2026-05-03T09:19:21Z</time></trkpt><trkpt lat="42.770723684109846" lon="18.884577985545643"><ele>632.0</ele><time>2026-05-03T09:19:22Z</time></trkpt><trkpt lat="42.7708699028121" lon="18.884579822441903"><ele>632.0</ele><time>2026-05-03T09:19:23Z</time></trkpt><trkpt lat="42.77101899623815" lon="18.88457960330274"><ele>632.0</ele><time>2026-05-03T09:19:24Z</time></trkpt><trkpt lat="42.771166651550644" lon="18.884574945846065"><ele>632.3333333333333</ele><time>2026-05-03T09:19:25Z</time></trkpt><trkpt lat="42.77131899318118" lon="18.88456479239971"><ele>632.6666666666666</ele><time>2026-05-03T09:19:26Z</time></trkpt><trkpt lat="42.77147440106754" lon="18.88457959206168"><ele>633.0</ele><time>2026-05-03T09:19:27Z</time></trkpt><trkpt lat="42.771630293921696" lon="18.8845814807268"><ele>633.0</ele><time>2026-05-03T09:19:28Z</time></trkpt><trkpt lat="42.771789764754956" lon="18.884531817434738"><ele>633.0</ele><time>2026-05-03T09:19:29Z</time></trkpt><trkpt lat="42.77195361788365" lon="18.88453312716694"><ele>633.0</ele><time>2026-05-03T09:19:30Z</time></trkpt><trkpt lat="42.772122104953965" lon="18.8845468222009"><ele>632.3333333333334</ele><time>2026-05-03T09:19:31Z</time></trkpt><trkpt lat="42.772289567072164" lon="18.88456736786237"><ele>631.6666666666667</ele><time>2026-05-03T09:19:32Z</time></trkpt><trkpt lat="42.772456742087414" lon="18.884594060220948"><ele>631.0</ele><time>2026-05-03T09:19:33Z</time></trkpt><trkpt lat="42.77262333872851" lon="18.884627074663307"><ele>632.0</ele><time>2026-05-03T09:19:34Z</time></trkpt><trkpt lat="42.77278995644939" lon="18.884660846444966"><ele>633.0</ele><time>2026-05-03T09:19:35Z</time></trkpt><trkpt lat="42.772959201606916" lon="18.884697516834063"><ele>634.0</ele><time>2026-05-03T09:19:36Z</time></trkpt><trkpt lat="42.7731235465495" lon="18.88474110159061"><ele>634.0</ele><time>2026-05-03T09:19:37Z</time></trkpt><trkpt lat="42.77327757650309" lon="18.884804787495195"><ele>634.0</ele><time>2026-05-03T09:19:38Z</time></trkpt><trkpt lat="42.77342797995992" lon="18.88488630216455"><ele>634.0</ele><time>2026-05-03T09:19:39Z</time></trkpt><trkpt lat="42.7735775015213" lon="18.8849594069855"><ele>633.6666666666667</ele><time>2026-05-03T09:19:40Z</time></trkpt><trkpt lat="42.77372870939153" lon="18.884980920563024"><ele>633.3333333333334</ele><time>2026-05-03T09:19:41Z</time></trkpt><trkpt lat="42.773886880251254" lon="18.884965057087847"><ele>633.0</ele><time>2026-05-03T09:19:42Z</time></trkpt><trkpt lat="42.77404811357848" lon="18.884930916765157"><ele>633.0</ele><time>2026-05-03T09:19:43Z</time></trkpt><trkpt lat="42.77420924141878" lon="18.884894015867257"><ele>633.0</ele><time>2026-05-03T09:19:44Z</time></trkpt><trkpt lat="42.77436884624578" lon="18.88486112109755"><ele>633.0</ele><time>2026-05-03T09:19:45Z</time></trkpt><trkpt lat="42.77452227073158" lon="18.88483037431301"><ele>633.6666666666666</ele><time>2026-05-03T09:19:46Z</time></trkpt><trkpt lat="42.774675021459494" lon="18.88479775109784"><ele>634.3333333333333</ele><time>2026-05-03T09:19:47Z</time></trkpt><trkpt lat="42.774829211319314" lon="18.884767155709824"><ele>635.0</ele><time>2026-05-03T09:19:48Z</time></trkpt><trkpt lat="42.77498173002075" lon="18.884740025828524"><ele>635.0</ele><time>2026-05-03T09:19:49Z</time></trkpt><trkpt lat="42.77513281918656" lon="18.884713530015745"><ele>635.0</ele><time>2026-05-03T09:19:50Z</time></trkpt><trkpt lat="42.77528018286157" lon="18.884694052753108"><ele>635.0</ele><time>2026-05-03T09:19:51Z</time></trkpt><trkpt lat="42.77542378301788" lon="18.884693331405607"><ele>635.0</ele><time>2026-05-03T09:19:52Z</time></trkpt><trkpt lat="42.77556284290104" lon="18.884736100013146"><ele>635.5</ele><time>2026-05-03T09:19:53Z</time></trkpt><trkpt lat="42.775686594082224" lon="18.88481695969181"><ele>636.0</ele><time>2026-05-03T09:19:54Z</time></trkpt><trkpt lat="42.77579409392498" lon="18.884918596859983"><ele>636.5</ele><time>2026-05-03T09:19:55Z</time></trkpt><trkpt lat="42.77590569671677" lon="18.885006190008298"><ele>637.0</ele><time>2026-05-03T09:19:56Z</time></trkpt><trkpt lat="42.77603032009182" lon="18.885088245364926"><ele>637.0</ele><time>2026-05-03T09:19:57Z</time></trkpt><trkpt lat="42.776154612898125" lon="18.885170207455452"><ele>637.0</ele><time>2026-05-03T09:19:58Z</time></trkpt><trkpt lat="42.77627765846871" lon="18.885254138564484"><ele>637.0</ele><time>2026-05-03T09:19:59Z</time></trkpt><trkpt lat="42.77640633412408" lon="18.88534273191519"><ele>637.0</ele><time>2026-05-03T09:20:00Z</time></trkpt><trkpt lat="42.776534425888805" lon="18.885438460839897"><ele>637.0</ele><time>2026-05-03T09:20:01Z</time></trkpt><trkpt lat="42.77666046188048" lon="18.885544643382445"><ele>637.0</ele><time>2026-05-03T09:20:02Z</time></trkpt><trkpt lat="42.77677263207291" lon="18.885684326661142"><ele>637.0</ele><time>2026-05-03T09:20:03Z</time></trkpt><trkpt lat="42.77687513890725" lon="18.885847648620533"><ele>638.3333333333334</ele><time>2026-05-03T09:20:04Z</time></trkpt><trkpt lat="42.776981066475585" lon="18.886012080858126"><ele>639.6666666666666</ele><time>2026-05-03T09:20:05Z</time></trkpt><trkpt lat="42.77708949053797" lon="18.886178395640595"><ele>641.0</ele><time>2026-05-03T09:20:06Z</time></trkpt><trkpt lat="42.77719638358545" lon="18.886340616765974"><ele>641.0</ele><time>2026-05-03T09:20:07Z</time></trkpt><trkpt lat="42.77729435057029" lon="18.88648770372575"><ele>641.0</ele><time>2026-05-03T09:20:08Z</time></trkpt><trkpt lat="42.777375315337466" lon="18.886626524148358"><ele>641.0</ele><time>2026-05-03T09:20:09Z</time></trkpt><trkpt lat="42.77742717832666" lon="18.886763977027805"><ele>641.0</ele><time>2026-05-03T09:20:10Z</time></trkpt><trkpt lat="42.77743705279929" lon="18.88690531898336"><ele>640.4</ele><time>2026-05-03T09:20:11Z</time></trkpt><trkpt lat="42.77740954028173" lon="18.887040955247294"><ele>639.8</ele><time>2026-05-03T09:20:12Z</time></trkpt><trkpt lat="42.77734674130002" lon="18.887161767770273"><ele>639.1999999999999</ele><time>2026-05-03T09:20:13Z</time></trkpt><trkpt lat="42.777267973334695" lon="18.887275925307698"><ele>638.5999999999999</ele><time>2026-05-03T09:20:14Z</time></trkpt><trkpt lat="42.777202891032196" lon="18.88741173899058"><ele>638.0</ele><time>2026-05-03T09:20:15Z</time></trkpt><trkpt lat="42.77717223960405" lon="18.88758058542336"><ele>638.0</ele><time>2026-05-03T09:20:16Z</time></trkpt><trkpt lat="42.777159918568394" lon="18.887764281414317"><ele>638.0</ele><time>2026-05-03T09:20:17Z</time></trkpt><trkpt lat="42.777157014318824" lon="18.887945756533256"><ele>638.0</ele><time>2026-05-03T09:20:18Z</time></trkpt><trkpt lat="42.77716397498768" lon="18.888121847935633"><ele>638.0</ele><time>2026-05-03T09:20:19Z</time></trkpt><trkpt lat="42.777187288148966" lon="18.888290499164885"><ele>638.1999999999999</ele><time>2026-05-03T09:20:20Z</time></trkpt><trkpt lat="42.777240127907994" lon="18.888440326710583"><ele>638.4</ele><time>2026-05-03T09:20:21Z</time></trkpt><trkpt lat="42.77731584141263" lon="18.888553248562047"><ele>638.5999999999999</ele><time>2026-05-03T09:20:22Z</time></trkpt><trkpt lat="42.77739035003065" lon="18.888619753826625"><ele>638.8</ele><time>2026-05-03T09:20:23Z</time></trkpt><trkpt lat="42.77744572147644" lon="18.888660735082805"><ele>639.0</ele><time>2026-05-03T09:20:24Z</time></trkpt><trkpt lat="42.77751018916099" lon="18.888723432288057"><ele>639.0</ele><time>2026-05-03T09:20:26Z</time></trkpt><trkpt lat="42.77751658747365" lon="18.888819601501144"><ele>639.0</ele><time>2026-05-03T09:20:38Z</time></trkpt><trkpt lat="42.77748911114056" lon="18.88897825830511"><ele>639.0</ele><time>2026-05-03T09:20:40Z</time></trkpt><trkpt lat="42.77744658177616" lon="18.889081941730492"><ele>639.0</ele><time>2026-05-03T09:20:41Z</time></trkpt><trkpt lat="42.77740273689149" lon="18.88920206858557"><ele>639.0</ele><time>2026-05-03T09:20:42Z</time></trkpt><trkpt lat="42.77735402026131" lon="18.88934779512298"><ele>638.75</ele><time>2026-05-03T09:20:43Z</time></trkpt><trkpt lat="42.77729777179382" lon="18.889513643762093"><ele>638.5</ele><time>2026-05-03T09:20:44Z</time></trkpt><trkpt lat="42.77723752961242" lon="18.889688932809133"><ele>638.25</ele><time>2026-05-03T09:20:45Z</time></trkpt><trkpt lat="42.77717045017328" lon="18.88987299097618"><ele>638.0</ele><time>2026-05-03T09:20:46Z</time></trkpt><trkpt lat="42.77710329250048" lon="18.890061600959253"><ele>636.6666666666666</ele><time>2026-05-03T09:20:47Z</time></trkpt><trkpt lat="42.777042386403444" lon="18.89025757960461"><ele>635.3333333333334</ele><time>2026-05-03T09:20:48Z</time></trkpt><trkpt lat="42.776980105606484" lon="18.890461293995486"><ele>634.0</ele><time>2026-05-03T09:20:49Z</time></trkpt><trkpt lat="42.77692383731559" lon="18.890668333922754"><ele>634.0</ele><time>2026-05-03T09:20:50Z</time></trkpt><trkpt lat="42.776870680877536" lon="18.890884911200096"><ele>634.0</ele><time>2026-05-03T09:20:51Z</time></trkpt><trkpt lat="42.77682489800033" lon="18.89110751443458"><ele>634.0</ele><time>2026-05-03T09:20:52Z</time></trkpt><trkpt lat="42.776780074162616" lon="18.891340512643207"><ele>634.6666666666667</ele><time>2026-05-03T09:20:53Z</time></trkpt><trkpt lat="42.776742865872635" lon="18.891581007436148"><ele>635.3333333333334</ele><time>2026-05-03T09:20:54Z</time></trkpt><trkpt lat="42.77671911415932" lon="18.891830789946198"><ele>636.0</ele><time>2026-05-03T09:20:55Z</time></trkpt><trkpt lat="42.77669813279114" lon="18.892093744101544"><ele>636.0</ele><time>2026-05-03T09:20:56Z</time></trkpt><trkpt lat="42.77667648704273" lon="18.89236585799212"><ele>636.0</ele><time>2026-05-03T09:20:57Z</time></trkpt><trkpt lat="42.77665902188453" lon="18.89264620865491"><ele>636.0</ele><time>2026-05-03T09:20:58Z</time></trkpt><trkpt lat="42.77664135314985" lon="18.89293212945801"><ele>636.3333333333334</ele><time>2026-05-03T09:20:59Z</time></trkpt><trkpt lat="42.776621336118474" lon="18.89322213821689"><ele>636.6666666666667</ele><time>2026-05-03T09:21:00Z</time></trkpt><trkpt lat="42.77660006694099" lon="18.893513445396128"><ele>637.0</ele><time>2026-05-03T09:21:01Z</time></trkpt><trkpt lat="42.77657682810153" lon="18.893801052911616"><ele>637.3333333333334</ele><time>2026-05-03T09:21:02Z</time></trkpt><trkpt lat="42.776558192849016" lon="18.894080167212152"><ele>637.6666666666666</ele><time>2026-05-03T09:21:03Z</time></trkpt><trkpt lat="42.77653839577849" lon="18.894346965236974"><ele>638.0</ele><time>2026-05-03T09:21:04Z</time></trkpt><trkpt lat="42.77651864932662" lon="18.8946021494064"><ele>638.0</ele><time>2026-05-03T09:21:05Z</time></trkpt><trkpt lat="42.77650098261264" lon="18.89484495131704"><ele>638.0</ele><time>2026-05-03T09:21:06Z</time></trkpt><trkpt lat="42.77648371283963" lon="18.89508209813136"><ele>638.0</ele><time>2026-05-03T09:21:07Z</time></trkpt><trkpt lat="42.77646580942355" lon="18.895320447467423"><ele>638.0</ele><time>2026-05-03T09:21:08Z</time></trkpt><trkpt lat="42.77644629362878" lon="18.8955674610917"><ele>638.0</ele><time>2026-05-03T09:21:09Z</time></trkpt><trkpt lat="42.776430870747504" lon="18.895825315703583"><ele>638.0</ele><time>2026-05-03T09:21:10Z</time></trkpt><trkpt lat="42.77641147264726" lon="18.896087287587964"><ele>636.0</ele><time>2026-05-03T09:21:11Z</time></trkpt><trkpt lat="42.776391832314864" lon="18.896345221147616"><ele>634.0</ele><time>2026-05-03T09:21:12Z</time></trkpt><trkpt lat="42.77636868450341" lon="18.896603182378612"><ele>632.0</ele><time>2026-05-03T09:21:13Z</time></trkpt><trkpt lat="42.776351000105876" lon="18.89685579493452"><ele>630.6666666666666</ele><time>2026-05-03T09:21:14Z</time></trkpt><trkpt lat="42.77633808462846" lon="18.897104354268723"><ele>629.3333333333334</ele><time>2026-05-03T09:21:15Z</time></trkpt><trkpt lat="42.77633065656104" lon="18.89735663537357"><ele>628.0</ele><time>2026-05-03T09:21:16Z</time></trkpt><trkpt lat="42.776331014636014" lon="18.897598769889218"><ele>627.0</ele><time>2026-05-03T09:21:17Z</time></trkpt><trkpt lat="42.77634510403457" lon="18.897824772096826"><ele>626.0</ele><time>2026-05-03T09:21:18Z</time></trkpt><trkpt lat="42.7763684810658" lon="18.898050621580197"><ele>625.0</ele><time>2026-05-03T09:21:19Z</time></trkpt><trkpt lat="42.776395649214734" lon="18.8982725287889"><ele>624.6666666666667</ele><time>2026-05-03T09:21:20Z</time></trkpt><trkpt lat="42.77642610965904" lon="18.89849259912256"><ele>624.3333333333334</ele><time>2026-05-03T09:21:21Z</time></trkpt><trkpt lat="42.776461514866234" lon="18.898709356301254"><ele>624.0</ele><time>2026-05-03T09:21:22Z</time></trkpt><trkpt lat="42.77651146203561" lon="18.8989288854837"><ele>624.0</ele><time>2026-05-03T09:21:23Z</time></trkpt><trkpt lat="42.77657149976613" lon="18.89914889164852"><ele>624.0</ele><time>2026-05-03T09:21:24Z</time></trkpt><trkpt lat="42.77663536857535" lon="18.8993683696008"><ele>624.0</ele><time>2026-05-03T09:21:25Z</time></trkpt><trkpt lat="42.77670473462314" lon="18.899588648547997"><ele>624.0</ele><time>2026-05-03T09:21:26Z</time></trkpt><trkpt lat="42.77678245624244" lon="18.899805028194294"><ele>624.0</ele><time>2026-05-03T09:21:27Z</time></trkpt><trkpt lat="42.776871334025856" lon="18.90002471728955"><ele>624.0</ele><time>2026-05-03T09:21:28Z</time></trkpt><trkpt lat="42.77695819406455" lon="18.900225715967736"><ele>621.3333333333334</ele><time>2026-05-03T09:21:29Z</time></trkpt><trkpt lat="42.77704140268463" lon="18.90041310492669"><ele>618.6666666666667</ele><time>2026-05-03T09:21:30Z</time></trkpt><trkpt lat="42.77711704655678" lon="18.900593539950577"><ele>616.0</ele><time>2026-05-03T09:21:31Z</time></trkpt><trkpt lat="42.77719716090411" lon="18.900773721974392"><ele>615.0</ele><time>2026-05-03T09:21:32Z</time></trkpt><trkpt lat="42.77727784141057" lon="18.900952662301243"><ele>614.0</ele><time>2026-05-03T09:21:33Z</time></trkpt><trkpt lat="42.777358193466824" lon="18.90112958243584"><ele>613.0</ele><time>2026-05-03T09:21:34Z</time></trkpt><trkpt lat="42.77743620173444" lon="18.9013083984011"><ele>613.0</ele><time>2026-05-03T09:21:35Z</time></trkpt><trkpt lat="42.777516517513746" lon="18.901497448366406"><ele>613.0</ele><time>2026-05-03T09:21:36Z</time></trkpt><trkpt lat="42.77759757772926" lon="18.901679773707734"><ele>613.0</ele><time>2026-05-03T09:21:37Z</time></trkpt><trkpt lat="42.77767341614444" lon="18.90184955482789"><ele>613.25</ele><time>2026-05-03T09:21:38Z</time></trkpt><trkpt lat="42.777742391006086" lon="18.90200566555173"><ele>613.5</ele><time>2026-05-03T09:21:39Z</time></trkpt><trkpt lat="42.77780604914126" lon="18.902151505964042"><ele>613.75</ele><time>2026-05-03T09:21:40Z</time></trkpt><trkpt lat="42.77787343610302" lon="18.90230049303917"><ele>614.0</ele><time>2026-05-03T09:21:41Z</time></trkpt><trkpt lat="42.77794076385974" lon="18.90245314273381"><ele>613.5</ele><time>2026-05-03T09:21:42Z</time></trkpt><trkpt lat="42.778007008642454" lon="18.90260343630305"><ele>613.0</ele><time>2026-05-03T09:21:43Z</time></trkpt><trkpt lat="42.77807088739361" lon="18.902748010801265"><ele>612.5</ele><time>2026-05-03T09:21:44Z</time></trkpt><trkpt lat="42.7781331367695" lon="18.902890911636117"><ele>612.0</ele><time>2026-05-03T09:21:45Z</time></trkpt><trkpt lat="42.77819677754781" lon="18.903032419447943"><ele>612.0</ele><time>2026-05-03T09:21:46Z</time></trkpt><trkpt lat="42.77826226251973" lon="18.903174841749877"><ele>612.0</ele><time>2026-05-03T09:21:47Z</time></trkpt><trkpt lat="42.77832658917353" lon="18.903319168444828"><ele>612.0</ele><time>2026-05-03T09:21:48Z</time></trkpt><trkpt lat="42.77839326332321" lon="18.903470427541354"><ele>612.0</ele><time>2026-05-03T09:21:49Z</time></trkpt><trkpt lat="42.778459355239804" lon="18.903622074425982"><ele>612.0</ele><time>2026-05-03T09:21:50Z</time></trkpt><trkpt lat="42.77852713193954" lon="18.90377511729749"><ele>612.0</ele><time>2026-05-03T09:21:51Z</time></trkpt><trkpt lat="42.778597802485955" lon="18.903932923214043"><ele>612.0</ele><time>2026-05-03T09:21:52Z</time></trkpt><trkpt lat="42.77867090028305" lon="18.90409690942148"><ele>612.0</ele><time>2026-05-03T09:21:53Z</time></trkpt><trkpt lat="42.77874296992938" lon="18.90426301204632"><ele>612.0</ele><time>2026-05-03T09:21:54Z</time></trkpt><trkpt lat="42.778816879755205" lon="18.904435020901598"><ele>612.0</ele><time>2026-05-03T09:21:55Z</time></trkpt><trkpt lat="42.77889125077791" lon="18.904617778789962"><ele>612.0</ele><time>2026-05-03T09:21:56Z</time></trkpt><trkpt lat="42.77896384512147" lon="18.90480301588535"><ele>612.0</ele><time>2026-05-03T09:21:57Z</time></trkpt><trkpt lat="42.77903539301834" lon="18.904987135734945"><ele>612.0</ele><time>2026-05-03T09:21:58Z</time></trkpt><trkpt lat="42.77910744660374" lon="18.90517085919035"><ele>612.0</ele><time>2026-05-03T09:21:59Z</time></trkpt><trkpt lat="42.77918351801468" lon="18.905351213499305"><ele>612.25</ele><time>2026-05-03T09:22:00Z</time></trkpt><trkpt lat="42.77925993569358" lon="18.905530628113084"><ele>612.5</ele><time>2026-05-03T09:22:01Z</time></trkpt><trkpt lat="42.7793292689164" lon="18.905699085477302"><ele>612.75</ele><time>2026-05-03T09:22:02Z</time></trkpt><trkpt lat="42.77938890475216" lon="18.90586646073429"><ele>613.0</ele><time>2026-05-03T09:22:03Z</time></trkpt><trkpt lat="42.77944787607897" lon="18.906039089015476"><ele>613.5</ele><time>2026-05-03T09:22:04Z</time></trkpt><trkpt lat="42.7795071929889" lon="18.906220044766652"><ele>614.0</ele><time>2026-05-03T09:22:05Z</time></trkpt><trkpt lat="42.779565446086636" lon="18.906406615157906"><ele>614.5</ele><time>2026-05-03T09:22:06Z</time></trkpt><trkpt lat="42.7796217726294" lon="18.90659773804716"><ele>615.0</ele><time>2026-05-03T09:22:07Z</time></trkpt><trkpt lat="42.77967572382327" lon="18.90679413018584"><ele>615.0</ele><time>2026-05-03T09:22:08Z</time></trkpt><trkpt lat="42.77972333047958" lon="18.90698919488466"><ele>615.0</ele><time>2026-05-03T09:22:09Z</time></trkpt><trkpt lat="42.77976705828388" lon="18.907185201067485"><ele>615.0</ele><time>2026-05-03T09:22:10Z</time></trkpt><trkpt lat="42.779805057085376" lon="18.907377490599234"><ele>615.0</ele><time>2026-05-03T09:22:11Z</time></trkpt><trkpt lat="42.77983805277556" lon="18.907563545417297"><ele>614.75</ele><time>2026-05-03T09:22:12Z</time></trkpt><trkpt lat="42.77986736655583" lon="18.907741913322326"><ele>614.5</ele><time>2026-05-03T09:22:13Z</time></trkpt><trkpt lat="42.7798922836994" lon="18.90791113523143"><ele>614.25</ele><time>2026-05-03T09:22:14Z</time></trkpt><trkpt lat="42.77991575382723" lon="18.908081492472036"><ele>614.0</ele><time>2026-05-03T09:22:15Z</time></trkpt><trkpt lat="42.77993779304525" lon="18.908256304863215"><ele>614.0</ele><time>2026-05-03T09:22:16Z</time></trkpt><trkpt lat="42.779957030956496" lon="18.908426525120138"><ele>614.0</ele><time>2026-05-03T09:22:17Z</time></trkpt><trkpt lat="42.779973116467815" lon="18.9085963284275"><ele>614.0</ele><time>2026-05-03T09:22:18Z</time></trkpt><trkpt lat="42.779988157998616" lon="18.908770148151326"><ele>614.0</ele><time>2026-05-03T09:22:19Z</time></trkpt><trkpt lat="42.78000273605082" lon="18.908946311495384"><ele>614.0</ele><time>2026-05-03T09:22:20Z</time></trkpt><trkpt lat="42.780018702170004" lon="18.90913277273883"><ele>614.0</ele><time>2026-05-03T09:22:21Z</time></trkpt><trkpt lat="42.780033720451065" lon="18.9093327696913"><ele>614.0</ele><time>2026-05-03T09:22:22Z</time></trkpt><trkpt lat="42.78004711342383" lon="18.90952586721078"><ele>614.0</ele><time>2026-05-03T09:22:23Z</time></trkpt><trkpt lat="42.78006288498588" lon="18.909717195856093"><ele>614.0</ele><time>2026-05-03T09:22:24Z</time></trkpt><trkpt lat="42.780080662268546" lon="18.909910589813364"><ele>614.0</ele><time>2026-05-03T09:22:25Z</time></trkpt><trkpt lat="42.78010156822975" lon="18.91010743337167"><ele>614.0</ele><time>2026-05-03T09:22:26Z</time></trkpt><trkpt lat="42.780119516771485" lon="18.910305173793905"><ele>614.0</ele><time>2026-05-03T09:22:27Z</time></trkpt><trkpt lat="42.78013914934968" lon="18.910497781302354"><ele>614.0</ele><time>2026-05-03T09:22:28Z</time></trkpt><trkpt lat="42.78015301932954" lon="18.91069270469643"><ele>614.0</ele><time>2026-05-03T09:22:29Z</time></trkpt><trkpt lat="42.78016712412367" lon="18.910888886882073"><ele>614.0</ele><time>2026-05-03T09:22:30Z</time></trkpt><trkpt lat="42.78018037260818" lon="18.911085811586084"><ele>614.0</ele><time>2026-05-03T09:22:31Z</time></trkpt><trkpt lat="42.78019543750794" lon="18.91128040384961"><ele>614.5</ele><time>2026-05-03T09:22:32Z</time></trkpt><trkpt lat="42.78020750232021" lon="18.91146934995189"><ele>615.0</ele><time>2026-05-03T09:22:33Z</time></trkpt><trkpt lat="42.78021807300912" lon="18.91165754209035"><ele>615.5</ele><time>2026-05-03T09:22:34Z</time></trkpt><trkpt lat="42.780230996003134" lon="18.911853950147457"><ele>616.0</ele><time>2026-05-03T09:22:35Z</time></trkpt><trkpt lat="42.780247687096136" lon="18.912046966971346"><ele>616.0</ele><time>2026-05-03T09:22:36Z</time></trkpt><trkpt lat="42.78026480830244" lon="18.912252417915422"><ele>616.0</ele><time>2026-05-03T09:22:37Z</time></trkpt><trkpt lat="42.780280851467886" lon="18.91245582089712"><ele>616.0</ele><time>2026-05-03T09:22:38Z</time></trkpt><trkpt lat="42.78029313416776" lon="18.912648755180687"><ele>616.0</ele><time>2026-05-03T09:22:39Z</time></trkpt><trkpt lat="42.78030769849804" lon="18.912828130293395"><ele>616.0</ele><time>2026-05-03T09:22:40Z</time></trkpt><trkpt lat="42.78032008298485" lon="18.912991900744757"><ele>616.0</ele><time>2026-05-03T09:22:41Z</time></trkpt><trkpt lat="42.78033024100511" lon="18.913160026636508"><ele>616.0</ele><time>2026-05-03T09:22:42Z</time></trkpt><trkpt lat="42.78034054166348" lon="18.91332992264523"><ele>616.0</ele><time>2026-05-03T09:22:43Z</time></trkpt><trkpt lat="42.78034825698381" lon="18.913511649123897"><ele>616.0</ele><time>2026-05-03T09:22:44Z</time></trkpt><trkpt lat="42.780365770692576" lon="18.91368783707003"><ele>616.0</ele><time>2026-05-03T09:22:45Z</time></trkpt><trkpt lat="42.78038102414542" lon="18.913856853987394"><ele>616.0</ele><time>2026-05-03T09:22:46Z</time></trkpt><trkpt lat="42.78039809396058" lon="18.914029535731117"><ele>616.0</ele><time>2026-05-03T09:22:47Z</time></trkpt><trkpt lat="42.780410235968446" lon="18.91420614921287"><ele>615.75</ele><time>2026-05-03T09:22:48Z</time></trkpt><trkpt lat="42.780422474986175" lon="18.91439794361547"><ele>615.5</ele><time>2026-05-03T09:22:49Z</time></trkpt><trkpt lat="42.78043565805915" lon="18.91459081645837"><ele>615.25</ele><time>2026-05-03T09:22:50Z</time></trkpt><trkpt lat="42.78044315255974" lon="18.914785730554822"><ele>615.0</ele><time>2026-05-03T09:22:51Z</time></trkpt><trkpt lat="42.780458721428836" lon="18.914982057845506"><ele>615.0</ele><time>2026-05-03T09:22:52Z</time></trkpt><trkpt lat="42.7804748485646" lon="18.915171298152682"><ele>615.0</ele><time>2026-05-03T09:22:53Z</time></trkpt><trkpt lat="42.78048584529222" lon="18.915354060684244"><ele>615.0</ele><time>2026-05-03T09:22:54Z</time></trkpt><trkpt lat="42.780500409750196" lon="18.915533791560883"><ele>615.0</ele><time>2026-05-03T09:22:55Z</time></trkpt><trkpt lat="42.78051046401103" lon="18.915717204599027"><ele>615.25</ele><time>2026-05-03T09:22:56Z</time></trkpt><trkpt lat="42.78051865303157" lon="18.91590360769751"><ele>615.5</ele><time>2026-05-03T09:22:57Z</time></trkpt><trkpt lat="42.780520075643885" lon="18.916072565868074"><ele>615.75</ele><time>2026-05-03T09:22:58Z</time></trkpt><trkpt lat="42.78051982307912" lon="18.916232447374444"><ele>616.0</ele><time>2026-05-03T09:22:59Z</time></trkpt><trkpt lat="42.78052143277861" lon="18.91640053288742"><ele>616.0</ele><time>2026-05-03T09:23:00Z</time></trkpt><trkpt lat="42.78052240174192" lon="18.916566512950066"><ele>616.0</ele><time>2026-05-03T09:23:01Z</time></trkpt><trkpt lat="42.78052193372022" lon="18.916728805660203"><ele>616.0</ele><time>2026-05-03T09:23:02Z</time></trkpt><trkpt lat="42.78052256512528" lon="18.91688437608082"><ele>616.0</ele><time>2026-05-03T09:23:03Z</time></trkpt><trkpt lat="42.78052273013794" lon="18.91702577531701"><ele>616.4</ele><time>2026-05-03T09:23:04Z</time></trkpt><trkpt lat="42.78052278343931" lon="18.917160156090866"><ele>616.8</ele><time>2026-05-03T09:23:05Z</time></trkpt><trkpt lat="42.78052371787534" lon="18.917292237232957"><ele>617.1999999999999</ele><time>2026-05-03T09:23:06Z</time></trkpt><trkpt lat="42.780520614528264" lon="18.91743068838599"><ele>617.6</ele><time>2026-05-03T09:23:07Z</time></trkpt><trkpt lat="42.780519158667914" lon="18.91756849665129"><ele>618.0</ele><time>2026-05-03T09:23:08Z</time></trkpt><trkpt lat="42.78051736151674" lon="18.917709077428388"><ele>618.0</ele><time>2026-05-03T09:23:09Z</time></trkpt><trkpt lat="42.78051531598332" lon="18.917848051515804"><ele>618.0</ele><time>2026-05-03T09:23:10Z</time></trkpt><trkpt lat="42.78051325865016" lon="18.917980088187356"><ele>618.0</ele><time>2026-05-03T09:23:11Z</time></trkpt><trkpt lat="42.780513628254546" lon="18.91810251249425"><ele>618.0</ele><time>2026-05-03T09:23:12Z</time></trkpt><trkpt lat="42.780512957135315" lon="18.91821729526785"><ele>618.0</ele><time>2026-05-03T09:23:13Z</time></trkpt><trkpt lat="42.78051232358731" lon="18.91832644435837"><ele>618.0</ele><time>2026-05-03T09:23:14Z</time></trkpt><trkpt lat="42.78050420957664" lon="18.91843367253703"><ele>618.0</ele><time>2026-05-03T09:23:15Z</time></trkpt><trkpt lat="42.78048898741243" lon="18.91853581825981"><ele>618.0</ele><time>2026-05-03T09:23:16Z</time></trkpt><trkpt lat="42.78046684901595" lon="18.918627222564577"><ele>618.0</ele><time>2026-05-03T09:23:17Z</time></trkpt><trkpt lat="42.780440267103415" lon="18.918705177136783"><ele>618.0</ele><time>2026-05-03T09:23:18Z</time></trkpt><trkpt lat="42.78038460113229" lon="18.918844932601182"><ele>618.0</ele><time>2026-05-03T09:23:20Z</time></trkpt><trkpt lat="42.78037654747486" lon="18.918931968258136"><ele>618.0</ele><time>2026-05-03T09:23:21Z</time></trkpt><trkpt lat="42.78038568878624" lon="18.919021300002893"><ele>618.0</ele><time>2026-05-03T09:23:22Z</time></trkpt><trkpt lat="42.78043858415857" lon="18.919121264094027"><ele>618.0</ele><time>2026-05-03T09:23:23Z</time></trkpt><trkpt lat="42.780479519451596" lon="18.9192180239679"><ele>618.0</ele><time>2026-05-03T09:23:24Z</time></trkpt><trkpt lat="42.780495139345156" lon="18.919332046671567"><ele>618.0</ele><time>2026-05-03T09:23:25Z</time></trkpt><trkpt lat="42.78049811394962" lon="18.919459567818233"><ele>618.0</ele><time>2026-05-03T09:23:26Z</time></trkpt><trkpt lat="42.780498951532834" lon="18.919592652448255"><ele>617.8</ele><time>2026-05-03T09:23:27Z</time></trkpt><trkpt lat="42.78048980082156" lon="18.919731385783425"><ele>617.5999999999999</ele><time>2026-05-03T09:23:28Z</time></trkpt><trkpt lat="42.78047612427511" lon="18.91987711866994"><ele>617.4000000000001</ele><time>2026-05-03T09:23:29Z</time></trkpt><trkpt lat="42.78046695932353" lon="18.920035770086148"><ele>617.2</ele><time>2026-05-03T09:23:30Z</time></trkpt><trkpt lat="42.78046154232145" lon="18.9201927170726"><ele>617.0</ele><time>2026-05-03T09:23:31Z</time></trkpt><trkpt lat="42.78045468056249" lon="18.920354644679183"><ele>617.0</ele><time>2026-05-03T09:23:32Z</time></trkpt><trkpt lat="42.780454711198786" lon="18.920523626699957"><ele>617.0</ele><time>2026-05-03T09:23:33Z</time></trkpt><trkpt lat="42.780458872172176" lon="18.92068913386782"><ele>617.0</ele><time>2026-05-03T09:23:34Z</time></trkpt><trkpt lat="42.78045799057816" lon="18.920851877502393"><ele>617.0</ele><time>2026-05-03T09:23:35Z</time></trkpt><trkpt lat="42.780461281482154" lon="18.921012325931223"><ele>616.25</ele><time>2026-05-03T09:23:36Z</time></trkpt><trkpt lat="42.78046481231593" lon="18.921177380687656"><ele>615.5</ele><time>2026-05-03T09:23:37Z</time></trkpt><trkpt lat="42.78048408024055" lon="18.92134540927901"><ele>614.75</ele><time>2026-05-03T09:23:38Z</time></trkpt><trkpt lat="42.78050562076605" lon="18.921516595626105"><ele>614.0</ele><time>2026-05-03T09:23:39Z</time></trkpt><trkpt lat="42.78053612881751" lon="18.921695765319296"><ele>614.0</ele><time>2026-05-03T09:23:40Z</time></trkpt><trkpt lat="42.780565102706085" lon="18.92188231405546"><ele>614.0</ele><time>2026-05-03T09:23:41Z</time></trkpt><trkpt lat="42.780612372815" lon="18.922059764461057"><ele>614.0</ele><time>2026-05-03T09:23:42Z</time></trkpt><trkpt lat="42.78066426557483" lon="18.922238155970863"><ele>614.0</ele><time>2026-05-03T09:23:43Z</time></trkpt><trkpt lat="42.780728419932004" lon="18.92241480580763"><ele>614.25</ele><time>2026-05-03T09:23:44Z</time></trkpt><trkpt lat="42.78080326422804" lon="18.922588935972016"><ele>614.5</ele><time>2026-05-03T09:23:45Z</time></trkpt><trkpt lat="42.78088611361507" lon="18.92275151995356"><ele>614.75</ele><time>2026-05-03T09:23:46Z</time></trkpt><trkpt lat="42.78097327109849" lon="18.92289847076658"><ele>615.0</ele><time>2026-05-03T09:23:47Z</time></trkpt><trkpt lat="42.781063870041464" lon="18.923030163494232"><ele>615.0</ele><time>2026-05-03T09:23:48Z</time></trkpt><trkpt lat="42.78115935235135" lon="18.923148147404582"><ele>615.0</ele><time>2026-05-03T09:23:49Z</time></trkpt><trkpt lat="42.78125434823915" lon="18.923257440639986"><ele>615.0</ele><time>2026-05-03T09:23:50Z</time></trkpt><trkpt lat="42.781354069206614" lon="18.923361583469138"><ele>615.0</ele><time>2026-05-03T09:23:51Z</time></trkpt><trkpt lat="42.781458405119324" lon="18.923465160944435"><ele>615.5</ele><time>2026-05-03T09:23:52Z</time></trkpt><trkpt lat="42.78156582701827" lon="18.9235695315807"><ele>616.0</ele><time>2026-05-03T09:23:53Z</time></trkpt><trkpt lat="42.78167368916597" lon="18.923678390608384"><ele>616.5</ele><time>2026-05-03T09:23:54Z</time></trkpt><trkpt lat="42.781777930185676" lon="18.923781137183"><ele>617.0</ele><time>2026-05-03T09:23:55Z</time></trkpt><trkpt lat="42.78188447534387" lon="18.923880109938885"><ele>617.5</ele><time>2026-05-03T09:23:56Z</time></trkpt><trkpt lat="42.781989563349754" lon="18.92399040498464"><ele>618.0</ele><time>2026-05-03T09:23:57Z</time></trkpt><trkpt lat="42.782092216126856" lon="18.924093602231952"><ele>618.5</ele><time>2026-05-03T09:23:58Z</time></trkpt><trkpt lat="42.782189705530634" lon="18.92420124883414"><ele>619.0</ele><time>2026-05-03T09:23:59Z</time></trkpt><trkpt lat="42.78228419472761" lon="18.924310347786037"><ele>619.75</ele><time>2026-05-03T09:24:00Z</time></trkpt><trkpt lat="42.78237866268559" lon="18.924424542190675"><ele>620.5</ele><time>2026-05-03T09:24:01Z</time></trkpt><trkpt lat="42.78247510158035" lon="18.9245465632522"><ele>621.25</ele><time>2026-05-03T09:24:02Z</time></trkpt><trkpt lat="42.78257565960996" lon="18.924679446680152"><ele>622.0</ele><time>2026-05-03T09:24:03Z</time></trkpt><trkpt lat="42.78267029652065" lon="18.924814398942626"><ele>622.0</ele><time>2026-05-03T09:24:04Z</time></trkpt><trkpt lat="42.782763670610066" lon="18.924955308010198"><ele>622.0</ele><time>2026-05-03T09:24:05Z</time></trkpt><trkpt lat="42.782855601769015" lon="18.925106471056136"><ele>622.0</ele><time>2026-05-03T09:24:06Z</time></trkpt><trkpt lat="42.78294601898088" lon="18.925266345921454"><ele>622.0</ele><time>2026-05-03T09:24:07Z</time></trkpt><trkpt lat="42.78303253566203" lon="18.925432676172324"><ele>621.5</ele><time>2026-05-03T09:24:08Z</time></trkpt><trkpt lat="42.78311341758443" lon="18.9255946214729"><ele>621.0</ele><time>2026-05-03T09:24:09Z</time></trkpt><trkpt lat="42.78318825077374" lon="18.925746912503783"><ele>620.5</ele><time>2026-05-03T09:24:10Z</time></trkpt><trkpt lat="42.783259025823234" lon="18.92591401768124"><ele>620.0</ele><time>2026-05-03T09:24:11Z</time></trkpt><trkpt lat="42.783325271455695" lon="18.926071738359838"><ele>620.75</ele><time>2026-05-03T09:24:12Z</time></trkpt><trkpt lat="42.78338194325202" lon="18.926226654534368"><ele>621.5</ele><time>2026-05-03T09:24:13Z</time></trkpt><trkpt lat="42.78343324245133" lon="18.9263841512878"><ele>622.25</ele><time>2026-05-03T09:24:14Z</time></trkpt><trkpt lat="42.78348561008305" lon="18.926553495515094"><ele>623.0</ele><time>2026-05-03T09:24:15Z</time></trkpt><trkpt lat="42.78353487362487" lon="18.926728452393554"><ele>623.0</ele><time>2026-05-03T09:24:16Z</time></trkpt><trkpt lat="42.78358425671974" lon="18.92690324692926"><ele>623.0</ele><time>2026-05-03T09:24:17Z</time></trkpt><trkpt lat="42.78363039577301" lon="18.927083544594755"><ele>623.0</ele><time>2026-05-03T09:24:18Z</time></trkpt><trkpt lat="42.78367519030881" lon="18.927270242100313"><ele>623.0</ele><time>2026-05-03T09:24:19Z</time></trkpt><trkpt lat="42.783712953359384" lon="18.92746360987737"><ele>623.25</ele><time>2026-05-03T09:24:20Z</time></trkpt><trkpt lat="42.78374422141518" lon="18.92766425657613"><ele>623.5</ele><time>2026-05-03T09:24:21Z</time></trkpt><trkpt lat="42.783770135313986" lon="18.927867813187323"><ele>623.75</ele><time>2026-05-03T09:24:22Z</time></trkpt><trkpt lat="42.78379569345103" lon="18.928061407976067"><ele>624.0</ele><time>2026-05-03T09:24:23Z</time></trkpt><trkpt lat="42.78381665837974" lon="18.928249600242673"><ele>623.5</ele><time>2026-05-03T09:24:24Z</time></trkpt><trkpt lat="42.78383728176176" lon="18.928441218631225"><ele>623.0</ele><time>2026-05-03T09:24:25Z</time></trkpt><trkpt lat="42.78385656894921" lon="18.928638638050185"><ele>622.5</ele><time>2026-05-03T09:24:26Z</time></trkpt><trkpt lat="42.78386402656327" lon="18.928828364931523"><ele>622.0</ele><time>2026-05-03T09:24:27Z</time></trkpt><trkpt lat="42.78386727546484" lon="18.92900652405845"><ele>622.0</ele><time>2026-05-03T09:24:28Z</time></trkpt><trkpt lat="42.78386387412723" lon="18.92918131237537"><ele>622.0</ele><time>2026-05-03T09:24:29Z</time></trkpt><trkpt lat="42.783859613736105" lon="18.929334533742445"><ele>622.0</ele><time>2026-05-03T09:24:30Z</time></trkpt><trkpt lat="42.78386942507723" lon="18.929466924611706"><ele>622.0</ele><time>2026-05-03T09:24:31Z</time></trkpt><trkpt lat="42.7839178102361" lon="18.929551540254273"><ele>622.0</ele><time>2026-05-03T09:24:32Z</time></trkpt><trkpt lat="42.7839922395473" lon="18.929584414261914"><ele>621.8000000000001</ele><time>2026-05-03T09:24:33Z</time></trkpt><trkpt lat="42.784072810215925" lon="18.929568248663838"><ele>621.6</ele><time>2026-05-03T09:24:34Z</time></trkpt><trkpt lat="42.78414962121101" lon="18.92951642944158"><ele>621.4000000000001</ele><time>2026-05-03T09:24:35Z</time></trkpt><trkpt lat="42.78422437681013" lon="18.929438791027067"><ele>621.2</ele><time>2026-05-03T09:24:36Z</time></trkpt><trkpt lat="42.78429588957497" lon="18.929338192582634"><ele>621.0</ele><time>2026-05-03T09:24:37Z</time></trkpt><trkpt lat="42.78436289454993" lon="18.929228841913066"><ele>620.0</ele><time>2026-05-03T09:24:38Z</time></trkpt><trkpt lat="42.78443613053754" lon="18.929121510899524"><ele>619.0</ele><time>2026-05-03T09:24:39Z</time></trkpt><trkpt lat="42.78451891490956" lon="18.929009142465784"><ele>618.0</ele><time>2026-05-03T09:24:40Z</time></trkpt><trkpt lat="42.78460712577459" lon="18.928884496663578"><ele>617.0</ele><time>2026-05-03T09:24:41Z</time></trkpt><trkpt lat="42.78469777142112" lon="18.92875370408937"><ele>617.0</ele><time>2026-05-03T09:24:42Z</time></trkpt><trkpt lat="42.784787088570724" lon="18.92862139454141"><ele>617.0</ele><time>2026-05-03T09:24:43Z</time></trkpt><trkpt lat="42.78487458718059" lon="18.928498338831407"><ele>617.0</ele><time>2026-05-03T09:24:44Z</time></trkpt><trkpt lat="42.7849632255485" lon="18.928395686717348"><ele>617.0</ele><time>2026-05-03T09:24:45Z</time></trkpt><trkpt lat="42.78506350660451" lon="18.928334155871692"><ele>617.0</ele><time>2026-05-03T09:24:46Z</time></trkpt><trkpt lat="42.78517539033927" lon="18.928326107784283"><ele>617.0</ele><time>2026-05-03T09:24:47Z</time></trkpt><trkpt lat="42.78529727345955" lon="18.92834827605644"><ele>617.0</ele><time>2026-05-03T09:24:48Z</time></trkpt><trkpt lat="42.785424054809624" lon="18.928350075609092"><ele>617.0</ele><time>2026-05-03T09:24:49Z</time></trkpt><trkpt lat="42.785558506085046" lon="18.92834599949721"><ele>617.0</ele><time>2026-05-03T09:24:50Z</time></trkpt><trkpt lat="42.785700203773516" lon="18.928345767629168"><ele>617.0</ele><time>2026-05-03T09:24:51Z</time></trkpt><trkpt lat="42.7858461857721" lon="18.928346028684185"><ele>617.0</ele><time>2026-05-03T09:24:52Z</time></trkpt><trkpt lat="42.78599465215756" lon="18.92835091977455"><ele>617.0</ele><time>2026-05-03T09:24:53Z</time></trkpt><trkpt lat="42.78614379055976" lon="18.928358131181643"><ele>617.0</ele><time>2026-05-03T09:24:54Z</time></trkpt><trkpt lat="42.78629045434396" lon="18.92836541518765"><ele>617.0</ele><time>2026-05-03T09:24:55Z</time></trkpt><trkpt lat="42.786440958828074" lon="18.928370357824335"><ele>617.0</ele><time>2026-05-03T09:24:56Z</time></trkpt><trkpt lat="42.78659268797804" lon="18.928377103581393"><ele>617.0</ele><time>2026-05-03T09:24:57Z</time></trkpt><trkpt lat="42.78674808703859" lon="18.92838460241422"><ele>619.0</ele><time>2026-05-03T09:24:58Z</time></trkpt><trkpt lat="42.78690247594992" lon="18.92839185246833"><ele>621.0</ele><time>2026-05-03T09:24:59Z</time></trkpt><trkpt lat="42.787064529555806" lon="18.92839864500081"><ele>623.0</ele><time>2026-05-03T09:25:00Z</time></trkpt><trkpt lat="42.78721843389748" lon="18.928404485853424"><ele>624.6666666666666</ele><time>2026-05-03T09:25:01Z</time></trkpt><trkpt lat="42.78737317111779" lon="18.928407477407365"><ele>626.3333333333334</ele><time>2026-05-03T09:25:02Z</time></trkpt><trkpt lat="42.78752991205411" lon="18.92841721903384"><ele>628.0</ele><time>2026-05-03T09:25:03Z</time></trkpt><trkpt lat="42.78769047757872" lon="18.928423722599206"><ele>628.0</ele><time>2026-05-03T09:25:04Z</time></trkpt><trkpt lat="42.787855305195905" lon="18.928426795026816"><ele>628.0</ele><time>2026-05-03T09:25:05Z</time></trkpt><trkpt lat="42.788016895408724" lon="18.92843070374624"><ele>628.0</ele><time>2026-05-03T09:25:06Z</time></trkpt><trkpt lat="42.788179257869416" lon="18.928437011168633"><ele>628.0</ele><time>2026-05-03T09:25:07Z</time></trkpt><trkpt lat="42.78833987786146" lon="18.928446010680805"><ele>628.0</ele><time>2026-05-03T09:25:08Z</time></trkpt><trkpt lat="42.78850083134116" lon="18.928452578938927"><ele>628.0</ele><time>2026-05-03T09:25:09Z</time></trkpt><trkpt lat="42.7886555342032" lon="18.928454077882506"><ele>626.25</ele><time>2026-05-03T09:25:10Z</time></trkpt><trkpt lat="42.788799553793424" lon="18.928455264661245"><ele>624.5</ele><time>2026-05-03T09:25:11Z</time></trkpt><trkpt lat="42.78894062297635" lon="18.92845076115604"><ele>622.75</ele><time>2026-05-03T09:25:12Z</time></trkpt><trkpt lat="42.78908240664459" lon="18.928442425763862"><ele>621.0</ele><time>2026-05-03T09:25:13Z</time></trkpt><trkpt lat="42.78922944370249" lon="18.928420186914682"><ele>621.0</ele><time>2026-05-03T09:25:14Z</time></trkpt><trkpt lat="42.78937809913846" lon="18.928391013290682"><ele>621.0</ele><time>2026-05-03T09:25:15Z</time></trkpt><trkpt lat="42.78952558256047" lon="18.928355479840405"><ele>621.0</ele><time>2026-05-03T09:25:16Z</time></trkpt><trkpt lat="42.78967306455257" lon="18.928315012558706"><ele>621.0</ele><time>2026-05-03T09:25:17Z</time></trkpt><trkpt lat="42.78982029223124" lon="18.928253049981997"><ele>621.0</ele><time>2026-05-03T09:25:18Z</time></trkpt><trkpt lat="42.78996931763442" lon="18.92817126956963"><ele>621.0</ele><time>2026-05-03T09:25:19Z</time></trkpt><trkpt lat="42.79012014903935" lon="18.928067700059692"><ele>620.3333333333334</ele><time>2026-05-03T09:25:20Z</time></trkpt><trkpt lat="42.79026485414321" lon="18.92795946695941"><ele>619.6666666666667</ele><time>2026-05-03T09:25:21Z</time></trkpt><trkpt lat="42.79040961304095" lon="18.927844085014822"><ele>619.0</ele><time>2026-05-03T09:25:22Z</time></trkpt><trkpt lat="42.79055183804787" lon="18.927722249377194"><ele>619.0</ele><time>2026-05-03T09:25:23Z</time></trkpt><trkpt lat="42.790692303125056" lon="18.92759086109788"><ele>619.0</ele><time>2026-05-03T09:25:24Z</time></trkpt><trkpt lat="42.79082011675633" lon="18.927462913493315"><ele>619.0</ele><time>2026-05-03T09:25:25Z</time></trkpt><trkpt lat="42.79094862299701" lon="18.927331460517575"><ele>618.6666666666667</ele><time>2026-05-03T09:25:26Z</time></trkpt><trkpt lat="42.79107537669834" lon="18.927199160760946"><ele>618.3333333333334</ele><time>2026-05-03T09:25:27Z</time></trkpt><trkpt lat="42.79120338269321" lon="18.927066166520824"><ele>618.0</ele><time>2026-05-03T09:25:28Z</time></trkpt><trkpt lat="42.791331606910624" lon="18.926930752402946"><ele>618.0</ele><time>2026-05-03T09:25:29Z</time></trkpt><trkpt lat="42.79146399599723" lon="18.926793723331034"><ele>618.0</ele><time>2026-05-03T09:25:30Z</time></trkpt><trkpt lat="42.79159632611481" lon="18.926653388124453"><ele>618.0</ele><time>2026-05-03T09:25:31Z</time></trkpt><trkpt lat="42.79173114131165" lon="18.926514785066935"><ele>618.3333333333334</ele><time>2026-05-03T09:25:32Z</time></trkpt><trkpt lat="42.791864802190446" lon="18.926380332682673"><ele>618.6666666666667</ele><time>2026-05-03T09:25:33Z</time></trkpt><trkpt lat="42.79199746577652" lon="18.926242499232274"><ele>619.0</ele><time>2026-05-03T09:25:34Z</time></trkpt><trkpt lat="42.79213088088007" lon="18.92610144086519"><ele>619.0</ele><time>2026-05-03T09:25:35Z</time></trkpt><trkpt lat="42.79226614544061" lon="18.92595566366213"><ele>619.0</ele><time>2026-05-03T09:25:36Z</time></trkpt><trkpt lat="42.79240204850112" lon="18.92580927487788"><ele>619.0</ele><time>2026-05-03T09:25:37Z</time></trkpt><trkpt lat="42.792545297422436" lon="18.925659848393156"><ele>619.3333333333334</ele><time>2026-05-03T09:25:38Z</time></trkpt><trkpt lat="42.79269539568941" lon="18.92550880303763"><ele>619.6666666666666</ele><time>2026-05-03T09:25:39Z</time></trkpt><trkpt lat="42.792844725511635" lon="18.92535186164168"><ele>620.0</ele><time>2026-05-03T09:25:40Z</time></trkpt><trkpt lat="42.792999532430116" lon="18.925189522942215"><ele>619.0</ele><time>2026-05-03T09:25:41Z</time></trkpt><trkpt lat="42.793155907810316" lon="18.925024702259574"><ele>618.0</ele><time>2026-05-03T09:25:42Z</time></trkpt><trkpt lat="42.79331556993071" lon="18.92486030817257"><ele>617.0</ele><time>2026-05-03T09:25:43Z</time></trkpt><trkpt lat="42.793468991609195" lon="18.92470371091546"><ele>617.3333333333333</ele><time>2026-05-03T09:25:44Z</time></trkpt><trkpt lat="42.79361895139631" lon="18.924547547332015"><ele>617.6666666666666</ele><time>2026-05-03T09:25:45Z</time></trkpt><trkpt lat="42.793762181328276" lon="18.924390144633715"><ele>618.0</ele><time>2026-05-03T09:25:46Z</time></trkpt><trkpt lat="42.79390772257323" lon="18.924227089877643"><ele>618.0</ele><time>2026-05-03T09:25:47Z</time></trkpt><trkpt lat="42.79405851485391" lon="18.92406463054434"><ele>618.0</ele><time>2026-05-03T09:25:48Z</time></trkpt><trkpt lat="42.794210252888575" lon="18.923906469196147"><ele>618.0</ele><time>2026-05-03T09:25:49Z</time></trkpt><trkpt lat="42.794362958778244" lon="18.923750936883053"><ele>618.6666666666666</ele><time>2026-05-03T09:25:50Z</time></trkpt><trkpt lat="42.79451781206498" lon="18.92359287926559"><ele>619.3333333333333</ele><time>2026-05-03T09:25:51Z</time></trkpt><trkpt lat="42.794673116121814" lon="18.923434349494816"><ele>620.0</ele><time>2026-05-03T09:25:52Z</time></trkpt><trkpt lat="42.79482718724723" lon="18.92327738687391"><ele>621.0</ele><time>2026-05-03T09:25:53Z</time></trkpt><trkpt lat="42.79497985235104" lon="18.923119353054393"><ele>622.0</ele><time>2026-05-03T09:25:54Z</time></trkpt><trkpt lat="42.79513268060752" lon="18.922965983907677"><ele>623.0</ele><time>2026-05-03T09:25:55Z</time></trkpt><trkpt lat="42.795281605700794" lon="18.922815611123706"><ele>624.3333333333333</ele><time>2026-05-03T09:25:56Z</time></trkpt><trkpt lat="42.79543236837854" lon="18.92266432954698"><ele>625.6666666666666</ele><time>2026-05-03T09:25:57Z</time></trkpt><trkpt lat="42.79558305752778" lon="18.922510537742774"><ele>627.0</ele><time>2026-05-03T09:25:58Z</time></trkpt><trkpt lat="42.79573145370782" lon="18.922359464872773"><ele>627.0</ele><time>2026-05-03T09:25:59Z</time></trkpt><trkpt lat="42.795880630557136" lon="18.922210675386506"><ele>627.0</ele><time>2026-05-03T09:26:00Z</time></trkpt><trkpt lat="42.7960286260682" lon="18.922063274881168"><ele>627.0</ele><time>2026-05-03T09:26:01Z</time></trkpt><trkpt lat="42.79617252552667" lon="18.92191985333876"><ele>628.3333333333334</ele><time>2026-05-03T09:26:02Z</time></trkpt><trkpt lat="42.79631895591866" lon="18.921777206843263"><ele>629.6666666666667</ele><time>2026-05-03T09:26:03Z</time></trkpt><trkpt lat="42.796465814968116" lon="18.921627168984653"><ele>631.0</ele><time>2026-05-03T09:26:04Z</time></trkpt><trkpt lat="42.79661480823999" lon="18.921477654177647"><ele>631.0</ele><time>2026-05-03T09:26:05Z</time></trkpt><trkpt lat="42.79676351869458" lon="18.921323916953824"><ele>631.0</ele><time>2026-05-03T09:26:06Z</time></trkpt><trkpt lat="42.79691275797592" lon="18.921171205570694"><ele>631.0</ele><time>2026-05-03T09:26:07Z</time></trkpt><trkpt lat="42.797066214508014" lon="18.921015851422606"><ele>634.0</ele><time>2026-05-03T09:26:08Z</time></trkpt><trkpt lat="42.79722250353299" lon="18.9208586980341"><ele>637.0</ele><time>2026-05-03T09:26:09Z</time></trkpt><trkpt lat="42.79738446604124" lon="18.920698229840802"><ele>640.0</ele><time>2026-05-03T09:26:10Z</time></trkpt><trkpt lat="42.797551751771515" lon="18.920534086018698"><ele>643.3333333333334</ele><time>2026-05-03T09:26:11Z</time></trkpt><trkpt lat="42.79771775465434" lon="18.92036960724611"><ele>646.6666666666666</ele><time>2026-05-03T09:26:12Z</time></trkpt><trkpt lat="42.7978915318605" lon="18.920199956087437"><ele>650.0</ele><time>2026-05-03T09:26:13Z</time></trkpt><trkpt lat="42.798069569121715" lon="18.920026272996612"><ele>650.0</ele><time>2026-05-03T09:26:14Z</time></trkpt><trkpt lat="42.79824672519374" lon="18.919844705297923"><ele>650.0</ele><time>2026-05-03T09:26:15Z</time></trkpt><trkpt lat="42.79842168238836" lon="18.919669406464383"><ele>650.0</ele><time>2026-05-03T09:26:16Z</time></trkpt><trkpt lat="42.798597567177005" lon="18.919487025920183"><ele>649.0</ele><time>2026-05-03T09:26:17Z</time></trkpt><trkpt lat="42.79877200135451" lon="18.919308711251645"><ele>648.0</ele><time>2026-05-03T09:26:18Z</time></trkpt><trkpt lat="42.79894860358803" lon="18.919133745172108"><ele>647.0</ele><time>2026-05-03T09:26:19Z</time></trkpt><trkpt lat="42.79912290538737" lon="18.918952564784764"><ele>647.0</ele><time>2026-05-03T09:26:20Z</time></trkpt><trkpt lat="42.7992977141143" lon="18.918764147943435"><ele>647.0</ele><time>2026-05-03T09:26:21Z</time></trkpt><trkpt lat="42.79946703265768" lon="18.918571607954735"><ele>647.0</ele><time>2026-05-03T09:26:22Z</time></trkpt><trkpt lat="42.799623486629685" lon="18.918362965735394"><ele>647.0</ele><time>2026-05-03T09:26:23Z</time></trkpt><trkpt lat="42.799770346325275" lon="18.918145628953972"><ele>647.0</ele><time>2026-05-03T09:26:24Z</time></trkpt><trkpt lat="42.7998928703528" lon="18.917902162015494"><ele>647.0</ele><time>2026-05-03T09:26:25Z</time></trkpt><trkpt lat="42.80000378838909" lon="18.917643729725626"><ele>646.6666666666666</ele><time>2026-05-03T09:26:26Z</time></trkpt><trkpt lat="42.80009838769213" lon="18.91737844542806"><ele>646.3333333333334</ele><time>2026-05-03T09:26:27Z</time></trkpt><trkpt lat="42.800177719123795" lon="18.917102161771428"><ele>646.0</ele><time>2026-05-03T09:26:28Z</time></trkpt><trkpt lat="42.80024012387958" lon="18.91681597183424"><ele>651.0</ele><time>2026-05-03T09:26:29Z</time></trkpt><trkpt lat="42.80029190266524" lon="18.91652400676315"><ele>656.0</ele><time>2026-05-03T09:26:30Z</time></trkpt><trkpt lat="42.80033976779085" lon="18.91623259283689"><ele>661.0</ele><time>2026-05-03T09:26:31Z</time></trkpt><trkpt lat="42.8003937462894" lon="18.915941064568347"><ele>660.6666666666667</ele><time>2026-05-03T09:26:32Z</time></trkpt><trkpt lat="42.80045409794817" lon="18.91565535593642"><ele>660.3333333333334</ele><time>2026-05-03T09:26:33Z</time></trkpt><trkpt lat="42.800530614032574" lon="18.915371401007615"><ele>660.0</ele><time>2026-05-03T09:26:34Z</time></trkpt><trkpt lat="42.80062803677236" lon="18.915097924976212"><ele>659.3333333333334</ele><time>2026-05-03T09:26:35Z</time></trkpt><trkpt lat="42.800750921262335" lon="18.914844604331734"><ele>658.6666666666667</ele><time>2026-05-03T09:26:36Z</time></trkpt><trkpt lat="42.800887431062996" lon="18.914608215450006"><ele>658.0</ele><time>2026-05-03T09:26:37Z</time></trkpt><trkpt lat="42.801044372874" lon="18.91438840958539"><ele>657.3333333333334</ele><time>2026-05-03T09:26:38Z</time></trkpt><trkpt lat="42.801217511546234" lon="18.914195052065924"><ele>656.6666666666666</ele><time>2026-05-03T09:26:39Z</time></trkpt><trkpt lat="42.801397863890124" lon="18.914013139956314"><ele>656.0</ele><time>2026-05-03T09:26:40Z</time></trkpt><trkpt lat="42.80158450513227" lon="18.91385164059854"><ele>656.0</ele><time>2026-05-03T09:26:41Z</time></trkpt><trkpt lat="42.80177812116795" lon="18.913702884341824"><ele>656.0</ele><time>2026-05-03T09:26:42Z</time></trkpt><trkpt lat="42.801973575761394" lon="18.913557078025015"><ele>656.0</ele><time>2026-05-03T09:26:43Z</time></trkpt><trkpt lat="42.802173955445554" lon="18.913408750191977"><ele>654.0</ele><time>2026-05-03T09:26:44Z</time></trkpt><trkpt lat="42.802370899664204" lon="18.913263772604964"><ele>652.0</ele><time>2026-05-03T09:26:45Z</time></trkpt><trkpt lat="42.80255283747251" lon="18.91309971048412"><ele>650.0</ele><time>2026-05-03T09:26:46Z</time></trkpt><trkpt lat="42.80275550455991" lon="18.91295275878356"><ele>656.0</ele><time>2026-05-03T09:26:47Z</time></trkpt><trkpt lat="42.802959641296184" lon="18.912809109913674"><ele>662.0</ele><time>2026-05-03T09:26:48Z</time></trkpt><trkpt lat="42.80315750907391" lon="18.912654259454076"><ele>661.6666666666666</ele><time>2026-05-03T09:26:49Z</time></trkpt><trkpt lat="42.80335004191957" lon="18.912494233563372"><ele>661.3333333333334</ele><time>2026-05-03T09:26:50Z</time></trkpt><trkpt lat="42.80352984053861" lon="18.912324521990946"><ele>661.0</ele><time>2026-05-03T09:26:51Z</time></trkpt><trkpt lat="42.80369458358173" lon="18.91213472356736"><ele>661.0</ele><time>2026-05-03T09:26:52Z</time></trkpt><trkpt lat="42.80384781036706" lon="18.91193064166288"><ele>661.0</ele><time>2026-05-03T09:26:53Z</time></trkpt><trkpt lat="42.80399261232404" lon="18.911716430096725"><ele>661.0</ele><time>2026-05-03T09:26:54Z</time></trkpt><trkpt lat="42.804125061385115" lon="18.9114928254474"><ele>660.3333333333334</ele><time>2026-05-03T09:26:55Z</time></trkpt><trkpt lat="42.80424564026456" lon="18.911261158361135"><ele>659.6666666666666</ele><time>2026-05-03T09:26:56Z</time></trkpt><trkpt lat="42.80435804176161" lon="18.91100963607433"><ele>659.0</ele><time>2026-05-03T09:26:57Z</time></trkpt><trkpt lat="42.80446095416001" lon="18.91074811740364"><ele>662.3333333333333</ele><time>2026-05-03T09:26:58Z</time></trkpt><trkpt lat="42.80455179222271" lon="18.91048031059903"><ele>665.6666666666666</ele><time>2026-05-03T09:26:59Z</time></trkpt><trkpt lat="42.804636103445404" lon="18.91020147194023"><ele>669.0</ele><time>2026-05-03T09:27:00Z</time></trkpt><trkpt lat="42.804709916955964" lon="18.909918985366645"><ele>669.0</ele><time>2026-05-03T09:27:01Z</time></trkpt><trkpt lat="42.80477869071403" lon="18.909636524022314"><ele>669.0</ele><time>2026-05-03T09:27:02Z</time></trkpt><trkpt lat="42.804844565891024" lon="18.90934781423252"><ele>669.0</ele><time>2026-05-03T09:27:03Z</time></trkpt><trkpt lat="42.80490777814023" lon="18.909061253808474"><ele>668.0</ele><time>2026-05-03T09:27:04Z</time></trkpt><trkpt lat="42.8049750144292" lon="18.90877423349069"><ele>667.0</ele><time>2026-05-03T09:27:05Z</time></trkpt><trkpt lat="42.80504958520333" lon="18.908493275096244"><ele>666.0</ele><time>2026-05-03T09:27:06Z</time></trkpt><trkpt lat="42.805131247617915" lon="18.908207823713166"><ele>669.6666666666666</ele><time>2026-05-03T09:27:07Z</time></trkpt><trkpt lat="42.80522038431422" lon="18.907929264016573"><ele>673.3333333333333</ele><time>2026-05-03T09:27:08Z</time></trkpt><trkpt lat="42.805316961924845" lon="18.907657953126943"><ele>677.0</ele><time>2026-05-03T09:27:09Z</time></trkpt><trkpt lat="42.8054315643614" lon="18.907391732203788"><ele>677.0</ele><time>2026-05-03T09:27:10Z</time></trkpt><trkpt lat="42.805551088205796" lon="18.907138080836944"><ele>677.0</ele><time>2026-05-03T09:27:11Z</time></trkpt><trkpt lat="42.80568182029891" lon="18.90689455831049"><ele>677.0</ele><time>2026-05-03T09:27:12Z</time></trkpt><trkpt lat="42.80582439817924" lon="18.90666155230349"><ele>680.0</ele><time>2026-05-03T09:27:13Z</time></trkpt><trkpt lat="42.805977479306584" lon="18.906436490275247"><ele>683.0</ele><time>2026-05-03T09:27:14Z</time></trkpt><trkpt lat="42.80613613154948" lon="18.906227203250268"><ele>686.0</ele><time>2026-05-03T09:27:15Z</time></trkpt><trkpt lat="42.80631176344316" lon="18.906027805772325"><ele>680.5</ele><time>2026-05-03T09:27:16Z</time></trkpt><trkpt lat="42.80648655810027" lon="18.905829461705306"><ele>675.0</ele><time>2026-05-03T09:27:17Z</time></trkpt><trkpt lat="42.806674880301244" lon="18.905636989072395"><ele>680.5</ele><time>2026-05-03T09:27:18Z</time></trkpt><trkpt lat="42.80685913355011" lon="18.90545385834898"><ele>686.0</ele><time>2026-05-03T09:27:19Z</time></trkpt><trkpt lat="42.80704413293053" lon="18.905260487223288"><ele>677.0</ele><time>2026-05-03T09:27:20Z</time></trkpt><trkpt lat="42.80723142069946" lon="18.905066398857006"><ele>668.0</ele><time>2026-05-03T09:27:21Z</time></trkpt><trkpt lat="42.80741640361665" lon="18.904876187580456"><ele>668.0</ele><time>2026-05-03T09:27:22Z</time></trkpt><trkpt lat="42.80760405200334" lon="18.904681288117235"><ele>668.0</ele><time>2026-05-03T09:27:23Z</time></trkpt><trkpt lat="42.807793276135065" lon="18.904491523762104"><ele>666.5</ele><time>2026-05-03T09:27:24Z</time></trkpt><trkpt lat="42.807983377023966" lon="18.904301081376822"><ele>665.0</ele><time>2026-05-03T09:27:25Z</time></trkpt><trkpt lat="42.80817029562356" lon="18.90411525693018"><ele>665.0</ele><time>2026-05-03T09:27:26Z</time></trkpt><trkpt lat="42.80835122978571" lon="18.90392924778236"><ele>665.0</ele><time>2026-05-03T09:27:27Z</time></trkpt><trkpt lat="42.80853208166311" lon="18.903748696990952"><ele>665.6666666666666</ele><time>2026-05-03T09:27:28Z</time></trkpt><trkpt lat="42.80870890909119" lon="18.90357162051048"><ele>666.3333333333334</ele><time>2026-05-03T09:27:29Z</time></trkpt><trkpt lat="42.80888663087133" lon="18.903401277516306"><ele>667.0</ele><time>2026-05-03T09:27:30Z</time></trkpt><trkpt lat="42.8090614341981" lon="18.90323571048221"><ele>667.0</ele><time>2026-05-03T09:27:31Z</time></trkpt><trkpt lat="42.80923466994448" lon="18.903081180917393"><ele>667.0</ele><time>2026-05-03T09:27:32Z</time></trkpt><trkpt lat="42.80941111854789" lon="18.902930327301355"><ele>667.0</ele><time>2026-05-03T09:27:33Z</time></trkpt><trkpt lat="42.809589721158915" lon="18.90278625811043"><ele>666.6666666666667</ele><time>2026-05-03T09:27:34Z</time></trkpt><trkpt lat="42.80977428863516" lon="18.90264988937436"><ele>666.3333333333334</ele><time>2026-05-03T09:27:35Z</time></trkpt><trkpt lat="42.80996604310358" lon="18.902519676142617"><ele>666.0</ele><time>2026-05-03T09:27:36Z</time></trkpt><trkpt lat="42.81016405470435" lon="18.902398188911828"><ele>669.6666666666666</ele><time>2026-05-03T09:27:37Z</time></trkpt><trkpt lat="42.81036776257898" lon="18.90229040837252"><ele>673.3333333333333</ele><time>2026-05-03T09:27:38Z</time></trkpt><trkpt lat="42.810574863814246" lon="18.90218185314918"><ele>677.0</ele><time>2026-05-03T09:27:39Z</time></trkpt><trkpt lat="42.810784338544394" lon="18.902080113185832"><ele>680.0</ele><time>2026-05-03T09:27:40Z</time></trkpt><trkpt lat="42.81099382782914" lon="18.90197911861925"><ele>683.0</ele><time>2026-05-03T09:27:41Z</time></trkpt><trkpt lat="42.811205557375104" lon="18.901883440706325"><ele>686.0</ele><time>2026-05-03T09:27:42Z</time></trkpt><trkpt lat="42.811418084194344" lon="18.901794374362396"><ele>681.3333333333333</ele><time>2026-05-03T09:27:43Z</time></trkpt><trkpt lat="42.81162840028779" lon="18.90170142392744"><ele>676.6666666666666</ele><time>2026-05-03T09:27:44Z</time></trkpt><trkpt lat="42.81184156228627" lon="18.90160540724138"><ele>672.0</ele><time>2026-05-03T09:27:45Z</time></trkpt><trkpt lat="42.81204408225635" lon="18.901491888970728"><ele>672.0</ele><time>2026-05-03T09:27:46Z</time></trkpt><trkpt lat="42.812252628176594" lon="18.90137885120802"><ele>672.0</ele><time>2026-05-03T09:27:47Z</time></trkpt><trkpt lat="42.81245766108352" lon="18.90125519785658"><ele>672.0</ele><time>2026-05-03T09:27:48Z</time></trkpt><trkpt lat="42.812658511172614" lon="18.901117828215106"><ele>674.5</ele><time>2026-05-03T09:27:49Z</time></trkpt><trkpt lat="42.812855874226045" lon="18.90096989616298"><ele>677.0</ele><time>2026-05-03T09:27:50Z</time></trkpt><trkpt lat="42.81305552004112" lon="18.90081588255512"><ele>671.5</ele><time>2026-05-03T09:27:51Z</time></trkpt><trkpt lat="42.813252263546374" lon="18.900656717937554"><ele>666.0</ele><time>2026-05-03T09:27:52Z</time></trkpt><trkpt lat="42.813446564902456" lon="18.90050166845471"><ele>671.5</ele><time>2026-05-03T09:27:53Z</time></trkpt><trkpt lat="42.813642621281836" lon="18.90034878860315"><ele>677.0</ele><time>2026-05-03T09:27:54Z</time></trkpt><trkpt lat="42.81384002936719" lon="18.90019769697086"><ele>673.0</ele><time>2026-05-03T09:27:55Z</time></trkpt><trkpt lat="42.81404021817985" lon="18.900051465169422"><ele>669.0</ele><time>2026-05-03T09:27:56Z</time></trkpt><trkpt lat="42.81423665926034" lon="18.89991279549656"><ele>665.0</ele><time>2026-05-03T09:27:57Z</time></trkpt><trkpt lat="42.81443735357639" lon="18.899782165852454"><ele>665.0</ele><time>2026-05-03T09:27:58Z</time></trkpt><trkpt lat="42.81463455210856" lon="18.899662724826307"><ele>665.0</ele><time>2026-05-03T09:27:59Z</time></trkpt><trkpt lat="42.814832112156566" lon="18.89955206960877"><ele>665.0</ele><time>2026-05-03T09:28:00Z</time></trkpt><trkpt lat="42.81502877064196" lon="18.899451100663256"><ele>665.6666666666666</ele><time>2026-05-03T09:28:01Z</time></trkpt><trkpt lat="42.81522131091461" lon="18.89935885731591"><ele>666.3333333333334</ele><time>2026-05-03T09:28:02Z</time></trkpt><trkpt lat="42.815416435462836" lon="18.899275312616968"><ele>667.0</ele><time>2026-05-03T09:28:03Z</time></trkpt><trkpt lat="42.815609800267445" lon="18.899199886390086"><ele>666.6666666666667</ele><time>2026-05-03T09:28:04Z</time></trkpt><trkpt lat="42.81580108202591" lon="18.899135405907952"><ele>666.3333333333334</ele><time>2026-05-03T09:28:05Z</time></trkpt><trkpt lat="42.81598688409791" lon="18.89908088463596"><ele>666.0</ele><time>2026-05-03T09:28:06Z</time></trkpt><trkpt lat="42.81617054819969" lon="18.899028086380948"><ele>666.0</ele><time>2026-05-03T09:28:07Z</time></trkpt><trkpt lat="42.81634595218276" lon="18.898974052603542"><ele>666.0</ele><time>2026-05-03T09:28:08Z</time></trkpt><trkpt lat="42.81652235860082" lon="18.898922286880193"><ele>666.0</ele><time>2026-05-03T09:28:09Z</time></trkpt><trkpt lat="42.81669868309667" lon="18.89887182291892"><ele>661.6666666666666</ele><time>2026-05-03T09:28:10Z</time></trkpt><trkpt lat="42.816874992838564" lon="18.898817873152534"><ele>657.3333333333333</ele><time>2026-05-03T09:28:11Z</time></trkpt><trkpt lat="42.8170459537348" lon="18.898761795077508"><ele>653.0</ele><time>2026-05-03T09:28:12Z</time></trkpt><trkpt lat="42.81722271098092" lon="18.89870180174654"><ele>653.0</ele><time>2026-05-03T09:28:13Z</time></trkpt><trkpt lat="42.817397183111254" lon="18.898640659259815"><ele>653.0</ele><time>2026-05-03T09:28:14Z</time></trkpt><trkpt lat="42.81756682998887" lon="18.898573732475402"><ele>653.0</ele><time>2026-05-03T09:28:15Z</time></trkpt><trkpt lat="42.817740622419116" lon="18.898503415314075"><ele>650.0</ele><time>2026-05-03T09:28:16Z</time></trkpt><trkpt lat="42.81791696994846" lon="18.898428177936367"><ele>647.0</ele><time>2026-05-03T09:28:17Z</time></trkpt><trkpt lat="42.8180887604238" lon="18.898348940756737"><ele>644.0</ele><time>2026-05-03T09:28:18Z</time></trkpt><trkpt lat="42.81825782525073" lon="18.89825819138028"><ele>646.3333333333333</ele><time>2026-05-03T09:28:19Z</time></trkpt><trkpt lat="42.81842789672444" lon="18.89816742786162"><ele>648.6666666666666</ele><time>2026-05-03T09:28:20Z</time></trkpt><trkpt lat="42.818595776727115" lon="18.8980804465477"><ele>651.0</ele><time>2026-05-03T09:28:21Z</time></trkpt><trkpt lat="42.818772659585306" lon="18.89798592920312"><ele>651.0</ele><time>2026-05-03T09:28:22Z</time></trkpt><trkpt lat="42.81894087383445" lon="18.8978853295452"><ele>651.0</ele><time>2026-05-03T09:28:23Z</time></trkpt><trkpt lat="42.819110603574465" lon="18.897782411153702"><ele>651.0</ele><time>2026-05-03T09:28:24Z</time></trkpt><trkpt lat="42.81928192387165" lon="18.897676542504044"><ele>656.3333333333334</ele><time>2026-05-03T09:28:25Z</time></trkpt><trkpt lat="42.819456071196456" lon="18.89757330884368"><ele>661.6666666666667</ele><time>2026-05-03T09:28:26Z</time></trkpt><trkpt lat="42.81962906013419" lon="18.89747153069327"><ele>667.0</ele><time>2026-05-03T09:28:27Z</time></trkpt><trkpt lat="42.81980212395031" lon="18.897372119215728"><ele>667.0</ele><time>2026-05-03T09:28:28Z</time></trkpt><trkpt lat="42.8199738508661" lon="18.897270575506493"><ele>667.0</ele><time>2026-05-03T09:28:29Z</time></trkpt><trkpt lat="42.82014406958341" lon="18.89716779924061"><ele>667.0</ele><time>2026-05-03T09:28:30Z</time></trkpt><trkpt lat="42.82031036663532" lon="18.897067361529576"><ele>665.6666666666667</ele><time>2026-05-03T09:28:31Z</time></trkpt><trkpt lat="42.82046742565576" lon="18.89697548843484"><ele>664.3333333333334</ele><time>2026-05-03T09:28:32Z</time></trkpt><trkpt lat="42.820615403510125" lon="18.896885464285084"><ele>663.0</ele><time>2026-05-03T09:28:33Z</time></trkpt><trkpt lat="42.82076740180915" lon="18.896803336994022"><ele>665.6666666666666</ele><time>2026-05-03T09:28:34Z</time></trkpt><trkpt lat="42.82091561774288" lon="18.89672902889015"><ele>668.3333333333333</ele><time>2026-05-03T09:28:35Z</time></trkpt><trkpt lat="42.821065439864846" lon="18.896665999112525"><ele>671.0</ele><time>2026-05-03T09:28:36Z</time></trkpt><trkpt lat="42.82121791911626" lon="18.896617600922983"><ele>671.0</ele><time>2026-05-03T09:28:37Z</time></trkpt><trkpt lat="42.8213691059952" lon="18.896583769711533"><ele>671.0</ele><time>2026-05-03T09:28:38Z</time></trkpt><trkpt lat="42.82151065329336" lon="18.89656288499129"><ele>671.0</ele><time>2026-05-03T09:28:39Z</time></trkpt><trkpt lat="42.82164882664437" lon="18.89655828314246"><ele>671.0</ele><time>2026-05-03T09:28:40Z</time></trkpt><trkpt lat="42.821787436144525" lon="18.896564964076312"><ele>674.3333333333333</ele><time>2026-05-03T09:28:41Z</time></trkpt><trkpt lat="42.821930319919765" lon="18.89659459715342"><ele>677.6666666666666</ele><time>2026-05-03T09:28:42Z</time></trkpt><trkpt lat="42.82207942254138" lon="18.89664363849382"><ele>681.0</ele><time>2026-05-03T09:28:43Z</time></trkpt><trkpt lat="42.822229743437504" lon="18.896701672663557"><ele>678.3333333333334</ele><time>2026-05-03T09:28:44Z</time></trkpt><trkpt lat="42.82237574681245" lon="18.896782402833747"><ele>675.6666666666667</ele><time>2026-05-03T09:28:45Z</time></trkpt><trkpt lat="42.82252575914946" lon="18.896878118492243"><ele>673.0</ele><time>2026-05-03T09:28:46Z</time></trkpt><trkpt lat="42.82267277484952" lon="18.896976412487668"><ele>673.0</ele><time>2026-05-03T09:28:47Z</time></trkpt><trkpt lat="42.82282068825822" lon="18.897081876373825"><ele>673.0</ele><time>2026-05-03T09:28:48Z</time></trkpt><trkpt lat="42.82297013166682" lon="18.89718895487363"><ele>673.0</ele><time>2026-05-03T09:28:49Z</time></trkpt><trkpt lat="42.82312362230622" lon="18.89729541134426"><ele>673.0</ele><time>2026-05-03T09:28:50Z</time></trkpt><trkpt lat="42.82327153347945" lon="18.89739734397549"><ele>673.0</ele><time>2026-05-03T09:28:51Z</time></trkpt><trkpt lat="42.82341583019606" lon="18.897488795758267"><ele>673.0</ele><time>2026-05-03T09:28:52Z</time></trkpt><trkpt lat="42.82356383076523" lon="18.897562708274606"><ele>667.0</ele><time>2026-05-03T09:28:53Z</time></trkpt><trkpt lat="42.82372251392014" lon="18.89762032614643"><ele>661.0</ele><time>2026-05-03T09:28:54Z</time></trkpt><trkpt lat="42.82390122037518" lon="18.89766028933243"><ele>655.0</ele><time>2026-05-03T09:28:55Z</time></trkpt><trkpt lat="42.824112121663454" lon="18.89768726640541"><ele>660.5</ele><time>2026-05-03T09:28:56Z</time></trkpt><trkpt lat="42.82435895025485" lon="18.897720039108926"><ele>666.0</ele><time>2026-05-03T09:28:57Z</time></trkpt><trkpt lat="42.824628959732564" lon="18.89775621430702"><ele>666.0</ele><time>2026-05-03T09:28:58Z</time></trkpt><trkpt lat="42.82488453284195" lon="18.897774347132042"><ele>666.0</ele><time>2026-05-03T09:28:59Z</time></trkpt><trkpt lat="42.82510715827543" lon="18.897785788205177"><ele>667.6666666666666</ele><time>2026-05-03T09:29:00Z</time></trkpt><trkpt lat="42.82531859283636" lon="18.897803019787215"><ele>669.3333333333333</ele><time>2026-05-03T09:29:01Z</time></trkpt><trkpt lat="42.82552584109484" lon="18.89782064006405"><ele>671.0</ele><time>2026-05-03T09:29:02Z</time></trkpt><trkpt lat="42.82572737767234" lon="18.89783182409002"><ele>671.0</ele><time>2026-05-03T09:29:03Z</time></trkpt><trkpt lat="42.82595583622134" lon="18.89785305468949"><ele>671.0</ele><time>2026-05-03T09:29:04Z</time></trkpt><trkpt lat="42.82615180578057" lon="18.89786975639371"><ele>671.0</ele><time>2026-05-03T09:29:05Z</time></trkpt><trkpt lat="42.826316017922714" lon="18.89787905015401"><ele>673.3333333333333</ele><time>2026-05-03T09:29:06Z</time></trkpt><trkpt lat="42.82650128826493" lon="18.897899999558824"><ele>675.6666666666666</ele><time>2026-05-03T09:29:07Z</time></trkpt><trkpt lat="42.826686209707226" lon="18.897934086195466"><ele>678.0</ele><time>2026-05-03T09:29:08Z</time></trkpt><trkpt lat="42.82686335962242" lon="18.897993787279766"><ele>681.3333333333334</ele><time>2026-05-03T09:29:09Z</time></trkpt><trkpt lat="42.82703020779472" lon="18.898070221185787"><ele>684.6666666666667</ele><time>2026-05-03T09:29:10Z</time></trkpt><trkpt lat="42.82719259485668" lon="18.898161855844126"><ele>688.0</ele><time>2026-05-03T09:29:11Z</time></trkpt><trkpt lat="42.82734922081306" lon="18.898274105858025"><ele>688.0</ele><time>2026-05-03T09:29:12Z</time></trkpt><trkpt lat="42.82749871746722" lon="18.89840539771121"><ele>688.0</ele><time>2026-05-03T09:29:13Z</time></trkpt><trkpt lat="42.82764039404211" lon="18.898557151443804"><ele>688.0</ele><time>2026-05-03T09:29:14Z</time></trkpt><trkpt lat="42.82776731868589" lon="18.898724851172503"><ele>687.3333333333334</ele><time>2026-05-03T09:29:15Z</time></trkpt><trkpt lat="42.827885164666995" lon="18.898909073288007"><ele>686.6666666666666</ele><time>2026-05-03T09:29:16Z</time></trkpt><trkpt lat="42.82800366211653" lon="18.89909938496597"><ele>686.0</ele><time>2026-05-03T09:29:17Z</time></trkpt><trkpt lat="42.828123939463254" lon="18.899284087084933"><ele>686.0</ele><time>2026-05-03T09:29:18Z</time></trkpt><trkpt lat="42.828246668544985" lon="18.899467298023623"><ele>686.0</ele><time>2026-05-03T09:29:19Z</time></trkpt><trkpt lat="42.828369627391325" lon="18.899650419748166"><ele>686.0</ele><time>2026-05-03T09:29:20Z</time></trkpt><trkpt lat="42.82849338607486" lon="18.89983533226288"><ele>685.3333333333333</ele><time>2026-05-03T09:29:21Z</time></trkpt><trkpt lat="42.8286175177787" lon="18.900025529815156"><ele>684.6666666666666</ele><time>2026-05-03T09:29:22Z</time></trkpt><trkpt lat="42.82874285839192" lon="18.90022153185211"><ele>684.0</ele><time>2026-05-03T09:29:23Z</time></trkpt><trkpt lat="42.828869673288935" lon="18.90042413583073"><ele>684.0</ele><time>2026-05-03T09:29:24Z</time></trkpt><trkpt lat="42.82900018410462" lon="18.900626996318483"><ele>684.0</ele><time>2026-05-03T09:29:25Z</time></trkpt><trkpt lat="42.829133647877605" lon="18.900834140775487"><ele>684.0</ele><time>2026-05-03T09:29:26Z</time></trkpt><trkpt lat="42.82927071893012" lon="18.901042629007087"><ele>685.6666666666666</ele><time>2026-05-03T09:29:27Z</time></trkpt><trkpt lat="42.829411071140605" lon="18.90124785397459"><ele>687.3333333333333</ele><time>2026-05-03T09:29:28Z</time></trkpt><trkpt lat="42.82955712238473" lon="18.901448396685772"><ele>689.0</ele><time>2026-05-03T09:29:29Z</time></trkpt><trkpt lat="42.82970821225301" lon="18.901638025154167"><ele>691.3333333333333</ele><time>2026-05-03T09:29:30Z</time></trkpt><trkpt lat="42.82986800330024" lon="18.901822269284118"><ele>693.6666666666666</ele><time>2026-05-03T09:29:31Z</time></trkpt><trkpt lat="42.83003997525378" lon="18.902010574131225"><ele>696.0</ele><time>2026-05-03T09:29:32Z</time></trkpt><trkpt lat="42.83021287464852" lon="18.902194006335566"><ele>696.0</ele><time>2026-05-03T09:29:33Z</time></trkpt><trkpt lat="42.8303863550646" lon="18.9023730271888"><ele>696.0</ele><time>2026-05-03T09:29:34Z</time></trkpt><trkpt lat="42.83055094875663" lon="18.90255120872535"><ele>696.0</ele><time>2026-05-03T09:29:35Z</time></trkpt><trkpt lat="42.830717360504856" lon="18.902733309328152"><ele>701.0</ele><time>2026-05-03T09:29:36Z</time></trkpt><trkpt lat="42.83088107357647" lon="18.902918600331386"><ele>706.0</ele><time>2026-05-03T09:29:37Z</time></trkpt><trkpt lat="42.83103483220182" lon="18.903107143185323"><ele>711.0</ele><time>2026-05-03T09:29:38Z</time></trkpt><trkpt lat="42.83118144359957" lon="18.90330267292903"><ele>702.6666666666666</ele><time>2026-05-03T09:29:39Z</time></trkpt><trkpt lat="42.831318972989045" lon="18.903503799992183"><ele>694.3333333333333</ele><time>2026-05-03T09:29:40Z</time></trkpt><trkpt lat="42.831453110763086" lon="18.903709221732075"><ele>686.0</ele><time>2026-05-03T09:29:41Z</time></trkpt><trkpt lat="42.83157765852145" lon="18.903912419792896"><ele>686.0</ele><time>2026-05-03T09:29:42Z</time></trkpt><trkpt lat="42.8317018132035" lon="18.904121259709292"><ele>686.0</ele><time>2026-05-03T09:29:43Z</time></trkpt><trkpt lat="42.83182286186314" lon="18.904326790800567"><ele>686.0</ele><time>2026-05-03T09:29:44Z</time></trkpt><trkpt lat="42.83194581336084" lon="18.90453033027141"><ele>690.6666666666666</ele><time>2026-05-03T09:29:45Z</time></trkpt><trkpt lat="42.83207141764828" lon="18.904730528589003"><ele>695.3333333333334</ele><time>2026-05-03T09:29:46Z</time></trkpt><trkpt lat="42.832202622613394" lon="18.904922345568806"><ele>700.0</ele><time>2026-05-03T09:29:47Z</time></trkpt><trkpt lat="42.83234205693187" lon="18.90510399051299"><ele>697.6666666666667</ele><time>2026-05-03T09:29:48Z</time></trkpt><trkpt lat="42.832485361452626" lon="18.905277415830906"><ele>695.3333333333334</ele><time>2026-05-03T09:29:49Z</time></trkpt><trkpt lat="42.8326335034829" lon="18.905439986413114"><ele>693.0</ele><time>2026-05-03T09:29:50Z</time></trkpt><trkpt lat="42.83279070606607" lon="18.9055920975015"><ele>693.0</ele><time>2026-05-03T09:29:51Z</time></trkpt><trkpt lat="42.83295874234281" lon="18.905740250780035"><ele>693.0</ele><time>2026-05-03T09:29:52Z</time></trkpt><trkpt lat="42.83313404858003" lon="18.90588511313937"><ele>693.0</ele><time>2026-05-03T09:29:53Z</time></trkpt><trkpt lat="42.833311705761176" lon="18.906018462680915"><ele>690.3333333333334</ele><time>2026-05-03T09:29:54Z</time></trkpt><trkpt lat="42.833497447174736" lon="18.90614585104315"><ele>687.6666666666667</ele><time>2026-05-03T09:29:55Z</time></trkpt><trkpt lat="42.83368574703894" lon="18.906270513000564"><ele>685.0</ele><time>2026-05-03T09:29:56Z</time></trkpt><trkpt lat="42.83387472125561" lon="18.906398734315484"><ele>685.0</ele><time>2026-05-03T09:29:57Z</time></trkpt><trkpt lat="42.83406288107696" lon="18.906530017591372"><ele>685.0</ele><time>2026-05-03T09:29:58Z</time></trkpt><trkpt lat="42.834249916231585" lon="18.90666657707547"><ele>685.0</ele><time>2026-05-03T09:29:59Z</time></trkpt><trkpt lat="42.834432473352365" lon="18.906806744907872"><ele>684.3333333333334</ele><time>2026-05-03T09:30:00Z</time></trkpt><trkpt lat="42.83460887856758" lon="18.90695487604861"><ele>683.6666666666666</ele><time>2026-05-03T09:30:01Z</time></trkpt><trkpt lat="42.83477853249316" lon="18.907113630297864"><ele>683.0</ele><time>2026-05-03T09:30:02Z</time></trkpt><trkpt lat="42.834936978058494" lon="18.90728322009978"><ele>683.0</ele><time>2026-05-03T09:30:03Z</time></trkpt><trkpt lat="42.83508433271845" lon="18.907457273373797"><ele>683.0</ele><time>2026-05-03T09:30:04Z</time></trkpt><trkpt lat="42.83522855601208" lon="18.907644274116734"><ele>683.0</ele><time>2026-05-03T09:30:05Z</time></trkpt><trkpt lat="42.83537151000611" lon="18.907825335725548"><ele>685.6666666666666</ele><time>2026-05-03T09:30:06Z</time></trkpt><trkpt lat="42.83551686723497" lon="18.90800421166161"><ele>688.3333333333334</ele><time>2026-05-03T09:30:07Z</time></trkpt><trkpt lat="42.83566720576365" lon="18.908177125934916"><ele>691.0</ele><time>2026-05-03T09:30:08Z</time></trkpt><trkpt lat="42.83582706998757" lon="18.90833789291527"><ele>689.6666666666667</ele><time>2026-05-03T09:30:09Z</time></trkpt><trkpt lat="42.83597960353595" lon="18.90849415956144"><ele>688.3333333333334</ele><time>2026-05-03T09:30:10Z</time></trkpt><trkpt lat="42.83614456334519" lon="18.908641045891063"><ele>687.0</ele><time>2026-05-03T09:30:11Z</time></trkpt><trkpt lat="42.836319961744124" lon="18.90877417515583"><ele>687.0</ele><time>2026-05-03T09:30:12Z</time></trkpt><trkpt lat="42.83650083891793" lon="18.908900515473768"><ele>687.0</ele><time>2026-05-03T09:30:13Z</time></trkpt><trkpt lat="42.83668475495308" lon="18.909023295495228"><ele>687.0</ele><time>2026-05-03T09:30:14Z</time></trkpt><trkpt lat="42.836871161372045" lon="18.909148163676463"><ele>685.3333333333334</ele><time>2026-05-03T09:30:15Z</time></trkpt><trkpt lat="42.83705943283538" lon="18.90927914561678"><ele>683.6666666666667</ele><time>2026-05-03T09:30:16Z</time></trkpt><trkpt lat="42.837247457785764" lon="18.909413208146432"><ele>682.0</ele><time>2026-05-03T09:30:17Z</time></trkpt><trkpt lat="42.837430681551766" lon="18.90955228017387"><ele>682.0</ele><time>2026-05-03T09:30:18Z</time></trkpt><trkpt lat="42.83761286132495" lon="18.909699520202143"><ele>682.0</ele><time>2026-05-03T09:30:19Z</time></trkpt><trkpt lat="42.83779270047562" lon="18.90985494757543"><ele>682.0</ele><time>2026-05-03T09:30:20Z</time></trkpt><trkpt lat="42.837970622578986" lon="18.910016763100476"><ele>681.6666666666667</ele><time>2026-05-03T09:30:21Z</time></trkpt><trkpt lat="42.838137371211495" lon="18.91017837598102"><ele>681.3333333333334</ele><time>2026-05-03T09:30:22Z</time></trkpt><trkpt lat="42.838306747920484" lon="18.91034194426786"><ele>681.0</ele><time>2026-05-03T09:30:23Z</time></trkpt><trkpt lat="42.83847271503932" lon="18.91050257755094"><ele>679.6666666666666</ele><time>2026-05-03T09:30:24Z</time></trkpt><trkpt lat="42.838643867214905" lon="18.910666718297005"><ele>678.3333333333333</ele><time>2026-05-03T09:30:25Z</time></trkpt><trkpt lat="42.838812656646155" lon="18.910824863975556"><ele>677.0</ele><time>2026-05-03T09:30:26Z</time></trkpt><trkpt lat="42.83898474544925" lon="18.910988392658147"><ele>677.0</ele><time>2026-05-03T09:30:27Z</time></trkpt><trkpt lat="42.83915776790804" lon="18.911154679476798"><ele>677.0</ele><time>2026-05-03T09:30:28Z</time></trkpt><trkpt lat="42.83933073617186" lon="18.911322538981015"><ele>677.0</ele><time>2026-05-03T09:30:29Z</time></trkpt><trkpt lat="42.83950667495311" lon="18.911493164464638"><ele>678.3333333333333</ele><time>2026-05-03T09:30:30Z</time></trkpt><trkpt lat="42.83968177652075" lon="18.911662855506858"><ele>679.6666666666666</ele><time>2026-05-03T09:30:31Z</time></trkpt><trkpt lat="42.83986057443098" lon="18.911832858316394"><ele>681.0</ele><time>2026-05-03T09:30:32Z</time></trkpt><trkpt lat="42.84003928273957" lon="18.912005695439913"><ele>690.0</ele><time>2026-05-03T09:30:33Z</time></trkpt><trkpt lat="42.84021780695931" lon="18.912176756976752"><ele>699.0</ele><time>2026-05-03T09:30:34Z</time></trkpt><trkpt lat="42.84039892570807" lon="18.91235125418335"><ele>708.0</ele><time>2026-05-03T09:30:35Z</time></trkpt><trkpt lat="42.84057958878405" lon="18.912527977198298"><ele>706.0</ele><time>2026-05-03T09:30:36Z</time></trkpt><trkpt lat="42.84076027501578" lon="18.912703883553792"><ele>704.0</ele><time>2026-05-03T09:30:37Z</time></trkpt><trkpt lat="42.84094072994217" lon="18.912879188747052"><ele>702.0</ele><time>2026-05-03T09:30:38Z</time></trkpt><trkpt lat="42.841122975548714" lon="18.913053851611483"><ele>702.0</ele><time>2026-05-03T09:30:39Z</time></trkpt><trkpt lat="42.84130302973728" lon="18.913225218319294"><ele>702.0</ele><time>2026-05-03T09:30:40Z</time></trkpt><trkpt lat="42.84148275371561" lon="18.9133941396505"><ele>702.0</ele><time>2026-05-03T09:30:41Z</time></trkpt><trkpt lat="42.841662361700564" lon="18.913563441435848"><ele>703.3333333333334</ele><time>2026-05-03T09:30:42Z</time></trkpt><trkpt lat="42.841840050319135" lon="18.91373144496207"><ele>704.6666666666667</ele><time>2026-05-03T09:30:43Z</time></trkpt><trkpt lat="42.84201391136096" lon="18.913898185490027"><ele>706.0</ele><time>2026-05-03T09:30:44Z</time></trkpt><trkpt lat="42.84218998421768" lon="18.91406436215594"><ele>706.0</ele><time>2026-05-03T09:30:45Z</time></trkpt><trkpt lat="42.84236191333506" lon="18.914227075816065"><ele>706.0</ele><time>2026-05-03T09:30:46Z</time></trkpt><trkpt lat="42.842533970862135" lon="18.914375046724114"><ele>706.0</ele><time>2026-05-03T09:30:47Z</time></trkpt><trkpt lat="42.842712543553695" lon="18.914503802054885"><ele>704.3333333333334</ele><time>2026-05-03T09:30:48Z</time></trkpt><trkpt lat="42.84289724862956" lon="18.914607997321202"><ele>702.6666666666666</ele><time>2026-05-03T09:30:49Z</time></trkpt><trkpt lat="42.84309224021987" lon="18.914699766346782"><ele>701.0</ele><time>2026-05-03T09:30:50Z</time></trkpt><trkpt lat="42.84328087428831" lon="18.914750997294316"><ele>702.0</ele><time>2026-05-03T09:30:51Z</time></trkpt><trkpt lat="42.84347682889991" lon="18.914786035058174"><ele>703.0</ele><time>2026-05-03T09:30:52Z</time></trkpt><trkpt lat="42.84367573611344" lon="18.914796855780235"><ele>704.0</ele><time>2026-05-03T09:30:53Z</time></trkpt><trkpt lat="42.84387069620402" lon="18.91479560365089"><ele>704.0</ele><time>2026-05-03T09:30:54Z</time></trkpt><trkpt lat="42.84406205979531" lon="18.914786452621396"><ele>704.0</ele><time>2026-05-03T09:30:55Z</time></trkpt><trkpt lat="42.84426111584304" lon="18.914773154731776"><ele>704.0</ele><time>2026-05-03T09:30:56Z</time></trkpt><trkpt lat="42.84446108225704" lon="18.914752411462242"><ele>702.3333333333333</ele><time>2026-05-03T09:30:57Z</time></trkpt><trkpt lat="42.84466077351441" lon="18.914764384183513"><ele>700.6666666666666</ele><time>2026-05-03T09:30:58Z</time></trkpt><trkpt lat="42.84485779532372" lon="18.914805749762326"><ele>699.0</ele><time>2026-05-03T09:30:59Z</time></trkpt><trkpt lat="42.84504623525501" lon="18.914886888065823"><ele>696.3333333333334</ele><time>2026-05-03T09:31:00Z</time></trkpt><trkpt lat="42.84521844003758" lon="18.915009342653285"><ele>693.6666666666667</ele><time>2026-05-03T09:31:01Z</time></trkpt><trkpt lat="42.84537427908285" lon="18.915136530260522"><ele>691.0</ele><time>2026-05-03T09:31:02Z</time></trkpt><trkpt lat="42.84552244115242" lon="18.915242533980436"><ele>691.0</ele><time>2026-05-03T09:31:03Z</time></trkpt><trkpt lat="42.84567005341103" lon="18.915334962583653"><ele>691.0</ele><time>2026-05-03T09:31:04Z</time></trkpt><trkpt lat="42.84581956184169" lon="18.915409340352337"><ele>691.0</ele><time>2026-05-03T09:31:05Z</time></trkpt><trkpt lat="42.84597064352153" lon="18.915459791436838"><ele>691.0</ele><time>2026-05-03T09:31:06Z</time></trkpt><trkpt lat="42.846119881353374" lon="18.91548284127391"><ele>691.0</ele><time>2026-05-03T09:31:07Z</time></trkpt><trkpt lat="42.84626777977121" lon="18.915482173058827"><ele>691.0</ele><time>2026-05-03T09:31:08Z</time></trkpt><trkpt lat="42.84641663096886" lon="18.91546130646517"><ele>691.0</ele><time>2026-05-03T09:31:09Z</time></trkpt><trkpt lat="42.846567569192814" lon="18.915417886357965"><ele>691.0</ele><time>2026-05-03T09:31:10Z</time></trkpt><trkpt lat="42.84671381077796" lon="18.91534016321381"><ele>691.0</ele><time>2026-05-03T09:31:11Z</time></trkpt><trkpt lat="42.846854578698014" lon="18.915247332802362"><ele>691.0</ele><time>2026-05-03T09:31:12Z</time></trkpt><trkpt lat="42.846992578478705" lon="18.915125103781868"><ele>695.0</ele><time>2026-05-03T09:31:13Z</time></trkpt><trkpt lat="42.847127726022826" lon="18.914996244790238"><ele>699.0</ele><time>2026-05-03T09:31:14Z</time></trkpt><trkpt lat="42.847258933432826" lon="18.91487089721121"><ele>703.0</ele><time>2026-05-03T09:31:15Z</time></trkpt><trkpt lat="42.84739302015014" lon="18.914749296549275"><ele>703.0</ele><time>2026-05-03T09:31:16Z</time></trkpt><trkpt lat="42.84754539431465" lon="18.914635646995702"><ele>703.0</ele><time>2026-05-03T09:31:17Z</time></trkpt><trkpt lat="42.84770822635316" lon="18.91453037154278"><ele>703.0</ele><time>2026-05-03T09:31:18Z</time></trkpt><trkpt lat="42.84787024000312" lon="18.91446497803714"><ele>699.0</ele><time>2026-05-03T09:31:19Z</time></trkpt><trkpt lat="42.84803464376201" lon="18.914443657519094"><ele>695.0</ele><time>2026-05-03T09:31:20Z</time></trkpt><trkpt lat="42.84819521074454" lon="18.914449931021203"><ele>691.0</ele><time>2026-05-03T09:31:21Z</time></trkpt><trkpt lat="42.84835610250268" lon="18.914488292949198"><ele>699.3333333333334</ele><time>2026-05-03T09:31:22Z</time></trkpt><trkpt lat="42.848520645680466" lon="18.91456286910595"><ele>707.6666666666666</ele><time>2026-05-03T09:31:23Z</time></trkpt><trkpt lat="42.84868707099156" lon="18.914684044021758"><ele>716.0</ele><time>2026-05-03T09:31:24Z</time></trkpt><trkpt lat="42.848823304100655" lon="18.914814460191458"><ele>716.0</ele><time>2026-05-03T09:31:25Z</time></trkpt><trkpt lat="42.848957951048874" lon="18.914965639095268"><ele>716.0</ele><time>2026-05-03T09:31:26Z</time></trkpt><trkpt lat="42.84908355177329" lon="18.915123614052096"><ele>716.0</ele><time>2026-05-03T09:31:27Z</time></trkpt><trkpt lat="42.84922939516251" lon="18.915289823129743"><ele>713.3333333333333</ele><time>2026-05-03T09:31:28Z</time></trkpt><trkpt lat="42.849360599158395" lon="18.915452214306566"><ele>710.6666666666666</ele><time>2026-05-03T09:31:29Z</time></trkpt><trkpt lat="42.84948588468427" lon="18.91560077103025"><ele>708.0</ele><time>2026-05-03T09:31:30Z</time></trkpt><trkpt lat="42.84961643939229" lon="18.91574536533045"><ele>708.0</ele><time>2026-05-03T09:31:31Z</time></trkpt><trkpt lat="42.8497539892265" lon="18.915880716711733"><ele>708.0</ele><time>2026-05-03T09:31:32Z</time></trkpt><trkpt lat="42.84989977928664" lon="18.916011153316592"><ele>708.0</ele><time>2026-05-03T09:31:33Z</time></trkpt><trkpt lat="42.85005393496359" lon="18.916131657964353"><ele>704.6666666666666</ele><time>2026-05-03T09:31:34Z</time></trkpt><trkpt lat="42.850216080175194" lon="18.91624635327305"><ele>701.3333333333333</ele><time>2026-05-03T09:31:35Z</time></trkpt><trkpt lat="42.85038509513451" lon="18.916352894981152"><ele>698.0</ele><time>2026-05-03T09:31:36Z</time></trkpt><trkpt lat="42.85056184155277" lon="18.916446845705053"><ele>698.0</ele><time>2026-05-03T09:31:37Z</time></trkpt><trkpt lat="42.850740233196305" lon="18.916515825545517"><ele>698.0</ele><time>2026-05-03T09:31:38Z</time></trkpt><trkpt lat="42.85092417122591" lon="18.9165673452688"><ele>698.0</ele><time>2026-05-03T09:31:39Z</time></trkpt><trkpt lat="42.85110980573244" lon="18.916605531297524"><ele>700.0</ele><time>2026-05-03T09:31:40Z</time></trkpt><trkpt lat="42.851292444411804" lon="18.916625333729797"><ele>702.0</ele><time>2026-05-03T09:31:41Z</time></trkpt><trkpt lat="42.85146354459345" lon="18.91662514941906"><ele>704.0</ele><time>2026-05-03T09:31:42Z</time></trkpt><trkpt lat="42.8516313665292" lon="18.91661368691403"><ele>703.6666666666666</ele><time>2026-05-03T09:31:43Z</time></trkpt><trkpt lat="42.85181091150688" lon="18.916598406609566"><ele>703.3333333333334</ele><time>2026-05-03T09:31:44Z</time></trkpt><trkpt lat="42.85199715533004" lon="18.9165805347767"><ele>703.0</ele><time>2026-05-03T09:31:45Z</time></trkpt><trkpt lat="42.852181798710276" lon="18.916553140642176"><ele>703.0</ele><time>2026-05-03T09:31:46Z</time></trkpt><trkpt lat="42.85236582853889" lon="18.916531922313453"><ele>703.0</ele><time>2026-05-03T09:31:47Z</time></trkpt><trkpt lat="42.85254979213367" lon="18.916499896019566"><ele>703.0</ele><time>2026-05-03T09:31:48Z</time></trkpt><trkpt lat="42.8527373995075" lon="18.91647822781237"><ele>700.6666666666667</ele><time>2026-05-03T09:31:49Z</time></trkpt><trkpt lat="42.85291856553939" lon="18.916447458675115"><ele>698.3333333333334</ele><time>2026-05-03T09:31:50Z</time></trkpt><trkpt lat="42.8531007373491" lon="18.916422882379493"><ele>696.0</ele><time>2026-05-03T09:31:51Z</time></trkpt><trkpt lat="42.85328057503935" lon="18.916405388143282"><ele>693.0</ele><time>2026-05-03T09:31:52Z</time></trkpt><trkpt lat="42.853459757243606" lon="18.91639726310432"><ele>690.0</ele><time>2026-05-03T09:31:53Z</time></trkpt><trkpt lat="42.85364052665274" lon="18.916413412084225"><ele>687.0</ele><time>2026-05-03T09:31:54Z</time></trkpt><trkpt lat="42.853814570163415" lon="18.9164539691137"><ele>687.0</ele><time>2026-05-03T09:31:55Z</time></trkpt><trkpt lat="42.85398679543206" lon="18.916519945180266"><ele>687.0</ele><time>2026-05-03T09:31:56Z</time></trkpt><trkpt lat="42.85414524312772" lon="18.916621998969585"><ele>687.0</ele><time>2026-05-03T09:31:57Z</time></trkpt><trkpt lat="42.85429139830238" lon="18.91675077936599"><ele>691.0</ele><time>2026-05-03T09:31:58Z</time></trkpt><trkpt lat="42.85442456373385" lon="18.916908844258025"><ele>695.0</ele><time>2026-05-03T09:31:59Z</time></trkpt><trkpt lat="42.85454505464856" lon="18.917088696872096"><ele>699.0</ele><time>2026-05-03T09:32:00Z</time></trkpt><trkpt lat="42.85464709181315" lon="18.917292005095984"><ele>699.0</ele><time>2026-05-03T09:32:01Z</time></trkpt><trkpt lat="42.85472730948832" lon="18.917512589619573"><ele>699.0</ele><time>2026-05-03T09:32:02Z</time></trkpt><trkpt lat="42.85478816910158" lon="18.917744571802178"><ele>699.0</ele><time>2026-05-03T09:32:03Z</time></trkpt><trkpt lat="42.85482724443512" lon="18.917984174965117"><ele>699.3333333333334</ele><time>2026-05-03T09:32:04Z</time></trkpt><trkpt lat="42.85484150945518" lon="18.91823019141042"><ele>699.6666666666667</ele><time>2026-05-03T09:32:05Z</time></trkpt><trkpt lat="42.85483338156971" lon="18.918483197876714"><ele>700.0</ele><time>2026-05-03T09:32:06Z</time></trkpt><trkpt lat="42.85480214927265" lon="18.91873289149684"><ele>700.0</ele><time>2026-05-03T09:32:07Z</time></trkpt><trkpt lat="42.854755196906304" lon="18.9189810103528"><ele>700.0</ele><time>2026-05-03T09:32:08Z</time></trkpt><trkpt lat="42.85470777228425" lon="18.91924148352197"><ele>700.0</ele><time>2026-05-03T09:32:09Z</time></trkpt><trkpt lat="42.85466153974656" lon="18.91950163259295"><ele>702.0</ele><time>2026-05-03T09:32:10Z</time></trkpt><trkpt lat="42.85461249492403" lon="18.919759314629037"><ele>704.0</ele><time>2026-05-03T09:32:11Z</time></trkpt><trkpt lat="42.85456524095234" lon="18.920020127892144"><ele>706.0</ele><time>2026-05-03T09:32:12Z</time></trkpt><trkpt lat="42.8545183030747" lon="18.92028706463969"><ele>710.6666666666667</ele><time>2026-05-03T09:32:13Z</time></trkpt><trkpt lat="42.85447300911658" lon="18.92055111583815"><ele>715.3333333333334</ele><time>2026-05-03T09:32:14Z</time></trkpt><trkpt lat="42.85443391201455" lon="18.920818399565164"><ele>720.0</ele><time>2026-05-03T09:32:15Z</time></trkpt><trkpt lat="42.854407883148404" lon="18.921087403159373"><ele>720.0</ele><time>2026-05-03T09:32:16Z</time></trkpt><trkpt lat="42.85440020655435" lon="18.92135472175632"><ele>720.0</ele><time>2026-05-03T09:32:17Z</time></trkpt><trkpt lat="42.85439765338497" lon="18.921637118423952"><ele>720.0</ele><time>2026-05-03T09:32:18Z</time></trkpt><trkpt lat="42.85441640429489" lon="18.921916075234847"><ele>717.3333333333334</ele><time>2026-05-03T09:32:19Z</time></trkpt><trkpt lat="42.8544455645067" lon="18.922202843025076"><ele>714.6666666666667</ele><time>2026-05-03T09:32:20Z</time></trkpt><trkpt lat="42.8544877038934" lon="18.922486712641827"><ele>712.0</ele><time>2026-05-03T09:32:21Z</time></trkpt><trkpt lat="42.854546262237854" lon="18.922768460398437"><ele>710.6666666666667</ele><time>2026-05-03T09:32:22Z</time></trkpt><trkpt lat="42.85461839293298" lon="18.9230487477111"><ele>709.3333333333334</ele><time>2026-05-03T09:32:23Z</time></trkpt><trkpt lat="42.854704561808774" lon="18.923329031416692"><ele>708.0</ele><time>2026-05-03T09:32:24Z</time></trkpt><trkpt lat="42.85480455598952" lon="18.92360702855908"><ele>704.5</ele><time>2026-05-03T09:32:25Z</time></trkpt><trkpt lat="42.85491237998578" lon="18.92388003847781"><ele>701.0</ele><time>2026-05-03T09:32:26Z</time></trkpt><trkpt lat="42.85502726988605" lon="18.924147703895503"><ele>702.3333333333333</ele><time>2026-05-03T09:32:27Z</time></trkpt><trkpt lat="42.85513705275374" lon="18.924404500752985"><ele>703.6666666666666</ele><time>2026-05-03T09:32:28Z</time></trkpt><trkpt lat="42.85524177069444" lon="18.924659025431332"><ele>705.0</ele><time>2026-05-03T09:32:29Z</time></trkpt><trkpt lat="42.85534421896853" lon="18.92491337626209"><ele>704.6666666666666</ele><time>2026-05-03T09:32:30Z</time></trkpt><trkpt lat="42.85544420338805" lon="18.92516174608509"><ele>704.3333333333333</ele><time>2026-05-03T09:32:31Z</time></trkpt><trkpt lat="42.855541563660175" lon="18.925398808527696"><ele>704.0</ele><time>2026-05-03T09:32:32Z</time></trkpt><trkpt lat="42.85564170226258" lon="18.925640280856406"><ele>704.0</ele><time>2026-05-03T09:32:33Z</time></trkpt><trkpt lat="42.855744837080145" lon="18.9258871969114"><ele>704.0</ele><time>2026-05-03T09:32:34Z</time></trkpt><trkpt lat="42.85584802241286" lon="18.926134001201778"><ele>704.0</ele><time>2026-05-03T09:32:35Z</time></trkpt><trkpt lat="42.855944964675615" lon="18.926374176526465"><ele>704.6666666666666</ele><time>2026-05-03T09:32:36Z</time></trkpt><trkpt lat="42.85604696218473" lon="18.92662121870375"><ele>705.3333333333334</ele><time>2026-05-03T09:32:37Z</time></trkpt><trkpt lat="42.856152714482356" lon="18.92687324000926"><ele>706.0</ele><time>2026-05-03T09:32:38Z</time></trkpt><trkpt lat="42.856259912876524" lon="18.927126740760293"><ele>707.6666666666667</ele><time>2026-05-03T09:32:39Z</time></trkpt><trkpt lat="42.856365071563886" lon="18.927378227244656"><ele>709.3333333333334</ele><time>2026-05-03T09:32:40Z</time></trkpt><trkpt lat="42.856466643276875" lon="18.927628638398364"><ele>711.0</ele><time>2026-05-03T09:32:41Z</time></trkpt><trkpt lat="42.856566269285594" lon="18.92787295664812"><ele>712.0</ele><time>2026-05-03T09:32:42Z</time></trkpt><trkpt lat="42.85666718178341" lon="18.92810965885496"><ele>713.0</ele><time>2026-05-03T09:32:43Z</time></trkpt><trkpt lat="42.85676517546297" lon="18.928343857550175"><ele>714.0</ele><time>2026-05-03T09:32:44Z</time></trkpt><trkpt lat="42.85686186632563" lon="18.92857601861134"><ele>716.3333333333334</ele><time>2026-05-03T09:32:45Z</time></trkpt><trkpt lat="42.85695800311814" lon="18.928809349245906"><ele>718.6666666666667</ele><time>2026-05-03T09:32:46Z</time></trkpt><trkpt lat="42.85705417693658" lon="18.929047402842833"><ele>721.0</ele><time>2026-05-03T09:32:47Z</time></trkpt><trkpt lat="42.857149791263026" lon="18.92928908197173"><ele>721.0</ele><time>2026-05-03T09:32:48Z</time></trkpt><trkpt lat="42.85724799140546" lon="18.929533309574413"><ele>721.0</ele><time>2026-05-03T09:32:49Z</time></trkpt><trkpt lat="42.85734970872568" lon="18.929780513987723"><ele>721.0</ele><time>2026-05-03T09:32:50Z</time></trkpt><trkpt lat="42.85745608434262" lon="18.93003412914892"><ele>721.6666666666667</ele><time>2026-05-03T09:32:51Z</time></trkpt><trkpt lat="42.85756138335149" lon="18.930287049844292"><ele>722.3333333333334</ele><time>2026-05-03T09:32:52Z</time></trkpt><trkpt lat="42.857666682385364" lon="18.93054514340781"><ele>723.0</ele><time>2026-05-03T09:32:53Z</time></trkpt><trkpt lat="42.85777301775704" lon="18.930804547926005"><ele>721.3333333333334</ele><time>2026-05-03T09:32:54Z</time></trkpt><trkpt lat="42.85788386648855" lon="18.9310669722145"><ele>719.6666666666667</ele><time>2026-05-03T09:32:55Z</time></trkpt><trkpt lat="42.85799094720762" lon="18.93132078695722"><ele>718.0</ele><time>2026-05-03T09:32:56Z</time></trkpt><trkpt lat="42.85809371995324" lon="18.931568704350145"><ele>717.6666666666667</ele><time>2026-05-03T09:32:57Z</time></trkpt><trkpt lat="42.85819379018261" lon="18.931812829547894"><ele>717.3333333333334</ele><time>2026-05-03T09:32:58Z</time></trkpt><trkpt lat="42.858287653802144" lon="18.932050723374676"><ele>717.0</ele><time>2026-05-03T09:32:59Z</time></trkpt><trkpt lat="42.858380514000324" lon="18.932280022333806"><ele>719.0</ele><time>2026-05-03T09:33:00Z</time></trkpt><trkpt lat="42.85847675485691" lon="18.93251371096432"><ele>721.0</ele><time>2026-05-03T09:33:01Z</time></trkpt><trkpt lat="42.8585751083806" lon="18.93275029652854"><ele>723.0</ele><time>2026-05-03T09:33:02Z</time></trkpt><trkpt lat="42.858673229252595" lon="18.93298650387975"><ele>723.0</ele><time>2026-05-03T09:33:03Z</time></trkpt><trkpt lat="42.858780581075116" lon="18.933222828146732"><ele>723.0</ele><time>2026-05-03T09:33:04Z</time></trkpt><trkpt lat="42.858893387774" lon="18.933457608010936"><ele>723.0</ele><time>2026-05-03T09:33:05Z</time></trkpt><trkpt lat="42.85901148880003" lon="18.933682606554292"><ele>722.3333333333334</ele><time>2026-05-03T09:33:06Z</time></trkpt><trkpt lat="42.85913569033763" lon="18.93390299689757"><ele>721.6666666666667</ele><time>2026-05-03T09:33:07Z</time></trkpt><trkpt lat="42.85927129327632" lon="18.934115383760552"><ele>721.0</ele><time>2026-05-03T09:33:08Z</time></trkpt><trkpt lat="42.85941437742352" lon="18.934315748123076"><ele>721.0</ele><time>2026-05-03T09:33:09Z</time></trkpt><trkpt lat="42.85956849268851" lon="18.934502367782827"><ele>721.0</ele><time>2026-05-03T09:33:10Z</time></trkpt><trkpt lat="42.85973418241507" lon="18.934670098265855"><ele>721.0</ele><time>2026-05-03T09:33:11Z</time></trkpt><trkpt lat="42.85990518712884" lon="18.934817590472523"><ele>721.0</ele><time>2026-05-03T09:33:12Z</time></trkpt><trkpt lat="42.860084878767424" lon="18.934947000857914"><ele>721.0</ele><time>2026-05-03T09:33:13Z</time></trkpt><trkpt lat="42.860273090505494" lon="18.93505396862106"><ele>721.0</ele><time>2026-05-03T09:33:14Z</time></trkpt><trkpt lat="42.86046690504832" lon="18.935143298963983"><ele>720.0</ele><time>2026-05-03T09:33:15Z</time></trkpt><trkpt lat="42.86066226667056" lon="18.93521597169913"><ele>719.0</ele><time>2026-05-03T09:33:16Z</time></trkpt><trkpt lat="42.860857623063026" lon="18.93527068899694"><ele>718.0</ele><time>2026-05-03T09:33:17Z</time></trkpt><trkpt lat="42.86105507992906" lon="18.935303768308213"><ele>718.0</ele><time>2026-05-03T09:33:18Z</time></trkpt><trkpt lat="42.86125160294023" lon="18.93531618992576"><ele>718.0</ele><time>2026-05-03T09:33:19Z</time></trkpt><trkpt lat="42.86144705186874" lon="18.93531229121292"><ele>718.0</ele><time>2026-05-03T09:33:20Z</time></trkpt><trkpt lat="42.86164209685946" lon="18.935287230807774"><ele>720.0</ele><time>2026-05-03T09:33:21Z</time></trkpt><trkpt lat="42.861832087623156" lon="18.93524610635788"><ele>722.0</ele><time>2026-05-03T09:33:22Z</time></trkpt><trkpt lat="42.86201674872003" lon="18.9351881529263"><ele>724.0</ele><time>2026-05-03T09:33:23Z</time></trkpt><trkpt lat="42.86220084231658" lon="18.935115727709285"><ele>725.6666666666667</ele><time>2026-05-03T09:33:24Z</time></trkpt><trkpt lat="42.862381456264416" lon="18.935038529767414"><ele>727.3333333333334</ele><time>2026-05-03T09:33:25Z</time></trkpt><trkpt lat="42.86255714377924" lon="18.93495449573779"><ele>729.0</ele><time>2026-05-03T09:33:26Z</time></trkpt><trkpt lat="42.8627360492996" lon="18.934864962388612"><ele>730.0</ele><time>2026-05-03T09:33:27Z</time></trkpt><trkpt lat="42.862921762146485" lon="18.934768258090013"><ele>731.0</ele><time>2026-05-03T09:33:28Z</time></trkpt><trkpt lat="42.86311394349105" lon="18.934664166562268"><ele>732.0</ele><time>2026-05-03T09:33:29Z</time></trkpt><trkpt lat="42.8633096627763" lon="18.934553876584328"><ele>733.3333333333334</ele><time>2026-05-03T09:33:30Z</time></trkpt><trkpt lat="42.86350407737718" lon="18.934444513941063"><ele>734.6666666666667</ele><time>2026-05-03T09:33:31Z</time></trkpt><trkpt lat="42.86369736603587" lon="18.934333335428782"><ele>736.0</ele><time>2026-05-03T09:33:32Z</time></trkpt><trkpt lat="42.86388372703955" lon="18.93422653786692"><ele>737.3333333333334</ele><time>2026-05-03T09:33:33Z</time></trkpt><trkpt lat="42.86407505915123" lon="18.934120136377665"><ele>738.6666666666666</ele><time>2026-05-03T09:33:34Z</time></trkpt><trkpt lat="42.864265952572424" lon="18.934018806474572"><ele>740.0</ele><time>2026-05-03T09:33:35Z</time></trkpt><trkpt lat="42.864452817536815" lon="18.933910796793402"><ele>740.3333333333333</ele><time>2026-05-03T09:33:36Z</time></trkpt><trkpt lat="42.864618523397354" lon="18.93380394368869"><ele>740.6666666666666</ele><time>2026-05-03T09:33:37Z</time></trkpt><trkpt lat="42.86479227541846" lon="18.933701688166902"><ele>741.0</ele><time>2026-05-03T09:33:38Z</time></trkpt><trkpt lat="42.86500667054005" lon="18.933581229394125"><ele>739.3333333333334</ele><time>2026-05-03T09:33:39Z</time></trkpt><trkpt lat="42.865218514793604" lon="18.93346777161937"><ele>737.6666666666667</ele><time>2026-05-03T09:33:40Z</time></trkpt><trkpt lat="42.86542470858457" lon="18.933363724862946"><ele>736.0</ele><time>2026-05-03T09:33:41Z</time></trkpt><trkpt lat="42.86562742687194" lon="18.93327693400993"><ele>736.0</ele><time>2026-05-03T09:33:42Z</time></trkpt><trkpt lat="42.865824864222425" lon="18.93321065211465"><ele>736.0</ele><time>2026-05-03T09:33:43Z</time></trkpt><trkpt lat="42.86602635930127" lon="18.933161349260065"><ele>736.0</ele><time>2026-05-03T09:33:44Z</time></trkpt><trkpt lat="42.866217918796636" lon="18.93313095912363"><ele>738.0</ele><time>2026-05-03T09:33:45Z</time></trkpt><trkpt lat="42.866403530207855" lon="18.93312925465455"><ele>740.0</ele><time>2026-05-03T09:33:46Z</time></trkpt><trkpt lat="42.86659083221867" lon="18.933136968856687"><ele>742.0</ele><time>2026-05-03T09:33:47Z</time></trkpt><trkpt lat="42.866773400418126" lon="18.933164886782542"><ele>745.0</ele><time>2026-05-03T09:33:48Z</time></trkpt><trkpt lat="42.86694624876377" lon="18.933202376738635"><ele>748.0</ele><time>2026-05-03T09:33:49Z</time></trkpt><trkpt lat="42.86711407409834" lon="18.9332470913227"><ele>751.0</ele><time>2026-05-03T09:33:50Z</time></trkpt><trkpt lat="42.867285908931116" lon="18.933308836826733"><ele>748.6666666666667</ele><time>2026-05-03T09:33:51Z</time></trkpt><trkpt lat="42.86746235212729" lon="18.933395963215553"><ele>746.3333333333334</ele><time>2026-05-03T09:33:52Z</time></trkpt><trkpt lat="42.867636969890505" lon="18.933502517204094"><ele>744.0</ele><time>2026-05-03T09:33:53Z</time></trkpt><trkpt lat="42.867804899321285" lon="18.933616266748224"><ele>744.0</ele><time>2026-05-03T09:33:54Z</time></trkpt><trkpt lat="42.8679695202144" lon="18.933734250255444"><ele>744.0</ele><time>2026-05-03T09:33:55Z</time></trkpt><trkpt lat="42.86813603978852" lon="18.93385777005558"><ele>744.0</ele><time>2026-05-03T09:33:56Z</time></trkpt><trkpt lat="42.8683057699701" lon="18.933990333673226"><ele>743.6666666666666</ele><time>2026-05-03T09:33:57Z</time></trkpt><trkpt lat="42.868470514229436" lon="18.934123445802904"><ele>743.3333333333333</ele><time>2026-05-03T09:33:58Z</time></trkpt><trkpt lat="42.86863834708951" lon="18.93425960671547"><ele>743.0</ele><time>2026-05-03T09:33:59Z</time></trkpt><trkpt lat="42.86880680149321" lon="18.934397070894377"><ele>743.0</ele><time>2026-05-03T09:34:00Z</time></trkpt><trkpt lat="42.86897954501855" lon="18.934538449360364"><ele>743.0</ele><time>2026-05-03T09:34:01Z</time></trkpt><trkpt lat="42.86915760671624" lon="18.934682237394885"><ele>743.0</ele><time>2026-05-03T09:34:02Z</time></trkpt><trkpt lat="42.86934829005661" lon="18.934837328171554"><ele>744.5</ele><time>2026-05-03T09:34:03Z</time></trkpt><trkpt lat="42.869555885102066" lon="18.93499968151502"><ele>746.0</ele><time>2026-05-03T09:34:04Z</time></trkpt><trkpt lat="42.86975984986884" lon="18.9351569329222"><ele>746.0</ele><time>2026-05-03T09:34:05Z</time></trkpt><trkpt lat="42.86995586686353" lon="18.93531169001296"><ele>746.0</ele><time>2026-05-03T09:34:06Z</time></trkpt><trkpt lat="42.87013442998965" lon="18.935459081829144"><ele>746.0</ele><time>2026-05-03T09:34:07Z</time></trkpt><trkpt lat="42.870312492450154" lon="18.93560435154484"><ele>746.0</ele><time>2026-05-03T09:34:08Z</time></trkpt><trkpt lat="42.87049035701784" lon="18.935749083203792"><ele>746.0</ele><time>2026-05-03T09:34:09Z</time></trkpt><trkpt lat="42.870666641403034" lon="18.935892889401934"><ele>746.0</ele><time>2026-05-03T09:34:10Z</time></trkpt><trkpt lat="42.87084737512407" lon="18.936037397823245"><ele>754.0</ele><time>2026-05-03T09:34:11Z</time></trkpt><trkpt lat="42.87102499311916" lon="18.936174432304217"><ele>762.0</ele><time>2026-05-03T09:34:12Z</time></trkpt><trkpt lat="42.87121727504784" lon="18.936310492468667"><ele>770.0</ele><time>2026-05-03T09:34:13Z</time></trkpt><trkpt lat="42.87142121313677" lon="18.93643164882095"><ele>770.0</ele><time>2026-05-03T09:34:14Z</time></trkpt><trkpt lat="42.8716338082077" lon="18.93653615022274"><ele>770.0</ele><time>2026-05-03T09:34:15Z</time></trkpt><trkpt lat="42.871842510800775" lon="18.936626268981147"><ele>770.0</ele><time>2026-05-03T09:34:16Z</time></trkpt><trkpt lat="42.87204897249426" lon="18.936709875474524"><ele>767.3333333333334</ele><time>2026-05-03T09:34:17Z</time></trkpt><trkpt lat="42.87225483463918" lon="18.936797760430576"><ele>764.6666666666667</ele><time>2026-05-03T09:34:18Z</time></trkpt><trkpt lat="42.87244505520316" lon="18.936896640600935"><ele>762.0</ele><time>2026-05-03T09:34:19Z</time></trkpt><trkpt lat="42.8726407585125" lon="18.937010754425362"><ele>771.0</ele><time>2026-05-03T09:34:20Z</time></trkpt><trkpt lat="42.87282237788003" lon="18.93714228841299"><ele>780.0</ele><time>2026-05-03T09:34:21Z</time></trkpt><trkpt lat="42.872993161944386" lon="18.937296799700423"><ele>789.0</ele><time>2026-05-03T09:34:22Z</time></trkpt><trkpt lat="42.87316235225174" lon="18.937463863219914"><ele>788.6666666666667</ele><time>2026-05-03T09:34:23Z</time></trkpt><trkpt lat="42.87333102834391" lon="18.937634770863063"><ele>788.3333333333334</ele><time>2026-05-03T09:34:24Z</time></trkpt><trkpt lat="42.873506674301936" lon="18.937801374741902"><ele>788.0</ele><time>2026-05-03T09:34:25Z</time></trkpt><trkpt lat="42.873692202647554" lon="18.937960711187213"><ele>788.0</ele><time>2026-05-03T09:34:26Z</time></trkpt><trkpt lat="42.873894639442064" lon="18.938104119145482"><ele>788.0</ele><time>2026-05-03T09:34:27Z</time></trkpt><trkpt lat="42.87412532069224" lon="18.93822913773496"><ele>783.0</ele><time>2026-05-03T09:34:28Z</time></trkpt><trkpt lat="42.87437399297296" lon="18.93834332378802"><ele>778.0</ele><time>2026-05-03T09:34:29Z</time></trkpt><trkpt lat="42.874621489738196" lon="18.938455311443327"><ele>778.0</ele><time>2026-05-03T09:34:30Z</time></trkpt><trkpt lat="42.874855363987606" lon="18.938579640387754"><ele>778.0</ele><time>2026-05-03T09:34:31Z</time></trkpt><trkpt lat="42.875087341298794" lon="18.93871896935155"><ele>792.0</ele><time>2026-05-03T09:34:32Z</time></trkpt><trkpt lat="42.87532198756082" lon="18.938863224852017"><ele>806.0</ele><time>2026-05-03T09:34:33Z</time></trkpt><trkpt lat="42.87555613023961" lon="18.938994635205407"><ele>806.0</ele><time>2026-05-03T09:34:34Z</time></trkpt><trkpt lat="42.87578668113995" lon="18.939111375369286"><ele>806.0</ele><time>2026-05-03T09:34:35Z</time></trkpt><trkpt lat="42.87601890064326" lon="18.939227158564197"><ele>800.0</ele><time>2026-05-03T09:34:36Z</time></trkpt><trkpt lat="42.876249076279244" lon="18.939343534395796"><ele>794.0</ele><time>2026-05-03T09:34:37Z</time></trkpt><trkpt lat="42.87647486406568" lon="18.939461299408343"><ele>794.0</ele><time>2026-05-03T09:34:38Z</time></trkpt><trkpt lat="42.87670452610874" lon="18.93957943648874"><ele>794.0</ele><time>2026-05-03T09:34:39Z</time></trkpt><trkpt lat="42.876939982516404" lon="18.93969636418211"><ele>804.0</ele><time>2026-05-03T09:34:40Z</time></trkpt><trkpt lat="42.877176080312935" lon="18.939818705891057"><ele>814.0</ele><time>2026-05-03T09:34:41Z</time></trkpt><trkpt lat="42.87740543494809" lon="18.93994457997219"><ele>812.5</ele><time>2026-05-03T09:34:42Z</time></trkpt><trkpt lat="42.877636700918146" lon="18.940076490072222"><ele>811.0</ele><time>2026-05-03T09:34:43Z</time></trkpt><trkpt lat="42.87787436587905" lon="18.94021456605843"><ele>811.0</ele><time>2026-05-03T09:34:44Z</time></trkpt><trkpt lat="42.87810300124086" lon="18.94037099796562"><ele>811.0</ele><time>2026-05-03T09:34:45Z</time></trkpt><trkpt lat="42.87831059897864" lon="18.940554864308915"><ele>815.0</ele><time>2026-05-03T09:34:46Z</time></trkpt><trkpt lat="42.87850244084093" lon="18.94076698453236"><ele>819.0</ele><time>2026-05-03T09:34:47Z</time></trkpt><trkpt lat="42.87867836315829" lon="18.94100440609282"><ele>819.0</ele><time>2026-05-03T09:34:48Z</time></trkpt><trkpt lat="42.878844184161814" lon="18.94124369351347"><ele>819.0</ele><time>2026-05-03T09:34:49Z</time></trkpt><trkpt lat="42.87901461143397" lon="18.941480638607203"><ele>819.0</ele><time>2026-05-03T09:34:50Z</time></trkpt><trkpt lat="42.87919659519687" lon="18.941701616587295"><ele>819.0</ele><time>2026-05-03T09:34:51Z</time></trkpt><trkpt lat="42.8793863021352" lon="18.941905198825296"><ele>819.0</ele><time>2026-05-03T09:34:52Z</time></trkpt><trkpt lat="42.879596625624856" lon="18.94209141169122"><ele>819.0</ele><time>2026-05-03T09:34:53Z</time></trkpt><trkpt lat="42.879810373802634" lon="18.942260189016256"><ele>819.0</ele><time>2026-05-03T09:34:54Z</time></trkpt><trkpt lat="42.88002175559805" lon="18.942426515023776"><ele>819.0</ele><time>2026-05-03T09:34:55Z</time></trkpt><trkpt lat="42.88021847068855" lon="18.942611713803647"><ele>823.6666666666667</ele><time>2026-05-03T09:34:56Z</time></trkpt><trkpt lat="42.88039094792799" lon="18.942815796850784"><ele>828.3333333333334</ele><time>2026-05-03T09:34:57Z</time></trkpt><trkpt lat="42.88053080676544" lon="18.943031247241326"><ele>833.0</ele><time>2026-05-03T09:34:58Z</time></trkpt><trkpt lat="42.8806427187651" lon="18.94327924897707"><ele>829.0</ele><time>2026-05-03T09:34:59Z</time></trkpt><trkpt lat="42.88074794166277" lon="18.943539001274463"><ele>825.0</ele><time>2026-05-03T09:35:00Z</time></trkpt><trkpt lat="42.88083371022517" lon="18.94380743256951"><ele>821.0</ele><time>2026-05-03T09:35:01Z</time></trkpt><trkpt lat="42.88090223301283" lon="18.944099472311535"><ele>833.0</ele><time>2026-05-03T09:35:02Z</time></trkpt><trkpt lat="42.88096853711644" lon="18.94437528099774"><ele>845.0</ele><time>2026-05-03T09:35:03Z</time></trkpt><trkpt lat="42.88103563154522" lon="18.94465464463518"><ele>857.0</ele><time>2026-05-03T09:35:04Z</time></trkpt><trkpt lat="42.88110155953663" lon="18.94493200763198"><ele>854.0</ele><time>2026-05-03T09:35:05Z</time></trkpt><trkpt lat="42.88116547725267" lon="18.945206078770198"><ele>851.0</ele><time>2026-05-03T09:35:06Z</time></trkpt><trkpt lat="42.88123260459363" lon="18.94548213859947"><ele>848.0</ele><time>2026-05-03T09:35:07Z</time></trkpt><trkpt lat="42.881306394303266" lon="18.945759046011606"><ele>843.6666666666667</ele><time>2026-05-03T09:35:08Z</time></trkpt><trkpt lat="42.88139622969654" lon="18.946025497732123"><ele>839.3333333333333</ele><time>2026-05-03T09:35:09Z</time></trkpt><trkpt lat="42.88150056809531" lon="18.946278790763497"><ele>835.0</ele><time>2026-05-03T09:35:10Z</time></trkpt><trkpt lat="42.88161703402286" lon="18.94652367783199"><ele>840.0</ele><time>2026-05-03T09:35:11Z</time></trkpt><trkpt lat="42.88174605060733" lon="18.946752465812786"><ele>845.0</ele><time>2026-05-03T09:35:12Z</time></trkpt><trkpt lat="42.88188720739144" lon="18.946971567784374"><ele>850.0</ele><time>2026-05-03T09:35:13Z</time></trkpt><trkpt lat="42.882041760038916" lon="18.947176543278687"><ele>850.0</ele><time>2026-05-03T09:35:14Z</time></trkpt><trkpt lat="42.88220437964669" lon="18.947377970673678"><ele>850.0</ele><time>2026-05-03T09:35:15Z</time></trkpt><trkpt lat="42.88237399040977" lon="18.947576007156755"><ele>850.0</ele><time>2026-05-03T09:35:16Z</time></trkpt><trkpt lat="42.882537462802716" lon="18.947770803179935"><ele>855.6666666666666</ele><time>2026-05-03T09:35:17Z</time></trkpt><trkpt lat="42.8827002078587" lon="18.94797062810911"><ele>861.3333333333333</ele><time>2026-05-03T09:35:18Z</time></trkpt><trkpt lat="42.88286269727472" lon="18.948170587601773"><ele>867.0</ele><time>2026-05-03T09:35:19Z</time></trkpt><trkpt lat="42.88302540229762" lon="18.94836994256127"><ele>871.3333333333333</ele><time>2026-05-03T09:35:20Z</time></trkpt><trkpt lat="42.88318330700091" lon="18.94856861033756"><ele>875.6666666666666</ele><time>2026-05-03T09:35:21Z</time></trkpt><trkpt lat="42.88334354724373" lon="18.948763233420813"><ele>880.0</ele><time>2026-05-03T09:35:22Z</time></trkpt><trkpt lat="42.88350501206446" lon="18.948956263957054"><ele>880.0</ele><time>2026-05-03T09:35:23Z</time></trkpt><trkpt lat="42.88366319441882" lon="18.949144633693326"><ele>880.0</ele><time>2026-05-03T09:35:24Z</time></trkpt><trkpt lat="42.883821080580105" lon="18.949343979891335"><ele>880.0</ele><time>2026-05-03T09:35:25Z</time></trkpt><trkpt lat="42.88398253565305" lon="18.94954405863945"><ele>875.0</ele><time>2026-05-03T09:35:26Z</time></trkpt><trkpt lat="42.88414825201778" lon="18.94974530297667"><ele>870.0</ele><time>2026-05-03T09:35:27Z</time></trkpt><trkpt lat="42.88431496734939" lon="18.949949459261493"><ele>865.0</ele><time>2026-05-03T09:35:28Z</time></trkpt><trkpt lat="42.88448020004017" lon="18.950151762452357"><ele>865.0</ele><time>2026-05-03T09:35:29Z</time></trkpt><trkpt lat="42.88464884798751" lon="18.950359147872927"><ele>865.0</ele><time>2026-05-03T09:35:30Z</time></trkpt><trkpt lat="42.884815447697015" lon="18.95056274907537"><ele>865.0</ele><time>2026-05-03T09:35:31Z</time></trkpt><trkpt lat="42.88498369870345" lon="18.95076668403298"><ele>865.0</ele><time>2026-05-03T09:35:32Z</time></trkpt><trkpt lat="42.885149436859415" lon="18.950970917084163"><ele>865.0</ele><time>2026-05-03T09:35:33Z</time></trkpt><trkpt lat="42.885312975486805" lon="18.951173817796626"><ele>866.6666666666666</ele><time>2026-05-03T09:35:34Z</time></trkpt><trkpt lat="42.88546782830305" lon="18.951381668682476"><ele>868.3333333333333</ele><time>2026-05-03T09:35:35Z</time></trkpt><trkpt lat="42.88560664476322" lon="18.951607208762088"><ele>870.0</ele><time>2026-05-03T09:35:36Z</time></trkpt><trkpt lat="42.88572780199095" lon="18.95184657566131"><ele>870.0</ele><time>2026-05-03T09:35:37Z</time></trkpt><trkpt lat="42.885832879901756" lon="18.952102511567364"><ele>870.0</ele><time>2026-05-03T09:35:38Z</time></trkpt><trkpt lat="42.88592791728537" lon="18.952372057604112"><ele>870.0</ele><time>2026-05-03T09:35:39Z</time></trkpt><trkpt lat="42.88599978572346" lon="18.952650188122387"><ele>879.0</ele><time>2026-05-03T09:35:40Z</time></trkpt><trkpt lat="42.88606160420104" lon="18.952938162332693"><ele>888.0</ele><time>2026-05-03T09:35:41Z</time></trkpt><trkpt lat="42.88612387226529" lon="18.953215274620536"><ele>897.0</ele><time>2026-05-03T09:35:42Z</time></trkpt><trkpt lat="42.88619411579913" lon="18.95349199792691"><ele>897.0</ele><time>2026-05-03T09:35:43Z</time></trkpt><trkpt lat="42.886274101778305" lon="18.95376631754884"><ele>897.0</ele><time>2026-05-03T09:35:44Z</time></trkpt><trkpt lat="42.88636846594029" lon="18.95402976370835"><ele>897.0</ele><time>2026-05-03T09:35:45Z</time></trkpt><trkpt lat="42.88647723413363" lon="18.954283462745682"><ele>891.0</ele><time>2026-05-03T09:35:46Z</time></trkpt><trkpt lat="42.88660613605279" lon="18.954525133300944"><ele>885.0</ele><time>2026-05-03T09:35:47Z</time></trkpt><trkpt lat="42.886743864512404" lon="18.954764259148963"><ele>879.0</ele><time>2026-05-03T09:35:48Z</time></trkpt><trkpt lat="42.88688608262594" lon="18.955005318173207"><ele>889.0</ele><time>2026-05-03T09:35:49Z</time></trkpt><trkpt lat="42.887023378041874" lon="18.955246152693324"><ele>899.0</ele><time>2026-05-03T09:35:50Z</time></trkpt><trkpt lat="42.88715546211269" lon="18.95548126975003"><ele>909.0</ele><time>2026-05-03T09:35:51Z</time></trkpt><trkpt lat="42.88728105710734" lon="18.95571578533982"><ele>902.3333333333333</ele><time>2026-05-03T09:35:52Z</time></trkpt><trkpt lat="42.88741370390535" lon="18.955962423965993"><ele>895.6666666666666</ele><time>2026-05-03T09:35:53Z</time></trkpt><trkpt lat="42.88754288926954" lon="18.95621110769162"><ele>889.0</ele><time>2026-05-03T09:35:54Z</time></trkpt><trkpt lat="42.8876626238241" lon="18.95646116443938"><ele>903.3333333333333</ele><time>2026-05-03T09:35:55Z</time></trkpt><trkpt lat="42.88777010116478" lon="18.956722424967133"><ele>917.6666666666667</ele><time>2026-05-03T09:35:56Z</time></trkpt><trkpt lat="42.887860334357164" lon="18.95699758492953"><ele>932.0</ele><time>2026-05-03T09:35:57Z</time></trkpt><trkpt lat="42.88792994311064" lon="18.957287747464385"><ele>929.0</ele><time>2026-05-03T09:35:58Z</time></trkpt><trkpt lat="42.88797973751133" lon="18.9575913493613"><ele>926.0</ele><time>2026-05-03T09:35:59Z</time></trkpt><trkpt lat="42.88800870651884" lon="18.957895006968442"><ele>926.0</ele><time>2026-05-03T09:36:00Z</time></trkpt><trkpt lat="42.88801972154996" lon="18.958198131250423"><ele>926.0</ele><time>2026-05-03T09:36:01Z</time></trkpt><trkpt lat="42.8880140366161" lon="18.958505563494043"><ele>926.0</ele><time>2026-05-03T09:36:02Z</time></trkpt><trkpt lat="42.888007100388585" lon="18.95880667891537"><ele>924.3333333333334</ele><time>2026-05-03T09:36:03Z</time></trkpt><trkpt lat="42.888009784188036" lon="18.95910362198603"><ele>922.6666666666667</ele><time>2026-05-03T09:36:04Z</time></trkpt><trkpt lat="42.88802392099292" lon="18.959398604548632"><ele>921.0</ele><time>2026-05-03T09:36:05Z</time></trkpt><trkpt lat="42.88805594614561" lon="18.95969326223817"><ele>917.0</ele><time>2026-05-03T09:36:06Z</time></trkpt><trkpt lat="42.88812638060674" lon="18.959964887438343"><ele>913.0</ele><time>2026-05-03T09:36:07Z</time></trkpt><trkpt lat="42.88822396442636" lon="18.960228966114023"><ele>909.0</ele><time>2026-05-03T09:36:08Z</time></trkpt><trkpt lat="42.888341339890786" lon="18.960472164811407"><ele>909.3333333333333</ele><time>2026-05-03T09:36:09Z</time></trkpt><trkpt lat="42.88848056384186" lon="18.9607061986631"><ele>909.6666666666666</ele><time>2026-05-03T09:36:10Z</time></trkpt><trkpt lat="42.88864073614521" lon="18.960915382770487"><ele>910.0</ele><time>2026-05-03T09:36:11Z</time></trkpt><trkpt lat="42.88882225827706" lon="18.96110304638462"><ele>905.5</ele><time>2026-05-03T09:36:12Z</time></trkpt><trkpt lat="42.8890201715666" lon="18.96125627607583"><ele>901.0</ele><time>2026-05-03T09:36:13Z</time></trkpt><trkpt lat="42.88923040154835" lon="18.961374082820484"><ele>902.0</ele><time>2026-05-03T09:36:14Z</time></trkpt><trkpt lat="42.889444694361046" lon="18.96145818465474"><ele>903.0</ele><time>2026-05-03T09:36:15Z</time></trkpt><trkpt lat="42.889657144653945" lon="18.961519437538065"><ele>904.0</ele><time>2026-05-03T09:36:16Z</time></trkpt><trkpt lat="42.8898636473798" lon="18.961563174426487"><ele>904.0</ele><time>2026-05-03T09:36:17Z</time></trkpt><trkpt lat="42.890062411329275" lon="18.9615957840025"><ele>904.0</ele><time>2026-05-03T09:36:18Z</time></trkpt><trkpt lat="42.89025764174506" lon="18.96162228887893"><ele>904.0</ele><time>2026-05-03T09:36:19Z</time></trkpt><trkpt lat="42.89044597365721" lon="18.96165257720947"><ele>903.3333333333333</ele><time>2026-05-03T09:36:20Z</time></trkpt><trkpt lat="42.890628020550594" lon="18.96168877068275"><ele>902.6666666666667</ele><time>2026-05-03T09:36:21Z</time></trkpt><trkpt lat="42.89080883867344" lon="18.961726883212652"><ele>902.0</ele><time>2026-05-03T09:36:22Z</time></trkpt><trkpt lat="42.89098582426263" lon="18.961770923785988"><ele>900.0</ele><time>2026-05-03T09:36:23Z</time></trkpt><trkpt lat="42.89116296512351" lon="18.96181980688947"><ele>898.0</ele><time>2026-05-03T09:36:24Z</time></trkpt><trkpt lat="42.89134204119093" lon="18.96187208749774"><ele>896.0</ele><time>2026-05-03T09:36:25Z</time></trkpt><trkpt lat="42.891520101798655" lon="18.961929754690736"><ele>896.0</ele><time>2026-05-03T09:36:26Z</time></trkpt><trkpt lat="42.89169621808535" lon="18.961990828610073"><ele>896.0</ele><time>2026-05-03T09:36:27Z</time></trkpt><trkpt lat="42.891862746763785" lon="18.962050120331405"><ele>896.0</ele><time>2026-05-03T09:36:28Z</time></trkpt><trkpt lat="42.89202124602644" lon="18.962107503424814"><ele>896.6666666666667</ele><time>2026-05-03T09:36:29Z</time></trkpt><trkpt lat="42.89218116525117" lon="18.962165879600786"><ele>897.3333333333333</ele><time>2026-05-03T09:36:30Z</time></trkpt><trkpt lat="42.89234688248026" lon="18.962228684847247"><ele>898.0</ele><time>2026-05-03T09:36:31Z</time></trkpt><trkpt lat="42.892512291471576" lon="18.962296730846102"><ele>898.3333333333333</ele><time>2026-05-03T09:36:32Z</time></trkpt><trkpt lat="42.89267831246916" lon="18.96236980004471"><ele>898.6666666666667</ele><time>2026-05-03T09:36:33Z</time></trkpt><trkpt lat="42.89284158249305" lon="18.96244498580057"><ele>899.0</ele><time>2026-05-03T09:36:34Z</time></trkpt><trkpt lat="42.8930077783276" lon="18.962525183995968"><ele>899.0</ele><time>2026-05-03T09:36:35Z</time></trkpt><trkpt lat="42.893180206736474" lon="18.962604959412833"><ele>899.0</ele><time>2026-05-03T09:36:36Z</time></trkpt><trkpt lat="42.8933575759692" lon="18.962687613503974"><ele>899.0</ele><time>2026-05-03T09:36:37Z</time></trkpt><trkpt lat="42.893537854095115" lon="18.962769901262842"><ele>899.0</ele><time>2026-05-03T09:36:38Z</time></trkpt><trkpt lat="42.8937155447848" lon="18.96285054163898"><ele>899.0</ele><time>2026-05-03T09:36:39Z</time></trkpt><trkpt lat="42.89389214140972" lon="18.962930438684598"><ele>899.0</ele><time>2026-05-03T09:36:40Z</time></trkpt><trkpt lat="42.89406829821007" lon="18.96301102858262"><ele>899.0</ele><time>2026-05-03T09:36:41Z</time></trkpt><trkpt lat="42.89424451732231" lon="18.963093795399587"><ele>899.0</ele><time>2026-05-03T09:36:42Z</time></trkpt><trkpt lat="42.89441503413989" lon="18.963177993164194"><ele>899.0</ele><time>2026-05-03T09:36:43Z</time></trkpt><trkpt lat="42.89458550805348" lon="18.963260152595076"><ele>899.6666666666667</ele><time>2026-05-03T09:36:44Z</time></trkpt><trkpt lat="42.8947574269601" lon="18.96333764652087"><ele>900.3333333333333</ele><time>2026-05-03T09:36:45Z</time></trkpt><trkpt lat="42.89492907899512" lon="18.963414589546264"><ele>901.0</ele><time>2026-05-03T09:36:46Z</time></trkpt><trkpt lat="42.89509520221211" lon="18.963491863690997"><ele>902.3333333333333</ele><time>2026-05-03T09:36:47Z</time></trkpt><trkpt lat="42.895260145815364" lon="18.96356868132951"><ele>903.6666666666667</ele><time>2026-05-03T09:36:48Z</time></trkpt><trkpt lat="42.89542778203647" lon="18.963647734429472"><ele>905.0</ele><time>2026-05-03T09:36:49Z</time></trkpt><trkpt lat="42.89559826798652" lon="18.963725975290618"><ele>905.0</ele><time>2026-05-03T09:36:50Z</time></trkpt><trkpt lat="42.8957659288597" lon="18.963798721928423"><ele>905.0</ele><time>2026-05-03T09:36:51Z</time></trkpt><trkpt lat="42.89593308535205" lon="18.963864327515832"><ele>905.0</ele><time>2026-05-03T09:36:52Z</time></trkpt><trkpt lat="42.896104659498825" lon="18.96392139565135"><ele>906.3333333333334</ele><time>2026-05-03T09:36:53Z</time></trkpt><trkpt lat="42.89628205963362" lon="18.963971513389797"><ele>907.6666666666667</ele><time>2026-05-03T09:36:54Z</time></trkpt><trkpt lat="42.89646702953582" lon="18.964013825067816"><ele>909.0</ele><time>2026-05-03T09:36:55Z</time></trkpt><trkpt lat="42.896655308820485" lon="18.96404251096355"><ele>909.3333333333333</ele><time>2026-05-03T09:36:56Z</time></trkpt><trkpt lat="42.89684005091994" lon="18.964056660222493"><ele>909.6666666666666</ele><time>2026-05-03T09:36:57Z</time></trkpt><trkpt lat="42.89702123143187" lon="18.96405951187554"><ele>910.0</ele><time>2026-05-03T09:36:58Z</time></trkpt><trkpt lat="42.89720198322302" lon="18.96405348419511"><ele>910.0</ele><time>2026-05-03T09:36:59Z</time></trkpt><trkpt lat="42.89737862937345" lon="18.964038773475842"><ele>910.0</ele><time>2026-05-03T09:37:00Z</time></trkpt><trkpt lat="42.89755896149397" lon="18.964018560613248"><ele>910.0</ele><time>2026-05-03T09:37:01Z</time></trkpt><trkpt lat="42.897737206151916" lon="18.96399427243997"><ele>912.0</ele><time>2026-05-03T09:37:02Z</time></trkpt><trkpt lat="42.89791645835254" lon="18.963957802384133"><ele>914.0</ele><time>2026-05-03T09:37:03Z</time></trkpt><trkpt lat="42.898094528786686" lon="18.963912803939685"><ele>916.0</ele><time>2026-05-03T09:37:04Z</time></trkpt><trkpt lat="42.898267975368526" lon="18.9638548380991"><ele>917.0</ele><time>2026-05-03T09:37:05Z</time></trkpt><trkpt lat="42.89844088460087" lon="18.96378235478184"><ele>918.0</ele><time>2026-05-03T09:37:06Z</time></trkpt><trkpt lat="42.89861338213787" lon="18.96369610827601"><ele>919.0</ele><time>2026-05-03T09:37:07Z</time></trkpt><trkpt lat="42.898791221860904" lon="18.963607868875435"><ele>919.0</ele><time>2026-05-03T09:37:08Z</time></trkpt><trkpt lat="42.8989750359156" lon="18.96350662522246"><ele>919.0</ele><time>2026-05-03T09:37:09Z</time></trkpt><trkpt lat="42.899165196280514" lon="18.96338597286681"><ele>919.0</ele><time>2026-05-03T09:37:10Z</time></trkpt><trkpt lat="42.89935340779559" lon="18.963240953058737"><ele>922.0</ele><time>2026-05-03T09:37:11Z</time></trkpt><trkpt lat="42.899544975728936" lon="18.96307714047671"><ele>925.0</ele><time>2026-05-03T09:37:12Z</time></trkpt><trkpt lat="42.89973655667216" lon="18.96289820221112"><ele>925.0</ele><time>2026-05-03T09:37:13Z</time></trkpt><trkpt lat="42.89992459836144" lon="18.962710311456757"><ele>925.0</ele><time>2026-05-03T09:37:14Z</time></trkpt><trkpt lat="42.90010674798511" lon="18.96250550845315"><ele>930.3333333333333</ele><time>2026-05-03T09:37:15Z</time></trkpt><trkpt lat="42.90027105762128" lon="18.962299892283045"><ele>935.6666666666667</ele><time>2026-05-03T09:37:16Z</time></trkpt><trkpt lat="42.90042537546252" lon="18.962090853012004"><ele>941.0</ele><time>2026-05-03T09:37:17Z</time></trkpt><trkpt lat="42.900567520984715" lon="18.961876380974953"><ele>938.3333333333334</ele><time>2026-05-03T09:37:18Z</time></trkpt><trkpt lat="42.90069932808512" lon="18.961648167340964"><ele>935.6666666666667</ele><time>2026-05-03T09:37:19Z</time></trkpt><trkpt lat="42.900819813753856" lon="18.961411620136747"><ele>933.0</ele><time>2026-05-03T09:37:20Z</time></trkpt><trkpt lat="42.90092784262319" lon="18.961172186493965"><ele>933.0</ele><time>2026-05-03T09:37:21Z</time></trkpt><trkpt lat="42.90103253496978" lon="18.96092930647979"><ele>933.0</ele><time>2026-05-03T09:37:22Z</time></trkpt><trkpt lat="42.90112721617341" lon="18.960686414547265"><ele>933.0</ele><time>2026-05-03T09:37:23Z</time></trkpt><trkpt lat="42.90121216492825" lon="18.96043765550884"><ele>933.0</ele><time>2026-05-03T09:37:24Z</time></trkpt><trkpt lat="42.901296804785474" lon="18.960162157498953"><ele>933.0</ele><time>2026-05-03T09:37:25Z</time></trkpt><trkpt lat="42.90137484143321" lon="18.959887022615124"><ele>933.0</ele><time>2026-05-03T09:37:26Z</time></trkpt><trkpt lat="42.90144162272265" lon="18.959610459765585"><ele>934.6666666666667</ele><time>2026-05-03T09:37:27Z</time></trkpt><trkpt lat="42.90149141591381" lon="18.95933937531869"><ele>936.3333333333334</ele><time>2026-05-03T09:37:28Z</time></trkpt><trkpt lat="42.90153308364496" lon="18.95906556887981"><ele>938.0</ele><time>2026-05-03T09:37:29Z</time></trkpt><trkpt lat="42.901566401353335" lon="18.958802981073102"><ele>940.0</ele><time>2026-05-03T09:37:30Z</time></trkpt><trkpt lat="42.90159759185709" lon="18.958538943963894"><ele>942.0</ele><time>2026-05-03T09:37:31Z</time></trkpt><trkpt lat="42.90162500990122" lon="18.958272151929414"><ele>944.0</ele><time>2026-05-03T09:37:32Z</time></trkpt><trkpt lat="42.90165735347865" lon="18.958013404679228"><ele>946.6666666666667</ele><time>2026-05-03T09:37:33Z</time></trkpt><trkpt lat="42.90168669625526" lon="18.957777783825957"><ele>949.3333333333333</ele><time>2026-05-03T09:37:34Z</time></trkpt><trkpt lat="42.901717945930486" lon="18.95754690422536"><ele>952.0</ele><time>2026-05-03T09:37:35Z</time></trkpt><trkpt lat="42.90174586800746" lon="18.957317740239837"><ele>955.3333333333333</ele><time>2026-05-03T09:37:36Z</time></trkpt><trkpt lat="42.9017849902254" lon="18.957090165500023"><ele>958.6666666666667</ele><time>2026-05-03T09:37:37Z</time></trkpt><trkpt lat="42.90183056460533" lon="18.956873486069778"><ele>962.0</ele><time>2026-05-03T09:37:38Z</time></trkpt><trkpt lat="42.9018836969965" lon="18.95664745354526"><ele>962.0</ele><time>2026-05-03T09:37:39Z</time></trkpt><trkpt lat="42.90193810712215" lon="18.956429766014008"><ele>962.0</ele><time>2026-05-03T09:37:40Z</time></trkpt><trkpt lat="42.90200477416511" lon="18.95620269036113"><ele>962.0</ele><time>2026-05-03T09:37:41Z</time></trkpt><trkpt lat="42.902085370697804" lon="18.955978554406965"><ele>961.6666666666667</ele><time>2026-05-03T09:37:42Z</time></trkpt><trkpt lat="42.902183978506876" lon="18.955760676081773"><ele>961.3333333333333</ele><time>2026-05-03T09:37:43Z</time></trkpt><trkpt lat="42.9022919849144" lon="18.95555061089095"><ele>961.0</ele><time>2026-05-03T09:37:44Z</time></trkpt><trkpt lat="42.90241097665031" lon="18.955347502133815"><ele>961.0</ele><time>2026-05-03T09:37:45Z</time></trkpt><trkpt lat="42.90254120503625" lon="18.955152970314277"><ele>961.0</ele><time>2026-05-03T09:37:46Z</time></trkpt><trkpt lat="42.902683311696535" lon="18.95496095198915"><ele>961.0</ele><time>2026-05-03T09:37:47Z</time></trkpt><trkpt lat="42.90283940949691" lon="18.954780946707306"><ele>965.6666666666666</ele><time>2026-05-03T09:37:48Z</time></trkpt><trkpt lat="42.90300985397061" lon="18.954608250670578"><ele>970.3333333333333</ele><time>2026-05-03T09:37:49Z</time></trkpt><trkpt lat="42.90318308865218" lon="18.95445183971247"><ele>975.0</ele><time>2026-05-03T09:37:50Z</time></trkpt><trkpt lat="42.903371868338844" lon="18.954306249546196"><ele>972.3333333333333</ele><time>2026-05-03T09:37:51Z</time></trkpt><trkpt lat="42.903558697524204" lon="18.954179374198777"><ele>969.6666666666666</ele><time>2026-05-03T09:37:52Z</time></trkpt><trkpt lat="42.903752603491604" lon="18.954079098015427"><ele>967.0</ele><time>2026-05-03T09:37:53Z</time></trkpt><trkpt lat="42.903954111052414" lon="18.95399459602238"><ele>967.0</ele><time>2026-05-03T09:37:54Z</time></trkpt><trkpt lat="42.90415687047835" lon="18.95392598087124"><ele>967.0</ele><time>2026-05-03T09:37:55Z</time></trkpt><trkpt lat="42.90436151574593" lon="18.953874339602486"><ele>967.0</ele><time>2026-05-03T09:37:56Z</time></trkpt><trkpt lat="42.90457165688965" lon="18.953835586727397"><ele>968.0</ele><time>2026-05-03T09:37:57Z</time></trkpt><trkpt lat="42.90477677557193" lon="18.95382243388891"><ele>969.0</ele><time>2026-05-03T09:37:58Z</time></trkpt><trkpt lat="42.90499049452393" lon="18.953829085975325"><ele>970.0</ele><time>2026-05-03T09:37:59Z</time></trkpt><trkpt lat="42.905208686199515" lon="18.953852114571998"><ele>970.0</ele><time>2026-05-03T09:38:00Z</time></trkpt><trkpt lat="42.905398582624755" lon="18.953891808252763"><ele>970.0</ele><time>2026-05-03T09:38:01Z</time></trkpt><trkpt lat="42.90559887927222" lon="18.9539335766938"><ele>970.0</ele><time>2026-05-03T09:38:02Z</time></trkpt><trkpt lat="42.905774346581175" lon="18.953978962741605"><ele>967.5</ele><time>2026-05-03T09:38:03Z</time></trkpt><trkpt lat="42.90596823298165" lon="18.954019885768965"><ele>965.0</ele><time>2026-05-03T09:38:04Z</time></trkpt><trkpt lat="42.90622854176602" lon="18.954037215303885"><ele>965.0</ele><time>2026-05-03T09:38:05Z</time></trkpt><trkpt lat="42.90644528733192" lon="18.95405631269158"><ele>965.0</ele><time>2026-05-03T09:38:06Z</time></trkpt><trkpt lat="42.906652902667645" lon="18.954066494678962"><ele>965.0</ele><time>2026-05-03T09:38:07Z</time></trkpt><trkpt lat="42.906863099023255" lon="18.95406657329566"><ele>966.6666666666667</ele><time>2026-05-03T09:38:08Z</time></trkpt><trkpt lat="42.90707744998671" lon="18.95404809359078"><ele>968.3333333333333</ele><time>2026-05-03T09:38:09Z</time></trkpt><trkpt lat="42.90729097980615" lon="18.95400087557178"><ele>970.0</ele><time>2026-05-03T09:38:10Z</time></trkpt><trkpt lat="42.907502701300594" lon="18.953917744421013"><ele>974.0</ele><time>2026-05-03T09:38:11Z</time></trkpt><trkpt lat="42.90771881098565" lon="18.953804435868765"><ele>978.0</ele><time>2026-05-03T09:38:12Z</time></trkpt><trkpt lat="42.907935506079276" lon="18.953677492832572"><ele>978.0</ele><time>2026-05-03T09:38:13Z</time></trkpt><trkpt lat="42.908148251591854" lon="18.953529535471567"><ele>978.0</ele><time>2026-05-03T09:38:14Z</time></trkpt><trkpt lat="42.90836212789174" lon="18.95336608391071"><ele>976.0</ele><time>2026-05-03T09:38:15Z</time></trkpt><trkpt lat="42.90859081961665" lon="18.953229963008862"><ele>974.0</ele><time>2026-05-03T09:38:16Z</time></trkpt><trkpt lat="42.90883075014042" lon="18.953101262423463"><ele>974.0</ele><time>2026-05-03T09:38:17Z</time></trkpt><trkpt lat="42.9090774640612" lon="18.952914000277975"><ele>974.0</ele><time>2026-05-03T09:38:18Z</time></trkpt><trkpt lat="42.909317808571345" lon="18.95273672730699"><ele>973.0</ele><time>2026-05-03T09:38:19Z</time></trkpt><trkpt lat="42.909532192589076" lon="18.952595549539854"><ele>972.0</ele><time>2026-05-03T09:38:20Z</time></trkpt><trkpt lat="42.909732608093165" lon="18.952465791072118"><ele>971.3333333333333</ele><time>2026-05-03T09:38:21Z</time></trkpt><trkpt lat="42.9099357351962" lon="18.952357810282297"><ele>970.6666666666666</ele><time>2026-05-03T09:38:22Z</time></trkpt><trkpt lat="42.910146568080265" lon="18.952278157002443"><ele>970.0</ele><time>2026-05-03T09:38:23Z</time></trkpt><trkpt lat="42.910360417631644" lon="18.95222141650023"><ele>972.3333333333333</ele><time>2026-05-03T09:38:24Z</time></trkpt><trkpt lat="42.91057619753173" lon="18.952191303130196"><ele>974.6666666666667</ele><time>2026-05-03T09:38:25Z</time></trkpt><trkpt lat="42.91078656575211" lon="18.952177356146034"><ele>977.0</ele><time>2026-05-03T09:38:26Z</time></trkpt><trkpt lat="42.91099917323876" lon="18.95217119537879"><ele>978.3333333333334</ele><time>2026-05-03T09:38:27Z</time></trkpt><trkpt lat="42.91120982060919" lon="18.952181712774397"><ele>979.6666666666667</ele><time>2026-05-03T09:38:28Z</time></trkpt><trkpt lat="42.911421075587796" lon="18.952213641015003"><ele>981.0</ele><time>2026-05-03T09:38:29Z</time></trkpt><trkpt lat="42.911627936766685" lon="18.952268130121833"><ele>982.0</ele><time>2026-05-03T09:38:30Z</time></trkpt><trkpt lat="42.91182812937896" lon="18.952343826447184"><ele>983.0</ele><time>2026-05-03T09:38:31Z</time></trkpt><trkpt lat="42.91203054992717" lon="18.952435239109317"><ele>984.0</ele><time>2026-05-03T09:38:32Z</time></trkpt><trkpt lat="42.91223536353607" lon="18.95252268380686"><ele>986.0</ele><time>2026-05-03T09:38:33Z</time></trkpt><trkpt lat="42.91244893110467" lon="18.95260528011403"><ele>988.0</ele><time>2026-05-03T09:38:34Z</time></trkpt><trkpt lat="42.91266248127813" lon="18.952668606377827"><ele>990.0</ele><time>2026-05-03T09:38:35Z</time></trkpt><trkpt lat="42.9128821256149" lon="18.952713757850574"><ele>990.0</ele><time>2026-05-03T09:38:36Z</time></trkpt><trkpt lat="42.913104110307614" lon="18.952736931698347"><ele>990.0</ele><time>2026-05-03T09:38:37Z</time></trkpt><trkpt lat="42.91332752676467" lon="18.952737217297788"><ele>990.0</ele><time>2026-05-03T09:38:38Z</time></trkpt><trkpt lat="42.91355172460936" lon="18.95271438471578"><ele>989.5</ele><time>2026-05-03T09:38:39Z</time></trkpt><trkpt lat="42.91377977175167" lon="18.952658264461018"><ele>989.0</ele><time>2026-05-03T09:38:40Z</time></trkpt><trkpt lat="42.914000441043186" lon="18.952571517485296"><ele>992.0</ele><time>2026-05-03T09:38:41Z</time></trkpt><trkpt lat="42.91421613060034" lon="18.95246006435553"><ele>995.0</ele><time>2026-05-03T09:38:42Z</time></trkpt><trkpt lat="42.91442806409996" lon="18.95232756320411"><ele>997.5</ele><time>2026-05-03T09:38:43Z</time></trkpt><trkpt lat="42.914631459616466" lon="18.952184857911003"><ele>1000.0</ele><time>2026-05-03T09:38:44Z</time></trkpt><trkpt lat="42.914834047563104" lon="18.952032738148468"><ele>1000.0</ele><time>2026-05-03T09:38:45Z</time></trkpt><trkpt lat="42.91503858618075" lon="18.951886051282127"><ele>1000.0</ele><time>2026-05-03T09:38:46Z</time></trkpt><trkpt lat="42.91524762022803" lon="18.95176238187123"><ele>1001.5</ele><time>2026-05-03T09:38:47Z</time></trkpt><trkpt lat="42.91546366336" lon="18.951658661048384"><ele>1003.0</ele><time>2026-05-03T09:38:48Z</time></trkpt><trkpt lat="42.915683006454785" lon="18.95157285843711"><ele>1003.0</ele><time>2026-05-03T09:38:49Z</time></trkpt><trkpt lat="42.915895358510106" lon="18.951500682030648"><ele>1003.0</ele><time>2026-05-03T09:38:50Z</time></trkpt><trkpt lat="42.91611141581795" lon="18.951441984779894"><ele>1003.0</ele><time>2026-05-03T09:38:51Z</time></trkpt><trkpt lat="42.91632712718371" lon="18.951396515053844"><ele>1003.6666666666666</ele><time>2026-05-03T09:38:52Z</time></trkpt><trkpt lat="42.91654068862232" lon="18.951365877918906"><ele>1004.3333333333333</ele><time>2026-05-03T09:38:53Z</time></trkpt><trkpt lat="42.91675995884671" lon="18.951343138563974"><ele>1005.0</ele><time>2026-05-03T09:38:54Z</time></trkpt><trkpt lat="42.91698806177397" lon="18.951322761611536"><ele>1007.5</ele><time>2026-05-03T09:38:55Z</time></trkpt><trkpt lat="42.917217399815115" lon="18.951295559314204"><ele>1010.0</ele><time>2026-05-03T09:38:56Z</time></trkpt><trkpt lat="42.917444230765156" lon="18.951245770445745"><ele>1014.0</ele><time>2026-05-03T09:38:57Z</time></trkpt><trkpt lat="42.91767104562696" lon="18.95116448684125"><ele>1018.0</ele><time>2026-05-03T09:38:58Z</time></trkpt><trkpt lat="42.91788998067558" lon="18.951056219776007"><ele>1018.0</ele><time>2026-05-03T09:38:59Z</time></trkpt><trkpt lat="42.91810549850719" lon="18.95092503020687"><ele>1018.0</ele><time>2026-05-03T09:39:00Z</time></trkpt><trkpt lat="42.91831007428672" lon="18.95077862715569"><ele>1022.5</ele><time>2026-05-03T09:39:01Z</time></trkpt><trkpt lat="42.91850833971362" lon="18.950611468264604"><ele>1027.0</ele><time>2026-05-03T09:39:02Z</time></trkpt><trkpt lat="42.91869381786164" lon="18.950423944546205"><ele>1027.0</ele><time>2026-05-03T09:39:03Z</time></trkpt><trkpt lat="42.918863521954826" lon="18.950219949354697"><ele>1027.0</ele><time>2026-05-03T09:39:04Z</time></trkpt><trkpt lat="42.91902515452781" lon="18.95000173014444"><ele>1026.0</ele><time>2026-05-03T09:39:05Z</time></trkpt><trkpt lat="42.919182424382846" lon="18.949774612998418"><ele>1025.0</ele><time>2026-05-03T09:39:06Z</time></trkpt><trkpt lat="42.91933153997305" lon="18.949551968940494"><ele>1027.3333333333335</ele><time>2026-05-03T09:39:07Z</time></trkpt><trkpt lat="42.91947998918253" lon="18.949334525153095"><ele>1029.6666666666667</ele><time>2026-05-03T09:39:08Z</time></trkpt><trkpt lat="42.91963887964095" lon="18.94912667318956"><ele>1032.0</ele><time>2026-05-03T09:39:09Z</time></trkpt><trkpt lat="42.91980743879575" lon="18.94893875274076"><ele>1032.3333333333333</ele><time>2026-05-03T09:39:10Z</time></trkpt><trkpt lat="42.91998562870522" lon="18.948761090551244"><ele>1032.6666666666665</ele><time>2026-05-03T09:39:11Z</time></trkpt><trkpt lat="42.920169598220824" lon="18.94859903773381"><ele>1033.0</ele><time>2026-05-03T09:39:12Z</time></trkpt><trkpt lat="42.92035859649801" lon="18.94845754623754"><ele>1034.0</ele><time>2026-05-03T09:39:13Z</time></trkpt><trkpt lat="42.92055083330184" lon="18.948323386623194"><ele>1035.0</ele><time>2026-05-03T09:39:14Z</time></trkpt><trkpt lat="42.9207447072603" lon="18.948200109173964"><ele>1036.0</ele><time>2026-05-03T09:39:15Z</time></trkpt><trkpt lat="42.92094482605126" lon="18.948074254396968"><ele>1039.3333333333333</ele><time>2026-05-03T09:39:16Z</time></trkpt><trkpt lat="42.92114507521396" lon="18.947942398857176"><ele>1042.6666666666667</ele><time>2026-05-03T09:39:17Z</time></trkpt><trkpt lat="42.921340996431155" lon="18.9477968333716"><ele>1046.0</ele><time>2026-05-03T09:39:18Z</time></trkpt><trkpt lat="42.921527915949" lon="18.94762899335179"><ele>1044.5</ele><time>2026-05-03T09:39:19Z</time></trkpt><trkpt lat="42.92170479840106" lon="18.947437060565388"><ele>1043.0</ele><time>2026-05-03T09:39:20Z</time></trkpt><trkpt lat="42.92187152358127" lon="18.947218422017976"><ele>1043.0</ele><time>2026-05-03T09:39:21Z</time></trkpt><trkpt lat="42.92201943926906" lon="18.9469817181174"><ele>1043.0</ele><time>2026-05-03T09:39:22Z</time></trkpt><trkpt lat="42.92215683738338" lon="18.946728423525126"><ele>1038.0</ele><time>2026-05-03T09:39:23Z</time></trkpt><trkpt lat="42.92228279998262" lon="18.946463674223033"><ele>1033.0</ele><time>2026-05-03T09:39:24Z</time></trkpt><trkpt lat="42.922398101226364" lon="18.94619246783951"><ele>1033.0</ele><time>2026-05-03T09:39:25Z</time></trkpt><trkpt lat="42.92250930434757" lon="18.945915218707732"><ele>1033.0</ele><time>2026-05-03T09:39:26Z</time></trkpt><trkpt lat="42.92262207142447" lon="18.94563819000767"><ele>1030.0</ele><time>2026-05-03T09:39:27Z</time></trkpt><trkpt lat="42.92274097672848" lon="18.945362234964147"><ele>1027.0</ele><time>2026-05-03T09:39:28Z</time></trkpt><trkpt lat="42.92286287188269" lon="18.94508463561355"><ele>1021.5</ele><time>2026-05-03T09:39:29Z</time></trkpt><trkpt lat="42.92297818631898" lon="18.944811381444207"><ele>1016.0</ele><time>2026-05-03T09:39:30Z</time></trkpt><trkpt lat="42.92309410047377" lon="18.944535267380285"><ele>1016.0</ele><time>2026-05-03T09:39:31Z</time></trkpt><trkpt lat="42.92320800557261" lon="18.944261558639614"><ele>1016.0</ele><time>2026-05-03T09:39:32Z</time></trkpt><trkpt lat="42.923323154813076" lon="18.94399366822269"><ele>1014.5</ele><time>2026-05-03T09:39:33Z</time></trkpt><trkpt lat="42.92344792672736" lon="18.94372775751066"><ele>1013.0</ele><time>2026-05-03T09:39:34Z</time></trkpt><trkpt lat="42.923591783871856" lon="18.943467425052578"><ele>1014.5</ele><time>2026-05-03T09:39:35Z</time></trkpt><trkpt lat="42.9237412817982" lon="18.943227637511573"><ele>1016.0</ele><time>2026-05-03T09:39:36Z</time></trkpt><trkpt lat="42.92390309541552" lon="18.942994832207063"><ele>1016.0</ele><time>2026-05-03T09:39:37Z</time></trkpt><trkpt lat="42.92407460957354" lon="18.942769253691424"><ele>1016.0</ele><time>2026-05-03T09:39:38Z</time></trkpt><trkpt lat="42.924253020166155" lon="18.942556863307278"><ele>1025.5</ele><time>2026-05-03T09:39:39Z</time></trkpt><trkpt lat="42.92443612608493" lon="18.9423611419432"><ele>1035.0</ele><time>2026-05-03T09:39:40Z</time></trkpt><trkpt lat="42.92462824144435" lon="18.94218420690135"><ele>1035.0</ele><time>2026-05-03T09:39:41Z</time></trkpt><trkpt lat="42.924817607694315" lon="18.942037403137974"><ele>1035.0</ele><time>2026-05-03T09:39:42Z</time></trkpt><trkpt lat="42.925007752413144" lon="18.94190692583718"><ele>1035.0</ele><time>2026-05-03T09:39:43Z</time></trkpt><trkpt lat="42.92520895639216" lon="18.941788929589315"><ele>1034.6666666666667</ele><time>2026-05-03T09:39:44Z</time></trkpt><trkpt lat="42.925407597852036" lon="18.94168095877688"><ele>1034.3333333333335</ele><time>2026-05-03T09:39:45Z</time></trkpt><trkpt lat="42.92560763549827" lon="18.94157726896192"><ele>1034.0</ele><time>2026-05-03T09:39:46Z</time></trkpt><trkpt lat="42.9258082317734" lon="18.94147012742484"><ele>1041.0</ele><time>2026-05-03T09:39:47Z</time></trkpt><trkpt lat="42.92600785731573" lon="18.94135844959254"><ele>1048.0</ele><time>2026-05-03T09:39:48Z</time></trkpt><trkpt lat="42.92620849268661" lon="18.94124881197829"><ele>1055.0</ele><time>2026-05-03T09:39:49Z</time></trkpt><trkpt lat="42.92640010532247" lon="18.941142406660834"><ele>1055.0</ele><time>2026-05-03T09:39:50Z</time></trkpt><trkpt lat="42.92658762038644" lon="18.941041926974446"><ele>1055.0</ele><time>2026-05-03T09:39:51Z</time></trkpt><trkpt lat="42.92678934573393" lon="18.940934126794005"><ele>1055.0</ele><time>2026-05-03T09:39:52Z</time></trkpt><trkpt lat="42.92699453654269" lon="18.940827362941764"><ele>1052.3333333333335</ele><time>2026-05-03T09:39:53Z</time></trkpt><trkpt lat="42.92720267533064" lon="18.940712212699722"><ele>1049.6666666666667</ele><time>2026-05-03T09:39:54Z</time></trkpt><trkpt lat="42.92740375133117" lon="18.940595088847605"><ele>1047.0</ele><time>2026-05-03T09:39:55Z</time></trkpt><trkpt lat="42.927607115532396" lon="18.940480565547315"><ele>1052.6666666666667</ele><time>2026-05-03T09:39:56Z</time></trkpt><trkpt lat="42.92781318101386" lon="18.940365247421433"><ele>1058.3333333333335</ele><time>2026-05-03T09:39:57Z</time></trkpt><trkpt lat="42.92801589583415" lon="18.94024861634826"><ele>1064.0</ele><time>2026-05-03T09:39:58Z</time></trkpt><trkpt lat="42.92821187369778" lon="18.94012303562634"><ele>1065.3333333333335</ele><time>2026-05-03T09:39:59Z</time></trkpt><trkpt lat="42.9284039434671" lon="18.93998362072771"><ele>1066.6666666666667</ele><time>2026-05-03T09:40:00Z</time></trkpt><trkpt lat="42.928586830294485" lon="18.939830826316225"><ele>1068.0</ele><time>2026-05-03T09:40:01Z</time></trkpt><trkpt lat="42.92876554527609" lon="18.93965890732072"><ele>1068.0</ele><time>2026-05-03T09:40:02Z</time></trkpt><trkpt lat="42.928933880123935" lon="18.93947300715131"><ele>1068.0</ele><time>2026-05-03T09:40:03Z</time></trkpt><trkpt lat="42.92909417540467" lon="18.939269231598352"><ele>1068.0</ele><time>2026-05-03T09:40:04Z</time></trkpt><trkpt lat="42.929239540476296" lon="18.939056086015654"><ele>1066.3333333333333</ele><time>2026-05-03T09:40:05Z</time></trkpt><trkpt lat="42.929375524033496" lon="18.93882768502496"><ele>1064.6666666666665</ele><time>2026-05-03T09:40:06Z</time></trkpt><trkpt lat="42.929499322471585" lon="18.93858497202269"><ele>1063.0</ele><time>2026-05-03T09:40:07Z</time></trkpt><trkpt lat="42.92961152754638" lon="18.93832881542922"><ele>1063.0</ele><time>2026-05-03T09:40:08Z</time></trkpt><trkpt lat="42.9297166882917" lon="18.93806570872427"><ele>1063.0</ele><time>2026-05-03T09:40:09Z</time></trkpt><trkpt lat="42.92981055366897" lon="18.93779338050873"><ele>1063.0</ele><time>2026-05-03T09:40:10Z</time></trkpt><trkpt lat="42.92989449021814" lon="18.937521719097564"><ele>1061.6666666666665</ele><time>2026-05-03T09:40:11Z</time></trkpt><trkpt lat="42.92997216829346" lon="18.937247071675873"><ele>1060.3333333333333</ele><time>2026-05-03T09:40:12Z</time></trkpt><trkpt lat="42.930054937056944" lon="18.936974479104258"><ele>1059.0</ele><time>2026-05-03T09:40:13Z</time></trkpt><trkpt lat="42.93015386371993" lon="18.936711049953892"><ele>1065.6666666666667</ele><time>2026-05-03T09:40:14Z</time></trkpt><trkpt lat="42.930275627260045" lon="18.9364652015363"><ele>1072.3333333333335</ele><time>2026-05-03T09:40:15Z</time></trkpt><trkpt lat="42.93041758400305" lon="18.93623630672475"><ele>1079.0</ele><time>2026-05-03T09:40:16Z</time></trkpt><trkpt lat="42.93057761678594" lon="18.936025199515296"><ele>1079.3333333333335</ele><time>2026-05-03T09:40:17Z</time></trkpt><trkpt lat="42.93075247196436" lon="18.935837939125523"><ele>1079.6666666666667</ele><time>2026-05-03T09:40:18Z</time></trkpt><trkpt lat="42.93093901264251" lon="18.935672774057533"><ele>1080.0</ele><time>2026-05-03T09:40:19Z</time></trkpt><trkpt lat="42.93113638144988" lon="18.935528571300324"><ele>1080.0</ele><time>2026-05-03T09:40:20Z</time></trkpt><trkpt lat="42.931340803115276" lon="18.935416032585525"><ele>1080.0</ele><time>2026-05-03T09:40:21Z</time></trkpt><trkpt lat="42.931548829818986" lon="18.935331707774456"><ele>1080.0</ele><time>2026-05-03T09:40:22Z</time></trkpt><trkpt lat="42.931766775389505" lon="18.935275454229842"><ele>1081.3333333333333</ele><time>2026-05-03T09:40:23Z</time></trkpt><trkpt lat="42.9319862767216" lon="18.935248472252013"><ele>1082.6666666666665</ele><time>2026-05-03T09:40:24Z</time></trkpt><trkpt lat="42.93221110266923" lon="18.935249100161176"><ele>1084.0</ele><time>2026-05-03T09:40:25Z</time></trkpt><trkpt lat="42.932435193248224" lon="18.935271100992"><ele>1090.5</ele><time>2026-05-03T09:40:26Z</time></trkpt><trkpt lat="42.93266292315546" lon="18.93529609383354"><ele>1097.0</ele><time>2026-05-03T09:40:27Z</time></trkpt><trkpt lat="42.932887552904695" lon="18.93529778162497"><ele>1097.0</ele><time>2026-05-03T09:40:28Z</time></trkpt><trkpt lat="42.933111696059306" lon="18.93526426247525"><ele>1097.0</ele><time>2026-05-03T09:40:29Z</time></trkpt><trkpt lat="42.93333041504731" lon="18.93520107969541"><ele>1097.0</ele><time>2026-05-03T09:40:30Z</time></trkpt><trkpt lat="42.93353869961678" lon="18.935114656482767"><ele>1095.0</ele><time>2026-05-03T09:40:31Z</time></trkpt><trkpt lat="42.9337456097281" lon="18.93500233218639"><ele>1093.0</ele><time>2026-05-03T09:40:32Z</time></trkpt><trkpt lat="42.93394757181592" lon="18.93485722564565"><ele>1093.0</ele><time>2026-05-03T09:40:33Z</time></trkpt><trkpt lat="42.9341349593664" lon="18.934688268451538"><ele>1093.0</ele><time>2026-05-03T09:40:34Z</time></trkpt><trkpt lat="42.93431346413092" lon="18.934508357836787"><ele>1093.0</ele><time>2026-05-03T09:40:35Z</time></trkpt><trkpt lat="42.934501317654174" lon="18.934333840148753"><ele>1097.0</ele><time>2026-05-03T09:40:36Z</time></trkpt><trkpt lat="42.93470165415414" lon="18.93417540714771"><ele>1101.0</ele><time>2026-05-03T09:40:37Z</time></trkpt><trkpt lat="42.93491742062252" lon="18.934037555804707"><ele>1107.0</ele><time>2026-05-03T09:40:38Z</time></trkpt><trkpt lat="42.93514501087004" lon="18.93392635655867"><ele>1113.0</ele><time>2026-05-03T09:40:39Z</time></trkpt><trkpt lat="42.93538028898357" lon="18.933832026074633"><ele>1113.0</ele><time>2026-05-03T09:40:40Z</time></trkpt><trkpt lat="42.935613044415454" lon="18.933752426795518"><ele>1113.0</ele><time>2026-05-03T09:40:41Z</time></trkpt><trkpt lat="42.9358436515376" lon="18.93368034738119"><ele>1120.5</ele><time>2026-05-03T09:40:42Z</time></trkpt><trkpt lat="42.93607681471715" lon="18.933600192458897"><ele>1128.0</ele><time>2026-05-03T09:40:43Z</time></trkpt><trkpt lat="42.936302346182174" lon="18.9335051315108"><ele>1128.0</ele><time>2026-05-03T09:40:44Z</time></trkpt><trkpt lat="42.936518207298036" lon="18.93339274732215"><ele>1128.0</ele><time>2026-05-03T09:40:45Z</time></trkpt><trkpt lat="42.93672539041168" lon="18.93326442908789"><ele>1129.0</ele><time>2026-05-03T09:40:46Z</time></trkpt><trkpt lat="42.93692306779135" lon="18.933118761688174"><ele>1130.0</ele><time>2026-05-03T09:40:47Z</time></trkpt><trkpt lat="42.93710829357751" lon="18.93295408767781"><ele>1131.0</ele><time>2026-05-03T09:40:48Z</time></trkpt><trkpt lat="42.93728792883006" lon="18.9327774020989"><ele>1131.0</ele><time>2026-05-03T09:40:49Z</time></trkpt><trkpt lat="42.937451179168086" lon="18.93257742690067"><ele>1131.0</ele><time>2026-05-03T09:40:50Z</time></trkpt><trkpt lat="42.93760211749738" lon="18.93235975253311"><ele>1131.0</ele><time>2026-05-03T09:40:51Z</time></trkpt><trkpt lat="42.93773842744469" lon="18.932126211433147"><ele>1129.6666666666667</ele><time>2026-05-03T09:40:52Z</time></trkpt><trkpt lat="42.93786754941057" lon="18.9318809228403"><ele>1128.3333333333335</ele><time>2026-05-03T09:40:53Z</time></trkpt><trkpt lat="42.93797889311645" lon="18.931623113831296"><ele>1127.0</ele><time>2026-05-03T09:40:54Z</time></trkpt><trkpt lat="42.93807399245884" lon="18.93134257910539"><ele>1125.5</ele><time>2026-05-03T09:40:55Z</time></trkpt><trkpt lat="42.93814784770283" lon="18.93104526315187"><ele>1124.0</ele><time>2026-05-03T09:40:56Z</time></trkpt><trkpt lat="42.93819793549609" lon="18.930740026605307"><ele>1124.0</ele><time>2026-05-03T09:40:57Z</time></trkpt><trkpt lat="42.938228306830474" lon="18.930428874321034"><ele>1124.0</ele><time>2026-05-03T09:40:58Z</time></trkpt><trkpt lat="42.9382353891774" lon="18.930113487757918"><ele>1127.5</ele><time>2026-05-03T09:40:59Z</time></trkpt><trkpt lat="42.93822160387778" lon="18.92979690498784"><ele>1131.0</ele><time>2026-05-03T09:41:00Z</time></trkpt><trkpt lat="42.93818429944368" lon="18.92949462010823"><ele>1133.0</ele><time>2026-05-03T09:41:01Z</time></trkpt><trkpt lat="42.938123395031134" lon="18.929204262893336"><ele>1135.0</ele><time>2026-05-03T09:41:02Z</time></trkpt><trkpt lat="42.938041497836515" lon="18.928926771150696"><ele>1137.0</ele><time>2026-05-03T09:41:03Z</time></trkpt><trkpt lat="42.93794593439405" lon="18.92865284066013"><ele>1138.6666666666667</ele><time>2026-05-03T09:41:04Z</time></trkpt><trkpt lat="42.93783747813743" lon="18.92838799453331"><ele>1140.3333333333335</ele><time>2026-05-03T09:41:05Z</time></trkpt><trkpt lat="42.93770858575955" lon="18.928134089443315"><ele>1142.0</ele><time>2026-05-03T09:41:06Z</time></trkpt><trkpt lat="42.93759953730427" lon="18.92787442202173"><ele>1138.5</ele><time>2026-05-03T09:41:07Z</time></trkpt><trkpt lat="42.93750809375775" lon="18.927589738028555"><ele>1135.0</ele><time>2026-05-03T09:41:08Z</time></trkpt><trkpt lat="42.937393067879384" lon="18.927323665467437"><ele>1135.0</ele><time>2026-05-03T09:41:09Z</time></trkpt><trkpt lat="42.93727512871578" lon="18.92706947838478"><ele>1135.0</ele><time>2026-05-03T09:41:10Z</time></trkpt><trkpt lat="42.93718034616746" lon="18.926796509309952"><ele>1135.0</ele><time>2026-05-03T09:41:11Z</time></trkpt><trkpt lat="42.93707797161119" lon="18.92653283088599"><ele>1137.0</ele><time>2026-05-03T09:41:12Z</time></trkpt><trkpt lat="42.93697177373664" lon="18.926271624885263"><ele>1139.0</ele><time>2026-05-03T09:41:13Z</time></trkpt><trkpt lat="42.93687922482785" lon="18.925999940874767"><ele>1141.0</ele><time>2026-05-03T09:41:14Z</time></trkpt><trkpt lat="42.93681343555468" lon="18.925712185802723"><ele>1149.0</ele><time>2026-05-03T09:41:15Z</time></trkpt><trkpt lat="42.93678448286314" lon="18.92541202114825"><ele>1157.0</ele><time>2026-05-03T09:41:16Z</time></trkpt><trkpt lat="42.93681688105453" lon="18.925100134764143"><ele>1159.6666666666667</ele><time>2026-05-03T09:41:17Z</time></trkpt><trkpt lat="42.93684299639194" lon="18.92479721718477"><ele>1162.3333333333333</ele><time>2026-05-03T09:41:18Z</time></trkpt><trkpt lat="42.93689923788187" lon="18.924498507605346"><ele>1165.0</ele><time>2026-05-03T09:41:19Z</time></trkpt><trkpt lat="42.93699235879021" lon="18.924204523225367"><ele>1165.0</ele><time>2026-05-03T09:41:20Z</time></trkpt><trkpt lat="42.937121374946585" lon="18.923942801809734"><ele>1165.0</ele><time>2026-05-03T09:41:21Z</time></trkpt><trkpt lat="42.93727339218178" lon="18.923722590563205"><ele>1165.0</ele><time>2026-05-03T09:41:22Z</time></trkpt><trkpt lat="42.93743348577274" lon="18.923546988594573"><ele>1165.0</ele><time>2026-05-03T09:41:23Z</time></trkpt><trkpt lat="42.93759247875305" lon="18.92340477300533"><ele>1165.0</ele><time>2026-05-03T09:41:24Z</time></trkpt><trkpt lat="42.93774382210282" lon="18.923298134656157"><ele>1164.75</ele><time>2026-05-03T09:41:25Z</time></trkpt><trkpt lat="42.93786982817926" lon="18.923220122536705"><ele>1164.5</ele><time>2026-05-03T09:41:26Z</time></trkpt><trkpt lat="42.93797739694895" lon="18.923148185887378"><ele>1164.25</ele><time>2026-05-03T09:41:27Z</time></trkpt><trkpt lat="42.93807578245012" lon="18.923090018292868"><ele>1164.0</ele><time>2026-05-03T09:41:28Z</time></trkpt><trkpt lat="42.93818501754532" lon="18.923027273548414"><ele>1164.0</ele><time>2026-05-03T09:41:29Z</time></trkpt><trkpt lat="42.938307662517055" lon="18.922947020404365"><ele>1164.0</ele><time>2026-05-03T09:41:30Z</time></trkpt><trkpt lat="42.93842581922458" lon="18.92284772855847"><ele>1164.0</ele><time>2026-05-03T09:41:31Z</time></trkpt><trkpt lat="42.93853335981642" lon="18.92273060384961"><ele>1164.0</ele><time>2026-05-03T09:41:32Z</time></trkpt><trkpt lat="42.93863976368392" lon="18.922594629478002"><ele>1162.0</ele><time>2026-05-03T09:41:33Z</time></trkpt><trkpt lat="42.93874442297345" lon="18.92244107799303"><ele>1160.0</ele><time>2026-05-03T09:41:34Z</time></trkpt><trkpt lat="42.93884218525969" lon="18.922269212055294"><ele>1158.0</ele><time>2026-05-03T09:41:35Z</time></trkpt><trkpt lat="42.93892481078103" lon="18.922075949693962"><ele>1158.0</ele><time>2026-05-03T09:41:36Z</time></trkpt><trkpt lat="42.93899433424723" lon="18.921865801902133"><ele>1158.0</ele><time>2026-05-03T09:41:37Z</time></trkpt><trkpt lat="42.939044523653536" lon="18.921650991647827"><ele>1158.0</ele><time>2026-05-03T09:41:38Z</time></trkpt><trkpt lat="42.93907795769342" lon="18.92144051412711"><ele>1157.6666666666667</ele><time>2026-05-03T09:41:39Z</time></trkpt><trkpt lat="42.93910114404578" lon="18.92121913762333"><ele>1157.3333333333335</ele><time>2026-05-03T09:41:40Z</time></trkpt><trkpt lat="42.93911174535698" lon="18.920998740244173"><ele>1157.0</ele><time>2026-05-03T09:41:41Z</time></trkpt><trkpt lat="42.9391162683397" lon="18.920778101109466"><ele>1157.6666666666667</ele><time>2026-05-03T09:41:42Z</time></trkpt><trkpt lat="42.93912349968239" lon="18.92055480169214"><ele>1158.3333333333333</ele><time>2026-05-03T09:41:43Z</time></trkpt><trkpt lat="42.93914645414478" lon="18.920329663519457"><ele>1159.0</ele><time>2026-05-03T09:41:44Z</time></trkpt><trkpt lat="42.93919810693214" lon="18.92009654467145"><ele>1164.0</ele><time>2026-05-03T09:41:45Z</time></trkpt><trkpt lat="42.93927894204187" lon="18.919867846809826"><ele>1169.0</ele><time>2026-05-03T09:41:46Z</time></trkpt><trkpt lat="42.939379675168716" lon="18.9196451058846"><ele>1174.0</ele><time>2026-05-03T09:41:47Z</time></trkpt><trkpt lat="42.939498582775876" lon="18.919431327959185"><ele>1172.6666666666665</ele><time>2026-05-03T09:41:48Z</time></trkpt><trkpt lat="42.93963335398812" lon="18.91922388064941"><ele>1171.3333333333333</ele><time>2026-05-03T09:41:49Z</time></trkpt><trkpt lat="42.93977649456897" lon="18.919019563644383"><ele>1170.0</ele><time>2026-05-03T09:41:50Z</time></trkpt><trkpt lat="42.93991207712424" lon="18.918810573189184"><ele>1170.0</ele><time>2026-05-03T09:41:51Z</time></trkpt><trkpt lat="42.94002620198863" lon="18.91858199254829"><ele>1170.0</ele><time>2026-05-03T09:41:52Z</time></trkpt><trkpt lat="42.94012302297114" lon="18.918308820281666"><ele>1170.0</ele><time>2026-05-03T09:41:53Z</time></trkpt><trkpt lat="42.94020580619847" lon="18.917986274532392"><ele>1168.5</ele><time>2026-05-03T09:41:54Z</time></trkpt><trkpt lat="42.940294363207656" lon="18.91763464097351"><ele>1167.0</ele><time>2026-05-03T09:41:55Z</time></trkpt><trkpt lat="42.940399278285575" lon="18.91733303406694"><ele>1167.0</ele><time>2026-05-03T09:41:56Z</time></trkpt><trkpt lat="42.94051046226943" lon="18.917071510002177"><ele>1167.0</ele><time>2026-05-03T09:41:57Z</time></trkpt><trkpt lat="42.94062611717949" lon="18.91684204655832"><ele>1167.0</ele><time>2026-05-03T09:41:58Z</time></trkpt><trkpt lat="42.940733480083956" lon="18.916634670652847"><ele>1165.0</ele><time>2026-05-03T09:41:59Z</time></trkpt><trkpt lat="42.94085268061173" lon="18.916433288225324"><ele>1163.0</ele><time>2026-05-03T09:42:00Z</time></trkpt><trkpt lat="42.940984777709716" lon="18.916236770308313"><ele>1161.0</ele><time>2026-05-03T09:42:01Z</time></trkpt><trkpt lat="42.94112782965041" lon="18.916046050733886"><ele>1155.6666666666667</ele><time>2026-05-03T09:42:02Z</time></trkpt><trkpt lat="42.94127779848299" lon="18.91585895659208"><ele>1150.3333333333335</ele><time>2026-05-03T09:42:03Z</time></trkpt><trkpt lat="42.941424497595925" lon="18.91567069629889"><ele>1145.0</ele><time>2026-05-03T09:42:04Z</time></trkpt><trkpt lat="42.94156976471293" lon="18.915475512897707"><ele>1145.0</ele><time>2026-05-03T09:42:05Z</time></trkpt><trkpt lat="42.94170916430414" lon="18.91527120519671"><ele>1145.0</ele><time>2026-05-03T09:42:06Z</time></trkpt><trkpt lat="42.94183720772323" lon="18.915056313787396"><ele>1145.0</ele><time>2026-05-03T09:42:07Z</time></trkpt><trkpt lat="42.94195318944175" lon="18.914834396088374"><ele>1146.3333333333335</ele><time>2026-05-03T09:42:08Z</time></trkpt><trkpt lat="42.94205275404949" lon="18.914608885213834"><ele>1147.6666666666667</ele><time>2026-05-03T09:42:09Z</time></trkpt><trkpt lat="42.94214587545115" lon="18.914361061512967"><ele>1149.0</ele><time>2026-05-03T09:42:10Z</time></trkpt><trkpt lat="42.94223873532687" lon="18.914098989794994"><ele>1149.0</ele><time>2026-05-03T09:42:11Z</time></trkpt><trkpt lat="42.94230259431945" lon="18.913847265596505"><ele>1149.0</ele><time>2026-05-03T09:42:12Z</time></trkpt><trkpt lat="42.94236210507042" lon="18.91358664687035"><ele>1149.0</ele><time>2026-05-03T09:42:13Z</time></trkpt><trkpt lat="42.94241822604223" lon="18.913314478054257"><ele>1146.0</ele><time>2026-05-03T09:42:14Z</time></trkpt><trkpt lat="42.94247509730251" lon="18.913043876070205"><ele>1143.0</ele><time>2026-05-03T09:42:15Z</time></trkpt><trkpt lat="42.94253455728517" lon="18.912763733101553"><ele>1140.0</ele><time>2026-05-03T09:42:16Z</time></trkpt><trkpt lat="42.94259657380785" lon="18.91247348355976"><ele>1149.0</ele><time>2026-05-03T09:42:17Z</time></trkpt><trkpt lat="42.94266297207787" lon="18.91217729444907"><ele>1158.0</ele><time>2026-05-03T09:42:18Z</time></trkpt><trkpt lat="42.942729139470394" lon="18.911877915058476"><ele>1158.5</ele><time>2026-05-03T09:42:19Z</time></trkpt><trkpt lat="42.94279495521852" lon="18.911575691185433"><ele>1159.0</ele><time>2026-05-03T09:42:20Z</time></trkpt><trkpt lat="42.9428564390141" lon="18.911277848448414"><ele>1159.0</ele><time>2026-05-03T09:42:21Z</time></trkpt><trkpt lat="42.942919650173806" lon="18.910986390595937"><ele>1159.0</ele><time>2026-05-03T09:42:22Z</time></trkpt><trkpt lat="42.942984178099024" lon="18.910700845023324"><ele>1159.0</ele><time>2026-05-03T09:42:23Z</time></trkpt><trkpt lat="42.943049658770846" lon="18.91041979970204"><ele>1157.5</ele><time>2026-05-03T09:42:24Z</time></trkpt><trkpt lat="42.94311176055696" lon="18.910127129641243"><ele>1156.0</ele><time>2026-05-03T09:42:25Z</time></trkpt><trkpt lat="42.94318047517972" lon="18.909830786119628"><ele>1156.5</ele><time>2026-05-03T09:42:26Z</time></trkpt><trkpt lat="42.94326786166705" lon="18.909545305989568"><ele>1157.0</ele><time>2026-05-03T09:42:27Z</time></trkpt><trkpt lat="42.943387991750306" lon="18.909275329227754"><ele>1154.5</ele><time>2026-05-03T09:42:28Z</time></trkpt><trkpt lat="42.943535337348585" lon="18.90903003706082"><ele>1152.0</ele><time>2026-05-03T09:42:29Z</time></trkpt><trkpt lat="42.94369767519751" lon="18.908806451517854"><ele>1152.0</ele><time>2026-05-03T09:42:30Z</time></trkpt><trkpt lat="42.94387029805313" lon="18.90860440446143"><ele>1152.0</ele><time>2026-05-03T09:42:31Z</time></trkpt><trkpt lat="42.9440583246973" lon="18.908417999719774"><ele>1151.5</ele><time>2026-05-03T09:42:32Z</time></trkpt><trkpt lat="42.944261867220646" lon="18.90826396446686"><ele>1151.0</ele><time>2026-05-03T09:42:33Z</time></trkpt><trkpt lat="42.944475341556014" lon="18.908141736917017"><ele>1151.0</ele><time>2026-05-03T09:42:34Z</time></trkpt><trkpt lat="42.94469547742468" lon="18.90805514001638"><ele>1151.0</ele><time>2026-05-03T09:42:35Z</time></trkpt><trkpt lat="42.94491764663189" lon="18.907992150249136"><ele>1151.0</ele><time>2026-05-03T09:42:36Z</time></trkpt><trkpt lat="42.94513654447549" lon="18.907953745410662"><ele>1151.0</ele><time>2026-05-03T09:42:37Z</time></trkpt><trkpt lat="42.945354474655" lon="18.907950933435714"><ele>1151.0</ele><time>2026-05-03T09:42:38Z</time></trkpt><trkpt lat="42.9455716899222" lon="18.907956984678258"><ele>1151.0</ele><time>2026-05-03T09:42:39Z</time></trkpt><trkpt lat="42.945791732500865" lon="18.90795378856927"><ele>1151.0</ele><time>2026-05-03T09:42:40Z</time></trkpt><trkpt lat="42.94601758970307" lon="18.907948220560144"><ele>1151.0</ele><time>2026-05-03T09:42:41Z</time></trkpt><trkpt lat="42.946243714370006" lon="18.9079428340414"><ele>1148.0</ele><time>2026-05-03T09:42:42Z</time></trkpt><trkpt lat="42.94646731841748" lon="18.907933409968457"><ele>1145.0</ele><time>2026-05-03T09:42:43Z</time></trkpt><trkpt lat="42.9466928413401" lon="18.90792408679075"><ele>1142.0</ele><time>2026-05-03T09:42:44Z</time></trkpt><trkpt lat="42.94691745622464" lon="18.90791779711659"><ele>1140.6666666666667</ele><time>2026-05-03T09:42:45Z</time></trkpt><trkpt lat="42.947140667372615" lon="18.907914585196945"><ele>1139.3333333333333</ele><time>2026-05-03T09:42:46Z</time></trkpt><trkpt lat="42.94735935626626" lon="18.907915153184383"><ele>1138.0</ele><time>2026-05-03T09:42:47Z</time></trkpt><trkpt lat="42.94757962796586" lon="18.90790702207661"><ele>1136.3333333333333</ele><time>2026-05-03T09:42:48Z</time></trkpt><trkpt lat="42.94780134536676" lon="18.907907888265687"><ele>1134.6666666666667</ele><time>2026-05-03T09:42:49Z</time></trkpt><trkpt lat="42.94802135415135" lon="18.90791710210835"><ele>1133.0</ele><time>2026-05-03T09:42:50Z</time></trkpt><trkpt lat="42.948236295328584" lon="18.907945735306363"><ele>1133.3333333333335</ele><time>2026-05-03T09:42:51Z</time></trkpt><trkpt lat="42.94844467773489" lon="18.908002251415855"><ele>1133.6666666666667</ele><time>2026-05-03T09:42:52Z</time></trkpt><trkpt lat="42.94865367389915" lon="18.90808339477876"><ele>1134.0</ele><time>2026-05-03T09:42:53Z</time></trkpt><trkpt lat="42.94886086552213" lon="18.908187558312807"><ele>1134.0</ele><time>2026-05-03T09:42:54Z</time></trkpt><trkpt lat="42.94906134635784" lon="18.90832096015825"><ele>1134.0</ele><time>2026-05-03T09:42:55Z</time></trkpt><trkpt lat="42.949251737086655" lon="18.90847434420416"><ele>1134.0</ele><time>2026-05-03T09:42:56Z</time></trkpt><trkpt lat="42.94942903975134" lon="18.9086474073984"><ele>1134.6666666666667</ele><time>2026-05-03T09:42:57Z</time></trkpt><trkpt lat="42.94959710415989" lon="18.908837237916526"><ele>1135.3333333333335</ele><time>2026-05-03T09:42:58Z</time></trkpt><trkpt lat="42.94975800872321" lon="18.909033534436784"><ele>1136.0</ele><time>2026-05-03T09:42:59Z</time></trkpt><trkpt lat="42.949916271578076" lon="18.909231158858663"><ele>1135.6666666666667</ele><time>2026-05-03T09:43:00Z</time></trkpt><trkpt lat="42.950072319261515" lon="18.909427813172837"><ele>1135.3333333333333</ele><time>2026-05-03T09:43:01Z</time></trkpt><trkpt lat="42.95023190322637" lon="18.90961411507811"><ele>1135.0</ele><time>2026-05-03T09:43:02Z</time></trkpt><trkpt lat="42.95040176249407" lon="18.90979289046968"><ele>1135.0</ele><time>2026-05-03T09:43:03Z</time></trkpt><trkpt lat="42.95058128757056" lon="18.909960192920806"><ele>1135.0</ele><time>2026-05-03T09:43:04Z</time></trkpt><trkpt lat="42.950774521066755" lon="18.910101921850305"><ele>1135.0</ele><time>2026-05-03T09:43:05Z</time></trkpt><trkpt lat="42.95097708274951" lon="18.91022419919525"><ele>1133.3333333333333</ele><time>2026-05-03T09:43:06Z</time></trkpt><trkpt lat="42.95118329822701" lon="18.91032166964841"><ele>1131.6666666666667</ele><time>2026-05-03T09:43:07Z</time></trkpt><trkpt lat="42.95139776715562" lon="18.910405214422642"><ele>1130.0</ele><time>2026-05-03T09:43:08Z</time></trkpt><trkpt lat="42.95161928708587" lon="18.91046722403856"><ele>1133.0</ele><time>2026-05-03T09:43:09Z</time></trkpt><trkpt lat="42.95184197643196" lon="18.910520530197996"><ele>1136.0</ele><time>2026-05-03T09:43:10Z</time></trkpt><trkpt lat="42.95206650000309" lon="18.91056318838142"><ele>1136.0</ele><time>2026-05-03T09:43:11Z</time></trkpt><trkpt lat="42.952299106851896" lon="18.91060746509871"><ele>1136.0</ele><time>2026-05-03T09:43:12Z</time></trkpt><trkpt lat="42.952535436900085" lon="18.910660859618247"><ele>1138.5</ele><time>2026-05-03T09:43:13Z</time></trkpt><trkpt lat="42.95276943630687" lon="18.910736331651798"><ele>1141.0</ele><time>2026-05-03T09:43:14Z</time></trkpt><trkpt lat="42.95299414159506" lon="18.910833005241678"><ele>1140.5</ele><time>2026-05-03T09:43:15Z</time></trkpt><trkpt lat="42.95320466615687" lon="18.910951692295548"><ele>1140.0</ele><time>2026-05-03T09:43:16Z</time></trkpt><trkpt lat="42.95341019271263" lon="18.911086288611198"><ele>1138.5</ele><time>2026-05-03T09:43:17Z</time></trkpt><trkpt lat="42.95361200997345" lon="18.91124289966021"><ele>1137.0</ele><time>2026-05-03T09:43:18Z</time></trkpt><trkpt lat="42.9538025111032" lon="18.911408490172064"><ele>1137.0</ele><time>2026-05-03T09:43:19Z</time></trkpt><trkpt lat="42.95398332471295" lon="18.91157544377178"><ele>1137.0</ele><time>2026-05-03T09:43:20Z</time></trkpt><trkpt lat="42.95416240094093" lon="18.91173579082233"><ele>1137.0</ele><time>2026-05-03T09:43:21Z</time></trkpt><trkpt lat="42.95434520169291" lon="18.91187781964021"><ele>1137.0</ele><time>2026-05-03T09:43:22Z</time></trkpt><trkpt lat="42.95453707890227" lon="18.912007047220545"><ele>1137.0</ele><time>2026-05-03T09:43:23Z</time></trkpt><trkpt lat="42.9547383111241" lon="18.912119486290322"><ele>1137.0</ele><time>2026-05-03T09:43:24Z</time></trkpt><trkpt lat="42.954950059920286" lon="18.912220641426444"><ele>1138.6666666666667</ele><time>2026-05-03T09:43:25Z</time></trkpt><trkpt lat="42.95516373441317" lon="18.912307260290138"><ele>1140.3333333333335</ele><time>2026-05-03T09:43:26Z</time></trkpt><trkpt lat="42.95538129318818" lon="18.912378395883824"><ele>1142.0</ele><time>2026-05-03T09:43:27Z</time></trkpt><trkpt lat="42.955601903804336" lon="18.91243612528963"><ele>1142.0</ele><time>2026-05-03T09:43:28Z</time></trkpt><trkpt lat="42.95582074041842" lon="18.912469364743316"><ele>1142.0</ele><time>2026-05-03T09:43:29Z</time></trkpt><trkpt lat="42.95604102385211" lon="18.912482606528258"><ele>1142.0</ele><time>2026-05-03T09:43:30Z</time></trkpt><trkpt lat="42.956262856940896" lon="18.912483580684576"><ele>1142.0</ele><time>2026-05-03T09:43:31Z</time></trkpt><trkpt lat="42.95648408767862" lon="18.912470849202727"><ele>1142.0</ele><time>2026-05-03T09:43:32Z</time></trkpt><trkpt lat="42.95670773475762" lon="18.912438527683108"><ele>1142.0</ele><time>2026-05-03T09:43:33Z</time></trkpt><trkpt lat="42.95693012260374" lon="18.91238522964365"><ele>1142.0</ele><time>2026-05-03T09:43:34Z</time></trkpt><trkpt lat="42.9571543236899" lon="18.912317032256954"><ele>1142.0</ele><time>2026-05-03T09:43:35Z</time></trkpt><trkpt lat="42.95738327092774" lon="18.91224422367334"><ele>1146.0</ele><time>2026-05-03T09:43:36Z</time></trkpt><trkpt lat="42.95761620932759" lon="18.912168028883386"><ele>1150.0</ele><time>2026-05-03T09:43:37Z</time></trkpt><trkpt lat="42.95785994486571" lon="18.912093770708946"><ele>1150.0</ele><time>2026-05-03T09:43:38Z</time></trkpt><trkpt lat="42.9581033283188" lon="18.91202216318919"><ele>1150.0</ele><time>2026-05-03T09:43:39Z</time></trkpt><trkpt lat="42.958355694072594" lon="18.911945900035576"><ele>1154.5</ele><time>2026-05-03T09:43:40Z</time></trkpt><trkpt lat="42.95862929974607" lon="18.911862990638387"><ele>1159.0</ele><time>2026-05-03T09:43:41Z</time></trkpt><trkpt lat="42.958912063541604" lon="18.911774863864398"><ele>1155.0</ele><time>2026-05-03T09:43:42Z</time></trkpt><trkpt lat="42.95919286042369" lon="18.911694161175205"><ele>1151.0</ele><time>2026-05-03T09:43:43Z</time></trkpt><trkpt lat="42.959466927836424" lon="18.91161417594775"><ele>1149.5</ele><time>2026-05-03T09:43:44Z</time></trkpt><trkpt lat="42.959742443990834" lon="18.91153180760918"><ele>1148.0</ele><time>2026-05-03T09:43:45Z</time></trkpt><trkpt lat="42.96000655813953" lon="18.911441243835068"><ele>1149.5</ele><time>2026-05-03T09:43:46Z</time></trkpt><trkpt lat="42.960280486996034" lon="18.911332050602212"><ele>1151.0</ele><time>2026-05-03T09:43:47Z</time></trkpt><trkpt lat="42.9605619967819" lon="18.911196505082895"><ele>1151.0</ele><time>2026-05-03T09:43:48Z</time></trkpt><trkpt lat="42.9608526009674" lon="18.91102772940559"><ele>1151.0</ele><time>2026-05-03T09:43:49Z</time></trkpt><trkpt lat="42.96114785363164" lon="18.91082638493709"><ele>1154.5</ele><time>2026-05-03T09:43:50Z</time></trkpt><trkpt lat="42.96143536200664" lon="18.910596930688005"><ele>1158.0</ele><time>2026-05-03T09:43:51Z</time></trkpt><trkpt lat="42.96172457465083" lon="18.910334610601637"><ele>1162.0</ele><time>2026-05-03T09:43:52Z</time></trkpt><trkpt lat="42.96200472239602" lon="18.910060221109735"><ele>1166.0</ele><time>2026-05-03T09:43:53Z</time></trkpt><trkpt lat="42.962292926390546" lon="18.909798220633846"><ele>1176.5</ele><time>2026-05-03T09:43:54Z</time></trkpt><trkpt lat="42.96259545685177" lon="18.909578261290388"><ele>1187.0</ele><time>2026-05-03T09:43:55Z</time></trkpt><trkpt lat="42.96290404842753" lon="18.90940808145198"><ele>1187.0</ele><time>2026-05-03T09:43:56Z</time></trkpt><trkpt lat="42.96322080249945" lon="18.909270652728896"><ele>1187.0</ele><time>2026-05-03T09:43:57Z</time></trkpt><trkpt lat="42.96354526490321" lon="18.909163909010353"><ele>1183.5</ele><time>2026-05-03T09:43:58Z</time></trkpt><trkpt lat="42.963870380783156" lon="18.90907634465515"><ele>1180.0</ele><time>2026-05-03T09:43:59Z</time></trkpt><trkpt lat="42.96420376989778" lon="18.90899863776185"><ele>1180.0</ele><time>2026-05-03T09:44:00Z</time></trkpt><trkpt lat="42.964538645935725" lon="18.908906262837785"><ele>1180.0</ele><time>2026-05-03T09:44:01Z</time></trkpt><trkpt lat="42.964874250280246" lon="18.908787688606143"><ele>1186.5</ele><time>2026-05-03T09:44:02Z</time></trkpt><trkpt lat="42.96520111396603" lon="18.90862223815811"><ele>1193.0</ele><time>2026-05-03T09:44:03Z</time></trkpt><trkpt lat="42.965533155088465" lon="18.90840793616163"><ele>1194.5</ele><time>2026-05-03T09:44:04Z</time></trkpt><trkpt lat="42.965844120753644" lon="18.90815247351908"><ele>1196.0</ele><time>2026-05-03T09:44:05Z</time></trkpt><trkpt lat="42.966137848254974" lon="18.90786652842393"><ele>1184.5</ele><time>2026-05-03T09:44:06Z</time></trkpt><trkpt lat="42.96641360099319" lon="18.907553531729892"><ele>1173.0</ele><time>2026-05-03T09:44:07Z</time></trkpt><trkpt lat="42.96666707759001" lon="18.90721845614195"><ele>1175.0</ele><time>2026-05-03T09:44:08Z</time></trkpt><trkpt lat="42.966914535300894" lon="18.90687793593616"><ele>1177.0</ele><time>2026-05-03T09:44:09Z</time></trkpt><trkpt lat="42.96717493088162" lon="18.906547366889257"><ele>1177.0</ele><time>2026-05-03T09:44:10Z</time></trkpt><trkpt lat="42.967436994805546" lon="18.906242879015366"><ele>1177.0</ele><time>2026-05-03T09:44:11Z</time></trkpt><trkpt lat="42.96772040383295" lon="18.905990309548354"><ele>1175.5</ele><time>2026-05-03T09:44:12Z</time></trkpt><trkpt lat="42.96801049462939" lon="18.90576515121407"><ele>1174.0</ele><time>2026-05-03T09:44:13Z</time></trkpt><trkpt lat="42.96830807025092" lon="18.905561153288357"><ele>1181.0</ele><time>2026-05-03T09:44:14Z</time></trkpt><trkpt lat="42.96860176828062" lon="18.905383763310503"><ele>1188.0</ele><time>2026-05-03T09:44:15Z</time></trkpt><trkpt lat="42.968893663082966" lon="18.905233202054557"><ele>1191.5</ele><time>2026-05-03T09:44:16Z</time></trkpt><trkpt lat="42.969192992130914" lon="18.90511136357729"><ele>1195.0</ele><time>2026-05-03T09:44:17Z</time></trkpt><trkpt lat="42.969489937503674" lon="18.90500198651171"><ele>1188.0</ele><time>2026-05-03T09:44:18Z</time></trkpt><trkpt lat="42.969781024089244" lon="18.904917185789657"><ele>1181.0</ele><time>2026-05-03T09:44:19Z</time></trkpt><trkpt lat="42.97010202429884" lon="18.904842344272762"><ele>1181.0</ele><time>2026-05-03T09:44:20Z</time></trkpt><trkpt lat="42.97042739472465" lon="18.904767157615414"><ele>1181.0</ele><time>2026-05-03T09:44:21Z</time></trkpt><trkpt lat="42.97074423258848" lon="18.904694743042487"><ele>1186.5</ele><time>2026-05-03T09:44:22Z</time></trkpt><trkpt lat="42.97108051498266" lon="18.904614053839165"><ele>1192.0</ele><time>2026-05-03T09:44:23Z</time></trkpt><trkpt lat="42.97143824826049" lon="18.904530503289752"><ele>1197.0</ele><time>2026-05-03T09:44:24Z</time></trkpt><trkpt lat="42.97179078858755" lon="18.904447593588376"><ele>1202.0</ele><time>2026-05-03T09:44:25Z</time></trkpt><trkpt lat="42.97211310073411" lon="18.90437386804034"><ele>1202.0</ele><time>2026-05-03T09:44:26Z</time></trkpt><trkpt lat="42.972407416136846" lon="18.90430294930003"><ele>1202.0</ele><time>2026-05-03T09:44:27Z</time></trkpt><trkpt lat="42.97270603399508" lon="18.904220539892236"><ele>1199.0</ele><time>2026-05-03T09:44:28Z</time></trkpt><trkpt lat="42.97302199676396" lon="18.904135808848697"><ele>1196.0</ele><time>2026-05-03T09:44:29Z</time></trkpt><trkpt lat="42.97335867464204" lon="18.904056587765524"><ele>1196.0</ele><time>2026-05-03T09:44:30Z</time></trkpt><trkpt lat="42.97372423660803" lon="18.903977166376407"><ele>1196.0</ele><time>2026-05-03T09:44:31Z</time></trkpt><trkpt lat="42.97409662159754" lon="18.903909299732177"><ele>1201.5</ele><time>2026-05-03T09:44:32Z</time></trkpt><trkpt lat="42.974441486491855" lon="18.90385164461953"><ele>1207.0</ele><time>2026-05-03T09:44:33Z</time></trkpt><trkpt lat="42.974748150844306" lon="18.903782154676435"><ele>1209.0</ele><time>2026-05-03T09:44:34Z</time></trkpt><trkpt lat="42.97503845773587" lon="18.903692356068884"><ele>1211.0</ele><time>2026-05-03T09:44:35Z</time></trkpt><trkpt lat="42.97531228670537" lon="18.903571688047954"><ele>1211.0</ele><time>2026-05-03T09:44:36Z</time></trkpt><trkpt lat="42.97557099470201" lon="18.90342608776951"><ele>1211.0</ele><time>2026-05-03T09:44:37Z</time></trkpt><trkpt lat="42.9758204428528" lon="18.903257852496086"><ele>1203.5</ele><time>2026-05-03T09:44:38Z</time></trkpt><trkpt lat="42.97604998159711" lon="18.90306786836676"><ele>1196.0</ele><time>2026-05-03T09:44:39Z</time></trkpt><trkpt lat="42.97626545832962" lon="18.902859426688824"><ele>1196.0</ele><time>2026-05-03T09:44:40Z</time></trkpt><trkpt lat="42.97646782028298" lon="18.902620742186343"><ele>1196.0</ele><time>2026-05-03T09:44:41Z</time></trkpt><trkpt lat="42.97666113484193" lon="18.902349769157006"><ele>1195.0</ele><time>2026-05-03T09:44:42Z</time></trkpt><trkpt lat="42.976842208174546" lon="18.902050362990366"><ele>1194.0</ele><time>2026-05-03T09:44:43Z</time></trkpt><trkpt lat="42.97700257644464" lon="18.901732369863915"><ele>1198.5</ele><time>2026-05-03T09:44:44Z</time></trkpt><trkpt lat="42.97714105150659" lon="18.901392014678645"><ele>1203.0</ele><time>2026-05-03T09:44:45Z</time></trkpt><trkpt lat="42.97726497083165" lon="18.901033444109252"><ele>1198.5</ele><time>2026-05-03T09:44:46Z</time></trkpt><trkpt lat="42.97737202070323" lon="18.90064926519159"><ele>1194.0</ele><time>2026-05-03T09:44:47Z</time></trkpt><trkpt lat="42.97746249466937" lon="18.90026302232734"><ele>1194.0</ele><time>2026-05-03T09:44:48Z</time></trkpt><trkpt lat="42.97755009109188" lon="18.899882142325144"><ele>1194.0</ele><time>2026-05-03T09:44:49Z</time></trkpt><trkpt lat="42.977659324383815" lon="18.899512580046345"><ele>1192.0</ele><time>2026-05-03T09:44:50Z</time></trkpt><trkpt lat="42.97778139902074" lon="18.89915760042673"><ele>1190.0</ele><time>2026-05-03T09:44:51Z</time></trkpt><trkpt lat="42.977919217893835" lon="18.89881446916915"><ele>1190.0</ele><time>2026-05-03T09:44:52Z</time></trkpt><trkpt lat="42.97807181568885" lon="18.89849684771981"><ele>1190.0</ele><time>2026-05-03T09:44:53Z</time></trkpt><trkpt lat="42.978241387367326" lon="18.898207512892906"><ele>1185.0</ele><time>2026-05-03T09:44:54Z</time></trkpt><trkpt lat="42.97842111227135" lon="18.897946776683327"><ele>1180.0</ele><time>2026-05-03T09:44:55Z</time></trkpt><trkpt lat="42.978610660586455" lon="18.897714534337986"><ele>1176.5</ele><time>2026-05-03T09:44:56Z</time></trkpt><trkpt lat="42.978817422549675" lon="18.89750386972943"><ele>1173.0</ele><time>2026-05-03T09:44:57Z</time></trkpt><trkpt lat="42.97903168049467" lon="18.897317151281403"><ele>1167.5</ele><time>2026-05-03T09:44:58Z</time></trkpt><trkpt lat="42.97925755282777" lon="18.897152265647218"><ele>1162.0</ele><time>2026-05-03T09:44:59Z</time></trkpt><trkpt lat="42.979495920550264" lon="18.897013092175687"><ele>1162.0</ele><time>2026-05-03T09:45:00Z</time></trkpt><trkpt lat="42.979742686047906" lon="18.896898323864846"><ele>1162.0</ele><time>2026-05-03T09:45:01Z</time></trkpt><trkpt lat="42.98000085384837" lon="18.89680907686441"><ele>1163.5</ele><time>2026-05-03T09:45:02Z</time></trkpt><trkpt lat="42.98026612104793" lon="18.896741608151466"><ele>1165.0</ele><time>2026-05-03T09:45:03Z</time></trkpt><trkpt lat="42.980543518194914" lon="18.896700354314213"><ele>1165.0</ele><time>2026-05-03T09:45:04Z</time></trkpt><trkpt lat="42.98082355987384" lon="18.89668740110007"><ele>1165.0</ele><time>2026-05-03T09:45:05Z</time></trkpt><trkpt lat="42.98110490613796" lon="18.8966890768358"><ele>1162.0</ele><time>2026-05-03T09:45:06Z</time></trkpt><trkpt lat="42.98138316148414" lon="18.896689236588777"><ele>1159.0</ele><time>2026-05-03T09:45:07Z</time></trkpt><trkpt lat="42.981659479337175" lon="18.89667991739331"><ele>1156.0</ele><time>2026-05-03T09:45:08Z</time></trkpt><trkpt lat="42.98193847765645" lon="18.89666704201239"><ele>1153.0</ele><time>2026-05-03T09:45:09Z</time></trkpt><trkpt lat="42.9822185056158" lon="18.896654926229733"><ele>1153.0</ele><time>2026-05-03T09:45:10Z</time></trkpt><trkpt lat="42.98249494578577" lon="18.896644580541523"><ele>1153.0</ele><time>2026-05-03T09:45:11Z</time></trkpt><trkpt lat="42.98276808059373" lon="18.896643766428554"><ele>1150.5</ele><time>2026-05-03T09:45:12Z</time></trkpt><trkpt lat="42.98304247844636" lon="18.896643471716427"><ele>1148.0</ele><time>2026-05-03T09:45:13Z</time></trkpt><trkpt lat="42.983317074984626" lon="18.89664034125502"><ele>1139.5</ele><time>2026-05-03T09:45:14Z</time></trkpt><trkpt lat="42.98359182578684" lon="18.896635898027643"><ele>1131.0</ele><time>2026-05-03T09:45:15Z</time></trkpt><trkpt lat="42.98386426455754" lon="18.896623617475395"><ele>1131.0</ele><time>2026-05-03T09:45:16Z</time></trkpt><trkpt lat="42.98414097700686" lon="18.896610126162752"><ele>1131.0</ele><time>2026-05-03T09:45:17Z</time></trkpt><trkpt lat="42.98441675800987" lon="18.896596009282828"><ele>1127.5</ele><time>2026-05-03T09:45:18Z</time></trkpt><trkpt lat="42.984690467501835" lon="18.896556011928165"><ele>1124.0</ele><time>2026-05-03T09:45:19Z</time></trkpt><trkpt lat="42.98497257216512" lon="18.89649224631835"><ele>1117.5</ele><time>2026-05-03T09:45:20Z</time></trkpt><trkpt lat="42.985257458276166" lon="18.896409509469194"><ele>1111.0</ele><time>2026-05-03T09:45:21Z</time></trkpt><trkpt lat="42.98553694660023" lon="18.896319490683613"><ele>1111.0</ele><time>2026-05-03T09:45:22Z</time></trkpt><trkpt lat="42.98583003594519" lon="18.896202507800954"><ele>1111.0</ele><time>2026-05-03T09:45:23Z</time></trkpt><trkpt lat="42.9861335431001" lon="18.896061007234213"><ele>1114.0</ele><time>2026-05-03T09:45:24Z</time></trkpt><trkpt lat="42.98644851643495" lon="18.89588472021321"><ele>1117.0</ele><time>2026-05-03T09:45:25Z</time></trkpt><trkpt lat="42.98677432412672" lon="18.895667981494"><ele>1105.5</ele><time>2026-05-03T09:45:26Z</time></trkpt><trkpt lat="42.987080978704526" lon="18.89542977491983"><ele>1094.0</ele><time>2026-05-03T09:45:27Z</time></trkpt><trkpt lat="42.98736940171622" lon="18.8951831715655"><ele>1093.0</ele><time>2026-05-03T09:45:28Z</time></trkpt><trkpt lat="42.98764465457319" lon="18.894926985985425"><ele>1092.0</ele><time>2026-05-03T09:45:29Z</time></trkpt><trkpt lat="42.98790773186394" lon="18.8946652671479"><ele>1092.0</ele><time>2026-05-03T09:45:30Z</time></trkpt><trkpt lat="42.98816789341064" lon="18.894402930838666"><ele>1092.0</ele><time>2026-05-03T09:45:31Z</time></trkpt><trkpt lat="42.98842937701902" lon="18.894150893146204"><ele>1088.5</ele><time>2026-05-03T09:45:32Z</time></trkpt><trkpt lat="42.98869555441082" lon="18.89390098425786"><ele>1085.0</ele><time>2026-05-03T09:45:33Z</time></trkpt><trkpt lat="42.98896397378353" lon="18.893645498764812"><ele>1082.0</ele><time>2026-05-03T09:45:34Z</time></trkpt><trkpt lat="42.98923480913531" lon="18.893385211302512"><ele>1079.0</ele><time>2026-05-03T09:45:35Z</time></trkpt><trkpt lat="42.98950283399475" lon="18.893130668553127"><ele>1079.0</ele><time>2026-05-03T09:45:36Z</time></trkpt><trkpt lat="42.98976572576921" lon="18.892880591665683"><ele>1079.0</ele><time>2026-05-03T09:45:37Z</time></trkpt><trkpt lat="42.990024356598525" lon="18.89263700435916"><ele>1074.5</ele><time>2026-05-03T09:45:38Z</time></trkpt><trkpt lat="42.99028362565435" lon="18.89239669185226"><ele>1070.0</ele><time>2026-05-03T09:45:39Z</time></trkpt><trkpt lat="42.99053344496306" lon="18.892165820062914"><ele>1070.0</ele><time>2026-05-03T09:45:40Z</time></trkpt><trkpt lat="42.990785395134886" lon="18.891947361833047"><ele>1070.0</ele><time>2026-05-03T09:45:41Z</time></trkpt><trkpt lat="42.99105487081136" lon="18.891763113771294"><ele>1075.5</ele><time>2026-05-03T09:45:42Z</time></trkpt><trkpt lat="42.99134028677852" lon="18.891625094920656"><ele>1081.0</ele><time>2026-05-03T09:45:43Z</time></trkpt><trkpt lat="42.99163362973335" lon="18.891529795866667"><ele>1076.5</ele><time>2026-05-03T09:45:44Z</time></trkpt><trkpt lat="42.991931584285815" lon="18.891476872759135"><ele>1072.0</ele><time>2026-05-03T09:45:45Z</time></trkpt><trkpt lat="42.99223690137574" lon="18.89147373200815"><ele>1073.0</ele><time>2026-05-03T09:45:46Z</time></trkpt><trkpt lat="42.99254304747127" lon="18.89151220165428"><ele>1074.0</ele><time>2026-05-03T09:45:47Z</time></trkpt><trkpt lat="42.99282937563636" lon="18.891591447321204"><ele>1074.0</ele><time>2026-05-03T09:45:48Z</time></trkpt><trkpt lat="42.99312298039889" lon="18.891705760628753"><ele>1074.0</ele><time>2026-05-03T09:45:49Z</time></trkpt><trkpt lat="42.993403349131185" lon="18.891853492299965"><ele>1066.0</ele><time>2026-05-03T09:45:50Z</time></trkpt><trkpt lat="42.9936775822327" lon="18.89201627034573"><ele>1058.0</ele><time>2026-05-03T09:45:51Z</time></trkpt><trkpt lat="42.99395599133075" lon="18.892166214152883"><ele>1053.5</ele><time>2026-05-03T09:45:52Z</time></trkpt><trkpt lat="42.99424314832391" lon="18.892280471892494"><ele>1049.0</ele><time>2026-05-03T09:45:53Z</time></trkpt><trkpt lat="42.99453643525797" lon="18.892345343533233"><ele>1049.0</ele><time>2026-05-03T09:45:54Z</time></trkpt><trkpt lat="42.99484031614835" lon="18.892363965214706"><ele>1049.0</ele><time>2026-05-03T09:45:55Z</time></trkpt><trkpt lat="42.995148893037566" lon="18.892315169221796"><ele>1044.5</ele><time>2026-05-03T09:45:56Z</time></trkpt><trkpt lat="42.995450168175346" lon="18.892214196841568"><ele>1040.0</ele><time>2026-05-03T09:45:57Z</time></trkpt><trkpt lat="42.995733683383605" lon="18.89206340165971"><ele>1036.5</ele><time>2026-05-03T09:45:58Z</time></trkpt><trkpt lat="42.99599659376316" lon="18.891862734332058"><ele>1033.0</ele><time>2026-05-03T09:45:59Z</time></trkpt><trkpt lat="42.996224078331416" lon="18.891628125276625"><ele>1033.0</ele><time>2026-05-03T09:46:00Z</time></trkpt><trkpt lat="42.99642807512664" lon="18.891366784574156"><ele>1033.0</ele><time>2026-05-03T09:46:01Z</time></trkpt><trkpt lat="42.99660912605464" lon="18.891074931845186"><ele>1026.0</ele><time>2026-05-03T09:46:02Z</time></trkpt><trkpt lat="42.996762067863834" lon="18.890761379229446"><ele>1019.0</ele><time>2026-05-03T09:46:03Z</time></trkpt><trkpt lat="42.99689762721292" lon="18.89043841551611"><ele>1019.0</ele><time>2026-05-03T09:46:04Z</time></trkpt><trkpt lat="42.99702691356311" lon="18.890122463027062"><ele>1019.0</ele><time>2026-05-03T09:46:05Z</time></trkpt><trkpt lat="42.99715993686686" lon="18.889815302797455"><ele>1022.5</ele><time>2026-05-03T09:46:06Z</time></trkpt><trkpt lat="42.997306143431715" lon="18.889518235573664"><ele>1026.0</ele><time>2026-05-03T09:46:07Z</time></trkpt><trkpt lat="42.99746288986198" lon="18.889231943766163"><ele>1024.5</ele><time>2026-05-03T09:46:08Z</time></trkpt><trkpt lat="42.99762867503655" lon="18.888967642965653"><ele>1023.0</ele><time>2026-05-03T09:46:09Z</time></trkpt><trkpt lat="42.99780287839154" lon="18.888740459188387"><ele>1023.0</ele><time>2026-05-03T09:46:10Z</time></trkpt><trkpt lat="42.99798153848364" lon="18.88856329522508"><ele>1023.0</ele><time>2026-05-03T09:46:11Z</time></trkpt><trkpt lat="42.9981404503192" lon="18.888426974391596"><ele>1023.0</ele><time>2026-05-03T09:46:12Z</time></trkpt><trkpt lat="42.998281739839655" lon="18.8883054494474"><ele>1020.75</ele><time>2026-05-03T09:46:13Z</time></trkpt><trkpt lat="42.99840332881223" lon="18.88818600971618"><ele>1018.5</ele><time>2026-05-03T09:46:14Z</time></trkpt><trkpt lat="42.99851558513197" lon="18.888067869038434"><ele>1016.25</ele><time>2026-05-03T09:46:15Z</time></trkpt><trkpt lat="42.99861922920796" lon="18.887961042587293"><ele>1014.0</ele><time>2026-05-03T09:46:16Z</time></trkpt><trkpt lat="42.998711685835794" lon="18.88787109443716"><ele>1014.0</ele><time>2026-05-03T09:46:17Z</time></trkpt><trkpt lat="42.998797986704915" lon="18.887787829775547"><ele>1014.0000000000001</ele><time>2026-05-03T09:46:18Z</time></trkpt><trkpt lat="42.99887648544122" lon="18.887701732635275"><ele>1014.0000000000001</ele><time>2026-05-03T09:46:19Z</time></trkpt><trkpt lat="42.99894699122727" lon="18.887616383013064"><ele>1014.0</ele><time>2026-05-03T09:46:20Z</time></trkpt><trkpt lat="42.99902729223573" lon="18.887525331965858"><ele>1014.0</ele><time>2026-05-03T09:46:21Z</time></trkpt><trkpt lat="42.99912504936233" lon="18.887430420976248"><ele>1013.5</ele><time>2026-05-03T09:46:22Z</time></trkpt><trkpt lat="42.99923893089583" lon="18.88733682449661"><ele>1013.0</ele><time>2026-05-03T09:46:23Z</time></trkpt><trkpt lat="42.99936035880866" lon="18.88724226330172"><ele>1012.5</ele><time>2026-05-03T09:46:24Z</time></trkpt><trkpt lat="42.99949093803627" lon="18.88714001626071"><ele>1012.0</ele><time>2026-05-03T09:46:25Z</time></trkpt><trkpt lat="42.99961857655423" lon="18.887031541394318"><ele>1012.0</ele><time>2026-05-03T09:46:26Z</time></trkpt><trkpt lat="42.99976043277787" lon="18.886913564924"><ele>1012.0</ele><time>2026-05-03T09:46:27Z</time></trkpt><trkpt lat="42.999910964762144" lon="18.88680115132753"><ele>1012.0</ele><time>2026-05-03T09:46:28Z</time></trkpt><trkpt lat="43.000069482019626" lon="18.886693798373816"><ele>1020.0</ele><time>2026-05-03T09:46:29Z</time></trkpt><trkpt lat="43.000236018664346" lon="18.88659117726138"><ele>1028.0</ele><time>2026-05-03T09:46:30Z</time></trkpt><trkpt lat="43.000408199452494" lon="18.886496138781684"><ele>1036.0</ele><time>2026-05-03T09:46:31Z</time></trkpt><trkpt lat="43.000585003700834" lon="18.886409788794023"><ele>1036.0</ele><time>2026-05-03T09:46:32Z</time></trkpt><trkpt lat="43.00077254872891" lon="18.886332015973053"><ele>1036.0</ele><time>2026-05-03T09:46:33Z</time></trkpt><trkpt lat="43.00096626914026" lon="18.88626080868418"><ele>1036.0</ele><time>2026-05-03T09:46:34Z</time></trkpt><trkpt lat="43.00116418351966" lon="18.886195147167804"><ele>1031.0</ele><time>2026-05-03T09:46:35Z</time></trkpt><trkpt lat="43.00136956099893" lon="18.88613586105422"><ele>1026.0</ele><time>2026-05-03T09:46:36Z</time></trkpt><trkpt lat="43.001572987426535" lon="18.88608075886076"><ele>1021.0</ele><time>2026-05-03T09:46:37Z</time></trkpt><trkpt lat="43.00178613346306" lon="18.886026586815987"><ele>1020.6666666666666</ele><time>2026-05-03T09:46:38Z</time></trkpt><trkpt lat="43.00199233611694" lon="18.88596795572204"><ele>1020.3333333333333</ele><time>2026-05-03T09:46:39Z</time></trkpt><trkpt lat="43.00219974540201" lon="18.88590586950561"><ele>1020.0</ele><time>2026-05-03T09:46:40Z</time></trkpt><trkpt lat="43.002401465584725" lon="18.885833733633273"><ele>1024.3333333333333</ele><time>2026-05-03T09:46:41Z</time></trkpt><trkpt lat="43.00260378182028" lon="18.88575451449247"><ele>1028.6666666666665</ele><time>2026-05-03T09:46:42Z</time></trkpt><trkpt lat="43.002804883942595" lon="18.88566714169632"><ele>1033.0</ele><time>2026-05-03T09:46:43Z</time></trkpt><trkpt lat="43.003004349449235" lon="18.88557250620019"><ele>1033.0</ele><time>2026-05-03T09:46:44Z</time></trkpt><trkpt lat="43.003205382789005" lon="18.88546964744321"><ele>1033.0</ele><time>2026-05-03T09:46:45Z</time></trkpt><trkpt lat="43.003404954200214" lon="18.88535781359419"><ele>1033.0</ele><time>2026-05-03T09:46:46Z</time></trkpt><trkpt lat="43.00360568308791" lon="18.88524109518317"><ele>1033.0</ele><time>2026-05-03T09:46:47Z</time></trkpt><trkpt lat="43.00380783176291" lon="18.88512327619157"><ele>1033.0</ele><time>2026-05-03T09:46:48Z</time></trkpt><trkpt lat="43.00401115557188" lon="18.88500809934178"><ele>1033.0</ele><time>2026-05-03T09:46:49Z</time></trkpt><trkpt lat="43.00421363808472" lon="18.88489752485316"><ele>1033.0</ele><time>2026-05-03T09:46:50Z</time></trkpt><trkpt lat="43.004422314765115" lon="18.884791216776176"><ele>1033.0</ele><time>2026-05-03T09:46:51Z</time></trkpt><trkpt lat="43.004639158796245" lon="18.884709365635583"><ele>1033.0</ele><time>2026-05-03T09:46:52Z</time></trkpt><trkpt lat="43.00486096911534" lon="18.88467593205677"><ele>1032.0</ele><time>2026-05-03T09:46:53Z</time></trkpt><trkpt lat="43.005083686529645" lon="18.884686484211418"><ele>1031.0</ele><time>2026-05-03T09:46:54Z</time></trkpt><trkpt lat="43.00529796645345" lon="18.884728690321143"><ele>1030.0</ele><time>2026-05-03T09:46:55Z</time></trkpt><trkpt lat="43.005512491622156" lon="18.884753637468883"><ele>1030.0</ele><time>2026-05-03T09:46:56Z</time></trkpt><trkpt lat="43.005727754497904" lon="18.884775963829004"><ele>1030.0</ele><time>2026-05-03T09:46:57Z</time></trkpt><trkpt lat="43.005943453851046" lon="18.88479906603517"><ele>1030.0</ele><time>2026-05-03T09:46:58Z</time></trkpt><trkpt lat="43.00615378197578" lon="18.88481425006486"><ele>1030.6666666666665</ele><time>2026-05-03T09:46:59Z</time></trkpt><trkpt lat="43.00636936873283" lon="18.884802087513457"><ele>1031.3333333333333</ele><time>2026-05-03T09:47:00Z</time></trkpt><trkpt lat="43.006582482934235" lon="18.884747179329487"><ele>1032.0</ele><time>2026-05-03T09:47:01Z</time></trkpt><trkpt lat="43.00678663168867" lon="18.884653519803358"><ele>1032.6666666666667</ele><time>2026-05-03T09:47:02Z</time></trkpt><trkpt lat="43.00698122071831" lon="18.88452853247469"><ele>1033.3333333333335</ele><time>2026-05-03T09:47:03Z</time></trkpt><trkpt lat="43.007168745973686" lon="18.884382635593745"><ele>1034.0</ele><time>2026-05-03T09:47:04Z</time></trkpt><trkpt lat="43.00735235700546" lon="18.884216537242015"><ele>1036.0</ele><time>2026-05-03T09:47:05Z</time></trkpt><trkpt lat="43.00752614046007" lon="18.884027749093306"><ele>1038.0</ele><time>2026-05-03T09:47:06Z</time></trkpt><trkpt lat="43.00768187337606" lon="18.88381280917498"><ele>1040.0</ele><time>2026-05-03T09:47:07Z</time></trkpt><trkpt lat="43.007824238247416" lon="18.883579642909908"><ele>1043.6666666666667</ele><time>2026-05-03T09:47:08Z</time></trkpt><trkpt lat="43.007954051666566" lon="18.883334484207335"><ele>1047.3333333333333</ele><time>2026-05-03T09:47:09Z</time></trkpt><trkpt lat="43.00807388394596" lon="18.88308210917517"><ele>1051.0</ele><time>2026-05-03T09:47:10Z</time></trkpt><trkpt lat="43.00818068740151" lon="18.882817235734283"><ele>1052.0</ele><time>2026-05-03T09:47:11Z</time></trkpt><trkpt lat="43.00825970678932" lon="18.882543204611483"><ele>1053.0</ele><time>2026-05-03T09:47:12Z</time></trkpt><trkpt lat="43.00831823389585" lon="18.882250533233425"><ele>1054.0</ele><time>2026-05-03T09:47:13Z</time></trkpt><trkpt lat="43.00835492926301" lon="18.881945910558258"><ele>1049.0</ele><time>2026-05-03T09:47:14Z</time></trkpt><trkpt lat="43.00837392338329" lon="18.881635702770684"><ele>1044.0</ele><time>2026-05-03T09:47:15Z</time></trkpt><trkpt lat="43.00838630656362" lon="18.881324649672717"><ele>1044.0</ele><time>2026-05-03T09:47:16Z</time></trkpt><trkpt lat="43.00839827242892" lon="18.881011584535873"><ele>1044.0</ele><time>2026-05-03T09:47:17Z</time></trkpt><trkpt lat="43.00841732353039" lon="18.88069935091618"><ele>1047.0</ele><time>2026-05-03T09:47:18Z</time></trkpt><trkpt lat="43.008440404612564" lon="18.880381701178752"><ele>1050.0</ele><time>2026-05-03T09:47:19Z</time></trkpt><trkpt lat="43.00847304368418" lon="18.880070160374284"><ele>1051.5</ele><time>2026-05-03T09:47:20Z</time></trkpt><trkpt lat="43.00851186028279" lon="18.879753060228094"><ele>1053.0</ele><time>2026-05-03T09:47:21Z</time></trkpt><trkpt lat="43.008583900992996" lon="18.87944597321499"><ele>1056.5</ele><time>2026-05-03T09:47:22Z</time></trkpt><trkpt lat="43.0086801198827" lon="18.879150163067862"><ele>1060.0</ele><time>2026-05-03T09:47:23Z</time></trkpt><trkpt lat="43.008801565830474" lon="18.8788695534511"><ele>1060.0</ele><time>2026-05-03T09:47:24Z</time></trkpt><trkpt lat="43.008947978345795" lon="18.878615245876993"><ele>1060.0</ele><time>2026-05-03T09:47:25Z</time></trkpt><trkpt lat="43.00910578559164" lon="18.878380585629852"><ele>1054.5</ele><time>2026-05-03T09:47:26Z</time></trkpt><trkpt lat="43.00926818399979" lon="18.87815745345563"><ele>1049.0</ele><time>2026-05-03T09:47:27Z</time></trkpt><trkpt lat="43.00943316908551" lon="18.8779385220507"><ele>1049.0</ele><time>2026-05-03T09:47:28Z</time></trkpt><trkpt lat="43.009596844613824" lon="18.877716457657638"><ele>1049.0</ele><time>2026-05-03T09:47:29Z</time></trkpt><trkpt lat="43.009761070765904" lon="18.877491637037437"><ele>1045.5</ele><time>2026-05-03T09:47:30Z</time></trkpt><trkpt lat="43.00992920439856" lon="18.877263500372923"><ele>1042.0</ele><time>2026-05-03T09:47:31Z</time></trkpt><trkpt lat="43.01009728887656" lon="18.87702891455436"><ele>1042.0</ele><time>2026-05-03T09:47:32Z</time></trkpt><trkpt lat="43.010255710546375" lon="18.876781634142855"><ele>1042.0</ele><time>2026-05-03T09:47:33Z</time></trkpt><trkpt lat="43.01039559974968" lon="18.87650912619982"><ele>1052.5</ele><time>2026-05-03T09:47:34Z</time></trkpt><trkpt lat="43.01050819358906" lon="18.87621699870243"><ele>1063.0</ele><time>2026-05-03T09:47:35Z</time></trkpt><trkpt lat="43.01059513813953" lon="18.87590800841516"><ele>1069.0</ele><time>2026-05-03T09:47:36Z</time></trkpt><trkpt lat="43.01066089804591" lon="18.87558545462567"><ele>1075.0</ele><time>2026-05-03T09:47:37Z</time></trkpt><trkpt lat="43.01070965210104" lon="18.87525262492391"><ele>1080.5</ele><time>2026-05-03T09:47:38Z</time></trkpt><trkpt lat="43.01074826782678" lon="18.874923665887586"><ele>1086.0</ele><time>2026-05-03T09:47:39Z</time></trkpt><trkpt lat="43.01078253485382" lon="18.874593681819157"><ele>1089.0</ele><time>2026-05-03T09:47:40Z</time></trkpt><trkpt lat="43.01081675162451" lon="18.87426485082986"><ele>1092.0</ele><time>2026-05-03T09:47:41Z</time></trkpt><trkpt lat="43.01086349172799" lon="18.873940630859135"><ele>1081.5</ele><time>2026-05-03T09:47:42Z</time></trkpt><trkpt lat="43.010927745171635" lon="18.87362311452082"><ele>1071.0</ele><time>2026-05-03T09:47:43Z</time></trkpt><trkpt lat="43.010998361350886" lon="18.87332473265656"><ele>1071.0</ele><time>2026-05-03T09:47:44Z</time></trkpt><trkpt lat="43.011081980288346" lon="18.873044405421513"><ele>1071.0</ele><time>2026-05-03T09:47:45Z</time></trkpt><trkpt lat="43.011189637441234" lon="18.872780341993806"><ele>1071.0</ele><time>2026-05-03T09:47:46Z</time></trkpt><trkpt lat="43.01134622166633" lon="18.872558162802967"><ele>1066.5</ele><time>2026-05-03T09:47:47Z</time></trkpt><trkpt lat="43.01154589262495" lon="18.872337532793114"><ele>1062.0</ele><time>2026-05-03T09:47:48Z</time></trkpt><trkpt lat="43.01175511114528" lon="18.872150803239112"><ele>1062.0</ele><time>2026-05-03T09:47:49Z</time></trkpt><trkpt lat="43.01196809735681" lon="18.871971608768423"><ele>1062.0</ele><time>2026-05-03T09:47:50Z</time></trkpt><trkpt lat="43.01218056038384" lon="18.871795213968717"><ele>1064.5</ele><time>2026-05-03T09:47:51Z</time></trkpt><trkpt lat="43.012406754377196" lon="18.87163231735467"><ele>1067.0</ele><time>2026-05-03T09:47:52Z</time></trkpt><trkpt lat="43.01264331253009" lon="18.871494356454555"><ele>1067.0</ele><time>2026-05-03T09:47:53Z</time></trkpt><trkpt lat="43.01288294410648" lon="18.871362920212817"><ele>1067.0</ele><time>2026-05-03T09:47:54Z</time></trkpt><trkpt lat="43.013119510383504" lon="18.87122229411"><ele>1066.0</ele><time>2026-05-03T09:47:55Z</time></trkpt><trkpt lat="43.0133502296676" lon="18.871071823734788"><ele>1065.0</ele><time>2026-05-03T09:47:56Z</time></trkpt><trkpt lat="43.01356834655442" lon="18.870904674751067"><ele>1073.0</ele><time>2026-05-03T09:47:57Z</time></trkpt><trkpt lat="43.01377835855033" lon="18.870713384994126"><ele>1081.0</ele><time>2026-05-03T09:47:58Z</time></trkpt><trkpt lat="43.01396895074623" lon="18.870494254039166"><ele>1081.0</ele><time>2026-05-03T09:47:59Z</time></trkpt><trkpt lat="43.01414792117847" lon="18.87025125184212"><ele>1081.0</ele><time>2026-05-03T09:48:00Z</time></trkpt><trkpt lat="43.01431745629145" lon="18.86998971463786"><ele>1085.5</ele><time>2026-05-03T09:48:01Z</time></trkpt><trkpt lat="43.01448754534176" lon="18.869727096868555"><ele>1090.0</ele><time>2026-05-03T09:48:02Z</time></trkpt><trkpt lat="43.01466610495737" lon="18.869477120636585"><ele>1088.0</ele><time>2026-05-03T09:48:03Z</time></trkpt><trkpt lat="43.01485623962793" lon="18.86924284755362"><ele>1086.0</ele><time>2026-05-03T09:48:04Z</time></trkpt><trkpt lat="43.015052711076834" lon="18.869019852099985"><ele>1086.0</ele><time>2026-05-03T09:48:05Z</time></trkpt><trkpt lat="43.01525078730209" lon="18.86880403980676"><ele>1086.0</ele><time>2026-05-03T09:48:06Z</time></trkpt><trkpt lat="43.015455290715614" lon="18.868591696995487"><ele>1087.0</ele><time>2026-05-03T09:48:07Z</time></trkpt><trkpt lat="43.015658506856724" lon="18.868384863810476"><ele>1088.0</ele><time>2026-05-03T09:48:08Z</time></trkpt><trkpt lat="43.01586078852871" lon="18.86818179581056"><ele>1088.0</ele><time>2026-05-03T09:48:09Z</time></trkpt><trkpt lat="43.01607331673168" lon="18.867982989797916"><ele>1088.0</ele><time>2026-05-03T09:48:10Z</time></trkpt><trkpt lat="43.01629528143527" lon="18.867788352205437"><ele>1088.5</ele><time>2026-05-03T09:48:11Z</time></trkpt><trkpt lat="43.0165283394622" lon="18.867596509908104"><ele>1089.0</ele><time>2026-05-03T09:48:12Z</time></trkpt><trkpt lat="43.01677321882345" lon="18.86740836884133"><ele>1089.0</ele><time>2026-05-03T09:48:13Z</time></trkpt><trkpt lat="43.01701134271676" lon="18.86722695132828"><ele>1089.0</ele><time>2026-05-03T09:48:14Z</time></trkpt><trkpt lat="43.01726469114167" lon="18.867054176386027"><ele>1086.0</ele><time>2026-05-03T09:48:15Z</time></trkpt><trkpt lat="43.01751805289025" lon="18.866892793917355"><ele>1083.0</ele><time>2026-05-03T09:48:16Z</time></trkpt><trkpt lat="43.017774038485356" lon="18.866740348425175"><ele>1091.5</ele><time>2026-05-03T09:48:17Z</time></trkpt><trkpt lat="43.01803314476637" lon="18.866595073750393"><ele>1100.0</ele><time>2026-05-03T09:48:18Z</time></trkpt><trkpt lat="43.01827260112811" lon="18.866470857702456"><ele>1098.5</ele><time>2026-05-03T09:48:19Z</time></trkpt><trkpt lat="43.01849632624891" lon="18.866349671453378"><ele>1097.0</ele><time>2026-05-03T09:48:20Z</time></trkpt><trkpt lat="43.01871176927502" lon="18.866231704002022"><ele>1097.0</ele><time>2026-05-03T09:48:21Z</time></trkpt><trkpt lat="43.01891772233223" lon="18.86611800563299"><ele>1097.0</ele><time>2026-05-03T09:48:22Z</time></trkpt><trkpt lat="43.01911492173962" lon="18.866008849143775"><ele>1097.0</ele><time>2026-05-03T09:48:23Z</time></trkpt><trkpt lat="43.019314648855676" lon="18.865898426320335"><ele>1100.3333333333335</ele><time>2026-05-03T09:48:24Z</time></trkpt><trkpt lat="43.01951464613246" lon="18.865786097037034"><ele>1103.6666666666667</ele><time>2026-05-03T09:48:25Z</time></trkpt><trkpt lat="43.019708200062105" lon="18.865676197815073"><ele>1107.0</ele><time>2026-05-03T09:48:26Z</time></trkpt><trkpt lat="43.01989561261944" lon="18.86556310091881"><ele>1108.3333333333333</ele><time>2026-05-03T09:48:27Z</time></trkpt><trkpt lat="43.020074824180504" lon="18.865450953207166"><ele>1109.6666666666665</ele><time>2026-05-03T09:48:28Z</time></trkpt><trkpt lat="43.020258640731164" lon="18.86533180889435"><ele>1111.0</ele><time>2026-05-03T09:48:29Z</time></trkpt><trkpt lat="43.020440456757285" lon="18.865208439335802"><ele>1111.0</ele><time>2026-05-03T09:48:30Z</time></trkpt><trkpt lat="43.02062391400163" lon="18.865084927805096"><ele>1111.0</ele><time>2026-05-03T09:48:31Z</time></trkpt><trkpt lat="43.02081009871524" lon="18.864956047552383"><ele>1111.0</ele><time>2026-05-03T09:48:32Z</time></trkpt><trkpt lat="43.020997376097064" lon="18.864820236496943"><ele>1109.6666666666665</ele><time>2026-05-03T09:48:33Z</time></trkpt><trkpt lat="43.02118737000354" lon="18.864677715138352"><ele>1108.3333333333333</ele><time>2026-05-03T09:48:34Z</time></trkpt><trkpt lat="43.02137907945835" lon="18.864532309429233"><ele>1107.0</ele><time>2026-05-03T09:48:35Z</time></trkpt><trkpt lat="43.02157022223431" lon="18.864382040412004"><ele>1104.5</ele><time>2026-05-03T09:48:36Z</time></trkpt><trkpt lat="43.02176266568932" lon="18.864224375020967"><ele>1102.0</ele><time>2026-05-03T09:48:37Z</time></trkpt><trkpt lat="43.021954426304895" lon="18.86405944731943"><ele>1102.0</ele><time>2026-05-03T09:48:38Z</time></trkpt><trkpt lat="43.022144766332914" lon="18.86389625084561"><ele>1102.0</ele><time>2026-05-03T09:48:39Z</time></trkpt><trkpt lat="43.02233620358174" lon="18.86373136227625"><ele>1102.5</ele><time>2026-05-03T09:48:40Z</time></trkpt><trkpt lat="43.02252457718896" lon="18.86356185728779"><ele>1103.0</ele><time>2026-05-03T09:48:41Z</time></trkpt><trkpt lat="43.022711296915276" lon="18.863382686437003"><ele>1103.0</ele><time>2026-05-03T09:48:42Z</time></trkpt><trkpt lat="43.02289131165868" lon="18.863203829495237"><ele>1103.0</ele><time>2026-05-03T09:48:43Z</time></trkpt><trkpt lat="43.02307234708066" lon="18.86302449509725"><ele>1103.0</ele><time>2026-05-03T09:48:44Z</time></trkpt><trkpt lat="43.023250366651226" lon="18.862845996546202"><ele>1102.0</ele><time>2026-05-03T09:48:45Z</time></trkpt><trkpt lat="43.023422078894264" lon="18.862667549817388"><ele>1101.0</ele><time>2026-05-03T09:48:46Z</time></trkpt><trkpt lat="43.02359328093363" lon="18.862489296629903"><ele>1100.0</ele><time>2026-05-03T09:48:47Z</time></trkpt><trkpt lat="43.02376476092553" lon="18.862311808588007"><ele>1100.0</ele><time>2026-05-03T09:48:48Z</time></trkpt><trkpt lat="43.02393743518453" lon="18.862132837486328"><ele>1100.0</ele><time>2026-05-03T09:48:49Z</time></trkpt><trkpt lat="43.02411008236722" lon="18.861953752057293"><ele>1100.0</ele><time>2026-05-03T09:48:50Z</time></trkpt><trkpt lat="43.02428623094001" lon="18.861770901000167"><ele>1100.0</ele><time>2026-05-03T09:48:51Z</time></trkpt><trkpt lat="43.02446397786143" lon="18.861583826181533"><ele>1100.0</ele><time>2026-05-03T09:48:52Z</time></trkpt><trkpt lat="43.02464465596026" lon="18.86139308902435"><ele>1100.0</ele><time>2026-05-03T09:48:53Z</time></trkpt><trkpt lat="43.0248291102794" lon="18.861199361753208"><ele>1100.0</ele><time>2026-05-03T09:48:54Z</time></trkpt><trkpt lat="43.02501762422933" lon="18.86100513276358"><ele>1099.0</ele><time>2026-05-03T09:48:55Z</time></trkpt><trkpt lat="43.02520773501245" lon="18.860813639542947"><ele>1098.0</ele><time>2026-05-03T09:48:56Z</time></trkpt><trkpt lat="43.02540461085696" lon="18.86062038304288"><ele>1098.0</ele><time>2026-05-03T09:48:57Z</time></trkpt><trkpt lat="43.025598506011136" lon="18.860434427557905"><ele>1098.0</ele><time>2026-05-03T09:48:58Z</time></trkpt><trkpt lat="43.025798615632326" lon="18.860247840306762"><ele>1097.5</ele><time>2026-05-03T09:48:59Z</time></trkpt><trkpt lat="43.026004655439074" lon="18.86005855788829"><ele>1097.0</ele><time>2026-05-03T09:49:00Z</time></trkpt><trkpt lat="43.026215307916566" lon="18.8598675181768"><ele>1097.0</ele><time>2026-05-03T09:49:01Z</time></trkpt><trkpt lat="43.026430836041435" lon="18.859677276430805"><ele>1097.0</ele><time>2026-05-03T09:49:02Z</time></trkpt><trkpt lat="43.02664840638962" lon="18.859490338976393"><ele>1099.0</ele><time>2026-05-03T09:49:03Z</time></trkpt><trkpt lat="43.026863640859105" lon="18.85931828043318"><ele>1101.0</ele><time>2026-05-03T09:49:04Z</time></trkpt><trkpt lat="43.02708488312877" lon="18.85914524281579"><ele>1101.5</ele><time>2026-05-03T09:49:05Z</time></trkpt><trkpt lat="43.02730421329247" lon="18.85898210158764"><ele>1102.0</ele><time>2026-05-03T09:49:06Z</time></trkpt><trkpt lat="43.027524033877135" lon="18.85881913706974"><ele>1103.5</ele><time>2026-05-03T09:49:07Z</time></trkpt><trkpt lat="43.027740445083495" lon="18.85866785792679"><ele>1105.0</ele><time>2026-05-03T09:49:08Z</time></trkpt><trkpt lat="43.027954227829866" lon="18.85852707933481"><ele>1105.0</ele><time>2026-05-03T09:49:09Z</time></trkpt><trkpt lat="43.02816731952123" lon="18.858386775880877"><ele>1105.0</ele><time>2026-05-03T09:49:10Z</time></trkpt><trkpt lat="43.028381219855895" lon="18.8582491428267"><ele>1112.0</ele><time>2026-05-03T09:49:11Z</time></trkpt><trkpt lat="43.02860075583308" lon="18.858112782710585"><ele>1119.0</ele><time>2026-05-03T09:49:12Z</time></trkpt><trkpt lat="43.0288298984063" lon="18.857973768082605"><ele>1119.0</ele><time>2026-05-03T09:49:13Z</time></trkpt><trkpt lat="43.029064361118685" lon="18.85784149719211"><ele>1119.0</ele><time>2026-05-03T09:49:14Z</time></trkpt><trkpt lat="43.029303099653575" lon="18.85770997738249"><ele>1125.0</ele><time>2026-05-03T09:49:15Z</time></trkpt><trkpt lat="43.029543315499616" lon="18.857580565025234"><ele>1131.0</ele><time>2026-05-03T09:49:16Z</time></trkpt><trkpt lat="43.02979045427498" lon="18.857455222788644"><ele>1133.5</ele><time>2026-05-03T09:49:17Z</time></trkpt><trkpt lat="43.0300459361757" lon="18.857331704433342"><ele>1136.0</ele><time>2026-05-03T09:49:18Z</time></trkpt><trkpt lat="43.0303066388239" lon="18.85720740651494"><ele>1136.0</ele><time>2026-05-03T09:49:19Z</time></trkpt><trkpt lat="43.030586196489544" lon="18.857081640776666"><ele>1136.0</ele><time>2026-05-03T09:49:20Z</time></trkpt><trkpt lat="43.03087544439429" lon="18.856956341899465"><ele>1139.5</ele><time>2026-05-03T09:49:21Z</time></trkpt><trkpt lat="43.03116369838928" lon="18.856841123179972"><ele>1143.0</ele><time>2026-05-03T09:49:22Z</time></trkpt><trkpt lat="43.0314510157407" lon="18.8567389123178"><ele>1143.5</ele><time>2026-05-03T09:49:23Z</time></trkpt><trkpt lat="43.03172852685339" lon="18.856646575257653"><ele>1144.0</ele><time>2026-05-03T09:49:24Z</time></trkpt><trkpt lat="43.03200875012315" lon="18.85655665499146"><ele>1144.0</ele><time>2026-05-03T09:49:25Z</time></trkpt><trkpt lat="43.032289920248154" lon="18.856477197753243"><ele>1144.0</ele><time>2026-05-03T09:49:26Z</time></trkpt><trkpt lat="43.03257603114004" lon="18.85640271229299"><ele>1147.5</ele><time>2026-05-03T09:49:27Z</time></trkpt><trkpt lat="43.032857641405435" lon="18.856339509953614"><ele>1151.0</ele><time>2026-05-03T09:49:28Z</time></trkpt><trkpt lat="43.03314349365697" lon="18.856277362515566"><ele>1152.5</ele><time>2026-05-03T09:49:29Z</time></trkpt><trkpt lat="43.03343158706463" lon="18.856215390536097"><ele>1154.0</ele><time>2026-05-03T09:49:30Z</time></trkpt><trkpt lat="43.033722484901276" lon="18.856155191874223"><ele>1154.0</ele><time>2026-05-03T09:49:31Z</time></trkpt><trkpt lat="43.03400980031124" lon="18.856103831082734"><ele>1154.0</ele><time>2026-05-03T09:49:32Z</time></trkpt><trkpt lat="43.03430202832121" lon="18.856062792480152"><ele>1153.0</ele><time>2026-05-03T09:49:33Z</time></trkpt><trkpt lat="43.03459915816073" lon="18.85602844108635"><ele>1152.0</ele><time>2026-05-03T09:49:34Z</time></trkpt><trkpt lat="43.034909949836404" lon="18.855991395245645"><ele>1152.0</ele><time>2026-05-03T09:49:35Z</time></trkpt><trkpt lat="43.03522924426275" lon="18.855956251471873"><ele>1152.0</ele><time>2026-05-03T09:49:36Z</time></trkpt><trkpt lat="43.03555375003186" lon="18.85592302122988"><ele>1153.5</ele><time>2026-05-03T09:49:37Z</time></trkpt><trkpt lat="43.03589763837698" lon="18.855882043785485"><ele>1155.0</ele><time>2026-05-03T09:49:38Z</time></trkpt><trkpt lat="43.03624959221756" lon="18.855829878473667"><ele>1155.0</ele><time>2026-05-03T09:49:39Z</time></trkpt><trkpt lat="43.03662008889647" lon="18.855758242416627"><ele>1155.0</ele><time>2026-05-03T09:49:40Z</time></trkpt><trkpt lat="43.03700548332688" lon="18.85567175167414"><ele>1155.0</ele><time>2026-05-03T09:49:41Z</time></trkpt><trkpt lat="43.03740421511688" lon="18.855573567244"><ele>1155.0</ele><time>2026-05-03T09:49:42Z</time></trkpt><trkpt lat="43.03779462149329" lon="18.855458082021446"><ele>1155.0</ele><time>2026-05-03T09:49:43Z</time></trkpt><trkpt lat="43.03817728269955" lon="18.85533819060539"><ele>1155.0</ele><time>2026-05-03T09:49:44Z</time></trkpt><trkpt lat="43.03853821791319" lon="18.85521708963238"><ele>1157.5</ele><time>2026-05-03T09:49:45Z</time></trkpt><trkpt lat="43.038867478939615" lon="18.855093270434203"><ele>1160.0</ele><time>2026-05-03T09:49:46Z</time></trkpt><trkpt lat="43.039189822992235" lon="18.85496502247275"><ele>1160.0</ele><time>2026-05-03T09:49:47Z</time></trkpt><trkpt lat="43.0395143525234" lon="18.85481697766238"><ele>1160.0</ele><time>2026-05-03T09:49:48Z</time></trkpt><trkpt lat="43.03983738062877" lon="18.85465306021497"><ele>1160.0</ele><time>2026-05-03T09:49:49Z</time></trkpt><trkpt lat="43.04015706214133" lon="18.854486492198905"><ele>1160.0</ele><time>2026-05-03T09:49:50Z</time></trkpt><trkpt lat="43.0404761845494" lon="18.854316337074398"><ele>1158.5</ele><time>2026-05-03T09:49:51Z</time></trkpt><trkpt lat="43.04078843870075" lon="18.854138507066704"><ele>1157.0</ele><time>2026-05-03T09:49:52Z</time></trkpt><trkpt lat="43.04109012193025" lon="18.853952855638564"><ele>1155.0</ele><time>2026-05-03T09:49:53Z</time></trkpt><trkpt lat="43.04137534366821" lon="18.85376786087096"><ele>1153.0</ele><time>2026-05-03T09:49:54Z</time></trkpt><trkpt lat="43.04164037696076" lon="18.853586022685292"><ele>1153.5</ele><time>2026-05-03T09:49:55Z</time></trkpt><trkpt lat="43.041888891473825" lon="18.853409615141402"><ele>1154.0</ele><time>2026-05-03T09:49:56Z</time></trkpt><trkpt lat="43.04213232145175" lon="18.853229797399642"><ele>1154.0</ele><time>2026-05-03T09:49:57Z</time></trkpt><trkpt lat="43.0423722380951" lon="18.85304458458683"><ele>1154.0</ele><time>2026-05-03T09:49:58Z</time></trkpt><trkpt lat="43.04260703887221" lon="18.852862196305292"><ele>1153.5</ele><time>2026-05-03T09:49:59Z</time></trkpt><trkpt lat="43.04284911195928" lon="18.85268088995934"><ele>1153.0</ele><time>2026-05-03T09:50:00Z</time></trkpt><trkpt lat="43.043086547697335" lon="18.852501792608475"><ele>1149.0</ele><time>2026-05-03T09:50:01Z</time></trkpt><trkpt lat="43.043321729801306" lon="18.852313485274756"><ele>1145.0</ele><time>2026-05-03T09:50:02Z</time></trkpt><trkpt lat="43.04356090798873" lon="18.852127895900235"><ele>1145.0</ele><time>2026-05-03T09:50:03Z</time></trkpt><trkpt lat="43.04380547223165" lon="18.851952038737878"><ele>1145.0</ele><time>2026-05-03T09:50:04Z</time></trkpt><trkpt lat="43.04405699239296" lon="18.85179510796219"><ele>1139.5</ele><time>2026-05-03T09:50:05Z</time></trkpt><trkpt lat="43.04431559474187" lon="18.851668383414147"><ele>1134.0</ele><time>2026-05-03T09:50:06Z</time></trkpt><trkpt lat="43.04457740890529" lon="18.851561716725886"><ele>1134.0</ele><time>2026-05-03T09:50:07Z</time></trkpt><trkpt lat="43.04484304327567" lon="18.851475387874224"><ele>1134.0</ele><time>2026-05-03T09:50:08Z</time></trkpt><trkpt lat="43.04511664186631" lon="18.851408126369684"><ele>1132.0</ele><time>2026-05-03T09:50:09Z</time></trkpt><trkpt lat="43.0453920829479" lon="18.851372954560542"><ele>1130.0</ele><time>2026-05-03T09:50:10Z</time></trkpt><trkpt lat="43.045673748273856" lon="18.851367369775485"><ele>1126.0</ele><time>2026-05-03T09:50:11Z</time></trkpt><trkpt lat="43.04596674502341" lon="18.8513733107396"><ele>1122.0</ele><time>2026-05-03T09:50:12Z</time></trkpt><trkpt lat="43.04626307726982" lon="18.85138832470653"><ele>1122.0</ele><time>2026-05-03T09:50:13Z</time></trkpt><trkpt lat="43.0465643013743" lon="18.851423963290564"><ele>1122.0</ele><time>2026-05-03T09:50:14Z</time></trkpt><trkpt lat="43.046859190649286" lon="18.85145660214932"><ele>1117.0</ele><time>2026-05-03T09:50:15Z</time></trkpt><trkpt lat="43.04713236080201" lon="18.851482298639255"><ele>1112.0</ele><time>2026-05-03T09:50:16Z</time></trkpt><trkpt lat="43.04740428680107" lon="18.851471441655924"><ele>1110.0</ele><time>2026-05-03T09:50:17Z</time></trkpt><trkpt lat="43.04768262832881" lon="18.851404974083696"><ele>1108.0</ele><time>2026-05-03T09:50:18Z</time></trkpt><trkpt lat="43.04795344363006" lon="18.851283274205038"><ele>1108.0</ele><time>2026-05-03T09:50:19Z</time></trkpt><trkpt lat="43.0482146783745" lon="18.851117263313903"><ele>1108.0</ele><time>2026-05-03T09:50:20Z</time></trkpt><trkpt lat="43.04844824356633" lon="18.850916717982468"><ele>1107.5</ele><time>2026-05-03T09:50:21Z</time></trkpt><trkpt lat="43.048656247088445" lon="18.85068723055596"><ele>1107.0</ele><time>2026-05-03T09:50:22Z</time></trkpt><trkpt lat="43.04884506629903" lon="18.850423972414625"><ele>1107.0</ele><time>2026-05-03T09:50:23Z</time></trkpt><trkpt lat="43.04901182496559" lon="18.850131877508666"><ele>1107.0</ele><time>2026-05-03T09:50:24Z</time></trkpt><trkpt lat="43.04916643397814" lon="18.849826026365882"><ele>1106.0</ele><time>2026-05-03T09:50:25Z</time></trkpt><trkpt lat="43.04931155044383" lon="18.849512654003888"><ele>1105.0</ele><time>2026-05-03T09:50:26Z</time></trkpt><trkpt lat="43.04944091144326" lon="18.849181535559243"><ele>1105.0</ele><time>2026-05-03T09:50:27Z</time></trkpt><trkpt lat="43.049553363989155" lon="18.848837390930647"><ele>1105.0</ele><time>2026-05-03T09:50:28Z</time></trkpt><trkpt lat="43.049647729623445" lon="18.848477389313828"><ele>1109.5</ele><time>2026-05-03T09:50:29Z</time></trkpt><trkpt lat="43.049728311485005" lon="18.84810844247018"><ele>1114.0</ele><time>2026-05-03T09:50:30Z</time></trkpt><trkpt lat="43.049807263170635" lon="18.847733955916535"><ele>1119.0</ele><time>2026-05-03T09:50:31Z</time></trkpt><trkpt lat="43.049884618537476" lon="18.847364120633944"><ele>1124.0</ele><time>2026-05-03T09:50:32Z</time></trkpt><trkpt lat="43.04997133508383" lon="18.846988808959555"><ele>1108.5</ele><time>2026-05-03T09:50:33Z</time></trkpt><trkpt lat="43.05007441884639" lon="18.846624164395354"><ele>1093.0</ele><time>2026-05-03T09:50:34Z</time></trkpt><trkpt lat="43.050199767309444" lon="18.846278623661426"><ele>1097.0</ele><time>2026-05-03T09:50:35Z</time></trkpt><trkpt lat="43.050344391970555" lon="18.845941164141745"><ele>1101.0</ele><time>2026-05-03T09:50:36Z</time></trkpt><trkpt lat="43.0504985061411" lon="18.84561595750082"><ele>1101.0</ele><time>2026-05-03T09:50:37Z</time></trkpt><trkpt lat="43.050655397807084" lon="18.84529469728192"><ele>1101.0</ele><time>2026-05-03T09:50:38Z</time></trkpt><trkpt lat="43.05080665014553" lon="18.844971835690227"><ele>1092.0</ele><time>2026-05-03T09:50:39Z</time></trkpt><trkpt lat="43.05093138683504" lon="18.84463619591162"><ele>1083.0</ele><time>2026-05-03T09:50:40Z</time></trkpt><trkpt lat="43.05102897298708" lon="18.8442812560856"><ele>1083.0</ele><time>2026-05-03T09:50:41Z</time></trkpt><trkpt lat="43.051102855618446" lon="18.843898640183532"><ele>1083.0</ele><time>2026-05-03T09:50:42Z</time></trkpt><trkpt lat="43.05116297479397" lon="18.843502311338877"><ele>1085.5</ele><time>2026-05-03T09:50:43Z</time></trkpt><trkpt lat="43.05122329171533" lon="18.843122864797643"><ele>1088.0</ele><time>2026-05-03T09:50:44Z</time></trkpt><trkpt lat="43.05129536544278" lon="18.842770619724444"><ele>1090.5</ele><time>2026-05-03T09:50:45Z</time></trkpt><trkpt lat="43.051394809184394" lon="18.842417334556604"><ele>1093.0</ele><time>2026-05-03T09:50:46Z</time></trkpt><trkpt lat="43.05152500492572" lon="18.842064628801197"><ele>1081.5</ele><time>2026-05-03T09:50:47Z</time></trkpt><trkpt lat="43.05168398570453" lon="18.841729531932206"><ele>1070.0</ele><time>2026-05-03T09:50:48Z</time></trkpt><trkpt lat="43.051863334151605" lon="18.84141932615837"><ele>1070.0</ele><time>2026-05-03T09:50:49Z</time></trkpt><trkpt lat="43.052058023910526" lon="18.84112849018879"><ele>1070.0</ele><time>2026-05-03T09:50:50Z</time></trkpt><trkpt lat="43.052261281536246" lon="18.840866042289075"><ele>1063.0</ele><time>2026-05-03T09:50:51Z</time></trkpt><trkpt lat="43.052472258835145" lon="18.84060944511253"><ele>1056.0</ele><time>2026-05-03T09:50:52Z</time></trkpt><trkpt lat="43.05266775168898" lon="18.84036607324806"><ele>1064.0</ele><time>2026-05-03T09:50:53Z</time></trkpt><trkpt lat="43.052837153968646" lon="18.840111204661238"><ele>1072.0</ele><time>2026-05-03T09:50:54Z</time></trkpt><trkpt lat="43.05297833797497" lon="18.83982342386475"><ele>1072.0</ele><time>2026-05-03T09:50:55Z</time></trkpt><trkpt lat="43.05310035284742" lon="18.83949962123673"><ele>1072.0</ele><time>2026-05-03T09:50:56Z</time></trkpt><trkpt lat="43.05319644187776" lon="18.83915602959097"><ele>1081.0</ele><time>2026-05-03T09:50:57Z</time></trkpt><trkpt lat="43.053261700738965" lon="18.838787824928943"><ele>1090.0</ele><time>2026-05-03T09:50:58Z</time></trkpt><trkpt lat="43.05329651018628" lon="18.838412040271614"><ele>1073.0</ele><time>2026-05-03T09:50:59Z</time></trkpt><trkpt lat="43.0533213284636" lon="18.838021619212356"><ele>1056.0</ele><time>2026-05-03T09:51:00Z</time></trkpt><trkpt lat="43.05335127906007" lon="18.83763006715008"><ele>1056.0</ele><time>2026-05-03T09:51:01Z</time></trkpt><trkpt lat="43.05339391379548" lon="18.83723587077105"><ele>1056.0</ele><time>2026-05-03T09:51:02Z</time></trkpt><trkpt lat="43.053442137714" lon="18.8368534683822"><ele>1056.5</ele><time>2026-05-03T09:51:03Z</time></trkpt><trkpt lat="43.05349745119511" lon="18.836475895154628"><ele>1057.0</ele><time>2026-05-03T09:51:04Z</time></trkpt><trkpt lat="43.053564107486174" lon="18.836100439599445"><ele>1059.0</ele><time>2026-05-03T09:51:05Z</time></trkpt><trkpt lat="43.05364545961811" lon="18.835732019035525"><ele>1061.0</ele><time>2026-05-03T09:51:06Z</time></trkpt><trkpt lat="43.0537435500864" lon="18.835373781831194"><ele>1062.5</ele><time>2026-05-03T09:51:07Z</time></trkpt><trkpt lat="43.05385461370507" lon="18.835023997769333"><ele>1064.0</ele><time>2026-05-03T09:51:08Z</time></trkpt><trkpt lat="43.053976215780324" lon="18.834679885939217"><ele>1064.0</ele><time>2026-05-03T09:51:09Z</time></trkpt><trkpt lat="43.05411347212691" lon="18.834347401386097"><ele>1064.0</ele><time>2026-05-03T09:51:10Z</time></trkpt><trkpt lat="43.05426279644731" lon="18.834022831829156"><ele>1059.5</ele><time>2026-05-03T09:51:11Z</time></trkpt><trkpt lat="43.054419112670516" lon="18.83370703870519"><ele>1055.0</ele><time>2026-05-03T09:51:12Z</time></trkpt><trkpt lat="43.054576836461706" lon="18.833388451173747"><ele>1055.0</ele><time>2026-05-03T09:51:13Z</time></trkpt><trkpt lat="43.054744433583046" lon="18.833048365901366"><ele>1055.0</ele><time>2026-05-03T09:51:14Z</time></trkpt><trkpt lat="43.054921813587406" lon="18.832680787477187"><ele>1048.0</ele><time>2026-05-03T09:51:15Z</time></trkpt><trkpt lat="43.05510241830744" lon="18.8322806196851"><ele>1041.0</ele><time>2026-05-03T09:51:16Z</time></trkpt><trkpt lat="43.05528192976955" lon="18.831865736856873"><ele>1046.0</ele><time>2026-05-03T09:51:17Z</time></trkpt><trkpt lat="43.0554587712522" lon="18.83143834600696"><ele>1051.0</ele><time>2026-05-03T09:51:18Z</time></trkpt><trkpt lat="43.05563224220427" lon="18.83102600094331"><ele>1042.5</ele><time>2026-05-03T09:51:19Z</time></trkpt><trkpt lat="43.05581524962412" lon="18.830621257012734"><ele>1034.0</ele><time>2026-05-03T09:51:20Z</time></trkpt><trkpt lat="43.05600657805668" lon="18.83024252627529"><ele>1040.5</ele><time>2026-05-03T09:51:21Z</time></trkpt><trkpt lat="43.05621061939591" lon="18.829886740735994"><ele>1047.0</ele><time>2026-05-03T09:51:22Z</time></trkpt><trkpt lat="43.05641510123227" lon="18.829560628153192"><ele>1042.0</ele><time>2026-05-03T09:51:23Z</time></trkpt><trkpt lat="43.05661703841456" lon="18.829258550768415"><ele>1037.0</ele><time>2026-05-03T09:51:24Z</time></trkpt><trkpt lat="43.05682669545594" lon="18.828957191002015"><ele>1037.0</ele><time>2026-05-03T09:51:25Z</time></trkpt><trkpt lat="43.05704177695159" lon="18.828673479915093"><ele>1037.0</ele><time>2026-05-03T09:51:26Z</time></trkpt><trkpt lat="43.05727205643143" lon="18.828408790630025"><ele>1032.0</ele><time>2026-05-03T09:51:27Z</time></trkpt><trkpt lat="43.05751064759206" lon="18.82816170824212"><ele>1027.0</ele><time>2026-05-03T09:51:28Z</time></trkpt><trkpt lat="43.05774954912026" lon="18.827926725267346"><ele>1027.0</ele><time>2026-05-03T09:51:29Z</time></trkpt><trkpt lat="43.057986789669854" lon="18.827703239334404"><ele>1027.0</ele><time>2026-05-03T09:51:30Z</time></trkpt><trkpt lat="43.05821202019905" lon="18.827509027896816"><ele>1028.0</ele><time>2026-05-03T09:51:31Z</time></trkpt><trkpt lat="43.05842336153386" lon="18.827345761293937"><ele>1029.0</ele><time>2026-05-03T09:51:32Z</time></trkpt><trkpt lat="43.05861758790756" lon="18.82721246360984"><ele>1029.0</ele><time>2026-05-03T09:51:33Z</time></trkpt><trkpt lat="43.05880712141485" lon="18.827109451305034"><ele>1029.0</ele><time>2026-05-03T09:51:34Z</time></trkpt><trkpt lat="43.058998067438765" lon="18.827041898083213"><ele>1029.0</ele><time>2026-05-03T09:51:35Z</time></trkpt><trkpt lat="43.05919339436071" lon="18.82700706627165"><ele>1025.6666666666667</ele><time>2026-05-03T09:51:36Z</time></trkpt><trkpt lat="43.05939246997472" lon="18.82700020610105"><ele>1022.3333333333334</ele><time>2026-05-03T09:51:37Z</time></trkpt><trkpt lat="43.05959101055117" lon="18.827020924492903"><ele>1019.0</ele><time>2026-05-03T09:51:38Z</time></trkpt><trkpt lat="43.05978751362183" lon="18.827063680719988"><ele>1017.3333333333334</ele><time>2026-05-03T09:51:39Z</time></trkpt><trkpt lat="43.059983240866686" lon="18.827129457461155"><ele>1015.6666666666667</ele><time>2026-05-03T09:51:40Z</time></trkpt><trkpt lat="43.0601801974024" lon="18.82721806758072"><ele>1014.0</ele><time>2026-05-03T09:51:41Z</time></trkpt><trkpt lat="43.060384107080935" lon="18.827336345323452"><ele>1014.0</ele><time>2026-05-03T09:51:42Z</time></trkpt><trkpt lat="43.060593776280754" lon="18.82748802894595"><ele>1014.0</ele><time>2026-05-03T09:51:43Z</time></trkpt><trkpt lat="43.060818841801606" lon="18.827655535233458"><ele>1011.5</ele><time>2026-05-03T09:51:44Z</time></trkpt><trkpt lat="43.06105066395305" lon="18.827823138509185"><ele>1009.0</ele><time>2026-05-03T09:51:45Z</time></trkpt><trkpt lat="43.06128559231054" lon="18.827998759917797"><ele>1009.0</ele><time>2026-05-03T09:51:46Z</time></trkpt><trkpt lat="43.06151394840834" lon="18.828208034782165"><ele>1009.0</ele><time>2026-05-03T09:51:47Z</time></trkpt><trkpt lat="43.06173223536631" lon="18.828435646524234"><ele>1005.0</ele><time>2026-05-03T09:51:48Z</time></trkpt><trkpt lat="43.06194808049154" lon="18.8286652610502"><ele>1001.0</ele><time>2026-05-03T09:51:49Z</time></trkpt><trkpt lat="43.06215880776615" lon="18.828900354018554"><ele>1001.0</ele><time>2026-05-03T09:51:50Z</time></trkpt><trkpt lat="43.062361644863294" lon="18.82914529963628"><ele>1001.0</ele><time>2026-05-03T09:51:51Z</time></trkpt><trkpt lat="43.06255738806525" lon="18.829397974647836"><ele>1002.0</ele><time>2026-05-03T09:51:52Z</time></trkpt><trkpt lat="43.062749092340304" lon="18.82966145111266"><ele>1003.0</ele><time>2026-05-03T09:51:53Z</time></trkpt><trkpt lat="43.06293221524966" lon="18.829936490171654"><ele>998.0</ele><time>2026-05-03T09:51:54Z</time></trkpt><trkpt lat="43.06310496431413" lon="18.830218894049395"><ele>993.0</ele><time>2026-05-03T09:51:55Z</time></trkpt><trkpt lat="43.06326497017454" lon="18.830517379927667"><ele>993.5</ele><time>2026-05-03T09:51:56Z</time></trkpt><trkpt lat="43.063420192814924" lon="18.830814313752267"><ele>994.0</ele><time>2026-05-03T09:51:57Z</time></trkpt><trkpt lat="43.0635841492775" lon="18.83109951034251"><ele>994.0</ele><time>2026-05-03T09:51:58Z</time></trkpt><trkpt lat="43.063761836990686" lon="18.83137459279191"><ele>994.0</ele><time>2026-05-03T09:51:59Z</time></trkpt><trkpt lat="43.06394694965209" lon="18.831634361771457"><ele>992.5</ele><time>2026-05-03T09:52:00Z</time></trkpt><trkpt lat="43.0641352590561" lon="18.83189017946778"><ele>991.0</ele><time>2026-05-03T09:52:01Z</time></trkpt><trkpt lat="43.06432352264688" lon="18.832148072283093"><ele>991.0</ele><time>2026-05-03T09:52:02Z</time></trkpt><trkpt lat="43.0645215284621" lon="18.832402366824795"><ele>991.0</ele><time>2026-05-03T09:52:03Z</time></trkpt><trkpt lat="43.06472416519594" lon="18.83264382087596"><ele>992.5</ele><time>2026-05-03T09:52:04Z</time></trkpt><trkpt lat="43.06493644239432" lon="18.832873707315596"><ele>994.0</ele><time>2026-05-03T09:52:05Z</time></trkpt><trkpt lat="43.06515602642176" lon="18.83309726250578"><ele>994.0</ele><time>2026-05-03T09:52:06Z</time></trkpt><trkpt lat="43.0653780251104" lon="18.833314308413364"><ele>994.0</ele><time>2026-05-03T09:52:07Z</time></trkpt><trkpt lat="43.06560207195" lon="18.833518974926108"><ele>992.5</ele><time>2026-05-03T09:52:08Z</time></trkpt><trkpt lat="43.065836310820686" lon="18.833719797994746"><ele>991.0</ele><time>2026-05-03T09:52:09Z</time></trkpt><trkpt lat="43.06606313624478" lon="18.833922780437856"><ele>991.0</ele><time>2026-05-03T09:52:10Z</time></trkpt><trkpt lat="43.0662801582694" lon="18.834137041888553"><ele>991.0</ele><time>2026-05-03T09:52:11Z</time></trkpt><trkpt lat="43.06648286076002" lon="18.834373601725403"><ele>991.5</ele><time>2026-05-03T09:52:12Z</time></trkpt><trkpt lat="43.0666637852283" lon="18.834628336226693"><ele>992.0</ele><time>2026-05-03T09:52:13Z</time></trkpt><trkpt lat="43.06682075561871" lon="18.834910878612668"><ele>990.0</ele><time>2026-05-03T09:52:14Z</time></trkpt><trkpt lat="43.066954192611774" lon="18.835219644575915"><ele>988.0</ele><time>2026-05-03T09:52:15Z</time></trkpt><trkpt lat="43.0670641444205" lon="18.835536875306815"><ele>988.0</ele><time>2026-05-03T09:52:16Z</time></trkpt><trkpt lat="43.067149960508" lon="18.835865911826073"><ele>988.0</ele><time>2026-05-03T09:52:17Z</time></trkpt><trkpt lat="43.06722532817484" lon="18.83620840968011"><ele>991.5</ele><time>2026-05-03T09:52:18Z</time></trkpt><trkpt lat="43.06731090052892" lon="18.83655696318268"><ele>995.0</ele><time>2026-05-03T09:52:19Z</time></trkpt><trkpt lat="43.0674070651685" lon="18.836917788547456"><ele>995.0</ele><time>2026-05-03T09:52:20Z</time></trkpt><trkpt lat="43.06750883284323" lon="18.8372808986594"><ele>995.0</ele><time>2026-05-03T09:52:21Z</time></trkpt><trkpt lat="43.067614870240014" lon="18.837642128368884"><ele>995.0</ele><time>2026-05-03T09:52:22Z</time></trkpt><trkpt lat="43.067724426976824" lon="18.837994515451665"><ele>995.0</ele><time>2026-05-03T09:52:23Z</time></trkpt><trkpt lat="43.06783960319479" lon="18.838339684529682"><ele>992.5</ele><time>2026-05-03T09:52:24Z</time></trkpt><trkpt lat="43.06796792258906" lon="18.838683374954524"><ele>990.0</ele><time>2026-05-03T09:52:25Z</time></trkpt><trkpt lat="43.06810224232859" lon="18.839013140157594"><ele>990.0</ele><time>2026-05-03T09:52:26Z</time></trkpt><trkpt lat="43.06823994426313" lon="18.83933638130936"><ele>990.0</ele><time>2026-05-03T09:52:27Z</time></trkpt><trkpt lat="43.068383781762975" lon="18.839650656661203"><ele>994.0</ele><time>2026-05-03T09:52:28Z</time></trkpt><trkpt lat="43.06853389963862" lon="18.839957189233775"><ele>998.0</ele><time>2026-05-03T09:52:29Z</time></trkpt><trkpt lat="43.06869033858155" lon="18.840256163185988"><ele>998.0</ele><time>2026-05-03T09:52:30Z</time></trkpt><trkpt lat="43.0688546537463" lon="18.84054876316075"><ele>998.0</ele><time>2026-05-03T09:52:31Z</time></trkpt><trkpt lat="43.06902201684779" lon="18.84082693988927"><ele>999.5</ele><time>2026-05-03T09:52:32Z</time></trkpt><trkpt lat="43.069195840770426" lon="18.841094314642273"><ele>1001.0</ele><time>2026-05-03T09:52:33Z</time></trkpt><trkpt lat="43.069374945642735" lon="18.841351725323456"><ele>1001.0</ele><time>2026-05-03T09:52:34Z</time></trkpt><trkpt lat="43.06956635156927" lon="18.841608222361703"><ele>1001.0</ele><time>2026-05-03T09:52:35Z</time></trkpt><trkpt lat="43.06976454607951" lon="18.84186088809932"><ele>1002.5</ele><time>2026-05-03T09:52:36Z</time></trkpt><trkpt lat="43.069968696166434" lon="18.842115392095366"><ele>1004.0</ele><time>2026-05-03T09:52:37Z</time></trkpt><trkpt lat="43.070173916188075" lon="18.84237184477603"><ele>1004.0</ele><time>2026-05-03T09:52:38Z</time></trkpt><trkpt lat="43.070379478075836" lon="18.842627777635204"><ele>1004.0</ele><time>2026-05-03T09:52:39Z</time></trkpt><trkpt lat="43.07057940097379" lon="18.842862609356878"><ele>1005.6666666666667</ele><time>2026-05-03T09:52:40Z</time></trkpt><trkpt lat="43.07075323382116" lon="18.84305955440752"><ele>1007.3333333333333</ele><time>2026-05-03T09:52:41Z</time></trkpt><trkpt lat="43.07090905952527" lon="18.843233745308133"><ele>1009.0</ele><time>2026-05-03T09:52:42Z</time></trkpt><trkpt lat="43.07106029812879" lon="18.843401725021955"><ele>1004.6666666666666</ele><time>2026-05-03T09:52:43Z</time></trkpt><trkpt lat="43.071203499952674" lon="18.84355788834145"><ele>1000.3333333333333</ele><time>2026-05-03T09:52:44Z</time></trkpt><trkpt lat="43.07134651645997" lon="18.8437115348917"><ele>996.0</ele><time>2026-05-03T09:52:45Z</time></trkpt><trkpt lat="43.07149313972526" lon="18.84386326735302"><ele>1002.0</ele><time>2026-05-03T09:52:46Z</time></trkpt><trkpt lat="43.07163781618143" lon="18.844011319896936"><ele>1008.0</ele><time>2026-05-03T09:52:47Z</time></trkpt><trkpt lat="43.07178046948982" lon="18.844153595218"><ele>1014.0</ele><time>2026-05-03T09:52:48Z</time></trkpt><trkpt lat="43.07192261579162" lon="18.84429469849624"><ele>1008.6666666666667</ele><time>2026-05-03T09:52:49Z</time></trkpt><trkpt lat="43.07206369117543" lon="18.84443247815103"><ele>1003.3333333333334</ele><time>2026-05-03T09:52:50Z</time></trkpt><trkpt lat="43.07220084471008" lon="18.84456070533802"><ele>998.0</ele><time>2026-05-03T09:52:51Z</time></trkpt><trkpt lat="43.072339856733606" lon="18.844683355097985"><ele>1003.6666666666667</ele><time>2026-05-03T09:52:52Z</time></trkpt><trkpt lat="43.07247837333912" lon="18.844802437338892"><ele>1009.3333333333333</ele><time>2026-05-03T09:52:53Z</time></trkpt><trkpt lat="43.07261588708569" lon="18.84491798863033"><ele>1015.0</ele><time>2026-05-03T09:52:54Z</time></trkpt><trkpt lat="43.07276695874371" lon="18.845039899626904"><ele>1008.3333333333333</ele><time>2026-05-03T09:52:55Z</time></trkpt><trkpt lat="43.072911132591265" lon="18.845158615411464"><ele>1001.6666666666667</ele><time>2026-05-03T09:52:56Z</time></trkpt><trkpt lat="43.073047358617764" lon="18.845265257114033"><ele>995.0</ele><time>2026-05-03T09:52:57Z</time></trkpt><trkpt lat="43.07318597878239" lon="18.845365223276435"><ele>1000.6666666666667</ele><time>2026-05-03T09:52:58Z</time></trkpt><trkpt lat="43.0733230637609" lon="18.845459149570434"><ele>1006.3333333333333</ele><time>2026-05-03T09:52:59Z</time></trkpt><trkpt lat="43.07346032047635" lon="18.84554942442738"><ele>1012.0</ele><time>2026-05-03T09:53:00Z</time></trkpt><trkpt lat="43.0735989123302" lon="18.845637297985064"><ele>1012.0</ele><time>2026-05-03T09:53:01Z</time></trkpt><trkpt lat="43.07374198720185" lon="18.845719864702488"><ele>1012.0</ele><time>2026-05-03T09:53:02Z</time></trkpt><trkpt lat="43.073881658623904" lon="18.845795900794936"><ele>1012.0</ele><time>2026-05-03T09:53:03Z</time></trkpt><trkpt lat="43.0740149617509" lon="18.845866586189814"><ele>1012.0</ele><time>2026-05-03T09:53:04Z</time></trkpt><trkpt lat="43.07414156818746" lon="18.8459284006062"><ele>1010.75</ele><time>2026-05-03T09:53:05Z</time></trkpt><trkpt lat="43.07426201923828" lon="18.845985167568088"><ele>1009.5</ele><time>2026-05-03T09:53:06Z</time></trkpt><trkpt lat="43.07438516063965" lon="18.84603951540204"><ele>1008.25</ele><time>2026-05-03T09:53:07Z</time></trkpt><trkpt lat="43.07450693458337" lon="18.846102316925645"><ele>1007.0</ele><time>2026-05-03T09:53:08Z</time></trkpt><trkpt lat="43.074628064127246" lon="18.846156337121585"><ele>1007.0</ele><time>2026-05-03T09:53:09Z</time></trkpt><trkpt lat="43.074751924237894" lon="18.846206920312998"><ele>1007.0</ele><time>2026-05-03T09:53:10Z</time></trkpt><trkpt lat="43.07487134543812" lon="18.846250321613077"><ele>1007.0</ele><time>2026-05-03T09:53:11Z</time></trkpt><trkpt lat="43.07498158075542" lon="18.84628848123543"><ele>1007.0</ele><time>2026-05-03T09:53:12Z</time></trkpt><trkpt lat="43.07509284348378" lon="18.846325671356905"><ele>1008.0</ele><time>2026-05-03T09:53:13Z</time></trkpt><trkpt lat="43.07520548248219" lon="18.84636458201046"><ele>1009.0</ele><time>2026-05-03T09:53:14Z</time></trkpt><trkpt lat="43.07532146342291" lon="18.84640038023667"><ele>1010.0</ele><time>2026-05-03T09:53:15Z</time></trkpt><trkpt lat="43.07543810491763" lon="18.846436547891898"><ele>1011.0</ele><time>2026-05-03T09:53:16Z</time></trkpt><trkpt lat="43.07555694978804" lon="18.846470332397438"><ele>1011.0</ele><time>2026-05-03T09:53:17Z</time></trkpt><trkpt lat="43.07567377486398" lon="18.846501949755766"><ele>1011.0</ele><time>2026-05-03T09:53:18Z</time></trkpt><trkpt lat="43.075802159081945" lon="18.846531464514918"><ele>1011.0</ele><time>2026-05-03T09:53:19Z</time></trkpt><trkpt lat="43.07592838559748" lon="18.84655658123309"><ele>1011.0</ele><time>2026-05-03T09:53:20Z</time></trkpt><trkpt lat="43.076056413958916" lon="18.84658160678945"><ele>1011.25</ele><time>2026-05-03T09:53:21Z</time></trkpt><trkpt lat="43.07618304787448" lon="18.846605471193207"><ele>1011.5</ele><time>2026-05-03T09:53:22Z</time></trkpt><trkpt lat="43.076313039611186" lon="18.84662551837582"><ele>1011.75</ele><time>2026-05-03T09:53:23Z</time></trkpt><trkpt lat="43.07644402992136" lon="18.846641280061373"><ele>1012.0</ele><time>2026-05-03T09:53:24Z</time></trkpt><trkpt lat="43.076573962721554" lon="18.846653785761838"><ele>1010.75</ele><time>2026-05-03T09:53:25Z</time></trkpt><trkpt lat="43.076705828071496" lon="18.8466675841544"><ele>1009.5</ele><time>2026-05-03T09:53:26Z</time></trkpt><trkpt lat="43.076834697329744" lon="18.84668093586075"><ele>1008.25</ele><time>2026-05-03T09:53:27Z</time></trkpt><trkpt lat="43.076965720434" lon="18.846693528887485"><ele>1007.0</ele><time>2026-05-03T09:53:28Z</time></trkpt><trkpt lat="43.07709912098076" lon="18.846706317387074"><ele>1007.0</ele><time>2026-05-03T09:53:29Z</time></trkpt><trkpt lat="43.07723525366628" lon="18.846718523798756"><ele>1007.0</ele><time>2026-05-03T09:53:30Z</time></trkpt><trkpt lat="43.07737612608646" lon="18.84673219744549"><ele>1007.0</ele><time>2026-05-03T09:53:31Z</time></trkpt><trkpt lat="43.07752086733438" lon="18.846746114447694"><ele>1007.0</ele><time>2026-05-03T09:53:32Z</time></trkpt><trkpt lat="43.07766069648401" lon="18.84675540662699"><ele>1007.25</ele><time>2026-05-03T09:53:33Z</time></trkpt><trkpt lat="43.07779625524109" lon="18.84676604777391"><ele>1007.5</ele><time>2026-05-03T09:53:34Z</time></trkpt><trkpt lat="43.07792317854548" lon="18.84677845331676"><ele>1007.75</ele><time>2026-05-03T09:53:35Z</time></trkpt><trkpt lat="43.078047392778686" lon="18.84679315910436"><ele>1008.0</ele><time>2026-05-03T09:53:36Z</time></trkpt><trkpt lat="43.07817517536921" lon="18.846803739708534"><ele>1002.5</ele><time>2026-05-03T09:53:37Z</time></trkpt><trkpt lat="43.078303971919915" lon="18.846817123822095"><ele>997.0</ele><time>2026-05-03T09:53:38Z</time></trkpt><trkpt lat="43.0784295318486" lon="18.846825526436636"><ele>991.5</ele><time>2026-05-03T09:53:39Z</time></trkpt><trkpt lat="43.07855910222857" lon="18.846835875054524"><ele>986.0</ele><time>2026-05-03T09:53:40Z</time></trkpt><trkpt lat="43.07869515419469" lon="18.846846805838354"><ele>986.0</ele><time>2026-05-03T09:53:41Z</time></trkpt><trkpt lat="43.07883601521606" lon="18.846858552179846"><ele>986.0</ele><time>2026-05-03T09:53:42Z</time></trkpt><trkpt lat="43.07897522764173" lon="18.846871994833275"><ele>986.0</ele><time>2026-05-03T09:53:43Z</time></trkpt><trkpt lat="43.079119434876546" lon="18.846882260132134"><ele>986.0</ele><time>2026-05-03T09:53:44Z</time></trkpt><trkpt lat="43.079273273705134" lon="18.84689365754079"><ele>986.25</ele><time>2026-05-03T09:53:45Z</time></trkpt><trkpt lat="43.07942357464778" lon="18.846906547771553"><ele>986.5</ele><time>2026-05-03T09:53:46Z</time></trkpt><trkpt lat="43.079519321917815" lon="18.846918548795195"><ele>986.75</ele><time>2026-05-03T09:53:47Z</time></trkpt><trkpt lat="43.07964811484276" lon="18.84692770989407"><ele>987.0</ele><time>2026-05-03T09:53:48Z</time></trkpt><trkpt lat="43.07977972467013" lon="18.846936925995454"><ele>987.0</ele><time>2026-05-03T09:53:49Z</time></trkpt><trkpt lat="43.079914156873265" lon="18.84695045061709"><ele>987.0</ele><time>2026-05-03T09:53:50Z</time></trkpt><trkpt lat="43.08004556722786" lon="18.846961420506343"><ele>987.0</ele><time>2026-05-03T09:53:51Z</time></trkpt><trkpt lat="43.0801742245814" lon="18.846971514048658"><ele>987.0</ele><time>2026-05-03T09:53:52Z</time></trkpt><trkpt lat="43.080300329872316" lon="18.846984674054106"><ele>986.5</ele><time>2026-05-03T09:53:53Z</time></trkpt><trkpt lat="43.08042583306022" lon="18.846998825240163"><ele>986.0</ele><time>2026-05-03T09:53:54Z</time></trkpt><trkpt lat="43.08056026601957" lon="18.84700996093331"><ele>985.5</ele><time>2026-05-03T09:53:55Z</time></trkpt><trkpt lat="43.08069010977451" lon="18.847024126572588"><ele>985.0</ele><time>2026-05-03T09:53:56Z</time></trkpt><trkpt lat="43.08082254010687" lon="18.84703489666092"><ele>983.5</ele><time>2026-05-03T09:53:57Z</time></trkpt><trkpt lat="43.080957157735384" lon="18.847049560648486"><ele>982.0</ele><time>2026-05-03T09:53:58Z</time></trkpt><trkpt lat="43.08109612687407" lon="18.847060614564572"><ele>980.5</ele><time>2026-05-03T09:53:59Z</time></trkpt><trkpt lat="43.08123327143854" lon="18.847070688093478"><ele>979.0</ele><time>2026-05-03T09:54:00Z</time></trkpt><trkpt lat="43.0813730434766" lon="18.84708596057435"><ele>979.0</ele><time>2026-05-03T09:54:01Z</time></trkpt><trkpt lat="43.08150995273575" lon="18.847094186707405"><ele>979.0</ele><time>2026-05-03T09:54:02Z</time></trkpt><trkpt lat="43.08163866661242" lon="18.847103077071647"><ele>979.0</ele><time>2026-05-03T09:54:03Z</time></trkpt><trkpt lat="43.0817661906314" lon="18.847105720440943"><ele>979.0</ele><time>2026-05-03T09:54:04Z</time></trkpt><trkpt lat="43.08189261243793" lon="18.84709467709355"><ele>978.25</ele><time>2026-05-03T09:54:05Z</time></trkpt><trkpt lat="43.08200614783553" lon="18.84707249740472"><ele>977.5</ele><time>2026-05-03T09:54:06Z</time></trkpt><trkpt lat="43.08212469803595" lon="18.847051697479213"><ele>976.75</ele><time>2026-05-03T09:54:07Z</time></trkpt><trkpt lat="43.082237506889314" lon="18.84703269049084"><ele>976.0</ele><time>2026-05-03T09:54:08Z</time></trkpt><trkpt lat="43.08235108738428" lon="18.84700453346664"><ele>977.5</ele><time>2026-05-03T09:54:09Z</time></trkpt><trkpt lat="43.08246811762726" lon="18.84694893074532"><ele>979.0</ele><time>2026-05-03T09:54:10Z</time></trkpt><trkpt lat="43.08258620115386" lon="18.846899752278684"><ele>980.5</ele><time>2026-05-03T09:54:11Z</time></trkpt><trkpt lat="43.08269657961684" lon="18.84684424095847"><ele>982.0</ele><time>2026-05-03T09:54:12Z</time></trkpt><trkpt lat="43.08280996601145" lon="18.84678167155877"><ele>984.0</ele><time>2026-05-03T09:54:13Z</time></trkpt><trkpt lat="43.08292531834589" lon="18.84671129124313"><ele>986.0</ele><time>2026-05-03T09:54:14Z</time></trkpt><trkpt lat="43.08304513360654" lon="18.84662508302771"><ele>988.0</ele><time>2026-05-03T09:54:15Z</time></trkpt><trkpt lat="43.08317157659087" lon="18.846535660360498"><ele>990.0</ele><time>2026-05-03T09:54:16Z</time></trkpt><trkpt lat="43.083290491086665" lon="18.84643447715177"><ele>990.0</ele><time>2026-05-03T09:54:17Z</time></trkpt><trkpt lat="43.08341614811275" lon="18.846336246223636"><ele>990.0</ele><time>2026-05-03T09:54:18Z</time></trkpt><trkpt lat="43.08354972355568" lon="18.846226923860776"><ele>990.0</ele><time>2026-05-03T09:54:19Z</time></trkpt><trkpt lat="43.08368365445783" lon="18.846117713186636"><ele>990.0</ele><time>2026-05-03T09:54:20Z</time></trkpt><trkpt lat="43.083828642472376" lon="18.846009767259112"><ele>990.0</ele><time>2026-05-03T09:54:21Z</time></trkpt><trkpt lat="43.08397873848399" lon="18.845912802337246"><ele>990.0</ele><time>2026-05-03T09:54:22Z</time></trkpt><trkpt lat="43.084134009333866" lon="18.845816754772347"><ele>989.3333333333333</ele><time>2026-05-03T09:54:23Z</time></trkpt><trkpt lat="43.0842913009047" lon="18.84573639452798"><ele>988.6666666666666</ele><time>2026-05-03T09:54:24Z</time></trkpt><trkpt lat="43.08443956207212" lon="18.84566785123022"><ele>988.0</ele><time>2026-05-03T09:54:25Z</time></trkpt><trkpt lat="43.084591217488835" lon="18.845612814810554"><ele>988.0</ele><time>2026-05-03T09:54:26Z</time></trkpt><trkpt lat="43.08474653100293" lon="18.84555134649282"><ele>988.0</ele><time>2026-05-03T09:54:27Z</time></trkpt><trkpt lat="43.08489744125565" lon="18.8454878080098"><ele>988.0</ele><time>2026-05-03T09:54:28Z</time></trkpt><trkpt lat="43.08504029468167" lon="18.845422000082266"><ele>988.5</ele><time>2026-05-03T09:54:29Z</time></trkpt><trkpt lat="43.08518177280973" lon="18.84536540745523"><ele>989.0</ele><time>2026-05-03T09:54:30Z</time></trkpt><trkpt lat="43.08532319778276" lon="18.845311312737746"><ele>989.5</ele><time>2026-05-03T09:54:31Z</time></trkpt><trkpt lat="43.08546615463611" lon="18.845250873765202"><ele>990.0</ele><time>2026-05-03T09:54:32Z</time></trkpt><trkpt lat="43.08560921787304" lon="18.84519882392127"><ele>990.0</ele><time>2026-05-03T09:54:33Z</time></trkpt><trkpt lat="43.0857475907975" lon="18.845150490839632"><ele>990.0</ele><time>2026-05-03T09:54:34Z</time></trkpt><trkpt lat="43.08588838266661" lon="18.845097886825855"><ele>990.0</ele><time>2026-05-03T09:54:35Z</time></trkpt><trkpt lat="43.08603630160043" lon="18.845029031293624"><ele>990.0</ele><time>2026-05-03T09:54:36Z</time></trkpt><trkpt lat="43.086198272800495" lon="18.844948584750497"><ele>988.0</ele><time>2026-05-03T09:54:37Z</time></trkpt><trkpt lat="43.08637059135957" lon="18.844858679581375"><ele>986.0</ele><time>2026-05-03T09:54:38Z</time></trkpt><trkpt lat="43.08653487435746" lon="18.844767142993938"><ele>984.0</ele><time>2026-05-03T09:54:39Z</time></trkpt><trkpt lat="43.08668859401635" lon="18.84466060030836"><ele>983.0</ele><time>2026-05-03T09:54:40Z</time></trkpt><trkpt lat="43.08683194878805" lon="18.844538674026353"><ele>982.0</ele><time>2026-05-03T09:54:41Z</time></trkpt><trkpt lat="43.08697543431153" lon="18.844401773224472"><ele>981.0</ele><time>2026-05-03T09:54:42Z</time></trkpt><trkpt lat="43.08712182747156" lon="18.84426097075654"><ele>981.0</ele><time>2026-05-03T09:54:43Z</time></trkpt><trkpt lat="43.087270826611764" lon="18.844116884975872"><ele>981.0</ele><time>2026-05-03T09:54:44Z</time></trkpt><trkpt lat="43.08741891726805" lon="18.843973104160174"><ele>981.0</ele><time>2026-05-03T09:54:45Z</time></trkpt><trkpt lat="43.087568203687844" lon="18.843828363136918"><ele>978.6666666666667</ele><time>2026-05-03T09:54:46Z</time></trkpt><trkpt lat="43.08772217888456" lon="18.843683631834576"><ele>976.3333333333334</ele><time>2026-05-03T09:54:47Z</time></trkpt><trkpt lat="43.08787391012988" lon="18.843538515785855"><ele>974.0</ele><time>2026-05-03T09:54:48Z</time></trkpt><trkpt lat="43.08802688695109" lon="18.84338917624411"><ele>974.0</ele><time>2026-05-03T09:54:49Z</time></trkpt><trkpt lat="43.08817642992517" lon="18.843239708304377"><ele>974.0</ele><time>2026-05-03T09:54:50Z</time></trkpt><trkpt lat="43.08832155157571" lon="18.843075326786202"><ele>974.0</ele><time>2026-05-03T09:54:51Z</time></trkpt><trkpt lat="43.08845744478606" lon="18.842894386838175"><ele>973.6666666666667</ele><time>2026-05-03T09:54:52Z</time></trkpt><trkpt lat="43.088585422195585" lon="18.84268735465407"><ele>973.3333333333333</ele><time>2026-05-03T09:54:53Z</time></trkpt><trkpt lat="43.08870212114107" lon="18.8424585711103"><ele>973.0</ele><time>2026-05-03T09:54:54Z</time></trkpt><trkpt lat="43.08881482215759" lon="18.842230212321958"><ele>973.0</ele><time>2026-05-03T09:54:55Z</time></trkpt><trkpt lat="43.08892050748213" lon="18.84202658874457"><ele>973.0</ele><time>2026-05-03T09:54:56Z</time></trkpt><trkpt lat="43.08902837913613" lon="18.84183085753168"><ele>973.0</ele><time>2026-05-03T09:54:57Z</time></trkpt><trkpt lat="43.0891452693998" lon="18.84163691023159"><ele>975.6666666666666</ele><time>2026-05-03T09:54:58Z</time></trkpt><trkpt lat="43.08927333467143" lon="18.841459552284416"><ele>978.3333333333333</ele><time>2026-05-03T09:54:59Z</time></trkpt><trkpt lat="43.08941723930548" lon="18.841289764583998"><ele>981.0</ele><time>2026-05-03T09:55:00Z</time></trkpt><trkpt lat="43.08957880021201" lon="18.841132605448795"><ele>981.0</ele><time>2026-05-03T09:55:01Z</time></trkpt><trkpt lat="43.089752447148086" lon="18.840994949320397"><ele>981.0</ele><time>2026-05-03T09:55:02Z</time></trkpt><trkpt lat="43.089928564939555" lon="18.840870863796365"><ele>981.0</ele><time>2026-05-03T09:55:03Z</time></trkpt><trkpt lat="43.09009587183794" lon="18.840756595720915"><ele>978.3333333333333</ele><time>2026-05-03T09:55:04Z</time></trkpt><trkpt lat="43.090251258731534" lon="18.8406466232404"><ele>975.6666666666666</ele><time>2026-05-03T09:55:05Z</time></trkpt><trkpt lat="43.0903983239012" lon="18.840533326810366"><ele>973.0</ele><time>2026-05-03T09:55:06Z</time></trkpt><trkpt lat="43.09055159725016" lon="18.840403546733167"><ele>973.0</ele><time>2026-05-03T09:55:07Z</time></trkpt><trkpt lat="43.0906961928806" lon="18.84026649840207"><ele>973.0</ele><time>2026-05-03T09:55:08Z</time></trkpt><trkpt lat="43.090834505283254" lon="18.84012326804573"><ele>973.0</ele><time>2026-05-03T09:55:09Z</time></trkpt><trkpt lat="43.090974549522926" lon="18.83996393871675"><ele>974.0</ele><time>2026-05-03T09:55:10Z</time></trkpt><trkpt lat="43.09110916121608" lon="18.83980302360159"><ele>975.0</ele><time>2026-05-03T09:55:11Z</time></trkpt><trkpt lat="43.091246431412976" lon="18.839634116606746"><ele>976.0</ele><time>2026-05-03T09:55:12Z</time></trkpt><trkpt lat="43.091381337649885" lon="18.839458619545685"><ele>974.6666666666666</ele><time>2026-05-03T09:55:13Z</time></trkpt><trkpt lat="43.091519126094596" lon="18.839276786008085"><ele>973.3333333333333</ele><time>2026-05-03T09:55:14Z</time></trkpt><trkpt lat="43.09165130273734" lon="18.839090010506364"><ele>972.0</ele><time>2026-05-03T09:55:15Z</time></trkpt><trkpt lat="43.09178802608973" lon="18.838895527628935"><ele>972.0</ele><time>2026-05-03T09:55:16Z</time></trkpt><trkpt lat="43.0919248762574" lon="18.838701323105322"><ele>972.0</ele><time>2026-05-03T09:55:17Z</time></trkpt><trkpt lat="43.092064099848514" lon="18.838505170509904"><ele>972.0</ele><time>2026-05-03T09:55:18Z</time></trkpt><trkpt lat="43.092210245185655" lon="18.838308002223457"><ele>974.6666666666667</ele><time>2026-05-03T09:55:19Z</time></trkpt><trkpt lat="43.09236110437106" lon="18.838109609698872"><ele>977.3333333333334</ele><time>2026-05-03T09:55:20Z</time></trkpt><trkpt lat="43.09251987996696" lon="18.83790932628243"><ele>980.0</ele><time>2026-05-03T09:55:21Z</time></trkpt><trkpt lat="43.0926783737844" lon="18.837725492074775"><ele>979.3333333333334</ele><time>2026-05-03T09:55:22Z</time></trkpt><trkpt lat="43.09284583787866" lon="18.83755201804604"><ele>978.6666666666667</ele><time>2026-05-03T09:55:23Z</time></trkpt><trkpt lat="43.09301547176132" lon="18.837388624091435"><ele>978.0</ele><time>2026-05-03T09:55:24Z</time></trkpt><trkpt lat="43.09319171776591" lon="18.837234833199002"><ele>968.3333333333333</ele><time>2026-05-03T09:55:25Z</time></trkpt><trkpt lat="43.09337659067486" lon="18.837093375371612"><ele>958.6666666666666</ele><time>2026-05-03T09:55:26Z</time></trkpt><trkpt lat="43.09356403527799" lon="18.836964014492168"><ele>949.0</ele><time>2026-05-03T09:55:27Z</time></trkpt><trkpt lat="43.09373868798416" lon="18.836849395297463"><ele>949.6666666666666</ele><time>2026-05-03T09:55:28Z</time></trkpt><trkpt lat="43.09390890229225" lon="18.836733829339984"><ele>950.3333333333333</ele><time>2026-05-03T09:55:29Z</time></trkpt><trkpt lat="43.094079160615706" lon="18.83660807453644"><ele>951.0</ele><time>2026-05-03T09:55:30Z</time></trkpt><trkpt lat="43.094245058060935" lon="18.836473137397917"><ele>951.0</ele><time>2026-05-03T09:55:31Z</time></trkpt><trkpt lat="43.094399801110264" lon="18.836342289329487"><ele>951.0</ele><time>2026-05-03T09:55:32Z</time></trkpt><trkpt lat="43.09454170104237" lon="18.836187014596288"><ele>951.0</ele><time>2026-05-03T09:55:33Z</time></trkpt><trkpt lat="43.094670718317815" lon="18.83602429341416"><ele>947.3333333333333</ele><time>2026-05-03T09:55:34Z</time></trkpt><trkpt lat="43.09480108406966" lon="18.835840106069096"><ele>943.6666666666666</ele><time>2026-05-03T09:55:35Z</time></trkpt><trkpt lat="43.094922914931985" lon="18.83563129430486"><ele>940.0</ele><time>2026-05-03T09:55:36Z</time></trkpt><trkpt lat="43.09504275756568" lon="18.835430044584967"><ele>940.0</ele><time>2026-05-03T09:55:37Z</time></trkpt><trkpt lat="43.09515989786543" lon="18.835222272732683"><ele>940.0</ele><time>2026-05-03T09:55:38Z</time></trkpt><trkpt lat="43.09528107602981" lon="18.83500822154397"><ele>940.0</ele><time>2026-05-03T09:55:39Z</time></trkpt><trkpt lat="43.09541068388163" lon="18.834796645060887"><ele>942.3333333333333</ele><time>2026-05-03T09:55:40Z</time></trkpt><trkpt lat="43.09555180344375" lon="18.83460086908273"><ele>944.6666666666667</ele><time>2026-05-03T09:55:41Z</time></trkpt><trkpt lat="43.095707128253466" lon="18.834422173140304"><ele>947.0</ele><time>2026-05-03T09:55:42Z</time></trkpt><trkpt lat="43.095866796755686" lon="18.834254851024966"><ele>947.0</ele><time>2026-05-03T09:55:43Z</time></trkpt><trkpt lat="43.09602486304015" lon="18.834087952988423"><ele>947.0</ele><time>2026-05-03T09:55:44Z</time></trkpt><trkpt lat="43.09617694973537" lon="18.833915416960306"><ele>947.0</ele><time>2026-05-03T09:55:45Z</time></trkpt><trkpt lat="43.096324241406535" lon="18.833738014049956"><ele>947.0</ele><time>2026-05-03T09:55:46Z</time></trkpt><trkpt lat="43.09647032784567" lon="18.833554501563704"><ele>947.0</ele><time>2026-05-03T09:55:47Z</time></trkpt><trkpt lat="43.0966163288041" lon="18.833361522345708"><ele>947.0</ele><time>2026-05-03T09:55:48Z</time></trkpt><trkpt lat="43.09675874331755" lon="18.833152976177058"><ele>949.0</ele><time>2026-05-03T09:55:49Z</time></trkpt><trkpt lat="43.096897159307716" lon="18.83293801515033"><ele>951.0</ele><time>2026-05-03T09:55:50Z</time></trkpt><trkpt lat="43.09703710926523" lon="18.832717985636386"><ele>953.0</ele><time>2026-05-03T09:55:51Z</time></trkpt><trkpt lat="43.097178019790164" lon="18.832503049415322"><ele>953.0</ele><time>2026-05-03T09:55:52Z</time></trkpt><trkpt lat="43.09731281641712" lon="18.832293322649587"><ele>953.0</ele><time>2026-05-03T09:55:53Z</time></trkpt><trkpt lat="43.09743858510253" lon="18.832079354507847"><ele>953.0</ele><time>2026-05-03T09:55:54Z</time></trkpt><trkpt lat="43.09754730456434" lon="18.831857979599395"><ele>945.3333333333334</ele><time>2026-05-03T09:55:55Z</time></trkpt><trkpt lat="43.097634855146154" lon="18.831615871047262"><ele>937.6666666666667</ele><time>2026-05-03T09:55:56Z</time></trkpt><trkpt lat="43.09768854641524" lon="18.83135766914479"><ele>930.0</ele><time>2026-05-03T09:55:57Z</time></trkpt><trkpt lat="43.09769947276681" lon="18.83109021420739"><ele>930.3333333333333</ele><time>2026-05-03T09:55:58Z</time></trkpt><trkpt lat="43.09767594583105" lon="18.830824309483173"><ele>930.6666666666666</ele><time>2026-05-03T09:55:59Z</time></trkpt><trkpt lat="43.097611036982244" lon="18.830577637551123"><ele>931.0</ele><time>2026-05-03T09:56:00Z</time></trkpt><trkpt lat="43.09753439124303" lon="18.83036265651592"><ele>931.0</ele><time>2026-05-03T09:56:01Z</time></trkpt><trkpt lat="43.09743431267033" lon="18.83016050571908"><ele>931.0</ele><time>2026-05-03T09:56:02Z</time></trkpt><trkpt lat="43.09732945061783" lon="18.82995517055009"><ele>931.0</ele><time>2026-05-03T09:56:03Z</time></trkpt><trkpt lat="43.09723699790442" lon="18.829741591425588"><ele>941.3333333333333</ele><time>2026-05-03T09:56:04Z</time></trkpt><trkpt lat="43.097170781238184" lon="18.829513200519646"><ele>951.6666666666667</ele><time>2026-05-03T09:56:05Z</time></trkpt><trkpt lat="43.09714126097408" lon="18.82926796243999"><ele>962.0</ele><time>2026-05-03T09:56:06Z</time></trkpt><trkpt lat="43.0971482854202" lon="18.829005374922193"><ele>962.0</ele><time>2026-05-03T09:56:07Z</time></trkpt><trkpt lat="43.09717165509979" lon="18.828721841641496"><ele>962.0</ele><time>2026-05-03T09:56:08Z</time></trkpt><trkpt lat="43.097212148342464" lon="18.8284328826683"><ele>962.0</ele><time>2026-05-03T09:56:09Z</time></trkpt><trkpt lat="43.09726045205045" lon="18.828134770069425"><ele>960.6666666666667</ele><time>2026-05-03T09:56:10Z</time></trkpt><trkpt lat="43.09730036327475" lon="18.827835459243378"><ele>959.3333333333333</ele><time>2026-05-03T09:56:11Z</time></trkpt><trkpt lat="43.09733487933048" lon="18.827540773608558"><ele>958.0</ele><time>2026-05-03T09:56:12Z</time></trkpt><trkpt lat="43.09736478712773" lon="18.82724334696236"><ele>958.0</ele><time>2026-05-03T09:56:13Z</time></trkpt><trkpt lat="43.0973957166617" lon="18.82694393291861"><ele>958.0</ele><time>2026-05-03T09:56:14Z</time></trkpt><trkpt lat="43.097429483655695" lon="18.826637279653287"><ele>958.0</ele><time>2026-05-03T09:56:15Z</time></trkpt><trkpt lat="43.09746600196623" lon="18.826333386982036"><ele>941.0</ele><time>2026-05-03T09:56:16Z</time></trkpt><trkpt lat="43.097505324410974" lon="18.826035515176113"><ele>924.0</ele><time>2026-05-03T09:56:17Z</time></trkpt><trkpt lat="43.09755040275243" lon="18.825733937999313"><ele>907.0</ele><time>2026-05-03T09:56:18Z</time></trkpt><trkpt lat="43.0976047440541" lon="18.825433205644064"><ele>910.5</ele><time>2026-05-03T09:56:19Z</time></trkpt><trkpt lat="43.09766150685575" lon="18.825130380573007"><ele>914.0</ele><time>2026-05-03T09:56:20Z</time></trkpt><trkpt lat="43.09771179160123" lon="18.824823342418604"><ele>914.0</ele><time>2026-05-03T09:56:21Z</time></trkpt><trkpt lat="43.097733861693456" lon="18.824512950541855"><ele>914.0</ele><time>2026-05-03T09:56:22Z</time></trkpt><trkpt lat="43.097716087497844" lon="18.824195705686048"><ele>914.0</ele><time>2026-05-03T09:56:23Z</time></trkpt><trkpt lat="43.09766101127727" lon="18.823900585331586"><ele>914.0</ele><time>2026-05-03T09:56:24Z</time></trkpt><trkpt lat="43.097613211368746" lon="18.82362693862962"><ele>914.0</ele><time>2026-05-03T09:56:25Z</time></trkpt><trkpt lat="43.09758403298655" lon="18.823350102357853"><ele>912.6666666666667</ele><time>2026-05-03T09:56:26Z</time></trkpt><trkpt lat="43.09759620439208" lon="18.823079624369193"><ele>911.3333333333333</ele><time>2026-05-03T09:56:27Z</time></trkpt><trkpt lat="43.09765231070773" lon="18.822816898134104"><ele>910.0</ele><time>2026-05-03T09:56:28Z</time></trkpt><trkpt lat="43.09775356128839" lon="18.82258489622111"><ele>909.6666666666666</ele><time>2026-05-03T09:56:29Z</time></trkpt><trkpt lat="43.097893464137805" lon="18.822400442376036"><ele>909.3333333333333</ele><time>2026-05-03T09:56:30Z</time></trkpt><trkpt lat="43.098066201338675" lon="18.822249247604873"><ele>909.0</ele><time>2026-05-03T09:56:31Z</time></trkpt><trkpt lat="43.09825980403816" lon="18.822145447393424"><ele>897.0</ele><time>2026-05-03T09:56:32Z</time></trkpt><trkpt lat="43.09846595287146" lon="18.822088633195047"><ele>885.0</ele><time>2026-05-03T09:56:33Z</time></trkpt><trkpt lat="43.098668162713686" lon="18.822099709284366"><ele>873.0</ele><time>2026-05-03T09:56:34Z</time></trkpt><trkpt lat="43.09887346317024" lon="18.822144075660354"><ele>873.0</ele><time>2026-05-03T09:56:35Z</time></trkpt><trkpt lat="43.09908273269915" lon="18.82219727487718"><ele>873.0</ele><time>2026-05-03T09:56:36Z</time></trkpt><trkpt lat="43.09928808274915" lon="18.822234600516545"><ele>873.0</ele><time>2026-05-03T09:56:37Z</time></trkpt><trkpt lat="43.09948205460211" lon="18.8222537523964"><ele>871.0</ele><time>2026-05-03T09:56:38Z</time></trkpt><trkpt lat="43.099673054216126" lon="18.822257168835534"><ele>869.0</ele><time>2026-05-03T09:56:39Z</time></trkpt><trkpt lat="43.09984212612406" lon="18.82224833095052"><ele>867.0</ele><time>2026-05-03T09:56:40Z</time></trkpt><trkpt lat="43.10001454114112" lon="18.822205105314602"><ele>866.0</ele><time>2026-05-03T09:56:41Z</time></trkpt><trkpt lat="43.100184004595405" lon="18.822134552956374"><ele>865.0</ele><time>2026-05-03T09:56:42Z</time></trkpt><trkpt lat="43.10033847294188" lon="18.82201659263621"><ele>864.0</ele><time>2026-05-03T09:56:43Z</time></trkpt><trkpt lat="43.10046859532706" lon="18.821866505771784"><ele>863.6666666666667</ele><time>2026-05-03T09:56:44Z</time></trkpt><trkpt lat="43.10059124893134" lon="18.82168293045868"><ele>863.3333333333334</ele><time>2026-05-03T09:56:45Z</time></trkpt><trkpt lat="43.10072108697481" lon="18.82149125148982"><ele>863.0</ele><time>2026-05-03T09:56:46Z</time></trkpt><trkpt lat="43.100857531041214" lon="18.821304260786768"><ele>863.0</ele><time>2026-05-03T09:56:47Z</time></trkpt><trkpt lat="43.10099800942325" lon="18.82111669964845"><ele>863.0</ele><time>2026-05-03T09:56:48Z</time></trkpt><trkpt lat="43.10113997609835" lon="18.820916500177628"><ele>863.0</ele><time>2026-05-03T09:56:49Z</time></trkpt><trkpt lat="43.101275155345974" lon="18.820708127403208"><ele>862.6666666666667</ele><time>2026-05-03T09:56:50Z</time></trkpt><trkpt lat="43.10139893488283" lon="18.82048375955178"><ele>862.3333333333333</ele><time>2026-05-03T09:56:51Z</time></trkpt><trkpt lat="43.10150169329121" lon="18.820239132527533"><ele>862.0</ele><time>2026-05-03T09:56:52Z</time></trkpt><trkpt lat="43.101585031704666" lon="18.81999033295951"><ele>862.0</ele><time>2026-05-03T09:56:53Z</time></trkpt><trkpt lat="43.10167211713541" lon="18.81975442510258"><ele>862.0</ele><time>2026-05-03T09:56:54Z</time></trkpt><trkpt lat="43.10178533997833" lon="18.819555767688193"><ele>862.0</ele><time>2026-05-03T09:56:55Z</time></trkpt><trkpt lat="43.10192710964137" lon="18.819395699870512"><ele>861.0</ele><time>2026-05-03T09:56:56Z</time></trkpt><trkpt lat="43.1020899061025" lon="18.819271285035725"><ele>860.0</ele><time>2026-05-03T09:56:57Z</time></trkpt><trkpt lat="43.10226886962071" lon="18.81919542002023"><ele>859.0</ele><time>2026-05-03T09:56:58Z</time></trkpt><trkpt lat="43.1024592796497" lon="18.819158459148166"><ele>859.0</ele><time>2026-05-03T09:56:59Z</time></trkpt><trkpt lat="43.10264330240238" lon="18.8191186523591"><ele>859.0</ele><time>2026-05-03T09:57:00Z</time></trkpt><trkpt lat="43.10283389076954" lon="18.819061971661412"><ele>859.0</ele><time>2026-05-03T09:57:01Z</time></trkpt><trkpt lat="43.10303002709944" lon="18.81898481264232"><ele>859.0</ele><time>2026-05-03T09:57:02Z</time></trkpt><trkpt lat="43.10323088277823" lon="18.81889640891528"><ele>859.0</ele><time>2026-05-03T09:57:03Z</time></trkpt><trkpt lat="43.103434682993125" lon="18.818796014467328"><ele>859.0</ele><time>2026-05-03T09:57:04Z</time></trkpt><trkpt lat="43.103631494384345" lon="18.818689687157264"><ele>862.6666666666666</ele><time>2026-05-03T09:57:05Z</time></trkpt><trkpt lat="43.10382427358189" lon="18.81856998041993"><ele>866.3333333333333</ele><time>2026-05-03T09:57:06Z</time></trkpt><trkpt lat="43.10401606220297" lon="18.818427629508594"><ele>870.0</ele><time>2026-05-03T09:57:07Z</time></trkpt><trkpt lat="43.10419611188511" lon="18.8182677213999"><ele>859.3333333333333</ele><time>2026-05-03T09:57:08Z</time></trkpt><trkpt lat="43.1043679081244" lon="18.8180948936652"><ele>848.6666666666666</ele><time>2026-05-03T09:57:09Z</time></trkpt><trkpt lat="43.104528296878925" lon="18.817913113979074"><ele>838.0</ele><time>2026-05-03T09:57:10Z</time></trkpt><trkpt lat="43.10467934682584" lon="18.81772118574577"><ele>838.0</ele><time>2026-05-03T09:57:11Z</time></trkpt><trkpt lat="43.10481678127293" lon="18.81751909475543"><ele>838.0</ele><time>2026-05-03T09:57:12Z</time></trkpt><trkpt lat="43.104947127464314" lon="18.817300189369522"><ele>838.0</ele><time>2026-05-03T09:57:13Z</time></trkpt><trkpt lat="43.10507845739975" lon="18.81708384008586"><ele>838.0</ele><time>2026-05-03T09:57:14Z</time></trkpt><trkpt lat="43.105222001402815" lon="18.81687688824181"><ele>838.0</ele><time>2026-05-03T09:57:15Z</time></trkpt><trkpt lat="43.10537987932762" lon="18.816678742196757"><ele>838.0</ele><time>2026-05-03T09:57:16Z</time></trkpt><trkpt lat="43.10555605435103" lon="18.816505750209647"><ele>839.0</ele><time>2026-05-03T09:57:17Z</time></trkpt><trkpt lat="43.105748712052296" lon="18.816363091491212"><ele>840.0</ele><time>2026-05-03T09:57:18Z</time></trkpt><trkpt lat="43.10594381871142" lon="18.81623756370426"><ele>841.0</ele><time>2026-05-03T09:57:19Z</time></trkpt><trkpt lat="43.10612818009426" lon="18.81610970051857"><ele>845.3333333333333</ele><time>2026-05-03T09:57:20Z</time></trkpt><trkpt lat="43.10630306523031" lon="18.815948941894803"><ele>849.6666666666667</ele><time>2026-05-03T09:57:21Z</time></trkpt><trkpt lat="43.10647151162724" lon="18.815760392771907"><ele>854.0</ele><time>2026-05-03T09:57:22Z</time></trkpt><trkpt lat="43.10663635912643" lon="18.81556496325534"><ele>854.0</ele><time>2026-05-03T09:57:23Z</time></trkpt><trkpt lat="43.10680092486519" lon="18.815373437100195"><ele>854.0</ele><time>2026-05-03T09:57:24Z</time></trkpt><trkpt lat="43.10697407340395" lon="18.81518733339897"><ele>854.0</ele><time>2026-05-03T09:57:25Z</time></trkpt><trkpt lat="43.10715457252324" lon="18.815018514353902"><ele>857.6666666666667</ele><time>2026-05-03T09:57:26Z</time></trkpt><trkpt lat="43.10734553749347" lon="18.814870052560607"><ele>861.3333333333333</ele><time>2026-05-03T09:57:27Z</time></trkpt><trkpt lat="43.10753842322313" lon="18.81475540102681"><ele>865.0</ele><time>2026-05-03T09:57:28Z</time></trkpt><trkpt lat="43.1077373798062" lon="18.814667163926583"><ele>865.0</ele><time>2026-05-03T09:57:29Z</time></trkpt><trkpt lat="43.107936477828716" lon="18.81460315360629"><ele>865.0</ele><time>2026-05-03T09:57:30Z</time></trkpt><trkpt lat="43.10812799767005" lon="18.81456660914986"><ele>865.0</ele><time>2026-05-03T09:57:31Z</time></trkpt><trkpt lat="43.108320683074915" lon="18.814553308725397"><ele>865.3333333333333</ele><time>2026-05-03T09:57:32Z</time></trkpt><trkpt lat="43.10851657093773" lon="18.814566116658323"><ele>865.6666666666667</ele><time>2026-05-03T09:57:33Z</time></trkpt><trkpt lat="43.108708369561455" lon="18.814612420701664"><ele>866.0</ele><time>2026-05-03T09:57:34Z</time></trkpt><trkpt lat="43.10889803470377" lon="18.814678101390353"><ele>868.0</ele><time>2026-05-03T09:57:35Z</time></trkpt><trkpt lat="43.10908453275048" lon="18.814759064480718"><ele>870.0</ele><time>2026-05-03T09:57:36Z</time></trkpt><trkpt lat="43.10927235639916" lon="18.814858068150976"><ele>872.0</ele><time>2026-05-03T09:57:37Z</time></trkpt><trkpt lat="43.10946052894794" lon="18.814959762389133"><ele>872.0</ele><time>2026-05-03T09:57:38Z</time></trkpt><trkpt lat="43.10965813294629" lon="18.815030598886384"><ele>872.0</ele><time>2026-05-03T09:57:39Z</time></trkpt><trkpt lat="43.10986041679548" lon="18.815040014493967"><ele>872.0</ele><time>2026-05-03T09:57:40Z</time></trkpt><trkpt lat="43.11006475142115" lon="18.814983332101075"><ele>875.3333333333334</ele><time>2026-05-03T09:57:41Z</time></trkpt><trkpt lat="43.11026770599103" lon="18.8148880490144"><ele>878.6666666666667</ele><time>2026-05-03T09:57:42Z</time></trkpt><trkpt lat="43.110481733216226" lon="18.81479427757302"><ele>882.0</ele><time>2026-05-03T09:57:43Z</time></trkpt><trkpt lat="43.11069458557338" lon="18.814731883991996"><ele>884.0</ele><time>2026-05-03T09:57:44Z</time></trkpt><trkpt lat="43.11090929159937" lon="18.814696123377452"><ele>886.0</ele><time>2026-05-03T09:57:45Z</time></trkpt><trkpt lat="43.111123204266455" lon="18.814687834289387"><ele>888.0</ele><time>2026-05-03T09:57:46Z</time></trkpt><trkpt lat="43.11133360534247" lon="18.814707901369076"><ele>888.0</ele><time>2026-05-03T09:57:47Z</time></trkpt><trkpt lat="43.111537787071214" lon="18.81474603566567"><ele>888.0</ele><time>2026-05-03T09:57:48Z</time></trkpt><trkpt lat="43.111729414552684" lon="18.814788038882075"><ele>888.0</ele><time>2026-05-03T09:57:49Z</time></trkpt><trkpt lat="43.111911081202486" lon="18.814828575870933"><ele>889.3333333333333</ele><time>2026-05-03T09:57:50Z</time></trkpt><trkpt lat="43.11207936700809" lon="18.814866781135674"><ele>890.6666666666666</ele><time>2026-05-03T09:57:51Z</time></trkpt><trkpt lat="43.11223582298335" lon="18.81490514372737"><ele>892.0</ele><time>2026-05-03T09:57:52Z</time></trkpt><trkpt lat="43.11237789428202" lon="18.814946252217407"><ele>893.75</ele><time>2026-05-03T09:57:53Z</time></trkpt><trkpt lat="43.1125066870334" lon="18.815010101888383"><ele>895.5</ele><time>2026-05-03T09:57:54Z</time></trkpt><trkpt lat="43.11262333822262" lon="18.815103848812445"><ele>897.25</ele><time>2026-05-03T09:57:55Z</time></trkpt><trkpt lat="43.11271557773173" lon="18.81524355865737"><ele>899.0</ele><time>2026-05-03T09:57:56Z</time></trkpt><trkpt lat="43.11278279506657" lon="18.81541560838354"><ele>899.5</ele><time>2026-05-03T09:57:57Z</time></trkpt><trkpt lat="43.112809970594974" lon="18.815604079806935"><ele>900.0</ele><time>2026-05-03T09:57:58Z</time></trkpt><trkpt lat="43.11279566836174" lon="18.81579699072564"><ele>900.5</ele><time>2026-05-03T09:57:59Z</time></trkpt><trkpt lat="43.112744436146016" lon="18.815992304707954"><ele>901.0</ele><time>2026-05-03T09:58:00Z</time></trkpt><trkpt lat="43.11266283216851" lon="18.81617735575204"><ele>897.6666666666666</ele><time>2026-05-03T09:58:01Z</time></trkpt><trkpt lat="43.11256688059566" lon="18.81636938802581"><ele>894.3333333333333</ele><time>2026-05-03T09:58:02Z</time></trkpt><trkpt lat="43.11246580010414" lon="18.81656508791634"><ele>891.0</ele><time>2026-05-03T09:58:03Z</time></trkpt><trkpt lat="43.112375861858396" lon="18.81677063002736"><ele>893.3333333333333</ele><time>2026-05-03T09:58:04Z</time></trkpt><trkpt lat="43.11230179678374" lon="18.816997753030904"><ele>895.6666666666666</ele><time>2026-05-03T09:58:05Z</time></trkpt><trkpt lat="43.112259156336165" lon="18.81723917878435"><ele>898.0</ele><time>2026-05-03T09:58:06Z</time></trkpt><trkpt lat="43.11222764219426" lon="18.81748698787501"><ele>898.3333333333333</ele><time>2026-05-03T09:58:07Z</time></trkpt><trkpt lat="43.112189025150194" lon="18.817732653069562"><ele>898.6666666666667</ele><time>2026-05-03T09:58:08Z</time></trkpt><trkpt lat="43.11214990997692" lon="18.817977643432027"><ele>899.0</ele><time>2026-05-03T09:58:09Z</time></trkpt><trkpt lat="43.112121007675476" lon="18.818225508400587"><ele>899.0</ele><time>2026-05-03T09:58:10Z</time></trkpt><trkpt lat="43.11211826811719" lon="18.81846734186458"><ele>899.0</ele><time>2026-05-03T09:58:11Z</time></trkpt><trkpt lat="43.11213599292176" lon="18.818707111310307"><ele>899.0</ele><time>2026-05-03T09:58:12Z</time></trkpt><trkpt lat="43.1121646349172" lon="18.81894615394415"><ele>900.0</ele><time>2026-05-03T09:58:13Z</time></trkpt><trkpt lat="43.11220171912238" lon="18.819168189022577"><ele>901.0</ele><time>2026-05-03T09:58:14Z</time></trkpt><trkpt lat="43.112236409072956" lon="18.81938358579883"><ele>902.0</ele><time>2026-05-03T09:58:15Z</time></trkpt><trkpt lat="43.11225600877436" lon="18.819596129638377"><ele>904.75</ele><time>2026-05-03T09:58:16Z</time></trkpt><trkpt lat="43.11224620941113" lon="18.8197943133259"><ele>907.5</ele><time>2026-05-03T09:58:17Z</time></trkpt><trkpt lat="43.11220421084061" lon="18.819989587772906"><ele>910.25</ele><time>2026-05-03T09:58:18Z</time></trkpt><trkpt lat="43.11213813133004" lon="18.82017872065157"><ele>913.0</ele><time>2026-05-03T09:58:19Z</time></trkpt><trkpt lat="43.112048456903594" lon="18.820347152466173"><ele>918.6666666666666</ele><time>2026-05-03T09:58:20Z</time></trkpt><trkpt lat="43.111942883233496" lon="18.82050412911805"><ele>924.3333333333333</ele><time>2026-05-03T09:58:21Z</time></trkpt><trkpt lat="43.11183508778425" lon="18.8206557812823"><ele>930.0</ele><time>2026-05-03T09:58:22Z</time></trkpt><trkpt lat="43.11173296738091" lon="18.820801245616195"><ele>930.0</ele><time>2026-05-03T09:58:23Z</time></trkpt><trkpt lat="43.11164803159901" lon="18.82096496272633"><ele>930.0</ele><time>2026-05-03T09:58:24Z</time></trkpt><trkpt lat="43.111587622094945" lon="18.82115741674609"><ele>930.0</ele><time>2026-05-03T09:58:25Z</time></trkpt><trkpt lat="43.111566445634" lon="18.821359926361648"><ele>930.0</ele><time>2026-05-03T09:58:26Z</time></trkpt><trkpt lat="43.11157349393399" lon="18.82155950226232"><ele>931.75</ele><time>2026-05-03T09:58:27Z</time></trkpt><trkpt lat="43.1116091201187" lon="18.821747296765473"><ele>933.5</ele><time>2026-05-03T09:58:28Z</time></trkpt><trkpt lat="43.11166839512771" lon="18.82192225089767"><ele>935.25</ele><time>2026-05-03T09:58:29Z</time></trkpt><trkpt lat="43.11175343941095" lon="18.82208240027746"><ele>937.0</ele><time>2026-05-03T09:58:30Z</time></trkpt><trkpt lat="43.111875867893275" lon="18.82221785264457"><ele>937.0</ele><time>2026-05-03T09:58:31Z</time></trkpt><trkpt lat="43.11199128180594" lon="18.82231250935913"><ele>937.0</ele><time>2026-05-03T09:58:32Z</time></trkpt><trkpt lat="43.11212427663409" lon="18.82238414016082"><ele>937.0</ele><time>2026-05-03T09:58:33Z</time></trkpt><trkpt lat="43.11227698774164" lon="18.822420673953946"><ele>937.0</ele><time>2026-05-03T09:58:34Z</time></trkpt><trkpt lat="43.112411741686635" lon="18.822433724689084"><ele>939.0</ele><time>2026-05-03T09:58:35Z</time></trkpt><trkpt lat="43.11254530696953" lon="18.82243572766841"><ele>941.0</ele><time>2026-05-03T09:58:36Z</time></trkpt><trkpt lat="43.1126792762411" lon="18.822452372807472"><ele>943.0</ele><time>2026-05-03T09:58:37Z</time></trkpt><trkpt lat="43.112813314645834" lon="18.822473355211773"><ele>945.0</ele><time>2026-05-03T09:58:38Z</time></trkpt><trkpt lat="43.112953367504275" lon="18.822489314717263"><ele>945.0</ele><time>2026-05-03T09:58:39Z</time></trkpt><trkpt lat="43.11308845377868" lon="18.822499288216793"><ele>945.0</ele><time>2026-05-03T09:58:40Z</time></trkpt><trkpt lat="43.113222052452294" lon="18.822490136826946"><ele>945.0</ele><time>2026-05-03T09:58:41Z</time></trkpt><trkpt lat="43.1133453534799" lon="18.822439698683862"><ele>945.0</ele><time>2026-05-03T09:58:42Z</time></trkpt><trkpt lat="43.11346216914176" lon="18.822344956214447"><ele>945.3333333333333</ele><time>2026-05-03T09:58:43Z</time></trkpt><trkpt lat="43.11357922958018" lon="18.822214238643024"><ele>945.6666666666666</ele><time>2026-05-03T09:58:44Z</time></trkpt><trkpt lat="43.113693142489" lon="18.82205640597222"><ele>946.0</ele><time>2026-05-03T09:58:45Z</time></trkpt><trkpt lat="43.113804116821825" lon="18.821898345768115"><ele>948.6666666666666</ele><time>2026-05-03T09:58:46Z</time></trkpt><trkpt lat="43.11392421718742" lon="18.82175238323199"><ele>951.3333333333333</ele><time>2026-05-03T09:58:47Z</time></trkpt><trkpt lat="43.114055702591926" lon="18.82161843335045"><ele>954.0</ele><time>2026-05-03T09:58:48Z</time></trkpt><trkpt lat="43.11420215561871" lon="18.82149914242978"><ele>954.0</ele><time>2026-05-03T09:58:49Z</time></trkpt><trkpt lat="43.114353790596034" lon="18.821409878737214"><ele>954.0</ele><time>2026-05-03T09:58:50Z</time></trkpt><trkpt lat="43.11449750321559" lon="18.821345294854837"><ele>954.0</ele><time>2026-05-03T09:58:51Z</time></trkpt><trkpt lat="43.11462874122052" lon="18.821284541303523"><ele>954.0</ele><time>2026-05-03T09:58:52Z</time></trkpt><trkpt lat="43.114749036035604" lon="18.821199815775174"><ele>954.0</ele><time>2026-05-03T09:58:53Z</time></trkpt><trkpt lat="43.11485869912596" lon="18.82108400877821"><ele>954.0</ele><time>2026-05-03T09:58:54Z</time></trkpt><trkpt lat="43.1149603375544" lon="18.8209488619607"><ele>954.0</ele><time>2026-05-03T09:58:55Z</time></trkpt><trkpt lat="43.115052798970986" lon="18.82080815487282"><ele>957.0</ele><time>2026-05-03T09:58:56Z</time></trkpt><trkpt lat="43.115150722844376" lon="18.82064957583595"><ele>960.0</ele><time>2026-05-03T09:58:57Z</time></trkpt><trkpt lat="43.11525477513442" lon="18.820469364775477"><ele>963.0</ele><time>2026-05-03T09:58:58Z</time></trkpt><trkpt lat="43.11534896729929" lon="18.820264906481636"><ele>967.0</ele><time>2026-05-03T09:58:59Z</time></trkpt><trkpt lat="43.11542277823838" lon="18.820032852384546"><ele>971.0</ele><time>2026-05-03T09:59:00Z</time></trkpt><trkpt lat="43.11549429892892" lon="18.819786893164462"><ele>975.0</ele><time>2026-05-03T09:59:01Z</time></trkpt><trkpt lat="43.11557530440509" lon="18.819547717999196"><ele>975.0</ele><time>2026-05-03T09:59:02Z</time></trkpt><trkpt lat="43.115688133953945" lon="18.81934908684418"><ele>975.0</ele><time>2026-05-03T09:59:03Z</time></trkpt><trkpt lat="43.115838391767994" lon="18.819203251107112"><ele>975.0</ele><time>2026-05-03T09:59:04Z</time></trkpt><trkpt lat="43.11600918233678" lon="18.819119239777937"><ele>971.6666666666667</ele><time>2026-05-03T09:59:05Z</time></trkpt><trkpt lat="43.11619633033064" lon="18.81908922702071"><ele>968.3333333333334</ele><time>2026-05-03T09:59:06Z</time></trkpt><trkpt lat="43.11638933145082" lon="18.819107336339716"><ele>965.0</ele><time>2026-05-03T09:59:07Z</time></trkpt><trkpt lat="43.11658141152532" lon="18.81915205040764"><ele>964.6666666666667</ele><time>2026-05-03T09:59:08Z</time></trkpt><trkpt lat="43.116760339965715" lon="18.819162683144175"><ele>964.3333333333333</ele><time>2026-05-03T09:59:09Z</time></trkpt><trkpt lat="43.11692221112476" lon="18.819099638901886"><ele>964.0</ele><time>2026-05-03T09:59:10Z</time></trkpt><trkpt lat="43.117075654157226" lon="18.81898549130586"><ele>964.0</ele><time>2026-05-03T09:59:11Z</time></trkpt><trkpt lat="43.11722729521717" lon="18.818839684103185"><ele>964.0</ele><time>2026-05-03T09:59:12Z</time></trkpt><trkpt lat="43.11737823587759" lon="18.818698454813244"><ele>964.0</ele><time>2026-05-03T09:59:13Z</time></trkpt><trkpt lat="43.117536830446056" lon="18.818588708975003"><ele>965.6666666666666</ele><time>2026-05-03T09:59:14Z</time></trkpt><trkpt lat="43.11771133018" lon="18.818526689279654"><ele>967.3333333333333</ele><time>2026-05-03T09:59:15Z</time></trkpt><trkpt lat="43.117896019110866" lon="18.818513261629523"><ele>969.0</ele><time>2026-05-03T09:59:16Z</time></trkpt><trkpt lat="43.11808922541599" lon="18.81851170457423"><ele>970.3333333333333</ele><time>2026-05-03T09:59:17Z</time></trkpt><trkpt lat="43.118281614277194" lon="18.8185008386911"><ele>971.6666666666666</ele><time>2026-05-03T09:59:18Z</time></trkpt><trkpt lat="43.118475466686064" lon="18.818480534489385"><ele>973.0</ele><time>2026-05-03T09:59:19Z</time></trkpt><trkpt lat="43.11866343717309" lon="18.818448003132502"><ele>973.0</ele><time>2026-05-03T09:59:20Z</time></trkpt><trkpt lat="43.11885233418495" lon="18.81838103847031"><ele>973.0</ele><time>2026-05-03T09:59:21Z</time></trkpt><trkpt lat="43.11904289793439" lon="18.818255992958306"><ele>973.0</ele><time>2026-05-03T09:59:22Z</time></trkpt><trkpt lat="43.119226565804794" lon="18.8180913006452"><ele>974.0</ele><time>2026-05-03T09:59:23Z</time></trkpt><trkpt lat="43.1193927087143" lon="18.81789637146205"><ele>975.0</ele><time>2026-05-03T09:59:24Z</time></trkpt><trkpt lat="43.11953241720475" lon="18.817668670248025"><ele>976.0</ele><time>2026-05-03T09:59:25Z</time></trkpt><trkpt lat="43.11964786158967" lon="18.81741068260732"><ele>976.0</ele><time>2026-05-03T09:59:26Z</time></trkpt><trkpt lat="43.119750657122104" lon="18.817144287781474"><ele>976.0</ele><time>2026-05-03T09:59:27Z</time></trkpt><trkpt lat="43.11984488855949" lon="18.81689566453094"><ele>976.0</ele><time>2026-05-03T09:59:28Z</time></trkpt><trkpt lat="43.11993932773583" lon="18.816660040367676"><ele>979.6666666666666</ele><time>2026-05-03T09:59:29Z</time></trkpt><trkpt lat="43.12003538045669" lon="18.81643137322428"><ele>983.3333333333333</ele><time>2026-05-03T09:59:30Z</time></trkpt><trkpt lat="43.12014825535608" lon="18.816214332713294"><ele>987.0</ele><time>2026-05-03T09:59:31Z</time></trkpt><trkpt lat="43.12029792465711" lon="18.816043329643655"><ele>985.3333333333333</ele><time>2026-05-03T09:59:32Z</time></trkpt><trkpt lat="43.1204822306402" lon="18.815953078356607"><ele>983.6666666666666</ele><time>2026-05-03T09:59:33Z</time></trkpt><trkpt lat="43.12067371716313" lon="18.815936434631453"><ele>982.0</ele><time>2026-05-03T09:59:34Z</time></trkpt><trkpt lat="43.120855494803266" lon="18.81592795163449"><ele>986.3333333333333</ele><time>2026-05-03T09:59:35Z</time></trkpt><trkpt lat="43.121031235785715" lon="18.81588891688827"><ele>990.6666666666667</ele><time>2026-05-03T09:59:36Z</time></trkpt><trkpt lat="43.12119627349852" lon="18.815783856851784"><ele>995.0</ele><time>2026-05-03T09:59:37Z</time></trkpt><trkpt lat="43.121310119282946" lon="18.815598367375035"><ele>995.0</ele><time>2026-05-03T09:59:38Z</time></trkpt><trkpt lat="43.12139647141216" lon="18.815363834736434"><ele>995.0</ele><time>2026-05-03T09:59:39Z</time></trkpt><trkpt lat="43.121481896521246" lon="18.8151587944755"><ele>995.0</ele><time>2026-05-03T09:59:40Z</time></trkpt><trkpt lat="43.121587258458504" lon="18.815020630565154"><ele>997.3333333333334</ele><time>2026-05-03T09:59:41Z</time></trkpt><trkpt lat="43.121720618335246" lon="18.814953143222098"><ele>999.6666666666667</ele><time>2026-05-03T09:59:42Z</time></trkpt><trkpt lat="43.12187184942097" lon="18.814957764239146"><ele>1002.0</ele><time>2026-05-03T09:59:43Z</time></trkpt><trkpt lat="43.12203224729165" lon="18.814984357509584"><ele>1002.0</ele><time>2026-05-03T09:59:44Z</time></trkpt><trkpt lat="43.12221099140658" lon="18.81504328821266"><ele>1002.0</ele><time>2026-05-03T09:59:45Z</time></trkpt><trkpt lat="43.12237817773194" lon="18.815107310191326"><ele>1002.0</ele><time>2026-05-03T09:59:46Z</time></trkpt><trkpt lat="43.122544864940515" lon="18.81510807691925"><ele>1004.6666666666667</ele><time>2026-05-03T09:59:47Z</time></trkpt><trkpt lat="43.12270191442919" lon="18.815016536630374"><ele>1007.3333333333334</ele><time>2026-05-03T09:59:48Z</time></trkpt><trkpt lat="43.12284009363547" lon="18.814849622633815"><ele>1010.0</ele><time>2026-05-03T09:59:49Z</time></trkpt><trkpt lat="43.12293815529497" lon="18.814645625154707"><ele>1010.0</ele><time>2026-05-03T09:59:50Z</time></trkpt><trkpt lat="43.12301203065442" lon="18.8144575621412"><ele>1010.0</ele><time>2026-05-03T09:59:51Z</time></trkpt><trkpt lat="43.12310430205538" lon="18.814298353184068"><ele>1010.0</ele><time>2026-05-03T09:59:52Z</time></trkpt><trkpt lat="43.123233822833825" lon="18.81419278607619"><ele>1010.75</ele><time>2026-05-03T09:59:53Z</time></trkpt><trkpt lat="43.12338094831795" lon="18.81414500885991"><ele>1011.5</ele><time>2026-05-03T09:59:54Z</time></trkpt><trkpt lat="43.12352141016507" lon="18.81415185579255"><ele>1012.25</ele><time>2026-05-03T09:59:55Z</time></trkpt><trkpt lat="43.12365179526095" lon="18.81419522987593"><ele>1013.0</ele><time>2026-05-03T09:59:56Z</time></trkpt><trkpt lat="43.12377689898004" lon="18.814246254527827"><ele>1013.0</ele><time>2026-05-03T09:59:57Z</time></trkpt><trkpt lat="43.12389591415088" lon="18.814275383452458"><ele>1013.0</ele><time>2026-05-03T09:59:58Z</time></trkpt><trkpt lat="43.124021584642065" lon="18.814275913350365"><ele>1013.0</ele><time>2026-05-03T09:59:59Z</time></trkpt><trkpt lat="43.12414799635137" lon="18.814242016429"><ele>1013.0</ele><time>2026-05-03T10:00:00Z</time></trkpt><trkpt lat="43.12425929615579" lon="18.814163320650728"><ele>1016.25</ele><time>2026-05-03T10:00:01Z</time></trkpt><trkpt lat="43.12436359797411" lon="18.81406193265426"><ele>1019.5</ele><time>2026-05-03T10:00:02Z</time></trkpt><trkpt lat="43.124465817898795" lon="18.813965499983873"><ele>1022.75</ele><time>2026-05-03T10:00:03Z</time></trkpt><trkpt lat="43.12456947757608" lon="18.813878624215207"><ele>1026.0</ele><time>2026-05-03T10:00:04Z</time></trkpt><trkpt lat="43.12468090920654" lon="18.81381545370579"><ele>1026.0</ele><time>2026-05-03T10:00:05Z</time></trkpt><trkpt lat="43.12480286154002" lon="18.813827458501926"><ele>1026.0</ele><time>2026-05-03T10:00:06Z</time></trkpt><trkpt lat="43.12491541966605" lon="18.81385207976835"><ele>1026.0</ele><time>2026-05-03T10:00:07Z</time></trkpt><trkpt lat="43.12504268032698" lon="18.81390047941447"><ele>1026.0</ele><time>2026-05-03T10:00:08Z</time></trkpt><trkpt lat="43.12516780713533" lon="18.813955537387546"><ele>1028.25</ele><time>2026-05-03T10:00:09Z</time></trkpt><trkpt lat="43.12528903835202" lon="18.81400830388348"><ele>1030.5</ele><time>2026-05-03T10:00:10Z</time></trkpt><trkpt lat="43.12540265416536" lon="18.814033964553907"><ele>1032.75</ele><time>2026-05-03T10:00:11Z</time></trkpt><trkpt lat="43.1255192591318" lon="18.814024269266888"><ele>1035.0</ele><time>2026-05-03T10:00:12Z</time></trkpt><trkpt lat="43.125637800626585" lon="18.81397670934381"><ele>1038.3333333333333</ele><time>2026-05-03T10:00:13Z</time></trkpt><trkpt lat="43.12575160649061" lon="18.813881284375505"><ele>1041.6666666666665</ele><time>2026-05-03T10:00:14Z</time></trkpt><trkpt lat="43.12588557816577" lon="18.813724689815512"><ele>1045.0</ele><time>2026-05-03T10:00:15Z</time></trkpt><trkpt lat="43.126032257104306" lon="18.813549710237787"><ele>1040.3333333333333</ele><time>2026-05-03T10:00:16Z</time></trkpt><trkpt lat="43.126166066671935" lon="18.81342596952012"><ele>1035.6666666666667</ele><time>2026-05-03T10:00:17Z</time></trkpt><trkpt lat="43.12630221763442" lon="18.81332752142808"><ele>1031.0</ele><time>2026-05-03T10:00:18Z</time></trkpt><trkpt lat="43.126429378785886" lon="18.813264211811276"><ele>1031.0</ele><time>2026-05-03T10:00:19Z</time></trkpt><trkpt lat="43.126555990912195" lon="18.81324510680801"><ele>1031.0</ele><time>2026-05-03T10:00:20Z</time></trkpt><trkpt lat="43.1266774185408" lon="18.813276462619072"><ele>1031.0</ele><time>2026-05-03T10:00:21Z</time></trkpt><trkpt lat="43.12679548600057" lon="18.813355376686708"><ele>1031.0</ele><time>2026-05-03T10:00:22Z</time></trkpt><trkpt lat="43.1269198685812" lon="18.81347458208735"><ele>1038.6666666666667</ele><time>2026-05-03T10:00:23Z</time></trkpt><trkpt lat="43.12704641994067" lon="18.813642980632753"><ele>1046.3333333333333</ele><time>2026-05-03T10:00:24Z</time></trkpt><trkpt lat="43.12718561726676" lon="18.81384092991533"><ele>1054.0</ele><time>2026-05-03T10:00:25Z</time></trkpt><trkpt lat="43.12734109056964" lon="18.814048399792167"><ele>1049.3333333333333</ele><time>2026-05-03T10:00:26Z</time></trkpt><trkpt lat="43.12749852197278" lon="18.814255367808475"><ele>1044.6666666666667</ele><time>2026-05-03T10:00:27Z</time></trkpt><trkpt lat="43.127642241437286" lon="18.814449771377365"><ele>1040.0</ele><time>2026-05-03T10:00:28Z</time></trkpt><trkpt lat="43.127780453434944" lon="18.81462530935221"><ele>1042.6666666666667</ele><time>2026-05-03T10:00:29Z</time></trkpt><trkpt lat="43.12793306894418" lon="18.814764261841894"><ele>1045.3333333333333</ele><time>2026-05-03T10:00:30Z</time></trkpt><trkpt lat="43.12810423461819" lon="18.814852415722946"><ele>1048.0</ele><time>2026-05-03T10:00:31Z</time></trkpt><trkpt lat="43.12829397412191" lon="18.814896309400183"><ele>1048.0</ele><time>2026-05-03T10:00:32Z</time></trkpt><trkpt lat="43.1284956961997" lon="18.81493475083432"><ele>1048.0</ele><time>2026-05-03T10:00:33Z</time></trkpt><trkpt lat="43.12869920550259" lon="18.814941306370407"><ele>1048.0</ele><time>2026-05-03T10:00:34Z</time></trkpt><trkpt lat="43.12890937416549" lon="18.814909080568334"><ele>1041.6666666666665</ele><time>2026-05-03T10:00:35Z</time></trkpt><trkpt lat="43.12910874051611" lon="18.814872142810792"><ele>1035.3333333333333</ele><time>2026-05-03T10:00:36Z</time></trkpt><trkpt lat="43.129290900067666" lon="18.81486704914831"><ele>1029.0</ele><time>2026-05-03T10:00:37Z</time></trkpt><trkpt lat="43.12945596407262" lon="18.814947170339167"><ele>1029.0</ele><time>2026-05-03T10:00:38Z</time></trkpt><trkpt lat="43.12960490218443" lon="18.815094292033194"><ele>1029.0</ele><time>2026-05-03T10:00:39Z</time></trkpt><trkpt lat="43.12973792546242" lon="18.815285836925963"><ele>1029.0</ele><time>2026-05-03T10:00:40Z</time></trkpt><trkpt lat="43.129878027841904" lon="18.81545704965282"><ele>1032.3333333333333</ele><time>2026-05-03T10:00:41Z</time></trkpt><trkpt lat="43.13005277467484" lon="18.81557607575621"><ele>1035.6666666666665</ele><time>2026-05-03T10:00:42Z</time></trkpt><trkpt lat="43.13023340571789" lon="18.8156257789341"><ele>1039.0</ele><time>2026-05-03T10:00:43Z</time></trkpt><trkpt lat="43.130399488444546" lon="18.81568790406935"><ele>1039.0</ele><time>2026-05-03T10:00:44Z</time></trkpt><trkpt lat="43.13052901267976" lon="18.81580991297501"><ele>1039.0</ele><time>2026-05-03T10:00:45Z</time></trkpt><trkpt lat="43.13062523298643" lon="18.815990731085073"><ele>1039.0</ele><time>2026-05-03T10:00:46Z</time></trkpt><trkpt lat="43.13069864971317" lon="18.816209248202274"><ele>1026.3333333333333</ele><time>2026-05-03T10:00:47Z</time></trkpt><trkpt lat="43.130757569955854" lon="18.81644155627493"><ele>1013.6666666666667</ele><time>2026-05-03T10:00:48Z</time></trkpt><trkpt lat="43.13078851897541" lon="18.816687436961914"><ele>1001.0</ele><time>2026-05-03T10:00:49Z</time></trkpt><trkpt lat="43.130778272282704" lon="18.816904876193313"><ele>1014.3333333333334</ele><time>2026-05-03T10:00:50Z</time></trkpt><trkpt lat="43.13071939994121" lon="18.817091340686606"><ele>1027.6666666666667</ele><time>2026-05-03T10:00:51Z</time></trkpt><trkpt lat="43.130615283623925" lon="18.817268560385642"><ele>1041.0</ele><time>2026-05-03T10:00:52Z</time></trkpt><trkpt lat="43.13053050071357" lon="18.81746717762074"><ele>1036.3333333333333</ele><time>2026-05-03T10:00:53Z</time></trkpt><trkpt lat="43.130452356507334" lon="18.81767675698509"><ele>1031.6666666666665</ele><time>2026-05-03T10:00:54Z</time></trkpt><trkpt lat="43.13036896236785" lon="18.817891707847508"><ele>1027.0</ele><time>2026-05-03T10:00:55Z</time></trkpt><trkpt lat="43.13031749430956" lon="18.818137404254443"><ele>1027.0</ele><time>2026-05-03T10:00:56Z</time></trkpt><trkpt lat="43.13029685092741" lon="18.818407276397153"><ele>1027.0</ele><time>2026-05-03T10:00:57Z</time></trkpt><trkpt lat="43.13029651896637" lon="18.818683121827377"><ele>1027.0</ele><time>2026-05-03T10:00:58Z</time></trkpt><trkpt lat="43.13030995089575" lon="18.818952957514266"><ele>1027.0</ele><time>2026-05-03T10:00:59Z</time></trkpt><trkpt lat="43.130325883585726" lon="18.81921800404254"><ele>1027.0</ele><time>2026-05-03T10:01:00Z</time></trkpt><trkpt lat="43.13035620028924" lon="18.819460363838655"><ele>1027.0</ele><time>2026-05-03T10:01:01Z</time></trkpt><trkpt lat="43.13041903062691" lon="18.81970480987321"><ele>1031.0</ele><time>2026-05-03T10:01:02Z</time></trkpt><trkpt lat="43.130531221541716" lon="18.819908731947475"><ele>1035.0</ele><time>2026-05-03T10:01:03Z</time></trkpt><trkpt lat="43.13067682476069" lon="18.820087427550373"><ele>1039.0</ele><time>2026-05-03T10:01:04Z</time></trkpt><trkpt lat="43.13084595198348" lon="18.820242759982985"><ele>1037.3333333333333</ele><time>2026-05-03T10:01:05Z</time></trkpt><trkpt lat="43.13100594587418" lon="18.820437806690304"><ele>1035.6666666666667</ele><time>2026-05-03T10:01:06Z</time></trkpt><trkpt lat="43.131138386851504" lon="18.82068555063512"><ele>1034.0</ele><time>2026-05-03T10:01:07Z</time></trkpt><trkpt lat="43.13119955998523" lon="18.82101218764689"><ele>1034.0</ele><time>2026-05-03T10:01:08Z</time></trkpt><trkpt lat="43.131312147498896" lon="18.82133366872497"><ele>1034.0</ele><time>2026-05-03T10:01:09Z</time></trkpt><trkpt lat="43.13139796974352" lon="18.821640020946067"><ele>1042.0</ele><time>2026-05-03T10:01:10Z</time></trkpt><trkpt lat="43.13148460472581" lon="18.82193155590488"><ele>1050.0</ele><time>2026-05-03T10:01:11Z</time></trkpt><trkpt lat="43.13157313352093" lon="18.82221055087048"><ele>1040.3333333333333</ele><time>2026-05-03T10:01:12Z</time></trkpt><trkpt lat="43.13166084992017" lon="18.822477153042133"><ele>1030.6666666666665</ele><time>2026-05-03T10:01:13Z</time></trkpt><trkpt lat="43.1317631162119" lon="18.82271596890467"><ele>1021.0</ele><time>2026-05-03T10:01:14Z</time></trkpt><trkpt lat="43.131895617201806" lon="18.8229051575763"><ele>1021.0</ele><time>2026-05-03T10:01:15Z</time></trkpt><trkpt lat="43.13206271985319" lon="18.823035864970645"><ele>1021.0</ele><time>2026-05-03T10:01:16Z</time></trkpt><trkpt lat="43.13224647552314" lon="18.823112078370798"><ele>1021.0</ele><time>2026-05-03T10:01:17Z</time></trkpt><trkpt lat="43.13243328671583" lon="18.823194683204814"><ele>1018.3333333333333</ele><time>2026-05-03T10:01:18Z</time></trkpt><trkpt lat="43.132595598980934" lon="18.82334636507808"><ele>1015.6666666666667</ele><time>2026-05-03T10:01:19Z</time></trkpt><trkpt lat="43.13273201402796" lon="18.82352801282258"><ele>1013.0</ele><time>2026-05-03T10:01:20Z</time></trkpt><trkpt lat="43.13284231855204" lon="18.82375163764055"><ele>1013.0</ele><time>2026-05-03T10:01:21Z</time></trkpt><trkpt lat="43.132961717267065" lon="18.823975344205575"><ele>1013.0</ele><time>2026-05-03T10:01:22Z</time></trkpt><trkpt lat="43.13307106606625" lon="18.824200780940632"><ele>1013.0</ele><time>2026-05-03T10:01:23Z</time></trkpt><trkpt lat="43.13324132048074" lon="18.824396252788237"><ele>1008.6666666666667</ele><time>2026-05-03T10:01:24Z</time></trkpt><trkpt lat="43.133419357491285" lon="18.824548192853644"><ele>1004.3333333333333</ele><time>2026-05-03T10:01:25Z</time></trkpt><trkpt lat="43.13360542411916" lon="18.824679870006293"><ele>1000.0</ele><time>2026-05-03T10:01:26Z</time></trkpt><trkpt lat="43.13378608662317" lon="18.824815927801435"><ele>1000.0</ele><time>2026-05-03T10:01:27Z</time></trkpt><trkpt lat="43.133952216207966" lon="18.82495143468526"><ele>1000.0</ele><time>2026-05-03T10:01:28Z</time></trkpt><trkpt lat="43.13410618774524" lon="18.82507837423312"><ele>1000.0</ele><time>2026-05-03T10:01:29Z</time></trkpt><trkpt lat="43.13424525406749" lon="18.825173591139862"><ele>1001.75</ele><time>2026-05-03T10:01:30Z</time></trkpt><trkpt lat="43.134381096312225" lon="18.825252763051044"><ele>1003.5</ele><time>2026-05-03T10:01:31Z</time></trkpt><trkpt lat="43.13451770198618" lon="18.82531984825922"><ele>1005.25</ele><time>2026-05-03T10:01:32Z</time></trkpt><trkpt lat="43.13466040723679" lon="18.825391674472034"><ele>1007.0</ele><time>2026-05-03T10:01:33Z</time></trkpt><trkpt lat="43.13480692672857" lon="18.825473784435975"><ele>997.5</ele><time>2026-05-03T10:01:34Z</time></trkpt><trkpt lat="43.134926242170344" lon="18.825601745136087"><ele>988.0</ele><time>2026-05-03T10:01:35Z</time></trkpt><trkpt lat="43.135053972806915" lon="18.825700875598702"><ele>978.5</ele><time>2026-05-03T10:01:36Z</time></trkpt><trkpt lat="43.13518189894256" lon="18.825810927329744"><ele>969.0</ele><time>2026-05-03T10:01:37Z</time></trkpt><trkpt lat="43.135317265303264" lon="18.825891229603574"><ele>969.0</ele><time>2026-05-03T10:01:38Z</time></trkpt><trkpt lat="43.13546460359625" lon="18.825907961269564"><ele>969.0</ele><time>2026-05-03T10:01:39Z</time></trkpt><trkpt lat="43.13560335534362" lon="18.82588642755379"><ele>969.0</ele><time>2026-05-03T10:01:40Z</time></trkpt><trkpt lat="43.13574580857804" lon="18.825868195119273"><ele>969.0</ele><time>2026-05-03T10:01:41Z</time></trkpt><trkpt lat="43.135875307053944" lon="18.82591276511879"><ele>974.75</ele><time>2026-05-03T10:01:42Z</time></trkpt><trkpt lat="43.135999693099464" lon="18.82598006908349"><ele>980.5</ele><time>2026-05-03T10:01:43Z</time></trkpt><trkpt lat="43.13611408077734" lon="18.82610827313012"><ele>986.25</ele><time>2026-05-03T10:01:44Z</time></trkpt><trkpt lat="43.13622595586731" lon="18.826221176250613"><ele>992.0</ele><time>2026-05-03T10:01:45Z</time></trkpt><trkpt lat="43.13632507690367" lon="18.82634683642994"><ele>992.0</ele><time>2026-05-03T10:01:46Z</time></trkpt><trkpt lat="43.136432779482114" lon="18.826446245335216"><ele>992.0</ele><time>2026-05-03T10:01:47Z</time></trkpt><trkpt lat="43.136560517569414" lon="18.826509517486162"><ele>992.0</ele><time>2026-05-03T10:01:48Z</time></trkpt><trkpt lat="43.13669745449936" lon="18.82656392082539"><ele>992.0</ele><time>2026-05-03T10:01:49Z</time></trkpt><trkpt lat="43.13683246646224" lon="18.82662919783017"><ele>981.3333333333334</ele><time>2026-05-03T10:01:50Z</time></trkpt><trkpt lat="43.13701352254911" lon="18.826544344862306"><ele>970.6666666666667</ele><time>2026-05-03T10:01:51Z</time></trkpt><trkpt lat="43.137176498761114" lon="18.82656146954287"><ele>960.0</ele><time>2026-05-03T10:01:52Z</time></trkpt><trkpt lat="43.137341246748264" lon="18.826582534668894"><ele>952.0</ele><time>2026-05-03T10:01:53Z</time></trkpt><trkpt lat="43.1375021055498" lon="18.82660087259834"><ele>944.0</ele><time>2026-05-03T10:01:54Z</time></trkpt><trkpt lat="43.137655606114826" lon="18.826615654316996"><ele>936.0</ele><time>2026-05-03T10:01:55Z</time></trkpt><trkpt lat="43.13779936804325" lon="18.826646904165734"><ele>936.0</ele><time>2026-05-03T10:01:56Z</time></trkpt><trkpt lat="43.137934542850374" lon="18.826724034900533"><ele>936.0</ele><time>2026-05-03T10:01:57Z</time></trkpt><trkpt lat="43.138045603248486" lon="18.826844692686294"><ele>936.0</ele><time>2026-05-03T10:01:58Z</time></trkpt><trkpt lat="43.138131018420204" lon="18.827007459428696"><ele>936.0</ele><time>2026-05-03T10:01:59Z</time></trkpt><trkpt lat="43.13819490340075" lon="18.82720634488683"><ele>947.25</ele><time>2026-05-03T10:02:00Z</time></trkpt><trkpt lat="43.13821312285438" lon="18.827411724331615"><ele>958.5</ele><time>2026-05-03T10:02:01Z</time></trkpt><trkpt lat="43.13820890518377" lon="18.827617359732457"><ele>969.75</ele><time>2026-05-03T10:02:02Z</time></trkpt><trkpt lat="43.13819888950232" lon="18.827808427969845"><ele>981.0</ele><time>2026-05-03T10:02:03Z</time></trkpt><trkpt lat="43.13821521854179" lon="18.827989327459644"><ele>979.0</ele><time>2026-05-03T10:02:04Z</time></trkpt><trkpt lat="43.13827600073124" lon="18.82815196276805"><ele>977.0</ele><time>2026-05-03T10:02:05Z</time></trkpt><trkpt lat="43.138363934300365" lon="18.82828258887574"><ele>975.0</ele><time>2026-05-03T10:02:06Z</time></trkpt><trkpt lat="43.138476077262396" lon="18.82840487960461"><ele>973.0</ele><time>2026-05-03T10:02:07Z</time></trkpt><trkpt lat="43.13857258216472" lon="18.828516875261403"><ele>973.0</ele><time>2026-05-03T10:02:08Z</time></trkpt><trkpt lat="43.1386773253227" lon="18.82864818845613"><ele>973.0</ele><time>2026-05-03T10:02:09Z</time></trkpt><trkpt lat="43.13877348224529" lon="18.828791333512704"><ele>973.0</ele><time>2026-05-03T10:02:10Z</time></trkpt><trkpt lat="43.13886348023781" lon="18.82895314967438"><ele>973.0</ele><time>2026-05-03T10:02:11Z</time></trkpt><trkpt lat="43.13893263368446" lon="18.829126395334804"><ele>973.0</ele><time>2026-05-03T10:02:12Z</time></trkpt><trkpt lat="43.1390118531548" lon="18.829298924373163"><ele>973.0</ele><time>2026-05-03T10:02:13Z</time></trkpt><trkpt lat="43.139122218717326" lon="18.829455701891465"><ele>973.0</ele><time>2026-05-03T10:02:14Z</time></trkpt><trkpt lat="43.13927951284803" lon="18.82961811277643"><ele>956.5</ele><time>2026-05-03T10:02:15Z</time></trkpt><trkpt lat="43.13946975321394" lon="18.829829770322494"><ele>940.0</ele><time>2026-05-03T10:02:16Z</time></trkpt><trkpt lat="43.13966677670625" lon="18.83005666350432"><ele>941.3333333333333</ele><time>2026-05-03T10:02:17Z</time></trkpt><trkpt lat="43.13984509149016" lon="18.830251566899832"><ele>942.6666666666667</ele><time>2026-05-03T10:02:18Z</time></trkpt><trkpt lat="43.14001969139885" lon="18.830435421349033"><ele>944.0</ele><time>2026-05-03T10:02:19Z</time></trkpt><trkpt lat="43.140187506307235" lon="18.830603836321593"><ele>944.0</ele><time>2026-05-03T10:02:20Z</time></trkpt><trkpt lat="43.14033841216464" lon="18.83077367412864"><ele>944.0</ele><time>2026-05-03T10:02:21Z</time></trkpt><trkpt lat="43.14049597226695" lon="18.83092299607112"><ele>944.0</ele><time>2026-05-03T10:02:22Z</time></trkpt><trkpt lat="43.14065124960021" lon="18.83105477070142"><ele>946.3333333333334</ele><time>2026-05-03T10:02:23Z</time></trkpt><trkpt lat="43.14081198744315" lon="18.831147779716687"><ele>948.6666666666667</ele><time>2026-05-03T10:02:24Z</time></trkpt><trkpt lat="43.140975336699945" lon="18.83117092567939"><ele>951.0</ele><time>2026-05-03T10:02:25Z</time></trkpt><trkpt lat="43.14113221394087" lon="18.831147513359472"><ele>951.0</ele><time>2026-05-03T10:02:26Z</time></trkpt><trkpt lat="43.14126285321465" lon="18.83109038580907"><ele>951.0</ele><time>2026-05-03T10:02:27Z</time></trkpt><trkpt lat="43.14139599222542" lon="18.831050600898617"><ele>951.0</ele><time>2026-05-03T10:02:28Z</time></trkpt><trkpt lat="43.141525102293905" lon="18.83104054492601"><ele>951.0</ele><time>2026-05-03T10:02:29Z</time></trkpt><trkpt lat="43.141650032010745" lon="18.83106553140309"><ele>948.0</ele><time>2026-05-03T10:02:30Z</time></trkpt><trkpt lat="43.141764086749255" lon="18.831132169858428"><ele>945.0</ele><time>2026-05-03T10:02:31Z</time></trkpt><trkpt lat="43.14186215549174" lon="18.831224756817175"><ele>942.0</ele><time>2026-05-03T10:02:32Z</time></trkpt><trkpt lat="43.14195691723934" lon="18.83135220460659"><ele>939.0</ele><time>2026-05-03T10:02:33Z</time></trkpt><trkpt lat="43.142048250610635" lon="18.831454900434036"><ele>939.0</ele><time>2026-05-03T10:02:34Z</time></trkpt><trkpt lat="43.142150336700176" lon="18.83154161659432"><ele>939.0</ele><time>2026-05-03T10:02:35Z</time></trkpt><trkpt lat="43.14227120604601" lon="18.831597739241523"><ele>939.0</ele><time>2026-05-03T10:02:36Z</time></trkpt><trkpt lat="43.14240054284331" lon="18.831620888316447"><ele>939.0</ele><time>2026-05-03T10:02:37Z</time></trkpt><trkpt lat="43.14253994125873" lon="18.831617050514662"><ele>929.6666666666667</ele><time>2026-05-03T10:02:38Z</time></trkpt><trkpt lat="43.14269303387084" lon="18.831609625718286"><ele>920.3333333333334</ele><time>2026-05-03T10:02:39Z</time></trkpt><trkpt lat="43.14284946596781" lon="18.83159691696201"><ele>911.0</ele><time>2026-05-03T10:02:40Z</time></trkpt><trkpt lat="43.14300851667799" lon="18.831576096156148"><ele>911.0</ele><time>2026-05-03T10:02:41Z</time></trkpt><trkpt lat="43.14316964209693" lon="18.831534752043364"><ele>911.0</ele><time>2026-05-03T10:02:42Z</time></trkpt><trkpt lat="43.143328119131844" lon="18.831468370188148"><ele>911.0</ele><time>2026-05-03T10:02:43Z</time></trkpt><trkpt lat="43.143476512603804" lon="18.831363227975302"><ele>910.0</ele><time>2026-05-03T10:02:44Z</time></trkpt><trkpt lat="43.14362014636482" lon="18.83123453978988"><ele>909.0</ele><time>2026-05-03T10:02:45Z</time></trkpt><trkpt lat="43.14376084983985" lon="18.83111718303112"><ele>908.0</ele><time>2026-05-03T10:02:46Z</time></trkpt><trkpt lat="43.143903953749565" lon="18.83100961405122"><ele>898.6666666666667</ele><time>2026-05-03T10:02:47Z</time></trkpt><trkpt lat="43.14404634528648" lon="18.83091500431261"><ele>889.3333333333333</ele><time>2026-05-03T10:02:48Z</time></trkpt><trkpt lat="43.14420049574008" lon="18.8308291435435"><ele>880.0</ele><time>2026-05-03T10:02:49Z</time></trkpt><trkpt lat="43.14436418973918" lon="18.830769006525472"><ele>880.0</ele><time>2026-05-03T10:02:50Z</time></trkpt><trkpt lat="43.14454333217063" lon="18.830761907776864"><ele>880.0</ele><time>2026-05-03T10:02:51Z</time></trkpt><trkpt lat="43.14470887123344" lon="18.83077943977151"><ele>880.0</ele><time>2026-05-03T10:02:52Z</time></trkpt><trkpt lat="43.14487410986704" lon="18.830796206409982"><ele>888.3333333333333</ele><time>2026-05-03T10:02:53.023Z</time></trkpt><trkpt lat="43.1450354964105" lon="18.830807915906348"><ele>896.6666666666667</ele><time>2026-05-03T10:02:54.016Z</time></trkpt><trkpt lat="43.14519689199712" lon="18.830823540388764"><ele>905.0</ele><time>2026-05-03T10:02:55.017Z</time></trkpt><trkpt lat="43.1453534226444" lon="18.830843326613"><ele>905.0</ele><time>2026-05-03T10:02:56.017Z</time></trkpt><trkpt lat="43.14551025394317" lon="18.830860404526813"><ele>905.0</ele><time>2026-05-03T10:02:57.014Z</time></trkpt><trkpt lat="43.14566133547867" lon="18.83208998480703"><ele>911.3333333333334</ele><time>2026-05-03T10:03:03Z</time></trkpt><trkpt lat="43.14570749917294" lon="18.832293317278758"><ele>917.6666666666667</ele><time>2026-05-03T10:03:04Z</time></trkpt><trkpt lat="43.14573083125872" lon="18.832481543370044"><ele>924.0</ele><time>2026-05-03T10:03:05Z</time></trkpt><trkpt lat="43.145711943665475" lon="18.832708119274024"><ele>902.3333333333333</ele><time>2026-05-03T10:03:06Z</time></trkpt><trkpt lat="43.14574510353888" lon="18.832938634166513"><ele>880.6666666666666</ele><time>2026-05-03T10:03:07Z</time></trkpt><trkpt lat="43.14578160131783" lon="18.833153330742647"><ele>859.0</ele><time>2026-05-03T10:03:08Z</time></trkpt><trkpt lat="43.145817610794424" lon="18.83334922172388"><ele>865.6666666666666</ele><time>2026-05-03T10:03:09Z</time></trkpt><trkpt lat="43.14589260454501" lon="18.833539930452254"><ele>872.3333333333333</ele><time>2026-05-03T10:03:10Z</time></trkpt><trkpt lat="43.14595554472285" lon="18.83373644350948"><ele>879.0</ele><time>2026-05-03T10:03:11Z</time></trkpt><trkpt lat="43.146123165449204" lon="18.83385449621066"><ele>879.0</ele><time>2026-05-03T10:03:12Z</time></trkpt><trkpt lat="43.14626987565804" lon="18.833969172495426"><ele>879.0</ele><time>2026-05-03T10:03:13Z</time></trkpt><trkpt lat="43.14642761836368" lon="18.834037642410014"><ele>879.0</ele><time>2026-05-03T10:03:14Z</time></trkpt><trkpt lat="43.14657161370857" lon="18.834147924859753"><ele>874.0</ele><time>2026-05-03T10:03:15Z</time></trkpt><trkpt lat="43.14672590788528" lon="18.834191886029462"><ele>869.0</ele><time>2026-05-03T10:03:16Z</time></trkpt><trkpt lat="43.146861311851715" lon="18.834290348933898"><ele>864.0</ele><time>2026-05-03T10:03:17Z</time></trkpt><trkpt lat="43.146981106561505" lon="18.834421638057087"><ele>864.0</ele><time>2026-05-03T10:03:18Z</time></trkpt><trkpt lat="43.14708830273847" lon="18.83456516716103"><ele>864.0</ele><time>2026-05-03T10:03:19Z</time></trkpt><trkpt lat="43.14718613961558" lon="18.834739551298913"><ele>864.0</ele><time>2026-05-03T10:03:20Z</time></trkpt><trkpt lat="43.14726835476294" lon="18.834941679761112"><ele>868.0</ele><time>2026-05-03T10:03:21Z</time></trkpt><trkpt lat="43.14734370236554" lon="18.835171025426025"><ele>872.0</ele><time>2026-05-03T10:03:22Z</time></trkpt><trkpt lat="43.147419009547505" lon="18.835391227606454"><ele>876.0</ele><time>2026-05-03T10:03:23Z</time></trkpt><trkpt lat="43.147499345848516" lon="18.835639490514026"><ele>866.0</ele><time>2026-05-03T10:03:24Z</time></trkpt><trkpt lat="43.147584344076215" lon="18.83587611862644"><ele>856.0</ele><time>2026-05-03T10:03:25Z</time></trkpt><trkpt lat="43.14765703143267" lon="18.836112972396684"><ele>846.0</ele><time>2026-05-03T10:03:26Z</time></trkpt><trkpt lat="43.1477281874914" lon="18.836336972008585"><ele>846.0</ele><time>2026-05-03T10:03:27Z</time></trkpt><trkpt lat="43.14778643519422" lon="18.836544677774278"><ele>846.0</ele><time>2026-05-03T10:03:28Z</time></trkpt><trkpt lat="43.14786203805665" lon="18.836744942244852"><ele>846.0</ele><time>2026-05-03T10:03:29Z</time></trkpt><trkpt lat="43.147936483999636" lon="18.836947498094986"><ele>848.6666666666667</ele><time>2026-05-03T10:03:30Z</time></trkpt><trkpt lat="43.148020071384366" lon="18.837158593771417"><ele>851.3333333333334</ele><time>2026-05-03T10:03:31Z</time></trkpt><trkpt lat="43.14810484912768" lon="18.837368971701927"><ele>854.0</ele><time>2026-05-03T10:03:32Z</time></trkpt><trkpt lat="43.148188082215015" lon="18.837579014906687"><ele>846.0</ele><time>2026-05-03T10:03:33Z</time></trkpt><trkpt lat="43.14826737973866" lon="18.837793030793588"><ele>838.0</ele><time>2026-05-03T10:03:34Z</time></trkpt><trkpt lat="43.14835033650442" lon="18.83801269534367"><ele>830.0</ele><time>2026-05-03T10:03:35Z</time></trkpt><trkpt lat="43.14843539667079" lon="18.838234637276347"><ele>830.0</ele><time>2026-05-03T10:03:36Z</time></trkpt><trkpt lat="43.14852510829487" lon="18.838460515979865"><ele>830.0</ele><time>2026-05-03T10:03:37Z</time></trkpt><trkpt lat="43.14861187103347" lon="18.838684105963818"><ele>830.0</ele><time>2026-05-03T10:03:38Z</time></trkpt><trkpt lat="43.14869912987336" lon="18.838903600447136"><ele>832.3333333333334</ele><time>2026-05-03T10:03:39Z</time></trkpt><trkpt lat="43.148787957918344" lon="18.839125178988443"><ele>834.6666666666667</ele><time>2026-05-03T10:03:40Z</time></trkpt><trkpt lat="43.148872105540185" lon="18.839346799265847"><ele>837.0</ele><time>2026-05-03T10:03:41Z</time></trkpt><trkpt lat="43.148955650075635" lon="18.83956987701118"><ele>841.3333333333333</ele><time>2026-05-03T10:03:42Z</time></trkpt><trkpt lat="43.149037629730884" lon="18.839792002674997"><ele>845.6666666666666</ele><time>2026-05-03T10:03:43Z</time></trkpt><trkpt lat="43.14911851534847" lon="18.840008438423034"><ele>850.0</ele><time>2026-05-03T10:03:44Z</time></trkpt><trkpt lat="43.14919773390657" lon="18.84022674609273"><ele>839.3333333333333</ele><time>2026-05-03T10:03:45Z</time></trkpt><trkpt lat="43.149276588842646" lon="18.840452896522255"><ele>828.6666666666667</ele><time>2026-05-03T10:03:46Z</time></trkpt><trkpt lat="43.149361187662336" lon="18.84068756920413"><ele>818.0</ele><time>2026-05-03T10:03:47Z</time></trkpt><trkpt lat="43.149439849730875" lon="18.840940922438662"><ele>823.0</ele><time>2026-05-03T10:03:48Z</time></trkpt><trkpt lat="43.149524898333574" lon="18.841161184178453"><ele>828.0</ele><time>2026-05-03T10:03:49Z</time></trkpt><trkpt lat="43.14960629885574" lon="18.841397875675938"><ele>833.0</ele><time>2026-05-03T10:03:50Z</time></trkpt><trkpt lat="43.149678344663144" lon="18.841615815162854"><ele>837.0</ele><time>2026-05-03T10:03:51Z</time></trkpt><trkpt lat="43.149785399127104" lon="18.84185193300347"><ele>841.0</ele><time>2026-05-03T10:03:52Z</time></trkpt><trkpt lat="43.14989767356178" lon="18.842060847215336"><ele>845.0</ele><time>2026-05-03T10:03:53Z</time></trkpt><trkpt lat="43.15002374989664" lon="18.842250124987473"><ele>838.3333333333334</ele><time>2026-05-03T10:03:54Z</time></trkpt><trkpt lat="43.15016080637947" lon="18.84243167459999"><ele>831.6666666666667</ele><time>2026-05-03T10:03:55Z</time></trkpt><trkpt lat="43.150304471754" lon="18.842600733913457"><ele>825.0</ele><time>2026-05-03T10:03:56Z</time></trkpt><trkpt lat="43.15045419079831" lon="18.842763906985354"><ele>825.0</ele><time>2026-05-03T10:03:57Z</time></trkpt><trkpt lat="43.150616682425984" lon="18.84289938575237"><ele>825.0</ele><time>2026-05-03T10:03:58Z</time></trkpt><trkpt lat="43.15079431556832" lon="18.843003969753024"><ele>825.0</ele><time>2026-05-03T10:03:59Z</time></trkpt><trkpt lat="43.150982488089504" lon="18.84308194463058"><ele>819.6666666666667</ele><time>2026-05-03T10:04:00Z</time></trkpt><trkpt lat="43.151177032889755" lon="18.84315873740539"><ele>814.3333333333334</ele><time>2026-05-03T10:04:01Z</time></trkpt><trkpt lat="43.15137086953937" lon="18.84323614548765"><ele>809.0</ele><time>2026-05-03T10:04:02Z</time></trkpt><trkpt lat="43.151559998871406" lon="18.843315610988224"><ele>804.3333333333334</ele><time>2026-05-03T10:04:03Z</time></trkpt><trkpt lat="43.151749179078024" lon="18.843394692484708"><ele>799.6666666666667</ele><time>2026-05-03T10:04:04Z</time></trkpt><trkpt lat="43.15193632861345" lon="18.843474491855474"><ele>795.0</ele><time>2026-05-03T10:04:05Z</time></trkpt><trkpt lat="43.15212055992414" lon="18.84357131523098"><ele>793.0</ele><time>2026-05-03T10:04:06Z</time></trkpt><trkpt lat="43.152297469510245" lon="18.843678052525476"><ele>791.0</ele><time>2026-05-03T10:04:07Z</time></trkpt><trkpt lat="43.152468863414484" lon="18.843790211171587"><ele>789.0</ele><time>2026-05-03T10:04:08Z</time></trkpt><trkpt lat="43.15263652537373" lon="18.84392915360685"><ele>789.0</ele><time>2026-05-03T10:04:09Z</time></trkpt><trkpt lat="43.15280087356917" lon="18.84407592061813"><ele>789.0</ele><time>2026-05-03T10:04:10Z</time></trkpt><trkpt lat="43.15295547917706" lon="18.84422776660648"><ele>789.0</ele><time>2026-05-03T10:04:11Z</time></trkpt><trkpt lat="43.1531051557341" lon="18.84438908855994"><ele>786.0</ele><time>2026-05-03T10:04:12Z</time></trkpt><trkpt lat="43.15325144263844" lon="18.844555637643918"><ele>783.0</ele><time>2026-05-03T10:04:13Z</time></trkpt><trkpt lat="43.153395049772136" lon="18.844721078316827"><ele>780.0</ele><time>2026-05-03T10:04:14Z</time></trkpt><trkpt lat="43.15353919705151" lon="18.844882411660553"><ele>780.0</ele><time>2026-05-03T10:04:15Z</time></trkpt><trkpt lat="43.153682191058095" lon="18.84504385757502"><ele>780.0</ele><time>2026-05-03T10:04:16Z</time></trkpt><trkpt lat="43.15382391478379" lon="18.84521243631726"><ele>780.0</ele><time>2026-05-03T10:04:17Z</time></trkpt><trkpt lat="43.15396039355576" lon="18.845381295370082"><ele>775.0</ele><time>2026-05-03T10:04:18Z</time></trkpt><trkpt lat="43.154099724342885" lon="18.845539859767484"><ele>770.0</ele><time>2026-05-03T10:04:19Z</time></trkpt><trkpt lat="43.15423042073643" lon="18.845688107286502"><ele>765.0</ele><time>2026-05-03T10:04:20Z</time></trkpt><trkpt lat="43.15436069218712" lon="18.845835215639728"><ele>770.6666666666667</ele><time>2026-05-03T10:04:21Z</time></trkpt><trkpt lat="43.15449539779419" lon="18.84598377051527"><ele>776.3333333333334</ele><time>2026-05-03T10:04:22Z</time></trkpt><trkpt lat="43.15463386028547" lon="18.846128376799488"><ele>782.0</ele><time>2026-05-03T10:04:23Z</time></trkpt><trkpt lat="43.15477442416176" lon="18.84626312684758"><ele>776.3333333333334</ele><time>2026-05-03T10:04:24Z</time></trkpt><trkpt lat="43.15491985057024" lon="18.846382805156136"><ele>770.6666666666667</ele><time>2026-05-03T10:04:25Z</time></trkpt><trkpt lat="43.155068949920214" lon="18.846483963366065"><ele>765.0</ele><time>2026-05-03T10:04:26Z</time></trkpt><trkpt lat="43.15521828623363" lon="18.846563871347154"><ele>765.0</ele><time>2026-05-03T10:04:27Z</time></trkpt><trkpt lat="43.15536986946855" lon="18.846623127398797"><ele>765.0</ele><time>2026-05-03T10:04:28Z</time></trkpt><trkpt lat="43.1555309387906" lon="18.84666288088231"><ele>765.0</ele><time>2026-05-03T10:04:29Z</time></trkpt><trkpt lat="43.15568310693262" lon="18.846679259133705"><ele>762.25</ele><time>2026-05-03T10:04:30Z</time></trkpt><trkpt lat="43.155832143717596" lon="18.846667683240774"><ele>759.5</ele><time>2026-05-03T10:04:31Z</time></trkpt><trkpt lat="43.15597760390043" lon="18.84664452298769"><ele>756.75</ele><time>2026-05-03T10:04:32Z</time></trkpt><trkpt lat="43.15611110074618" lon="18.84661604553725"><ele>754.0</ele><time>2026-05-03T10:04:33Z</time></trkpt><trkpt lat="43.15624208523908" lon="18.846584341206764"><ele>754.0</ele><time>2026-05-03T10:04:34Z</time></trkpt><trkpt lat="43.156368872130315" lon="18.846549066364293"><ele>754.0</ele><time>2026-05-03T10:04:35Z</time></trkpt><trkpt lat="43.15649036392273" lon="18.846505958782334"><ele>754.0</ele><time>2026-05-03T10:04:36Z</time></trkpt><trkpt lat="43.15661182432334" lon="18.846486770143347"><ele>754.0</ele><time>2026-05-03T10:04:37Z</time></trkpt><trkpt lat="43.15672140341973" lon="18.84639878006576"><ele>752.25</ele><time>2026-05-03T10:04:38Z</time></trkpt><trkpt lat="43.15683427212588" lon="18.846353516101516"><ele>750.5</ele><time>2026-05-03T10:04:39Z</time></trkpt><trkpt lat="43.156948063234694" lon="18.846318591231647"><ele>748.75</ele><time>2026-05-03T10:04:40Z</time></trkpt><trkpt lat="43.157061140858815" lon="18.84629626258205"><ele>747.0</ele><time>2026-05-03T10:04:41Z</time></trkpt><trkpt lat="43.157175165592534" lon="18.84628976777296"><ele>747.0</ele><time>2026-05-03T10:04:42Z</time></trkpt><trkpt lat="43.1572795266893" lon="18.84629720069215"><ele>747.0</ele><time>2026-05-03T10:04:43Z</time></trkpt><trkpt lat="43.157379522670546" lon="18.84630827178502"><ele>747.0</ele><time>2026-05-03T10:04:44Z</time></trkpt><trkpt lat="43.15746666642258" lon="18.84632666148494"><ele>747.0</ele><time>2026-05-03T10:04:45Z</time></trkpt><trkpt lat="43.157543993188014" lon="18.84634876388425"><ele>747.0</ele><time>2026-05-03T10:04:46Z</time></trkpt><trkpt lat="43.15760572713979" lon="18.846373511919868"><ele>747.0</ele><time>2026-05-03T10:04:47Z</time></trkpt><trkpt lat="43.157682978620706" lon="18.846414774994667"><ele>746.6666666666666</ele><time>2026-05-03T10:04:49Z</time></trkpt><trkpt lat="43.15775254475652" lon="18.846425546241917"><ele>746.3333333333334</ele><time>2026-05-03T10:04:52Z</time></trkpt><trkpt lat="43.157760880532095" lon="18.84632563403279"><ele>746.0</ele><time>2026-05-03T10:04:56Z</time></trkpt><trkpt lat="43.15769603395691" lon="18.84624323525148"><ele>745.6666666666667</ele><time>2026-05-03T10:04:58Z</time></trkpt><trkpt lat="43.157629576728716" lon="18.846205089632505"><ele>745.3333333333334</ele><time>2026-05-03T10:05:01Z</time></trkpt><trkpt lat="43.157527582582745" lon="18.846237375184653"><ele>745.0</ele><time>2026-05-03T10:06:03Z</time></trkpt><trkpt lat="43.15756534496319" lon="18.84615515120464"><ele>745.0</ele><time>2026-05-03T10:08:35Z</time></trkpt><trkpt lat="43.157489841824344" lon="18.84620452403747"><ele>745.0</ele><time>2026-05-03T10:10:23Z</time></trkpt><trkpt lat="43.157420204127725" lon="18.846185320365322"><ele>745.0</ele><time>2026-05-03T10:10:28Z</time></trkpt><trkpt lat="43.157332300619714" lon="18.84616595996396"><ele>745.0</ele><time>2026-05-03T10:13:29Z</time></trkpt><trkpt lat="43.15728520209161" lon="18.846228212462112"><ele>745.0</ele><time>2026-05-03T10:16:39Z</time></trkpt><trkpt lat="43.1571446147714" lon="18.846238183690414"><ele>745.2857142857142</ele><time>2026-05-03T10:16:41Z</time></trkpt><trkpt lat="43.157060820849196" lon="18.846224307881812"><ele>745.5714285714286</ele><time>2026-05-03T10:16:42Z</time></trkpt><trkpt lat="43.15698581370702" lon="18.84621190927441"><ele>745.8571428571429</ele><time>2026-05-03T10:16:43Z</time></trkpt><trkpt lat="43.15691646694039" lon="18.846200287173982"><ele>746.1428571428571</ele><time>2026-05-03T10:16:44Z</time></trkpt><trkpt lat="43.15685203199216" lon="18.846164032681106"><ele>746.4285714285714</ele><time>2026-05-03T10:16:45Z</time></trkpt><trkpt lat="43.15680076754983" lon="18.846091928175245"><ele>746.7142857142857</ele><time>2026-05-03T10:16:46Z</time></trkpt><trkpt lat="43.15676220205973" lon="18.846005040373022"><ele>747.0</ele><time>2026-05-03T10:16:47Z</time></trkpt><trkpt lat="43.15671009413578" lon="18.845926227170356"><ele>745.8</ele><time>2026-05-03T10:16:48Z</time></trkpt><trkpt lat="43.156648045106856" lon="18.845883889389636"><ele>744.6</ele><time>2026-05-03T10:16:49Z</time></trkpt><trkpt lat="43.15653470605727" lon="18.845899278798452"><ele>743.4</ele><time>2026-05-03T10:16:51Z</time></trkpt><trkpt lat="43.1564166624572" lon="18.845989398671225"><ele>742.1999999999999</ele><time>2026-05-03T10:16:53Z</time></trkpt><trkpt lat="43.15633760344423" lon="18.846000966083274"><ele>741.0</ele><time>2026-05-03T10:16:54Z</time></trkpt><trkpt lat="43.156255954652956" lon="18.845981617036188"><ele>741.0</ele><time>2026-05-03T10:16:55Z</time></trkpt><trkpt lat="43.15616268890763" lon="18.845958908191804"><ele>741.0</ele><time>2026-05-03T10:16:56Z</time></trkpt><trkpt lat="43.15609280425401" lon="18.84594019340451"><ele>741.0</ele><time>2026-05-03T10:16:57Z</time></trkpt><trkpt lat="43.15602194601177" lon="18.845921357049754"><ele>741.0</ele><time>2026-05-03T10:16:58Z</time></trkpt><trkpt lat="43.15595273528567" lon="18.845907801621916"><ele>741.0</ele><time>2026-05-03T10:16:59Z</time></trkpt><trkpt lat="43.155893308319634" lon="18.845877780949543"><ele>741.0</ele><time>2026-05-03T10:17:00Z</time></trkpt><trkpt lat="43.155835090138986" lon="18.84584257693302"><ele>741.0</ele><time>2026-05-03T10:17:01Z</time></trkpt><trkpt lat="43.15577386790092" lon="18.84581487175974"><ele>741.0</ele><time>2026-05-03T10:17:02Z</time></trkpt><trkpt lat="43.15571413283898" lon="18.845779475114238"><ele>741.0</ele><time>2026-05-03T10:17:03Z</time></trkpt><trkpt lat="43.155656529218206" lon="18.845733051872735"><ele>741.0</ele><time>2026-05-03T10:17:04Z</time></trkpt><trkpt lat="43.15555826208132" lon="18.84565160491529"><ele>741.0</ele><time>2026-05-03T10:17:06Z</time></trkpt><trkpt lat="43.15549940335523" lon="18.845602388557076"><ele>741.0</ele><time>2026-05-03T10:17:07Z</time></trkpt><trkpt lat="43.155443509750526" lon="18.84554789287652"><ele>741.0</ele><time>2026-05-03T10:17:08Z</time></trkpt><trkpt lat="43.15537155330144" lon="18.845442929203752"><ele>740.4</ele><time>2026-05-03T10:17:10Z</time></trkpt><trkpt lat="43.15531776212081" lon="18.845357041521602"><ele>739.8</ele><time>2026-05-03T10:17:12Z</time></trkpt><trkpt lat="43.15524859907394" lon="18.8452521112017"><ele>739.1999999999999</ele><time>2026-05-03T10:17:23Z</time></trkpt><trkpt lat="43.15517687949814" lon="18.845150321022103"><ele>738.5999999999999</ele><time>2026-05-03T10:17:25Z</time></trkpt><trkpt lat="43.15508863212662" lon="18.845051910680574"><ele>738.0</ele><time>2026-05-03T10:17:27Z</time></trkpt><trkpt lat="43.15499592527585" lon="18.844952425595185"><ele>738.0</ele><time>2026-05-03T10:17:29Z</time></trkpt><trkpt lat="43.154937160800344" lon="18.84482132465748"><ele>738.0</ele><time>2026-05-03T10:17:31Z</time></trkpt><trkpt lat="43.154879237337774" lon="18.84472620059209"><ele>738.0</ele><time>2026-05-03T10:17:33Z</time></trkpt><trkpt lat="43.15483812643831" lon="18.844635438677226"><ele>738.0</ele><time>2026-05-03T10:17:36Z</time></trkpt><trkpt lat="43.154794989935" lon="18.844530111514523"><ele>738.0</ele><time>2026-05-03T10:18:01Z</time></trkpt><trkpt lat="43.15478497704012" lon="18.844428397231862"><ele>738.0</ele><time>2026-05-03T10:18:03Z</time></trkpt><trkpt lat="43.15485522903504" lon="18.844411570453563"><ele>738.0</ele><time>2026-05-03T10:18:04Z</time></trkpt><trkpt lat="43.15495809372948" lon="18.84440653643775"><ele>738.0</ele><time>2026-05-03T10:18:06Z</time></trkpt><trkpt lat="43.15502175137603" lon="18.844400623119377"><ele>738.0</ele><time>2026-05-03T10:18:07Z</time></trkpt><trkpt lat="43.1551476922563" lon="18.844438821510284"><ele>738.0</ele><time>2026-05-03T10:18:09Z</time></trkpt><trkpt lat="43.15521185487489" lon="18.844479453861446"><ele>738.0</ele><time>2026-05-03T10:18:10Z</time></trkpt><trkpt lat="43.1552937749104" lon="18.844465014126886"><ele>738.0</ele><time>2026-05-03T10:18:11Z</time></trkpt><trkpt lat="43.15537548329476" lon="18.844484606078016"><ele>738.0</ele><time>2026-05-03T10:18:12Z</time></trkpt><trkpt lat="43.15546187272156" lon="18.844507506848366"><ele>738.0</ele><time>2026-05-03T10:18:13Z</time></trkpt><trkpt lat="43.15554946085274" lon="18.84452188926098"><ele>738.0</ele><time>2026-05-03T10:18:14Z</time></trkpt><trkpt lat="43.15563654717658" lon="18.844538905969884"><ele>738.0</ele><time>2026-05-03T10:18:15Z</time></trkpt><trkpt lat="43.15572662522511" lon="18.844543547774002"><ele>738.0</ele><time>2026-05-03T10:18:16Z</time></trkpt><trkpt lat="43.15581112722976" lon="18.844535870012294"><ele>738.0</ele><time>2026-05-03T10:18:17Z</time></trkpt><trkpt lat="43.155893929059296" lon="18.844509747138712"><ele>736.8</ele><time>2026-05-03T10:18:18Z</time></trkpt><trkpt lat="43.15598313948898" lon="18.844507471434007"><ele>735.5999999999999</ele><time>2026-05-03T10:18:19Z</time></trkpt><trkpt lat="43.15606395344541" lon="18.844417821372158"><ele>734.4000000000001</ele><time>2026-05-03T10:18:20Z</time></trkpt><trkpt lat="43.15611344138458" lon="18.844297567842588"><ele>733.2</ele><time>2026-05-03T10:18:21Z</time></trkpt><trkpt lat="43.1561656459604" lon="18.844190618836993"><ele>732.0</ele><time>2026-05-03T10:18:22Z</time></trkpt><trkpt lat="43.1562092930719" lon="18.844064037195036"><ele>730.5</ele><time>2026-05-03T10:18:23Z</time></trkpt><trkpt lat="43.15625020051302" lon="18.84393507590581"><ele>729.0</ele><time>2026-05-03T10:18:24Z</time></trkpt><trkpt lat="43.15627913887355" lon="18.843832183761187"><ele>727.5</ele><time>2026-05-03T10:18:25Z</time></trkpt><trkpt lat="43.15631015901792" lon="18.84371091412568"><ele>726.0</ele><time>2026-05-03T10:18:27Z</time></trkpt><trkpt lat="43.15633988963051" lon="18.84360876458946"><ele>724.5</ele><time>2026-05-03T10:18:30Z</time></trkpt><trkpt lat="43.15636121182972" lon="18.843502826345038"><ele>723.0</ele><time>2026-05-03T10:18:32Z</time></trkpt><trkpt lat="43.156394802757184" lon="18.843358225497887"><ele>721.0</ele><time>2026-05-03T10:18:34Z</time></trkpt><trkpt lat="43.156414323132694" lon="18.843267010436474"><ele>719.0</ele><time>2026-05-03T10:18:35Z</time></trkpt><trkpt lat="43.15643761634892" lon="18.843164098905493"><ele>717.0</ele><time>2026-05-03T10:18:36Z</time></trkpt><trkpt lat="43.156455574698036" lon="18.84305274799811"><ele>715.0</ele><time>2026-05-03T10:18:37Z</time></trkpt><trkpt lat="43.15646723993046" lon="18.84294127455411"><ele>713.0</ele><time>2026-05-03T10:18:38Z</time></trkpt><trkpt lat="43.1564723871551" lon="18.842796179786426"><ele>711.0</ele><time>2026-05-03T10:18:39Z</time></trkpt><trkpt lat="43.15647968961557" lon="18.842643725764745"><ele>709.8</ele><time>2026-05-03T10:18:40Z</time></trkpt><trkpt lat="43.15648706445774" lon="18.842498180190308"><ele>708.5999999999999</ele><time>2026-05-03T10:18:41Z</time></trkpt><trkpt lat="43.156490792957534" lon="18.84236165665061"><ele>707.4</ele><time>2026-05-03T10:18:42Z</time></trkpt><trkpt lat="43.156491314531664" lon="18.842226835854024"><ele>706.2</ele><time>2026-05-03T10:18:43Z</time></trkpt><trkpt lat="43.15650826910652" lon="18.842099152732636"><ele>705.0</ele><time>2026-05-03T10:18:44Z</time></trkpt><trkpt lat="43.15650905460707" lon="18.841980071254838"><ele>705.0</ele><time>2026-05-03T10:18:45Z</time></trkpt><trkpt lat="43.15651007643403" lon="18.841871323972793"><ele>705.0</ele><time>2026-05-03T10:18:46Z</time></trkpt><trkpt lat="43.156510958696614" lon="18.841777230927494"><ele>705.0</ele><time>2026-05-03T10:18:47Z</time></trkpt><trkpt lat="43.156500932437574" lon="18.841624627505137"><ele>705.0</ele><time>2026-05-03T10:18:49Z</time></trkpt><trkpt lat="43.156501202475006" lon="18.84152405320232"><ele>705.0</ele><time>2026-05-03T10:18:51Z</time></trkpt><trkpt lat="43.15651195019594" lon="18.841435642963948"><ele>705.0</ele><time>2026-05-03T10:18:56Z</time></trkpt><trkpt lat="43.15652627712276" lon="18.84133535497781"><ele>700.0</ele><time>2026-05-03T10:24:33Z</time></trkpt><trkpt lat="43.15652330258479" lon="18.841231100632037"><ele>700.0</ele><time>2026-05-03T10:24:41Z</time></trkpt><trkpt lat="43.15657874660206" lon="18.841178315397176"><ele>707.0</ele><time>2026-05-03T10:24:48Z</time></trkpt><trkpt lat="43.156629207273454" lon="18.841125304495797"><ele>707.0</ele><time>2026-05-03T10:24:52Z</time></trkpt><trkpt lat="43.15660975308486" lon="18.84121032946103"><ele>707.0</ele><time>2026-05-03T10:25:14Z</time></trkpt><trkpt lat="43.15660653826912" lon="18.841299524416304"><ele>707.0</ele><time>2026-05-03T10:26:02Z</time></trkpt></trkseg><trkseg><trkpt lat="43.15654231802139" lon="18.841406767313998"><ele>705.8333333333333</ele><time>2026-05-03T11:47:48Z</time></trkpt><trkpt lat="43.156494097780545" lon="18.841335580601204"><ele>704.6666666666666</ele><time>2026-05-03T11:48:19Z</time></trkpt><trkpt lat="43.15649449651748" lon="18.841206738179412"><ele>703.5</ele><time>2026-05-03T11:48:21Z</time></trkpt><trkpt lat="43.15650930658526" lon="18.84111313923065"><ele>702.3333333333334</ele><time>2026-05-03T11:48:23Z</time></trkpt><trkpt lat="43.1564377530656" lon="18.841141892537397"><ele>701.1666666666667</ele><time>2026-05-03T11:48:26Z</time></trkpt><trkpt lat="43.156437559205806" lon="18.84131406327112"><ele>700.0</ele><time>2026-05-03T11:48:29Z</time></trkpt><trkpt lat="43.15645118443813" lon="18.841422239776872"><ele>700.0</ele><time>2026-05-03T11:48:30Z</time></trkpt><trkpt lat="43.15647619684791" lon="18.84152827135123"><ele>700.0</ele><time>2026-05-03T11:48:31Z</time></trkpt><trkpt lat="43.15649457873076" lon="18.841658106714"><ele>700.0</ele><time>2026-05-03T11:48:32Z</time></trkpt><trkpt lat="43.15648188196332" lon="18.84179157596198"><ele>700.0</ele><time>2026-05-03T11:48:33Z</time></trkpt><trkpt lat="43.15647849127044" lon="18.841963620631123"><ele>700.0</ele><time>2026-05-03T11:48:34Z</time></trkpt><trkpt lat="43.156482853975994" lon="18.84215980338679"><ele>701.25</ele><time>2026-05-03T11:48:35Z</time></trkpt><trkpt lat="43.15646754335783" lon="18.842361104853126"><ele>702.5</ele><time>2026-05-03T11:48:36Z</time></trkpt><trkpt lat="43.156470606528345" lon="18.84253595655441"><ele>703.75</ele><time>2026-05-03T11:48:37Z</time></trkpt><trkpt lat="43.156454941853625" lon="18.842678446833744"><ele>705.0</ele><time>2026-05-03T11:48:38Z</time></trkpt><trkpt lat="43.15645661967441" lon="18.842799421677725"><ele>705.8571428571428</ele><time>2026-05-03T11:48:39Z</time></trkpt><trkpt lat="43.1564507745751" lon="18.8428999970603"><ele>706.7142857142857</ele><time>2026-05-03T11:48:40Z</time></trkpt><trkpt lat="43.15644061494746" lon="18.84298791835296"><ele>707.5714285714286</ele><time>2026-05-03T11:48:41Z</time></trkpt><trkpt lat="43.1564277783674" lon="18.843079512946666"><ele>708.4285714285713</ele><time>2026-05-03T11:48:42Z</time></trkpt><trkpt lat="43.1564147630475" lon="18.84317511807991"><ele>709.2857142857142</ele><time>2026-05-03T11:48:43Z</time></trkpt><trkpt lat="43.15640412355092" lon="18.843268548858404"><ele>710.1428571428571</ele><time>2026-05-03T11:48:44Z</time></trkpt><trkpt lat="43.15637028988567" lon="18.843348045855286"><ele>711.0</ele><time>2026-05-03T11:48:45Z</time></trkpt><trkpt lat="43.15634854634752" lon="18.843441946862324"><ele>713.4</ele><time>2026-05-03T11:48:46Z</time></trkpt><trkpt lat="43.15632576341867" lon="18.843540336514224"><ele>715.8</ele><time>2026-05-03T11:48:47Z</time></trkpt><trkpt lat="43.15630388130868" lon="18.84363483602817"><ele>718.1999999999999</ele><time>2026-05-03T11:48:48Z</time></trkpt><trkpt lat="43.15625989294164" lon="18.843772787810558"><ele>720.5999999999999</ele><time>2026-05-03T11:48:50Z</time></trkpt><trkpt lat="43.15621387236583" lon="18.84392264320296"><ele>723.0</ele><time>2026-05-03T11:48:52Z</time></trkpt><trkpt lat="43.15616896150399" lon="18.844068576849963"><ele>723.0</ele><time>2026-05-03T11:48:54Z</time></trkpt><trkpt lat="43.15611112821008" lon="18.844227630078155"><ele>723.0</ele><time>2026-05-03T11:48:56Z</time></trkpt><trkpt lat="43.15608187809247" lon="18.844325281605254"><ele>723.0</ele><time>2026-05-03T11:48:57Z</time></trkpt><trkpt lat="43.15602084921441" lon="18.844406965618674"><ele>723.0</ele><time>2026-05-03T11:48:58Z</time></trkpt><trkpt lat="43.1559539888564" lon="18.844457479262733"><ele>723.0</ele><time>2026-05-03T11:48:59Z</time></trkpt><trkpt lat="43.15588479029548" lon="18.84447823394298"><ele>723.0</ele><time>2026-05-03T11:49:00Z</time></trkpt><trkpt lat="43.1558091549882" lon="18.844497022762905"><ele>724.5</ele><time>2026-05-03T11:49:01Z</time></trkpt><trkpt lat="43.15573321218453" lon="18.84450901857077"><ele>726.0</ele><time>2026-05-03T11:49:02Z</time></trkpt><trkpt lat="43.15565145153756" lon="18.844511062952535"><ele>727.5</ele><time>2026-05-03T11:49:03Z</time></trkpt><trkpt lat="43.15556526700201" lon="18.8445075549182"><ele>729.0</ele><time>2026-05-03T11:49:04Z</time></trkpt><trkpt lat="43.15548356174923" lon="18.844497683914224"><ele>730.5</ele><time>2026-05-03T11:49:05Z</time></trkpt><trkpt lat="43.155405490531706" lon="18.8444745826627"><ele>732.0</ele><time>2026-05-03T11:49:06Z</time></trkpt><trkpt lat="43.155330750244985" lon="18.844446831097862"><ele>732.8571428571429</ele><time>2026-05-03T11:49:07Z</time></trkpt><trkpt lat="43.15525352877809" lon="18.844425954139343"><ele>733.7142857142858</ele><time>2026-05-03T11:49:08Z</time></trkpt><trkpt lat="43.15517237843178" lon="18.844408624394987"><ele>734.5714285714286</ele><time>2026-05-03T11:49:09Z</time></trkpt><trkpt lat="43.15509207187715" lon="18.844390609831294"><ele>735.4285714285714</ele><time>2026-05-03T11:49:10Z</time></trkpt><trkpt lat="43.15502687796663" lon="18.844369894535102"><ele>736.2857142857142</ele><time>2026-05-03T11:49:11Z</time></trkpt><trkpt lat="43.15496025441483" lon="18.844360841793964"><ele>737.1428571428571</ele><time>2026-05-03T11:49:12Z</time></trkpt><trkpt lat="43.15489778321209" lon="18.844346681278502"><ele>738.0</ele><time>2026-05-03T11:49:13Z</time></trkpt><trkpt lat="43.15483234415185" lon="18.844374920257064"><ele>738.0</ele><time>2026-05-03T11:49:16Z</time></trkpt><trkpt lat="43.154767675966326" lon="18.8444176419908"><ele>738.0</ele><time>2026-05-03T11:49:28Z</time></trkpt><trkpt lat="43.15479496891957" lon="18.844615147486717"><ele>738.0</ele><time>2026-05-03T11:49:31Z</time></trkpt><trkpt lat="43.154847657490436" lon="18.8447125992352"><ele>738.0</ele><time>2026-05-03T11:49:32Z</time></trkpt><trkpt lat="43.154900028967106" lon="18.844816112979515"><ele>738.0</ele><time>2026-05-03T11:49:33Z</time></trkpt><trkpt lat="43.154965393490244" lon="18.844923587897743"><ele>738.0</ele><time>2026-05-03T11:49:34Z</time></trkpt><trkpt lat="43.15504397018742" lon="18.84503048229582"><ele>738.0</ele><time>2026-05-03T11:49:35Z</time></trkpt><trkpt lat="43.155120879827656" lon="18.845125675350257"><ele>738.0</ele><time>2026-05-03T11:49:36Z</time></trkpt><trkpt lat="43.155192983127655" lon="18.84523072978422"><ele>738.0</ele><time>2026-05-03T11:49:37Z</time></trkpt><trkpt lat="43.155251487775516" lon="18.845347436855615"><ele>738.0</ele><time>2026-05-03T11:49:38Z</time></trkpt><trkpt lat="43.15531981728818" lon="18.845448709809684"><ele>738.5999999999999</ele><time>2026-05-03T11:49:39Z</time></trkpt><trkpt lat="43.15538954685244" lon="18.845550047785522"><ele>739.1999999999999</ele><time>2026-05-03T11:49:40Z</time></trkpt><trkpt lat="43.155480455336395" lon="18.845621862768144"><ele>739.8</ele><time>2026-05-03T11:49:41Z</time></trkpt><trkpt lat="43.1555592222188" lon="18.845710990369152"><ele>740.4</ele><time>2026-05-03T11:49:42Z</time></trkpt><trkpt lat="43.15564932186086" lon="18.845785301518553"><ele>741.0</ele><time>2026-05-03T11:49:43Z</time></trkpt><trkpt lat="43.1557471570921" lon="18.84583108584789"><ele>741.0</ele><time>2026-05-03T11:49:44Z</time></trkpt><trkpt lat="43.15584531073124" lon="18.845869892657458"><ele>741.0</ele><time>2026-05-03T11:49:45Z</time></trkpt><trkpt lat="43.155944264944786" lon="18.84591180676172"><ele>741.0</ele><time>2026-05-03T11:49:46Z</time></trkpt><trkpt lat="43.15603193103695" lon="18.845948325478272"><ele>741.0</ele><time>2026-05-03T11:49:47Z</time></trkpt><trkpt lat="43.15610545050229" lon="18.84596946657648"><ele>741.0</ele><time>2026-05-03T11:49:48Z</time></trkpt><trkpt lat="43.15617191404047" lon="18.84599418912639"><ele>741.0</ele><time>2026-05-03T11:49:49Z</time></trkpt><trkpt lat="43.15623891953875" lon="18.84601049757211"><ele>740.8</ele><time>2026-05-03T11:49:50Z</time></trkpt><trkpt lat="43.15636256595289" lon="18.846029854199056"><ele>740.5999999999999</ele><time>2026-05-03T11:49:52Z</time></trkpt><trkpt lat="43.15647113250537" lon="18.845999501725128"><ele>740.4</ele><time>2026-05-03T11:49:54Z</time></trkpt><trkpt lat="43.15658751525727" lon="18.84593907811751"><ele>740.2</ele><time>2026-05-03T11:49:56Z</time></trkpt><trkpt lat="43.15666384457167" lon="18.845938819356203"><ele>740.0</ele><time>2026-05-03T11:49:57Z</time></trkpt><trkpt lat="43.156733969501495" lon="18.845994495480326"><ele>741.75</ele><time>2026-05-03T11:49:58Z</time></trkpt><trkpt lat="43.156776864003966" lon="18.84617856505157"><ele>743.5</ele><time>2026-05-03T11:50:00Z</time></trkpt><trkpt lat="43.15681115121973" lon="18.846251109187953"><ele>745.25</ele><time>2026-05-03T11:50:03Z</time></trkpt><trkpt lat="43.156835862882" lon="18.846347958696626"><ele>747.0</ele><time>2026-05-03T11:50:05Z</time></trkpt><trkpt lat="43.15693199509011" lon="18.846569076727324"><ele>747.0</ele><time>2026-05-03T11:50:06Z</time></trkpt><trkpt lat="43.15708739564635" lon="18.846315316818234"><ele>747.0</ele><time>2026-05-03T11:50:07Z</time></trkpt><trkpt lat="43.15718656102083" lon="18.846298584165922"><ele>747.0</ele><time>2026-05-03T11:50:08Z</time></trkpt><trkpt lat="43.157276526055334" lon="18.84630343177521"><ele>747.0</ele><time>2026-05-03T11:50:09Z</time></trkpt><trkpt lat="43.15736784447787" lon="18.8463242054589"><ele>746.6</ele><time>2026-05-03T11:50:10Z</time></trkpt><trkpt lat="43.157458464106796" lon="18.846350730504845"><ele>746.2</ele><time>2026-05-03T11:50:11Z</time></trkpt><trkpt lat="43.157555477738775" lon="18.8463905510628"><ele>745.8</ele><time>2026-05-03T11:50:12Z</time></trkpt><trkpt lat="43.15766272852007" lon="18.846442632096515"><ele>745.4</ele><time>2026-05-03T11:50:13Z</time></trkpt><trkpt lat="43.15776952493958" lon="18.846506231693954"><ele>745.0</ele><time>2026-05-03T11:50:14Z</time></trkpt><trkpt lat="43.15787383352755" lon="18.846587893371304"><ele>745.0</ele><time>2026-05-03T11:50:15Z</time></trkpt><trkpt lat="43.15797061357114" lon="18.846668070882053"><ele>745.0</ele><time>2026-05-03T11:50:16Z</time></trkpt><trkpt lat="43.158055017358365" lon="18.84675378392986"><ele>745.0</ele><time>2026-05-03T11:50:17Z</time></trkpt><trkpt lat="43.15812321510441" lon="18.846850960559514"><ele>745.0</ele><time>2026-05-03T11:50:18Z</time></trkpt><trkpt lat="43.15818247596553" lon="18.846956605383337"><ele>745.0</ele><time>2026-05-03T11:50:19Z</time></trkpt><trkpt lat="43.1582373595246" lon="18.847067116301154"><ele>744.0</ele><time>2026-05-03T11:50:20Z</time></trkpt><trkpt lat="43.158294425716676" lon="18.847195806084812"><ele>743.0</ele><time>2026-05-03T11:50:21Z</time></trkpt><trkpt lat="43.15835175018037" lon="18.847339917226"><ele>742.0</ele><time>2026-05-03T11:50:22Z</time></trkpt><trkpt lat="43.158409273392024" lon="18.847494956030566"><ele>741.0</ele><time>2026-05-03T11:50:23Z</time></trkpt><trkpt lat="43.15846890736457" lon="18.847642781892883"><ele>745.5</ele><time>2026-05-03T11:50:24Z</time></trkpt><trkpt lat="43.15851428665922" lon="18.847786375710612"><ele>750.0</ele><time>2026-05-03T11:50:25Z</time></trkpt><trkpt lat="43.15856334113892" lon="18.847927793229964"><ele>754.5</ele><time>2026-05-03T11:50:26Z</time></trkpt><trkpt lat="43.15860764563605" lon="18.8480716705336"><ele>759.0</ele><time>2026-05-03T11:50:27Z</time></trkpt><trkpt lat="43.15866348213448" lon="18.848209809670784"><ele>759.0</ele><time>2026-05-03T11:50:28Z</time></trkpt><trkpt lat="43.158725541301635" lon="18.848344749591202"><ele>759.0</ele><time>2026-05-03T11:50:29Z</time></trkpt><trkpt lat="43.15880005391148" lon="18.848460729795832"><ele>759.0</ele><time>2026-05-03T11:50:30Z</time></trkpt><trkpt lat="43.15889758933909" lon="18.848556280880473"><ele>759.0</ele><time>2026-05-03T11:50:31Z</time></trkpt><trkpt lat="43.15899981525518" lon="18.84863523844883"><ele>759.6</ele><time>2026-05-03T11:50:32Z</time></trkpt><trkpt lat="43.159104340953384" lon="18.84869654904169"><ele>760.2</ele><time>2026-05-03T11:50:33Z</time></trkpt><trkpt lat="43.15921040795988" lon="18.848749277293617"><ele>760.8000000000001</ele><time>2026-05-03T11:50:34Z</time></trkpt><trkpt lat="43.15931105935132" lon="18.848802751316303"><ele>761.4000000000001</ele><time>2026-05-03T11:50:35Z</time></trkpt><trkpt lat="43.15941070222122" lon="18.84885929670476"><ele>762.0</ele><time>2026-05-03T11:50:36Z</time></trkpt><trkpt lat="43.15950997425591" lon="18.848917439389684"><ele>762.0</ele><time>2026-05-03T11:50:37Z</time></trkpt><trkpt lat="43.15961378256976" lon="18.848975411079394"><ele>762.0</ele><time>2026-05-03T11:50:38Z</time></trkpt><trkpt lat="43.15971371041752" lon="18.849033169812195"><ele>762.0</ele><time>2026-05-03T11:50:39Z</time></trkpt><trkpt lat="43.15981119108638" lon="18.84909257921465"><ele>762.0</ele><time>2026-05-03T11:50:40Z</time></trkpt><trkpt lat="43.159908234096555" lon="18.849158935835195"><ele>762.0</ele><time>2026-05-03T11:50:41Z</time></trkpt><trkpt lat="43.160005797872444" lon="18.84923100168987"><ele>763.4000000000001</ele><time>2026-05-03T11:50:42Z</time></trkpt><trkpt lat="43.16010260398163" lon="18.849302593846755"><ele>764.8000000000001</ele><time>2026-05-03T11:50:43Z</time></trkpt><trkpt lat="43.16019839133129" lon="18.84937518879275"><ele>766.2</ele><time>2026-05-03T11:50:44Z</time></trkpt><trkpt lat="43.16029670915062" lon="18.84945652141625"><ele>767.6</ele><time>2026-05-03T11:50:45Z</time></trkpt><trkpt lat="43.16039499126965" lon="18.84953597799026"><ele>769.0</ele><time>2026-05-03T11:50:46Z</time></trkpt><trkpt lat="43.16049328140144" lon="18.84961118848688"><ele>769.0</ele><time>2026-05-03T11:50:47Z</time></trkpt><trkpt lat="43.160588650584025" lon="18.849686013250327"><ele>769.0</ele><time>2026-05-03T11:50:48Z</time></trkpt><trkpt lat="43.16068528155138" lon="18.849764479473887"><ele>769.0</ele><time>2026-05-03T11:50:49Z</time></trkpt><trkpt lat="43.16078078163231" lon="18.84984009267478"><ele>769.0</ele><time>2026-05-03T11:50:50Z</time></trkpt><trkpt lat="43.16087928110539" lon="18.849920849138055"><ele>769.0</ele><time>2026-05-03T11:50:51Z</time></trkpt><trkpt lat="43.16097402999151" lon="18.850008333917483"><ele>771.5</ele><time>2026-05-03T11:50:52Z</time></trkpt><trkpt lat="43.16106830851181" lon="18.850099075054885"><ele>774.0</ele><time>2026-05-03T11:50:53Z</time></trkpt><trkpt lat="43.16116381843222" lon="18.850188917993297"><ele>776.5</ele><time>2026-05-03T11:50:54Z</time></trkpt><trkpt lat="43.1612554302525" lon="18.8502803221832"><ele>779.0</ele><time>2026-05-03T11:50:55Z</time></trkpt><trkpt lat="43.16135020609822" lon="18.850371397318096"><ele>779.0</ele><time>2026-05-03T11:50:56Z</time></trkpt><trkpt lat="43.161447912344535" lon="18.85045324714216"><ele>779.0</ele><time>2026-05-03T11:50:57Z</time></trkpt><trkpt lat="43.16154997822601" lon="18.850519539586994"><ele>779.0</ele><time>2026-05-03T11:50:58Z</time></trkpt><trkpt lat="43.16165350674222" lon="18.85056202292709"><ele>779.0</ele><time>2026-05-03T11:50:59Z</time></trkpt><trkpt lat="43.16175830361079" lon="18.850589669196467"><ele>779.0</ele><time>2026-05-03T11:51:00Z</time></trkpt><trkpt lat="43.16186185240745" lon="18.850611195805143"><ele>772.2</ele><time>2026-05-03T11:51:01Z</time></trkpt><trkpt lat="43.161966189924705" lon="18.850625846667985"><ele>765.4000000000001</ele><time>2026-05-03T11:51:02Z</time></trkpt><trkpt lat="43.16207012121599" lon="18.85063935193681"><ele>758.6</ele><time>2026-05-03T11:51:03Z</time></trkpt><trkpt lat="43.16217153987547" lon="18.850656106127804"><ele>751.8</ele><time>2026-05-03T11:51:04Z</time></trkpt><trkpt lat="43.162273895044436" lon="18.850673422496676"><ele>745.0</ele><time>2026-05-03T11:51:05Z</time></trkpt><trkpt lat="43.162381232648215" lon="18.850694277350613"><ele>738.6</ele><time>2026-05-03T11:51:06Z</time></trkpt><trkpt lat="43.16249058650734" lon="18.850710414549674"><ele>732.2</ele><time>2026-05-03T11:51:07Z</time></trkpt><trkpt lat="43.162598360016396" lon="18.85073543266631"><ele>725.8</ele><time>2026-05-03T11:51:08Z</time></trkpt><trkpt lat="43.16269581114435" lon="18.85075666650991"><ele>719.4</ele><time>2026-05-03T11:51:09Z</time></trkpt><trkpt lat="43.16278841097457" lon="18.850791023180182"><ele>713.0</ele><time>2026-05-03T11:51:10Z</time></trkpt><trkpt lat="43.16286772930278" lon="18.85084537732184"><ele>713.0</ele><time>2026-05-03T11:51:11Z</time></trkpt><trkpt lat="43.16294736461788" lon="18.85090940226729"><ele>713.0</ele><time>2026-05-03T11:51:12Z</time></trkpt><trkpt lat="43.163023973995735" lon="18.851010577028124"><ele>713.0</ele><time>2026-05-03T11:51:13Z</time></trkpt><trkpt lat="43.1630833885433" lon="18.851119716567208"><ele>713.0</ele><time>2026-05-03T11:51:14Z</time></trkpt><trkpt lat="43.16313592909137" lon="18.851260939122298"><ele>713.0</ele><time>2026-05-03T11:51:15Z</time></trkpt><trkpt lat="43.16316864327009" lon="18.851427358968646"><ele>712.5</ele><time>2026-05-03T11:51:16Z</time></trkpt><trkpt lat="43.16319423544513" lon="18.851587804459427"><ele>712.0</ele><time>2026-05-03T11:51:17Z</time></trkpt><trkpt lat="43.16321709261669" lon="18.851763288503047"><ele>711.5</ele><time>2026-05-03T11:51:18Z</time></trkpt><trkpt lat="43.16323704398079" lon="18.851934897498086"><ele>711.0</ele><time>2026-05-03T11:51:19Z</time></trkpt><trkpt lat="43.163260487984104" lon="18.85211625592873"><ele>711.0</ele><time>2026-05-03T11:51:20Z</time></trkpt><trkpt lat="43.16330686946671" lon="18.85230101650201"><ele>711.0</ele><time>2026-05-03T11:51:21Z</time></trkpt><trkpt lat="43.163389953108606" lon="18.85247308640867"><ele>711.0</ele><time>2026-05-03T11:51:22Z</time></trkpt><trkpt lat="43.16349390667344" lon="18.852632561816087"><ele>711.0</ele><time>2026-05-03T11:51:23Z</time></trkpt><trkpt lat="43.163595852873605" lon="18.852771757907433"><ele>718.5</ele><time>2026-05-03T11:51:24Z</time></trkpt><trkpt lat="43.16368761729901" lon="18.8529032828381"><ele>726.0</ele><time>2026-05-03T11:51:25Z</time></trkpt><trkpt lat="43.16376705645413" lon="18.853042158851217"><ele>733.5</ele><time>2026-05-03T11:51:26Z</time></trkpt><trkpt lat="43.1638374537417" lon="18.85317600198822"><ele>741.0</ele><time>2026-05-03T11:51:27Z</time></trkpt><trkpt lat="43.163908636333204" lon="18.853325137701077"><ele>747.5</ele><time>2026-05-03T11:51:28Z</time></trkpt><trkpt lat="43.163987482959676" lon="18.853490479514427"><ele>754.0</ele><time>2026-05-03T11:51:29Z</time></trkpt><trkpt lat="43.16405766678395" lon="18.85366154320217"><ele>760.5</ele><time>2026-05-03T11:51:30Z</time></trkpt><trkpt lat="43.16410044477937" lon="18.85376885112474"><ele>767.0</ele><time>2026-05-03T11:51:31Z</time></trkpt><trkpt lat="43.16413871943685" lon="18.853911098114764"><ele>758.2</ele><time>2026-05-03T11:51:32Z</time></trkpt><trkpt lat="43.16417667001811" lon="18.854050742558677"><ele>749.4000000000001</ele><time>2026-05-03T11:51:33Z</time></trkpt><trkpt lat="43.16421849287795" lon="18.85418979005896"><ele>740.5999999999999</ele><time>2026-05-03T11:51:34Z</time></trkpt><trkpt lat="43.16424134015038" lon="18.854329984322057"><ele>731.8</ele><time>2026-05-03T11:51:35Z</time></trkpt><trkpt lat="43.164275828836296" lon="18.854464533475348"><ele>723.0</ele><time>2026-05-03T11:51:36Z</time></trkpt><trkpt lat="43.164315929849906" lon="18.85459450241827"><ele>723.0</ele><time>2026-05-03T11:51:37Z</time></trkpt><trkpt lat="43.1643549426558" lon="18.854729094841776"><ele>723.0</ele><time>2026-05-03T11:51:38Z</time></trkpt><trkpt lat="43.16439173223444" lon="18.85486514201508"><ele>723.0</ele><time>2026-05-03T11:51:39Z</time></trkpt><trkpt lat="43.16442976963573" lon="18.855004683320995"><ele>723.0</ele><time>2026-05-03T11:51:40Z</time></trkpt><trkpt lat="43.16446968132737" lon="18.855149743413975"><ele>723.0</ele><time>2026-05-03T11:51:41Z</time></trkpt><trkpt lat="43.16450798707603" lon="18.85529107666916"><ele>723.8</ele><time>2026-05-03T11:51:42Z</time></trkpt><trkpt lat="43.16454615509573" lon="18.855427428210426"><ele>724.5999999999999</ele><time>2026-05-03T11:51:43Z</time></trkpt><trkpt lat="43.164585010576076" lon="18.85556238859149"><ele>725.4000000000001</ele><time>2026-05-03T11:51:44Z</time></trkpt><trkpt lat="43.164625426445944" lon="18.855694799735712"><ele>726.2</ele><time>2026-05-03T11:51:45Z</time></trkpt><trkpt lat="43.16467037776859" lon="18.855831594949336"><ele>727.0</ele><time>2026-05-03T11:51:46Z</time></trkpt><trkpt lat="43.16472756659587" lon="18.85595783032563"><ele>725.0</ele><time>2026-05-03T11:51:47Z</time></trkpt><trkpt lat="43.16480384104901" lon="18.856070332950754"><ele>723.0</ele><time>2026-05-03T11:51:48Z</time></trkpt><trkpt lat="43.16489700278336" lon="18.856156603771336"><ele>721.0</ele><time>2026-05-03T11:51:49Z</time></trkpt><trkpt lat="43.165001625931744" lon="18.856220687607046"><ele>719.0</ele><time>2026-05-03T11:51:50Z</time></trkpt><trkpt lat="43.16511608792019" lon="18.856279254491472"><ele>703.25</ele><time>2026-05-03T11:51:51Z</time></trkpt><trkpt lat="43.16523652191313" lon="18.856332010219983"><ele>687.5</ele><time>2026-05-03T11:51:52Z</time></trkpt><trkpt lat="43.16536928102057" lon="18.85637562950287"><ele>671.75</ele><time>2026-05-03T11:51:53Z</time></trkpt><trkpt lat="43.16553245380661" lon="18.856420417792183"><ele>656.0</ele><time>2026-05-03T11:51:54Z</time></trkpt><trkpt lat="43.16567417589988" lon="18.856480031377714"><ele>647.6666666666666</ele><time>2026-05-03T11:51:55Z</time></trkpt><trkpt lat="43.16581872686333" lon="18.856537363296642"><ele>639.3333333333334</ele><time>2026-05-03T11:51:56Z</time></trkpt><trkpt lat="43.16597095095819" lon="18.85659622582109"><ele>631.0</ele><time>2026-05-03T11:51:57Z</time></trkpt><trkpt lat="43.16613155417434" lon="18.856664614637474"><ele>631.0</ele><time>2026-05-03T11:51:58Z</time></trkpt><trkpt lat="43.166302857312395" lon="18.856732383295338"><ele>631.0</ele><time>2026-05-03T11:51:59Z</time></trkpt><trkpt lat="43.16647561056048" lon="18.856806761146803"><ele>631.0</ele><time>2026-05-03T11:52:00Z</time></trkpt><trkpt lat="43.16663573048755" lon="18.8568711152899"><ele>631.0</ele><time>2026-05-03T11:52:01Z</time></trkpt><trkpt lat="43.166782733010955" lon="18.85693159386292"><ele>631.0</ele><time>2026-05-03T11:52:02Z</time></trkpt><trkpt lat="43.16692001084726" lon="18.856987588493297"><ele>631.0</ele><time>2026-05-03T11:52:03Z</time></trkpt><trkpt lat="43.16704339537491" lon="18.857038425058562"><ele>631.0</ele><time>2026-05-03T11:52:04Z</time></trkpt><trkpt lat="43.16715881134625" lon="18.85708896276574"><ele>631.0</ele><time>2026-05-03T11:52:05Z</time></trkpt><trkpt lat="43.167271875708565" lon="18.857132608452805"><ele>631.0</ele><time>2026-05-03T11:52:06Z</time></trkpt><trkpt lat="43.167391766293875" lon="18.857173267039958"><ele>631.0</ele><time>2026-05-03T11:52:07Z</time></trkpt><trkpt lat="43.16750674126987" lon="18.857219463878664"><ele>631.0</ele><time>2026-05-03T11:52:08Z</time></trkpt><trkpt lat="43.167627471069785" lon="18.857268791295546"><ele>631.0</ele><time>2026-05-03T11:52:09Z</time></trkpt><trkpt lat="43.167751867445" lon="18.8573201026198"><ele>631.0</ele><time>2026-05-03T11:52:10Z</time></trkpt><trkpt lat="43.16787607307047" lon="18.857374418373006"><ele>631.0</ele><time>2026-05-03T11:52:11Z</time></trkpt><trkpt lat="43.167983586654245" lon="18.857421514064"><ele>631.0</ele><time>2026-05-03T11:52:12Z</time></trkpt><trkpt lat="43.1680824876961" lon="18.857465393225883"><ele>631.0</ele><time>2026-05-03T11:52:13Z</time></trkpt><trkpt lat="43.16818552117078" lon="18.857508653544254"><ele>631.0</ele><time>2026-05-03T11:52:14Z</time></trkpt><trkpt lat="43.16828538275269" lon="18.857554035953118"><ele>631.0</ele><time>2026-05-03T11:52:15Z</time></trkpt><trkpt lat="43.168389191980204" lon="18.857609595984883"><ele>631.0</ele><time>2026-05-03T11:52:16Z</time></trkpt><trkpt lat="43.168490516778675" lon="18.857670380311895"><ele>631.0</ele><time>2026-05-03T11:52:17Z</time></trkpt><trkpt lat="43.16858404852405" lon="18.85772928266603"><ele>631.0</ele><time>2026-05-03T11:52:18Z</time></trkpt><trkpt lat="43.1686616849304" lon="18.857782929498413"><ele>631.0</ele><time>2026-05-03T11:52:19Z</time></trkpt><trkpt lat="43.16872532450075" lon="18.857837254305483"><ele>631.0</ele><time>2026-05-03T11:52:20Z</time></trkpt><trkpt lat="43.168784626778226" lon="18.857891440112375"><ele>631.0</ele><time>2026-05-03T11:52:21Z</time></trkpt><trkpt lat="43.16883355568569" lon="18.857973960049442"><ele>631.0</ele><time>2026-05-03T11:52:22Z</time></trkpt><trkpt lat="43.16886991827653" lon="18.85807740470226"><ele>631.0</ele><time>2026-05-03T11:52:23Z</time></trkpt><trkpt lat="43.16894069023614" lon="18.85812905841257"><ele>631.0</ele><time>2026-05-03T11:52:25Z</time></trkpt><trkpt lat="43.16889094810732" lon="18.85833963673439"><ele>631.0</ele><time>2026-05-03T11:52:26.014Z</time></trkpt><trkpt lat="43.16890007814761" lon="18.858495448418346"><ele>631.0</ele><time>2026-05-03T11:52:28.016Z</time></trkpt><trkpt lat="43.1688941722856" lon="18.858649670551824"><ele>631.0</ele><time>2026-05-03T11:52:30.016Z</time></trkpt><trkpt lat="43.167737885418504" lon="18.860516371223014"><ele>631.0</ele><time>2026-05-03T11:52:41Z</time></trkpt><trkpt lat="43.16764957525218" lon="18.86065798247856"><ele>631.0</ele><time>2026-05-03T11:52:42Z</time></trkpt><trkpt lat="43.16747161720776" lon="18.860792073512002"><ele>631.0</ele><time>2026-05-03T11:52:43Z</time></trkpt><trkpt lat="43.16735267414567" lon="18.86086263674929"><ele>631.0</ele><time>2026-05-03T11:52:44Z</time></trkpt><trkpt lat="43.16723624974988" lon="18.86091316045596"><ele>631.0</ele><time>2026-05-03T11:52:45Z</time></trkpt><trkpt lat="43.16716100090917" lon="18.861021113477065"><ele>631.0</ele><time>2026-05-03T11:52:46Z</time></trkpt><trkpt lat="43.16710092532323" lon="18.861123328476694"><ele>631.0</ele><time>2026-05-03T11:52:47Z</time></trkpt><trkpt lat="43.16705644371193" lon="18.86121516052656"><ele>631.0</ele><time>2026-05-03T11:52:48Z</time></trkpt><trkpt lat="43.1670007660787" lon="18.861334907761858"><ele>631.0</ele><time>2026-05-03T11:52:50Z</time></trkpt><trkpt lat="43.16705151094515" lon="18.86151258020984"><ele>631.0</ele><time>2026-05-03T11:52:52Z</time></trkpt><trkpt lat="43.16704170207959" lon="18.861627220305547"><ele>631.0</ele><time>2026-05-03T11:52:53Z</time></trkpt><trkpt lat="43.167115921737725" lon="18.861742140518743"><ele>631.0</ele><time>2026-05-03T11:52:55.019Z</time></trkpt><trkpt lat="43.167223551634976" lon="18.861707721032765"><ele>631.0</ele><time>2026-05-03T11:52:56.019Z</time></trkpt><trkpt lat="43.16731500348176" lon="18.861808588385266"><ele>631.0</ele><time>2026-05-03T11:52:58.025Z</time></trkpt><trkpt lat="43.16787966531065" lon="18.86073664763836"><ele>631.0</ele><time>2026-05-03T11:53:03Z</time></trkpt><trkpt lat="43.167921656450424" lon="18.86057187982292"><ele>631.0</ele><time>2026-05-03T11:53:04Z</time></trkpt><trkpt lat="43.168002827357846" lon="18.860406474060618"><ele>631.0</ele><time>2026-05-03T11:53:05Z</time></trkpt><trkpt lat="43.16808791873929" lon="18.86026341921536"><ele>631.0</ele><time>2026-05-03T11:53:06Z</time></trkpt><trkpt lat="43.168164411882124" lon="18.860128115916336"><ele>631.0</ele><time>2026-05-03T11:53:07Z</time></trkpt><trkpt lat="43.168247726089874" lon="18.859977780781495"><ele>631.0</ele><time>2026-05-03T11:53:08.018Z</time></trkpt><trkpt lat="43.16833149524356" lon="18.859828574055655"><ele>631.0</ele><time>2026-05-03T11:53:09.015Z</time></trkpt><trkpt lat="43.168423477330236" lon="18.859664203040467"><ele>631.0</ele><time>2026-05-03T11:53:10.018Z</time></trkpt><trkpt lat="43.1685202546482" lon="18.85948220756142"><ele>631.0</ele><time>2026-05-03T11:53:11.019Z</time></trkpt><trkpt lat="43.16887627193325" lon="18.858749512944676"><ele>631.0</ele><time>2026-05-03T11:53:15.906Z</time></trkpt><trkpt lat="43.1691020627829" lon="18.858712760271896"><ele>631.0</ele><time>2026-05-03T11:53:17Z</time></trkpt><trkpt lat="43.16920469639361" lon="18.858640767126712"><ele>631.0</ele><time>2026-05-03T11:53:18Z</time></trkpt><trkpt lat="43.16935651651115" lon="18.858932678217517"><ele>631.0</ele><time>2026-05-03T11:53:19Z</time></trkpt><trkpt lat="43.16946767923764" lon="18.859075664997604"><ele>631.0</ele><time>2026-05-03T11:53:21Z</time></trkpt><trkpt lat="43.169533152612814" lon="18.859157926410447"><ele>631.0</ele><time>2026-05-03T11:53:22Z</time></trkpt><trkpt lat="43.16959897876374" lon="18.859240631075473"><ele>631.0</ele><time>2026-05-03T11:53:23Z</time></trkpt><trkpt lat="43.169664870226846" lon="18.8593234177132"><ele>631.0</ele><time>2026-05-03T11:53:24Z</time></trkpt><trkpt lat="43.169730623686085" lon="18.859406030617524"><ele>631.0</ele><time>2026-05-03T11:53:25Z</time></trkpt><trkpt lat="43.16987518634142" lon="18.85968831817319"><ele>631.0</ele><time>2026-05-03T11:53:26Z</time></trkpt><trkpt lat="43.17002505774482" lon="18.859852213889496"><ele>631.0</ele><time>2026-05-03T11:53:27Z</time></trkpt><trkpt lat="43.17010340061844" lon="18.85992960296589"><ele>673.0</ele><time>2026-05-03T11:53:28Z</time></trkpt><trkpt lat="43.170195643346" lon="18.859997537192765"><ele>715.0</ele><time>2026-05-03T11:53:29Z</time></trkpt><trkpt lat="43.17028481017047" lon="18.860047193703434"><ele>757.0</ele><time>2026-05-03T11:53:30Z</time></trkpt><trkpt lat="43.17037001496877" lon="18.860088816552608"><ele>799.0</ele><time>2026-05-03T11:53:31Z</time></trkpt><trkpt lat="43.17051707764277" lon="18.860160657133992"><ele>841.0</ele><time>2026-05-03T11:53:33Z</time></trkpt><trkpt lat="43.170622985934" lon="18.86016623229683"><ele>832.5</ele><time>2026-05-03T11:53:34Z</time></trkpt><trkpt lat="43.170719653397875" lon="18.860206487581674"><ele>824.0</ele><time>2026-05-03T11:53:35Z</time></trkpt><trkpt lat="43.170826236141686" lon="18.860233638373014"><ele>815.5</ele><time>2026-05-03T11:53:36Z</time></trkpt><trkpt lat="43.17094352162892" lon="18.860176056699746"><ele>807.0</ele><time>2026-05-03T11:53:37Z</time></trkpt><trkpt lat="43.171062445330286" lon="18.860112206341057"><ele>803.4000000000001</ele><time>2026-05-03T11:53:38Z</time></trkpt><trkpt lat="43.171164002984064" lon="18.86005660041167"><ele>799.8000000000001</ele><time>2026-05-03T11:53:39Z</time></trkpt><trkpt lat="43.17126553568058" lon="18.859980863066433"><ele>796.2</ele><time>2026-05-03T11:53:40Z</time></trkpt><trkpt lat="43.171360782461605" lon="18.859905322928054"><ele>792.6</ele><time>2026-05-03T11:53:41Z</time></trkpt><trkpt lat="43.17145566692728" lon="18.859825937427786"><ele>789.0</ele><time>2026-05-03T11:53:42Z</time></trkpt><trkpt lat="43.171527785796805" lon="18.85968010590409"><ele>789.0</ele><time>2026-05-03T11:53:43Z</time></trkpt><trkpt lat="43.17159443042332" lon="18.859555993357038"><ele>789.0</ele><time>2026-05-03T11:53:44Z</time></trkpt><trkpt lat="43.17165686507072" lon="18.85943486079014"><ele>789.0</ele><time>2026-05-03T11:53:45Z</time></trkpt><trkpt lat="43.1717090720694" lon="18.85930471479427"><ele>789.0</ele><time>2026-05-03T11:53:46Z</time></trkpt><trkpt lat="43.171760946117146" lon="18.859170314578748"><ele>789.0</ele><time>2026-05-03T11:53:47Z</time></trkpt><trkpt lat="43.1717865407225" lon="18.859010830053148"><ele>789.0</ele><time>2026-05-03T11:53:48Z</time></trkpt><trkpt lat="43.17178253468686" lon="18.85885080539094"><ele>789.0</ele><time>2026-05-03T11:53:49Z</time></trkpt><trkpt lat="43.171801198399606" lon="18.858745971996186"><ele>789.0</ele><time>2026-05-03T11:53:50Z</time></trkpt><trkpt lat="43.17189551241228" lon="18.858638610051315"><ele>789.0</ele><time>2026-05-03T11:53:52Z</time></trkpt><trkpt lat="43.171939464848904" lon="18.858574636864358"><ele>789.0</ele><time>2026-05-03T11:53:53Z</time></trkpt><trkpt lat="43.17200398226699" lon="18.858692589727003"><ele>799.6666666666667</ele><time>2026-05-03T11:53:54.019Z</time></trkpt><trkpt lat="43.17207579182679" lon="18.858756167798013"><ele>810.3333333333334</ele><time>2026-05-03T11:53:56.022Z</time></trkpt><trkpt lat="43.17204212684993" lon="18.859104185550546"><ele>821.0</ele><time>2026-05-03T11:54:02.902Z</time></trkpt><trkpt lat="43.17166847126808" lon="18.860172095134704"><ele>821.0</ele><time>2026-05-03T11:54:05Z</time></trkpt><trkpt lat="43.17162712881143" lon="18.860337117293714"><ele>821.0</ele><time>2026-05-03T11:54:06Z</time></trkpt><trkpt lat="43.17156573774714" lon="18.860416623176306"><ele>821.0</ele><time>2026-05-03T11:54:07Z</time></trkpt><trkpt lat="43.17149197083599" lon="18.860484207609158"><ele>821.0</ele><time>2026-05-03T11:54:08Z</time></trkpt><trkpt lat="43.17140698802447" lon="18.860571709128493"><ele>821.0</ele><time>2026-05-03T11:54:09Z</time></trkpt><trkpt lat="43.17131787395325" lon="18.860662459836714"><ele>818.1999999999999</ele><time>2026-05-03T11:54:10Z</time></trkpt><trkpt lat="43.17122625836255" lon="18.860755758020908"><ele>815.4</ele><time>2026-05-03T11:54:11Z</time></trkpt><trkpt lat="43.17114719851944" lon="18.860836269650022"><ele>812.6</ele><time>2026-05-03T11:54:12Z</time></trkpt><trkpt lat="43.17106289792128" lon="18.860888464450547"><ele>809.8</ele><time>2026-05-03T11:54:13Z</time></trkpt><trkpt lat="43.17099361834584" lon="18.860929352827107"><ele>807.0</ele><time>2026-05-03T11:54:14Z</time></trkpt><trkpt lat="43.17090258266157" lon="18.86096757203082"><ele>807.0</ele><time>2026-05-03T11:54:16Z</time></trkpt><trkpt lat="43.17083532120085" lon="18.860938943902507"><ele>807.0</ele><time>2026-05-03T11:54:17Z</time></trkpt><trkpt lat="43.17075803219744" lon="18.860916695812865"><ele>807.0</ele><time>2026-05-03T11:54:18Z</time></trkpt><trkpt lat="43.170671515368355" lon="18.860886143366702"><ele>807.0</ele><time>2026-05-03T11:54:19Z</time></trkpt><trkpt lat="43.17051089499056" lon="18.860807592761994"><ele>807.0</ele><time>2026-05-03T11:54:20Z</time></trkpt><trkpt lat="43.170392783788486" lon="18.8607174325609"><ele>815.5</ele><time>2026-05-03T11:54:21Z</time></trkpt><trkpt lat="43.170268140168524" lon="18.86065760764674"><ele>824.0</ele><time>2026-05-03T11:54:22Z</time></trkpt><trkpt lat="43.17013356694128" lon="18.860595403482876"><ele>832.5</ele><time>2026-05-03T11:54:23Z</time></trkpt><trkpt lat="43.170015582732354" lon="18.86050638732334"><ele>841.0</ele><time>2026-05-03T11:54:24Z</time></trkpt><trkpt lat="43.16985932857146" lon="18.860380716153283"><ele>842.4</ele><time>2026-05-03T11:54:25Z</time></trkpt><trkpt lat="43.16976740365229" lon="18.860284616483604"><ele>843.8</ele><time>2026-05-03T11:54:26Z</time></trkpt><trkpt lat="43.169677955678964" lon="18.86021050379209"><ele>845.1999999999999</ele><time>2026-05-03T11:54:27Z</time></trkpt><trkpt lat="43.169584718075825" lon="18.86017519682167"><ele>846.5999999999999</ele><time>2026-05-03T11:54:28Z</time></trkpt><trkpt lat="43.169505450066374" lon="18.860179791575057"><ele>848.0</ele><time>2026-05-03T11:54:29Z</time></trkpt><trkpt lat="43.16942703810946" lon="18.86016740129389"><ele>848.0</ele><time>2026-05-03T11:54:30Z</time></trkpt><trkpt lat="43.169361665238064" lon="18.860166410499495"><ele>848.0</ele><time>2026-05-03T11:54:31Z</time></trkpt><trkpt lat="43.16925336905193" lon="18.860269238042637"><ele>848.0</ele><time>2026-05-03T11:54:33Z</time></trkpt><trkpt lat="43.169193365146086" lon="18.86035103778308"><ele>848.0</ele><time>2026-05-03T11:54:34Z</time></trkpt><trkpt lat="43.1691479197409" lon="18.86052474367568"><ele>848.0</ele><time>2026-05-03T11:54:35Z</time></trkpt><trkpt lat="43.169137621817214" lon="18.860697701266794"><ele>848.0</ele><time>2026-05-03T11:54:36Z</time></trkpt><trkpt lat="43.169095608915256" lon="18.860856936848155"><ele>848.0</ele><time>2026-05-03T11:54:37Z</time></trkpt><trkpt lat="43.16905556905509" lon="18.86101207199097"><ele>848.0</ele><time>2026-05-03T11:54:38Z</time></trkpt><trkpt lat="43.16899175911569" lon="18.861172260400316"><ele>848.0</ele><time>2026-05-03T11:54:39Z</time></trkpt><trkpt lat="43.16891189760811" lon="18.86133195274939"><ele>848.0</ele><time>2026-05-03T11:54:40Z</time></trkpt><trkpt lat="43.16883940755135" lon="18.861500052840135"><ele>848.0</ele><time>2026-05-03T11:54:41Z</time></trkpt><trkpt lat="43.16876095750638" lon="18.86165235857757"><ele>848.0</ele><time>2026-05-03T11:54:42Z</time></trkpt><trkpt lat="43.16866792777124" lon="18.86177464837709"><ele>848.0</ele><time>2026-05-03T11:54:43Z</time></trkpt><trkpt lat="43.168609804823994" lon="18.86191956144269"><ele>848.0</ele><time>2026-05-03T11:54:44Z</time></trkpt><trkpt lat="43.16854041190348" lon="18.86203837775966"><ele>848.0</ele><time>2026-05-03T11:54:45Z</time></trkpt><trkpt lat="43.16853604221188" lon="18.862204096572636"><ele>848.0</ele><time>2026-05-03T11:54:46Z</time></trkpt><trkpt lat="43.16852566535647" lon="18.862349397639598"><ele>848.0</ele><time>2026-05-03T11:54:47Z</time></trkpt><trkpt lat="43.168511399615355" lon="18.862489873604364"><ele>848.0</ele><time>2026-05-03T11:54:48Z</time></trkpt><trkpt lat="43.168465835185124" lon="18.862622660374452"><ele>848.0</ele><time>2026-05-03T11:54:49Z</time></trkpt><trkpt lat="43.16841435820283" lon="18.862757029105985"><ele>848.0</ele><time>2026-05-03T11:54:50Z</time></trkpt><trkpt lat="43.16835537627955" lon="18.862879618644776"><ele>848.0</ele><time>2026-05-03T11:54:51Z</time></trkpt><trkpt lat="43.168291852579394" lon="18.863009573775418"><ele>848.0</ele><time>2026-05-03T11:54:52Z</time></trkpt><trkpt lat="43.16822407672272" lon="18.863135926342235"><ele>848.0</ele><time>2026-05-03T11:54:53Z</time></trkpt><trkpt lat="43.16815880176078" lon="18.86324187341265"><ele>848.0000000000001</ele><time>2026-05-03T11:54:54Z</time></trkpt><trkpt lat="43.16812490421621" lon="18.863340824051285"><ele>848.0</ele><time>2026-05-03T11:54:55Z</time></trkpt><trkpt lat="43.168140027260364" lon="18.86343758675434"><ele>848.0</ele><time>2026-05-03T11:54:56Z</time></trkpt><trkpt lat="43.16817778841035" lon="18.86352795509785"><ele>848.0</ele><time>2026-05-03T11:54:57Z</time></trkpt><trkpt lat="43.16826990888572" lon="18.863619430053742"><ele>848.0000000000001</ele><time>2026-05-03T11:54:58Z</time></trkpt><trkpt lat="43.16834241965098" lon="18.86369990505103"><ele>848.0</ele><time>2026-05-03T11:54:59Z</time></trkpt><trkpt lat="43.16845616933138" lon="18.86377433023796"><ele>848.0</ele><time>2026-05-03T11:55:00Z</time></trkpt><trkpt lat="43.16853807912257" lon="18.863789010742806"><ele>848.0</ele><time>2026-05-03T11:55:01.015Z</time></trkpt><trkpt lat="43.16861867792262" lon="18.86380345626619"><ele>848.0</ele><time>2026-05-03T11:55:02.015Z</time></trkpt><trkpt lat="43.168704288025026" lon="18.86379492756192"><ele>848.0</ele><time>2026-05-03T11:55:03.019Z</time></trkpt><trkpt lat="43.16872422337996" lon="18.863710995635838"><ele>848.0</ele><time>2026-05-03T11:55:05.029Z</time></trkpt><trkpt lat="43.16870876320785" lon="18.8632821034794"><ele>848.0</ele><time>2026-05-03T11:55:07Z</time></trkpt><trkpt lat="43.16868961328593" lon="18.86262970931544"><ele>848.0</ele><time>2026-05-03T11:55:08Z</time></trkpt><trkpt lat="43.168753050770306" lon="18.862458559744223"><ele>848.0</ele><time>2026-05-03T11:55:09Z</time></trkpt><trkpt lat="43.16881965511648" lon="18.86229368250821"><ele>848.0</ele><time>2026-05-03T11:55:10Z</time></trkpt><trkpt lat="43.16890023315883" lon="18.86213926250526"><ele>848.0</ele><time>2026-05-03T11:55:11Z</time></trkpt><trkpt lat="43.169003963719256" lon="18.862024261542352"><ele>851.75</ele><time>2026-05-03T11:55:12Z</time></trkpt><trkpt lat="43.16910078016532" lon="18.861893609575972"><ele>855.5</ele><time>2026-05-03T11:55:13Z</time></trkpt><trkpt lat="43.169186744391276" lon="18.861747589215476"><ele>859.25</ele><time>2026-05-03T11:55:14Z</time></trkpt><trkpt lat="43.16926147904053" lon="18.861583669773317"><ele>863.0</ele><time>2026-05-03T11:55:15Z</time></trkpt><trkpt lat="43.16933782421082" lon="18.861439355687594"><ele>863.0</ele><time>2026-05-03T11:55:16Z</time></trkpt><trkpt lat="43.16941283735902" lon="18.86131809125647"><ele>863.0</ele><time>2026-05-03T11:55:17Z</time></trkpt><trkpt lat="43.169481532959516" lon="18.861216340405253"><ele>863.0</ele><time>2026-05-03T11:55:18Z</time></trkpt><trkpt lat="43.16953589706228" lon="18.861125573519452"><ele>863.0</ele><time>2026-05-03T11:55:19Z</time></trkpt><trkpt lat="43.16958801883585" lon="18.861054067732788"><ele>863.0</ele><time>2026-05-03T11:55:20Z</time></trkpt><trkpt lat="43.1697000315162" lon="18.861053165860067"><ele>863.0</ele><time>2026-05-03T11:55:22Z</time></trkpt><trkpt lat="43.169723157078195" lon="18.861168205064743"><ele>863.0</ele><time>2026-05-03T11:55:23Z</time></trkpt><trkpt lat="43.16975488273845" lon="18.861272427765574"><ele>863.0</ele><time>2026-05-03T11:55:24Z</time></trkpt><trkpt lat="43.16980202888602" lon="18.86138740123027"><ele>863.0</ele><time>2026-05-03T11:55:25Z</time></trkpt><trkpt lat="43.16986588572063" lon="18.861493573799653"><ele>863.0</ele><time>2026-05-03T11:55:26Z</time></trkpt><trkpt lat="43.169921898907965" lon="18.861615491297965"><ele>867.25</ele><time>2026-05-03T11:55:27Z</time></trkpt><trkpt lat="43.16996985080006" lon="18.861751775105514"><ele>871.5</ele><time>2026-05-03T11:55:28Z</time></trkpt><trkpt lat="43.17006007366672" lon="18.86185561211473"><ele>875.75</ele><time>2026-05-03T11:55:29Z</time></trkpt><trkpt lat="43.170163189350674" lon="18.861937032721173"><ele>880.0</ele><time>2026-05-03T11:55:30Z</time></trkpt><trkpt lat="43.17027800527775" lon="18.86196442695164"><ele>892.5</ele><time>2026-05-03T11:55:31Z</time></trkpt><trkpt lat="43.17038962552133" lon="18.861954833740022"><ele>905.0</ele><time>2026-05-03T11:55:32Z</time></trkpt><trkpt lat="43.1704976992509" lon="18.86198835393635"><ele>917.5</ele><time>2026-05-03T11:55:33Z</time></trkpt><trkpt lat="43.170626031408126" lon="18.8619806218585"><ele>930.0</ele><time>2026-05-03T11:55:34Z</time></trkpt><trkpt lat="43.17078137023776" lon="18.861977293873558"><ele>930.5</ele><time>2026-05-03T11:55:35Z</time></trkpt><trkpt lat="43.17094114448492" lon="18.86199725373224"><ele>931.0</ele><time>2026-05-03T11:55:36Z</time></trkpt><trkpt lat="43.171054300065606" lon="18.862050991476014"><ele>931.5</ele><time>2026-05-03T11:55:37Z</time></trkpt><trkpt lat="43.17115232017831" lon="18.862154739031652"><ele>932.0</ele><time>2026-05-03T11:55:38Z</time></trkpt><trkpt lat="43.171261852950074" lon="18.86230246700707"><ele>932.0</ele><time>2026-05-03T11:55:39Z</time></trkpt><trkpt lat="43.17138644262804" lon="18.862458354463044"><ele>932.0</ele><time>2026-05-03T11:55:40Z</time></trkpt><trkpt lat="43.171506614066175" lon="18.86255445378296"><ele>932.0</ele><time>2026-05-03T11:55:41Z</time></trkpt><trkpt lat="43.171600102808526" lon="18.862626098290715"><ele>932.0</ele><time>2026-05-03T11:55:42Z</time></trkpt><trkpt lat="43.171698885237426" lon="18.862637423075235"><ele>931.5</ele><time>2026-05-03T11:55:43Z</time></trkpt><trkpt lat="43.17179938314319" lon="18.862638473851124"><ele>931.0</ele><time>2026-05-03T11:55:44Z</time></trkpt><trkpt lat="43.17193405226251" lon="18.862598094837818"><ele>930.5</ele><time>2026-05-03T11:55:45Z</time></trkpt><trkpt lat="43.172067879267715" lon="18.86250072052764"><ele>930.0</ele><time>2026-05-03T11:55:46Z</time></trkpt><trkpt lat="43.17215244967943" lon="18.86241652139501"><ele>930.0</ele><time>2026-05-03T11:55:47Z</time></trkpt><trkpt lat="43.1722217971091" lon="18.86234231430151"><ele>930.0</ele><time>2026-05-03T11:55:48Z</time></trkpt><trkpt lat="43.17223975814949" lon="18.862197293906977"><ele>930.0</ele><time>2026-05-03T11:55:49Z</time></trkpt><trkpt lat="43.17224935836206" lon="18.86207135427087"><ele>930.0</ele><time>2026-05-03T11:55:50Z</time></trkpt><trkpt lat="43.17227076170852" lon="18.861922043065988"><ele>930.0</ele><time>2026-05-03T11:55:51Z</time></trkpt><trkpt lat="43.17232426591808" lon="18.861799156862013"><ele>925.6</ele><time>2026-05-03T11:55:52Z</time></trkpt><trkpt lat="43.17240321768443" lon="18.861704745796207"><ele>921.2</ele><time>2026-05-03T11:55:53Z</time></trkpt><trkpt lat="43.17250317800873" lon="18.861714248742594"><ele>916.8</ele><time>2026-05-03T11:55:54Z</time></trkpt><trkpt lat="43.17258764928183" lon="18.86172475990752"><ele>912.4</ele><time>2026-05-03T11:55:55Z</time></trkpt><trkpt lat="43.172676365489956" lon="18.86173658201782"><ele>908.0</ele><time>2026-05-03T11:55:56Z</time></trkpt><trkpt lat="43.17276354298369" lon="18.861728477411095"><ele>908.0</ele><time>2026-05-03T11:55:57Z</time></trkpt><trkpt lat="43.17285363624758" lon="18.86175803194035"><ele>908.0</ele><time>2026-05-03T11:55:58Z</time></trkpt><trkpt lat="43.17295128995942" lon="18.86169200821206"><ele>908.0</ele><time>2026-05-03T11:55:59Z</time></trkpt><trkpt lat="43.173043231817736" lon="18.861613832058417"><ele>908.0</ele><time>2026-05-03T11:56:00Z</time></trkpt><trkpt lat="43.173121985222195" lon="18.8615053568333"><ele>908.0</ele><time>2026-05-03T11:56:01Z</time></trkpt><trkpt lat="43.17317118649972" lon="18.86140471221469"><ele>918.2</ele><time>2026-05-03T11:56:02Z</time></trkpt><trkpt lat="43.17321046790156" lon="18.861286133436266"><ele>928.4</ele><time>2026-05-03T11:56:03Z</time></trkpt><trkpt lat="43.17322829343815" lon="18.861143033948263"><ele>938.6000000000001</ele><time>2026-05-03T11:56:04Z</time></trkpt><trkpt lat="43.17325833247396" lon="18.861002853978377"><ele>948.8000000000001</ele><time>2026-05-03T11:56:05Z</time></trkpt><trkpt lat="43.173297997667085" lon="18.8608589214721"><ele>959.0</ele><time>2026-05-03T11:56:06Z</time></trkpt><trkpt lat="43.17334258678317" lon="18.860707690064174"><ele>959.0</ele><time>2026-05-03T11:56:07Z</time></trkpt><trkpt lat="43.173374573316394" lon="18.86054492734727"><ele>959.0</ele><time>2026-05-03T11:56:08Z</time></trkpt><trkpt lat="43.173372916965036" lon="18.86037221554448"><ele>959.0</ele><time>2026-05-03T11:56:09Z</time></trkpt><trkpt lat="43.17333962500407" lon="18.860203779862985"><ele>959.0</ele><time>2026-05-03T11:56:10Z</time></trkpt><trkpt lat="43.17330092238117" lon="18.86004763611316"><ele>959.0</ele><time>2026-05-03T11:56:11Z</time></trkpt><trkpt lat="43.173286156211475" lon="18.859897576816913"><ele>959.0</ele><time>2026-05-03T11:56:12Z</time></trkpt><trkpt lat="43.17330444902914" lon="18.859740970847014"><ele>959.0</ele><time>2026-05-03T11:56:13Z</time></trkpt><trkpt lat="43.17334750303558" lon="18.859590272959203"><ele>959.0</ele><time>2026-05-03T11:56:14Z</time></trkpt><trkpt lat="43.1734627911488" lon="18.85949592859244"><ele>959.0</ele><time>2026-05-03T11:56:15Z</time></trkpt><trkpt lat="43.1735412962861" lon="18.859362235469703"><ele>959.0</ele><time>2026-05-03T11:56:16Z</time></trkpt><trkpt lat="43.17360452810101" lon="18.859218308916034"><ele>959.0</ele><time>2026-05-03T11:56:17Z</time></trkpt><trkpt lat="43.17367465980981" lon="18.859081197926756"><ele>959.0</ele><time>2026-05-03T11:56:18Z</time></trkpt><trkpt lat="43.17372753080065" lon="18.85892539844544"><ele>959.0</ele><time>2026-05-03T11:56:19Z</time></trkpt><trkpt lat="43.17377887901697" lon="18.85876784344384"><ele>959.0</ele><time>2026-05-03T11:56:20Z</time></trkpt><trkpt lat="43.173797856535444" lon="18.858588817158104"><ele>959.0</ele><time>2026-05-03T11:56:21Z</time></trkpt><trkpt lat="43.17379065427943" lon="18.858428462617827"><ele>959.0</ele><time>2026-05-03T11:56:22Z</time></trkpt><trkpt lat="43.173794699921686" lon="18.858296364954153"><ele>960.7142857142858</ele><time>2026-05-03T11:56:23Z</time></trkpt><trkpt lat="43.17380226693672" lon="18.858187668312304"><ele>962.4285714285714</ele><time>2026-05-03T11:56:24Z</time></trkpt><trkpt lat="43.17384452163157" lon="18.858109546932273"><ele>964.1428571428571</ele><time>2026-05-03T11:56:25Z</time></trkpt><trkpt lat="43.17390438316806" lon="18.858058805267834"><ele>965.8571428571429</ele><time>2026-05-03T11:56:26Z</time></trkpt><trkpt lat="43.17397341942746" lon="18.858038890861707"><ele>967.5714285714287</ele><time>2026-05-03T11:56:27Z</time></trkpt><trkpt lat="43.17402736796877" lon="18.85809129393933"><ele>969.2857142857143</ele><time>2026-05-03T11:56:28Z</time></trkpt><trkpt lat="43.174038953906084" lon="18.85820616472783"><ele>971.0</ele><time>2026-05-03T11:56:30Z</time></trkpt><trkpt lat="43.174097284657925" lon="18.85829977237948"><ele>971.0</ele><time>2026-05-03T11:56:33.035Z</time></trkpt><trkpt lat="43.17385863124736" lon="18.85867418323553"><ele>971.0</ele><time>2026-05-03T11:56:35Z</time></trkpt><trkpt lat="43.173848983737194" lon="18.858920038034743"><ele>971.0</ele><time>2026-05-03T11:56:36Z</time></trkpt><trkpt lat="43.1738356043546" lon="18.859099842565648"><ele>971.0</ele><time>2026-05-03T11:56:37Z</time></trkpt><trkpt lat="43.17381449997919" lon="18.859262951112306"><ele>971.0</ele><time>2026-05-03T11:56:38Z</time></trkpt><trkpt lat="43.173761532841986" lon="18.85942065161827"><ele>971.0</ele><time>2026-05-03T11:56:39Z</time></trkpt><trkpt lat="43.173687842131166" lon="18.85955909935865"><ele>971.0</ele><time>2026-05-03T11:56:40Z</time></trkpt><trkpt lat="43.1736275084003" lon="18.859682946249073"><ele>970.9999999999999</ele><time>2026-05-03T11:56:41Z</time></trkpt><trkpt lat="43.17355655098619" lon="18.859784243677336"><ele>970.9999999999999</ele><time>2026-05-03T11:56:42Z</time></trkpt><trkpt lat="43.1735320139636" lon="18.85989033872569"><ele>971.0</ele><time>2026-05-03T11:56:43Z</time></trkpt><trkpt lat="43.17352476906827" lon="18.860030934873922"><ele>971.0</ele><time>2026-05-03T11:56:45Z</time></trkpt><trkpt lat="43.173568228646545" lon="18.860142103346586"><ele>971.0</ele><time>2026-05-03T11:56:46Z</time></trkpt><trkpt lat="43.1736609374069" lon="18.860227618834934"><ele>971.0</ele><time>2026-05-03T11:56:47Z</time></trkpt><trkpt lat="43.17379462449108" lon="18.860194229607913"><ele>971.0</ele><time>2026-05-03T11:56:48.017Z</time></trkpt><trkpt lat="43.17387319604451" lon="18.8600777216482"><ele>971.0</ele><time>2026-05-03T11:56:49.016Z</time></trkpt><trkpt lat="43.17392661909959" lon="18.859924336389895"><ele>971.0</ele><time>2026-05-03T11:56:50.025Z</time></trkpt><trkpt lat="43.173957043754086" lon="18.859719414396192"><ele>971.0</ele><time>2026-05-03T11:56:51.019Z</time></trkpt><trkpt lat="43.1739795502616" lon="18.859561130228098"><ele>971.0</ele><time>2026-05-03T11:56:52.018Z</time></trkpt><trkpt lat="43.1739971996351" lon="18.85943668385328"><ele>971.0</ele><time>2026-05-03T11:56:53.019Z</time></trkpt><trkpt lat="43.17398115165275" lon="18.859176395005413"><ele>981.6666666666667</ele><time>2026-05-03T11:56:54Z</time></trkpt><trkpt lat="43.17398406335534" lon="18.858985119235804"><ele>992.3333333333333</ele><time>2026-05-03T11:56:55Z</time></trkpt><trkpt lat="43.17401185066851" lon="18.858685195332875"><ele>1003.0</ele><time>2026-05-03T11:56:56Z</time></trkpt><trkpt lat="43.17404762063448" lon="18.85854639714727"><ele>996.5999999999999</ele><time>2026-05-03T11:56:57Z</time></trkpt><trkpt lat="43.17406003618781" lon="18.85836991345724"><ele>990.1999999999999</ele><time>2026-05-03T11:56:58Z</time></trkpt><trkpt lat="43.174074307576795" lon="18.85823942753239"><ele>983.8</ele><time>2026-05-03T11:56:59Z</time></trkpt><trkpt lat="43.17415424124721" lon="18.858123455375438"><ele>977.4</ele><time>2026-05-03T11:57:01Z</time></trkpt><trkpt lat="43.174243676459625" lon="18.85810237486855"><ele>971.0</ele><time>2026-05-03T11:57:02Z</time></trkpt><trkpt lat="43.17433201078533" lon="18.858183430574186"><ele>971.0</ele><time>2026-05-03T11:57:03Z</time></trkpt><trkpt lat="43.174440378973" lon="18.858236988667446"><ele>971.0</ele><time>2026-05-03T11:57:04Z</time></trkpt><trkpt lat="43.17455696757365" lon="18.85827185886673"><ele>971.0</ele><time>2026-05-03T11:57:05Z</time></trkpt><trkpt lat="43.174675728288506" lon="18.858313548651378"><ele>971.0</ele><time>2026-05-03T11:57:06Z</time></trkpt><trkpt lat="43.17482694670977" lon="18.858290703934358"><ele>976.6666666666667</ele><time>2026-05-03T11:57:07Z</time></trkpt><trkpt lat="43.17499077427287" lon="18.858285845259733"><ele>982.3333333333333</ele><time>2026-05-03T11:57:08Z</time></trkpt><trkpt lat="43.17518773263349" lon="18.85831361003986"><ele>988.0</ele><time>2026-05-03T11:57:09Z</time></trkpt><trkpt lat="43.17537772523688" lon="18.858333809569196"><ele>988.0</ele><time>2026-05-03T11:57:10Z</time></trkpt><trkpt lat="43.17552854068924" lon="18.85834683931589"><ele>988.0</ele><time>2026-05-03T11:57:11Z</time></trkpt><trkpt lat="43.17566936325931" lon="18.85835145529513"><ele>988.0</ele><time>2026-05-03T11:57:12Z</time></trkpt><trkpt lat="43.17579722142713" lon="18.85834275738719"><ele>988.0</ele><time>2026-05-03T11:57:13Z</time></trkpt><trkpt lat="43.17590735247226" lon="18.85832276503613"><ele>990.2</ele><time>2026-05-03T11:57:14Z</time></trkpt><trkpt lat="43.176013283348055" lon="18.858304922069546"><ele>992.4</ele><time>2026-05-03T11:57:15Z</time></trkpt><trkpt lat="43.17612341650833" lon="18.858289201630747"><ele>994.6000000000001</ele><time>2026-05-03T11:57:16Z</time></trkpt><trkpt lat="43.17623708268769" lon="18.858272954605955"><ele>996.8000000000001</ele><time>2026-05-03T11:57:17Z</time></trkpt><trkpt lat="43.17634905334528" lon="18.858256496678948"><ele>999.0</ele><time>2026-05-03T11:57:18Z</time></trkpt><trkpt lat="43.17644970501709" lon="18.858241550845836"><ele>999.2</ele><time>2026-05-03T11:57:19Z</time></trkpt><trkpt lat="43.17654433695637" lon="18.858243425532844"><ele>999.4000000000001</ele><time>2026-05-03T11:57:20Z</time></trkpt><trkpt lat="43.176643480959996" lon="18.85822697498864"><ele>999.6</ele><time>2026-05-03T11:57:21Z</time></trkpt><trkpt lat="43.17672455264457" lon="18.85831565425358"><ele>999.8</ele><time>2026-05-03T11:57:22Z</time></trkpt><trkpt lat="43.17681362509129" lon="18.85836030941466"><ele>1000.0</ele><time>2026-05-03T11:57:23Z</time></trkpt><trkpt lat="43.176898296468785" lon="18.858403524258765"><ele>1004.2</ele><time>2026-05-03T11:57:24Z</time></trkpt><trkpt lat="43.176990251994205" lon="18.858452285584033"><ele>1008.4</ele><time>2026-05-03T11:57:25Z</time></trkpt><trkpt lat="43.17708311269059" lon="18.858485467023993"><ele>1012.5999999999999</ele><time>2026-05-03T11:57:26Z</time></trkpt><trkpt lat="43.17719914596025" lon="18.858551009133816"><ele>1016.8</ele><time>2026-05-03T11:57:27Z</time></trkpt><trkpt lat="43.17731583429986" lon="18.858617676476552"><ele>1021.0</ele><time>2026-05-03T11:57:28Z</time></trkpt><trkpt lat="43.177430851119084" lon="18.85869586296359"><ele>1021.0</ele><time>2026-05-03T11:57:29Z</time></trkpt><trkpt lat="43.17749059063919" lon="18.858826343155066"><ele>1021.0</ele><time>2026-05-03T11:57:30Z</time></trkpt><trkpt lat="43.17758576467275" lon="18.85893488557472"><ele>1021.0</ele><time>2026-05-03T11:57:31Z</time></trkpt><trkpt lat="43.17767098470412" lon="18.859074769305327"><ele>1021.0</ele><time>2026-05-03T11:57:32Z</time></trkpt><trkpt lat="43.17772884590184" lon="18.85921811054464"><ele>1020.9999999999999</ele><time>2026-05-03T11:57:33Z</time></trkpt><trkpt lat="43.17778606952546" lon="18.85932553640615"><ele>1021.0</ele><time>2026-05-03T11:57:34Z</time></trkpt><trkpt lat="43.17782896679406" lon="18.859388991425497"><ele>1021.0</ele><time>2026-05-03T11:57:35Z</time></trkpt><trkpt lat="43.17777001643227" lon="18.85949393188548"><ele>1021.0</ele><time>2026-05-03T11:57:37Z</time></trkpt><trkpt lat="43.177689923867085" lon="18.859425480777773"><ele>1020.9999999999999</ele><time>2026-05-03T11:57:39Z</time></trkpt><trkpt lat="43.17766518835055" lon="18.859302331230115"><ele>1021.0</ele><time>2026-05-03T11:57:40Z</time></trkpt><trkpt lat="43.177628661126825" lon="18.85916897344327"><ele>1021.0</ele><time>2026-05-03T11:57:41Z</time></trkpt><trkpt lat="43.17757098134777" lon="18.85902143416719"><ele>1021.0</ele><time>2026-05-03T11:57:42Z</time></trkpt><trkpt lat="43.177456929727164" lon="18.858905701418475"><ele>1021.0</ele><time>2026-05-03T11:57:43Z</time></trkpt><trkpt lat="43.177350068784264" lon="18.85881586939568"><ele>1021.0</ele><time>2026-05-03T11:57:44Z</time></trkpt><trkpt lat="43.177222830199035" lon="18.85876369817078"><ele>1028.0</ele><time>2026-05-03T11:57:45Z</time></trkpt><trkpt lat="43.17707441121764" lon="18.85873434668384"><ele>1035.0</ele><time>2026-05-03T11:57:46Z</time></trkpt><trkpt lat="43.17692448480945" lon="18.858678078188348"><ele>1042.0</ele><time>2026-05-03T11:57:47Z</time></trkpt><trkpt lat="43.176799342503166" lon="18.858620216472733"><ele>1049.0</ele><time>2026-05-03T11:57:48Z</time></trkpt><trkpt lat="43.176667908818374" lon="18.858595955998446"><ele>1050.6666666666667</ele><time>2026-05-03T11:57:49Z</time></trkpt><trkpt lat="43.17651531123937" lon="18.858630301394548"><ele>1052.3333333333333</ele><time>2026-05-03T11:57:50Z</time></trkpt><trkpt lat="43.176350061980244" lon="18.85868078220127"><ele>1054.0</ele><time>2026-05-03T11:57:51Z</time></trkpt><trkpt lat="43.17617843494288" lon="18.858724992605154"><ele>1054.0</ele><time>2026-05-03T11:57:52Z</time></trkpt><trkpt lat="43.17602137980031" lon="18.858768688869915"><ele>1054.0</ele><time>2026-05-03T11:57:53Z</time></trkpt><trkpt lat="43.17588798812751" lon="18.85881490034794"><ele>1054.0</ele><time>2026-05-03T11:57:54Z</time></trkpt><trkpt lat="43.17578108327124" lon="18.858862781550265"><ele>1054.0</ele><time>2026-05-03T11:57:55Z</time></trkpt><trkpt lat="43.175705458869196" lon="18.85888632252619"><ele>1054.0</ele><time>2026-05-03T11:57:56Z</time></trkpt><trkpt lat="43.1756257398493" lon="18.858943393608342"><ele>1054.0</ele><time>2026-05-03T11:57:58Z</time></trkpt><trkpt lat="43.175608590038436" lon="18.859026966256113"><ele>1054.0</ele><time>2026-05-03T11:57:59Z</time></trkpt><trkpt lat="43.175684820044445" lon="18.859130481662856"><ele>1054.0</ele><time>2026-05-03T11:58:00Z</time></trkpt><trkpt lat="43.17579622017974" lon="18.859061760997424"><ele>1054.0</ele><time>2026-05-03T11:58:01Z</time></trkpt><trkpt lat="43.17590165103844" lon="18.859056109203387"><ele>1054.0</ele><time>2026-05-03T11:58:02Z</time></trkpt><trkpt lat="43.17603018056934" lon="18.859031221849065"><ele>1054.0</ele><time>2026-05-03T11:58:03Z</time></trkpt><trkpt lat="43.17617461063174" lon="18.85902944930507"><ele>1054.0</ele><time>2026-05-03T11:58:04Z</time></trkpt><trkpt lat="43.17631671710685" lon="18.85903245023193"><ele>1054.0</ele><time>2026-05-03T11:58:05Z</time></trkpt><trkpt lat="43.176455175857996" lon="18.85903505534912"><ele>1052.75</ele><time>2026-05-03T11:58:06Z</time></trkpt><trkpt lat="43.17658161937477" lon="18.859037374345988"><ele>1051.5</ele><time>2026-05-03T11:58:07Z</time></trkpt><trkpt lat="43.17669474019983" lon="18.859044633121364"><ele>1050.25</ele><time>2026-05-03T11:58:08Z</time></trkpt><trkpt lat="43.176810329236986" lon="18.859069400256935"><ele>1049.0</ele><time>2026-05-03T11:58:09Z</time></trkpt><trkpt lat="43.17692088714198" lon="18.85912442899311"><ele>1049.0</ele><time>2026-05-03T11:58:10Z</time></trkpt><trkpt lat="43.17702304846414" lon="18.859183962965403"><ele>1049.0</ele><time>2026-05-03T11:58:11Z</time></trkpt><trkpt lat="43.17711711749693" lon="18.859238228449687"><ele>1049.0</ele><time>2026-05-03T11:58:12Z</time></trkpt><trkpt lat="43.17718693019865" lon="18.859306072236095"><ele>1049.0</ele><time>2026-05-03T11:58:13Z</time></trkpt><trkpt lat="43.177250173366936" lon="18.859396525578838"><ele>1049.0</ele><time>2026-05-03T11:58:14Z</time></trkpt><trkpt lat="43.17729502917439" lon="18.85950133075253"><ele>1052.25</ele><time>2026-05-03T11:58:15Z</time></trkpt><trkpt lat="43.17733880834146" lon="18.85963223489714"><ele>1055.5</ele><time>2026-05-03T11:58:16Z</time></trkpt><trkpt lat="43.177385291457085" lon="18.85977975099695"><ele>1058.75</ele><time>2026-05-03T11:58:17Z</time></trkpt><trkpt lat="43.177432759543585" lon="18.85993236281519"><ele>1062.0</ele><time>2026-05-03T11:58:18Z</time></trkpt><trkpt lat="43.17748512838817" lon="18.8601017705481"><ele>1067.0</ele><time>2026-05-03T11:58:19Z</time></trkpt><trkpt lat="43.17753810001125" lon="18.86026183197255"><ele>1072.0</ele><time>2026-05-03T11:58:20Z</time></trkpt><trkpt lat="43.1775866051769" lon="18.860400282275616"><ele>1077.0</ele><time>2026-05-03T11:58:21Z</time></trkpt><trkpt lat="43.177631405108144" lon="18.86052815640013"><ele>1082.0</ele><time>2026-05-03T11:58:22Z</time></trkpt><trkpt lat="43.177672509401994" lon="18.8606454820738"><ele>1087.0</ele><time>2026-05-03T11:58:23Z</time></trkpt><trkpt lat="43.17772887019262" lon="18.860747287062402"><ele>1087.0</ele><time>2026-05-03T11:58:24Z</time></trkpt><trkpt lat="43.17777828348156" lon="18.860864804922027"><ele>1087.0</ele><time>2026-05-03T11:58:25Z</time></trkpt><trkpt lat="43.17785084120341" lon="18.86101187723686"><ele>1087.0</ele><time>2026-05-03T11:58:26Z</time></trkpt><trkpt lat="43.17792301347026" lon="18.861124797944164"><ele>1087.0</ele><time>2026-05-03T11:58:27Z</time></trkpt><trkpt lat="43.17799515458078" lon="18.86121861985658"><ele>1087.0</ele><time>2026-05-03T11:58:28Z</time></trkpt><trkpt lat="43.178073264790896" lon="18.861320128131837"><ele>1083.75</ele><time>2026-05-03T11:58:29Z</time></trkpt><trkpt lat="43.17815293821466" lon="18.861415800626023"><ele>1080.5</ele><time>2026-05-03T11:58:30Z</time></trkpt><trkpt lat="43.17826402137779" lon="18.86152165553383"><ele>1077.25</ele><time>2026-05-03T11:58:31Z</time></trkpt><trkpt lat="43.178380607718395" lon="18.861631144210012"><ele>1074.0</ele><time>2026-05-03T11:58:32Z</time></trkpt><trkpt lat="43.17850342496771" lon="18.861746810757356"><ele>1081.0</ele><time>2026-05-03T11:58:33Z</time></trkpt><trkpt lat="43.17864975699683" lon="18.86186350294187"><ele>1088.0</ele><time>2026-05-03T11:58:34Z</time></trkpt><trkpt lat="43.17876654019208" lon="18.861949790295444"><ele>1095.0</ele><time>2026-05-03T11:58:35Z</time></trkpt><trkpt lat="43.178866646792464" lon="18.862028834911527"><ele>1102.0</ele><time>2026-05-03T11:58:36Z</time></trkpt><trkpt lat="43.17896049505794" lon="18.862112888149706"><ele>1097.5</ele><time>2026-05-03T11:58:37Z</time></trkpt><trkpt lat="43.17902912791617" lon="18.86223235291691"><ele>1093.0</ele><time>2026-05-03T11:58:38Z</time></trkpt><trkpt lat="43.17909525209343" lon="18.86237178728118"><ele>1088.5</ele><time>2026-05-03T11:58:39Z</time></trkpt><trkpt lat="43.17915310675006" lon="18.862527232829976"><ele>1084.0</ele><time>2026-05-03T11:58:40Z</time></trkpt><trkpt lat="43.17921317267532" lon="18.86268917518705"><ele>1084.0</ele><time>2026-05-03T11:58:41Z</time></trkpt><trkpt lat="43.17928446487231" lon="18.86285863577191"><ele>1084.0</ele><time>2026-05-03T11:58:42Z</time></trkpt><trkpt lat="43.179366879769184" lon="18.863022395133132"><ele>1084.0</ele><time>2026-05-03T11:58:43Z</time></trkpt><trkpt lat="43.179468722590165" lon="18.863166119210685"><ele>1084.0</ele><time>2026-05-03T11:58:44Z</time></trkpt><trkpt lat="43.179567026843046" lon="18.863270387404388"><ele>1084.0</ele><time>2026-05-03T11:58:45Z</time></trkpt><trkpt lat="43.17965564112782" lon="18.863364220170418"><ele>1084.0</ele><time>2026-05-03T11:58:46Z</time></trkpt><trkpt lat="43.17972456110007" lon="18.863486294998776"><ele>1084.0</ele><time>2026-05-03T11:58:47Z</time></trkpt><trkpt lat="43.179783411692895" lon="18.863614065217604"><ele>1084.0</ele><time>2026-05-03T11:58:48Z</time></trkpt><trkpt lat="43.179796078408614" lon="18.86377257572324"><ele>1088.0</ele><time>2026-05-03T11:58:49Z</time></trkpt><trkpt lat="43.17982496182006" lon="18.86391872806917"><ele>1092.0</ele><time>2026-05-03T11:58:50Z</time></trkpt><trkpt lat="43.17981231808378" lon="18.864076067829444"><ele>1096.0</ele><time>2026-05-03T11:58:51Z</time></trkpt><trkpt lat="43.17981868358085" lon="18.864224106037355"><ele>1100.0</ele><time>2026-05-03T11:58:52Z</time></trkpt><trkpt lat="43.17980456168256" lon="18.864369046993378"><ele>1104.0</ele><time>2026-05-03T11:58:53Z</time></trkpt><trkpt lat="43.179832046093225" lon="18.864537451683915"><ele>1098.25</ele><time>2026-05-03T11:58:54Z</time></trkpt><trkpt lat="43.179874009576906" lon="18.864701788807903"><ele>1092.5</ele><time>2026-05-03T11:58:55Z</time></trkpt><trkpt lat="43.17992064461589" lon="18.8648541936999"><ele>1086.75</ele><time>2026-05-03T11:58:56Z</time></trkpt><trkpt lat="43.179953658521804" lon="18.865024629087607"><ele>1081.0</ele><time>2026-05-03T11:58:57Z</time></trkpt><trkpt lat="43.17993832662222" lon="18.865200578812477"><ele>1081.0</ele><time>2026-05-03T11:58:58Z</time></trkpt><trkpt lat="43.17993951519813" lon="18.86540435953231"><ele>1081.0</ele><time>2026-05-03T11:58:59Z</time></trkpt><trkpt lat="43.17995959963018" lon="18.86560079439527"><ele>1081.0</ele><time>2026-05-03T11:59:00Z</time></trkpt><trkpt lat="43.179954330115386" lon="18.865772018638125"><ele>1081.0</ele><time>2026-05-03T11:59:01Z</time></trkpt><trkpt lat="43.17996070116463" lon="18.865930518171314"><ele>1081.0</ele><time>2026-05-03T11:59:02Z</time></trkpt><trkpt lat="43.17997001435438" lon="18.866074976537924"><ele>1081.0</ele><time>2026-05-03T11:59:03Z</time></trkpt><trkpt lat="43.17998108224196" lon="18.866194061616802"><ele>1081.0</ele><time>2026-05-03T11:59:04Z</time></trkpt><trkpt lat="43.17999118015261" lon="18.86630036440024"><ele>1081.0</ele><time>2026-05-03T11:59:05Z</time></trkpt><trkpt lat="43.18003387683617" lon="18.866379866603257"><ele>1081.0</ele><time>2026-05-03T11:59:06Z</time></trkpt><trkpt lat="43.18007255161647" lon="18.866456770624445"><ele>1081.0</ele><time>2026-05-03T11:59:07Z</time></trkpt><trkpt lat="43.18014038730606" lon="18.866494094620638"><ele>1081.0</ele><time>2026-05-03T11:59:08Z</time></trkpt><trkpt lat="43.18021513834207" lon="18.866491750518506"><ele>1081.0</ele><time>2026-05-03T11:59:09Z</time></trkpt><trkpt lat="43.180278667436575" lon="18.86641092948636"><ele>1081.0</ele><time>2026-05-03T11:59:10Z</time></trkpt><trkpt lat="43.18028524547957" lon="18.866250064767453"><ele>1081.0</ele><time>2026-05-03T11:59:11Z</time></trkpt><trkpt lat="43.180291087630394" lon="18.866090687411624"><ele>1081.0</ele><time>2026-05-03T11:59:12Z</time></trkpt><trkpt lat="43.18029202804456" lon="18.86595425001367"><ele>1081.0</ele><time>2026-05-03T11:59:13Z</time></trkpt><trkpt lat="43.18029217804172" lon="18.8658450353257"><ele>1081.0</ele><time>2026-05-03T11:59:14Z</time></trkpt><trkpt lat="43.180320179280095" lon="18.86576328355759"><ele>1081.0</ele><time>2026-05-03T11:59:15Z</time></trkpt><trkpt lat="43.18037677945308" lon="18.865683942415306"><ele>1081.0</ele><time>2026-05-03T11:59:17Z</time></trkpt><trkpt lat="43.18043680233331" lon="18.865740761072278"><ele>1081.0</ele><time>2026-05-03T11:59:19Z</time></trkpt><trkpt lat="43.180431624645934" lon="18.866001693935477"><ele>1081.0</ele><time>2026-05-03T11:59:21Z</time></trkpt><trkpt lat="43.18045401132637" lon="18.866178882678156"><ele>1081.0</ele><time>2026-05-03T11:59:22Z</time></trkpt><trkpt lat="43.18047529019041" lon="18.86635950381432"><ele>1081.0</ele><time>2026-05-03T11:59:23Z</time></trkpt><trkpt lat="43.1804954822356" lon="18.8665413132147"><ele>1081.0</ele><time>2026-05-03T11:59:24Z</time></trkpt><trkpt lat="43.180535154596804" lon="18.86669830998701"><ele>1082.8</ele><time>2026-05-03T11:59:25Z</time></trkpt><trkpt lat="43.18053829135616" lon="18.866853410906977"><ele>1084.6</ele><time>2026-05-03T11:59:26Z</time></trkpt><trkpt lat="43.180524454598284" lon="18.86699616678792"><ele>1086.4</ele><time>2026-05-03T11:59:27Z</time></trkpt><trkpt lat="43.180431412489575" lon="18.867078354669346"><ele>1088.2</ele><time>2026-05-03T11:59:28Z</time></trkpt><trkpt lat="43.180343121273665" lon="18.867155182338564"><ele>1090.0</ele><time>2026-05-03T11:59:29Z</time></trkpt><trkpt lat="43.180252382659035" lon="18.867253335131362"><ele>1090.0</ele><time>2026-05-03T11:59:30Z</time></trkpt><trkpt lat="43.18017928134613" lon="18.867319064109594"><ele>1090.0</ele><time>2026-05-03T11:59:31Z</time></trkpt><trkpt lat="43.18013935758839" lon="18.86741619419566"><ele>1090.0</ele><time>2026-05-03T11:59:32Z</time></trkpt><trkpt lat="43.180152639793896" lon="18.86754991814275"><ele>1090.0</ele><time>2026-05-03T11:59:33Z</time></trkpt><trkpt lat="43.180157710475996" lon="18.86767685144567"><ele>1090.0</ele><time>2026-05-03T11:59:34Z</time></trkpt><trkpt lat="43.18015372942868" lon="18.867834235597222"><ele>1092.0</ele><time>2026-05-03T11:59:35Z</time></trkpt><trkpt lat="43.18015937661739" lon="18.86801011152721"><ele>1094.0</ele><time>2026-05-03T11:59:36Z</time></trkpt><trkpt lat="43.18017225087485" lon="18.8681860068272"><ele>1096.0</ele><time>2026-05-03T11:59:37Z</time></trkpt><trkpt lat="43.18018506829451" lon="18.868350460715"><ele>1098.0</ele><time>2026-05-03T11:59:38Z</time></trkpt><trkpt lat="43.180205396032015" lon="18.868507273904076"><ele>1098.5</ele><time>2026-05-03T11:59:39Z</time></trkpt><trkpt lat="43.180205378276284" lon="18.868660106271957"><ele>1099.0</ele><time>2026-05-03T11:59:40Z</time></trkpt><trkpt lat="43.18013618116523" lon="18.868794455960472"><ele>1099.5</ele><time>2026-05-03T11:59:41Z</time></trkpt><trkpt lat="43.18011401926044" lon="18.86894472160739"><ele>1100.0</ele><time>2026-05-03T11:59:42Z</time></trkpt><trkpt lat="43.18009859175189" lon="18.869099648076467"><ele>1100.0</ele><time>2026-05-03T11:59:43Z</time></trkpt><trkpt lat="43.18007098265328" lon="18.8692645068194"><ele>1100.0</ele><time>2026-05-03T11:59:44Z</time></trkpt><trkpt lat="43.180059386787256" lon="18.869443046306017"><ele>1100.0</ele><time>2026-05-03T11:59:45Z</time></trkpt><trkpt lat="43.18002757049203" lon="18.869610620569908"><ele>1100.0</ele><time>2026-05-03T11:59:46Z</time></trkpt><trkpt lat="43.17999352527419" lon="18.869778035993264"><ele>1099.75</ele><time>2026-05-03T11:59:47Z</time></trkpt><trkpt lat="43.179972419454536" lon="18.86995289384353"><ele>1099.5</ele><time>2026-05-03T11:59:48Z</time></trkpt><trkpt lat="43.179965327354466" lon="18.870138765326896"><ele>1099.25</ele><time>2026-05-03T11:59:49Z</time></trkpt><trkpt lat="43.17995230970262" lon="18.870333574023824"><ele>1099.0</ele><time>2026-05-03T11:59:50Z</time></trkpt><trkpt lat="43.180001637590124" lon="18.870535941277183"><ele>1102.0</ele><time>2026-05-03T11:59:51Z</time></trkpt><trkpt lat="43.180022664832585" lon="18.870731520443353"><ele>1105.0</ele><time>2026-05-03T11:59:52Z</time></trkpt><trkpt lat="43.179992381939364" lon="18.87092112022665"><ele>1108.0</ele><time>2026-05-03T11:59:53Z</time></trkpt><trkpt lat="43.179970609125185" lon="18.871120192795022"><ele>1111.0</ele><time>2026-05-03T11:59:54Z</time></trkpt><trkpt lat="43.1799175292495" lon="18.871306828389763"><ele>1113.3333333333333</ele><time>2026-05-03T11:59:55Z</time></trkpt><trkpt lat="43.17985704447984" lon="18.87149834793435"><ele>1115.6666666666667</ele><time>2026-05-03T11:59:56Z</time></trkpt><trkpt lat="43.17978568653987" lon="18.87168879526006"><ele>1118.0</ele><time>2026-05-03T11:59:57Z</time></trkpt><trkpt lat="43.17971362046931" lon="18.871877144254896"><ele>1119.5</ele><time>2026-05-03T11:59:58Z</time></trkpt><trkpt lat="43.179642062873164" lon="18.87206466440537"><ele>1121.0</ele><time>2026-05-03T11:59:59Z</time></trkpt><trkpt lat="43.1795757126936" lon="18.872247896056564"><ele>1122.5</ele><time>2026-05-03T12:00:00Z</time></trkpt><trkpt lat="43.17951226832636" lon="18.872399688794243"><ele>1124.0</ele><time>2026-05-03T12:00:01Z</time></trkpt><trkpt lat="43.17946301162483" lon="18.872534302083192"><ele>1125.2</ele><time>2026-05-03T12:00:02Z</time></trkpt><trkpt lat="43.17944634207325" lon="18.872657401105812"><ele>1126.4</ele><time>2026-05-03T12:00:03Z</time></trkpt><trkpt lat="43.179457338589906" lon="18.87278635008299"><ele>1127.6</ele><time>2026-05-03T12:00:04Z</time></trkpt><trkpt lat="43.17945794096525" lon="18.872927362148072"><ele>1128.8</ele><time>2026-05-03T12:00:05Z</time></trkpt><trkpt lat="43.179443304983664" lon="18.873084753618237"><ele>1130.0</ele><time>2026-05-03T12:00:06Z</time></trkpt><trkpt lat="43.17941964079838" lon="18.87324897447528"><ele>1130.0</ele><time>2026-05-03T12:00:07Z</time></trkpt><trkpt lat="43.179394567062296" lon="18.87342085307394"><ele>1130.0</ele><time>2026-05-03T12:00:08Z</time></trkpt><trkpt lat="43.179364110669894" lon="18.873597758592084"><ele>1130.0</ele><time>2026-05-03T12:00:09Z</time></trkpt><trkpt lat="43.179341343058766" lon="18.873788997999362"><ele>1130.0</ele><time>2026-05-03T12:00:10Z</time></trkpt><trkpt lat="43.1793234115448" lon="18.87398654728531"><ele>1131.75</ele><time>2026-05-03T12:00:11Z</time></trkpt><trkpt lat="43.17931187610579" lon="18.874186906945873"><ele>1133.5</ele><time>2026-05-03T12:00:12Z</time></trkpt><trkpt lat="43.17929922820179" lon="18.874394364852577"><ele>1135.25</ele><time>2026-05-03T12:00:13Z</time></trkpt><trkpt lat="43.17928418946236" lon="18.874599117702015"><ele>1137.0</ele><time>2026-05-03T12:00:14Z</time></trkpt><trkpt lat="43.179270423547024" lon="18.874811295453128"><ele>1138.6666666666667</ele><time>2026-05-03T12:00:15Z</time></trkpt><trkpt lat="43.17925832810153" lon="18.875025624866947"><ele>1140.3333333333335</ele><time>2026-05-03T12:00:16Z</time></trkpt><trkpt lat="43.1792413561449" lon="18.87524198850743"><ele>1142.0</ele><time>2026-05-03T12:00:17Z</time></trkpt><trkpt lat="43.179200803516125" lon="18.875457624602426"><ele>1143.6666666666667</ele><time>2026-05-03T12:00:18Z</time></trkpt><trkpt lat="43.179190391874734" lon="18.87568276213854"><ele>1145.3333333333333</ele><time>2026-05-03T12:00:19Z</time></trkpt><trkpt lat="43.17915330998332" lon="18.875906901239798"><ele>1147.0</ele><time>2026-05-03T12:00:20Z</time></trkpt><trkpt lat="43.179108430023476" lon="18.87613228473281"><ele>1150.3333333333333</ele><time>2026-05-03T12:00:21Z</time></trkpt><trkpt lat="43.17906583831582" lon="18.876358071465376"><ele>1153.6666666666667</ele><time>2026-05-03T12:00:22Z</time></trkpt><trkpt lat="43.179029605901725" lon="18.87658770408098"><ele>1157.0</ele><time>2026-05-03T12:00:23Z</time></trkpt><trkpt lat="43.17900136557105" lon="18.87681810387334"><ele>1160.6666666666667</ele><time>2026-05-03T12:00:24Z</time></trkpt><trkpt lat="43.17897519675015" lon="18.877044314173645"><ele>1164.3333333333333</ele><time>2026-05-03T12:00:25Z</time></trkpt><trkpt lat="43.17895752170035" lon="18.87726548411128"><ele>1168.0</ele><time>2026-05-03T12:00:26Z</time></trkpt><trkpt lat="43.17893265265223" lon="18.877482506579003"><ele>1167.0</ele><time>2026-05-03T12:00:27Z</time></trkpt><trkpt lat="43.17885046362984" lon="18.877672239142512"><ele>1166.0</ele><time>2026-05-03T12:00:28Z</time></trkpt><trkpt lat="43.17880244242733" lon="18.87787889945625"><ele>1165.0</ele><time>2026-05-03T12:00:29Z</time></trkpt><trkpt lat="43.178769258569154" lon="18.878090456984264"><ele>1165.0</ele><time>2026-05-03T12:00:30Z</time></trkpt><trkpt lat="43.17876113704861" lon="18.878313427897506"><ele>1165.0</ele><time>2026-05-03T12:00:31Z</time></trkpt><trkpt lat="43.17872879232801" lon="18.878526383922793"><ele>1165.0</ele><time>2026-05-03T12:00:32Z</time></trkpt><trkpt lat="43.17869892852867" lon="18.878728539399262"><ele>1165.0</ele><time>2026-05-03T12:00:33Z</time></trkpt><trkpt lat="43.17867165020297" lon="18.878918088720283"><ele>1165.0</ele><time>2026-05-03T12:00:34Z</time></trkpt><trkpt lat="43.17862721993291" lon="18.879097867166276"><ele>1165.0</ele><time>2026-05-03T12:00:35Z</time></trkpt><trkpt lat="43.17858083862229" lon="18.879296189091747"><ele>1165.0</ele><time>2026-05-03T12:00:36Z</time></trkpt><trkpt lat="43.17852120964804" lon="18.87952249440933"><ele>1164.6666666666665</ele><time>2026-05-03T12:00:37Z</time></trkpt><trkpt lat="43.178462515113495" lon="18.879752497651726"><ele>1164.3333333333333</ele><time>2026-05-03T12:00:38Z</time></trkpt><trkpt lat="43.1784233951625" lon="18.879951652729602"><ele>1164.0</ele><time>2026-05-03T12:00:39Z</time></trkpt><trkpt lat="43.17839147345895" lon="18.880112636545455"><ele>1164.5</ele><time>2026-05-03T12:00:40Z</time></trkpt><trkpt lat="43.17835972255601" lon="18.88022609210053"><ele>1165.0</ele><time>2026-05-03T12:00:41Z</time></trkpt><trkpt lat="43.178344153789766" lon="18.880328231976442"><ele>1165.5</ele><time>2026-05-03T12:00:42Z</time></trkpt><trkpt lat="43.17830134228133" lon="18.8803938945066"><ele>1166.0</ele><time>2026-05-03T12:00:43Z</time></trkpt><trkpt lat="43.17828766645919" lon="18.880546879888737"><ele>1166.5</ele><time>2026-05-03T12:00:45Z</time></trkpt><trkpt lat="43.17827508459206" lon="18.88068253685837"><ele>1167.0</ele><time>2026-05-03T12:00:46Z</time></trkpt><trkpt lat="43.17822302521812" lon="18.880823701093203"><ele>1170.0</ele><time>2026-05-03T12:00:47Z</time></trkpt><trkpt lat="43.17815195500737" lon="18.880986200917793"><ele>1173.0</ele><time>2026-05-03T12:00:48Z</time></trkpt><trkpt lat="43.17808482256789" lon="18.881179476670773"><ele>1176.0</ele><time>2026-05-03T12:00:49Z</time></trkpt><trkpt lat="43.178016765063056" lon="18.881379820138985"><ele>1176.0</ele><time>2026-05-03T12:00:50Z</time></trkpt><trkpt lat="43.177949575866236" lon="18.88155910533925"><ele>1176.0</ele><time>2026-05-03T12:00:51Z</time></trkpt><trkpt lat="43.17786906445957" lon="18.881749260493446"><ele>1176.0</ele><time>2026-05-03T12:00:52Z</time></trkpt><trkpt lat="43.177788210385856" lon="18.881944958348715"><ele>1174.0</ele><time>2026-05-03T12:00:53Z</time></trkpt><trkpt lat="43.17769610307701" lon="18.882095633192744"><ele>1172.0</ele><time>2026-05-03T12:00:54Z</time></trkpt><trkpt lat="43.1776301674225" lon="18.882239431423237"><ele>1170.0</ele><time>2026-05-03T12:00:55Z</time></trkpt><trkpt lat="43.17759072386582" lon="18.88238490659415"><ele>1168.0</ele><time>2026-05-03T12:00:56Z</time></trkpt><trkpt lat="43.17756078870748" lon="18.88254650522782"><ele>1170.0</ele><time>2026-05-03T12:00:57Z</time></trkpt><trkpt lat="43.17753729761292" lon="18.88272573188614"><ele>1172.0</ele><time>2026-05-03T12:00:58Z</time></trkpt><trkpt lat="43.17751359346365" lon="18.882907524122682"><ele>1174.0</ele><time>2026-05-03T12:00:59Z</time></trkpt><trkpt lat="43.17747073787588" lon="18.88308531982853"><ele>1176.0</ele><time>2026-05-03T12:01:00Z</time></trkpt><trkpt lat="43.177371302481504" lon="18.883220550751037"><ele>1177.75</ele><time>2026-05-03T12:01:01Z</time></trkpt><trkpt lat="43.177289337161696" lon="18.88337032250491"><ele>1179.5</ele><time>2026-05-03T12:01:02Z</time></trkpt><trkpt lat="43.17720859230729" lon="18.88352094119755"><ele>1181.25</ele><time>2026-05-03T12:01:03Z</time></trkpt><trkpt lat="43.17714208518644" lon="18.88367678829484"><ele>1183.0</ele><time>2026-05-03T12:01:04Z</time></trkpt><trkpt lat="43.177088789543106" lon="18.883813151520755"><ele>1183.0</ele><time>2026-05-03T12:01:05Z</time></trkpt><trkpt lat="43.17703997475805" lon="18.883939894678615"><ele>1183.0</ele><time>2026-05-03T12:01:06Z</time></trkpt><trkpt lat="43.17700147249019" lon="18.88405710142984"><ele>1183.0</ele><time>2026-05-03T12:01:07Z</time></trkpt><trkpt lat="43.1769532650538" lon="18.884168085545504"><ele>1183.0</ele><time>2026-05-03T12:01:08Z</time></trkpt><trkpt lat="43.176920813000756" lon="18.88428505331223"><ele>1183.0</ele><time>2026-05-03T12:01:09Z</time></trkpt><trkpt lat="43.17687133910321" lon="18.88438301935165"><ele>1183.0</ele><time>2026-05-03T12:01:10Z</time></trkpt><trkpt lat="43.17684964470022" lon="18.884497680694874"><ele>1183.0</ele><time>2026-05-03T12:01:11Z</time></trkpt><trkpt lat="43.17680870194823" lon="18.884588169128435"><ele>1183.0</ele><time>2026-05-03T12:01:12Z</time></trkpt><trkpt lat="43.176767670067775" lon="18.884683986256302"><ele>1183.0</ele><time>2026-05-03T12:01:13Z</time></trkpt><trkpt lat="43.17673468458218" lon="18.884782508051998"><ele>1183.0</ele><time>2026-05-03T12:01:14Z</time></trkpt><trkpt lat="43.176703787621314" lon="18.884898454086493"><ele>1183.0</ele><time>2026-05-03T12:01:15Z</time></trkpt><trkpt lat="43.17667860867164" lon="18.88502510287556"><ele>1183.8</ele><time>2026-05-03T12:01:16Z</time></trkpt><trkpt lat="43.17666782511713" lon="18.885163373658628"><ele>1184.6</ele><time>2026-05-03T12:01:17Z</time></trkpt><trkpt lat="43.176657852884695" lon="18.885296278565406"><ele>1185.4</ele><time>2026-05-03T12:01:18Z</time></trkpt><trkpt lat="43.17665160576319" lon="18.885427651842615"><ele>1186.2</ele><time>2026-05-03T12:01:19Z</time></trkpt><trkpt lat="43.176653591867485" lon="18.885558693395513"><ele>1187.0</ele><time>2026-05-03T12:01:20Z</time></trkpt><trkpt lat="43.17665553536117" lon="18.885698215696575"><ele>1187.0</ele><time>2026-05-03T12:01:21Z</time></trkpt><trkpt lat="43.17667533743412" lon="18.88584224634273"><ele>1187.0</ele><time>2026-05-03T12:01:22Z</time></trkpt><trkpt lat="43.17671041845774" lon="18.885983300558273"><ele>1187.0</ele><time>2026-05-03T12:01:23Z</time></trkpt><trkpt lat="43.176743797115144" lon="18.886125853330693"><ele>1187.0</ele><time>2026-05-03T12:01:24Z</time></trkpt><trkpt lat="43.176770663264385" lon="18.886262827793413"><ele>1187.0</ele><time>2026-05-03T12:01:25Z</time></trkpt><trkpt lat="43.17677565976151" lon="18.88639075900995"><ele>1187.6</ele><time>2026-05-03T12:01:26Z</time></trkpt><trkpt lat="43.17677335563952" lon="18.88650693701078"><ele>1188.2</ele><time>2026-05-03T12:01:27Z</time></trkpt><trkpt lat="43.176756907328816" lon="18.88660216200793"><ele>1188.8</ele><time>2026-05-03T12:01:28Z</time></trkpt><trkpt lat="43.176713487723674" lon="18.886745105848046"><ele>1189.4</ele><time>2026-05-03T12:01:30Z</time></trkpt><trkpt lat="43.17659702245782" lon="18.886796847410203"><ele>1190.0</ele><time>2026-05-03T12:01:32Z</time></trkpt><trkpt lat="43.1765040359669" lon="18.88680687981364"><ele>1192.8</ele><time>2026-05-03T12:01:33Z</time></trkpt><trkpt lat="43.17640841203023" lon="18.886805222662453"><ele>1195.6</ele><time>2026-05-03T12:01:34Z</time></trkpt><trkpt lat="43.17631061285414" lon="18.88677091848135"><ele>1198.4</ele><time>2026-05-03T12:01:35Z</time></trkpt><trkpt lat="43.17621547889473" lon="18.88672269755335"><ele>1201.2</ele><time>2026-05-03T12:01:36Z</time></trkpt><trkpt lat="43.17613389772229" lon="18.886690485834404"><ele>1204.0</ele><time>2026-05-03T12:01:37Z</time></trkpt><trkpt lat="43.176067954184504" lon="18.88666778843694"><ele>1204.0</ele><time>2026-05-03T12:01:38Z</time></trkpt><trkpt lat="43.17600804801467" lon="18.886531285167283"><ele>1204.0</ele><time>2026-05-03T12:01:40Z</time></trkpt><trkpt lat="43.176035944871295" lon="18.886436471897007"><ele>1204.0</ele><time>2026-05-03T12:01:41Z</time></trkpt><trkpt lat="43.1760901598417" lon="18.886341942642765"><ele>1204.0</ele><time>2026-05-03T12:01:42Z</time></trkpt><trkpt lat="43.1761508617752" lon="18.88624618279819"><ele>1204.0</ele><time>2026-05-03T12:01:43Z</time></trkpt><trkpt lat="43.17619170849338" lon="18.88614722711931"><ele>1204.0</ele><time>2026-05-03T12:01:44Z</time></trkpt><trkpt lat="43.1761915207152" lon="18.886036208878338"><ele>1204.0</ele><time>2026-05-03T12:01:45Z</time></trkpt><trkpt lat="43.17615924818007" lon="18.885906582994497"><ele>1204.0</ele><time>2026-05-03T12:01:46Z</time></trkpt><trkpt lat="43.17611954708878" lon="18.88575788480359"><ele>1204.0</ele><time>2026-05-03T12:01:47Z</time></trkpt><trkpt lat="43.17608561387979" lon="18.885609803685185"><ele>1204.0</ele><time>2026-05-03T12:01:48Z</time></trkpt><trkpt lat="43.176051387453086" lon="18.885445693255516"><ele>1204.5</ele><time>2026-05-03T12:01:49Z</time></trkpt><trkpt lat="43.176006650424306" lon="18.88528303127221"><ele>1205.0</ele><time>2026-05-03T12:01:50Z</time></trkpt><trkpt lat="43.17596039888575" lon="18.885112163994247"><ele>1205.5</ele><time>2026-05-03T12:01:51Z</time></trkpt><trkpt lat="43.17591646969444" lon="18.884931386352058"><ele>1206.0</ele><time>2026-05-03T12:01:52Z</time></trkpt><trkpt lat="43.17587641052987" lon="18.88474175833244"><ele>1207.25</ele><time>2026-05-03T12:01:53Z</time></trkpt><trkpt lat="43.17586317094477" lon="18.884546346759386"><ele>1208.5</ele><time>2026-05-03T12:01:54Z</time></trkpt><trkpt lat="43.17585790488229" lon="18.88436256279069"><ele>1209.75</ele><time>2026-05-03T12:01:55Z</time></trkpt><trkpt lat="43.175914861321104" lon="18.88423288431149"><ele>1211.0</ele><time>2026-05-03T12:01:56Z</time></trkpt><trkpt lat="43.17595577704366" lon="18.8840792124911"><ele>1212.75</ele><time>2026-05-03T12:01:57Z</time></trkpt><trkpt lat="43.17600236004474" lon="18.883912766070658"><ele>1214.5</ele><time>2026-05-03T12:01:58Z</time></trkpt><trkpt lat="43.17605164908349" lon="18.883738116338314"><ele>1216.25</ele><time>2026-05-03T12:01:59Z</time></trkpt><trkpt lat="43.1760930048161" lon="18.883545270955192"><ele>1218.0</ele><time>2026-05-03T12:02:00Z</time></trkpt><trkpt lat="43.176151812817594" lon="18.883368191192933"><ele>1221.0</ele><time>2026-05-03T12:02:01Z</time></trkpt><trkpt lat="43.17618925588823" lon="18.88319135529697"><ele>1224.0</ele><time>2026-05-03T12:02:02Z</time></trkpt><trkpt lat="43.176207937976564" lon="18.883013844122623"><ele>1227.0</ele><time>2026-05-03T12:02:03Z</time></trkpt><trkpt lat="43.17624742297536" lon="18.882845413424224"><ele>1230.0</ele><time>2026-05-03T12:02:04Z</time></trkpt><trkpt lat="43.17624684907568" lon="18.88265049019214"><ele>1232.25</ele><time>2026-05-03T12:02:05Z</time></trkpt><trkpt lat="43.176263172664065" lon="18.882473711796226"><ele>1234.5</ele><time>2026-05-03T12:02:06Z</time></trkpt><trkpt lat="43.17631972077535" lon="18.88232134315224"><ele>1236.75</ele><time>2026-05-03T12:02:07Z</time></trkpt><trkpt lat="43.17635887938022" lon="18.882182460744332"><ele>1239.0</ele><time>2026-05-03T12:02:08Z</time></trkpt><trkpt lat="43.17636501431304" lon="18.882034398971346"><ele>1239.0</ele><time>2026-05-03T12:02:09Z</time></trkpt><trkpt lat="43.17637827875145" lon="18.8819036606342"><ele>1239.0</ele><time>2026-05-03T12:02:10Z</time></trkpt><trkpt lat="43.176427209864826" lon="18.881775866481895"><ele>1239.0</ele><time>2026-05-03T12:02:11Z</time></trkpt><trkpt lat="43.17648329930405" lon="18.88163915096249"><ele>1239.0</ele><time>2026-05-03T12:02:12Z</time></trkpt><trkpt lat="43.17652166698679" lon="18.881480255903508"><ele>1239.0</ele><time>2026-05-03T12:02:13Z</time></trkpt><trkpt lat="43.176566539344634" lon="18.881315415575006"><ele>1236.3333333333333</ele><time>2026-05-03T12:02:14Z</time></trkpt><trkpt lat="43.17659646705092" lon="18.88111376654789"><ele>1233.6666666666665</ele><time>2026-05-03T12:02:15Z</time></trkpt><trkpt lat="43.176626834405646" lon="18.88090898107596"><ele>1231.0</ele><time>2026-05-03T12:02:16Z</time></trkpt><trkpt lat="43.17665761741486" lon="18.880710862038214"><ele>1231.0</ele><time>2026-05-03T12:02:17Z</time></trkpt><trkpt lat="43.17668887848011" lon="18.880530355357703"><ele>1231.0</ele><time>2026-05-03T12:02:18Z</time></trkpt><trkpt lat="43.17673634778407" lon="18.880346299365886"><ele>1231.0</ele><time>2026-05-03T12:02:19Z</time></trkpt><trkpt lat="43.176771647308" lon="18.88013922112074"><ele>1231.0</ele><time>2026-05-03T12:02:20Z</time></trkpt><trkpt lat="43.17681867952234" lon="18.879905198206448"><ele>1235.6666666666665</ele><time>2026-05-03T12:02:21Z</time></trkpt><trkpt lat="43.176874404119765" lon="18.879646099078276"><ele>1240.3333333333333</ele><time>2026-05-03T12:02:22Z</time></trkpt><trkpt lat="43.17691857122787" lon="18.87936566645134"><ele>1245.0</ele><time>2026-05-03T12:02:23Z</time></trkpt><trkpt lat="43.176975008476276" lon="18.87909831784597"><ele>1250.3333333333333</ele><time>2026-05-03T12:02:24Z</time></trkpt><trkpt lat="43.177004977646256" lon="18.878854793131122"><ele>1255.6666666666665</ele><time>2026-05-03T12:02:25Z</time></trkpt><trkpt lat="43.177014188675656" lon="18.878597608197577"><ele>1261.0</ele><time>2026-05-03T12:02:26Z</time></trkpt><trkpt lat="43.17702977844431" lon="18.87830609240898"><ele>1268.0</ele><time>2026-05-03T12:02:27Z</time></trkpt><trkpt lat="43.17705042335656" lon="18.87798759614078"><ele>1275.0</ele><time>2026-05-03T12:02:28Z</time></trkpt><trkpt lat="43.17707194328012" lon="18.877682067271202"><ele>1277.0</ele><time>2026-05-03T12:02:29Z</time></trkpt><trkpt lat="43.177074245233676" lon="18.87742498465567"><ele>1279.0</ele><time>2026-05-03T12:02:30Z</time></trkpt><trkpt lat="43.1770758987702" lon="18.877188317449097"><ele>1281.0</ele><time>2026-05-03T12:02:31Z</time></trkpt><trkpt lat="43.17706563628359" lon="18.87699075295115"><ele>1281.0</ele><time>2026-05-03T12:02:32Z</time></trkpt><trkpt lat="43.177051967571586" lon="18.87679299823791"><ele>1281.0</ele><time>2026-05-03T12:02:33Z</time></trkpt><trkpt lat="43.17702442951025" lon="18.87658765292121"><ele>1281.0</ele><time>2026-05-03T12:02:34Z</time></trkpt><trkpt lat="43.17697744854335" lon="18.876395377679597"><ele>1281.0</ele><time>2026-05-03T12:02:35Z</time></trkpt><trkpt lat="43.1769144063093" lon="18.87622271953173"><ele>1281.0</ele><time>2026-05-03T12:02:36Z</time></trkpt><trkpt lat="43.176868737232574" lon="18.876031892922345"><ele>1281.0</ele><time>2026-05-03T12:02:37Z</time></trkpt><trkpt lat="43.17682446528284" lon="18.875851232443498"><ele>1281.0</ele><time>2026-05-03T12:02:38Z</time></trkpt><trkpt lat="43.17679851270293" lon="18.875692188731833"><ele>1281.0</ele><time>2026-05-03T12:02:39Z</time></trkpt><trkpt lat="43.17677992969091" lon="18.875573202842403"><ele>1278.6</ele><time>2026-05-03T12:02:40Z</time></trkpt><trkpt lat="43.176755173879194" lon="18.875460181597703"><ele>1276.1999999999998</ele><time>2026-05-03T12:02:42Z</time></trkpt><trkpt lat="43.17668866076705" lon="18.875464541357786"><ele>1273.8000000000002</ele><time>2026-05-03T12:02:43Z</time></trkpt><trkpt lat="43.17660300919991" lon="18.875598295204377"><ele>1271.4</ele><time>2026-05-03T12:02:45Z</time></trkpt><trkpt lat="43.176581527442266" lon="18.875721763723384"><ele>1269.0</ele><time>2026-05-03T12:02:46Z</time></trkpt><trkpt lat="43.176628513639564" lon="18.875876839816407"><ele>1272.0</ele><time>2026-05-03T12:02:47Z</time></trkpt><trkpt lat="43.17668414699763" lon="18.876030569829297"><ele>1275.0</ele><time>2026-05-03T12:02:48Z</time></trkpt><trkpt lat="43.17670599665835" lon="18.87620543440926"><ele>1278.0</ele><time>2026-05-03T12:02:49Z</time></trkpt><trkpt lat="43.17670175421103" lon="18.87639038064682"><ele>1281.0</ele><time>2026-05-03T12:02:50Z</time></trkpt><trkpt lat="43.176703854737596" lon="18.876600138373504"><ele>1281.0</ele><time>2026-05-03T12:02:51Z</time></trkpt><trkpt lat="43.17669357027544" lon="18.876781285141107"><ele>1281.0</ele><time>2026-05-03T12:02:52Z</time></trkpt><trkpt lat="43.176692458435824" lon="18.876943763954422"><ele>1281.0</ele><time>2026-05-03T12:02:53Z</time></trkpt><trkpt lat="43.17668881079285" lon="18.877115467689638"><ele>1281.0</ele><time>2026-05-03T12:02:54Z</time></trkpt><trkpt lat="43.17667928130504" lon="18.877290800898653"><ele>1281.0</ele><time>2026-05-03T12:02:55Z</time></trkpt><trkpt lat="43.17666159963497" lon="18.877467962823903"><ele>1281.0</ele><time>2026-05-03T12:02:56Z</time></trkpt><trkpt lat="43.176638935910034" lon="18.877636622780727"><ele>1281.0</ele><time>2026-05-03T12:02:57Z</time></trkpt><trkpt lat="43.17661172160801" lon="18.877817048428298"><ele>1281.0</ele><time>2026-05-03T12:02:58Z</time></trkpt><trkpt lat="43.1765776228389" lon="18.877994725396338"><ele>1279.5</ele><time>2026-05-03T12:02:59Z</time></trkpt><trkpt lat="43.176539866221916" lon="18.87816955849335"><ele>1278.0</ele><time>2026-05-03T12:03:00Z</time></trkpt><trkpt lat="43.17649321403298" lon="18.87834511185556"><ele>1276.5</ele><time>2026-05-03T12:03:01Z</time></trkpt><trkpt lat="43.17643958563785" lon="18.878509614058167"><ele>1275.0</ele><time>2026-05-03T12:03:02Z</time></trkpt><trkpt lat="43.17637453048329" lon="18.87867426420039"><ele>1279.75</ele><time>2026-05-03T12:03:03Z</time></trkpt><trkpt lat="43.176275139518204" lon="18.878799091982234"><ele>1284.5</ele><time>2026-05-03T12:03:04Z</time></trkpt><trkpt lat="43.1761857668451" lon="18.878957773854047"><ele>1289.25</ele><time>2026-05-03T12:03:05Z</time></trkpt><trkpt lat="43.17606387551565" lon="18.879111116966712"><ele>1294.0</ele><time>2026-05-03T12:03:06Z</time></trkpt><trkpt lat="43.17594859758445" lon="18.879265840017815"><ele>1295.3333333333333</ele><time>2026-05-03T12:03:07Z</time></trkpt><trkpt lat="43.175848793554835" lon="18.879431354283515"><ele>1296.6666666666667</ele><time>2026-05-03T12:03:08Z</time></trkpt><trkpt lat="43.17575088612851" lon="18.87958753825721"><ele>1298.0</ele><time>2026-05-03T12:03:09Z</time></trkpt><trkpt lat="43.175614101402076" lon="18.879702304612987"><ele>1298.0</ele><time>2026-05-03T12:03:10Z</time></trkpt><trkpt lat="43.175494863389076" lon="18.879834521217038"><ele>1298.0</ele><time>2026-05-03T12:03:11Z</time></trkpt><trkpt lat="43.175357345508836" lon="18.879929880900143"><ele>1298.0</ele><time>2026-05-03T12:03:12Z</time></trkpt><trkpt lat="43.175221747128866" lon="18.88001232641046"><ele>1298.0</ele><time>2026-05-03T12:03:13Z</time></trkpt><trkpt lat="43.175096918162915" lon="18.880093090818477"><ele>1298.0</ele><time>2026-05-03T12:03:14Z</time></trkpt><trkpt lat="43.17497439379933" lon="18.880197840673354"><ele>1298.0</ele><time>2026-05-03T12:03:15Z</time></trkpt><trkpt lat="43.174866094749945" lon="18.880322777564245"><ele>1298.0</ele><time>2026-05-03T12:03:16Z</time></trkpt><trkpt lat="43.17478011519269" lon="18.880444379551623"><ele>1300.75</ele><time>2026-05-03T12:03:17Z</time></trkpt><trkpt lat="43.174726938599726" lon="18.880591404780734"><ele>1303.5</ele><time>2026-05-03T12:03:18Z</time></trkpt><trkpt lat="43.174712573551886" lon="18.88076873944437"><ele>1306.25</ele><time>2026-05-03T12:03:19Z</time></trkpt><trkpt lat="43.17470123377845" lon="18.88092535211778"><ele>1309.0</ele><time>2026-05-03T12:03:20Z</time></trkpt><trkpt lat="43.17466479947533" lon="18.881076082534452"><ele>1309.0</ele><time>2026-05-03T12:03:21Z</time></trkpt><trkpt lat="43.17459891133305" lon="18.88120665726147"><ele>1309.0</ele><time>2026-05-03T12:03:22Z</time></trkpt><trkpt lat="43.17453079357975" lon="18.88131220736192"><ele>1309.0</ele><time>2026-05-03T12:03:23Z</time></trkpt><trkpt lat="43.174473515435174" lon="18.88141461833107"><ele>1309.0</ele><time>2026-05-03T12:03:24Z</time></trkpt><trkpt lat="43.17441644437081" lon="18.881523571020715"><ele>1309.0</ele><time>2026-05-03T12:03:25Z</time></trkpt><trkpt lat="43.17435775214824" lon="18.88166221805051"><ele>1307.75</ele><time>2026-05-03T12:03:26Z</time></trkpt><trkpt lat="43.17430284958227" lon="18.881823659200837"><ele>1306.5</ele><time>2026-05-03T12:03:27Z</time></trkpt><trkpt lat="43.17423655463449" lon="18.88200209629278"><ele>1305.25</ele><time>2026-05-03T12:03:28Z</time></trkpt><trkpt lat="43.174194801155444" lon="18.882216256401758"><ele>1304.0</ele><time>2026-05-03T12:03:29Z</time></trkpt><trkpt lat="43.17413293011682" lon="18.88242563309541"><ele>1301.3333333333335</ele><time>2026-05-03T12:03:30Z</time></trkpt><trkpt lat="43.17409520791764" lon="18.8826587426521"><ele>1298.6666666666667</ele><time>2026-05-03T12:03:31Z</time></trkpt><trkpt lat="43.17402645446217" lon="18.88287572806011"><ele>1296.0</ele><time>2026-05-03T12:03:32Z</time></trkpt><trkpt lat="43.173974784882915" lon="18.88306912955254"><ele>1298.25</ele><time>2026-05-03T12:03:33Z</time></trkpt><trkpt lat="43.17391506403109" lon="18.883225732842376"><ele>1300.5</ele><time>2026-05-03T12:03:34Z</time></trkpt><trkpt lat="43.173829349713124" lon="18.883341690782963"><ele>1302.75</ele><time>2026-05-03T12:03:35Z</time></trkpt><trkpt lat="43.17371860845546" lon="18.883465449456455"><ele>1305.0</ele><time>2026-05-03T12:03:36Z</time></trkpt><trkpt lat="43.173608426999245" lon="18.883591240428775"><ele>1305.0</ele><time>2026-05-03T12:03:37Z</time></trkpt><trkpt lat="43.17350435698804" lon="18.883726882714814"><ele>1305.0</ele><time>2026-05-03T12:03:38Z</time></trkpt><trkpt lat="43.173396825269236" lon="18.8838428037826"><ele>1305.0</ele><time>2026-05-03T12:03:39Z</time></trkpt><trkpt lat="43.17329283528415" lon="18.883947764848944"><ele>1305.0</ele><time>2026-05-03T12:03:40Z</time></trkpt><trkpt lat="43.17317872128131" lon="18.88397535953998"><ele>1307.6</ele><time>2026-05-03T12:03:41Z</time></trkpt><trkpt lat="43.173063849658284" lon="18.883989354231414"><ele>1310.2</ele><time>2026-05-03T12:03:42Z</time></trkpt><trkpt lat="43.17297259950738" lon="18.884020326589866"><ele>1312.8000000000002</ele><time>2026-05-03T12:03:43Z</time></trkpt><trkpt lat="43.1729124776799" lon="18.884066666711057"><ele>1315.4</ele><time>2026-05-03T12:03:44Z</time></trkpt><trkpt lat="43.1728935145913" lon="18.884164441217063"><ele>1318.0</ele><time>2026-05-03T12:03:45Z</time></trkpt><trkpt lat="43.172890928859836" lon="18.88430562180608"><ele>1318.0</ele><time>2026-05-03T12:03:46Z</time></trkpt><trkpt lat="43.17286130143291" lon="18.884472478719314"><ele>1318.0</ele><time>2026-05-03T12:03:47Z</time></trkpt><trkpt lat="43.17283932910138" lon="18.88463286541419"><ele>1318.0</ele><time>2026-05-03T12:03:48Z</time></trkpt><trkpt lat="43.17278737907787" lon="18.884763030500814"><ele>1318.0</ele><time>2026-05-03T12:03:49Z</time></trkpt><trkpt lat="43.172737632967944" lon="18.88488769838423"><ele>1318.0</ele><time>2026-05-03T12:03:50Z</time></trkpt><trkpt lat="43.172684561372904" lon="18.885012550385216"><ele>1318.0</ele><time>2026-05-03T12:03:51Z</time></trkpt><trkpt lat="43.17261948380192" lon="18.885139035973083"><ele>1318.0</ele><time>2026-05-03T12:03:52Z</time></trkpt><trkpt lat="43.17254640819518" lon="18.885248780814127"><ele>1318.0</ele><time>2026-05-03T12:03:53Z</time></trkpt><trkpt lat="43.17246170869883" lon="18.88533067475123"><ele>1318.0</ele><time>2026-05-03T12:03:54Z</time></trkpt><trkpt lat="43.17236473199114" lon="18.885382384852548"><ele>1320.5</ele><time>2026-05-03T12:03:55Z</time></trkpt><trkpt lat="43.17225080520385" lon="18.885369301576713"><ele>1323.0</ele><time>2026-05-03T12:03:56Z</time></trkpt><trkpt lat="43.17214670079077" lon="18.885421453593928"><ele>1325.5</ele><time>2026-05-03T12:03:57Z</time></trkpt><trkpt lat="43.172046273947366" lon="18.88549740076448"><ele>1328.0</ele><time>2026-05-03T12:03:58Z</time></trkpt><trkpt lat="43.17194840258243" lon="18.88562031100383"><ele>1328.0</ele><time>2026-05-03T12:03:59Z</time></trkpt><trkpt lat="43.17185334577449" lon="18.88575990028197"><ele>1328.0</ele><time>2026-05-03T12:04:00Z</time></trkpt><trkpt lat="43.17177203260799" lon="18.885902374736"><ele>1328.0</ele><time>2026-05-03T12:04:01Z</time></trkpt><trkpt lat="43.17170177820926" lon="18.886038191538965"><ele>1328.0</ele><time>2026-05-03T12:04:02Z</time></trkpt><trkpt lat="43.17164475501239" lon="18.886173958974663"><ele>1326.2</ele><time>2026-05-03T12:04:03Z</time></trkpt><trkpt lat="43.17158766865771" lon="18.88630365591017"><ele>1324.4</ele><time>2026-05-03T12:04:04Z</time></trkpt><trkpt lat="43.17152948947467" lon="18.88641986952891"><ele>1322.6000000000001</ele><time>2026-05-03T12:04:05Z</time></trkpt><trkpt lat="43.171546573708525" lon="18.88658399418225"><ele>1320.8000000000002</ele><time>2026-05-03T12:04:06Z</time></trkpt><trkpt lat="43.171543216969575" lon="18.886712576068295"><ele>1319.0</ele><time>2026-05-03T12:04:07Z</time></trkpt><trkpt lat="43.171528567452356" lon="18.88681455589521"><ele>1319.8000000000002</ele><time>2026-05-03T12:04:08Z</time></trkpt><trkpt lat="43.17151469087771" lon="18.88692405353302"><ele>1320.6000000000001</ele><time>2026-05-03T12:04:09Z</time></trkpt><trkpt lat="43.17142790686739" lon="18.88698357413166"><ele>1321.4</ele><time>2026-05-03T12:04:10Z</time></trkpt><trkpt lat="43.171336558478046" lon="18.887045142047807"><ele>1322.2</ele><time>2026-05-03T12:04:11Z</time></trkpt><trkpt lat="43.171228142049834" lon="18.887111697557614"><ele>1323.0</ele><time>2026-05-03T12:04:12Z</time></trkpt><trkpt lat="43.171113318584" lon="18.88719084932101"><ele>1323.0</ele><time>2026-05-03T12:04:13Z</time></trkpt><trkpt lat="43.17098345219693" lon="18.887241842961622"><ele>1323.0</ele><time>2026-05-03T12:04:14Z</time></trkpt><trkpt lat="43.1708634180839" lon="18.887269000403993"><ele>1323.0</ele><time>2026-05-03T12:04:15Z</time></trkpt><trkpt lat="43.170756546632504" lon="18.887297804908737"><ele>1323.0</ele><time>2026-05-03T12:04:16Z</time></trkpt><trkpt lat="43.17066267411233" lon="18.887368112431695"><ele>1323.8000000000002</ele><time>2026-05-03T12:04:17Z</time></trkpt><trkpt lat="43.170580899866465" lon="18.88747176679025"><ele>1324.6</ele><time>2026-05-03T12:04:18Z</time></trkpt><trkpt lat="43.17055347182746" lon="18.88765598475176"><ele>1325.4</ele><time>2026-05-03T12:04:19Z</time></trkpt><trkpt lat="43.170491750161496" lon="18.887769200575036"><ele>1326.1999999999998</ele><time>2026-05-03T12:04:20Z</time></trkpt><trkpt lat="43.170441540554314" lon="18.887868968641158"><ele>1327.0</ele><time>2026-05-03T12:04:21Z</time></trkpt><trkpt lat="43.17037448333227" lon="18.887928215659542"><ele>1327.0</ele><time>2026-05-03T12:04:22Z</time></trkpt><trkpt lat="43.17029025100618" lon="18.887975135619115"><ele>1327.0</ele><time>2026-05-03T12:04:23Z</time></trkpt><trkpt lat="43.17020014950328" lon="18.88804585897125"><ele>1327.0</ele><time>2026-05-03T12:04:24Z</time></trkpt><trkpt lat="43.17010231626992" lon="18.8880945599964"><ele>1327.0</ele><time>2026-05-03T12:04:25Z</time></trkpt><trkpt lat="43.17000840032056" lon="18.88817538563572"><ele>1327.0</ele><time>2026-05-03T12:04:26Z</time></trkpt><trkpt lat="43.169919992604946" lon="18.888273633231037"><ele>1329.3999999999999</ele><time>2026-05-03T12:04:27Z</time></trkpt><trkpt lat="43.16984416166067" lon="18.888370283660016"><ele>1331.8</ele><time>2026-05-03T12:04:28Z</time></trkpt><trkpt lat="43.169766649258555" lon="18.888468309463274"><ele>1334.2</ele><time>2026-05-03T12:04:29Z</time></trkpt><trkpt lat="43.16968815060155" lon="18.888561486112867"><ele>1336.6</ele><time>2026-05-03T12:04:30Z</time></trkpt><trkpt lat="43.16964764963783" lon="18.888706510412316"><ele>1339.0</ele><time>2026-05-03T12:04:31Z</time></trkpt><trkpt lat="43.16960401973861" lon="18.88883889363013"><ele>1339.0</ele><time>2026-05-03T12:04:32Z</time></trkpt><trkpt lat="43.169543708915434" lon="18.88894223619104"><ele>1339.0</ele><time>2026-05-03T12:04:33Z</time></trkpt><trkpt lat="43.16947677843029" lon="18.88902393414646"><ele>1339.0</ele><time>2026-05-03T12:04:34Z</time></trkpt><trkpt lat="43.169383497250195" lon="18.889095927546837"><ele>1339.0</ele><time>2026-05-03T12:04:35Z</time></trkpt><trkpt lat="43.16928726103733" lon="18.889187075716222"><ele>1339.0</ele><time>2026-05-03T12:04:36Z</time></trkpt><trkpt lat="43.1691898011942" lon="18.889273784091092"><ele>1338.0</ele><time>2026-05-03T12:04:37Z</time></trkpt><trkpt lat="43.16908975538614" lon="18.889382477329907"><ele>1337.0</ele><time>2026-05-03T12:04:38Z</time></trkpt><trkpt lat="43.16898477804422" lon="18.889501139348265"><ele>1336.0</ele><time>2026-05-03T12:04:39Z</time></trkpt><trkpt lat="43.16887553288865" lon="18.88960794447089"><ele>1335.0</ele><time>2026-05-03T12:04:40Z</time></trkpt><trkpt lat="43.16875905242799" lon="18.889700621343234"><ele>1338.0</ele><time>2026-05-03T12:04:41Z</time></trkpt><trkpt lat="43.168649235406704" lon="18.88978639496356"><ele>1341.0</ele><time>2026-05-03T12:04:42Z</time></trkpt><trkpt lat="43.16854113921319" lon="18.889883126808975"><ele>1344.0</ele><time>2026-05-03T12:04:43Z</time></trkpt><trkpt lat="43.16844595638435" lon="18.889995445168196"><ele>1347.0</ele><time>2026-05-03T12:04:44Z</time></trkpt><trkpt lat="43.16837210675325" lon="18.89012262928544"><ele>1347.25</ele><time>2026-05-03T12:04:45Z</time></trkpt><trkpt lat="43.16830649301602" lon="18.89025329270321"><ele>1347.5</ele><time>2026-05-03T12:04:46Z</time></trkpt><trkpt lat="43.16824571899927" lon="18.890389623520374"><ele>1347.75</ele><time>2026-05-03T12:04:47Z</time></trkpt><trkpt lat="43.168194747455864" lon="18.89052898383952"><ele>1348.0</ele><time>2026-05-03T12:04:48Z</time></trkpt><trkpt lat="43.16815160647887" lon="18.890676820954543"><ele>1348.4</ele><time>2026-05-03T12:04:49Z</time></trkpt><trkpt lat="43.168117122297915" lon="18.89081966782397"><ele>1348.8000000000002</ele><time>2026-05-03T12:04:50Z</time></trkpt><trkpt lat="43.1680925019492" lon="18.89096705759978"><ele>1349.2</ele><time>2026-05-03T12:04:51Z</time></trkpt><trkpt lat="43.16808541525107" lon="18.891107851858436"><ele>1349.6</ele><time>2026-05-03T12:04:52Z</time></trkpt><trkpt lat="43.168089924885166" lon="18.891264080032517"><ele>1350.0</ele><time>2026-05-03T12:04:53Z</time></trkpt><trkpt lat="43.16811237827112" lon="18.891427211905377"><ele>1350.0</ele><time>2026-05-03T12:04:54Z</time></trkpt><trkpt lat="43.168117969950956" lon="18.891602820739937"><ele>1350.0</ele><time>2026-05-03T12:04:55Z</time></trkpt><trkpt lat="43.168126414915946" lon="18.891768934327597"><ele>1350.0</ele><time>2026-05-03T12:04:56Z</time></trkpt><trkpt lat="43.168106809098994" lon="18.8919223115427"><ele>1350.0</ele><time>2026-05-03T12:04:57Z</time></trkpt><trkpt lat="43.16808168565876" lon="18.892088613596734"><ele>1353.0</ele><time>2026-05-03T12:04:58Z</time></trkpt><trkpt lat="43.16807580516629" lon="18.892252262261916"><ele>1356.0</ele><time>2026-05-03T12:04:59Z</time></trkpt><trkpt lat="43.16807963141687" lon="18.89242517292891"><ele>1359.0</ele><time>2026-05-03T12:05:00Z</time></trkpt><trkpt lat="43.16809818722033" lon="18.892610161673904"><ele>1362.0</ele><time>2026-05-03T12:05:01Z</time></trkpt><trkpt lat="43.168122008381246" lon="18.892786827530855"><ele>1364.0</ele><time>2026-05-03T12:05:02Z</time></trkpt><trkpt lat="43.168147363614985" lon="18.892949521109916"><ele>1366.0</ele><time>2026-05-03T12:05:03Z</time></trkpt><trkpt lat="43.1681942620208" lon="18.893099170109814"><ele>1368.0</ele><time>2026-05-03T12:05:04Z</time></trkpt><trkpt lat="43.16826478802389" lon="18.89322339182723"><ele>1370.0</ele><time>2026-05-03T12:05:05Z</time></trkpt><trkpt lat="43.16834773844966" lon="18.893298109072425"><ele>1370.6</ele><time>2026-05-03T12:05:06Z</time></trkpt><trkpt lat="43.16844703492066" lon="18.89333988356359"><ele>1371.2</ele><time>2026-05-03T12:05:07Z</time></trkpt><trkpt lat="43.16855465178977" lon="18.893359896952294"><ele>1371.8000000000002</ele><time>2026-05-03T12:05:08Z</time></trkpt><trkpt lat="43.1686468809268" lon="18.893424076303724"><ele>1372.4</ele><time>2026-05-03T12:05:09Z</time></trkpt><trkpt lat="43.16870885679695" lon="18.89354774756235"><ele>1373.0</ele><time>2026-05-03T12:05:10Z</time></trkpt><trkpt lat="43.1687551013391" lon="18.893694015043135"><ele>1374.0</ele><time>2026-05-03T12:05:11Z</time></trkpt><trkpt lat="43.168774816802994" lon="18.89384459736461"><ele>1375.0</ele><time>2026-05-03T12:05:12Z</time></trkpt><trkpt lat="43.168769687988735" lon="18.893992124706642"><ele>1376.0</ele><time>2026-05-03T12:05:13Z</time></trkpt><trkpt lat="43.1687115985752" lon="18.894119098539733"><ele>1377.0</ele><time>2026-05-03T12:05:14Z</time></trkpt><trkpt lat="43.16866079590535" lon="18.89422256296235"><ele>1378.0</ele><time>2026-05-03T12:05:15Z</time></trkpt><trkpt lat="43.16860105172837" lon="18.894307740529698"><ele>1378.0</ele><time>2026-05-03T12:05:16Z</time></trkpt><trkpt lat="43.1685080547307" lon="18.89437919764566"><ele>1378.0</ele><time>2026-05-03T12:05:17Z</time></trkpt><trkpt lat="43.16841488028646" lon="18.894471884951795"><ele>1378.0</ele><time>2026-05-03T12:05:18Z</time></trkpt><trkpt lat="43.16833759770155" lon="18.89462174729465"><ele>1378.0</ele><time>2026-05-03T12:05:19Z</time></trkpt><trkpt lat="43.168275187750474" lon="18.89479052935973"><ele>1378.0</ele><time>2026-05-03T12:05:20Z</time></trkpt><trkpt lat="43.1682215940939" lon="18.894963299386262"><ele>1378.0</ele><time>2026-05-03T12:05:21Z</time></trkpt><trkpt lat="43.168175286652094" lon="18.89512141891299"><ele>1378.0</ele><time>2026-05-03T12:05:22Z</time></trkpt><trkpt lat="43.16812425297814" lon="18.895261421632334"><ele>1378.0</ele><time>2026-05-03T12:05:23Z</time></trkpt><trkpt lat="43.16805490761957" lon="18.895389100602"><ele>1379.25</ele><time>2026-05-03T12:05:24Z</time></trkpt><trkpt lat="43.16797343978912" lon="18.895500172885725"><ele>1380.5</ele><time>2026-05-03T12:05:25Z</time></trkpt><trkpt lat="43.16788379621398" lon="18.895602629449648"><ele>1381.75</ele><time>2026-05-03T12:05:26Z</time></trkpt><trkpt lat="43.16779080111437" lon="18.895699771318977"><ele>1383.0</ele><time>2026-05-03T12:05:27Z</time></trkpt><trkpt lat="43.16769502299623" lon="18.895792611639042"><ele>1383.0</ele><time>2026-05-03T12:05:28Z</time></trkpt><trkpt lat="43.16758678680169" lon="18.895851939787374"><ele>1383.0</ele><time>2026-05-03T12:05:29Z</time></trkpt><trkpt lat="43.16749824308308" lon="18.89594668717166"><ele>1383.0</ele><time>2026-05-03T12:05:30Z</time></trkpt><trkpt lat="43.167398821847826" lon="18.896034645861395"><ele>1383.0</ele><time>2026-05-03T12:05:31Z</time></trkpt><trkpt lat="43.16731219642743" lon="18.89614296823155"><ele>1383.75</ele><time>2026-05-03T12:05:32Z</time></trkpt><trkpt lat="43.16723622459244" lon="18.89627045878946"><ele>1384.5</ele><time>2026-05-03T12:05:33Z</time></trkpt><trkpt lat="43.16715594974059" lon="18.89638983142111"><ele>1385.25</ele><time>2026-05-03T12:05:34Z</time></trkpt><trkpt lat="43.1670566861785" lon="18.8964881086188"><ele>1386.0</ele><time>2026-05-03T12:05:35Z</time></trkpt><trkpt lat="43.166938928201596" lon="18.896524346089947"><ele>1386.0</ele><time>2026-05-03T12:05:36Z</time></trkpt><trkpt lat="43.16683847169483" lon="18.896577435223012"><ele>1386.0</ele><time>2026-05-03T12:05:37Z</time></trkpt><trkpt lat="43.166747763477424" lon="18.89665588459122"><ele>1386.0</ele><time>2026-05-03T12:05:38Z</time></trkpt><trkpt lat="43.166645201141975" lon="18.896735991347782"><ele>1386.0</ele><time>2026-05-03T12:05:39Z</time></trkpt><trkpt lat="43.166538911143384" lon="18.896827106014793"><ele>1384.5</ele><time>2026-05-03T12:05:40Z</time></trkpt><trkpt lat="43.16641642187283" lon="18.896912777240033"><ele>1383.0</ele><time>2026-05-03T12:05:41Z</time></trkpt><trkpt lat="43.16630458075605" lon="18.89702690470828"><ele>1381.5</ele><time>2026-05-03T12:05:42Z</time></trkpt><trkpt lat="43.166199998868315" lon="18.897156096403354"><ele>1380.0</ele><time>2026-05-03T12:05:43Z</time></trkpt><trkpt lat="43.16607920357345" lon="18.897248421418848"><ele>1380.0</ele><time>2026-05-03T12:05:44Z</time></trkpt><trkpt lat="43.165962047670085" lon="18.89733918099845"><ele>1380.0</ele><time>2026-05-03T12:05:45Z</time></trkpt><trkpt lat="43.16585000382107" lon="18.8974222949794"><ele>1380.0</ele><time>2026-05-03T12:05:46Z</time></trkpt><trkpt lat="43.1657494639325" lon="18.897500055159757"><ele>1380.0</ele><time>2026-05-03T12:05:47Z</time></trkpt><trkpt lat="43.16565631790081" lon="18.897572027045527"><ele>1379.4</ele><time>2026-05-03T12:05:48Z</time></trkpt><trkpt lat="43.16556564717974" lon="18.89763401868107"><ele>1378.8</ele><time>2026-05-03T12:05:49Z</time></trkpt><trkpt lat="43.16547336843119" lon="18.89769148160667"><ele>1378.1999999999998</ele><time>2026-05-03T12:05:50Z</time></trkpt><trkpt lat="43.16538400239256" lon="18.8977575052386"><ele>1377.6</ele><time>2026-05-03T12:05:51Z</time></trkpt><trkpt lat="43.16528581032185" lon="18.89782632312586"><ele>1377.0</ele><time>2026-05-03T12:05:52Z</time></trkpt><trkpt lat="43.16520530995077" lon="18.897928156348634"><ele>1377.0</ele><time>2026-05-03T12:05:53Z</time></trkpt><trkpt lat="43.16515609229121" lon="18.898052667801146"><ele>1377.0</ele><time>2026-05-03T12:05:54Z</time></trkpt><trkpt lat="43.165090601273945" lon="18.89813464240053"><ele>1377.0</ele><time>2026-05-03T12:05:55Z</time></trkpt><trkpt lat="43.1650578173606" lon="18.89824215733866"><ele>1377.0</ele><time>2026-05-03T12:05:56Z</time></trkpt><trkpt lat="43.165002849915595" lon="18.898343331667387"><ele>1377.0</ele><time>2026-05-03T12:05:57Z</time></trkpt><trkpt lat="43.16495182756317" lon="18.898451052582228"><ele>1377.1999999999998</ele><time>2026-05-03T12:05:58Z</time></trkpt><trkpt lat="43.164902031306156" lon="18.898569985721124"><ele>1377.4</ele><time>2026-05-03T12:05:59Z</time></trkpt><trkpt lat="43.16484685668666" lon="18.89869393467406"><ele>1377.6</ele><time>2026-05-03T12:06:00Z</time></trkpt><trkpt lat="43.164777093126524" lon="18.898801371843295"><ele>1377.8000000000002</ele><time>2026-05-03T12:06:01Z</time></trkpt><trkpt lat="43.16472263002106" lon="18.898919719171584"><ele>1378.0</ele><time>2026-05-03T12:06:02Z</time></trkpt><trkpt lat="43.16466644071291" lon="18.899038397654515"><ele>1377.2</ele><time>2026-05-03T12:06:03Z</time></trkpt><trkpt lat="43.16461015526296" lon="18.899157111240882"><ele>1376.4</ele><time>2026-05-03T12:06:04Z</time></trkpt><trkpt lat="43.1645654625414" lon="18.89929045150178"><ele>1375.6000000000001</ele><time>2026-05-03T12:06:05Z</time></trkpt><trkpt lat="43.16450132557067" lon="18.8994169853908"><ele>1374.8000000000002</ele><time>2026-05-03T12:06:06Z</time></trkpt><trkpt lat="43.16443477882434" lon="18.899552197401036"><ele>1374.0</ele><time>2026-05-03T12:06:07Z</time></trkpt><trkpt lat="43.16436943949834" lon="18.89968736028278"><ele>1374.0</ele><time>2026-05-03T12:06:08Z</time></trkpt><trkpt lat="43.16430228685083" lon="18.899820280629797"><ele>1374.0</ele><time>2026-05-03T12:06:09Z</time></trkpt><trkpt lat="43.164237240414494" lon="18.89994085562283"><ele>1374.0</ele><time>2026-05-03T12:06:10Z</time></trkpt><trkpt lat="43.16417396045413" lon="18.90005351302021"><ele>1374.0</ele><time>2026-05-03T12:06:11Z</time></trkpt><trkpt lat="43.16410603888189" lon="18.900171661452575"><ele>1374.0</ele><time>2026-05-03T12:06:12Z</time></trkpt><trkpt lat="43.16403534845022" lon="18.900275029886533"><ele>1374.0</ele><time>2026-05-03T12:06:13Z</time></trkpt><trkpt lat="43.16394151189363" lon="18.900333483769035"><ele>1374.0</ele><time>2026-05-03T12:06:14Z</time></trkpt><trkpt lat="43.16384083263233" lon="18.900392036568938"><ele>1374.0</ele><time>2026-05-03T12:06:15Z</time></trkpt><trkpt lat="43.16375147286428" lon="18.900491044110485"><ele>1374.0</ele><time>2026-05-03T12:06:16Z</time></trkpt><trkpt lat="43.16366901942169" lon="18.900612427447964"><ele>1374.0</ele><time>2026-05-03T12:06:17Z</time></trkpt><trkpt lat="43.163597372150676" lon="18.900751402206144"><ele>1374.0</ele><time>2026-05-03T12:06:18Z</time></trkpt><trkpt lat="43.16353613936395" lon="18.900900806360816"><ele>1374.0</ele><time>2026-05-03T12:06:19Z</time></trkpt><trkpt lat="43.163480468057735" lon="18.90104015206361"><ele>1374.0</ele><time>2026-05-03T12:06:20Z</time></trkpt><trkpt lat="43.163426946085515" lon="18.901172926850453"><ele>1374.0</ele><time>2026-05-03T12:06:21Z</time></trkpt><trkpt lat="43.16336006550977" lon="18.901273259861615"><ele>1373.8000000000002</ele><time>2026-05-03T12:06:22Z</time></trkpt><trkpt lat="43.16329585755294" lon="18.901367633683247"><ele>1373.6000000000001</ele><time>2026-05-03T12:06:23Z</time></trkpt><trkpt lat="43.16323587764662" lon="18.901483924047216"><ele>1373.4</ele><time>2026-05-03T12:06:24Z</time></trkpt><trkpt lat="43.16314747041183" lon="18.901558350820785"><ele>1373.2</ele><time>2026-05-03T12:06:25Z</time></trkpt><trkpt lat="43.16305581221211" lon="18.901643051050726"><ele>1373.0</ele><time>2026-05-03T12:06:26Z</time></trkpt><trkpt lat="43.1629528909849" lon="18.901700380690166"><ele>1373.6000000000001</ele><time>2026-05-03T12:06:27Z</time></trkpt><trkpt lat="43.1628534995314" lon="18.9017710502729"><ele>1374.2</ele><time>2026-05-03T12:06:28Z</time></trkpt><trkpt lat="43.16274609430344" lon="18.901817376074305"><ele>1374.8</ele><time>2026-05-03T12:06:29Z</time></trkpt><trkpt lat="43.162646733670414" lon="18.901868233700398"><ele>1375.4</ele><time>2026-05-03T12:06:30Z</time></trkpt><trkpt lat="43.16256463079802" lon="18.901967306297138"><ele>1376.0</ele><time>2026-05-03T12:06:31Z</time></trkpt><trkpt lat="43.16250699941728" lon="18.90209607299723"><ele>1376.0</ele><time>2026-05-03T12:06:32Z</time></trkpt><trkpt lat="43.16248071138917" lon="18.902258635561836"><ele>1376.0</ele><time>2026-05-03T12:06:33Z</time></trkpt><trkpt lat="43.16244672397644" lon="18.902408063037253"><ele>1376.0</ele><time>2026-05-03T12:06:34Z</time></trkpt><trkpt lat="43.16249947561508" lon="18.90258341193928"><ele>1376.0</ele><time>2026-05-03T12:06:35Z</time></trkpt><trkpt lat="43.16251093977044" lon="18.90274911325157"><ele>1376.25</ele><time>2026-05-03T12:06:36Z</time></trkpt><trkpt lat="43.16251372431127" lon="18.902924952991043"><ele>1376.5</ele><time>2026-05-03T12:06:37Z</time></trkpt><trkpt lat="43.162489366136334" lon="18.903106136357806"><ele>1376.75</ele><time>2026-05-03T12:06:38Z</time></trkpt><trkpt lat="43.16245350588877" lon="18.90329259681698"><ele>1377.0</ele><time>2026-05-03T12:06:39Z</time></trkpt><trkpt lat="43.162414247875404" lon="18.903489843042607"><ele>1377.0</ele><time>2026-05-03T12:06:40Z</time></trkpt><trkpt lat="43.162368639535444" lon="18.903701590266426"><ele>1377.0</ele><time>2026-05-03T12:06:41Z</time></trkpt><trkpt lat="43.16232463499507" lon="18.903913270791"><ele>1377.0</ele><time>2026-05-03T12:06:42Z</time></trkpt><trkpt lat="43.16228661408965" lon="18.904127000738708"><ele>1377.25</ele><time>2026-05-03T12:06:43Z</time></trkpt><trkpt lat="43.1622280762114" lon="18.904312091657264"><ele>1377.5</ele><time>2026-05-03T12:06:44Z</time></trkpt><trkpt lat="43.16217715542391" lon="18.904498648163983"><ele>1377.75</ele><time>2026-05-03T12:06:45Z</time></trkpt><trkpt lat="43.16213126543661" lon="18.904693128442666"><ele>1378.0</ele><time>2026-05-03T12:06:46Z</time></trkpt><trkpt lat="43.1620828258819" lon="18.904881525764836"><ele>1378.0</ele><time>2026-05-03T12:06:47Z</time></trkpt><trkpt lat="43.16204596039193" lon="18.9050655337703"><ele>1378.0</ele><time>2026-05-03T12:06:48Z</time></trkpt><trkpt lat="43.16201961826371" lon="18.905249584425643"><ele>1378.0</ele><time>2026-05-03T12:06:49Z</time></trkpt><trkpt lat="43.16199854387332" lon="18.905434794574877"><ele>1378.0</ele><time>2026-05-03T12:06:50Z</time></trkpt><trkpt lat="43.161986097714134" lon="18.905619840948596"><ele>1378.0</ele><time>2026-05-03T12:06:51Z</time></trkpt><trkpt lat="43.16198114371658" lon="18.90580001595668"><ele>1378.0</ele><time>2026-05-03T12:06:52Z</time></trkpt><trkpt lat="43.16195864836885" lon="18.905963395782408"><ele>1378.0</ele><time>2026-05-03T12:06:53Z</time></trkpt><trkpt lat="43.1620021942807" lon="18.90613353706189"><ele>1378.0</ele><time>2026-05-03T12:06:54Z</time></trkpt><trkpt lat="43.16204632144373" lon="18.90630575596648"><ele>1378.0</ele><time>2026-05-03T12:06:55Z</time></trkpt><trkpt lat="43.162104715903574" lon="18.906482481041795"><ele>1378.0</ele><time>2026-05-03T12:06:56Z</time></trkpt><trkpt lat="43.16215902758011" lon="18.906663124607352"><ele>1378.0</ele><time>2026-05-03T12:06:57Z</time></trkpt><trkpt lat="43.162172743716006" lon="18.906874044682315"><ele>1378.0</ele><time>2026-05-03T12:06:58Z</time></trkpt><trkpt lat="43.16219220787531" lon="18.907075180746286"><ele>1378.0</ele><time>2026-05-03T12:06:59Z</time></trkpt><trkpt lat="43.162209409790854" lon="18.90726949370541"><ele>1378.0</ele><time>2026-05-03T12:07:00Z</time></trkpt><trkpt lat="43.162210243497015" lon="18.90746793559297"><ele>1378.0</ele><time>2026-05-03T12:07:01Z</time></trkpt><trkpt lat="43.162210511157014" lon="18.907645406129785"><ele>1378.0</ele><time>2026-05-03T12:07:02Z</time></trkpt><trkpt lat="43.16219878422274" lon="18.907815686262595"><ele>1378.6000000000001</ele><time>2026-05-03T12:07:03Z</time></trkpt><trkpt lat="43.16216873337253" lon="18.907961662802155"><ele>1379.2</ele><time>2026-05-03T12:07:04Z</time></trkpt><trkpt lat="43.162114565357655" lon="18.908086729031535"><ele>1379.8</ele><time>2026-05-03T12:07:05Z</time></trkpt><trkpt lat="43.162015085638174" lon="18.908159957751952"><ele>1380.4</ele><time>2026-05-03T12:07:06Z</time></trkpt><trkpt lat="43.16192611197045" lon="18.908261366914328"><ele>1381.0</ele><time>2026-05-03T12:07:07Z</time></trkpt><trkpt lat="43.161849545799065" lon="18.908371701330886"><ele>1381.0</ele><time>2026-05-03T12:07:08Z</time></trkpt><trkpt lat="43.16177239843199" lon="18.908463729304152"><ele>1381.0</ele><time>2026-05-03T12:07:09Z</time></trkpt><trkpt lat="43.161712242801435" lon="18.908568865164362"><ele>1381.0</ele><time>2026-05-03T12:07:10Z</time></trkpt><trkpt lat="43.1616778870426" lon="18.908699248746004"><ele>1381.0</ele><time>2026-05-03T12:07:11Z</time></trkpt><trkpt lat="43.16167353595029" lon="18.90884521793504"><ele>1381.0</ele><time>2026-05-03T12:07:12Z</time></trkpt><trkpt lat="43.16167686292604" lon="18.909004251517402"><ele>1381.0</ele><time>2026-05-03T12:07:13Z</time></trkpt><trkpt lat="43.161680231684095" lon="18.909165702715114"><ele>1381.0</ele><time>2026-05-03T12:07:14Z</time></trkpt><trkpt lat="43.16167908658011" lon="18.909336228091462"><ele>1381.0</ele><time>2026-05-03T12:07:15Z</time></trkpt><trkpt lat="43.16169317441231" lon="18.909483567693634"><ele>1381.0</ele><time>2026-05-03T12:07:16Z</time></trkpt><trkpt lat="43.161706949335" lon="18.909604326264624"><ele>1381.0</ele><time>2026-05-03T12:07:17Z</time></trkpt><trkpt lat="43.16171361854856" lon="18.90972792926947"><ele>1380.6</ele><time>2026-05-03T12:07:19Z</time></trkpt><trkpt lat="43.16163758464164" lon="18.90981747302354"><ele>1380.1999999999998</ele><time>2026-05-03T12:07:21Z</time></trkpt><trkpt lat="43.161521179316786" lon="18.90992084183621"><ele>1379.8000000000002</ele><time>2026-05-03T12:07:23Z</time></trkpt><trkpt lat="43.16146348043116" lon="18.909989941958063"><ele>1379.4</ele><time>2026-05-03T12:07:24Z</time></trkpt><trkpt lat="43.16139700141588" lon="18.910066495030446"><ele>1379.0</ele><time>2026-05-03T12:07:25Z</time></trkpt><trkpt lat="43.161322307010344" lon="18.910145093340745"><ele>1378.5</ele><time>2026-05-03T12:07:26Z</time></trkpt><trkpt lat="43.161224064926515" lon="18.91018362894454"><ele>1378.0</ele><time>2026-05-03T12:07:27Z</time></trkpt><trkpt lat="43.16112105189206" lon="18.910247981928457"><ele>1377.5</ele><time>2026-05-03T12:07:28Z</time></trkpt><trkpt lat="43.16101145918343" lon="18.910323091200436"><ele>1377.0</ele><time>2026-05-03T12:07:29Z</time></trkpt><trkpt lat="43.16093191206123" lon="18.910439629414366"><ele>1377.0</ele><time>2026-05-03T12:07:30Z</time></trkpt><trkpt lat="43.16086486751088" lon="18.91057944351945"><ele>1377.0</ele><time>2026-05-03T12:07:31Z</time></trkpt><trkpt lat="43.16079411666474" lon="18.910743790497705"><ele>1377.0</ele><time>2026-05-03T12:07:32Z</time></trkpt><trkpt lat="43.16069890687821" lon="18.910906866817317"><ele>1377.0</ele><time>2026-05-03T12:07:33Z</time></trkpt><trkpt lat="43.1606203073181" lon="18.91107502463592"><ele>1378.5</ele><time>2026-05-03T12:07:34Z</time></trkpt><trkpt lat="43.160551794576875" lon="18.911259789656434"><ele>1380.0</ele><time>2026-05-03T12:07:35Z</time></trkpt><trkpt lat="43.1604724046207" lon="18.91141243030214"><ele>1381.5</ele><time>2026-05-03T12:07:36Z</time></trkpt><trkpt lat="43.16038479213181" lon="18.911528902906994"><ele>1383.0</ele><time>2026-05-03T12:07:37Z</time></trkpt><trkpt lat="43.160324822760074" lon="18.9116580709563"><ele>1382.6000000000001</ele><time>2026-05-03T12:07:38Z</time></trkpt><trkpt lat="43.16025422419856" lon="18.911748616111186"><ele>1382.2</ele><time>2026-05-03T12:07:39Z</time></trkpt><trkpt lat="43.16018056687549" lon="18.911832385377256"><ele>1381.8</ele><time>2026-05-03T12:07:40Z</time></trkpt><trkpt lat="43.160106706997105" lon="18.911916928703008"><ele>1381.4</ele><time>2026-05-03T12:07:41Z</time></trkpt><trkpt lat="43.16003221870432" lon="18.91200506706804"><ele>1381.0</ele><time>2026-05-03T12:07:42Z</time></trkpt><trkpt lat="43.15994552876829" lon="18.912103260890937"><ele>1381.0</ele><time>2026-05-03T12:07:43Z</time></trkpt><trkpt lat="43.15984936924575" lon="18.912209880997047"><ele>1381.0</ele><time>2026-05-03T12:07:44Z</time></trkpt><trkpt lat="43.15975008951911" lon="18.912321102864922"><ele>1381.0</ele><time>2026-05-03T12:07:45Z</time></trkpt><trkpt lat="43.15964996201629" lon="18.9124375385003"><ele>1381.0</ele><time>2026-05-03T12:07:46Z</time></trkpt><trkpt lat="43.15954284305868" lon="18.912561810178858"><ele>1382.0</ele><time>2026-05-03T12:07:47Z</time></trkpt><trkpt lat="43.1594321694213" lon="18.91269136150196"><ele>1383.0</ele><time>2026-05-03T12:07:48Z</time></trkpt><trkpt lat="43.159314085173044" lon="18.912829535032685"><ele>1384.0</ele><time>2026-05-03T12:07:49Z</time></trkpt><trkpt lat="43.15919388931642" lon="18.912965157123214"><ele>1384.0</ele><time>2026-05-03T12:07:50Z</time></trkpt><trkpt lat="43.15907014802401" lon="18.91310414064393"><ele>1384.0</ele><time>2026-05-03T12:07:51Z</time></trkpt><trkpt lat="43.158943934959225" lon="18.91324895420301"><ele>1384.0</ele><time>2026-05-03T12:07:52Z</time></trkpt><trkpt lat="43.158819421671446" lon="18.913391528350154"><ele>1383.6666666666665</ele><time>2026-05-03T12:07:53Z</time></trkpt><trkpt lat="43.15869804125644" lon="18.913531232335462"><ele>1383.3333333333333</ele><time>2026-05-03T12:07:54Z</time></trkpt><trkpt lat="43.15857581400314" lon="18.913670124443257"><ele>1383.0</ele><time>2026-05-03T12:07:55Z</time></trkpt><trkpt lat="43.15844843527461" lon="18.913816607170887"><ele>1383.0</ele><time>2026-05-03T12:07:56Z</time></trkpt><trkpt lat="43.158323469473395" lon="18.913964072559697"><ele>1383.0</ele><time>2026-05-03T12:07:57Z</time></trkpt><trkpt lat="43.15819658940031" lon="18.914107371931927"><ele>1383.0</ele><time>2026-05-03T12:07:58Z</time></trkpt><trkpt lat="43.158066519602244" lon="18.9142481254844"><ele>1383.25</ele><time>2026-05-03T12:07:59Z</time></trkpt><trkpt lat="43.15794072120198" lon="18.914385259411826"><ele>1383.5</ele><time>2026-05-03T12:08:00Z</time></trkpt><trkpt lat="43.157829635801384" lon="18.914509967879457"><ele>1383.75</ele><time>2026-05-03T12:08:01Z</time></trkpt><trkpt lat="43.15772897647473" lon="18.914625278263458"><ele>1384.0</ele><time>2026-05-03T12:08:02Z</time></trkpt><trkpt lat="43.157632246021606" lon="18.914735883358997"><ele>1384.0</ele><time>2026-05-03T12:08:03Z</time></trkpt><trkpt lat="43.15754073280369" lon="18.914843427666767"><ele>1384.0</ele><time>2026-05-03T12:08:04Z</time></trkpt><trkpt lat="43.15745128046271" lon="18.914939600121315"><ele>1384.0</ele><time>2026-05-03T12:08:05Z</time></trkpt><trkpt lat="43.1573597083271" lon="18.91504125189577"><ele>1384.0</ele><time>2026-05-03T12:08:06Z</time></trkpt><trkpt lat="43.157270046029986" lon="18.915153107273063"><ele>1385.5</ele><time>2026-05-03T12:08:07Z</time></trkpt><trkpt lat="43.15718461534581" lon="18.915271136823055"><ele>1387.0</ele><time>2026-05-03T12:08:08Z</time></trkpt><trkpt lat="43.15710686424054" lon="18.915398337946392"><ele>1388.5</ele><time>2026-05-03T12:08:09Z</time></trkpt><trkpt lat="43.157035287268535" lon="18.915533487290507"><ele>1390.0</ele><time>2026-05-03T12:08:10Z</time></trkpt><trkpt lat="43.156967292736205" lon="18.915663652928938"><ele>1390.0</ele><time>2026-05-03T12:08:11Z</time></trkpt><trkpt lat="43.156902555052056" lon="18.915790493215123"><ele>1390.0</ele><time>2026-05-03T12:08:12Z</time></trkpt><trkpt lat="43.15684165495939" lon="18.91592047839446"><ele>1390.0</ele><time>2026-05-03T12:08:13Z</time></trkpt><trkpt lat="43.156778876765614" lon="18.916045569049427"><ele>1390.0</ele><time>2026-05-03T12:08:14Z</time></trkpt><trkpt lat="43.15671755480991" lon="18.916167593490055"><ele>1390.0</ele><time>2026-05-03T12:08:15Z</time></trkpt><trkpt lat="43.15666073347213" lon="18.9162901693194"><ele>1390.0</ele><time>2026-05-03T12:08:16Z</time></trkpt><trkpt lat="43.15660107734185" lon="18.916410817705064"><ele>1390.0</ele><time>2026-05-03T12:08:17Z</time></trkpt><trkpt lat="43.15653193726901" lon="18.916513674995933"><ele>1390.0</ele><time>2026-05-03T12:08:18Z</time></trkpt><trkpt lat="43.156476272043705" lon="18.916626506156675"><ele>1390.0</ele><time>2026-05-03T12:08:19Z</time></trkpt><trkpt lat="43.15642049477125" lon="18.916739564416375"><ele>1390.0</ele><time>2026-05-03T12:08:20Z</time></trkpt><trkpt lat="43.1563644656216" lon="18.916853958572833"><ele>1390.4</ele><time>2026-05-03T12:08:21Z</time></trkpt><trkpt lat="43.1563076896854" lon="18.916962269121488"><ele>1390.8</ele><time>2026-05-03T12:08:22Z</time></trkpt><trkpt lat="43.15624760971343" lon="18.917073453718118"><ele>1391.1999999999998</ele><time>2026-05-03T12:08:23Z</time></trkpt><trkpt lat="43.156183778300246" lon="18.917172392975207"><ele>1391.6</ele><time>2026-05-03T12:08:24Z</time></trkpt><trkpt lat="43.15611254324485" lon="18.917267015363787"><ele>1392.0</ele><time>2026-05-03T12:08:25Z</time></trkpt><trkpt lat="43.156034511446165" lon="18.917330838852912"><ele>1392.0</ele><time>2026-05-03T12:08:26Z</time></trkpt><trkpt lat="43.15594576214859" lon="18.917361417197935"><ele>1392.0</ele><time>2026-05-03T12:08:27Z</time></trkpt><trkpt lat="43.15584900750257" lon="18.917368619699513"><ele>1392.0</ele><time>2026-05-03T12:08:28Z</time></trkpt><trkpt lat="43.15574336937785" lon="18.917372759843794"><ele>1392.0</ele><time>2026-05-03T12:08:29Z</time></trkpt><trkpt lat="43.155639922256235" lon="18.91739234643786"><ele>1392.0</ele><time>2026-05-03T12:08:30Z</time></trkpt><trkpt lat="43.155530383679476" lon="18.917395024805472"><ele>1392.5</ele><time>2026-05-03T12:08:31Z</time></trkpt><trkpt lat="43.15541778075443" lon="18.91740139963208"><ele>1393.0</ele><time>2026-05-03T12:08:32Z</time></trkpt><trkpt lat="43.155302976592864" lon="18.91740749685183"><ele>1393.5</ele><time>2026-05-03T12:08:33Z</time></trkpt><trkpt lat="43.155187686528414" lon="18.91741400844944"><ele>1394.0</ele><time>2026-05-03T12:08:34Z</time></trkpt><trkpt lat="43.155078075519064" lon="18.91742134760492"><ele>1394.0</ele><time>2026-05-03T12:08:35Z</time></trkpt><trkpt lat="43.15497831124994" lon="18.917424444893037"><ele>1394.0</ele><time>2026-05-03T12:08:36Z</time></trkpt><trkpt lat="43.15488101503562" lon="18.917407799102634"><ele>1394.0</ele><time>2026-05-03T12:08:37Z</time></trkpt><trkpt lat="43.15478013949271" lon="18.917411894624088"><ele>1394.0</ele><time>2026-05-03T12:08:38Z</time></trkpt><trkpt lat="43.15467591256708" lon="18.91741881761423"><ele>1394.0</ele><time>2026-05-03T12:08:39Z</time></trkpt><trkpt lat="43.15456895567744" lon="18.917424907429492"><ele>1394.4</ele><time>2026-05-03T12:08:40Z</time></trkpt><trkpt lat="43.15446285440641" lon="18.91743059522321"><ele>1394.8000000000002</ele><time>2026-05-03T12:08:41Z</time></trkpt><trkpt lat="43.15436120209424" lon="18.917436074124584"><ele>1395.1999999999998</ele><time>2026-05-03T12:08:42Z</time></trkpt><trkpt lat="43.154259539910065" lon="18.917441629179073"><ele>1395.6</ele><time>2026-05-03T12:08:43Z</time></trkpt><trkpt lat="43.1541583072841" lon="18.917447457622263"><ele>1396.0</ele><time>2026-05-03T12:08:44Z</time></trkpt><trkpt lat="43.15405721284982" lon="18.917454443320658"><ele>1397.0</ele><time>2026-05-03T12:08:45Z</time></trkpt><trkpt lat="43.15395693718566" lon="18.917461372441128"><ele>1398.0</ele><time>2026-05-03T12:08:46Z</time></trkpt><trkpt lat="43.153859242918536" lon="18.9174681231848"><ele>1399.0</ele><time>2026-05-03T12:08:47Z</time></trkpt><trkpt lat="43.15376444004022" lon="18.91747468242036"><ele>1400.0</ele><time>2026-05-03T12:08:48Z</time></trkpt><trkpt lat="43.15367257081904" lon="18.917481107442317"><ele>1401.0</ele><time>2026-05-03T12:08:49Z</time></trkpt><trkpt lat="43.15358284498435" lon="18.917487382560676"><ele>1401.0</ele><time>2026-05-03T12:08:50Z</time></trkpt><trkpt lat="43.15349145638563" lon="18.917493773969685"><ele>1401.0</ele><time>2026-05-03T12:08:51Z</time></trkpt><trkpt lat="43.153399663036616" lon="18.917521782629635"><ele>1401.0</ele><time>2026-05-03T12:08:52Z</time></trkpt><trkpt lat="43.15330718248282" lon="18.91750666145996"><ele>1401.0</ele><time>2026-05-03T12:08:53Z</time></trkpt><trkpt lat="43.15320983032647" lon="18.91751346996609"><ele>1401.0</ele><time>2026-05-03T12:08:54Z</time></trkpt><trkpt lat="43.153110292112004" lon="18.91752073666537"><ele>1401.1999999999998</ele><time>2026-05-03T12:08:55Z</time></trkpt><trkpt lat="43.15300831562209" lon="18.917527682068005"><ele>1401.3999999999999</ele><time>2026-05-03T12:08:56Z</time></trkpt><trkpt lat="43.15290572918656" lon="18.91753439626767"><ele>1401.6</ele><time>2026-05-03T12:08:57Z</time></trkpt><trkpt lat="43.15280041469298" lon="18.917541289017834"><ele>1401.8</ele><time>2026-05-03T12:08:58Z</time></trkpt><trkpt lat="43.15269653032278" lon="18.91754808816775"><ele>1402.0</ele><time>2026-05-03T12:08:59Z</time></trkpt><trkpt lat="43.15259769571193" lon="18.91755455681259"><ele>1403.1999999999998</ele><time>2026-05-03T12:09:00Z</time></trkpt><trkpt lat="43.15250028006824" lon="18.91758251322798"><ele>1404.4</ele><time>2026-05-03T12:09:01Z</time></trkpt><trkpt lat="43.15240473197357" lon="18.917587190616263"><ele>1405.6</ele><time>2026-05-03T12:09:02Z</time></trkpt><trkpt lat="43.15230646029551" lon="18.917594583946098"><ele>1406.8000000000002</ele><time>2026-05-03T12:09:03Z</time></trkpt><trkpt lat="43.152205624209856" lon="18.91758021757906"><ele>1408.0</ele><time>2026-05-03T12:09:04Z</time></trkpt><trkpt lat="43.152103299436014" lon="18.917609345858608"><ele>1408.4</ele><time>2026-05-03T12:09:05Z</time></trkpt><trkpt lat="43.1519973536978" lon="18.917614803432343"><ele>1408.8000000000002</ele><time>2026-05-03T12:09:06Z</time></trkpt><trkpt lat="43.1518899550002" lon="18.9176215643728"><ele>1409.2</ele><time>2026-05-03T12:09:07Z</time></trkpt><trkpt lat="43.15177720541936" lon="18.917625955396804"><ele>1409.6</ele><time>2026-05-03T12:09:08Z</time></trkpt><trkpt lat="43.151659743999815" lon="18.917633770592975"><ele>1410.0</ele><time>2026-05-03T12:09:09Z</time></trkpt><trkpt lat="43.15153593405195" lon="18.917621337587878"><ele>1410.75</ele><time>2026-05-03T12:09:10Z</time></trkpt><trkpt lat="43.15140832172681" lon="18.917648939259482"><ele>1411.5</ele><time>2026-05-03T12:09:11Z</time></trkpt><trkpt lat="43.15127973041683" lon="18.917652615328333"><ele>1412.25</ele><time>2026-05-03T12:09:12Z</time></trkpt><trkpt lat="43.15115443045598" lon="18.91766686727454"><ele>1413.0</ele><time>2026-05-03T12:09:13Z</time></trkpt><trkpt lat="43.15103274114006" lon="18.91766103614202"><ele>1413.0</ele><time>2026-05-03T12:09:14Z</time></trkpt><trkpt lat="43.150915499259256" lon="18.917711518347048"><ele>1413.0</ele><time>2026-05-03T12:09:15Z</time></trkpt><trkpt lat="43.15080439642423" lon="18.917803136388468"><ele>1413.0</ele><time>2026-05-03T12:09:16Z</time></trkpt><trkpt lat="43.150720999854144" lon="18.917937903456085"><ele>1413.0</ele><time>2026-05-03T12:09:17Z</time></trkpt><trkpt lat="43.15063919997078" lon="18.9180619966434"><ele>1413.0</ele><time>2026-05-03T12:09:18Z</time></trkpt><trkpt lat="43.15057271091959" lon="18.91816601326762"><ele>1413.0</ele><time>2026-05-03T12:09:19Z</time></trkpt><trkpt lat="43.15049830208088" lon="18.91825024726989"><ele>1413.0</ele><time>2026-05-03T12:09:20Z</time></trkpt><trkpt lat="43.15044802556888" lon="18.918359740045457"><ele>1413.0</ele><time>2026-05-03T12:09:21Z</time></trkpt><trkpt lat="43.15039189885441" lon="18.918440287504897"><ele>1413.0</ele><time>2026-05-03T12:09:22Z</time></trkpt><trkpt lat="43.15034748772144" lon="18.91851581439918"><ele>1413.0</ele><time>2026-05-03T12:09:23Z</time></trkpt><trkpt lat="43.15029122223407" lon="18.918569837816165"><ele>1414.2</ele><time>2026-05-03T12:09:24Z</time></trkpt><trkpt lat="43.15022219008803" lon="18.91869148568992"><ele>1415.4</ele><time>2026-05-03T12:09:26Z</time></trkpt><trkpt lat="43.15013727103875" lon="18.918723919690077"><ele>1416.6000000000001</ele><time>2026-05-03T12:09:28Z</time></trkpt><trkpt lat="43.15006873485568" lon="18.918759545849806"><ele>1417.8000000000002</ele><time>2026-05-03T12:09:57Z</time></trkpt><trkpt lat="43.15001533794805" lon="18.9188566108708"><ele>1419.0</ele><time>2026-05-03T12:09:59Z</time></trkpt><trkpt lat="43.149766098395325" lon="18.918687234716877"><ele>1419.5</ele><time>2026-05-03T12:10:01Z</time></trkpt><trkpt lat="43.14970019979207" lon="18.918674791210222"><ele>1420.0</ele><time>2026-05-03T12:10:02Z</time></trkpt><trkpt lat="43.14962688854633" lon="18.918675782133793"><ele>1420.5</ele><time>2026-05-03T12:10:03Z</time></trkpt><trkpt lat="43.149552707556886" lon="18.91868385748076"><ele>1421.0</ele><time>2026-05-03T12:10:04Z</time></trkpt><trkpt lat="43.14946356029128" lon="18.91870931101766"><ele>1421.5</ele><time>2026-05-03T12:10:05Z</time></trkpt><trkpt lat="43.14936384052518" lon="18.91874076026427"><ele>1422.0</ele><time>2026-05-03T12:10:06Z</time></trkpt><trkpt lat="43.14926931057615" lon="18.918785255849333"><ele>1422.0</ele><time>2026-05-03T12:10:07Z</time></trkpt><trkpt lat="43.14917014995458" lon="18.918840478882014"><ele>1422.0</ele><time>2026-05-03T12:10:08Z</time></trkpt><trkpt lat="43.149061568820514" lon="18.91888222880959"><ele>1422.0</ele><time>2026-05-03T12:10:09Z</time></trkpt><trkpt lat="43.14897666392518" lon="18.91891557549676"><ele>1422.0</ele><time>2026-05-03T12:10:10Z</time></trkpt><trkpt lat="43.14890194774641" lon="18.918961025967576"><ele>1422.0</ele><time>2026-05-03T12:10:11Z</time></trkpt><trkpt lat="43.14884232361359" lon="18.918997892299394"><ele>1422.6666666666667</ele><time>2026-05-03T12:10:12Z</time></trkpt><trkpt lat="43.148763682841754" lon="18.919021853986358"><ele>1423.3333333333333</ele><time>2026-05-03T12:10:13Z</time></trkpt><trkpt lat="43.14868654800152" lon="18.919063323109842"><ele>1424.0</ele><time>2026-05-03T12:10:14Z</time></trkpt><trkpt lat="43.14862004517766" lon="18.919128204202483"><ele>1424.6666666666665</ele><time>2026-05-03T12:10:15Z</time></trkpt><trkpt lat="43.14855584714554" lon="18.919168761995493"><ele>1425.3333333333333</ele><time>2026-05-03T12:10:16Z</time></trkpt><trkpt lat="43.14848326865064" lon="18.919209828504368"><ele>1426.0</ele><time>2026-05-03T12:10:17Z</time></trkpt><trkpt lat="43.14841035791771" lon="18.919262752872903"><ele>1426.8</ele><time>2026-05-03T12:10:18Z</time></trkpt><trkpt lat="43.14834757279702" lon="18.919317956761034"><ele>1427.6</ele><time>2026-05-03T12:10:19Z</time></trkpt><trkpt lat="43.148266725785845" lon="18.919428789049064"><ele>1428.4</ele><time>2026-05-03T12:10:21Z</time></trkpt><trkpt lat="43.14816579910973" lon="18.919504208604852"><ele>1429.2</ele><time>2026-05-03T12:10:23Z</time></trkpt><trkpt lat="43.148104124803666" lon="18.919545589044706"><ele>1430.0</ele><time>2026-05-03T12:10:24Z</time></trkpt><trkpt lat="43.14802261180284" lon="18.919597716800915"><ele>1431.5</ele><time>2026-05-03T12:10:25Z</time></trkpt><trkpt lat="43.1479331991456" lon="18.919670708015687"><ele>1433.0</ele><time>2026-05-03T12:10:26Z</time></trkpt><trkpt lat="43.147858228997954" lon="18.919710331286403"><ele>1434.5</ele><time>2026-05-03T12:10:27Z</time></trkpt><trkpt lat="43.14778430248441" lon="18.919755260403107"><ele>1436.0</ele><time>2026-05-03T12:10:28Z</time></trkpt><trkpt lat="43.14770844289979" lon="18.919796263237195"><ele>1437.5</ele><time>2026-05-03T12:10:29Z</time></trkpt><trkpt lat="43.14764097396789" lon="18.91983205308183"><ele>1439.0</ele><time>2026-05-03T12:10:30Z</time></trkpt><trkpt lat="43.14757463415675" lon="18.91985244658137"><ele>1439.0</ele><time>2026-05-03T12:10:31Z</time></trkpt><trkpt lat="43.14751135663353" lon="18.919823304605853"><ele>1439.0</ele><time>2026-05-03T12:10:32Z</time></trkpt><trkpt lat="43.14744767525464" lon="18.919835548424803"><ele>1439.0</ele><time>2026-05-03T12:10:33Z</time></trkpt><trkpt lat="43.14738183430952" lon="18.91972288675656"><ele>1439.0</ele><time>2026-05-03T12:10:35Z</time></trkpt><trkpt lat="43.147247350346326" lon="18.91960073519787"><ele>1439.0</ele><time>2026-05-03T12:10:37Z</time></trkpt><trkpt lat="43.147202031602355" lon="18.91951898395028"><ele>1440.0</ele><time>2026-05-03T12:10:38Z</time></trkpt><trkpt lat="43.14716044981895" lon="18.91944397451248"><ele>1441.0</ele><time>2026-05-03T12:10:39Z</time></trkpt><trkpt lat="43.147089720265015" lon="18.919290028337628"><ele>1442.0</ele><time>2026-05-03T12:10:40Z</time></trkpt><trkpt lat="43.147074242822434" lon="18.919104206646267"><ele>1443.0</ele><time>2026-05-03T12:10:41Z</time></trkpt><trkpt lat="43.14707424282618" lon="18.91901717830227"><ele>1444.0</ele><time>2026-05-03T12:10:42Z</time></trkpt><trkpt lat="43.14707424282949" lon="18.918921289208843"><ele>1444.0</ele><time>2026-05-03T12:10:43Z</time></trkpt><trkpt lat="43.147058893326864" lon="18.918727158362945"><ele>1444.0</ele><time>2026-05-03T12:10:45Z</time></trkpt><trkpt lat="43.14701099214295" lon="18.91861849623969"><ele>1444.0</ele><time>2026-05-03T12:10:48Z</time></trkpt><trkpt lat="43.146973858417276" lon="18.918528600332884"><ele>1444.0</ele><time>2026-05-03T12:10:51Z</time></trkpt><trkpt lat="43.14687365843491" lon="18.91839336925448"><ele>1443.4</ele><time>2026-05-03T12:10:53Z</time></trkpt><trkpt lat="43.14679824990653" lon="18.918310102072724"><ele>1442.8000000000002</ele><time>2026-05-03T12:10:55Z</time></trkpt><trkpt lat="43.146727779151924" lon="18.91825749965816"><ele>1442.1999999999998</ele><time>2026-05-03T12:10:56Z</time></trkpt><trkpt lat="43.146616472393895" lon="18.918172921725233"><ele>1441.6</ele><time>2026-05-03T12:10:58Z</time></trkpt><trkpt lat="43.146544029928485" lon="18.918117866760443"><ele>1441.0</ele><time>2026-05-03T12:10:59Z</time></trkpt><trkpt lat="43.146474995489655" lon="18.918091511132634"><ele>1443.4</ele><time>2026-05-03T12:11:00Z</time></trkpt><trkpt lat="43.14639631269713" lon="18.918051512120424"><ele>1445.8</ele><time>2026-05-03T12:11:01Z</time></trkpt><trkpt lat="43.146323569708194" lon="18.91801453211854"><ele>1448.2</ele><time>2026-05-03T12:11:02Z</time></trkpt><trkpt lat="43.146196328156925" lon="18.91797587592398"><ele>1450.6000000000001</ele><time>2026-05-03T12:11:04Z</time></trkpt><trkpt lat="43.146103566666085" lon="18.917933346696532"><ele>1453.0</ele><time>2026-05-03T12:11:05Z</time></trkpt><trkpt lat="43.14601580361458" lon="18.91788945266281"><ele>1455.5</ele><time>2026-05-03T12:11:06Z</time></trkpt><trkpt lat="43.14559230972232" lon="18.91774080848863"><ele>1458.0</ele><time>2026-05-03T12:11:08Z</time></trkpt><trkpt lat="43.14549546685914" lon="18.917536415302283"><ele>1458.0</ele><time>2026-05-03T12:11:09Z</time></trkpt><trkpt lat="43.14547159047374" lon="18.917437630218668"><ele>1458.0</ele><time>2026-05-03T12:11:10Z</time></trkpt><trkpt lat="43.14540984660814" lon="18.917205198358484"><ele>1458.0</ele><time>2026-05-03T12:11:11Z</time></trkpt><trkpt lat="43.14570783993732" lon="18.916943928152428"><ele>1458.0</ele><time>2026-05-03T12:11:12Z</time></trkpt><trkpt lat="43.14563431745647" lon="18.916875490214448"><ele>1458.0</ele><time>2026-05-03T12:11:13Z</time></trkpt><trkpt lat="43.14557411928541" lon="18.916820235296363"><ele>1458.0</ele><time>2026-05-03T12:11:14Z</time></trkpt><trkpt lat="43.14551655829695" lon="18.916665476767218"><ele>1458.0</ele><time>2026-05-03T12:11:16Z</time></trkpt><trkpt lat="43.14548063340098" lon="18.91655949958583"><ele>1458.0</ele><time>2026-05-03T12:11:17Z</time></trkpt><trkpt lat="43.14545380071744" lon="18.916468147739092"><ele>1458.0</ele><time>2026-05-03T12:11:18Z</time></trkpt><trkpt lat="43.14542025368684" lon="18.916371446169705"><ele>1457.5</ele><time>2026-05-03T12:11:20Z</time></trkpt><trkpt lat="43.14535845121171" lon="18.9163493040041"><ele>1457.0</ele><time>2026-05-03T12:11:22Z</time></trkpt><trkpt lat="43.1452947976125" lon="18.916355109577367"><ele>1456.5</ele><time>2026-05-03T12:11:25Z</time></trkpt><trkpt lat="43.145212256202406" lon="18.9163931175485"><ele>1456.0</ele><time>2026-05-03T12:12:49Z</time></trkpt><trkpt lat="43.145106009823316" lon="18.916403783701554"><ele>1455.5</ele><time>2026-05-03T12:12:51Z</time></trkpt><trkpt lat="43.144995470745364" lon="18.91645411859076"><ele>1455.0</ele><time>2026-05-03T12:12:53Z</time></trkpt><trkpt lat="43.144934899051755" lon="18.916493683625706"><ele>1457.6666666666667</ele><time>2026-05-03T12:12:54Z</time></trkpt><trkpt lat="43.144703959671965" lon="18.916326918993057"><ele>1460.3333333333335</ele><time>2026-05-03T12:12:56Z</time></trkpt><trkpt lat="43.1446087243313" lon="18.916290197933872"><ele>1463.0</ele><time>2026-05-03T12:12:57Z</time></trkpt><trkpt lat="43.144507192059585" lon="18.916240145108844"><ele>1463.0</ele><time>2026-05-03T12:12:58Z</time></trkpt><trkpt lat="43.14440768385281" lon="18.916187023417706"><ele>1463.0</ele><time>2026-05-03T12:12:59Z</time></trkpt><trkpt lat="43.144343126592105" lon="18.916153715550827"><ele>1463.0</ele><time>2026-05-03T12:13:00Z</time></trkpt><trkpt lat="43.14426651660325" lon="18.916103114256487"><ele>1463.0</ele><time>2026-05-03T12:13:01Z</time></trkpt><trkpt lat="43.14420142367546" lon="18.916068156923675"><ele>1463.0</ele><time>2026-05-03T12:13:02Z</time></trkpt><trkpt lat="43.144134460627185" lon="18.91604555065143"><ele>1463.0</ele><time>2026-05-03T12:13:03Z</time></trkpt><trkpt lat="43.14399882627027" lon="18.91600673843255"><ele>1464.6666666666667</ele><time>2026-05-03T12:13:05Z</time></trkpt><trkpt lat="43.143925437404285" lon="18.91599993707159"><ele>1466.3333333333335</ele><time>2026-05-03T12:13:06Z</time></trkpt><trkpt lat="43.14383177076539" lon="18.91599199874868"><ele>1468.0</ele><time>2026-05-03T12:13:08Z</time></trkpt><trkpt lat="43.143742459947035" lon="18.91585410765341"><ele>1469.6666666666667</ele><time>2026-05-03T12:13:10Z</time></trkpt><trkpt lat="43.143700858100495" lon="18.915765407187436"><ele>1471.3333333333333</ele><time>2026-05-03T12:13:11Z</time></trkpt><trkpt lat="43.143653848313235" lon="18.915699131257806"><ele>1473.0</ele><time>2026-05-03T12:13:12Z</time></trkpt><trkpt lat="43.14356935797717" lon="18.91561003100825"><ele>1473.0</ele><time>2026-05-03T12:13:14Z</time></trkpt><trkpt lat="43.143468849516644" lon="18.915533847493787"><ele>1473.0</ele><time>2026-05-03T12:13:16Z</time></trkpt><trkpt lat="43.14341233327557" lon="18.91548825599932"><ele>1473.0</ele><time>2026-05-03T12:13:18Z</time></trkpt><trkpt lat="43.14334220552467" lon="18.915410897963763"><ele>1473.0</ele><time>2026-05-03T12:14:04Z</time></trkpt><trkpt lat="43.14325685959292" lon="18.915325370106387"><ele>1473.0</ele><time>2026-05-03T12:14:06Z</time></trkpt><trkpt lat="43.14319209890165" lon="18.91528390197951"><ele>1473.0</ele><time>2026-05-03T12:14:07Z</time></trkpt><trkpt lat="43.143153130280496" lon="18.9151907142368"><ele>1474.0</ele><time>2026-05-03T12:14:08Z</time></trkpt><trkpt lat="43.14308578594805" lon="18.915119928195764"><ele>1475.0</ele><time>2026-05-03T12:14:09Z</time></trkpt><trkpt lat="43.143032859615964" lon="18.915031659317332"><ele>1476.0</ele><time>2026-05-03T12:14:10Z</time></trkpt><trkpt lat="43.14297874312514" lon="18.91495293200686"><ele>1477.0</ele><time>2026-05-03T12:14:11Z</time></trkpt><trkpt lat="43.14291864955249" lon="18.914893439232554"><ele>1478.0</ele><time>2026-05-03T12:14:12Z</time></trkpt><trkpt lat="43.1428587892581" lon="18.914845673123374"><ele>1479.0</ele><time>2026-05-03T12:14:13Z</time></trkpt><trkpt lat="43.14277230250963" lon="18.91479916653402"><ele>1479.0</ele><time>2026-05-03T12:14:15Z</time></trkpt><trkpt lat="43.14268809717685" lon="18.9147971911669"><ele>1479.0</ele><time>2026-05-03T12:14:19Z</time></trkpt><trkpt lat="43.14264914095738" lon="18.914724532881458"><ele>1479.0</ele><time>2026-05-03T12:14:23Z</time></trkpt><trkpt lat="43.14259471191026" lon="18.91466601846162"><ele>1479.0</ele><time>2026-05-03T12:14:25Z</time></trkpt><trkpt lat="43.14249499778215" lon="18.91465639473686"><ele>1479.0</ele><time>2026-05-03T12:14:27Z</time></trkpt><trkpt lat="43.142424407801265" lon="18.91465216103308"><ele>1479.0</ele><time>2026-05-03T12:14:28Z</time></trkpt><trkpt lat="43.142201884011975" lon="18.91474931451189"><ele>1480.0</ele><time>2026-05-03T12:14:29Z</time></trkpt><trkpt lat="43.14211002152333" lon="18.91467931666968"><ele>1481.0</ele><time>2026-05-03T12:14:30Z</time></trkpt><trkpt lat="43.14198988674144" lon="18.914505510829393"><ele>1482.0</ele><time>2026-05-03T12:14:31Z</time></trkpt><trkpt lat="43.14190834340405" lon="18.91438510835351"><ele>1483.0</ele><time>2026-05-03T12:14:33Z</time></trkpt><trkpt lat="43.14186373729876" lon="18.9143187780698"><ele>1483.0</ele><time>2026-05-03T12:14:34Z</time></trkpt><trkpt lat="43.14181514675303" lon="18.914246980672527"><ele>1483.0</ele><time>2026-05-03T12:14:35Z</time></trkpt><trkpt lat="43.14176113163701" lon="18.91416714542818"><ele>1483.0</ele><time>2026-05-03T12:14:37Z</time></trkpt><trkpt lat="43.141696777435925" lon="18.91415419728341"><ele>1483.0</ele><time>2026-05-03T12:14:40Z</time></trkpt><trkpt lat="43.14162945879297" lon="18.914122498012674"><ele>1483.0</ele><time>2026-05-03T12:14:42Z</time></trkpt><trkpt lat="43.141574831516216" lon="18.914043060424625"><ele>1483.0</ele><time>2026-05-03T12:14:44Z</time></trkpt><trkpt lat="43.141507802894395" lon="18.913959114200125"><ele>1485.6666666666665</ele><time>2026-05-03T12:14:46Z</time></trkpt><trkpt lat="43.141277735126586" lon="18.91418596943571"><ele>1488.3333333333333</ele><time>2026-05-03T12:14:48Z</time></trkpt><trkpt lat="43.14118457059942" lon="18.91426489416459"><ele>1491.0</ele><time>2026-05-03T12:14:50Z</time></trkpt><trkpt lat="43.141146966564676" lon="18.91439014726512"><ele>1492.1999999999998</ele><time>2026-05-03T12:14:52Z</time></trkpt><trkpt lat="43.141179715024464" lon="18.91449370239821"><ele>1493.3999999999999</ele><time>2026-05-03T12:14:54Z</time></trkpt><trkpt lat="43.141243741066546" lon="18.91465534603852"><ele>1494.6</ele><time>2026-05-03T12:14:56Z</time></trkpt><trkpt lat="43.14127217755644" lon="18.91475518964728"><ele>1495.8</ele><time>2026-05-03T12:14:57Z</time></trkpt><trkpt lat="43.14130066484248" lon="18.914858756691007"><ele>1497.0</ele><time>2026-05-03T12:14:58Z</time></trkpt><trkpt lat="43.141326647793775" lon="18.914967985339572"><ele>1497.5</ele><time>2026-05-03T12:14:59Z</time></trkpt><trkpt lat="43.141327687312376" lon="18.915087395963173"><ele>1498.0</ele><time>2026-05-03T12:15:00Z</time></trkpt><trkpt lat="43.14136089487472" lon="18.91517383405452"><ele>1498.5</ele><time>2026-05-03T12:15:01Z</time></trkpt><trkpt lat="43.141377810356225" lon="18.915279613912684"><ele>1499.0</ele><time>2026-05-03T12:15:03Z</time></trkpt><trkpt lat="43.14132967271563" lon="18.915354091876715"><ele>1499.5</ele><time>2026-05-03T12:15:05Z</time></trkpt><trkpt lat="43.14129715483704" lon="18.91544475867455"><ele>1500.0</ele><time>2026-05-03T12:15:07Z</time></trkpt><trkpt lat="43.14120818479271" lon="18.915661027116297"><ele>1500.0</ele><time>2026-05-03T12:15:08Z</time></trkpt><trkpt lat="43.14123241656575" lon="18.915778590783013"><ele>1500.0</ele><time>2026-05-03T12:15:09Z</time></trkpt><trkpt lat="43.141253804823954" lon="18.915886762859305"><ele>1500.0</ele><time>2026-05-03T12:15:10Z</time></trkpt><trkpt lat="43.14132757242631" lon="18.916018949864554"><ele>1500.0</ele><time>2026-05-03T12:15:11Z</time></trkpt><trkpt lat="43.14136758765149" lon="18.916105423569075"><ele>1500.0</ele><time>2026-05-03T12:15:12Z</time></trkpt><trkpt lat="43.14154367185958" lon="18.916065659081827"><ele>1500.0</ele><time>2026-05-03T12:15:15Z</time></trkpt><trkpt lat="43.14168220660849" lon="18.916130400944905"><ele>1500.0</ele><time>2026-05-03T12:15:17Z</time></trkpt><trkpt lat="43.14178205206154" lon="18.91618209864864"><ele>1500.0</ele><time>2026-05-03T12:15:18Z</time></trkpt><trkpt lat="43.14186991160303" lon="18.916261239743843"><ele>1500.0</ele><time>2026-05-03T12:15:19Z</time></trkpt><trkpt lat="43.14192544974601" lon="18.916393439979057"><ele>1500.0</ele><time>2026-05-03T12:15:20Z</time></trkpt><trkpt lat="43.14193306576523" lon="18.916548989193487"><ele>1500.0</ele><time>2026-05-03T12:15:21Z</time></trkpt><trkpt lat="43.141955293206266" lon="18.91667771814721"><ele>1500.0</ele><time>2026-05-03T12:15:22Z</time></trkpt><trkpt lat="43.141985766225964" lon="18.916810568318684"><ele>1500.0</ele><time>2026-05-03T12:15:23Z</time></trkpt><trkpt lat="43.14194325984447" lon="18.916948757405265"><ele>1500.0</ele><time>2026-05-03T12:15:24Z</time></trkpt><trkpt lat="43.14188371431514" lon="18.917075115978143"><ele>1501.0</ele><time>2026-05-03T12:15:25Z</time></trkpt><trkpt lat="43.14183219047073" lon="18.917232794482562"><ele>1502.0</ele><time>2026-05-03T12:15:26Z</time></trkpt><trkpt lat="43.141775653274486" lon="18.9174058159193"><ele>1503.0</ele><time>2026-05-03T12:15:27Z</time></trkpt><trkpt lat="43.14172817340882" lon="18.917551118343486"><ele>1504.0</ele><time>2026-05-03T12:15:28Z</time></trkpt><trkpt lat="43.14168799968438" lon="18.91767402530326"><ele>1505.0</ele><time>2026-05-03T12:15:29Z</time></trkpt><trkpt lat="43.14166288147666" lon="18.917796907950674"><ele>1506.0</ele><time>2026-05-03T12:15:30Z</time></trkpt><trkpt lat="43.141627765946104" lon="18.917904034677615"><ele>1507.0</ele><time>2026-05-03T12:15:31Z</time></trkpt><trkpt lat="43.14158079634003" lon="18.918001189281366"><ele>1508.0</ele><time>2026-05-03T12:15:32Z</time></trkpt><trkpt lat="43.14155491653241" lon="18.918097164771908"><ele>1509.0</ele><time>2026-05-03T12:15:33Z</time></trkpt><trkpt lat="43.141529202478544" lon="18.9182124897512"><ele>1510.0</ele><time>2026-05-03T12:15:35Z</time></trkpt><trkpt lat="43.14146609519921" lon="18.91822662205007"><ele>1511.2</ele><time>2026-05-03T12:15:39Z</time></trkpt><trkpt lat="43.141383238429476" lon="18.918127315343295"><ele>1512.4</ele><time>2026-05-03T12:15:41Z</time></trkpt><trkpt lat="43.14132198560413" lon="18.91808310482557"><ele>1513.6</ele><time>2026-05-03T12:15:42Z</time></trkpt><trkpt lat="43.14124959482575" lon="18.91807046467125"><ele>1514.8</ele><time>2026-05-03T12:15:43Z</time></trkpt><trkpt lat="43.14111470305188" lon="18.91804320259817"><ele>1516.0</ele><time>2026-05-03T12:15:45Z</time></trkpt><trkpt lat="43.14104442429139" lon="18.91802744086987"><ele>1516.0</ele><time>2026-05-03T12:15:46Z</time></trkpt><trkpt lat="43.14094106181758" lon="18.917979530198707"><ele>1516.0</ele><time>2026-05-03T12:15:48Z</time></trkpt><trkpt lat="43.14088002337672" lon="18.91793965350673"><ele>1516.0</ele><time>2026-05-03T12:15:49Z</time></trkpt><trkpt lat="43.14083251398753" lon="18.917867176647142"><ele>1516.0</ele><time>2026-05-03T12:15:50Z</time></trkpt><trkpt lat="43.14080470920106" lon="18.9177769624894"><ele>1516.0</ele><time>2026-05-03T12:15:51Z</time></trkpt><trkpt lat="43.140779245249945" lon="18.91769132372398"><ele>1516.0</ele><time>2026-05-03T12:15:52Z</time></trkpt><trkpt lat="43.14074901341941" lon="18.917595823449222"><ele>1515.5</ele><time>2026-05-03T12:15:53Z</time></trkpt><trkpt lat="43.14071807251922" lon="18.917502903707902"><ele>1515.0</ele><time>2026-05-03T12:15:54Z</time></trkpt><trkpt lat="43.14068133237565" lon="18.91742222867147"><ele>1514.5</ele><time>2026-05-03T12:15:55Z</time></trkpt><trkpt lat="43.14063197004855" lon="18.91736547185143"><ele>1514.0</ele><time>2026-05-03T12:15:56Z</time></trkpt><trkpt lat="43.14056223517465" lon="18.917312591257204"><ele>1513.5</ele><time>2026-05-03T12:15:57Z</time></trkpt><trkpt lat="43.14048730972559" lon="18.917270847260582"><ele>1513.0</ele><time>2026-05-03T12:15:58Z</time></trkpt><trkpt lat="43.14040591621514" lon="18.91724323637657"><ele>1514.3333333333333</ele><time>2026-05-03T12:15:59Z</time></trkpt><trkpt lat="43.140323272928285" lon="18.917218351543188"><ele>1515.6666666666665</ele><time>2026-05-03T12:16:00Z</time></trkpt><trkpt lat="43.140247363253216" lon="18.917197257368013"><ele>1517.0</ele><time>2026-05-03T12:16:01Z</time></trkpt><trkpt lat="43.14018023685941" lon="18.917160344351846"><ele>1518.3333333333333</ele><time>2026-05-03T12:16:02Z</time></trkpt><trkpt lat="43.140086783907435" lon="18.91712254657757"><ele>1519.6666666666667</ele><time>2026-05-03T12:16:04Z</time></trkpt><trkpt lat="43.1400167327146" lon="18.917034324076628"><ele>1521.0</ele><time>2026-05-03T12:16:06Z</time></trkpt><trkpt lat="43.139962379179174" lon="18.916921136771183"><ele>1521.0</ele><time>2026-05-03T12:16:08Z</time></trkpt><trkpt lat="43.1398990137781" lon="18.916810033594626"><ele>1521.0</ele><time>2026-05-03T12:16:10Z</time></trkpt><trkpt lat="43.13985537452111" lon="18.916690603891272"><ele>1521.0</ele><time>2026-05-03T12:16:12Z</time></trkpt><trkpt lat="43.13986375845669" lon="18.91659993520288"><ele>1521.0</ele><time>2026-05-03T12:16:14Z</time></trkpt><trkpt lat="43.139814270173275" lon="18.91652320879004"><ele>1521.0</ele><time>2026-05-03T12:16:17Z</time></trkpt><trkpt lat="43.1397678876399" lon="18.916589605563875"><ele>1521.0</ele><time>2026-05-03T12:16:20Z</time></trkpt><trkpt lat="43.13972345998586" lon="18.916668560494298"><ele>1515.8333333333333</ele><time>2026-05-03T12:17:28Z</time></trkpt><trkpt lat="43.139685142755944" lon="18.916599940287004"><ele>1510.6666666666667</ele><time>2026-05-03T12:18:17Z</time></trkpt><trkpt lat="43.13976750625228" lon="18.91660565209577"><ele>1505.5</ele><time>2026-05-03T12:20:06Z</time></trkpt><trkpt lat="43.13974687809702" lon="18.91668968583371"><ele>1500.3333333333335</ele><time>2026-05-03T12:20:08Z</time></trkpt><trkpt lat="43.13977671687501" lon="18.916847844548936"><ele>1495.1666666666667</ele><time>2026-05-03T12:20:10Z</time></trkpt><trkpt lat="43.139798561644604" lon="18.91697096781343"><ele>1490.0</ele><time>2026-05-03T12:20:11Z</time></trkpt><trkpt lat="43.13981297457845" lon="18.917103988530325"><ele>1490.0</ele><time>2026-05-03T12:20:12Z</time></trkpt><trkpt lat="43.139811645500984" lon="18.91724128744917"><ele>1490.0</ele><time>2026-05-03T12:20:13Z</time></trkpt><trkpt lat="43.13979816349734" lon="18.91734364942401"><ele>1490.0</ele><time>2026-05-03T12:20:14Z</time></trkpt><trkpt lat="43.13976470007899" lon="18.917436646620597"><ele>1490.0</ele><time>2026-05-03T12:20:15Z</time></trkpt><trkpt lat="43.13972035180917" lon="18.917504697670992"><ele>1490.0</ele><time>2026-05-03T12:20:16Z</time></trkpt><trkpt lat="43.13965092347414" lon="18.917622891248335"><ele>1490.0</ele><time>2026-05-03T12:20:18Z</time></trkpt><trkpt lat="43.139624103558845" lon="18.91770775327372"><ele>1493.3333333333335</ele><time>2026-05-03T12:20:19Z</time></trkpt><trkpt lat="43.1395998094977" lon="18.91782114173984"><ele>1496.6666666666667</ele><time>2026-05-03T12:20:20Z</time></trkpt><trkpt lat="43.139576310530245" lon="18.917964279655504"><ele>1500.0</ele><time>2026-05-03T12:20:21Z</time></trkpt><trkpt lat="43.13956023918002" lon="18.918098206960693"><ele>1503.3333333333333</ele><time>2026-05-03T12:20:22Z</time></trkpt><trkpt lat="43.139553766802464" lon="18.91818676020135"><ele>1506.6666666666665</ele><time>2026-05-03T12:20:23Z</time></trkpt><trkpt lat="43.13954409098438" lon="18.918283235964246"><ele>1510.0</ele><time>2026-05-03T12:20:24Z</time></trkpt><trkpt lat="43.13952488339516" lon="18.91839573454106"><ele>1513.6666666666665</ele><time>2026-05-03T12:20:25Z</time></trkpt><trkpt lat="43.13950395127373" lon="18.918502626571037"><ele>1517.3333333333333</ele><time>2026-05-03T12:20:26Z</time></trkpt><trkpt lat="43.13948092832233" lon="18.918627414870983"><ele>1521.0</ele><time>2026-05-03T12:20:27Z</time></trkpt><trkpt lat="43.13945185381696" lon="18.918746817437345"><ele>1524.6666666666667</ele><time>2026-05-03T12:20:28Z</time></trkpt><trkpt lat="43.13942366167913" lon="18.918858118105337"><ele>1528.3333333333335</ele><time>2026-05-03T12:20:29Z</time></trkpt><trkpt lat="43.13939963527059" lon="18.918968664922243"><ele>1532.0</ele><time>2026-05-03T12:20:30Z</time></trkpt><trkpt lat="43.139372350747024" lon="18.919084945095054"><ele>1532.0</ele><time>2026-05-03T12:20:31Z</time></trkpt><trkpt lat="43.13934557456608" lon="18.919201154723943"><ele>1532.0</ele><time>2026-05-03T12:20:32Z</time></trkpt><trkpt lat="43.139317529682366" lon="18.919344583975192"><ele>1532.0</ele><time>2026-05-03T12:20:33Z</time></trkpt><trkpt lat="43.139293030328105" lon="18.91947758238538"><ele>1532.0</ele><time>2026-05-03T12:20:34Z</time></trkpt><trkpt lat="43.139274690168556" lon="18.919610852644084"><ele>1532.0</ele><time>2026-05-03T12:20:35Z</time></trkpt><trkpt lat="43.139263810663415" lon="18.91975224081545"><ele>1534.1999999999998</ele><time>2026-05-03T12:20:36Z</time></trkpt><trkpt lat="43.13925152513324" lon="18.919893895374464"><ele>1536.4</ele><time>2026-05-03T12:20:37Z</time></trkpt><trkpt lat="43.139232961325725" lon="18.920011369475684"><ele>1538.6</ele><time>2026-05-03T12:20:38Z</time></trkpt><trkpt lat="43.1392194107598" lon="18.92011403805886"><ele>1540.8000000000002</ele><time>2026-05-03T12:20:39Z</time></trkpt><trkpt lat="43.13921633490229" lon="18.920211959120795"><ele>1543.0</ele><time>2026-05-03T12:20:40Z</time></trkpt><trkpt lat="43.13924888877791" lon="18.920387714142755"><ele>1543.0000000000002</ele><time>2026-05-03T12:20:42Z</time></trkpt><trkpt lat="43.13927779774218" lon="18.92047669046417"><ele>1543.0</ele><time>2026-05-03T12:20:43Z</time></trkpt><trkpt lat="43.13930564986604" lon="18.92056049049959"><ele>1543.0</ele><time>2026-05-03T12:20:44Z</time></trkpt><trkpt lat="43.13934680515578" lon="18.920724314056876"><ele>1543.0</ele><time>2026-05-03T12:20:46Z</time></trkpt><trkpt lat="43.13937172762905" lon="18.920812883333586"><ele>1543.0000000000002</ele><time>2026-05-03T12:20:47Z</time></trkpt><trkpt lat="43.139402971477296" lon="18.92090528740005"><ele>1543.0</ele><time>2026-05-03T12:20:48Z</time></trkpt><trkpt lat="43.13942345373901" lon="18.92099650342138"><ele>1543.0000000000002</ele><time>2026-05-03T12:20:49Z</time></trkpt><trkpt lat="43.1394443171811" lon="18.92108844232956"><ele>1543.0</ele><time>2026-05-03T12:20:50Z</time></trkpt><trkpt lat="43.139463161754136" lon="18.92118812892708"><ele>1543.0</ele><time>2026-05-03T12:20:51Z</time></trkpt><trkpt lat="43.13948470655901" lon="18.921280864893255"><ele>1543.0</ele><time>2026-05-03T12:20:52Z</time></trkpt><trkpt lat="43.13951145681577" lon="18.92136582156614"><ele>1543.0000000000002</ele><time>2026-05-03T12:20:53Z</time></trkpt><trkpt lat="43.139569854332635" lon="18.921526250308418"><ele>1543.0</ele><time>2026-05-03T12:20:55Z</time></trkpt><trkpt lat="43.13960017765519" lon="18.92160948417976"><ele>1543.5000000000002</ele><time>2026-05-03T12:20:56Z</time></trkpt><trkpt lat="43.13962339860719" lon="18.92169348378553"><ele>1544.0</ele><time>2026-05-03T12:20:57Z</time></trkpt><trkpt lat="43.13967039053802" lon="18.92185676956596"><ele>1544.5</ele><time>2026-05-03T12:20:59Z</time></trkpt><trkpt lat="43.139695655757066" lon="18.921941600461917"><ele>1545.0</ele><time>2026-05-03T12:21:00Z</time></trkpt><trkpt lat="43.13971921665149" lon="18.922023730613734"><ele>1545.5000000000002</ele><time>2026-05-03T12:21:02Z</time></trkpt><trkpt lat="43.139728639596804" lon="18.922163024303046"><ele>1546.0</ele><time>2026-05-03T12:22:24Z</time></trkpt><trkpt lat="43.13973712777866" lon="18.92227005174789"><ele>1546.0</ele><time>2026-05-03T12:22:25Z</time></trkpt><trkpt lat="43.139752284690935" lon="18.922415914443167"><ele>1546.0</ele><time>2026-05-03T12:22:26Z</time></trkpt><trkpt lat="43.13976571103045" lon="18.922553313395063"><ele>1546.0</ele><time>2026-05-03T12:22:27Z</time></trkpt><trkpt lat="43.13980232014178" lon="18.922762671038523"><ele>1546.0</ele><time>2026-05-03T12:22:29Z</time></trkpt><trkpt lat="43.13983269703556" lon="18.922891260854392"><ele>1547.0</ele><time>2026-05-03T12:22:30Z</time></trkpt><trkpt lat="43.13987410247052" lon="18.923015712090418"><ele>1548.0</ele><time>2026-05-03T12:22:31Z</time></trkpt><trkpt lat="43.139909358661505" lon="18.923144219266963"><ele>1549.0</ele><time>2026-05-03T12:22:32Z</time></trkpt><trkpt lat="43.139938057155234" lon="18.923289157869743"><ele>1550.0</ele><time>2026-05-03T12:22:33Z</time></trkpt><trkpt lat="43.13996611021964" lon="18.92344393192407"><ele>1551.0</ele><time>2026-05-03T12:22:34Z</time></trkpt><trkpt lat="43.13999110163431" lon="18.923568447627908"><ele>1551.5</ele><time>2026-05-03T12:22:35Z</time></trkpt><trkpt lat="43.14001416132684" lon="18.923687387604456"><ele>1552.0</ele><time>2026-05-03T12:22:36Z</time></trkpt><trkpt lat="43.14003722513498" lon="18.92379079369909"><ele>1552.5</ele><time>2026-05-03T12:22:37Z</time></trkpt><trkpt lat="43.140064013160675" lon="18.923901737281554"><ele>1553.0</ele><time>2026-05-03T12:22:38Z</time></trkpt><trkpt lat="43.140092504614096" lon="18.924032061546924"><ele>1553.5</ele><time>2026-05-03T12:22:39Z</time></trkpt><trkpt lat="43.14011481275658" lon="18.924129497470105"><ele>1554.0</ele><time>2026-05-03T12:22:40Z</time></trkpt><trkpt lat="43.140133418947805" lon="18.924238671951706"><ele>1554.6</ele><time>2026-05-03T12:22:41Z</time></trkpt><trkpt lat="43.14014778563385" lon="18.92436401143455"><ele>1555.2</ele><time>2026-05-03T12:22:42Z</time></trkpt><trkpt lat="43.14016355516677" lon="18.92450151345884"><ele>1555.8</ele><time>2026-05-03T12:22:43Z</time></trkpt><trkpt lat="43.14018038528242" lon="18.924633417678688"><ele>1556.3999999999999</ele><time>2026-05-03T12:22:44Z</time></trkpt><trkpt lat="43.140194393246716" lon="18.92477638008375"><ele>1557.0</ele><time>2026-05-03T12:22:45Z</time></trkpt><trkpt lat="43.14020602261829" lon="18.924904955415723"><ele>1557.0</ele><time>2026-05-03T12:22:46Z</time></trkpt><trkpt lat="43.14022114459637" lon="18.92503934141163"><ele>1557.0</ele><time>2026-05-03T12:22:47Z</time></trkpt><trkpt lat="43.14023405617" lon="18.925187085326236"><ele>1557.0</ele><time>2026-05-03T12:22:48Z</time></trkpt><trkpt lat="43.14025197479187" lon="18.925327210266417"><ele>1557.0</ele><time>2026-05-03T12:22:49Z</time></trkpt><trkpt lat="43.14027142857367" lon="18.9254596580333"><ele>1557.0</ele><time>2026-05-03T12:22:50Z</time></trkpt><trkpt lat="43.140291768969675" lon="18.925594824786213"><ele>1557.6</ele><time>2026-05-03T12:22:51Z</time></trkpt><trkpt lat="43.140306336593376" lon="18.925723679005042"><ele>1558.1999999999998</ele><time>2026-05-03T12:22:52Z</time></trkpt><trkpt lat="43.140319303786285" lon="18.925841425501638"><ele>1558.8</ele><time>2026-05-03T12:22:53Z</time></trkpt><trkpt lat="43.14032604648039" lon="18.925944844532754"><ele>1559.4</ele><time>2026-05-03T12:22:54Z</time></trkpt><trkpt lat="43.14033167635824" lon="18.92603646902926"><ele>1560.0</ele><time>2026-05-03T12:22:55Z</time></trkpt><trkpt lat="43.14035245129695" lon="18.92620736865992"><ele>1560.0</ele><time>2026-05-03T12:22:57Z</time></trkpt><trkpt lat="43.140367056175094" lon="18.926316975259603"><ele>1560.0</ele><time>2026-05-03T12:22:58Z</time></trkpt><trkpt lat="43.14038428259061" lon="18.926428544598163"><ele>1560.0</ele><time>2026-05-03T12:22:59Z</time></trkpt><trkpt lat="43.140407601290704" lon="18.926546332477564"><ele>1560.0</ele><time>2026-05-03T12:23:00Z</time></trkpt><trkpt lat="43.140438975716876" lon="18.926663755443336"><ele>1560.0</ele><time>2026-05-03T12:23:01Z</time></trkpt><trkpt lat="43.14046563862949" lon="18.926768860917743"><ele>1560.0</ele><time>2026-05-03T12:23:02Z</time></trkpt><trkpt lat="43.140486493239216" lon="18.926880406689854"><ele>1560.0</ele><time>2026-05-03T12:23:03Z</time></trkpt><trkpt lat="43.14050711554779" lon="18.92698503016025"><ele>1560.0</ele><time>2026-05-03T12:23:04Z</time></trkpt><trkpt lat="43.1405264066054" lon="18.927096222924526"><ele>1560.0</ele><time>2026-05-03T12:23:05Z</time></trkpt><trkpt lat="43.1405417333569" lon="18.927206421264952"><ele>1560.0</ele><time>2026-05-03T12:23:06Z</time></trkpt><trkpt lat="43.1405537069485" lon="18.927312513796817"><ele>1560.0</ele><time>2026-05-03T12:23:07Z</time></trkpt><trkpt lat="43.140553803154944" lon="18.92740102678019"><ele>1560.0</ele><time>2026-05-03T12:23:08Z</time></trkpt><trkpt lat="43.14055483569738" lon="18.92750211232864"><ele>1560.3333333333333</ele><time>2026-05-03T12:23:09Z</time></trkpt><trkpt lat="43.140557011123605" lon="18.92760763957937"><ele>1560.6666666666665</ele><time>2026-05-03T12:23:10Z</time></trkpt><trkpt lat="43.140558867391455" lon="18.927715531394725"><ele>1561.0</ele><time>2026-05-03T12:23:11Z</time></trkpt><trkpt lat="43.140558232281336" lon="18.9278295713957"><ele>1561.3333333333333</ele><time>2026-05-03T12:23:12Z</time></trkpt><trkpt lat="43.140557401562305" lon="18.927940263754543"><ele>1561.6666666666665</ele><time>2026-05-03T12:23:13Z</time></trkpt><trkpt lat="43.140560013611086" lon="18.92805859831262"><ele>1562.0</ele><time>2026-05-03T12:23:14Z</time></trkpt><trkpt lat="43.1405609116954" lon="18.92817494236988"><ele>1562.0</ele><time>2026-05-03T12:23:15Z</time></trkpt><trkpt lat="43.14056702136468" lon="18.928295641619453"><ele>1562.0</ele><time>2026-05-03T12:23:16Z</time></trkpt><trkpt lat="43.14057406365847" lon="18.928426908682162"><ele>1562.0</ele><time>2026-05-03T12:23:17Z</time></trkpt><trkpt lat="43.14058073556164" lon="18.92856485387471"><ele>1562.0</ele><time>2026-05-03T12:23:18Z</time></trkpt><trkpt lat="43.14058265267699" lon="18.9286835130046"><ele>1562.0</ele><time>2026-05-03T12:23:19Z</time></trkpt><trkpt lat="43.140584030397825" lon="18.92881208062631"><ele>1562.8</ele><time>2026-05-03T12:23:20Z</time></trkpt><trkpt lat="43.14058338120857" lon="18.928954678017412"><ele>1563.6</ele><time>2026-05-03T12:23:21Z</time></trkpt><trkpt lat="43.140583931287814" lon="18.929092582500296"><ele>1564.3999999999999</ele><time>2026-05-03T12:23:22Z</time></trkpt><trkpt lat="43.14058689427567" lon="18.929208244536902"><ele>1565.1999999999998</ele><time>2026-05-03T12:23:23Z</time></trkpt><trkpt lat="43.140587114712815" lon="18.92933662036698"><ele>1566.0</ele><time>2026-05-03T12:23:24Z</time></trkpt><trkpt lat="43.14059126577884" lon="18.929463724520907"><ele>1567.5</ele><time>2026-05-03T12:23:25Z</time></trkpt><trkpt lat="43.14059109820458" lon="18.929576723806004"><ele>1569.0</ele><time>2026-05-03T12:23:26Z</time></trkpt><trkpt lat="43.140589174009705" lon="18.92967811719471"><ele>1570.5</ele><time>2026-05-03T12:23:27Z</time></trkpt><trkpt lat="43.14059120483774" lon="18.929768401791016"><ele>1572.0</ele><time>2026-05-03T12:23:28Z</time></trkpt><trkpt lat="43.140595481306406" lon="18.92986164439903"><ele>1573.5</ele><time>2026-05-03T12:23:29Z</time></trkpt><trkpt lat="43.14059452394827" lon="18.92995559891024"><ele>1575.0</ele><time>2026-05-03T12:23:30Z</time></trkpt><trkpt lat="43.14060122763484" lon="18.930112510821317"><ele>1575.8333333333333</ele><time>2026-05-03T12:23:32Z</time></trkpt><trkpt lat="43.14059727373753" lon="18.930212319540267"><ele>1576.6666666666665</ele><time>2026-05-03T12:23:34Z</time></trkpt><trkpt lat="43.14054805100925" lon="18.930303638191"><ele>1577.5</ele><time>2026-05-03T12:23:36Z</time></trkpt><trkpt lat="43.14051646260683" lon="18.930391009290204"><ele>1578.3333333333333</ele><time>2026-05-03T12:23:38Z</time></trkpt><trkpt lat="43.14047667474493" lon="18.930475120766378"><ele>1579.1666666666665</ele><time>2026-05-03T12:23:40Z</time></trkpt><trkpt lat="43.14048585864869" lon="18.93064541739211"><ele>1580.0</ele><time>2026-05-03T12:23:42Z</time></trkpt><trkpt lat="43.14048450995161" lon="18.930741672460883"><ele>1579.9999999999998</ele><time>2026-05-03T12:23:43Z</time></trkpt><trkpt lat="43.14049216075562" lon="18.930851441823133"><ele>1580.0</ele><time>2026-05-03T12:23:44Z</time></trkpt><trkpt lat="43.14048482580575" lon="18.930968515100687"><ele>1580.0</ele><time>2026-05-03T12:23:45Z</time></trkpt><trkpt lat="43.14048627311473" lon="18.931091241796373"><ele>1580.0</ele><time>2026-05-03T12:23:46Z</time></trkpt><trkpt lat="43.140487797914545" lon="18.931220539519707"><ele>1579.9999999999998</ele><time>2026-05-03T12:23:47Z</time></trkpt><trkpt lat="43.1404892408525" lon="18.931342895972552"><ele>1580.0</ele><time>2026-05-03T12:23:48Z</time></trkpt><trkpt lat="43.1404766446452" lon="18.931464202725415"><ele>1580.6</ele><time>2026-05-03T12:23:49Z</time></trkpt><trkpt lat="43.14044978325228" lon="18.931594088483553"><ele>1581.2</ele><time>2026-05-03T12:23:50Z</time></trkpt><trkpt lat="43.14042131819139" lon="18.931731214436965"><ele>1581.8000000000002</ele><time>2026-05-03T12:23:51Z</time></trkpt><trkpt lat="43.14038328320075" lon="18.931868485528664"><ele>1582.4</ele><time>2026-05-03T12:23:52Z</time></trkpt><trkpt lat="43.140357179779826" lon="18.932010176171627"><ele>1583.0</ele><time>2026-05-03T12:23:53Z</time></trkpt><trkpt lat="43.14031527257758" lon="18.932149244718783"><ele>1584.4</ele><time>2026-05-03T12:23:54Z</time></trkpt><trkpt lat="43.14027451525364" lon="18.932291075105166"><ele>1585.8000000000002</ele><time>2026-05-03T12:23:55Z</time></trkpt><trkpt lat="43.140236234453" lon="18.93242950516102"><ele>1587.2</ele><time>2026-05-03T12:23:56Z</time></trkpt><trkpt lat="43.140204534285694" lon="18.93255501252308"><ele>1588.6</ele><time>2026-05-03T12:23:57Z</time></trkpt><trkpt lat="43.140168748176485" lon="18.932681480066265"><ele>1590.0</ele><time>2026-05-03T12:23:58Z</time></trkpt><trkpt lat="43.140132557679095" lon="18.93279947814488"><ele>1591.4</ele><time>2026-05-03T12:23:59Z</time></trkpt><trkpt lat="43.140098995958304" lon="18.932917469347274"><ele>1592.8</ele><time>2026-05-03T12:24:00Z</time></trkpt><trkpt lat="43.140070895178994" lon="18.93304443500069"><ele>1594.1999999999998</ele><time>2026-05-03T12:24:01Z</time></trkpt><trkpt lat="43.1400316272076" lon="18.933178489547497"><ele>1595.6</ele><time>2026-05-03T12:24:02Z</time></trkpt><trkpt lat="43.14003369803798" lon="18.933329605304465"><ele>1597.0</ele><time>2026-05-03T12:24:03Z</time></trkpt><trkpt lat="43.140027043112894" lon="18.93348825499091"><ele>1597.5</ele><time>2026-05-03T12:24:04Z</time></trkpt><trkpt lat="43.14002339801699" lon="18.933652656737408"><ele>1598.0</ele><time>2026-05-03T12:24:05Z</time></trkpt><trkpt lat="43.14000386478977" lon="18.933810062775652"><ele>1598.5</ele><time>2026-05-03T12:24:06Z</time></trkpt><trkpt lat="43.14000050129646" lon="18.933958595828404"><ele>1599.0</ele><time>2026-05-03T12:24:07Z</time></trkpt><trkpt lat="43.13999712879495" lon="18.93410770062578"><ele>1600.25</ele><time>2026-05-03T12:24:08Z</time></trkpt><trkpt lat="43.139993621788975" lon="18.934262751619283"><ele>1601.5</ele><time>2026-05-03T12:24:09Z</time></trkpt><trkpt lat="43.139990040504635" lon="18.934421087287042"><ele>1602.75</ele><time>2026-05-03T12:24:10Z</time></trkpt><trkpt lat="43.139984956749224" lon="18.93458128677398"><ele>1604.0</ele><time>2026-05-03T12:24:11Z</time></trkpt><trkpt lat="43.139978926725625" lon="18.93473904128476"><ele>1604.0</ele><time>2026-05-03T12:24:12Z</time></trkpt><trkpt lat="43.13997222384838" lon="18.934896570005055"><ele>1604.0</ele><time>2026-05-03T12:24:13Z</time></trkpt><trkpt lat="43.13996589457129" lon="18.935055542065072"><ele>1604.0</ele><time>2026-05-03T12:24:14Z</time></trkpt><trkpt lat="43.13995964610013" lon="18.935212945142926"><ele>1604.0</ele><time>2026-05-03T12:24:15Z</time></trkpt><trkpt lat="43.13995278077841" lon="18.93537154708519"><ele>1603.0</ele><time>2026-05-03T12:24:16Z</time></trkpt><trkpt lat="43.13993542027098" lon="18.93551685895164"><ele>1602.0</ele><time>2026-05-03T12:24:17Z</time></trkpt><trkpt lat="43.139912351959616" lon="18.93566505201221"><ele>1601.0</ele><time>2026-05-03T12:24:18Z</time></trkpt><trkpt lat="43.13987732427131" lon="18.935811748656576"><ele>1600.0</ele><time>2026-05-03T12:24:19Z</time></trkpt><trkpt lat="43.13984190265117" lon="18.93596152098152"><ele>1599.0</ele><time>2026-05-03T12:24:20Z</time></trkpt><trkpt lat="43.139805824118795" lon="18.9361140542983"><ele>1599.0</ele><time>2026-05-03T12:24:21Z</time></trkpt><trkpt lat="43.13977037207165" lon="18.93626336007086"><ele>1599.0</ele><time>2026-05-03T12:24:22Z</time></trkpt><trkpt lat="43.13973343019657" lon="18.93641732286384"><ele>1599.0</ele><time>2026-05-03T12:24:23Z</time></trkpt><trkpt lat="43.13971020723303" lon="18.936575546614478"><ele>1599.0</ele><time>2026-05-03T12:24:24Z</time></trkpt><trkpt lat="43.13967326079321" lon="18.936723138394854"><ele>1601.5</ele><time>2026-05-03T12:24:25Z</time></trkpt><trkpt lat="43.1396367848899" lon="18.936870050979813"><ele>1604.0</ele><time>2026-05-03T12:24:26Z</time></trkpt><trkpt lat="43.13960222737728" lon="18.937017601572887"><ele>1606.5</ele><time>2026-05-03T12:24:27Z</time></trkpt><trkpt lat="43.139571068119665" lon="18.93717050816012"><ele>1609.0</ele><time>2026-05-03T12:24:28Z</time></trkpt><trkpt lat="43.139534432355354" lon="18.937321187546527"><ele>1609.0</ele><time>2026-05-03T12:24:29Z</time></trkpt><trkpt lat="43.1395438548224" lon="18.937485051033455"><ele>1609.0</ele><time>2026-05-03T12:24:30Z</time></trkpt><trkpt lat="43.139538556524" lon="18.937633814416273"><ele>1609.0</ele><time>2026-05-03T12:24:31Z</time></trkpt><trkpt lat="43.13952464147644" lon="18.93777988409436"><ele>1609.0</ele><time>2026-05-03T12:24:32Z</time></trkpt><trkpt lat="43.139489420922004" lon="18.937915694454514"><ele>1609.0</ele><time>2026-05-03T12:24:33Z</time></trkpt><trkpt lat="43.139434812855015" lon="18.938041649310946"><ele>1611.2</ele><time>2026-05-03T12:24:34Z</time></trkpt><trkpt lat="43.139366243274104" lon="18.938160420483275"><ele>1613.4</ele><time>2026-05-03T12:24:35Z</time></trkpt><trkpt lat="43.13929494834362" lon="18.938263369683554"><ele>1615.6</ele><time>2026-05-03T12:24:36Z</time></trkpt><trkpt lat="43.139223626367595" lon="18.938362076178233"><ele>1617.8</ele><time>2026-05-03T12:24:37Z</time></trkpt><trkpt lat="43.13915440100164" lon="18.93846941304321"><ele>1620.0</ele><time>2026-05-03T12:24:38Z</time></trkpt><trkpt lat="43.13908201940845" lon="18.93857906619671"><ele>1618.0</ele><time>2026-05-03T12:24:39Z</time></trkpt><trkpt lat="43.13900108626231" lon="18.93868844909114"><ele>1616.0</ele><time>2026-05-03T12:24:40Z</time></trkpt><trkpt lat="43.13892089801404" lon="18.938801263246205"><ele>1614.0</ele><time>2026-05-03T12:24:41Z</time></trkpt><trkpt lat="43.138835248253855" lon="18.938888348544378"><ele>1612.0</ele><time>2026-05-03T12:24:42Z</time></trkpt><trkpt lat="43.13878685435674" lon="18.93899228674085"><ele>1610.0</ele><time>2026-05-03T12:24:43Z</time></trkpt><trkpt lat="43.13874088317963" lon="18.939075204109137"><ele>1610.0</ele><time>2026-05-03T12:24:44Z</time></trkpt><trkpt lat="43.13870423135302" lon="18.939166585013286"><ele>1610.0</ele><time>2026-05-03T12:24:45Z</time></trkpt><trkpt lat="43.13867540064256" lon="18.939276920439557"><ele>1610.0</ele><time>2026-05-03T12:24:46Z</time></trkpt><trkpt lat="43.13864926544417" lon="18.939403004260075"><ele>1610.0</ele><time>2026-05-03T12:24:47Z</time></trkpt><trkpt lat="43.13861528682822" lon="18.939520542347676"><ele>1610.0</ele><time>2026-05-03T12:24:48Z</time></trkpt><trkpt lat="43.13859263287317" lon="18.939655193747832"><ele>1611.8</ele><time>2026-05-03T12:24:49Z</time></trkpt><trkpt lat="43.13858419799301" lon="18.939804097525993"><ele>1613.6</ele><time>2026-05-03T12:24:50Z</time></trkpt><trkpt lat="43.13856062041795" lon="18.93993578311306"><ele>1615.4</ele><time>2026-05-03T12:24:51Z</time></trkpt><trkpt lat="43.1385394141254" lon="18.940075876461208"><ele>1617.2</ele><time>2026-05-03T12:24:52Z</time></trkpt><trkpt lat="43.138538132376574" lon="18.940223688646938"><ele>1619.0</ele><time>2026-05-03T12:24:53Z</time></trkpt><trkpt lat="43.13855901694076" lon="18.94036714528199"><ele>1621.25</ele><time>2026-05-03T12:24:54Z</time></trkpt><trkpt lat="43.13859468110896" lon="18.94050879687963"><ele>1623.5</ele><time>2026-05-03T12:24:55Z</time></trkpt><trkpt lat="43.13864038261955" lon="18.940653101206838"><ele>1625.75</ele><time>2026-05-03T12:24:56Z</time></trkpt><trkpt lat="43.13869127794848" lon="18.94079927973206"><ele>1628.0</ele><time>2026-05-03T12:24:57Z</time></trkpt><trkpt lat="43.138756158135735" lon="18.94093134347661"><ele>1629.8000000000002</ele><time>2026-05-03T12:24:58Z</time></trkpt><trkpt lat="43.13881758039597" lon="18.941057109760656"><ele>1631.6</ele><time>2026-05-03T12:24:59Z</time></trkpt><trkpt lat="43.13885860041994" lon="18.941171629663565"><ele>1633.4</ele><time>2026-05-03T12:25:00Z</time></trkpt><trkpt lat="43.13885364661819" lon="18.94129681421883"><ele>1635.1999999999998</ele><time>2026-05-03T12:25:01Z</time></trkpt><trkpt lat="43.13884722823256" lon="18.941419197096433"><ele>1637.0</ele><time>2026-05-03T12:25:02Z</time></trkpt><trkpt lat="43.13876230288459" lon="18.941513098090592"><ele>1636.9999999999998</ele><time>2026-05-03T12:25:03Z</time></trkpt><trkpt lat="43.138703425455034" lon="18.941604511581783"><ele>1637.0</ele><time>2026-05-03T12:25:04Z</time></trkpt><trkpt lat="43.13864890493103" lon="18.94170613163022"><ele>1637.0</ele><time>2026-05-03T12:25:05Z</time></trkpt><trkpt lat="43.13856875908871" lon="18.94174274747502"><ele>1637.0</ele><time>2026-05-03T12:25:06Z</time></trkpt><trkpt lat="43.13848190970634" lon="18.941714697520336"><ele>1636.9999999999998</ele><time>2026-05-03T12:25:07Z</time></trkpt><trkpt lat="43.13840915383465" lon="18.94167923458488"><ele>1637.0</ele><time>2026-05-03T12:25:08Z</time></trkpt><trkpt lat="43.13839261494084" lon="18.94153067130789"><ele>1637.0</ele><time>2026-05-03T12:25:09Z</time></trkpt><trkpt lat="43.13835852863781" lon="18.941421183476457"><ele>1637.0</ele><time>2026-05-03T12:25:10Z</time></trkpt><trkpt lat="43.1383008304514" lon="18.94131312781225"><ele>1637.0</ele><time>2026-05-03T12:25:11Z</time></trkpt><trkpt lat="43.13820252889367" lon="18.94122849617523"><ele>1637.0</ele><time>2026-05-03T12:25:12Z</time></trkpt><trkpt lat="43.13809789361062" lon="18.94111672162269"><ele>1637.0</ele><time>2026-05-03T12:25:13Z</time></trkpt><trkpt lat="43.13799212248523" lon="18.940990779133696"><ele>1637.1999999999998</ele><time>2026-05-03T12:25:14Z</time></trkpt><trkpt lat="43.137904615633374" lon="18.940888422149772"><ele>1637.4</ele><time>2026-05-03T12:25:15Z</time></trkpt><trkpt lat="43.1378195610921" lon="18.9408176843793"><ele>1637.6</ele><time>2026-05-03T12:25:16Z</time></trkpt><trkpt lat="43.137728450324474" lon="18.940768875408693"><ele>1637.8000000000002</ele><time>2026-05-03T12:25:17Z</time></trkpt><trkpt lat="43.13763264196299" lon="18.940722388703648"><ele>1638.0</ele><time>2026-05-03T12:25:18Z</time></trkpt><trkpt lat="43.13753736307181" lon="18.9406865577468"><ele>1638.0</ele><time>2026-05-03T12:25:19Z</time></trkpt><trkpt lat="43.13744471043351" lon="18.9406534598509"><ele>1638.0</ele><time>2026-05-03T12:25:20Z</time></trkpt><trkpt lat="43.1373517296415" lon="18.940625028841886"><ele>1638.0</ele><time>2026-05-03T12:25:21Z</time></trkpt><trkpt lat="43.1372628422336" lon="18.940597064168436"><ele>1638.0</ele><time>2026-05-03T12:25:22Z</time></trkpt><trkpt lat="43.137174764068774" lon="18.940562893519168"><ele>1638.0</ele><time>2026-05-03T12:25:23Z</time></trkpt><trkpt lat="43.137109266453685" lon="18.940512510914505"><ele>1638.0</ele><time>2026-05-03T12:25:24Z</time></trkpt><trkpt lat="43.137026204955276" lon="18.940543796059522"><ele>1639.0</ele><time>2026-05-03T12:25:25Z</time></trkpt><trkpt lat="43.13694952360553" lon="18.9405696980814"><ele>1640.0</ele><time>2026-05-03T12:25:26Z</time></trkpt><trkpt lat="43.13686730125718" lon="18.940633224768586"><ele>1641.0</ele><time>2026-05-03T12:25:27Z</time></trkpt><trkpt lat="43.136788745051874" lon="18.940703542524524"><ele>1642.0</ele><time>2026-05-03T12:25:28Z</time></trkpt><trkpt lat="43.136703130221946" lon="18.940775507042503"><ele>1643.0</ele><time>2026-05-03T12:25:29Z</time></trkpt><trkpt lat="43.13661205931998" lon="18.940850722882928"><ele>1641.4</ele><time>2026-05-03T12:25:30Z</time></trkpt><trkpt lat="43.13652846727253" lon="18.940933192412444"><ele>1639.8000000000002</ele><time>2026-05-03T12:25:31Z</time></trkpt><trkpt lat="43.136460202094966" lon="18.941035255507227"><ele>1638.2</ele><time>2026-05-03T12:25:32Z</time></trkpt><trkpt lat="43.136406568127036" lon="18.9411542740063"><ele>1636.6</ele><time>2026-05-03T12:25:33Z</time></trkpt><trkpt lat="43.13637036588714" lon="18.941285300196338"><ele>1635.0</ele><time>2026-05-03T12:25:34Z</time></trkpt><trkpt lat="43.13633343205628" lon="18.941428164687757"><ele>1635.0</ele><time>2026-05-03T12:25:35Z</time></trkpt><trkpt lat="43.13630608312497" lon="18.941563994462328"><ele>1635.0</ele><time>2026-05-03T12:25:36Z</time></trkpt><trkpt lat="43.136290891705656" lon="18.94168340908868"><ele>1635.0</ele><time>2026-05-03T12:25:37Z</time></trkpt><trkpt lat="43.13627851080557" lon="18.941794150909693"><ele>1635.0</ele><time>2026-05-03T12:25:38Z</time></trkpt><trkpt lat="43.13626788663373" lon="18.941884017256346"><ele>1635.0</ele><time>2026-05-03T12:25:39Z</time></trkpt><trkpt lat="43.13625695086349" lon="18.942035053611267"><ele>1635.6</ele><time>2026-05-03T12:25:41Z</time></trkpt><trkpt lat="43.13627386199844" lon="18.942129789887154"><ele>1636.2</ele><time>2026-05-03T12:25:43Z</time></trkpt><trkpt lat="43.1363291211633" lon="18.9422177550842"><ele>1636.8000000000002</ele><time>2026-05-03T12:25:45Z</time></trkpt><trkpt lat="43.136393668883755" lon="18.942291872633884"><ele>1637.4</ele><time>2026-05-03T12:25:46Z</time></trkpt><trkpt lat="43.136484485617544" lon="18.942368995966614"><ele>1638.0</ele><time>2026-05-03T12:25:47Z</time></trkpt><trkpt lat="43.13658672759435" lon="18.942444421132706"><ele>1646.5</ele><time>2026-05-03T12:25:48Z</time></trkpt><trkpt lat="43.13664981183999" lon="18.942567530818433"><ele>1655.0</ele><time>2026-05-03T12:25:49Z</time></trkpt><trkpt lat="43.13666668643626" lon="18.94271351558984"><ele>1663.5</ele><time>2026-05-03T12:25:50Z</time></trkpt><trkpt lat="43.13668010650039" lon="18.94287245299918"><ele>1672.0</ele><time>2026-05-03T12:25:51Z</time></trkpt><trkpt lat="43.13667615081238" lon="18.9430380005268"><ele>1672.0</ele><time>2026-05-03T12:25:52Z</time></trkpt><trkpt lat="43.136672742241274" lon="18.943213525699946"><ele>1672.0</ele><time>2026-05-03T12:25:53Z</time></trkpt><trkpt lat="43.13660244287905" lon="18.943361947870237"><ele>1672.0</ele><time>2026-05-03T12:25:54Z</time></trkpt><trkpt lat="43.136548838794376" lon="18.943503099326648"><ele>1672.0</ele><time>2026-05-03T12:25:55Z</time></trkpt><trkpt lat="43.13649699130706" lon="18.94362069392608"><ele>1672.8</ele><time>2026-05-03T12:25:56Z</time></trkpt><trkpt lat="43.13639861573652" lon="18.943638729147274"><ele>1673.6</ele><time>2026-05-03T12:25:57Z</time></trkpt><trkpt lat="43.13630636275925" lon="18.943641622281024"><ele>1674.3999999999999</ele><time>2026-05-03T12:25:58Z</time></trkpt><trkpt lat="43.13621616671408" lon="18.94367743654858"><ele>1675.1999999999998</ele><time>2026-05-03T12:25:59Z</time></trkpt><trkpt lat="43.13612187506969" lon="18.94372461235504"><ele>1676.0</ele><time>2026-05-03T12:26:00Z</time></trkpt><trkpt lat="43.13603074004353" lon="18.943811250442298"><ele>1676.0</ele><time>2026-05-03T12:26:01Z</time></trkpt><trkpt lat="43.13593759508947" lon="18.943888718277343"><ele>1676.0</ele><time>2026-05-03T12:26:02Z</time></trkpt><trkpt lat="43.135832820025456" lon="18.943945010746543"><ele>1676.0</ele><time>2026-05-03T12:26:03Z</time></trkpt><trkpt lat="43.13572536375333" lon="18.943983602560813"><ele>1676.0</ele><time>2026-05-03T12:26:04Z</time></trkpt><trkpt lat="43.13561648803531" lon="18.944020244305516"><ele>1676.0</ele><time>2026-05-03T12:26:05Z</time></trkpt><trkpt lat="43.13551852019695" lon="18.944052552822285"><ele>1677.8</ele><time>2026-05-03T12:26:06Z</time></trkpt><trkpt lat="43.13542964766431" lon="18.944087865957115"><ele>1679.6</ele><time>2026-05-03T12:26:07Z</time></trkpt><trkpt lat="43.13534578587554" lon="18.944139502811197"><ele>1681.4</ele><time>2026-05-03T12:26:08Z</time></trkpt><trkpt lat="43.13525093676289" lon="18.944200390939454"><ele>1683.2</ele><time>2026-05-03T12:26:09Z</time></trkpt><trkpt lat="43.135165771068756" lon="18.94428651229193"><ele>1685.0</ele><time>2026-05-03T12:26:10Z</time></trkpt><trkpt lat="43.13507646164023" lon="18.944376782755583"><ele>1685.0</ele><time>2026-05-03T12:26:11Z</time></trkpt><trkpt lat="43.13498631756804" lon="18.944468017169847"><ele>1685.0</ele><time>2026-05-03T12:26:12Z</time></trkpt><trkpt lat="43.134899054522" lon="18.944556503090972"><ele>1685.0</ele><time>2026-05-03T12:26:13Z</time></trkpt><trkpt lat="43.13481659160738" lon="18.94462025086298"><ele>1685.0</ele><time>2026-05-03T12:26:14Z</time></trkpt><trkpt lat="43.1347326931492" lon="18.944679591331504"><ele>1685.0</ele><time>2026-05-03T12:26:15Z</time></trkpt><trkpt lat="43.13464735114711" lon="18.944740062239454"><ele>1682.4</ele><time>2026-05-03T12:26:16Z</time></trkpt><trkpt lat="43.134564024825714" lon="18.94478758094919"><ele>1679.8</ele><time>2026-05-03T12:26:17Z</time></trkpt><trkpt lat="43.1344797390518" lon="18.94482390645629"><ele>1677.1999999999998</ele><time>2026-05-03T12:26:18Z</time></trkpt><trkpt lat="43.134396626856386" lon="18.944850996722316"><ele>1674.6</ele><time>2026-05-03T12:26:19Z</time></trkpt><trkpt lat="43.13432677483848" lon="18.944861721476688"><ele>1672.0</ele><time>2026-05-03T12:26:20Z</time></trkpt><trkpt lat="43.13419490676752" lon="18.944899283728194"><ele>1672.0000000000002</ele><time>2026-05-03T12:26:22Z</time></trkpt><trkpt lat="43.134122498406384" lon="18.94491989037238"><ele>1672.0</ele><time>2026-05-03T12:26:23Z</time></trkpt><trkpt lat="43.13405893617836" lon="18.94496041458791"><ele>1672.0</ele><time>2026-05-03T12:26:24Z</time></trkpt><trkpt lat="43.13401082919249" lon="18.945031295056058"><ele>1672.0</ele><time>2026-05-03T12:26:25Z</time></trkpt><trkpt lat="43.13396861184874" lon="18.945138640349025"><ele>1672.0000000000002</ele><time>2026-05-03T12:26:26Z</time></trkpt><trkpt lat="43.13392982595158" lon="18.945271807593027"><ele>1672.0</ele><time>2026-05-03T12:26:27Z</time></trkpt><trkpt lat="43.13386521610696" lon="18.9453993069523"><ele>1672.8</ele><time>2026-05-03T12:26:28Z</time></trkpt><trkpt lat="43.13382855633712" lon="18.9455319233103"><ele>1673.6</ele><time>2026-05-03T12:26:29Z</time></trkpt><trkpt lat="43.133746873727056" lon="18.945599119551222"><ele>1674.3999999999999</ele><time>2026-05-03T12:26:30Z</time></trkpt><trkpt lat="43.13366541781157" lon="18.94567067244365"><ele>1675.1999999999998</ele><time>2026-05-03T12:26:31Z</time></trkpt><trkpt lat="43.133594345864665" lon="18.945771330319175"><ele>1676.0</ele><time>2026-05-03T12:26:32Z</time></trkpt><trkpt lat="43.133513491645836" lon="18.945843407496785"><ele>1678.8333333333333</ele><time>2026-05-03T12:26:33Z</time></trkpt><trkpt lat="43.133437031885386" lon="18.94592787819887"><ele>1681.6666666666665</ele><time>2026-05-03T12:26:34Z</time></trkpt><trkpt lat="43.13338057484055" lon="18.946021592388114"><ele>1684.5</ele><time>2026-05-03T12:26:35Z</time></trkpt><trkpt lat="43.13335179903613" lon="18.94612012789665"><ele>1687.3333333333335</ele><time>2026-05-03T12:26:36Z</time></trkpt><trkpt lat="43.133350590172235" lon="18.94621807480014"><ele>1690.1666666666667</ele><time>2026-05-03T12:26:37Z</time></trkpt><trkpt lat="43.13336189337812" lon="18.94632717044538"><ele>1693.0</ele><time>2026-05-03T12:26:38Z</time></trkpt><trkpt lat="43.133379070142546" lon="18.94644190573756"><ele>1693.0000000000002</ele><time>2026-05-03T12:26:39Z</time></trkpt><trkpt lat="43.13339247443542" lon="18.946547865173844"><ele>1693.0</ele><time>2026-05-03T12:26:40Z</time></trkpt><trkpt lat="43.133417280578094" lon="18.946652215944244"><ele>1693.0</ele><time>2026-05-03T12:26:41Z</time></trkpt><trkpt lat="43.1334809411535" lon="18.94674276865777"><ele>1693.0</ele><time>2026-05-03T12:26:42Z</time></trkpt><trkpt lat="43.133560605689105" lon="18.946822715243783"><ele>1693.0000000000002</ele><time>2026-05-03T12:26:43Z</time></trkpt><trkpt lat="43.133597404172086" lon="18.94689688002056"><ele>1693.0</ele><time>2026-05-03T12:26:44Z</time></trkpt><trkpt lat="43.13362410396245" lon="18.94704235904485"><ele>1694.3333333333335</ele><time>2026-05-03T12:26:46Z</time></trkpt><trkpt lat="43.133574556656825" lon="18.947112193883363"><ele>1695.6666666666667</ele><time>2026-05-03T12:26:47Z</time></trkpt><trkpt lat="43.13351433484564" lon="18.947172853914882"><ele>1697.0</ele><time>2026-05-03T12:26:48Z</time></trkpt><trkpt lat="43.13346296204213" lon="18.947252836283518"><ele>1698.3333333333335</ele><time>2026-05-03T12:26:49Z</time></trkpt><trkpt lat="43.13344031213158" lon="18.94735814879528"><ele>1699.6666666666667</ele><time>2026-05-03T12:26:50Z</time></trkpt><trkpt lat="43.13345670380007" lon="18.947477146301022"><ele>1701.0</ele><time>2026-05-03T12:26:51Z</time></trkpt><trkpt lat="43.13349711616495" lon="18.947584709329526"><ele>1703.8333333333333</ele><time>2026-05-03T12:26:52Z</time></trkpt><trkpt lat="43.13353831057248" lon="18.947692372159736"><ele>1706.6666666666665</ele><time>2026-05-03T12:26:53Z</time></trkpt><trkpt lat="43.13358224676456" lon="18.947804743134103"><ele>1709.5</ele><time>2026-05-03T12:26:54Z</time></trkpt><trkpt lat="43.133612020780326" lon="18.947900866353034"><ele>1712.3333333333333</ele><time>2026-05-03T12:26:55Z</time></trkpt><trkpt lat="43.133559063559" lon="18.948030208472883"><ele>1715.1666666666665</ele><time>2026-05-03T12:26:57Z</time></trkpt><trkpt lat="43.1334969969048" lon="18.94804796517298"><ele>1718.0</ele><time>2026-05-03T12:26:58Z</time></trkpt><trkpt lat="43.13339236006825" lon="18.94797416056307"><ele>1718.0</ele><time>2026-05-03T12:27:00Z</time></trkpt><trkpt lat="43.1333588387521" lon="18.947889738320967"><ele>1718.0000000000002</ele><time>2026-05-03T12:27:01Z</time></trkpt><trkpt lat="43.13339325050868" lon="18.947750229779196"><ele>1718.0000000000002</ele><time>2026-05-03T12:27:02Z</time></trkpt><trkpt lat="43.13337520195039" lon="18.947615982880706"><ele>1718.0</ele><time>2026-05-03T12:27:03Z</time></trkpt><trkpt lat="43.13330561318772" lon="18.947449837770225"><ele>1718.0</ele><time>2026-05-03T12:27:04Z</time></trkpt><trkpt lat="43.13326641097178" lon="18.94726244015432"><ele>1718.75</ele><time>2026-05-03T12:27:05Z</time></trkpt><trkpt lat="43.133226746976256" lon="18.94704185045564"><ele>1719.5</ele><time>2026-05-03T12:27:06Z</time></trkpt><trkpt lat="43.13318769095492" lon="18.94684676471726"><ele>1720.25</ele><time>2026-05-03T12:27:07Z</time></trkpt><trkpt lat="43.133132286875515" lon="18.94670251247847"><ele>1721.0</ele><time>2026-05-03T12:27:08Z</time></trkpt><trkpt lat="43.13309994466449" lon="18.94657368388123"><ele>1717.4999999999998</ele><time>2026-05-03T12:27:09Z</time></trkpt><trkpt lat="43.13303926557161" lon="18.9464889162352"><ele>1714.0</ele><time>2026-05-03T12:27:10Z</time></trkpt><trkpt lat="43.13301007704848" lon="18.94640755301449"><ele>1710.5</ele><time>2026-05-03T12:27:11Z</time></trkpt><trkpt lat="43.1329426090682" lon="18.946394341210535"><ele>1707.0</ele><time>2026-05-03T12:27:12Z</time></trkpt><trkpt lat="43.13281709790782" lon="18.946407767829847"><ele>1703.4999999999998</ele><time>2026-05-03T12:27:14Z</time></trkpt><trkpt lat="43.13275038628371" lon="18.94648487101473"><ele>1700.0</ele><time>2026-05-03T12:27:15Z</time></trkpt><trkpt lat="43.13269619515532" lon="18.94654518162624"><ele>1699.9999999999998</ele><time>2026-05-03T12:27:16Z</time></trkpt><trkpt lat="43.132664675999756" lon="18.946625847555612"><ele>1700.0</ele><time>2026-05-03T12:27:17Z</time></trkpt><trkpt lat="43.13265304386591" lon="18.94672148402826"><ele>1700.0</ele><time>2026-05-03T12:27:18Z</time></trkpt><trkpt lat="43.132646613053076" lon="18.946817821648764"><ele>1700.0</ele><time>2026-05-03T12:27:19Z</time></trkpt><trkpt lat="43.13272775201968" lon="18.946905901172524"><ele>1699.9999999999998</ele><time>2026-05-03T12:27:20Z</time></trkpt><trkpt lat="43.13279337187322" lon="18.946967707369847"><ele>1700.0</ele><time>2026-05-03T12:27:21Z</time></trkpt><trkpt lat="43.13286623444082" lon="18.947026600822863"><ele>1703.4999999999998</ele><time>2026-05-03T12:27:22Z</time></trkpt><trkpt lat="43.13292536770891" lon="18.947087776555996"><ele>1707.0</ele><time>2026-05-03T12:27:23Z</time></trkpt><trkpt lat="43.13297225384028" lon="18.947220325279705"><ele>1710.5</ele><time>2026-05-03T12:27:25Z</time></trkpt><trkpt lat="43.132963305436824" lon="18.94731135085657"><ele>1714.0</ele><time>2026-05-03T12:27:26Z</time></trkpt><trkpt lat="43.13295341322205" lon="18.94740573505342"><ele>1717.4999999999998</ele><time>2026-05-03T12:27:27Z</time></trkpt><trkpt lat="43.132939945503274" lon="18.94751183790964"><ele>1721.0</ele><time>2026-05-03T12:27:28Z</time></trkpt><trkpt lat="43.1329179943232" lon="18.94762234189066"><ele>1726.1666666666665</ele><time>2026-05-03T12:27:29Z</time></trkpt><trkpt lat="43.13290221786047" lon="18.94772538514606"><ele>1731.3333333333333</ele><time>2026-05-03T12:27:30Z</time></trkpt><trkpt lat="43.13289622037526" lon="18.94783360254695"><ele>1736.5</ele><time>2026-05-03T12:27:31Z</time></trkpt><trkpt lat="43.132903172291634" lon="18.947943835407457"><ele>1741.6666666666665</ele><time>2026-05-03T12:27:32Z</time></trkpt><trkpt lat="43.13293682452798" lon="18.948047749420784"><ele>1746.8333333333333</ele><time>2026-05-03T12:27:33Z</time></trkpt><trkpt lat="43.132992728020774" lon="18.948143604748967"><ele>1752.0</ele><time>2026-05-03T12:27:34Z</time></trkpt><trkpt lat="43.13306071797085" lon="18.94821483167146"><ele>1752.0</ele><time>2026-05-03T12:27:35Z</time></trkpt><trkpt lat="43.133140629955484" lon="18.948263154615955"><ele>1752.0</ele><time>2026-05-03T12:27:36Z</time></trkpt><trkpt lat="43.13320636727304" lon="18.948322526012653"><ele>1752.0</ele><time>2026-05-03T12:27:37Z</time></trkpt><trkpt lat="43.133262594210755" lon="18.94837260714791"><ele>1752.0</ele><time>2026-05-03T12:27:38Z</time></trkpt><trkpt lat="43.13333909385844" lon="18.948526020917907"><ele>1752.0</ele><time>2026-05-03T12:27:40Z</time></trkpt><trkpt lat="43.133351840890725" lon="18.948624296012916"><ele>1752.0</ele><time>2026-05-03T12:27:41Z</time></trkpt><trkpt lat="43.133366542930695" lon="18.948708551352272"><ele>1750.2857142857144</ele><time>2026-05-03T12:27:42Z</time></trkpt><trkpt lat="43.133391599217155" lon="18.9487999042829"><ele>1748.5714285714284</ele><time>2026-05-03T12:27:44Z</time></trkpt><trkpt lat="43.13342515982265" lon="18.948895973660058"><ele>1746.857142857143</ele><time>2026-05-03T12:27:54Z</time></trkpt><trkpt lat="43.13346887407383" lon="18.948972581311843"><ele>1745.1428571428573</ele><time>2026-05-03T12:27:58Z</time></trkpt><trkpt lat="43.13348968728624" lon="18.949078976541742"><ele>1743.4285714285716</ele><time>2026-05-03T12:28:06Z</time></trkpt><trkpt lat="43.13354570417539" lon="18.949126140354597"><ele>1741.7142857142858</ele><time>2026-05-03T12:28:07Z</time></trkpt><trkpt lat="43.133607850557695" lon="18.949188745644808"><ele>1740.0</ele><time>2026-05-03T12:28:09Z</time></trkpt><trkpt lat="43.133675300599435" lon="18.94929490762208"><ele>1740.0</ele><time>2026-05-03T12:28:11Z</time></trkpt><trkpt lat="43.133732385896366" lon="18.949441880042713"><ele>1740.0</ele><time>2026-05-03T12:28:13Z</time></trkpt><trkpt lat="43.13378830593603" lon="18.949612615097276"><ele>1740.0</ele><time>2026-05-03T12:28:15Z</time></trkpt><trkpt lat="43.13381687459246" lon="18.949717380472528"><ele>1740.0</ele><time>2026-05-03T12:28:17Z</time></trkpt><trkpt lat="43.13383600067539" lon="18.949873285143518"><ele>1740.0</ele><time>2026-05-03T12:28:19Z</time></trkpt><trkpt lat="43.13382113532674" lon="18.9499615425974"><ele>1740.0</ele><time>2026-05-03T12:28:20Z</time></trkpt><trkpt lat="43.13375753616636" lon="18.95011603579963"><ele>1740.0</ele><time>2026-05-03T12:28:22Z</time></trkpt><trkpt lat="43.133739990541365" lon="18.950219346714242"><ele>1740.0</ele><time>2026-05-03T12:28:23Z</time></trkpt><trkpt lat="43.13370633007502" lon="18.950315212589743"><ele>1740.0</ele><time>2026-05-03T12:28:24Z</time></trkpt><trkpt lat="43.133673811097474" lon="18.95041329022631"><ele>1740.0</ele><time>2026-05-03T12:28:25Z</time></trkpt><trkpt lat="43.13364434811008" lon="18.950500064543785"><ele>1740.1428571428573</ele><time>2026-05-03T12:28:26Z</time></trkpt><trkpt lat="43.13361421544403" lon="18.95057868204416"><ele>1740.2857142857142</ele><time>2026-05-03T12:28:27Z</time></trkpt><trkpt lat="43.133585408065535" lon="18.950662989945503"><ele>1740.4285714285716</ele><time>2026-05-03T12:28:28Z</time></trkpt><trkpt lat="43.13354906026092" lon="18.95075699260178"><ele>1740.5714285714287</ele><time>2026-05-03T12:28:29Z</time></trkpt><trkpt lat="43.13351165463824" lon="18.950863091534732"><ele>1740.7142857142858</ele><time>2026-05-03T12:28:30Z</time></trkpt><trkpt lat="43.13347321359097" lon="18.95095225979919"><ele>1740.857142857143</ele><time>2026-05-03T12:28:31Z</time></trkpt><trkpt lat="43.133442241326144" lon="18.951028480620494"><ele>1741.0</ele><time>2026-05-03T12:28:32Z</time></trkpt><trkpt lat="43.133393056410476" lon="18.951169984539796"><ele>1741.6</ele><time>2026-05-03T12:28:34Z</time></trkpt><trkpt lat="43.13332914377886" lon="18.951299736557015"><ele>1742.1999999999998</ele><time>2026-05-03T12:28:36Z</time></trkpt><trkpt lat="43.133275497780076" lon="18.951438885405423"><ele>1742.8000000000002</ele><time>2026-05-03T12:28:38Z</time></trkpt><trkpt lat="43.13323595140291" lon="18.951537737834492"><ele>1743.4</ele><time>2026-05-03T12:28:40Z</time></trkpt><trkpt lat="43.13317116360409" lon="18.951620990534146"><ele>1744.0</ele><time>2026-05-03T12:29:19Z</time></trkpt><trkpt lat="43.13311041458984" lon="18.95166265338578"><ele>1744.0</ele><time>2026-05-03T12:29:21Z</time></trkpt><trkpt lat="43.13320032967501" lon="18.951584617180764"><ele>1744.0</ele><time>2026-05-03T12:32:26Z</time></trkpt><trkpt lat="43.13327584079995" lon="18.95145878645525"><ele>1744.0</ele><time>2026-05-03T12:32:28Z</time></trkpt><trkpt lat="43.13332936878266" lon="18.95134231398245"><ele>1744.0</ele><time>2026-05-03T12:32:29Z</time></trkpt><trkpt lat="43.13337161388199" lon="18.951189574709268"><ele>1744.0</ele><time>2026-05-03T12:32:30Z</time></trkpt><trkpt lat="43.13341395653062" lon="18.951081516030058"><ele>1744.0000000000002</ele><time>2026-05-03T12:32:31Z</time></trkpt><trkpt lat="43.13345446649725" lon="18.95097270133711"><ele>1744.0</ele><time>2026-05-03T12:32:32Z</time></trkpt><trkpt lat="43.13349665795164" lon="18.95086192480298"><ele>1744.0</ele><time>2026-05-03T12:32:33Z</time></trkpt><trkpt lat="43.13353828078861" lon="18.950757338440894"><ele>1744.0</ele><time>2026-05-03T12:32:34Z</time></trkpt><trkpt lat="43.13357749973976" lon="18.950655891326228"><ele>1744.0000000000002</ele><time>2026-05-03T12:32:35Z</time></trkpt><trkpt lat="43.133631155594045" lon="18.95056192799742"><ele>1744.0</ele><time>2026-05-03T12:32:36Z</time></trkpt><trkpt lat="43.13366697865934" lon="18.95045144545837"><ele>1743.5000000000002</ele><time>2026-05-03T12:32:37Z</time></trkpt><trkpt lat="43.13370111314915" lon="18.950342895842688"><ele>1743.0</ele><time>2026-05-03T12:32:38Z</time></trkpt><trkpt lat="43.13372064758107" lon="18.950225160372376"><ele>1742.5</ele><time>2026-05-03T12:32:39Z</time></trkpt><trkpt lat="43.13375554988995" lon="18.950116261771033"><ele>1742.0</ele><time>2026-05-03T12:32:40Z</time></trkpt><trkpt lat="43.1337941864348" lon="18.950009838371106"><ele>1741.5000000000002</ele><time>2026-05-03T12:32:41Z</time></trkpt><trkpt lat="43.13383045792658" lon="18.949902125825258"><ele>1741.0</ele><time>2026-05-03T12:32:42Z</time></trkpt><trkpt lat="43.13386127303243" lon="18.94981467609605"><ele>1740.8333333333335</ele><time>2026-05-03T12:32:43Z</time></trkpt><trkpt lat="43.13385863485569" lon="18.949714461001815"><ele>1740.6666666666667</ele><time>2026-05-03T12:32:44Z</time></trkpt><trkpt lat="43.13384078272262" lon="18.949631253073953"><ele>1740.5</ele><time>2026-05-03T12:32:45Z</time></trkpt><trkpt lat="43.133789100290315" lon="18.94948592545675"><ele>1740.3333333333335</ele><time>2026-05-03T12:32:47Z</time></trkpt><trkpt lat="43.13374177311944" lon="18.94937523553625"><ele>1740.1666666666667</ele><time>2026-05-03T12:32:49Z</time></trkpt><trkpt lat="43.13370199898593" lon="18.949299053964523"><ele>1740.0</ele><time>2026-05-03T12:32:51Z</time></trkpt><trkpt lat="43.13363854593242" lon="18.94923705833367"><ele>1739.5714285714287</ele><time>2026-05-03T12:33:19Z</time></trkpt><trkpt lat="43.133592359476985" lon="18.949164363105044"><ele>1739.142857142857</ele><time>2026-05-03T12:33:23Z</time></trkpt><trkpt lat="43.133532334313635" lon="18.949108906541902"><ele>1738.7142857142858</ele><time>2026-05-03T12:33:37Z</time></trkpt><trkpt lat="43.133483208072626" lon="18.94904227870816"><ele>1738.2857142857142</ele><time>2026-05-03T12:33:41Z</time></trkpt><trkpt lat="43.13343485318803" lon="18.94897606179258"><ele>1737.857142857143</ele><time>2026-05-03T12:33:43Z</time></trkpt><trkpt lat="43.133424150556046" lon="18.94888836595371"><ele>1737.4285714285716</ele><time>2026-05-03T12:33:44Z</time></trkpt><trkpt lat="43.13335673625168" lon="18.948862648494966"><ele>1737.0</ele><time>2026-05-03T12:33:45Z</time></trkpt><trkpt lat="43.13338218758388" lon="18.94870363119924"><ele>1737.0</ele><time>2026-05-03T12:33:46Z</time></trkpt><trkpt lat="43.13336174337076" lon="18.94860513511807"><ele>1737.0</ele><time>2026-05-03T12:33:47Z</time></trkpt><trkpt lat="43.13333658363203" lon="18.94850041277484"><ele>1737.0</ele><time>2026-05-03T12:33:48Z</time></trkpt><trkpt lat="43.133310486705085" lon="18.948401388331433"><ele>1737.0</ele><time>2026-05-03T12:33:49Z</time></trkpt><trkpt lat="43.13326406304664" lon="18.94831117639271"><ele>1737.0</ele><time>2026-05-03T12:33:50Z</time></trkpt><trkpt lat="43.13319592500048" lon="18.948253255438875"><ele>1737.0</ele><time>2026-05-03T12:33:51Z</time></trkpt><trkpt lat="43.13312081571072" lon="18.948222129120207"><ele>1739.5</ele><time>2026-05-03T12:33:52Z</time></trkpt><trkpt lat="43.13305967630257" lon="18.948172129469224"><ele>1742.0</ele><time>2026-05-03T12:33:53Z</time></trkpt><trkpt lat="43.133002335777945" lon="18.948113708337612"><ele>1744.5</ele><time>2026-05-03T12:33:54Z</time></trkpt><trkpt lat="43.13294237847711" lon="18.948042927440756"><ele>1747.0</ele><time>2026-05-03T12:33:55Z</time></trkpt><trkpt lat="43.13294048624126" lon="18.94792305700348"><ele>1749.5</ele><time>2026-05-03T12:33:56Z</time></trkpt><trkpt lat="43.13292690937411" lon="18.947812951591885"><ele>1752.0</ele><time>2026-05-03T12:33:57Z</time></trkpt><trkpt lat="43.13294284984048" lon="18.947698072036967"><ele>1752.0</ele><time>2026-05-03T12:33:58Z</time></trkpt><trkpt lat="43.13296355310938" lon="18.9475631910579"><ele>1751.9999999999998</ele><time>2026-05-03T12:33:59Z</time></trkpt><trkpt lat="43.13298322383514" lon="18.947422980616103"><ele>1751.9999999999998</ele><time>2026-05-03T12:34:00Z</time></trkpt><trkpt lat="43.13297906745804" lon="18.947285671557275"><ele>1752.0</ele><time>2026-05-03T12:34:01Z</time></trkpt><trkpt lat="43.13297814538088" lon="18.94717487095631"><ele>1752.0</ele><time>2026-05-03T12:34:02Z</time></trkpt><trkpt lat="43.1329560083104" lon="18.947089371377174"><ele>1747.5714285714287</ele><time>2026-05-03T12:34:03Z</time></trkpt><trkpt lat="43.13290298234968" lon="18.947024949114645"><ele>1743.142857142857</ele><time>2026-05-03T12:34:04Z</time></trkpt><trkpt lat="43.132833477791046" lon="18.946972609155004"><ele>1738.7142857142858</ele><time>2026-05-03T12:34:05Z</time></trkpt><trkpt lat="43.13277386045953" lon="18.946888952998265"><ele>1734.2857142857142</ele><time>2026-05-03T12:34:06Z</time></trkpt><trkpt lat="43.1327135908564" lon="18.946823684756257"><ele>1729.8571428571427</ele><time>2026-05-03T12:34:07Z</time></trkpt><trkpt lat="43.132681093838" lon="18.946740962364547"><ele>1725.4285714285713</ele><time>2026-05-03T12:34:08Z</time></trkpt><trkpt lat="43.132661906037164" lon="18.946653855357106"><ele>1721.0</ele><time>2026-05-03T12:34:09Z</time></trkpt><trkpt lat="43.13268247058567" lon="18.94657099560723"><ele>1716.8</ele><time>2026-05-03T12:34:10Z</time></trkpt><trkpt lat="43.13277569422099" lon="18.94651038381991"><ele>1712.6</ele><time>2026-05-03T12:34:11Z</time></trkpt><trkpt lat="43.132829125147154" lon="18.946424385981047"><ele>1708.4</ele><time>2026-05-03T12:34:12Z</time></trkpt><trkpt lat="43.13291207916586" lon="18.94640110274061"><ele>1704.2</ele><time>2026-05-03T12:34:13Z</time></trkpt><trkpt lat="43.13298669480271" lon="18.946453232172434"><ele>1700.0</ele><time>2026-05-03T12:34:14Z</time></trkpt><trkpt lat="43.13306637553673" lon="18.946577549871236"><ele>1699.9999999999998</ele><time>2026-05-03T12:34:16Z</time></trkpt><trkpt lat="43.13309418682985" lon="18.946675967512434"><ele>1700.0</ele><time>2026-05-03T12:34:17Z</time></trkpt><trkpt lat="43.133124887026554" lon="18.9467696987865"><ele>1700.0</ele><time>2026-05-03T12:34:18Z</time></trkpt><trkpt lat="43.13315802659994" lon="18.946870682884757"><ele>1700.0</ele><time>2026-05-03T12:34:19Z</time></trkpt><trkpt lat="43.13318294347486" lon="18.946971843257483"><ele>1699.9999999999998</ele><time>2026-05-03T12:34:20Z</time></trkpt><trkpt lat="43.13319679793872" lon="18.947087089309605"><ele>1700.0</ele><time>2026-05-03T12:34:21Z</time></trkpt><trkpt lat="43.13320581033365" lon="18.947209283546734"><ele>1700.2</ele><time>2026-05-03T12:34:22Z</time></trkpt><trkpt lat="43.133227773188" lon="18.947325960867552"><ele>1700.4</ele><time>2026-05-03T12:34:23Z</time></trkpt><trkpt lat="43.133266598138626" lon="18.94744058564026"><ele>1700.6</ele><time>2026-05-03T12:34:24Z</time></trkpt><trkpt lat="43.13330907373028" lon="18.947549315128274"><ele>1700.8</ele><time>2026-05-03T12:34:25Z</time></trkpt><trkpt lat="43.13334359745808" lon="18.94766381095352"><ele>1701.0</ele><time>2026-05-03T12:34:26Z</time></trkpt><trkpt lat="43.13335872906304" lon="18.94778485973251"><ele>1703.8333333333333</ele><time>2026-05-03T12:34:27Z</time></trkpt><trkpt lat="43.13337528607727" lon="18.947907581377834"><ele>1706.6666666666665</ele><time>2026-05-03T12:34:28Z</time></trkpt><trkpt lat="43.1334011741877" lon="18.947997576243537"><ele>1709.5</ele><time>2026-05-03T12:34:29Z</time></trkpt><trkpt lat="43.13351775966193" lon="18.948066791726173"><ele>1712.3333333333333</ele><time>2026-05-03T12:34:31Z</time></trkpt><trkpt lat="43.13358369919925" lon="18.94808484569411"><ele>1715.1666666666665</ele><time>2026-05-03T12:34:32Z</time></trkpt><trkpt lat="43.13365469243839" lon="18.94800404233936"><ele>1718.0</ele><time>2026-05-03T12:34:33Z</time></trkpt><trkpt lat="43.133640754062135" lon="18.947834009949226"><ele>1718.0</ele><time>2026-05-03T12:34:34Z</time></trkpt><trkpt lat="43.13360457602474" lon="18.94773441953303"><ele>1718.0000000000002</ele><time>2026-05-03T12:34:35Z</time></trkpt><trkpt lat="43.13353900326811" lon="18.947624219586768"><ele>1718.0000000000002</ele><time>2026-05-03T12:34:36Z</time></trkpt><trkpt lat="43.13350442933506" lon="18.947474733553648"><ele>1718.0</ele><time>2026-05-03T12:34:37Z</time></trkpt><trkpt lat="43.13348101979853" lon="18.94735087919693"><ele>1718.0</ele><time>2026-05-03T12:34:38Z</time></trkpt><trkpt lat="43.133488492344654" lon="18.94723240432972"><ele>1715.1666666666665</ele><time>2026-05-03T12:34:39Z</time></trkpt><trkpt lat="43.13354536873523" lon="18.947159826670003"><ele>1712.3333333333333</ele><time>2026-05-03T12:34:40Z</time></trkpt><trkpt lat="43.13361168751107" lon="18.94709925168697"><ele>1709.5</ele><time>2026-05-03T12:34:41Z</time></trkpt><trkpt lat="43.133646735704566" lon="18.947004837606414"><ele>1706.6666666666665</ele><time>2026-05-03T12:34:42Z</time></trkpt><trkpt lat="43.133631855689885" lon="18.946847985707457"><ele>1703.8333333333333</ele><time>2026-05-03T12:34:44Z</time></trkpt><trkpt lat="43.13356295436119" lon="18.946782452568332"><ele>1701.0</ele><time>2026-05-03T12:34:45Z</time></trkpt><trkpt lat="43.133493403240884" lon="18.94669533125159"><ele>1699.4</ele><time>2026-05-03T12:34:46Z</time></trkpt><trkpt lat="43.13343103548567" lon="18.94658759303256"><ele>1697.8</ele><time>2026-05-03T12:34:47Z</time></trkpt><trkpt lat="43.133408568608026" lon="18.946458442382813"><ele>1696.2</ele><time>2026-05-03T12:34:48Z</time></trkpt><trkpt lat="43.13340630306376" lon="18.946313422928892"><ele>1694.6000000000001</ele><time>2026-05-03T12:34:49Z</time></trkpt><trkpt lat="43.13339631909123" lon="18.94617736320647"><ele>1693.0</ele><time>2026-05-03T12:34:50Z</time></trkpt><trkpt lat="43.133405344946" lon="18.946061391421107"><ele>1693.0</ele><time>2026-05-03T12:34:51Z</time></trkpt><trkpt lat="43.13344834453524" lon="18.945967888404613"><ele>1693.0</ele><time>2026-05-03T12:34:52Z</time></trkpt><trkpt lat="43.133516559362356" lon="18.945865858636708"><ele>1693.0</ele><time>2026-05-03T12:34:53Z</time></trkpt><trkpt lat="43.13362585215818" lon="18.945771591245556"><ele>1693.0</ele><time>2026-05-03T12:34:54Z</time></trkpt><trkpt lat="43.133721644205636" lon="18.945670679321356"><ele>1693.0</ele><time>2026-05-03T12:34:55Z</time></trkpt><trkpt lat="43.1338192714161" lon="18.94554214245039"><ele>1688.75</ele><time>2026-05-03T12:34:56Z</time></trkpt><trkpt lat="43.133921707658914" lon="18.94544118480041"><ele>1684.5</ele><time>2026-05-03T12:34:57Z</time></trkpt><trkpt lat="43.13395003670814" lon="18.945256197071092"><ele>1680.25</ele><time>2026-05-03T12:34:58Z</time></trkpt><trkpt lat="43.13400838569295" lon="18.94511326696672"><ele>1676.0</ele><time>2026-05-03T12:34:59Z</time></trkpt><trkpt lat="43.13404335534964" lon="18.944984189850874"><ele>1675.3333333333333</ele><time>2026-05-03T12:35:00Z</time></trkpt><trkpt lat="43.13410774859827" lon="18.94491402625356"><ele>1674.6666666666665</ele><time>2026-05-03T12:35:01Z</time></trkpt><trkpt lat="43.1341857357091" lon="18.944905390605488"><ele>1674.0</ele><time>2026-05-03T12:35:02Z</time></trkpt><trkpt lat="43.13425703806159" lon="18.944919598649683"><ele>1673.3333333333335</ele><time>2026-05-03T12:35:03Z</time></trkpt><trkpt lat="43.134342868799415" lon="18.944904767765824"><ele>1672.6666666666667</ele><time>2026-05-03T12:35:04Z</time></trkpt><trkpt lat="43.13444260133838" lon="18.944862360432417"><ele>1672.0</ele><time>2026-05-03T12:35:05Z</time></trkpt><trkpt lat="43.134551904654224" lon="18.944830027126947"><ele>1672.0</ele><time>2026-05-03T12:35:06Z</time></trkpt><trkpt lat="43.1346548760757" lon="18.944774273565294"><ele>1672.0</ele><time>2026-05-03T12:35:07Z</time></trkpt><trkpt lat="43.13475135627045" lon="18.944703532382213"><ele>1672.0</ele><time>2026-05-03T12:35:08Z</time></trkpt><trkpt lat="43.13484981271884" lon="18.944625858621716"><ele>1672.0</ele><time>2026-05-03T12:35:09Z</time></trkpt><trkpt lat="43.1349494720235" lon="18.944534879833206"><ele>1669.25</ele><time>2026-05-03T12:35:10Z</time></trkpt><trkpt lat="43.13506061205006" lon="18.94444936829453"><ele>1666.5</ele><time>2026-05-03T12:35:11Z</time></trkpt><trkpt lat="43.135160747053206" lon="18.94434815571758"><ele>1663.75</ele><time>2026-05-03T12:35:12Z</time></trkpt><trkpt lat="43.13526034845784" lon="18.944247524830896"><ele>1661.0</ele><time>2026-05-03T12:35:13Z</time></trkpt><trkpt lat="43.13535775237042" lon="18.94416113473139"><ele>1661.0</ele><time>2026-05-03T12:35:14Z</time></trkpt><trkpt lat="43.13546344700139" lon="18.944088317500558"><ele>1661.0</ele><time>2026-05-03T12:35:15Z</time></trkpt><trkpt lat="43.13557928138828" lon="18.944060278152023"><ele>1661.0</ele><time>2026-05-03T12:35:16Z</time></trkpt><trkpt lat="43.13570618812148" lon="18.944014549323818"><ele>1661.0</ele><time>2026-05-03T12:35:17Z</time></trkpt><trkpt lat="43.13583298250306" lon="18.943968777949365"><ele>1664.75</ele><time>2026-05-03T12:35:18Z</time></trkpt><trkpt lat="43.13596666287849" lon="18.94390320903019"><ele>1668.5</ele><time>2026-05-03T12:35:19Z</time></trkpt><trkpt lat="43.13608483248341" lon="18.943806456194263"><ele>1672.25</ele><time>2026-05-03T12:35:20Z</time></trkpt><trkpt lat="43.136204286725146" lon="18.943735713827266"><ele>1676.0</ele><time>2026-05-03T12:35:21Z</time></trkpt><trkpt lat="43.136306443092515" lon="18.943689149975793"><ele>1676.0</ele><time>2026-05-03T12:35:22Z</time></trkpt><trkpt lat="43.136400566687165" lon="18.94367744837811"><ele>1676.0</ele><time>2026-05-03T12:35:23Z</time></trkpt><trkpt lat="43.136498331310484" lon="18.94363526940417"><ele>1676.0</ele><time>2026-05-03T12:35:24Z</time></trkpt><trkpt lat="43.136591315748866" lon="18.943557249425236"><ele>1676.0</ele><time>2026-05-03T12:35:25Z</time></trkpt><trkpt lat="43.13663345989679" lon="18.94334732406716"><ele>1675.0</ele><time>2026-05-03T12:35:26Z</time></trkpt><trkpt lat="43.13669168633551" lon="18.94319574396929"><ele>1674.0</ele><time>2026-05-03T12:35:27Z</time></trkpt><trkpt lat="43.1366966474302" lon="18.943016102863215"><ele>1673.0</ele><time>2026-05-03T12:35:28Z</time></trkpt><trkpt lat="43.13670521873401" lon="18.942844973506908"><ele>1672.0</ele><time>2026-05-03T12:35:29Z</time></trkpt><trkpt lat="43.13668870996901" lon="18.94267685723136"><ele>1669.5</ele><time>2026-05-03T12:35:30Z</time></trkpt><trkpt lat="43.13664529273799" lon="18.942521200985272"><ele>1667.0</ele><time>2026-05-03T12:35:31Z</time></trkpt><trkpt lat="43.13658181910869" lon="18.94239327135519"><ele>1664.5</ele><time>2026-05-03T12:35:32Z</time></trkpt><trkpt lat="43.13648958444587" lon="18.94229859759903"><ele>1662.0</ele><time>2026-05-03T12:35:33Z</time></trkpt><trkpt lat="43.136389291037254" lon="18.942242116554134"><ele>1657.1999999999998</ele><time>2026-05-03T12:35:34Z</time></trkpt><trkpt lat="43.13632036268556" lon="18.94216899302149"><ele>1652.4</ele><time>2026-05-03T12:35:35Z</time></trkpt><trkpt lat="43.136258399454334" lon="18.942098359681594"><ele>1647.6</ele><time>2026-05-03T12:35:36Z</time></trkpt><trkpt lat="43.136284021631106" lon="18.941964996440365"><ele>1642.8000000000002</ele><time>2026-05-03T12:35:37Z</time></trkpt><trkpt lat="43.13630167635236" lon="18.94183398322294"><ele>1638.0</ele><time>2026-05-03T12:35:38Z</time></trkpt><trkpt lat="43.13632396244677" lon="18.94168077358181"><ele>1637.4</ele><time>2026-05-03T12:35:39Z</time></trkpt><trkpt lat="43.136349966998296" lon="18.941528174617897"><ele>1636.8000000000002</ele><time>2026-05-03T12:35:40Z</time></trkpt><trkpt lat="43.13637504930193" lon="18.941381929635295"><ele>1636.2</ele><time>2026-05-03T12:35:41Z</time></trkpt><trkpt lat="43.136414420274306" lon="18.941244190172263"><ele>1635.6</ele><time>2026-05-03T12:35:42Z</time></trkpt><trkpt lat="43.136454808117506" lon="18.941104963482992"><ele>1635.0</ele><time>2026-05-03T12:35:43Z</time></trkpt><trkpt lat="43.13652722818676" lon="18.941000347902055"><ele>1636.6</ele><time>2026-05-03T12:35:44Z</time></trkpt><trkpt lat="43.13659560613441" lon="18.94091427720605"><ele>1638.2</ele><time>2026-05-03T12:35:45Z</time></trkpt><trkpt lat="43.13667847804105" lon="18.940830593690183"><ele>1639.8000000000002</ele><time>2026-05-03T12:35:46Z</time></trkpt><trkpt lat="43.13676168810191" lon="18.940755069139694"><ele>1641.4</ele><time>2026-05-03T12:35:47Z</time></trkpt><trkpt lat="43.136854101714654" lon="18.940692051168167"><ele>1643.0</ele><time>2026-05-03T12:35:48Z</time></trkpt><trkpt lat="43.136944937027934" lon="18.94062932219635"><ele>1643.0</ele><time>2026-05-03T12:35:49Z</time></trkpt><trkpt lat="43.13702875218287" lon="18.940571084593206"><ele>1643.0</ele><time>2026-05-03T12:35:50Z</time></trkpt><trkpt lat="43.13711604715867" lon="18.940554313673605"><ele>1643.0</ele><time>2026-05-03T12:35:51Z</time></trkpt><trkpt lat="43.13720626814968" lon="18.94055521007247"><ele>1643.0</ele><time>2026-05-03T12:35:52Z</time></trkpt><trkpt lat="43.137300447548085" lon="18.940640626446985"><ele>1643.0</ele><time>2026-05-03T12:35:53Z</time></trkpt><trkpt lat="43.13740762947887" lon="18.94067627932673"><ele>1641.75</ele><time>2026-05-03T12:35:54Z</time></trkpt><trkpt lat="43.137520053416765" lon="18.940713589288215"><ele>1640.5</ele><time>2026-05-03T12:35:55Z</time></trkpt><trkpt lat="43.13763868732465" lon="18.940753810558846"><ele>1639.25</ele><time>2026-05-03T12:35:56Z</time></trkpt><trkpt lat="43.137751123770954" lon="18.940820756285532"><ele>1638.0</ele><time>2026-05-03T12:35:57Z</time></trkpt><trkpt lat="43.137861478527405" lon="18.94089812226135"><ele>1637.75</ele><time>2026-05-03T12:35:58Z</time></trkpt><trkpt lat="43.137957641813" lon="18.94099984840096"><ele>1637.5</ele><time>2026-05-03T12:35:59Z</time></trkpt><trkpt lat="43.138062221053914" lon="18.941083537998175"><ele>1637.25</ele><time>2026-05-03T12:36:00Z</time></trkpt><trkpt lat="43.138152522383926" lon="18.94119531127831"><ele>1637.0</ele><time>2026-05-03T12:36:01Z</time></trkpt><trkpt lat="43.13824340282578" lon="18.941304096127016"><ele>1637.0</ele><time>2026-05-03T12:36:02Z</time></trkpt><trkpt lat="43.13832201880758" lon="18.94141300261204"><ele>1637.0</ele><time>2026-05-03T12:36:03Z</time></trkpt><trkpt lat="43.13836048503956" lon="18.941547337984797"><ele>1637.0</ele><time>2026-05-03T12:36:04Z</time></trkpt><trkpt lat="43.13842491630835" lon="18.941651037851106"><ele>1637.0</ele><time>2026-05-03T12:36:05Z</time></trkpt><trkpt lat="43.138468908226585" lon="18.941757504224906"><ele>1637.0</ele><time>2026-05-03T12:36:06Z</time></trkpt><trkpt lat="43.13859067073558" lon="18.94174791702633"><ele>1637.0</ele><time>2026-05-03T12:36:07Z</time></trkpt><trkpt lat="43.138681818320926" lon="18.941740943980673"><ele>1637.0</ele><time>2026-05-03T12:36:08Z</time></trkpt><trkpt lat="43.13875512783828" lon="18.941598844003263"><ele>1637.0</ele><time>2026-05-03T12:36:09Z</time></trkpt><trkpt lat="43.13881193243753" lon="18.94146858965062"><ele>1637.0</ele><time>2026-05-03T12:36:10Z</time></trkpt><trkpt lat="43.13887689796233" lon="18.941339586148228"><ele>1637.0</ele><time>2026-05-03T12:36:11Z</time></trkpt><trkpt lat="43.138875327289135" lon="18.941191176695828"><ele>1637.0</ele><time>2026-05-03T12:36:12Z</time></trkpt><trkpt lat="43.13886769830096" lon="18.9410509693698"><ele>1637.0</ele><time>2026-05-03T12:36:13Z</time></trkpt><trkpt lat="43.13878390160774" lon="18.940930548607472"><ele>1637.0</ele><time>2026-05-03T12:36:14Z</time></trkpt><trkpt lat="43.138737946590155" lon="18.94078100565179"><ele>1637.0</ele><time>2026-05-03T12:36:15Z</time></trkpt><trkpt lat="43.138688106645596" lon="18.940645659035727"><ele>1635.1999999999998</ele><time>2026-05-03T12:36:16Z</time></trkpt><trkpt lat="43.138648329845495" lon="18.940506554004262"><ele>1633.4</ele><time>2026-05-03T12:36:17Z</time></trkpt><trkpt lat="43.13860835971342" lon="18.94036400543304"><ele>1631.6</ele><time>2026-05-03T12:36:18Z</time></trkpt><trkpt lat="43.13857185350559" lon="18.940229567587945"><ele>1629.8000000000002</ele><time>2026-05-03T12:36:19Z</time></trkpt><trkpt lat="43.13856764018924" lon="18.940091274917037"><ele>1628.0</ele><time>2026-05-03T12:36:20Z</time></trkpt><trkpt lat="43.1385687481074" lon="18.939952820406834"><ele>1625.75</ele><time>2026-05-03T12:36:21Z</time></trkpt><trkpt lat="43.138603096826266" lon="18.939802365603754"><ele>1623.5</ele><time>2026-05-03T12:36:22Z</time></trkpt><trkpt lat="43.13862844522147" lon="18.939644442115533"><ele>1621.25</ele><time>2026-05-03T12:36:23Z</time></trkpt><trkpt lat="43.138654789782414" lon="18.93949189629845"><ele>1619.0</ele><time>2026-05-03T12:36:24Z</time></trkpt><trkpt lat="43.13866743081348" lon="18.939332666781993"><ele>1617.2</ele><time>2026-05-03T12:36:25Z</time></trkpt><trkpt lat="43.138719668247234" lon="18.939192749879044"><ele>1615.4</ele><time>2026-05-03T12:36:26Z</time></trkpt><trkpt lat="43.13876133692018" lon="18.939075678744995"><ele>1613.6</ele><time>2026-05-03T12:36:27Z</time></trkpt><trkpt lat="43.1388161934663" lon="18.93898278200301"><ele>1611.8</ele><time>2026-05-03T12:36:28Z</time></trkpt><trkpt lat="43.138874732991795" lon="18.938898800608"><ele>1610.0</ele><time>2026-05-03T12:36:29Z</time></trkpt><trkpt lat="43.13893330989851" lon="18.938798273712653"><ele>1610.0</ele><time>2026-05-03T12:36:30Z</time></trkpt><trkpt lat="43.13899544832835" lon="18.938703071563634"><ele>1610.0</ele><time>2026-05-03T12:36:31Z</time></trkpt><trkpt lat="43.13907637552917" lon="18.938623445716733"><ele>1610.0</ele><time>2026-05-03T12:36:32Z</time></trkpt><trkpt lat="43.139148015522125" lon="18.938525262093126"><ele>1610.0</ele><time>2026-05-03T12:36:33Z</time></trkpt><trkpt lat="43.1392215814817" lon="18.938424886528097"><ele>1610.0</ele><time>2026-05-03T12:36:34Z</time></trkpt><trkpt lat="43.13929713206451" lon="18.93832253426063"><ele>1612.0</ele><time>2026-05-03T12:36:35Z</time></trkpt><trkpt lat="43.13936257199946" lon="18.938208411295406"><ele>1614.0</ele><time>2026-05-03T12:36:36Z</time></trkpt><trkpt lat="43.13942860731101" lon="18.93809826172304"><ele>1616.0</ele><time>2026-05-03T12:36:37Z</time></trkpt><trkpt lat="43.139496850765994" lon="18.93798443050634"><ele>1618.0</ele><time>2026-05-03T12:36:38Z</time></trkpt><trkpt lat="43.1395193981137" lon="18.937819065944964"><ele>1620.0</ele><time>2026-05-03T12:36:39Z</time></trkpt><trkpt lat="43.13954918571947" lon="18.937662123308442"><ele>1617.25</ele><time>2026-05-03T12:36:40Z</time></trkpt><trkpt lat="43.13956844508258" lon="18.937506535939487"><ele>1614.5</ele><time>2026-05-03T12:36:41Z</time></trkpt><trkpt lat="43.13957223868965" lon="18.937345493708378"><ele>1611.75</ele><time>2026-05-03T12:36:42Z</time></trkpt><trkpt lat="43.13959125195167" lon="18.93719547124641"><ele>1609.0</ele><time>2026-05-03T12:36:43Z</time></trkpt><trkpt lat="43.139618439189675" lon="18.937045606173275"><ele>1609.0</ele><time>2026-05-03T12:36:44Z</time></trkpt><trkpt lat="43.13965372325989" lon="18.936900779667926"><ele>1609.0</ele><time>2026-05-03T12:36:45Z</time></trkpt><trkpt lat="43.13968816609634" lon="18.93675561336696"><ele>1609.0</ele><time>2026-05-03T12:36:46Z</time></trkpt><trkpt lat="43.139723463110265" lon="18.93660684649257"><ele>1609.0</ele><time>2026-05-03T12:36:47Z</time></trkpt><trkpt lat="43.13975707428185" lon="18.93646518561389"><ele>1609.0</ele><time>2026-05-03T12:36:48Z</time></trkpt><trkpt lat="43.139791583307755" lon="18.936320930397294"><ele>1609.4</ele><time>2026-05-03T12:36:49Z</time></trkpt><trkpt lat="43.13981292427802" lon="18.936171852668313"><ele>1609.8000000000002</ele><time>2026-05-03T12:36:50Z</time></trkpt><trkpt lat="43.1398477221239" lon="18.936023419314665"><ele>1610.1999999999998</ele><time>2026-05-03T12:36:51Z</time></trkpt><trkpt lat="43.139895534913" lon="18.93588269439348"><ele>1610.6</ele><time>2026-05-03T12:36:52Z</time></trkpt><trkpt lat="43.139929200595915" lon="18.935740347419287"><ele>1611.0</ele><time>2026-05-03T12:36:53Z</time></trkpt><trkpt lat="43.13994187883089" lon="18.93559097200221"><ele>1611.0</ele><time>2026-05-03T12:36:54Z</time></trkpt><trkpt lat="43.13998027649556" lon="18.93544737604274"><ele>1611.0</ele><time>2026-05-03T12:36:55Z</time></trkpt><trkpt lat="43.13997967757435" lon="18.935289578599694"><ele>1611.0</ele><time>2026-05-03T12:36:56Z</time></trkpt><trkpt lat="43.1399873411949" lon="18.935141365581874"><ele>1611.0</ele><time>2026-05-03T12:36:57Z</time></trkpt><trkpt lat="43.1399924199645" lon="18.934997001131354"><ele>1611.0</ele><time>2026-05-03T12:36:58Z</time></trkpt><trkpt lat="43.13999363191467" lon="18.934850912961675"><ele>1609.6</ele><time>2026-05-03T12:36:59Z</time></trkpt><trkpt lat="43.13999675179802" lon="18.934712759581924"><ele>1608.1999999999998</ele><time>2026-05-03T12:37:00Z</time></trkpt><trkpt lat="43.140018485639324" lon="18.93457513615284"><ele>1606.8000000000002</ele><time>2026-05-03T12:37:01Z</time></trkpt><trkpt lat="43.14002269830881" lon="18.93444547241927"><ele>1605.4</ele><time>2026-05-03T12:37:02Z</time></trkpt><trkpt lat="43.14002591316243" lon="18.93430788420383"><ele>1604.0</ele><time>2026-05-03T12:37:03Z</time></trkpt><trkpt lat="43.1400134689507" lon="18.934164670166776"><ele>1603.0</ele><time>2026-05-03T12:37:04Z</time></trkpt><trkpt lat="43.14003225146867" lon="18.934027656204098"><ele>1602.0</ele><time>2026-05-03T12:37:05Z</time></trkpt><trkpt lat="43.14003528079759" lon="18.933893756749686"><ele>1601.0</ele><time>2026-05-03T12:37:06Z</time></trkpt><trkpt lat="43.14003829960264" lon="18.93376051664412"><ele>1600.0</ele><time>2026-05-03T12:37:07Z</time></trkpt><trkpt lat="43.140041285892465" lon="18.933628711545495"><ele>1599.0</ele><time>2026-05-03T12:37:08Z</time></trkpt><trkpt lat="43.14004432770294" lon="18.93349445605719"><ele>1598.6</ele><time>2026-05-03T12:37:09Z</time></trkpt><trkpt lat="43.14004743508975" lon="18.933361997487047"><ele>1598.2</ele><time>2026-05-03T12:37:10Z</time></trkpt><trkpt lat="43.14006161741967" lon="18.93322897699814"><ele>1597.8</ele><time>2026-05-03T12:37:11Z</time></trkpt><trkpt lat="43.140081997686764" lon="18.9330905908181"><ele>1597.3999999999999</ele><time>2026-05-03T12:37:12Z</time></trkpt><trkpt lat="43.14010902405636" lon="18.93294261429031"><ele>1597.0</ele><time>2026-05-03T12:37:13Z</time></trkpt><trkpt lat="43.14015420152815" lon="18.932797741960268"><ele>1597.0</ele><time>2026-05-03T12:37:14Z</time></trkpt><trkpt lat="43.14019879293143" lon="18.932641424429935"><ele>1597.0</ele><time>2026-05-03T12:37:15Z</time></trkpt><trkpt lat="43.14024294006034" lon="18.932486153360582"><ele>1597.0</ele><time>2026-05-03T12:37:16Z</time></trkpt><trkpt lat="43.14028955238745" lon="18.93232221201044"><ele>1597.0</ele><time>2026-05-03T12:37:17Z</time></trkpt><trkpt lat="43.14033853534942" lon="18.932149933037"><ele>1595.25</ele><time>2026-05-03T12:37:18Z</time></trkpt><trkpt lat="43.14038907029065" lon="18.93197327215895"><ele>1593.5</ele><time>2026-05-03T12:37:19Z</time></trkpt><trkpt lat="43.140440930634355" lon="18.931791682011774"><ele>1591.75</ele><time>2026-05-03T12:37:20Z</time></trkpt><trkpt lat="43.14048191049735" lon="18.9316060405049"><ele>1590.0</ele><time>2026-05-03T12:37:21Z</time></trkpt><trkpt lat="43.140518818956885" lon="18.9314275673381"><ele>1588.25</ele><time>2026-05-03T12:37:22Z</time></trkpt><trkpt lat="43.14051566683232" lon="18.931231233820156"><ele>1586.5</ele><time>2026-05-03T12:37:23Z</time></trkpt><trkpt lat="43.14051098049693" lon="18.93104310796344"><ele>1584.75</ele><time>2026-05-03T12:37:24Z</time></trkpt><trkpt lat="43.14051651676583" lon="18.93085213366648"><ele>1583.0</ele><time>2026-05-03T12:37:25Z</time></trkpt><trkpt lat="43.14051362256387" lon="18.93067700473147"><ele>1582.25</ele><time>2026-05-03T12:37:26Z</time></trkpt><trkpt lat="43.14051813980496" lon="18.930510280662745"><ele>1581.5</ele><time>2026-05-03T12:37:27Z</time></trkpt><trkpt lat="43.14051443858085" lon="18.930349458686567"><ele>1580.75</ele><time>2026-05-03T12:37:28Z</time></trkpt><trkpt lat="43.14059336979393" lon="18.930223800828724"><ele>1580.0</ele><time>2026-05-03T12:37:29Z</time></trkpt><trkpt lat="43.140668852665385" lon="18.93011257417565"><ele>1580.0</ele><time>2026-05-03T12:37:30Z</time></trkpt><trkpt lat="43.14074993403922" lon="18.929988104301504"><ele>1580.0</ele><time>2026-05-03T12:37:31Z</time></trkpt><trkpt lat="43.140822407161444" lon="18.929877306978838"><ele>1580.0</ele><time>2026-05-03T12:37:32Z</time></trkpt><trkpt lat="43.14091198293798" lon="18.92981810754635"><ele>1580.0</ele><time>2026-05-03T12:37:33Z</time></trkpt><trkpt lat="43.14100323666374" lon="18.929789556930857"><ele>1580.0</ele><time>2026-05-03T12:37:34Z</time></trkpt><trkpt lat="43.141112858320554" lon="18.929765232540277"><ele>1580.0</ele><time>2026-05-03T12:37:35Z</time></trkpt><trkpt lat="43.14123119791342" lon="18.929788329419903"><ele>1580.0</ele><time>2026-05-03T12:37:36Z</time></trkpt><trkpt lat="43.14135235675178" lon="18.92981777657184"><ele>1580.0</ele><time>2026-05-03T12:37:37Z</time></trkpt><trkpt lat="43.14147228767393" lon="18.9298513530514"><ele>1580.0</ele><time>2026-05-03T12:37:38Z</time></trkpt><trkpt lat="43.141586941258026" lon="18.929889277557088"><ele>1579.4</ele><time>2026-05-03T12:37:39Z</time></trkpt><trkpt lat="43.14169625481289" lon="18.92993678372871"><ele>1578.8</ele><time>2026-05-03T12:37:40Z</time></trkpt><trkpt lat="43.14178948965541" lon="18.93001217239754"><ele>1578.1999999999998</ele><time>2026-05-03T12:37:41Z</time></trkpt><trkpt lat="43.14185582988687" lon="18.93012017458515"><ele>1577.6</ele><time>2026-05-03T12:37:42Z</time></trkpt><trkpt lat="43.14189662963508" lon="18.930245527887273"><ele>1577.0</ele><time>2026-05-03T12:37:43Z</time></trkpt><trkpt lat="43.14192827149291" lon="18.930363220181118"><ele>1576.9999999999998</ele><time>2026-05-03T12:37:44Z</time></trkpt><trkpt lat="43.14196529623244" lon="18.930477674585468"><ele>1577.0</ele><time>2026-05-03T12:37:45Z</time></trkpt><trkpt lat="43.142010579677766" lon="18.930577397437933"><ele>1577.0</ele><time>2026-05-03T12:37:46Z</time></trkpt><trkpt lat="43.14207268785125" lon="18.930670448240356"><ele>1577.0</ele><time>2026-05-03T12:37:47Z</time></trkpt><trkpt lat="43.14214141323782" lon="18.930732597800212"><ele>1576.9999999999998</ele><time>2026-05-03T12:37:48Z</time></trkpt><trkpt lat="43.14221807177129" lon="18.930770228700364"><ele>1577.0</ele><time>2026-05-03T12:37:49Z</time></trkpt><trkpt lat="43.14229695659664" lon="18.930796596387957"><ele>1576.9999999999998</ele><time>2026-05-03T12:37:50Z</time></trkpt><trkpt lat="43.14237383146244" lon="18.930804867516102"><ele>1577.0</ele><time>2026-05-03T12:37:51Z</time></trkpt><trkpt lat="43.14244763964818" lon="18.930797632508405"><ele>1577.0</ele><time>2026-05-03T12:37:52Z</time></trkpt><trkpt lat="43.14251510886002" lon="18.930776175170525"><ele>1577.0</ele><time>2026-05-03T12:37:53Z</time></trkpt><trkpt lat="43.142578026459056" lon="18.930748436996996"><ele>1576.9999999999998</ele><time>2026-05-03T12:37:54Z</time></trkpt><trkpt lat="43.1426874315873" lon="18.9306989089232"><ele>1577.0</ele><time>2026-05-03T12:37:56Z</time></trkpt><trkpt lat="43.14277871297269" lon="18.930635612802472"><ele>1575.8333333333333</ele><time>2026-05-03T12:37:58Z</time></trkpt><trkpt lat="43.14283915961557" lon="18.93057764940295"><ele>1574.6666666666665</ele><time>2026-05-03T12:38:30Z</time></trkpt><trkpt lat="43.14289685287155" lon="18.93053041161504"><ele>1573.5</ele><time>2026-05-03T12:38:32Z</time></trkpt><trkpt lat="43.14295886285954" lon="18.93042200583865"><ele>1572.3333333333335</ele><time>2026-05-03T12:38:35Z</time></trkpt><trkpt lat="43.14297050105112" lon="18.930319470222965"><ele>1571.1666666666667</ele><time>2026-05-03T12:38:57Z</time></trkpt><trkpt lat="43.14298026559079" lon="18.930233440921004"><ele>1570.0</ele><time>2026-05-03T12:38:58Z</time></trkpt><trkpt lat="43.142948634991015" lon="18.93009398909441"><ele>1569.2</ele><time>2026-05-03T12:38:59Z</time></trkpt><trkpt lat="43.14290075444388" lon="18.92996347337194"><ele>1568.4</ele><time>2026-05-03T12:39:00Z</time></trkpt><trkpt lat="43.14286400167181" lon="18.929851187978485"><ele>1567.6</ele><time>2026-05-03T12:39:01Z</time></trkpt><trkpt lat="43.142829486696904" lon="18.929743742083218"><ele>1566.8</ele><time>2026-05-03T12:39:02Z</time></trkpt><trkpt lat="43.14278073078293" lon="18.929622584057757"><ele>1566.0</ele><time>2026-05-03T12:39:03Z</time></trkpt><trkpt lat="43.14270297727402" lon="18.929511743864815"><ele>1566.0</ele><time>2026-05-03T12:39:04Z</time></trkpt><trkpt lat="43.142635094981536" lon="18.929430235429805"><ele>1566.0</ele><time>2026-05-03T12:39:05Z</time></trkpt><trkpt lat="43.142532329810464" lon="18.929365313240233"><ele>1566.0</ele><time>2026-05-03T12:39:06Z</time></trkpt><trkpt lat="43.14243243157942" lon="18.929294037579933"><ele>1566.0</ele><time>2026-05-03T12:39:07Z</time></trkpt><trkpt lat="43.14233425384169" lon="18.929224115265555"><ele>1566.0</ele><time>2026-05-03T12:39:08Z</time></trkpt><trkpt lat="43.14224041315686" lon="18.92915728175585"><ele>1567.4</ele><time>2026-05-03T12:39:09Z</time></trkpt><trkpt lat="43.14215497052911" lon="18.929081670934252"><ele>1568.8</ele><time>2026-05-03T12:39:10Z</time></trkpt><trkpt lat="43.142073625438655" lon="18.92899750579804"><ele>1570.2</ele><time>2026-05-03T12:39:11Z</time></trkpt><trkpt lat="43.142035031697404" lon="18.92889203415338"><ele>1571.6000000000001</ele><time>2026-05-03T12:39:12Z</time></trkpt><trkpt lat="43.142021728843766" lon="18.92877292224297"><ele>1573.0</ele><time>2026-05-03T12:39:13Z</time></trkpt><trkpt lat="43.14204214781183" lon="18.928629352193845"><ele>1573.0</ele><time>2026-05-03T12:39:14Z</time></trkpt><trkpt lat="43.14205631608936" lon="18.92845632504725"><ele>1573.0</ele><time>2026-05-03T12:39:15Z</time></trkpt><trkpt lat="43.14205485822818" lon="18.92828608733302"><ele>1573.0</ele><time>2026-05-03T12:39:16Z</time></trkpt><trkpt lat="43.14208701346677" lon="18.928107731550224"><ele>1573.0</ele><time>2026-05-03T12:39:17Z</time></trkpt><trkpt lat="43.14210307064989" lon="18.927935648006063"><ele>1570.75</ele><time>2026-05-03T12:39:18Z</time></trkpt><trkpt lat="43.142118113957814" lon="18.927770737686956"><ele>1568.5</ele><time>2026-05-03T12:39:19Z</time></trkpt><trkpt lat="43.14213200477779" lon="18.927613253921464"><ele>1566.25</ele><time>2026-05-03T12:39:20Z</time></trkpt><trkpt lat="43.14219206224527" lon="18.92748652049736"><ele>1564.0</ele><time>2026-05-03T12:39:21Z</time></trkpt><trkpt lat="43.14227853600407" lon="18.927367875737605"><ele>1561.0</ele><time>2026-05-03T12:39:22Z</time></trkpt><trkpt lat="43.14240721852127" lon="18.927301507558873"><ele>1558.0</ele><time>2026-05-03T12:39:23Z</time></trkpt><trkpt lat="43.142538498686314" lon="18.92719475226822"><ele>1555.0</ele><time>2026-05-03T12:39:24Z</time></trkpt><trkpt lat="43.142657358583406" lon="18.927097091402622"><ele>1552.0</ele><time>2026-05-03T12:39:25Z</time></trkpt><trkpt lat="43.14276721931086" lon="18.927006600796922"><ele>1552.0</ele><time>2026-05-03T12:39:26Z</time></trkpt><trkpt lat="43.14286708754067" lon="18.926925949533405"><ele>1552.0</ele><time>2026-05-03T12:39:27Z</time></trkpt><trkpt lat="43.14296101904469" lon="18.926849352522268"><ele>1552.0</ele><time>2026-05-03T12:39:28Z</time></trkpt><trkpt lat="43.14305148157257" lon="18.926775026457126"><ele>1552.0</ele><time>2026-05-03T12:39:29Z</time></trkpt><trkpt lat="43.143137405382326" lon="18.92669598194197"><ele>1552.0</ele><time>2026-05-03T12:39:30Z</time></trkpt><trkpt lat="43.14320639021173" lon="18.926623854885204"><ele>1550.5000000000002</ele><time>2026-05-03T12:39:31Z</time></trkpt><trkpt lat="43.143230432958404" lon="18.926516123189053"><ele>1549.0</ele><time>2026-05-03T12:39:32Z</time></trkpt><trkpt lat="43.14328857713255" lon="18.926380447812043"><ele>1547.5</ele><time>2026-05-03T12:39:34Z</time></trkpt><trkpt lat="43.143308614256" lon="18.926258916888997"><ele>1546.0</ele><time>2026-05-03T12:39:36Z</time></trkpt><trkpt lat="43.143316770180476" lon="18.926155119910135"><ele>1544.5000000000002</ele><time>2026-05-03T12:39:39Z</time></trkpt><trkpt lat="43.14331601815135" lon="18.926066997919012"><ele>1543.0</ele><time>2026-05-03T12:39:41Z</time></trkpt><trkpt lat="43.14330854048944" lon="18.92591687751009"><ele>1543.1666666666667</ele><time>2026-05-03T12:39:43Z</time></trkpt><trkpt lat="43.1433015355216" lon="18.92582987257518"><ele>1543.3333333333335</ele><time>2026-05-03T12:39:44Z</time></trkpt><trkpt lat="43.14328165011809" lon="18.925728416744942"><ele>1543.5</ele><time>2026-05-03T12:39:45Z</time></trkpt><trkpt lat="43.14325570992334" lon="18.925631212370885"><ele>1543.6666666666665</ele><time>2026-05-03T12:39:46Z</time></trkpt><trkpt lat="43.143183935551065" lon="18.92555199312914"><ele>1543.8333333333333</ele><time>2026-05-03T12:39:47Z</time></trkpt><trkpt lat="43.14314888602803" lon="18.92544617809481"><ele>1544.0</ele><time>2026-05-03T12:39:48Z</time></trkpt><trkpt lat="43.14305654288378" lon="18.925396644330867"><ele>1543.8000000000002</ele><time>2026-05-03T12:39:49Z</time></trkpt><trkpt lat="43.14299425592643" lon="18.92530118019804"><ele>1543.6000000000001</ele><time>2026-05-03T12:39:50Z</time></trkpt><trkpt lat="43.142917513286456" lon="18.925214674661703"><ele>1543.4</ele><time>2026-05-03T12:39:51Z</time></trkpt><trkpt lat="43.14284404982243" lon="18.925131819130765"><ele>1543.2</ele><time>2026-05-03T12:39:52Z</time></trkpt><trkpt lat="43.142773519208276" lon="18.9250522158246"><ele>1543.0</ele><time>2026-05-03T12:39:53Z</time></trkpt><trkpt lat="43.14270709143083" lon="18.92497724315309"><ele>1543.0000000000002</ele><time>2026-05-03T12:39:54Z</time></trkpt><trkpt lat="43.142647024938405" lon="18.924909449995745"><ele>1543.0</ele><time>2026-05-03T12:39:55Z</time></trkpt><trkpt lat="43.142589057094064" lon="18.924842709274603"><ele>1543.0</ele><time>2026-05-03T12:39:56Z</time></trkpt><trkpt lat="43.142532733925556" lon="18.924779844273807"><ele>1543.0</ele><time>2026-05-03T12:39:57Z</time></trkpt><trkpt lat="43.142483653606575" lon="18.9247250635519"><ele>1543.0000000000002</ele><time>2026-05-03T12:39:58Z</time></trkpt><trkpt lat="43.14243589874891" lon="18.924611721955273"><ele>1543.0</ele><time>2026-05-03T12:40:00Z</time></trkpt><trkpt lat="43.14239663267653" lon="18.924507987071845"><ele>1544.2</ele><time>2026-05-03T12:40:02Z</time></trkpt><trkpt lat="43.14233081566202" lon="18.92440822538807"><ele>1545.4</ele><time>2026-05-03T12:40:04Z</time></trkpt><trkpt lat="43.142402598474376" lon="18.92416469576407"><ele>1546.6000000000001</ele><time>2026-05-03T12:40:05Z</time></trkpt><trkpt lat="43.14239080471796" lon="18.92407220084939"><ele>1547.8000000000002</ele><time>2026-05-03T12:40:06Z</time></trkpt><trkpt lat="43.142375501669456" lon="18.923958053384265"><ele>1549.0</ele><time>2026-05-03T12:40:07Z</time></trkpt><trkpt lat="43.14235719288451" lon="18.923830047558575"><ele>1546.4</ele><time>2026-05-03T12:40:08Z</time></trkpt><trkpt lat="43.14233552245146" lon="18.923692738273186"><ele>1543.8000000000002</ele><time>2026-05-03T12:40:09Z</time></trkpt><trkpt lat="43.14231188883985" lon="18.92354975531752"><ele>1541.1999999999998</ele><time>2026-05-03T12:40:10Z</time></trkpt><trkpt lat="43.14229060549843" lon="18.923411178643665"><ele>1538.6</ele><time>2026-05-03T12:40:11Z</time></trkpt><trkpt lat="43.14226918524959" lon="18.923266502907353"><ele>1536.0</ele><time>2026-05-03T12:40:12Z</time></trkpt><trkpt lat="43.14224592990551" lon="18.9231195477433"><ele>1534.75</ele><time>2026-05-03T12:40:13Z</time></trkpt><trkpt lat="43.14221753246075" lon="18.92296540282736"><ele>1533.5</ele><time>2026-05-03T12:40:14Z</time></trkpt><trkpt lat="43.142193270412506" lon="18.922810008432307"><ele>1532.25</ele><time>2026-05-03T12:40:15Z</time></trkpt><trkpt lat="43.14217430343056" lon="18.922659666953606"><ele>1531.0</ele><time>2026-05-03T12:40:16Z</time></trkpt><trkpt lat="43.14215114545766" lon="18.922512865535044"><ele>1531.0</ele><time>2026-05-03T12:40:17Z</time></trkpt><trkpt lat="43.14213309254142" lon="18.922373162869167"><ele>1531.0</ele><time>2026-05-03T12:40:18Z</time></trkpt><trkpt lat="43.142115141087544" lon="18.92223483994457"><ele>1531.0</ele><time>2026-05-03T12:40:19Z</time></trkpt><trkpt lat="43.14210071588397" lon="18.92210031761463"><ele>1531.0</ele><time>2026-05-03T12:40:20Z</time></trkpt><trkpt lat="43.142094200476535" lon="18.921967161570947"><ele>1531.0</ele><time>2026-05-03T12:40:21Z</time></trkpt><trkpt lat="43.14209900728815" lon="18.92184178852337"><ele>1530.4</ele><time>2026-05-03T12:40:22Z</time></trkpt><trkpt lat="43.14210717836923" lon="18.921725149182077"><ele>1529.8</ele><time>2026-05-03T12:40:23Z</time></trkpt><trkpt lat="43.14212505031046" lon="18.921610765006022"><ele>1529.2</ele><time>2026-05-03T12:40:24Z</time></trkpt><trkpt lat="43.14221720418818" lon="18.92150932755701"><ele>1528.6000000000001</ele><time>2026-05-03T12:40:25Z</time></trkpt><trkpt lat="43.14225775950458" lon="18.921368599090925"><ele>1528.0</ele><time>2026-05-03T12:40:26Z</time></trkpt><trkpt lat="43.14230235481356" lon="18.921213410562125"><ele>1528.0</ele><time>2026-05-03T12:40:27Z</time></trkpt><trkpt lat="43.142351980632704" lon="18.921038901328394"><ele>1528.0</ele><time>2026-05-03T12:40:28Z</time></trkpt><trkpt lat="43.142401819908734" lon="18.92086355907888"><ele>1528.0</ele><time>2026-05-03T12:40:29Z</time></trkpt><trkpt lat="43.14244402319487" lon="18.920714995514928"><ele>1528.0</ele><time>2026-05-03T12:40:30Z</time></trkpt><trkpt lat="43.14248331246502" lon="18.9205771024501"><ele>1525.6000000000001</ele><time>2026-05-03T12:40:31Z</time></trkpt><trkpt lat="43.14250627607621" lon="18.920441084788127"><ele>1523.2</ele><time>2026-05-03T12:40:32Z</time></trkpt><trkpt lat="43.14250925455971" lon="18.92029176361908"><ele>1520.8</ele><time>2026-05-03T12:40:33Z</time></trkpt><trkpt lat="43.1425085928434" lon="18.920170204879682"><ele>1518.4</ele><time>2026-05-03T12:40:34Z</time></trkpt><trkpt lat="43.142464675412356" lon="18.920048405399708"><ele>1516.0</ele><time>2026-05-03T12:40:35Z</time></trkpt><trkpt lat="43.142398548885815" lon="18.919939182814268"><ele>1517.8</ele><time>2026-05-03T12:40:36Z</time></trkpt><trkpt lat="43.142338102212264" lon="18.919829977912148"><ele>1519.6</ele><time>2026-05-03T12:40:37Z</time></trkpt><trkpt lat="43.142288584979234" lon="18.919708433527454"><ele>1521.4</ele><time>2026-05-03T12:40:38Z</time></trkpt><trkpt lat="43.14223145468723" lon="18.91960360981631"><ele>1523.2</ele><time>2026-05-03T12:40:39Z</time></trkpt><trkpt lat="43.142175392243864" lon="18.919500700219476"><ele>1525.0</ele><time>2026-05-03T12:40:40Z</time></trkpt><trkpt lat="43.142123749788254" lon="18.91940590417935"><ele>1525.0</ele><time>2026-05-03T12:40:41Z</time></trkpt><trkpt lat="43.14206869732152" lon="18.919304839415574"><ele>1525.0</ele><time>2026-05-03T12:40:42Z</time></trkpt><trkpt lat="43.1420157803227" lon="18.91920768391962"><ele>1525.0</ele><time>2026-05-03T12:40:43Z</time></trkpt><trkpt lat="43.141951903227834" lon="18.919123012727606"><ele>1525.0</ele><time>2026-05-03T12:40:44Z</time></trkpt><trkpt lat="43.14189450389482" lon="18.91902220069408"><ele>1525.0</ele><time>2026-05-03T12:40:45Z</time></trkpt><trkpt lat="43.14185153532072" lon="18.918904858414006"><ele>1523.6</ele><time>2026-05-03T12:40:46Z</time></trkpt><trkpt lat="43.141789076976174" lon="18.91878936820463"><ele>1522.2</ele><time>2026-05-03T12:40:47Z</time></trkpt><trkpt lat="43.14172028000856" lon="18.91866395696011"><ele>1520.8000000000002</ele><time>2026-05-03T12:40:48Z</time></trkpt><trkpt lat="43.14165142799958" lon="18.918537766104386"><ele>1519.4</ele><time>2026-05-03T12:40:49Z</time></trkpt><trkpt lat="43.141589868290495" lon="18.91842315056956"><ele>1518.0</ele><time>2026-05-03T12:40:50Z</time></trkpt><trkpt lat="43.14156052556733" lon="18.918301999769692"><ele>1516.6666666666667</ele><time>2026-05-03T12:40:51Z</time></trkpt><trkpt lat="43.14156554838724" lon="18.91819749913824"><ele>1515.3333333333333</ele><time>2026-05-03T12:40:52Z</time></trkpt><trkpt lat="43.14159160259342" lon="18.918088732878424"><ele>1514.0</ele><time>2026-05-03T12:40:53Z</time></trkpt><trkpt lat="43.1416258834425" lon="18.91797446609175"><ele>1512.6666666666665</ele><time>2026-05-03T12:40:54Z</time></trkpt><trkpt lat="43.141664422923874" lon="18.917856437721966"><ele>1511.3333333333333</ele><time>2026-05-03T12:40:55Z</time></trkpt><trkpt lat="43.14170345353613" lon="18.917737978428946"><ele>1510.0</ele><time>2026-05-03T12:40:56Z</time></trkpt><trkpt lat="43.141727951191065" lon="18.917609322302038"><ele>1509.0</ele><time>2026-05-03T12:40:57Z</time></trkpt><trkpt lat="43.14176713533814" lon="18.917501581585213"><ele>1508.0</ele><time>2026-05-03T12:40:58Z</time></trkpt><trkpt lat="43.141802045295655" lon="18.91739734553041"><ele>1507.0</ele><time>2026-05-03T12:40:59Z</time></trkpt><trkpt lat="43.141839310577424" lon="18.91729414424013"><ele>1506.0</ele><time>2026-05-03T12:41:00Z</time></trkpt><trkpt lat="43.141879848171364" lon="18.917178843642926"><ele>1505.0</ele><time>2026-05-03T12:41:01Z</time></trkpt><trkpt lat="43.1419194253107" lon="18.917054910200893"><ele>1504.0</ele><time>2026-05-03T12:41:02Z</time></trkpt><trkpt lat="43.141951092218214" lon="18.916937022951377"><ele>1504.0</ele><time>2026-05-03T12:41:03Z</time></trkpt><trkpt lat="43.14198753916913" lon="18.916820203791602"><ele>1504.0</ele><time>2026-05-03T12:41:04Z</time></trkpt><trkpt lat="43.14199823994597" lon="18.91669241819274"><ele>1504.0</ele><time>2026-05-03T12:41:05Z</time></trkpt><trkpt lat="43.14196020082964" lon="18.916554119232064"><ele>1504.0</ele><time>2026-05-03T12:41:06Z</time></trkpt><trkpt lat="43.14193499132656" lon="18.916411459259592"><ele>1504.0</ele><time>2026-05-03T12:41:07Z</time></trkpt><trkpt lat="43.14190236511014" lon="18.916280233797146"><ele>1503.2</ele><time>2026-05-03T12:41:08Z</time></trkpt><trkpt lat="43.14181894433208" lon="18.91617973693741"><ele>1502.4</ele><time>2026-05-03T12:41:09Z</time></trkpt><trkpt lat="43.14172632456746" lon="18.916126576085592"><ele>1501.6</ele><time>2026-05-03T12:41:10Z</time></trkpt><trkpt lat="43.14164238256806" lon="18.91607452342644"><ele>1500.8</ele><time>2026-05-03T12:41:11Z</time></trkpt><trkpt lat="43.1415562030632" lon="18.91602148319597"><ele>1500.0</ele><time>2026-05-03T12:41:12Z</time></trkpt><trkpt lat="43.141471432908475" lon="18.915984946225226"><ele>1500.0</ele><time>2026-05-03T12:41:13Z</time></trkpt><trkpt lat="43.14138369444166" lon="18.915948187849647"><ele>1500.0</ele><time>2026-05-03T12:41:14Z</time></trkpt><trkpt lat="43.141306185971175" lon="18.91589744492017"><ele>1500.0</ele><time>2026-05-03T12:41:15Z</time></trkpt><trkpt lat="43.14126936088492" lon="18.915808776366028"><ele>1500.0</ele><time>2026-05-03T12:41:16Z</time></trkpt><trkpt lat="43.141252069739465" lon="18.915706115859997"><ele>1500.0</ele><time>2026-05-03T12:41:17Z</time></trkpt><trkpt lat="43.14127676476672" lon="18.915612941866694"><ele>1500.0</ele><time>2026-05-03T12:41:18Z</time></trkpt><trkpt lat="43.14130752235802" lon="18.915525382492415"><ele>1500.0</ele><time>2026-05-03T12:41:19Z</time></trkpt><trkpt lat="43.14133332703104" lon="18.915435099028254"><ele>1500.0</ele><time>2026-05-03T12:41:20Z</time></trkpt><trkpt lat="43.14133965538232" lon="18.915343018710452"><ele>1500.0</ele><time>2026-05-03T12:41:21Z</time></trkpt><trkpt lat="43.14137202007242" lon="18.915264590262982"><ele>1500.0</ele><time>2026-05-03T12:41:22Z</time></trkpt><trkpt lat="43.14137552251711" lon="18.91516184933648"><ele>1500.0</ele><time>2026-05-03T12:41:23Z</time></trkpt><trkpt lat="43.141382174067786" lon="18.915058917720646"><ele>1500.0</ele><time>2026-05-03T12:41:24Z</time></trkpt><trkpt lat="43.14132954294427" lon="18.91495459872415"><ele>1500.0</ele><time>2026-05-03T12:41:25Z</time></trkpt><trkpt lat="43.141301955634816" lon="18.914852248502687"><ele>1499.4</ele><time>2026-05-03T12:41:26Z</time></trkpt><trkpt lat="43.14126693071545" lon="18.91474138561257"><ele>1498.8</ele><time>2026-05-03T12:41:27Z</time></trkpt><trkpt lat="43.141251025623085" lon="18.91461510822729"><ele>1498.1999999999998</ele><time>2026-05-03T12:41:28Z</time></trkpt><trkpt lat="43.14121184481249" lon="18.91449732651176"><ele>1497.6</ele><time>2026-05-03T12:41:29Z</time></trkpt><trkpt lat="43.14117166164909" lon="18.914376530661297"><ele>1497.0</ele><time>2026-05-03T12:41:30Z</time></trkpt><trkpt lat="43.14111133419482" lon="18.914278696644082"><ele>1495.8</ele><time>2026-05-03T12:41:31Z</time></trkpt><trkpt lat="43.141058747066744" lon="18.91416774249534"><ele>1494.6</ele><time>2026-05-03T12:41:32Z</time></trkpt><trkpt lat="43.14097867743329" lon="18.91406332451223"><ele>1493.3999999999999</ele><time>2026-05-03T12:41:33Z</time></trkpt><trkpt lat="43.1408887594988" lon="18.913958905748654"><ele>1492.1999999999998</ele><time>2026-05-03T12:41:34Z</time></trkpt><trkpt lat="43.1408020293284" lon="18.913853631282816"><ele>1491.0</ele><time>2026-05-03T12:41:35Z</time></trkpt><trkpt lat="43.14072465158496" lon="18.913759467883363"><ele>1490.1666666666667</ele><time>2026-05-03T12:41:36Z</time></trkpt><trkpt lat="43.14065397397362" lon="18.913674343553645"><ele>1489.3333333333333</ele><time>2026-05-03T12:41:37Z</time></trkpt><trkpt lat="43.140613754052424" lon="18.913527983907755"><ele>1488.5</ele><time>2026-05-03T12:41:39Z</time></trkpt><trkpt lat="43.14065092045517" lon="18.91344649738239"><ele>1487.6666666666665</ele><time>2026-05-03T12:41:40Z</time></trkpt><trkpt lat="43.14071154078455" lon="18.913398103014188"><ele>1486.8333333333333</ele><time>2026-05-03T12:41:41Z</time></trkpt><trkpt lat="43.14077762382834" lon="18.91338423769499"><ele>1486.0</ele><time>2026-05-03T12:41:42Z</time></trkpt><trkpt lat="43.140856185719855" lon="18.913399844879972"><ele>1487.0</ele><time>2026-05-03T12:41:43Z</time></trkpt><trkpt lat="43.1409473534841" lon="18.91343893365279"><ele>1488.0</ele><time>2026-05-03T12:41:44Z</time></trkpt><trkpt lat="43.141028564528405" lon="18.913531339622523"><ele>1489.0</ele><time>2026-05-03T12:41:45Z</time></trkpt><trkpt lat="43.14112531512904" lon="18.913607225468905"><ele>1490.0</ele><time>2026-05-03T12:41:46Z</time></trkpt><trkpt lat="43.14122774201686" lon="18.913690095626933"><ele>1491.0</ele><time>2026-05-03T12:41:47Z</time></trkpt><trkpt lat="43.141341054406546" lon="18.913756036920272"><ele>1491.0</ele><time>2026-05-03T12:41:48Z</time></trkpt><trkpt lat="43.14143143618112" lon="18.91389365141666"><ele>1491.0</ele><time>2026-05-03T12:41:49Z</time></trkpt><trkpt lat="43.14154243439298" lon="18.914018796665317"><ele>1491.0</ele><time>2026-05-03T12:41:50Z</time></trkpt><trkpt lat="43.141641289557754" lon="18.91416842247055"><ele>1491.0</ele><time>2026-05-03T12:41:51Z</time></trkpt><trkpt lat="43.141740675321934" lon="18.914323104094994"><ele>1489.0</ele><time>2026-05-03T12:41:52Z</time></trkpt><trkpt lat="43.14183959794918" lon="18.914472185653832"><ele>1487.0</ele><time>2026-05-03T12:41:53Z</time></trkpt><trkpt lat="43.141933185616516" lon="18.91461260624149"><ele>1485.0</ele><time>2026-05-03T12:41:54Z</time></trkpt><trkpt lat="43.14201772630424" lon="18.914727392009727"><ele>1483.0</ele><time>2026-05-03T12:41:55Z</time></trkpt><trkpt lat="43.1421032295472" lon="18.914807910963194"><ele>1483.0</ele><time>2026-05-03T12:41:56Z</time></trkpt><trkpt lat="43.14218996859691" lon="18.91484827814772"><ele>1483.0</ele><time>2026-05-03T12:41:57Z</time></trkpt><trkpt lat="43.14228558629932" lon="18.914892208270473"><ele>1483.0</ele><time>2026-05-03T12:41:58Z</time></trkpt><trkpt lat="43.142390986917654" lon="18.914833371124796"><ele>1483.0</ele><time>2026-05-03T12:41:59Z</time></trkpt><trkpt lat="43.14250409358074" lon="18.91483394082592"><ele>1483.0</ele><time>2026-05-03T12:42:00Z</time></trkpt><trkpt lat="43.14261652584672" lon="18.91481590871192"><ele>1483.4</ele><time>2026-05-03T12:42:01Z</time></trkpt><trkpt lat="43.14272988262798" lon="18.9148090364758"><ele>1483.8000000000002</ele><time>2026-05-03T12:42:02Z</time></trkpt><trkpt lat="43.142826085436454" lon="18.91486460992837"><ele>1484.2</ele><time>2026-05-03T12:42:03Z</time></trkpt><trkpt lat="43.14290762367322" lon="18.91493368148701"><ele>1484.6</ele><time>2026-05-03T12:42:04Z</time></trkpt><trkpt lat="43.14300057679769" lon="18.91500796293765"><ele>1485.0</ele><time>2026-05-03T12:42:05Z</time></trkpt><trkpt lat="43.14307440106999" lon="18.915127039975975"><ele>1485.0</ele><time>2026-05-03T12:42:06Z</time></trkpt><trkpt lat="43.14314945136239" lon="18.91525460743586"><ele>1485.0</ele><time>2026-05-03T12:42:07Z</time></trkpt><trkpt lat="43.14324228878785" lon="18.915371752504974"><ele>1485.0</ele><time>2026-05-03T12:42:08Z</time></trkpt><trkpt lat="43.14334350633846" lon="18.9154650517546"><ele>1485.0</ele><time>2026-05-03T12:42:09Z</time></trkpt><trkpt lat="43.143440361153196" lon="18.91554569425327"><ele>1482.5</ele><time>2026-05-03T12:42:10Z</time></trkpt><trkpt lat="43.14353492193081" lon="18.915628856603675"><ele>1480.0</ele><time>2026-05-03T12:42:11Z</time></trkpt><trkpt lat="43.14362765310152" lon="18.915718795369433"><ele>1477.5</ele><time>2026-05-03T12:42:12Z</time></trkpt><trkpt lat="43.143701969811175" lon="18.91583779827405"><ele>1475.0</ele><time>2026-05-03T12:42:13Z</time></trkpt><trkpt lat="43.143774985458684" lon="18.915960095177763"><ele>1475.0</ele><time>2026-05-03T12:42:14Z</time></trkpt><trkpt lat="43.14383880685609" lon="18.916071649301212"><ele>1475.0</ele><time>2026-05-03T12:42:15Z</time></trkpt><trkpt lat="43.14385642066546" lon="18.916204813382013"><ele>1475.0</ele><time>2026-05-03T12:42:16Z</time></trkpt><trkpt lat="43.14385914962116" lon="18.916338805818338"><ele>1475.0</ele><time>2026-05-03T12:42:17Z</time></trkpt><trkpt lat="43.14386403804956" lon="18.916453073406572"><ele>1475.0</ele><time>2026-05-03T12:42:18Z</time></trkpt><trkpt lat="43.143897504161835" lon="18.916548022776922"><ele>1475.0</ele><time>2026-05-03T12:42:19Z</time></trkpt><trkpt lat="43.1439659382992" lon="18.916699295352604"><ele>1475.0</ele><time>2026-05-03T12:42:20Z</time></trkpt><trkpt lat="43.14405975597856" lon="18.916759163853172"><ele>1475.0</ele><time>2026-05-03T12:42:21Z</time></trkpt><trkpt lat="43.1441272773068" lon="18.916828509914307"><ele>1475.0</ele><time>2026-05-03T12:42:22Z</time></trkpt><trkpt lat="43.14415684795316" lon="18.916919277858582"><ele>1475.0</ele><time>2026-05-03T12:42:23Z</time></trkpt><trkpt lat="43.14419917019257" lon="18.916988655608048"><ele>1474.0</ele><time>2026-05-03T12:42:24Z</time></trkpt><trkpt lat="43.14426471414946" lon="18.917049116730173"><ele>1473.0</ele><time>2026-05-03T12:42:25Z</time></trkpt><trkpt lat="43.144327388561976" lon="18.917106679808242"><ele>1472.0</ele><time>2026-05-03T12:42:26Z</time></trkpt><trkpt lat="43.14441449392502" lon="18.917117967948172"><ele>1471.0</ele><time>2026-05-03T12:42:27Z</time></trkpt><trkpt lat="43.144502334440524" lon="18.917112712786523"><ele>1470.0</ele><time>2026-05-03T12:42:28Z</time></trkpt><trkpt lat="43.14459006261037" lon="18.91706762344964"><ele>1469.0</ele><time>2026-05-03T12:42:29Z</time></trkpt><trkpt lat="43.14467128450765" lon="18.916997644555465"><ele>1469.0</ele><time>2026-05-03T12:42:30Z</time></trkpt><trkpt lat="43.14474884876769" lon="18.916921344743894"><ele>1469.0</ele><time>2026-05-03T12:42:31Z</time></trkpt><trkpt lat="43.14483239625749" lon="18.9168340139461"><ele>1469.0</ele><time>2026-05-03T12:42:32Z</time></trkpt><trkpt lat="43.14491807200125" lon="18.91674283880818"><ele>1469.0</ele><time>2026-05-03T12:42:33Z</time></trkpt><trkpt lat="43.14500466487953" lon="18.916650929199356"><ele>1469.0</ele><time>2026-05-03T12:42:34Z</time></trkpt><trkpt lat="43.14508728405629" lon="18.91656207341582"><ele>1466.6666666666667</ele><time>2026-05-03T12:42:35Z</time></trkpt><trkpt lat="43.145168547590984" lon="18.916492282627072"><ele>1464.3333333333335</ele><time>2026-05-03T12:42:36Z</time></trkpt><trkpt lat="43.145254806690126" lon="18.916435936260662"><ele>1462.0</ele><time>2026-05-03T12:42:37Z</time></trkpt><trkpt lat="43.145335983809105" lon="18.916442681552475"><ele>1459.6666666666667</ele><time>2026-05-03T12:42:38Z</time></trkpt><trkpt lat="43.14540555802529" lon="18.916466832422127"><ele>1457.3333333333333</ele><time>2026-05-03T12:42:39Z</time></trkpt><trkpt lat="43.14545565321912" lon="18.91655336568392"><ele>1455.0</ele><time>2026-05-03T12:42:40Z</time></trkpt><trkpt lat="43.14548877697207" lon="18.916660399220696"><ele>1455.5</ele><time>2026-05-03T12:42:41Z</time></trkpt><trkpt lat="43.145505167892296" lon="18.916781639857454"><ele>1456.0</ele><time>2026-05-03T12:42:42Z</time></trkpt><trkpt lat="43.1454941432082" lon="18.916901621488776"><ele>1456.5</ele><time>2026-05-03T12:42:43Z</time></trkpt><trkpt lat="43.14546152262453" lon="18.917009195933584"><ele>1457.0</ele><time>2026-05-03T12:42:44Z</time></trkpt><trkpt lat="43.14541551076158" lon="18.917105925077664"><ele>1457.5</ele><time>2026-05-03T12:42:45Z</time></trkpt><trkpt lat="43.145357351637905" lon="18.91719181642627"><ele>1458.0</ele><time>2026-05-03T12:42:46Z</time></trkpt><trkpt lat="43.145299862540725" lon="18.91728381336918"><ele>1458.0</ele><time>2026-05-03T12:42:47Z</time></trkpt><trkpt lat="43.14523876619006" lon="18.91737121592999"><ele>1458.0</ele><time>2026-05-03T12:42:48Z</time></trkpt><trkpt lat="43.145236535637395" lon="18.917504454863533"><ele>1458.0</ele><time>2026-05-03T12:42:49Z</time></trkpt><trkpt lat="43.14525840296499" lon="18.91762306864139"><ele>1458.0</ele><time>2026-05-03T12:42:50Z</time></trkpt><trkpt lat="43.145300338919405" lon="18.917729124022483"><ele>1458.0</ele><time>2026-05-03T12:42:51Z</time></trkpt><trkpt lat="43.14536861106109" lon="18.917830554471116"><ele>1458.8000000000002</ele><time>2026-05-03T12:42:52Z</time></trkpt><trkpt lat="43.14544888319627" lon="18.91793135488378"><ele>1459.6</ele><time>2026-05-03T12:42:53Z</time></trkpt><trkpt lat="43.145532239664156" lon="18.91803093165286"><ele>1460.4</ele><time>2026-05-03T12:42:54Z</time></trkpt><trkpt lat="43.14561301004944" lon="18.91812588435599"><ele>1461.1999999999998</ele><time>2026-05-03T12:42:55Z</time></trkpt><trkpt lat="43.14570102901257" lon="18.918168041015676"><ele>1462.0</ele><time>2026-05-03T12:42:56Z</time></trkpt><trkpt lat="43.14582955437196" lon="18.91819783515206"><ele>1459.75</ele><time>2026-05-03T12:42:57Z</time></trkpt><trkpt lat="43.145940051880316" lon="18.91818187926377"><ele>1457.5</ele><time>2026-05-03T12:42:58Z</time></trkpt><trkpt lat="43.146058511607585" lon="18.918145615089433"><ele>1455.25</ele><time>2026-05-03T12:42:59Z</time></trkpt><trkpt lat="43.14617907424744" lon="18.918145993391093"><ele>1453.0</ele><time>2026-05-03T12:43:00Z</time></trkpt><trkpt lat="43.1462900111279" lon="18.91816597058273"><ele>1453.0</ele><time>2026-05-03T12:43:01Z</time></trkpt><trkpt lat="43.146403617372656" lon="18.918195773674803"><ele>1453.0</ele><time>2026-05-03T12:43:02Z</time></trkpt><trkpt lat="43.14650172261175" lon="18.918250670420544"><ele>1453.0</ele><time>2026-05-03T12:43:03Z</time></trkpt><trkpt lat="43.146596916612204" lon="18.918314186905608"><ele>1453.0</ele><time>2026-05-03T12:43:04Z</time></trkpt><trkpt lat="43.14669194735347" lon="18.91838622800809"><ele>1453.0</ele><time>2026-05-03T12:43:05Z</time></trkpt><trkpt lat="43.1467855620771" lon="18.918456825447528"><ele>1451.2</ele><time>2026-05-03T12:43:06Z</time></trkpt><trkpt lat="43.14685379830629" lon="18.918559775364173"><ele>1449.4</ele><time>2026-05-03T12:43:07Z</time></trkpt><trkpt lat="43.14692756736717" lon="18.91865726696106"><ele>1447.6000000000001</ele><time>2026-05-03T12:43:08Z</time></trkpt><trkpt lat="43.14695924593373" lon="18.918781653341956"><ele>1445.8000000000002</ele><time>2026-05-03T12:43:09Z</time></trkpt><trkpt lat="43.14696833137013" lon="18.91890938677005"><ele>1444.0</ele><time>2026-05-03T12:43:10Z</time></trkpt><trkpt lat="43.146975561538774" lon="18.91904681770971"><ele>1444.0</ele><time>2026-05-03T12:43:11Z</time></trkpt><trkpt lat="43.14697435144827" lon="18.91917776555088"><ele>1444.0</ele><time>2026-05-03T12:43:12Z</time></trkpt><trkpt lat="43.14699648475616" lon="18.9193167855654"><ele>1444.0</ele><time>2026-05-03T12:43:13Z</time></trkpt><trkpt lat="43.14702525074139" lon="18.91945625829182"><ele>1444.0</ele><time>2026-05-03T12:43:14Z</time></trkpt><trkpt lat="43.14708680891724" lon="18.919576464161928"><ele>1444.0</ele><time>2026-05-03T12:43:15Z</time></trkpt><trkpt lat="43.14717083507281" lon="18.91967166736537"><ele>1442.75</ele><time>2026-05-03T12:43:16Z</time></trkpt><trkpt lat="43.14726649304615" lon="18.919765385322084"><ele>1441.5</ele><time>2026-05-03T12:43:17Z</time></trkpt><trkpt lat="43.14735411972845" lon="18.91986292309131"><ele>1440.25</ele><time>2026-05-03T12:43:18Z</time></trkpt><trkpt lat="43.14748452560023" lon="18.91988477071219"><ele>1439.0</ele><time>2026-05-03T12:43:19Z</time></trkpt><trkpt lat="43.14761446381682" lon="18.919853574019545"><ele>1439.0</ele><time>2026-05-03T12:43:20Z</time></trkpt><trkpt lat="43.14773723948795" lon="18.919835817504815"><ele>1439.0</ele><time>2026-05-03T12:43:21Z</time></trkpt><trkpt lat="43.14784613185176" lon="18.919738315120647"><ele>1439.0</ele><time>2026-05-03T12:43:22Z</time></trkpt><trkpt lat="43.14796109755852" lon="18.91968834467886"><ele>1439.0</ele><time>2026-05-03T12:43:23Z</time></trkpt><trkpt lat="43.148067924136946" lon="18.919618910008502"><ele>1439.0</ele><time>2026-05-03T12:43:24Z</time></trkpt><trkpt lat="43.148166227608556" lon="18.91953269258722"><ele>1439.0</ele><time>2026-05-03T12:43:25Z</time></trkpt><trkpt lat="43.14828181467512" lon="18.919522239057745"><ele>1439.0</ele><time>2026-05-03T12:43:26Z</time></trkpt><trkpt lat="43.14838681487042" lon="18.9195132814425"><ele>1439.0</ele><time>2026-05-03T12:43:27Z</time></trkpt><trkpt lat="43.14848630922976" lon="18.919551468910203"><ele>1439.0</ele><time>2026-05-03T12:43:28Z</time></trkpt><trkpt lat="43.14857797229708" lon="18.91961032229673"><ele>1436.75</ele><time>2026-05-03T12:43:29Z</time></trkpt><trkpt lat="43.14867264300167" lon="18.919676898610152"><ele>1434.5</ele><time>2026-05-03T12:43:30Z</time></trkpt><trkpt lat="43.14877512422312" lon="18.919748713545122"><ele>1432.25</ele><time>2026-05-03T12:43:31Z</time></trkpt><trkpt lat="43.14888926792645" lon="18.91980304448961"><ele>1430.0</ele><time>2026-05-03T12:43:32Z</time></trkpt><trkpt lat="43.14899804219826" lon="18.91987908950518"><ele>1428.75</ele><time>2026-05-03T12:43:33Z</time></trkpt><trkpt lat="43.14910303024883" lon="18.91997782187036"><ele>1427.5</ele><time>2026-05-03T12:43:34Z</time></trkpt><trkpt lat="43.149229115570115" lon="18.919987834737125"><ele>1426.25</ele><time>2026-05-03T12:43:35Z</time></trkpt><trkpt lat="43.14934260808169" lon="18.919968886939035"><ele>1425.0</ele><time>2026-05-03T12:43:36Z</time></trkpt><trkpt lat="43.149449179430036" lon="18.919894087476944"><ele>1425.0</ele><time>2026-05-03T12:43:37Z</time></trkpt><trkpt lat="43.14955174004794" lon="18.919770523740837"><ele>1425.0</ele><time>2026-05-03T12:43:38Z</time></trkpt><trkpt lat="43.14964939698617" lon="18.91961188802074"><ele>1425.0</ele><time>2026-05-03T12:43:39Z</time></trkpt><trkpt lat="43.14975206570467" lon="18.919435709336213"><ele>1424.0</ele><time>2026-05-03T12:43:40Z</time></trkpt><trkpt lat="43.149881473678434" lon="18.91926831973729"><ele>1423.0</ele><time>2026-05-03T12:43:41Z</time></trkpt><trkpt lat="43.15000404321862" lon="18.919079635937923"><ele>1422.0</ele><time>2026-05-03T12:43:42Z</time></trkpt><trkpt lat="43.150128777559914" lon="18.91888735092443"><ele>1421.0</ele><time>2026-05-03T12:43:43Z</time></trkpt><trkpt lat="43.15025535381558" lon="18.91869313944121"><ele>1420.0</ele><time>2026-05-03T12:43:44Z</time></trkpt><trkpt lat="43.15037727245882" lon="18.91850594022489"><ele>1419.0</ele><time>2026-05-03T12:43:45Z</time></trkpt><trkpt lat="43.150498835809294" lon="18.91831810116146"><ele>1417.0</ele><time>2026-05-03T12:43:46Z</time></trkpt><trkpt lat="43.15061731925081" lon="18.91813517151726"><ele>1415.0</ele><time>2026-05-03T12:43:47Z</time></trkpt><trkpt lat="43.150723056597954" lon="18.91797236699713"><ele>1413.0</ele><time>2026-05-03T12:43:48Z</time></trkpt><trkpt lat="43.150815221164834" lon="18.91784877265524"><ele>1413.0</ele><time>2026-05-03T12:43:49Z</time></trkpt><trkpt lat="43.1509166988408" lon="18.917746202148223"><ele>1413.0</ele><time>2026-05-03T12:43:50Z</time></trkpt><trkpt lat="43.15104088436496" lon="18.917694128257065"><ele>1413.0</ele><time>2026-05-03T12:43:51Z</time></trkpt><trkpt lat="43.15118563334431" lon="18.91768681888685"><ele>1413.0</ele><time>2026-05-03T12:43:52Z</time></trkpt><trkpt lat="43.15134656642092" lon="18.917678111284356"><ele>1413.0</ele><time>2026-05-03T12:43:53Z</time></trkpt><trkpt lat="43.15152383450292" lon="18.917647585446797"><ele>1413.0</ele><time>2026-05-03T12:43:54Z</time></trkpt><trkpt lat="43.151712782326776" lon="18.917637487216698"><ele>1413.0</ele><time>2026-05-03T12:43:55Z</time></trkpt><trkpt lat="43.15191012573275" lon="18.917623389361808"><ele>1412.0</ele><time>2026-05-03T12:43:56Z</time></trkpt><trkpt lat="43.15211077600435" lon="18.91760935456686"><ele>1411.0</ele><time>2026-05-03T12:43:57Z</time></trkpt><trkpt lat="43.15231644949569" lon="18.917596006819235"><ele>1410.0</ele><time>2026-05-03T12:43:58Z</time></trkpt><trkpt lat="43.15252085482662" lon="18.917582946054328"><ele>1409.3333333333333</ele><time>2026-05-03T12:43:59Z</time></trkpt><trkpt lat="43.152733141838056" lon="18.917570469466142"><ele>1408.6666666666665</ele><time>2026-05-03T12:44:00Z</time></trkpt><trkpt lat="43.15294589775488" lon="18.917557723882805"><ele>1408.0</ele><time>2026-05-03T12:44:01Z</time></trkpt><trkpt lat="43.15316160528187" lon="18.91754506722956"><ele>1405.6666666666665</ele><time>2026-05-03T12:44:02Z</time></trkpt><trkpt lat="43.15338064826841" lon="18.917530366447565"><ele>1403.3333333333333</ele><time>2026-05-03T12:44:03Z</time></trkpt><trkpt lat="43.15360313631989" lon="18.91751481902149"><ele>1401.0</ele><time>2026-05-03T12:44:04Z</time></trkpt><trkpt lat="43.15382402919022" lon="18.91749913000376"><ele>1398.5</ele><time>2026-05-03T12:44:05Z</time></trkpt><trkpt lat="43.15404825445314" lon="18.91748387452108"><ele>1396.0</ele><time>2026-05-03T12:44:06Z</time></trkpt><trkpt lat="43.15427462784127" lon="18.91747024056328"><ele>1396.0</ele><time>2026-05-03T12:44:07Z</time></trkpt><trkpt lat="43.15450717019448" lon="18.91745809543667"><ele>1396.0</ele><time>2026-05-03T12:44:08Z</time></trkpt><trkpt lat="43.15473766952372" lon="18.917444965615985"><ele>1395.0</ele><time>2026-05-03T12:44:09Z</time></trkpt><trkpt lat="43.154969180719554" lon="18.91743115289712"><ele>1394.0</ele><time>2026-05-03T12:44:10Z</time></trkpt><trkpt lat="43.155200138108476" lon="18.917441166767425"><ele>1394.0</ele><time>2026-05-03T12:44:11Z</time></trkpt><trkpt lat="43.155416375145606" lon="18.917432406522824"><ele>1394.0</ele><time>2026-05-03T12:44:12Z</time></trkpt><trkpt lat="43.15560263455594" lon="18.917424860741377"><ele>1394.0</ele><time>2026-05-03T12:44:13Z</time></trkpt><trkpt lat="43.155760480949276" lon="18.917417455124152"><ele>1393.5</ele><time>2026-05-03T12:44:14Z</time></trkpt><trkpt lat="43.15588279751146" lon="18.917412848282467"><ele>1393.0</ele><time>2026-05-03T12:44:15Z</time></trkpt><trkpt lat="43.15599701015708" lon="18.91740855162082"><ele>1392.5</ele><time>2026-05-03T12:44:16Z</time></trkpt><trkpt lat="43.15610621465059" lon="18.917344362015"><ele>1392.0</ele><time>2026-05-03T12:44:17Z</time></trkpt><trkpt lat="43.15619759736866" lon="18.917217701263965"><ele>1392.0</ele><time>2026-05-03T12:44:18Z</time></trkpt><trkpt lat="43.15628623850099" lon="18.917076872518148"><ele>1392.0</ele><time>2026-05-03T12:44:19Z</time></trkpt><trkpt lat="43.1563700602335" lon="18.916914831979227"><ele>1392.0</ele><time>2026-05-03T12:44:20Z</time></trkpt><trkpt lat="43.15645247587196" lon="18.91672631357167"><ele>1392.0</ele><time>2026-05-03T12:44:21Z</time></trkpt><trkpt lat="43.1565535349078" lon="18.91655128468459"><ele>1391.3333333333333</ele><time>2026-05-03T12:44:22Z</time></trkpt><trkpt lat="43.15663355063092" lon="18.916349101045757"><ele>1390.6666666666665</ele><time>2026-05-03T12:44:23Z</time></trkpt><trkpt lat="43.156730367014504" lon="18.916163817520687"><ele>1390.0</ele><time>2026-05-03T12:44:24Z</time></trkpt><trkpt lat="43.15682580633217" lon="18.91597610410393"><ele>1390.0</ele><time>2026-05-03T12:44:25Z</time></trkpt><trkpt lat="43.15693868125902" lon="18.915796060243178"><ele>1390.0</ele><time>2026-05-03T12:44:26Z</time></trkpt><trkpt lat="43.15704481476658" lon="18.91559801652462"><ele>1390.0</ele><time>2026-05-03T12:44:27Z</time></trkpt><trkpt lat="43.157156550643485" lon="18.915389802694236"><ele>1390.0</ele><time>2026-05-03T12:44:28Z</time></trkpt><trkpt lat="43.15728580619796" lon="18.915185830019084"><ele>1390.0</ele><time>2026-05-03T12:44:29Z</time></trkpt><trkpt lat="43.157440875338835" lon="18.91499926691028"><ele>1390.0</ele><time>2026-05-03T12:44:30Z</time></trkpt><trkpt lat="43.15761248767148" lon="18.914804074994706"><ele>1387.0</ele><time>2026-05-03T12:44:31Z</time></trkpt><trkpt lat="43.15779956220091" lon="18.91459285015619"><ele>1384.0</ele><time>2026-05-03T12:44:32Z</time></trkpt><trkpt lat="43.158003502838035" lon="18.914361437625647"><ele>1383.5</ele><time>2026-05-03T12:44:33Z</time></trkpt><trkpt lat="43.158214329703604" lon="18.914123028283143"><ele>1383.0</ele><time>2026-05-03T12:44:34Z</time></trkpt><trkpt lat="43.15840491549897" lon="18.91390746687284"><ele>1383.0</ele><time>2026-05-03T12:44:35Z</time></trkpt><trkpt lat="43.15858533872088" lon="18.913703340142305"><ele>1383.0</ele><time>2026-05-03T12:44:36Z</time></trkpt><trkpt lat="43.1587515187443" lon="18.913515469289454"><ele>1383.0</ele><time>2026-05-03T12:44:37Z</time></trkpt><trkpt lat="43.158904781357144" lon="18.9133087925661"><ele>1383.3333333333333</ele><time>2026-05-03T12:44:38Z</time></trkpt><trkpt lat="43.15906176008064" lon="18.913131834216884"><ele>1383.6666666666665</ele><time>2026-05-03T12:44:39Z</time></trkpt><trkpt lat="43.159219048413995" lon="18.91295139165165"><ele>1384.0</ele><time>2026-05-03T12:44:40Z</time></trkpt><trkpt lat="43.159376233817376" lon="18.912772536145052"><ele>1384.0</ele><time>2026-05-03T12:44:41Z</time></trkpt><trkpt lat="43.15955173746251" lon="18.912612500850614"><ele>1384.0</ele><time>2026-05-03T12:44:42Z</time></trkpt><trkpt lat="43.15970709903886" lon="18.91243710114571"><ele>1384.0</ele><time>2026-05-03T12:44:43Z</time></trkpt><trkpt lat="43.15985574932639" lon="18.912270886476843"><ele>1383.0</ele><time>2026-05-03T12:44:44Z</time></trkpt><trkpt lat="43.15999955685948" lon="18.912109745960198"><ele>1382.0</ele><time>2026-05-03T12:44:45Z</time></trkpt><trkpt lat="43.160135037595346" lon="18.911957563281728"><ele>1381.0</ele><time>2026-05-03T12:44:46Z</time></trkpt><trkpt lat="43.16024121622334" lon="18.911788277250988"><ele>1381.5</ele><time>2026-05-03T12:44:47Z</time></trkpt><trkpt lat="43.16034729711061" lon="18.911653532272492"><ele>1382.0</ele><time>2026-05-03T12:44:48Z</time></trkpt><trkpt lat="43.16043316615155" lon="18.91151092766607"><ele>1382.5</ele><time>2026-05-03T12:44:49Z</time></trkpt><trkpt lat="43.160527072102795" lon="18.91135612726018"><ele>1383.0</ele><time>2026-05-03T12:44:50Z</time></trkpt><trkpt lat="43.16061011428543" lon="18.911180853706828"><ele>1383.0</ele><time>2026-05-03T12:44:51Z</time></trkpt><trkpt lat="43.16069176517272" lon="18.911006782947208"><ele>1383.0</ele><time>2026-05-03T12:44:52Z</time></trkpt><trkpt lat="43.160763717344466" lon="18.91081195574596"><ele>1383.0</ele><time>2026-05-03T12:44:53Z</time></trkpt><trkpt lat="43.16085701201781" lon="18.910626646765877"><ele>1381.5</ele><time>2026-05-03T12:44:54Z</time></trkpt><trkpt lat="43.16094217357296" lon="18.91045394148666"><ele>1380.0</ele><time>2026-05-03T12:44:55Z</time></trkpt><trkpt lat="43.1610549649803" lon="18.910351108528314"><ele>1378.5</ele><time>2026-05-03T12:44:56Z</time></trkpt><trkpt lat="43.1611575885448" lon="18.91027383133052"><ele>1377.0</ele><time>2026-05-03T12:44:57Z</time></trkpt><trkpt lat="43.161283135326144" lon="18.910198508628895"><ele>1377.0</ele><time>2026-05-03T12:44:58Z</time></trkpt><trkpt lat="43.16141318566098" lon="18.910122299731988"><ele>1377.0</ele><time>2026-05-03T12:44:59Z</time></trkpt><trkpt lat="43.16154525979035" lon="18.910044904946673"><ele>1377.0</ele><time>2026-05-03T12:45:00Z</time></trkpt><trkpt lat="43.16167899250406" lon="18.90994500537278"><ele>1377.0</ele><time>2026-05-03T12:45:01Z</time></trkpt><trkpt lat="43.161836718325695" lon="18.909862315745045"><ele>1377.6666666666667</ele><time>2026-05-03T12:45:02Z</time></trkpt><trkpt lat="43.162007411838474" lon="18.90976902076434"><ele>1378.3333333333335</ele><time>2026-05-03T12:45:03Z</time></trkpt><trkpt lat="43.16219138474418" lon="18.909693860088844"><ele>1379.0</ele><time>2026-05-03T12:45:04Z</time></trkpt><trkpt lat="43.16237325219867" lon="18.9095906800665"><ele>1380.25</ele><time>2026-05-03T12:45:05Z</time></trkpt><trkpt lat="43.16252659526076" lon="18.909487304131954"><ele>1381.5</ele><time>2026-05-03T12:45:06Z</time></trkpt><trkpt lat="43.16265152255911" lon="18.909409330539518"><ele>1382.75</ele><time>2026-05-03T12:45:07Z</time></trkpt><trkpt lat="43.16274369628712" lon="18.909347129926964"><ele>1384.0</ele><time>2026-05-03T12:45:08Z</time></trkpt><trkpt lat="43.162838611273564" lon="18.90940051301802"><ele>1384.0</ele><time>2026-05-03T12:45:09Z</time></trkpt><trkpt lat="43.1629312003912" lon="18.909488404816674"><ele>1384.0</ele><time>2026-05-03T12:45:10Z</time></trkpt><trkpt lat="43.16301476222486" lon="18.909613263715986"><ele>1384.0</ele><time>2026-05-03T12:45:11Z</time></trkpt><trkpt lat="43.163057507572915" lon="18.90976904577318"><ele>1384.0</ele><time>2026-05-03T12:45:12Z</time></trkpt><trkpt lat="43.16309687289941" lon="18.909940529939494"><ele>1383.2</ele><time>2026-05-03T12:45:13Z</time></trkpt><trkpt lat="43.16312510170025" lon="18.910077612080055"><ele>1382.4</ele><time>2026-05-03T12:45:14Z</time></trkpt><trkpt lat="43.16318201867435" lon="18.91017164766565"><ele>1381.6</ele><time>2026-05-03T12:45:15Z</time></trkpt><trkpt lat="43.16325973532803" lon="18.910225765212164"><ele>1380.8</ele><time>2026-05-03T12:45:16Z</time></trkpt><trkpt lat="43.163365738206984" lon="18.91027572708899"><ele>1380.0</ele><time>2026-05-03T12:45:17Z</time></trkpt><trkpt lat="43.16348654339878" lon="18.910326275772178"><ele>1382.5</ele><time>2026-05-03T12:45:18Z</time></trkpt><trkpt lat="43.163624705211696" lon="18.910386116624117"><ele>1385.0</ele><time>2026-05-03T12:45:19Z</time></trkpt><trkpt lat="43.16375055205651" lon="18.910467798843214"><ele>1387.5</ele><time>2026-05-03T12:45:20Z</time></trkpt><trkpt lat="43.16384597718302" lon="18.91058292141227"><ele>1390.0</ele><time>2026-05-03T12:45:21Z</time></trkpt><trkpt lat="43.163896133414305" lon="18.91074282225774"><ele>1390.0</ele><time>2026-05-03T12:45:22Z</time></trkpt><trkpt lat="43.16391081633986" lon="18.910912015491398"><ele>1390.0</ele><time>2026-05-03T12:45:23Z</time></trkpt><trkpt lat="43.16390456664729" lon="18.911099264563944"><ele>1390.0</ele><time>2026-05-03T12:45:24Z</time></trkpt><trkpt lat="43.16391416211013" lon="18.911299771990883"><ele>1390.0</ele><time>2026-05-03T12:45:25Z</time></trkpt><trkpt lat="43.1639015408874" lon="18.91150788110407"><ele>1390.0</ele><time>2026-05-03T12:45:26Z</time></trkpt><trkpt lat="43.16390365879494" lon="18.911713813932828"><ele>1390.0</ele><time>2026-05-03T12:45:27Z</time></trkpt><trkpt lat="43.163915703827556" lon="18.911893008710496"><ele>1390.0</ele><time>2026-05-03T12:45:28Z</time></trkpt><trkpt lat="43.163941348370685" lon="18.912055210602812"><ele>1390.0</ele><time>2026-05-03T12:45:29Z</time></trkpt><trkpt lat="43.16398564356504" lon="18.912183231190085"><ele>1392.5</ele><time>2026-05-03T12:45:30Z</time></trkpt><trkpt lat="43.164046425853975" lon="18.912274662473653"><ele>1395.0</ele><time>2026-05-03T12:45:31Z</time></trkpt><trkpt lat="43.164115046409144" lon="18.912324615205154"><ele>1397.5</ele><time>2026-05-03T12:45:32Z</time></trkpt><trkpt lat="43.164189472876295" lon="18.91233760404622"><ele>1400.0</ele><time>2026-05-03T12:45:33Z</time></trkpt><trkpt lat="43.16426444369029" lon="18.912305380163822"><ele>1402.5</ele><time>2026-05-03T12:45:34Z</time></trkpt><trkpt lat="43.16433107299915" lon="18.912234102813482"><ele>1405.0</ele><time>2026-05-03T12:45:35Z</time></trkpt><trkpt lat="43.16439642301632" lon="18.91215312960265"><ele>1405.0</ele><time>2026-05-03T12:45:36Z</time></trkpt><trkpt lat="43.16441782562346" lon="18.912003943503873"><ele>1405.0</ele><time>2026-05-03T12:45:37Z</time></trkpt><trkpt lat="43.16448012377628" lon="18.911883482702837"><ele>1405.0</ele><time>2026-05-03T12:45:38Z</time></trkpt><trkpt lat="43.16453362350159" lon="18.911744285742582"><ele>1405.0</ele><time>2026-05-03T12:45:39Z</time></trkpt><trkpt lat="43.164583881288756" lon="18.911614219214478"><ele>1405.0</ele><time>2026-05-03T12:45:40Z</time></trkpt><trkpt lat="43.164616909818434" lon="18.911481568540534"><ele>1405.0</ele><time>2026-05-03T12:45:41Z</time></trkpt><trkpt lat="43.16467749453194" lon="18.911390472054432"><ele>1405.0</ele><time>2026-05-03T12:45:42Z</time></trkpt><trkpt lat="43.16474160048619" lon="18.911339622115435"><ele>1405.0</ele><time>2026-05-03T12:45:43Z</time></trkpt><trkpt lat="43.16481677212463" lon="18.911308838147306"><ele>1405.0</ele><time>2026-05-03T12:45:44Z</time></trkpt><trkpt lat="43.16490544721193" lon="18.911304785899613"><ele>1405.0</ele><time>2026-05-03T12:45:45Z</time></trkpt><trkpt lat="43.165000641985834" lon="18.911310020190427"><ele>1405.0</ele><time>2026-05-03T12:45:46Z</time></trkpt><trkpt lat="43.16510127891856" lon="18.911348192744"><ele>1407.5</ele><time>2026-05-03T12:45:47Z</time></trkpt><trkpt lat="43.165204177196586" lon="18.911414100958492"><ele>1410.0</ele><time>2026-05-03T12:45:48Z</time></trkpt><trkpt lat="43.16529802494791" lon="18.9115008249743"><ele>1412.5</ele><time>2026-05-03T12:45:49Z</time></trkpt><trkpt lat="43.16537997321142" lon="18.91161525685858"><ele>1415.0</ele><time>2026-05-03T12:45:50Z</time></trkpt><trkpt lat="43.16542518512743" lon="18.911759641899916"><ele>1415.0</ele><time>2026-05-03T12:45:51Z</time></trkpt><trkpt lat="43.16543065056021" lon="18.911922574575115"><ele>1415.0</ele><time>2026-05-03T12:45:52Z</time></trkpt><trkpt lat="43.16544591876115" lon="18.912074377873132"><ele>1415.0</ele><time>2026-05-03T12:45:53Z</time></trkpt><trkpt lat="43.165457658312185" lon="18.912232777242032"><ele>1415.0</ele><time>2026-05-03T12:45:54Z</time></trkpt><trkpt lat="43.165468611099435" lon="18.912385381601002"><ele>1415.0</ele><time>2026-05-03T12:45:55Z</time></trkpt><trkpt lat="43.16548075317184" lon="18.912530577859442"><ele>1415.0</ele><time>2026-05-03T12:45:56Z</time></trkpt><trkpt lat="43.165480401638746" lon="18.912671848283836"><ele>1415.0</ele><time>2026-05-03T12:45:57Z</time></trkpt><trkpt lat="43.16552963038615" lon="18.912804621440827"><ele>1415.0</ele><time>2026-05-03T12:45:58Z</time></trkpt><trkpt lat="43.165587561795114" lon="18.91291261090926"><ele>1415.0</ele><time>2026-05-03T12:45:59Z</time></trkpt><trkpt lat="43.16565675475295" lon="18.912983159596127"><ele>1418.25</ele><time>2026-05-03T12:46:00Z</time></trkpt><trkpt lat="43.16575853674305" lon="18.913031152041416"><ele>1421.5</ele><time>2026-05-03T12:46:01Z</time></trkpt><trkpt lat="43.165878915421104" lon="18.913069908455313"><ele>1424.75</ele><time>2026-05-03T12:46:02Z</time></trkpt><trkpt lat="43.165982853866886" lon="18.91314361612466"><ele>1428.0</ele><time>2026-05-03T12:46:03Z</time></trkpt><trkpt lat="43.16603987971677" lon="18.913288420166474"><ele>1428.75</ele><time>2026-05-03T12:46:04Z</time></trkpt><trkpt lat="43.166021556223875" lon="18.913453460823188"><ele>1429.5</ele><time>2026-05-03T12:46:05Z</time></trkpt><trkpt lat="43.16602757928685" lon="18.913646810017788"><ele>1430.25</ele><time>2026-05-03T12:46:06Z</time></trkpt><trkpt lat="43.16603361147494" lon="18.913843541611552"><ele>1431.0</ele><time>2026-05-03T12:46:07Z</time></trkpt><trkpt lat="43.16603743113531" lon="18.914041675364356"><ele>1431.0</ele><time>2026-05-03T12:46:08Z</time></trkpt><trkpt lat="43.166040843157184" lon="18.914234676953733"><ele>1431.0</ele><time>2026-05-03T12:46:09Z</time></trkpt><trkpt lat="43.166060571389224" lon="18.914396356812773"><ele>1431.0</ele><time>2026-05-03T12:46:10Z</time></trkpt><trkpt lat="43.166065707577054" lon="18.914524241809918"><ele>1431.0</ele><time>2026-05-03T12:46:11Z</time></trkpt><trkpt lat="43.166091775195724" lon="18.91461010389407"><ele>1431.0</ele><time>2026-05-03T12:46:12Z</time></trkpt><trkpt lat="43.16614299920109" lon="18.914690926951067"><ele>1431.8</ele><time>2026-05-03T12:46:13Z</time></trkpt><trkpt lat="43.16622093687953" lon="18.914783629260125"><ele>1432.6</ele><time>2026-05-03T12:46:14Z</time></trkpt><trkpt lat="43.16631630740896" lon="18.914881730942483"><ele>1433.4</ele><time>2026-05-03T12:46:15Z</time></trkpt><trkpt lat="43.166404414703656" lon="18.914980047413568"><ele>1434.2</ele><time>2026-05-03T12:46:16Z</time></trkpt><trkpt lat="43.166482705758575" lon="18.91507416576763"><ele>1435.0</ele><time>2026-05-03T12:46:17Z</time></trkpt><trkpt lat="43.16656169110251" lon="18.915167682233015"><ele>1437.2</ele><time>2026-05-03T12:46:18Z</time></trkpt><trkpt lat="43.16663002747733" lon="18.91525507480088"><ele>1439.4</ele><time>2026-05-03T12:46:19Z</time></trkpt><trkpt lat="43.166698702063144" lon="18.91534683749388"><ele>1441.6</ele><time>2026-05-03T12:46:20Z</time></trkpt><trkpt lat="43.16676811144989" lon="18.91543857226235"><ele>1443.8</ele><time>2026-05-03T12:46:21Z</time></trkpt><trkpt lat="43.16683576854433" lon="18.915521516053417"><ele>1446.0</ele><time>2026-05-03T12:46:22Z</time></trkpt><trkpt lat="43.166905308575835" lon="18.915603154584893"><ele>1446.0</ele><time>2026-05-03T12:46:23Z</time></trkpt><trkpt lat="43.16698336323564" lon="18.91566235006443"><ele>1446.0</ele><time>2026-05-03T12:46:24Z</time></trkpt><trkpt lat="43.16710078718286" lon="18.915708270275935"><ele>1446.0</ele><time>2026-05-03T12:46:25Z</time></trkpt><trkpt lat="43.16723253157117" lon="18.915761321107304"><ele>1446.0</ele><time>2026-05-03T12:46:26Z</time></trkpt><trkpt lat="43.167365845082806" lon="18.91581475110739"><ele>1445.75</ele><time>2026-05-03T12:46:27Z</time></trkpt><trkpt lat="43.167483571040776" lon="18.915882508303184"><ele>1445.5</ele><time>2026-05-03T12:46:28Z</time></trkpt><trkpt lat="43.16758027962874" lon="18.916002772547536"><ele>1445.25</ele><time>2026-05-03T12:46:29Z</time></trkpt><trkpt lat="43.16763248338205" lon="18.916196847192182"><ele>1445.0</ele><time>2026-05-03T12:46:30Z</time></trkpt><trkpt lat="43.167675280224806" lon="18.916402009986207"><ele>1443.6666666666667</ele><time>2026-05-03T12:46:31Z</time></trkpt><trkpt lat="43.16773710708659" lon="18.9166243924449"><ele>1442.3333333333333</ele><time>2026-05-03T12:46:32Z</time></trkpt><trkpt lat="43.167822499748354" lon="18.916859032657193"><ele>1441.0</ele><time>2026-05-03T12:46:33Z</time></trkpt><trkpt lat="43.16789029129928" lon="18.917118472306537"><ele>1441.0</ele><time>2026-05-03T12:46:34Z</time></trkpt><trkpt lat="43.16796988328115" lon="18.917393713351128"><ele>1441.0</ele><time>2026-05-03T12:46:35Z</time></trkpt><trkpt lat="43.16805661998822" lon="18.91768259577854"><ele>1441.0</ele><time>2026-05-03T12:46:36Z</time></trkpt><trkpt lat="43.16814787182518" lon="18.917972209724102"><ele>1440.6666666666665</ele><time>2026-05-03T12:46:37Z</time></trkpt><trkpt lat="43.16822915661514" lon="18.91823443532267"><ele>1440.3333333333333</ele><time>2026-05-03T12:46:38Z</time></trkpt><trkpt lat="43.16830129657603" lon="18.918470484127486"><ele>1440.0</ele><time>2026-05-03T12:46:39Z</time></trkpt><trkpt lat="43.16836210909417" lon="18.918670382446383"><ele>1440.0</ele><time>2026-05-03T12:46:40Z</time></trkpt><trkpt lat="43.1684137272579" lon="18.91883389926815"><ele>1440.0</ele><time>2026-05-03T12:46:41Z</time></trkpt><trkpt lat="43.168459317903114" lon="18.918955804483303"><ele>1440.0</ele><time>2026-05-03T12:46:42Z</time></trkpt><trkpt lat="43.168512850784396" lon="18.91903301920569"><ele>1440.0</ele><time>2026-05-03T12:46:43Z</time></trkpt><trkpt lat="43.16858893754014" lon="18.919063767432867"><ele>1440.0</ele><time>2026-05-03T12:46:44Z</time></trkpt><trkpt lat="43.168679920934004" lon="18.919071377235362"><ele>1440.0</ele><time>2026-05-03T12:46:45Z</time></trkpt><trkpt lat="43.16879231109588" lon="18.91905868148948"><ele>1440.0</ele><time>2026-05-03T12:46:46Z</time></trkpt><trkpt lat="43.16891409288184" lon="18.91904049211947"><ele>1440.0</ele><time>2026-05-03T12:46:47Z</time></trkpt><trkpt lat="43.16901288505651" lon="18.919043519390225"><ele>1440.0</ele><time>2026-05-03T12:46:48Z</time></trkpt><trkpt lat="43.16908712735967" lon="18.91908716205312"><ele>1440.0</ele><time>2026-05-03T12:46:49Z</time></trkpt><trkpt lat="43.169142038887294" lon="18.91917676568109"><ele>1438.4</ele><time>2026-05-03T12:46:50Z</time></trkpt><trkpt lat="43.16914293591552" lon="18.91930312579637"><ele>1436.8</ele><time>2026-05-03T12:46:51Z</time></trkpt><trkpt lat="43.169114998772336" lon="18.919439105689396"><ele>1435.1999999999998</ele><time>2026-05-03T12:46:52Z</time></trkpt><trkpt lat="43.169126139293965" lon="18.91960245271998"><ele>1433.6</ele><time>2026-05-03T12:46:53Z</time></trkpt><trkpt lat="43.16911535261087" lon="18.919780127512585"><ele>1432.0</ele><time>2026-05-03T12:46:54Z</time></trkpt><trkpt lat="43.16911680073502" lon="18.919956330017232"><ele>1433.6</ele><time>2026-05-03T12:46:55Z</time></trkpt><trkpt lat="43.16911727036821" lon="18.9201161710137"><ele>1435.1999999999998</ele><time>2026-05-03T12:46:56Z</time></trkpt><trkpt lat="43.16913664861188" lon="18.92024468490307"><ele>1436.8</ele><time>2026-05-03T12:46:57Z</time></trkpt><trkpt lat="43.16921304930433" lon="18.920289569335566"><ele>1438.4</ele><time>2026-05-03T12:46:58Z</time></trkpt><trkpt lat="43.169301721569965" lon="18.92028827643529"><ele>1440.0</ele><time>2026-05-03T12:46:59Z</time></trkpt><trkpt lat="43.16939396763975" lon="18.920244215043763"><ele>1440.0</ele><time>2026-05-03T12:47:00Z</time></trkpt><trkpt lat="43.16948514475581" lon="18.920233205624886"><ele>1440.0</ele><time>2026-05-03T12:47:01Z</time></trkpt><trkpt lat="43.169552526618375" lon="18.920286787958005"><ele>1440.0</ele><time>2026-05-03T12:47:02Z</time></trkpt><trkpt lat="43.16960860610678" lon="18.920398307988403"><ele>1440.0</ele><time>2026-05-03T12:47:03Z</time></trkpt><trkpt lat="43.16965701682504" lon="18.92054354002533"><ele>1440.0</ele><time>2026-05-03T12:47:04Z</time></trkpt><trkpt lat="43.16972327492506" lon="18.920715245000565"><ele>1440.0</ele><time>2026-05-03T12:47:05Z</time></trkpt><trkpt lat="43.16977935783126" lon="18.920870340806754"><ele>1440.0</ele><time>2026-05-03T12:47:06Z</time></trkpt><trkpt lat="43.16980079793158" lon="18.921026275155146"><ele>1440.0</ele><time>2026-05-03T12:47:07Z</time></trkpt><trkpt lat="43.16980013879507" lon="18.92119824357076"><ele>1440.0</ele><time>2026-05-03T12:47:08Z</time></trkpt><trkpt lat="43.169799616005555" lon="18.921388923494337"><ele>1442.0</ele><time>2026-05-03T12:47:09Z</time></trkpt><trkpt lat="43.16980992836868" lon="18.92159492662419"><ele>1444.0</ele><time>2026-05-03T12:47:10Z</time></trkpt><trkpt lat="43.169809178137925" lon="18.921809705142937"><ele>1446.0</ele><time>2026-05-03T12:47:11Z</time></trkpt><trkpt lat="43.16979179169395" lon="18.922032643701456"><ele>1446.6666666666667</ele><time>2026-05-03T12:47:12Z</time></trkpt><trkpt lat="43.16977134512869" lon="18.922259706694906"><ele>1447.3333333333335</ele><time>2026-05-03T12:47:13Z</time></trkpt><trkpt lat="43.16974322865175" lon="18.922478984357532"><ele>1448.0</ele><time>2026-05-03T12:47:14Z</time></trkpt><trkpt lat="43.16971665404026" lon="18.922699261441103"><ele>1448.5</ele><time>2026-05-03T12:47:15Z</time></trkpt><trkpt lat="43.16969707144354" lon="18.92290131097245"><ele>1449.0</ele><time>2026-05-03T12:47:16Z</time></trkpt><trkpt lat="43.16969042347742" lon="18.92307842546341"><ele>1449.5</ele><time>2026-05-03T12:47:17Z</time></trkpt><trkpt lat="43.169701217964274" lon="18.92322053628814"><ele>1450.0</ele><time>2026-05-03T12:47:18Z</time></trkpt><trkpt lat="43.16974099626232" lon="18.92330579744935"><ele>1450.0</ele><time>2026-05-03T12:47:19Z</time></trkpt><trkpt lat="43.16980829782935" lon="18.92335779906302"><ele>1450.0</ele><time>2026-05-03T12:47:20Z</time></trkpt><trkpt lat="43.169897837801784" lon="18.92338096328302"><ele>1450.0</ele><time>2026-05-03T12:47:21Z</time></trkpt><trkpt lat="43.1699963636213" lon="18.92335676839445"><ele>1450.0</ele><time>2026-05-03T12:47:22Z</time></trkpt><trkpt lat="43.170087045874205" lon="18.92327706805058"><ele>1450.0</ele><time>2026-05-03T12:47:23Z</time></trkpt><trkpt lat="43.170182185600574" lon="18.923218690174995"><ele>1447.0</ele><time>2026-05-03T12:47:24Z</time></trkpt><trkpt lat="43.17026824597009" lon="18.923228717484154"><ele>1444.0</ele><time>2026-05-03T12:47:25Z</time></trkpt><trkpt lat="43.17034705177823" lon="18.923302385112372"><ele>1441.0</ele><time>2026-05-03T12:47:26Z</time></trkpt><trkpt lat="43.17040650835215" lon="18.923416584926166"><ele>1438.0</ele><time>2026-05-03T12:47:27Z</time></trkpt><trkpt lat="43.17046111813515" lon="18.92355599169362"><ele>1435.0</ele><time>2026-05-03T12:47:28Z</time></trkpt><trkpt lat="43.1705145682172" lon="18.92371531345372"><ele>1435.0</ele><time>2026-05-03T12:47:29Z</time></trkpt><trkpt lat="43.170572952570886" lon="18.92387531811345"><ele>1435.0</ele><time>2026-05-03T12:47:30Z</time></trkpt><trkpt lat="43.170604250048235" lon="18.92405909259499"><ele>1435.0</ele><time>2026-05-03T12:47:31Z</time></trkpt><trkpt lat="43.17064114186011" lon="18.924233693298884"><ele>1435.0</ele><time>2026-05-03T12:47:32Z</time></trkpt><trkpt lat="43.1706777388586" lon="18.924400206841998"><ele>1436.6</ele><time>2026-05-03T12:47:33Z</time></trkpt><trkpt lat="43.1707144302179" lon="18.924560314886826"><ele>1438.2</ele><time>2026-05-03T12:47:34Z</time></trkpt><trkpt lat="43.170735869949254" lon="18.924709682601836"><ele>1439.8000000000002</ele><time>2026-05-03T12:47:35Z</time></trkpt><trkpt lat="43.170728433326076" lon="18.924848501078564"><ele>1441.4</ele><time>2026-05-03T12:47:36Z</time></trkpt><trkpt lat="43.17070045376283" lon="18.924995672843163"><ele>1443.0</ele><time>2026-05-03T12:47:37Z</time></trkpt><trkpt lat="43.17066962383937" lon="18.925159338468706"><ele>1443.0</ele><time>2026-05-03T12:47:38Z</time></trkpt><trkpt lat="43.17066462822338" lon="18.925342374908784"><ele>1443.0</ele><time>2026-05-03T12:47:39Z</time></trkpt><trkpt lat="43.17065504776739" lon="18.92553986501437"><ele>1443.0</ele><time>2026-05-03T12:47:40Z</time></trkpt><trkpt lat="43.170668308040675" lon="18.92576607914655"><ele>1443.0</ele><time>2026-05-03T12:47:41Z</time></trkpt><trkpt lat="43.17067538924665" lon="18.925994454503524"><ele>1443.0</ele><time>2026-05-03T12:47:42Z</time></trkpt><trkpt lat="43.17069097937678" lon="18.926178050314604"><ele>1443.0</ele><time>2026-05-03T12:47:43Z</time></trkpt><trkpt lat="43.170736748231256" lon="18.926346504091725"><ele>1443.0</ele><time>2026-05-03T12:47:44Z</time></trkpt><trkpt lat="43.1707618826906" lon="18.926468620126922"><ele>1443.0</ele><time>2026-05-03T12:47:45Z</time></trkpt><trkpt lat="43.17088237166751" lon="18.92650624872323"><ele>1440.5</ele><time>2026-05-03T12:47:46Z</time></trkpt><trkpt lat="43.17099004575401" lon="18.926529755138386"><ele>1438.0</ele><time>2026-05-03T12:47:47Z</time></trkpt><trkpt lat="43.1711266082537" lon="18.92653872728117"><ele>1435.5</ele><time>2026-05-03T12:47:48Z</time></trkpt><trkpt lat="43.17127116602311" lon="18.926596257222112"><ele>1433.0</ele><time>2026-05-03T12:47:49Z</time></trkpt><trkpt lat="43.17139951233499" lon="18.92665418091565"><ele>1433.0</ele><time>2026-05-03T12:47:50Z</time></trkpt><trkpt lat="43.17150533660975" lon="18.92671200359249"><ele>1433.0</ele><time>2026-05-03T12:47:51Z</time></trkpt><trkpt lat="43.17157030446013" lon="18.92681744106428"><ele>1433.0</ele><time>2026-05-03T12:47:52Z</time></trkpt><trkpt lat="43.17165215268534" lon="18.926872350839208"><ele>1433.0</ele><time>2026-05-03T12:47:53Z</time></trkpt><trkpt lat="43.171712184122036" lon="18.92694933160552"><ele>1433.0</ele><time>2026-05-03T12:47:54Z</time></trkpt><trkpt lat="43.171796170204225" lon="18.926863808702123"><ele>1432.4</ele><time>2026-05-03T12:47:55Z</time></trkpt><trkpt lat="43.1718351303" lon="18.926770084759365"><ele>1431.8000000000002</ele><time>2026-05-03T12:47:56Z</time></trkpt><trkpt lat="43.17183980451565" lon="18.926631950233286"><ele>1431.2</ele><time>2026-05-03T12:47:57Z</time></trkpt><trkpt lat="43.17181054458659" lon="18.926500320259784"><ele>1430.6</ele><time>2026-05-03T12:47:58Z</time></trkpt><trkpt lat="43.17177819773877" lon="18.9263574130279"><ele>1430.0</ele><time>2026-05-03T12:47:59Z</time></trkpt><trkpt lat="43.17175782246163" lon="18.9262079934332"><ele>1430.0</ele><time>2026-05-03T12:48:00Z</time></trkpt><trkpt lat="43.17175123360339" lon="18.92606890359358"><ele>1430.0</ele><time>2026-05-03T12:48:01Z</time></trkpt><trkpt lat="43.17177294319117" lon="18.92596034863978"><ele>1430.0</ele><time>2026-05-03T12:48:02Z</time></trkpt><trkpt lat="43.17182822781315" lon="18.92589512997617"><ele>1430.0</ele><time>2026-05-03T12:48:03Z</time></trkpt><trkpt lat="43.17190802217817" lon="18.925867851863345"><ele>1430.0</ele><time>2026-05-03T12:48:04Z</time></trkpt><trkpt lat="43.1720026948494" lon="18.92586464325415"><ele>1430.0</ele><time>2026-05-03T12:48:05Z</time></trkpt><trkpt lat="43.172107388512245" lon="18.925859864189125"><ele>1429.2</ele><time>2026-05-03T12:48:06Z</time></trkpt><trkpt lat="43.17220041880297" lon="18.925806653450895"><ele>1428.4</ele><time>2026-05-03T12:48:07Z</time></trkpt><trkpt lat="43.17227070840597" lon="18.925697090603023"><ele>1427.6</ele><time>2026-05-03T12:48:08Z</time></trkpt><trkpt lat="43.172318599615274" lon="18.925571050641558"><ele>1426.8</ele><time>2026-05-03T12:48:09Z</time></trkpt><trkpt lat="43.17235308984131" lon="18.92547705183985"><ele>1426.0</ele><time>2026-05-03T12:48:10Z</time></trkpt><trkpt lat="43.172425622294796" lon="18.92533161077778"><ele>1428.0</ele><time>2026-05-03T12:48:12Z</time></trkpt><trkpt lat="43.17246991366938" lon="18.92524327005078"><ele>1430.0</ele><time>2026-05-03T12:48:13Z</time></trkpt><trkpt lat="43.17254182116115" lon="18.925148532761725"><ele>1432.0</ele><time>2026-05-03T12:48:14Z</time></trkpt><trkpt lat="43.17262291417476" lon="18.92507296602399"><ele>1434.0</ele><time>2026-05-03T12:48:15Z</time></trkpt><trkpt lat="43.17270552865751" lon="18.925028201369884"><ele>1436.0</ele><time>2026-05-03T12:48:16Z</time></trkpt><trkpt lat="43.17280027823891" lon="18.92501500992215"><ele>1436.0</ele><time>2026-05-03T12:48:17Z</time></trkpt><trkpt lat="43.172905788000364" lon="18.925026842944757"><ele>1436.0</ele><time>2026-05-03T12:48:18Z</time></trkpt><trkpt lat="43.17301751262461" lon="18.925052524504647"><ele>1436.0</ele><time>2026-05-03T12:48:19Z</time></trkpt><trkpt lat="43.17315348479986" lon="18.925062432958033"><ele>1436.0</ele><time>2026-05-03T12:48:20Z</time></trkpt><trkpt lat="43.17329690539627" lon="18.925064226789598"><ele>1437.75</ele><time>2026-05-03T12:48:21Z</time></trkpt><trkpt lat="43.173441732203756" lon="18.92506363610313"><ele>1439.5</ele><time>2026-05-03T12:48:22Z</time></trkpt><trkpt lat="43.17358545910907" lon="18.925061343227167"><ele>1441.25</ele><time>2026-05-03T12:48:23Z</time></trkpt><trkpt lat="43.173727445487195" lon="18.92505488286752"><ele>1443.0</ele><time>2026-05-03T12:48:24Z</time></trkpt><trkpt lat="43.173863410339436" lon="18.925043185213642"><ele>1443.0</ele><time>2026-05-03T12:48:25Z</time></trkpt><trkpt lat="43.17400363273683" lon="18.92503333985292"><ele>1443.0</ele><time>2026-05-03T12:48:26Z</time></trkpt><trkpt lat="43.1741480193425" lon="18.92491251531848"><ele>1443.0</ele><time>2026-05-03T12:48:27Z</time></trkpt><trkpt lat="43.17431013456409" lon="18.92478955622408"><ele>1443.6666666666667</ele><time>2026-05-03T12:48:28Z</time></trkpt><trkpt lat="43.17451003713463" lon="18.924669625859458"><ele>1444.3333333333335</ele><time>2026-05-03T12:48:29Z</time></trkpt><trkpt lat="43.174683204485135" lon="18.924527168066433"><ele>1445.0</ele><time>2026-05-03T12:48:30Z</time></trkpt><trkpt lat="43.174838262733836" lon="18.92442472244771"><ele>1446.75</ele><time>2026-05-03T12:48:31Z</time></trkpt><trkpt lat="43.17496951745924" lon="18.924336633647307"><ele>1448.5</ele><time>2026-05-03T12:48:32Z</time></trkpt><trkpt lat="43.175095034023286" lon="18.924246863704955"><ele>1450.25</ele><time>2026-05-03T12:48:33Z</time></trkpt><trkpt lat="43.17521227349998" lon="18.924170454196204"><ele>1452.0</ele><time>2026-05-03T12:48:34Z</time></trkpt><trkpt lat="43.1753160579938" lon="18.92411492070535"><ele>1452.0</ele><time>2026-05-03T12:48:35Z</time></trkpt><trkpt lat="43.175401695054276" lon="18.924099247844428"><ele>1452.0</ele><time>2026-05-03T12:48:36Z</time></trkpt><trkpt lat="43.17548327736564" lon="18.924122253633445"><ele>1452.0</ele><time>2026-05-03T12:48:37Z</time></trkpt><trkpt lat="43.175573866342795" lon="18.924180924648155"><ele>1452.0</ele><time>2026-05-03T12:48:38Z</time></trkpt><trkpt lat="43.175661748899394" lon="18.92425629187738"><ele>1452.0</ele><time>2026-05-03T12:48:39Z</time></trkpt><trkpt lat="43.17574388367487" lon="18.924311455058376"><ele>1455.5</ele><time>2026-05-03T12:48:40Z</time></trkpt><trkpt lat="43.17584931852025" lon="18.92434216513673"><ele>1459.0</ele><time>2026-05-03T12:48:41Z</time></trkpt><trkpt lat="43.17596353269946" lon="18.92438718787351"><ele>1462.5</ele><time>2026-05-03T12:48:42Z</time></trkpt><trkpt lat="43.17607409264153" lon="18.924357565432054"><ele>1466.0</ele><time>2026-05-03T12:48:43Z</time></trkpt><trkpt lat="43.176185536522816" lon="18.92433690053901"><ele>1466.0</ele><time>2026-05-03T12:48:44Z</time></trkpt><trkpt lat="43.176286640356736" lon="18.924292364956532"><ele>1466.0</ele><time>2026-05-03T12:48:45Z</time></trkpt><trkpt lat="43.17637164665457" lon="18.924236149284603"><ele>1466.0</ele><time>2026-05-03T12:48:46Z</time></trkpt><trkpt lat="43.17645044202861" lon="18.924250794454483"><ele>1466.0</ele><time>2026-05-03T12:48:47Z</time></trkpt><trkpt lat="43.176520293080195" lon="18.924278398758776"><ele>1466.0</ele><time>2026-05-03T12:48:48Z</time></trkpt><trkpt lat="43.17655853528188" lon="18.924400537531707"><ele>1465.4</ele><time>2026-05-03T12:48:49Z</time></trkpt><trkpt lat="43.17662495078397" lon="18.92449537990241"><ele>1464.8</ele><time>2026-05-03T12:48:50Z</time></trkpt><trkpt lat="43.176690621111064" lon="18.924610325776435"><ele>1464.2</ele><time>2026-05-03T12:48:51Z</time></trkpt><trkpt lat="43.17677771346443" lon="18.924694439015664"><ele>1463.6000000000001</ele><time>2026-05-03T12:48:52Z</time></trkpt><trkpt lat="43.17687420151843" lon="18.924705371658302"><ele>1463.0</ele><time>2026-05-03T12:48:53Z</time></trkpt><trkpt lat="43.17698027095738" lon="18.92466861595138"><ele>1463.0</ele><time>2026-05-03T12:48:54Z</time></trkpt><trkpt lat="43.177085883635854" lon="18.92463462304312"><ele>1463.0</ele><time>2026-05-03T12:48:55Z</time></trkpt><trkpt lat="43.1771905046904" lon="18.924638669728"><ele>1463.0</ele><time>2026-05-03T12:48:56Z</time></trkpt><trkpt lat="43.177276939268715" lon="18.924673399696925"><ele>1463.0</ele><time>2026-05-03T12:48:57Z</time></trkpt><trkpt lat="43.17735417626065" lon="18.924735098639232"><ele>1463.0</ele><time>2026-05-03T12:48:58Z</time></trkpt><trkpt lat="43.17742139897103" lon="18.924847442723667"><ele>1462.2</ele><time>2026-05-03T12:48:59Z</time></trkpt><trkpt lat="43.17747733284407" lon="18.924968834179293"><ele>1461.4</ele><time>2026-05-03T12:49:00Z</time></trkpt><trkpt lat="43.177536345087425" lon="18.92505952738414"><ele>1460.6000000000001</ele><time>2026-05-03T12:49:01Z</time></trkpt><trkpt lat="43.17761585493218" lon="18.925119252119895"><ele>1459.8000000000002</ele><time>2026-05-03T12:49:02Z</time></trkpt><trkpt lat="43.177706870656436" lon="18.925132809348465"><ele>1459.0</ele><time>2026-05-03T12:49:03Z</time></trkpt><trkpt lat="43.17779771216408" lon="18.925105816776444"><ele>1459.0</ele><time>2026-05-03T12:49:04Z</time></trkpt><trkpt lat="43.177869322279406" lon="18.925066316329293"><ele>1459.0</ele><time>2026-05-03T12:49:05Z</time></trkpt><trkpt lat="43.17794843312378" lon="18.925013066627486"><ele>1459.0</ele><time>2026-05-03T12:49:06Z</time></trkpt><trkpt lat="43.17803132710177" lon="18.92496102872705"><ele>1459.0</ele><time>2026-05-03T12:49:07Z</time></trkpt><trkpt lat="43.17812477607734" lon="18.924892328740295"><ele>1459.0</ele><time>2026-05-03T12:49:08Z</time></trkpt><trkpt lat="43.17822072450192" lon="18.92479426873947"><ele>1456.3333333333333</ele><time>2026-05-03T12:49:09Z</time></trkpt><trkpt lat="43.178337018594256" lon="18.92468910210628"><ele>1453.6666666666667</ele><time>2026-05-03T12:49:10Z</time></trkpt><trkpt lat="43.178452327163534" lon="18.92455053070536"><ele>1451.0</ele><time>2026-05-03T12:49:11Z</time></trkpt><trkpt lat="43.17856954902964" lon="18.92440441516131"><ele>1451.0</ele><time>2026-05-03T12:49:12Z</time></trkpt><trkpt lat="43.178675235929546" lon="18.924231848028967"><ele>1451.0</ele><time>2026-05-03T12:49:13Z</time></trkpt><trkpt lat="43.178803150231076" lon="18.924055095398675"><ele>1451.0</ele><time>2026-05-03T12:49:14Z</time></trkpt><trkpt lat="43.178900233046015" lon="18.923909546582248"><ele>1450.3333333333335</ele><time>2026-05-03T12:49:15Z</time></trkpt><trkpt lat="43.178972516944484" lon="18.923786310324072"><ele>1449.6666666666667</ele><time>2026-05-03T12:49:16Z</time></trkpt><trkpt lat="43.17903330519941" lon="18.92369535128916"><ele>1449.0</ele><time>2026-05-03T12:49:17Z</time></trkpt><trkpt lat="43.179093882687724" lon="18.92363025944892"><ele>1448.3333333333333</ele><time>2026-05-03T12:49:18Z</time></trkpt><trkpt lat="43.17915682161662" lon="18.923615596772486"><ele>1447.6666666666665</ele><time>2026-05-03T12:49:19Z</time></trkpt><trkpt lat="43.179243109563075" lon="18.92365119716841"><ele>1447.0</ele><time>2026-05-03T12:49:20Z</time></trkpt><trkpt lat="43.179322418675675" lon="18.92374097258937"><ele>1449.6</ele><time>2026-05-03T12:49:21Z</time></trkpt><trkpt lat="43.17943214973342" lon="18.923799497581932"><ele>1452.1999999999998</ele><time>2026-05-03T12:49:22Z</time></trkpt><trkpt lat="43.17954899224635" lon="18.923846697738476"><ele>1454.8</ele><time>2026-05-03T12:49:23Z</time></trkpt><trkpt lat="43.17966604147465" lon="18.923870632075634"><ele>1457.4</ele><time>2026-05-03T12:49:24Z</time></trkpt><trkpt lat="43.17973785318017" lon="18.923933811993752"><ele>1460.0</ele><time>2026-05-03T12:49:25Z</time></trkpt><trkpt lat="43.17978365601256" lon="18.92403067905348"><ele>1460.0</ele><time>2026-05-03T12:49:26Z</time></trkpt><trkpt lat="43.17978278856383" lon="18.924141651534395"><ele>1460.0</ele><time>2026-05-03T12:49:27Z</time></trkpt><trkpt lat="43.17975387153294" lon="18.924264455203602"><ele>1460.0</ele><time>2026-05-03T12:49:28Z</time></trkpt><trkpt lat="43.17971942620623" lon="18.924408501705283"><ele>1460.0</ele><time>2026-05-03T12:49:29Z</time></trkpt><trkpt lat="43.17972573115738" lon="18.92456736220743"><ele>1460.0</ele><time>2026-05-03T12:49:30Z</time></trkpt><trkpt lat="43.17978045607237" lon="18.924728313312887"><ele>1460.3333333333335</ele><time>2026-05-03T12:49:31Z</time></trkpt><trkpt lat="43.17985617751787" lon="18.9248924111601"><ele>1460.6666666666667</ele><time>2026-05-03T12:49:32Z</time></trkpt><trkpt lat="43.179941267931916" lon="18.92506892910508"><ele>1461.0</ele><time>2026-05-03T12:49:33Z</time></trkpt><trkpt lat="43.18001894549938" lon="18.925260081713997"><ele>1461.75</ele><time>2026-05-03T12:49:34Z</time></trkpt><trkpt lat="43.180056012071816" lon="18.925465312779284"><ele>1462.5</ele><time>2026-05-03T12:49:35Z</time></trkpt><trkpt lat="43.18011262038546" lon="18.92566226388767"><ele>1463.25</ele><time>2026-05-03T12:49:36Z</time></trkpt><trkpt lat="43.180145420101226" lon="18.92584332110817"><ele>1464.0</ele><time>2026-05-03T12:49:37Z</time></trkpt><trkpt lat="43.180162254900175" lon="18.92601378229116"><ele>1465.25</ele><time>2026-05-03T12:49:38Z</time></trkpt><trkpt lat="43.180117949118866" lon="18.926180535605564"><ele>1466.5</ele><time>2026-05-03T12:49:39Z</time></trkpt><trkpt lat="43.180064349874925" lon="18.926333886198133"><ele>1467.75</ele><time>2026-05-03T12:49:40Z</time></trkpt><trkpt lat="43.18003261848812" lon="18.926479985773202"><ele>1469.0</ele><time>2026-05-03T12:49:41Z</time></trkpt><trkpt lat="43.17999381283689" lon="18.92659427597829"><ele>1469.0</ele><time>2026-05-03T12:49:42Z</time></trkpt><trkpt lat="43.17997185099758" lon="18.926680044926325"><ele>1469.0</ele><time>2026-05-03T12:49:43Z</time></trkpt><trkpt lat="43.180003653403574" lon="18.92684646423623"><ele>1469.0</ele><time>2026-05-03T12:49:45Z</time></trkpt><trkpt lat="43.180064944962915" lon="18.92693483529178"><ele>1469.0</ele><time>2026-05-03T12:49:46Z</time></trkpt><trkpt lat="43.18013951099872" lon="18.927031259043634"><ele>1469.0</ele><time>2026-05-03T12:49:47Z</time></trkpt><trkpt lat="43.18019982947313" lon="18.92715248588401"><ele>1469.75</ele><time>2026-05-03T12:49:48Z</time></trkpt><trkpt lat="43.18027681051517" lon="18.927258697285332"><ele>1470.5</ele><time>2026-05-03T12:49:49Z</time></trkpt><trkpt lat="43.180333584215944" lon="18.927394615986284"><ele>1471.25</ele><time>2026-05-03T12:49:50Z</time></trkpt><trkpt lat="43.180386307967666" lon="18.927535239503992"><ele>1472.0</ele><time>2026-05-03T12:49:51Z</time></trkpt><trkpt lat="43.18044306318213" lon="18.927677440202704"><ele>1473.0</ele><time>2026-05-03T12:49:52Z</time></trkpt><trkpt lat="43.180498074447485" lon="18.927819450697033"><ele>1474.0</ele><time>2026-05-03T12:49:53Z</time></trkpt><trkpt lat="43.18055466422971" lon="18.92796712145676"><ele>1475.0</ele><time>2026-05-03T12:49:54Z</time></trkpt><trkpt lat="43.180601792818166" lon="18.9281167223469"><ele>1476.0</ele><time>2026-05-03T12:49:55Z</time></trkpt><trkpt lat="43.180639539334976" lon="18.928285838989616"><ele>1477.0</ele><time>2026-05-03T12:49:56Z</time></trkpt><trkpt lat="43.1806714163863" lon="18.92845148261557"><ele>1478.0</ele><time>2026-05-03T12:49:57Z</time></trkpt><trkpt lat="43.18071349444882" lon="18.92859027594295"><ele>1479.0</ele><time>2026-05-03T12:49:58Z</time></trkpt><trkpt lat="43.18076933904206" lon="18.928683857182097"><ele>1480.0</ele><time>2026-05-03T12:49:59Z</time></trkpt><trkpt lat="43.1808472358161" lon="18.92873732082639"><ele>1481.0</ele><time>2026-05-03T12:50:00Z</time></trkpt><trkpt lat="43.18095043931403" lon="18.92874660458737"><ele>1483.75</ele><time>2026-05-03T12:50:01Z</time></trkpt><trkpt lat="43.181057710815914" lon="18.92872828324266"><ele>1486.5</ele><time>2026-05-03T12:50:02Z</time></trkpt><trkpt lat="43.18116972383437" lon="18.928700845799067"><ele>1489.25</ele><time>2026-05-03T12:50:03Z</time></trkpt><trkpt lat="43.18129501708076" lon="18.92866941777877"><ele>1492.0</ele><time>2026-05-03T12:50:04Z</time></trkpt><trkpt lat="43.18142897862412" lon="18.928641750445916"><ele>1492.25</ele><time>2026-05-03T12:50:05Z</time></trkpt><trkpt lat="43.18153550304056" lon="18.92852178261437"><ele>1492.5</ele><time>2026-05-03T12:50:06Z</time></trkpt><trkpt lat="43.18163063536738" lon="18.92842037602557"><ele>1492.75</ele><time>2026-05-03T12:50:07Z</time></trkpt><trkpt lat="43.181716281321435" lon="18.92832430307346"><ele>1493.0</ele><time>2026-05-03T12:50:08Z</time></trkpt><trkpt lat="43.18180613707533" lon="18.928230773566504"><ele>1491.5</ele><time>2026-05-03T12:50:09Z</time></trkpt><trkpt lat="43.18190135922157" lon="18.928143334237735"><ele>1490.0</ele><time>2026-05-03T12:50:10Z</time></trkpt><trkpt lat="43.182014063057416" lon="18.928098593610798"><ele>1488.5</ele><time>2026-05-03T12:50:11Z</time></trkpt><trkpt lat="43.1821214183009" lon="18.928041853302872"><ele>1487.0</ele><time>2026-05-03T12:50:12Z</time></trkpt><trkpt lat="43.18223695159577" lon="18.928040282782383"><ele>1487.0</ele><time>2026-05-03T12:50:13Z</time></trkpt><trkpt lat="43.18233971027131" lon="18.92805570633974"><ele>1487.0</ele><time>2026-05-03T12:50:14Z</time></trkpt><trkpt lat="43.18243153997011" lon="18.928088332677433"><ele>1487.0</ele><time>2026-05-03T12:50:15Z</time></trkpt><trkpt lat="43.18251306989574" lon="18.928164208691157"><ele>1487.0</ele><time>2026-05-03T12:50:16Z</time></trkpt><trkpt lat="43.18258420493106" lon="18.928267586744226"><ele>1487.0</ele><time>2026-05-03T12:50:17Z</time></trkpt><trkpt lat="43.18263926841369" lon="18.928388062119858"><ele>1487.25</ele><time>2026-05-03T12:50:18Z</time></trkpt><trkpt lat="43.1826647187584" lon="18.928528385785853"><ele>1487.5</ele><time>2026-05-03T12:50:19Z</time></trkpt><trkpt lat="43.182676434090766" lon="18.928684612114722"><ele>1487.75</ele><time>2026-05-03T12:50:20Z</time></trkpt><trkpt lat="43.18267636991438" lon="18.928851354404685"><ele>1488.0</ele><time>2026-05-03T12:50:21Z</time></trkpt><trkpt lat="43.18268171681666" lon="18.92902768920546"><ele>1488.0</ele><time>2026-05-03T12:50:22Z</time></trkpt><trkpt lat="43.1826878135801" lon="18.92921037335421"><ele>1488.0</ele><time>2026-05-03T12:50:23Z</time></trkpt><trkpt lat="43.18269682130301" lon="18.929400691726517"><ele>1488.0</ele><time>2026-05-03T12:50:24Z</time></trkpt><trkpt lat="43.182708064908105" lon="18.929591457808698"><ele>1488.0</ele><time>2026-05-03T12:50:25Z</time></trkpt><trkpt lat="43.182724835485246" lon="18.92976111161854"><ele>1489.3333333333333</ele><time>2026-05-03T12:50:26Z</time></trkpt><trkpt lat="43.18278379179817" lon="18.92987857877813"><ele>1490.6666666666667</ele><time>2026-05-03T12:50:27Z</time></trkpt><trkpt lat="43.18288181782105" lon="18.92992740447266"><ele>1492.0</ele><time>2026-05-03T12:50:28Z</time></trkpt><trkpt lat="43.182968366859576" lon="18.929950526503827"><ele>1493.3333333333335</ele><time>2026-05-03T12:50:29Z</time></trkpt><trkpt lat="43.18304293855268" lon="18.92998490756924"><ele>1494.6666666666667</ele><time>2026-05-03T12:50:30Z</time></trkpt><trkpt lat="43.18308119890562" lon="18.930066230085153"><ele>1496.0</ele><time>2026-05-03T12:50:31Z</time></trkpt><trkpt lat="43.18306808726364" lon="18.930184924293833"><ele>1496.6</ele><time>2026-05-03T12:50:32Z</time></trkpt><trkpt lat="43.18298782137704" lon="18.93028652872367"><ele>1497.1999999999998</ele><time>2026-05-03T12:50:33Z</time></trkpt><trkpt lat="43.182949122601784" lon="18.930414851756936"><ele>1497.8000000000002</ele><time>2026-05-03T12:50:34Z</time></trkpt><trkpt lat="43.182912207195436" lon="18.930544412206196"><ele>1498.4</ele><time>2026-05-03T12:50:35Z</time></trkpt><trkpt lat="43.18292833167798" lon="18.930705513649034"><ele>1499.0</ele><time>2026-05-03T12:50:36Z</time></trkpt><trkpt lat="43.182966192660636" lon="18.930825047155057"><ele>1498.6666666666667</ele><time>2026-05-03T12:50:37Z</time></trkpt><trkpt lat="43.183038943200735" lon="18.930929936506104"><ele>1498.3333333333335</ele><time>2026-05-03T12:50:38Z</time></trkpt><trkpt lat="43.183117204837" lon="18.93100374077659"><ele>1498.0</ele><time>2026-05-03T12:50:39Z</time></trkpt><trkpt lat="43.18320259453589" lon="18.931018807178184"><ele>1497.6666666666667</ele><time>2026-05-03T12:50:40Z</time></trkpt><trkpt lat="43.1832718136069" lon="18.931035486512975"><ele>1497.3333333333333</ele><time>2026-05-03T12:50:41Z</time></trkpt><trkpt lat="43.183351978281806" lon="18.931058408982793"><ele>1497.0</ele><time>2026-05-03T12:50:42Z</time></trkpt><trkpt lat="43.183419096234914" lon="18.931125863466935"><ele>1493.6</ele><time>2026-05-03T12:50:43Z</time></trkpt><trkpt lat="43.18347041932974" lon="18.931237178558376"><ele>1490.1999999999998</ele><time>2026-05-03T12:50:44Z</time></trkpt><trkpt lat="43.183519989488275" lon="18.931371222071125"><ele>1486.8</ele><time>2026-05-03T12:50:45Z</time></trkpt><trkpt lat="43.18356777984464" lon="18.9315116189118"><ele>1483.4</ele><time>2026-05-03T12:50:46Z</time></trkpt><trkpt lat="43.18357206248991" lon="18.93165867908066"><ele>1480.0</ele><time>2026-05-03T12:50:47Z</time></trkpt><trkpt lat="43.18355946517701" lon="18.93179472956716"><ele>1480.0</ele><time>2026-05-03T12:50:48Z</time></trkpt><trkpt lat="43.18354834332188" lon="18.931928458474577"><ele>1480.0</ele><time>2026-05-03T12:50:49Z</time></trkpt><trkpt lat="43.18355796505395" lon="18.932071940701828"><ele>1480.0</ele><time>2026-05-03T12:50:50Z</time></trkpt><trkpt lat="43.18362713233242" lon="18.932201255089193"><ele>1480.0</ele><time>2026-05-03T12:50:51Z</time></trkpt><trkpt lat="43.18369718922533" lon="18.932333194433394"><ele>1480.0</ele><time>2026-05-03T12:50:52Z</time></trkpt><trkpt lat="43.18372665443889" lon="18.93247631151842"><ele>1480.6</ele><time>2026-05-03T12:50:53Z</time></trkpt><trkpt lat="43.18375504223734" lon="18.9326110771368"><ele>1481.2</ele><time>2026-05-03T12:50:54Z</time></trkpt><trkpt lat="43.183794474646874" lon="18.932743468634925"><ele>1481.8000000000002</ele><time>2026-05-03T12:50:55Z</time></trkpt><trkpt lat="43.18382064205686" lon="18.932873376808658"><ele>1482.4</ele><time>2026-05-03T12:50:56Z</time></trkpt><trkpt lat="43.183863241308835" lon="18.932993340701827"><ele>1483.0</ele><time>2026-05-03T12:50:57Z</time></trkpt><trkpt lat="43.183956274497824" lon="18.933057258142455"><ele>1482.6000000000001</ele><time>2026-05-03T12:50:58Z</time></trkpt><trkpt lat="43.18403741391136" lon="18.93310911514877"><ele>1482.2</ele><time>2026-05-03T12:50:59Z</time></trkpt><trkpt lat="43.18412237022498" lon="18.933191967161548"><ele>1481.8</ele><time>2026-05-03T12:51:00Z</time></trkpt><trkpt lat="43.184203973794084" lon="18.933288244217515"><ele>1481.4</ele><time>2026-05-03T12:51:01Z</time></trkpt><trkpt lat="43.18425679569282" lon="18.933402796739824"><ele>1481.0</ele><time>2026-05-03T12:51:02Z</time></trkpt><trkpt lat="43.18431398126115" lon="18.933500223070602"><ele>1481.0</ele><time>2026-05-03T12:51:03Z</time></trkpt><trkpt lat="43.18440528530655" lon="18.933552108428824"><ele>1481.0</ele><time>2026-05-03T12:51:04Z</time></trkpt><trkpt lat="43.18450906754971" lon="18.93350881931576"><ele>1481.0</ele><time>2026-05-03T12:51:05Z</time></trkpt><trkpt lat="43.184578827973226" lon="18.933441450163695"><ele>1481.0</ele><time>2026-05-03T12:51:06Z</time></trkpt><trkpt lat="43.18464161830055" lon="18.933344419498333"><ele>1481.0</ele><time>2026-05-03T12:51:07Z</time></trkpt><trkpt lat="43.18473237372762" lon="18.933253406972163"><ele>1478.1999999999998</ele><time>2026-05-03T12:51:08Z</time></trkpt><trkpt lat="43.1847960512271" lon="18.93314995317633"><ele>1475.3999999999999</ele><time>2026-05-03T12:51:09Z</time></trkpt><trkpt lat="43.18488887607156" lon="18.933113906941845"><ele>1472.6</ele><time>2026-05-03T12:51:10Z</time></trkpt><trkpt lat="43.18498599321955" lon="18.933123846939687"><ele>1469.8</ele><time>2026-05-03T12:51:11Z</time></trkpt><trkpt lat="43.1850843936455" lon="18.933172760231248"><ele>1467.0</ele><time>2026-05-03T12:51:12Z</time></trkpt><trkpt lat="43.18517610644483" lon="18.93324983130581"><ele>1469.0</ele><time>2026-05-03T12:51:13Z</time></trkpt><trkpt lat="43.185238120681284" lon="18.93339581057358"><ele>1471.0</ele><time>2026-05-03T12:51:14Z</time></trkpt><trkpt lat="43.18531428380281" lon="18.933521644360738"><ele>1473.0</ele><time>2026-05-03T12:51:15Z</time></trkpt><trkpt lat="43.18540979482648" lon="18.933621717897505"><ele>1475.0</ele><time>2026-05-03T12:51:16Z</time></trkpt><trkpt lat="43.18551364639666" lon="18.93368435522267"><ele>1475.0</ele><time>2026-05-03T12:51:17Z</time></trkpt><trkpt lat="43.18564093824495" lon="18.933721844166296"><ele>1475.0</ele><time>2026-05-03T12:51:18Z</time></trkpt><trkpt lat="43.18576413873148" lon="18.93365572453822"><ele>1475.0</ele><time>2026-05-03T12:51:19Z</time></trkpt><trkpt lat="43.18589574467419" lon="18.93360469246993"><ele>1475.0</ele><time>2026-05-03T12:51:20Z</time></trkpt><trkpt lat="43.18603881710958" lon="18.93354448875473"><ele>1471.0</ele><time>2026-05-03T12:51:21Z</time></trkpt><trkpt lat="43.186182443113445" lon="18.933483820893763"><ele>1467.0</ele><time>2026-05-03T12:51:22Z</time></trkpt><trkpt lat="43.18632102213435" lon="18.9334020724873"><ele>1463.0</ele><time>2026-05-03T12:51:23Z</time></trkpt><trkpt lat="43.18644835342174" lon="18.93335652585436"><ele>1459.0</ele><time>2026-05-03T12:51:24Z</time></trkpt><trkpt lat="43.18657393291309" lon="18.933312101256558"><ele>1455.6</ele><time>2026-05-03T12:51:25Z</time></trkpt><trkpt lat="43.18669097407509" lon="18.93328802557861"><ele>1452.2</ele><time>2026-05-03T12:51:26Z</time></trkpt><trkpt lat="43.18679587286348" lon="18.933289438265465"><ele>1448.8</ele><time>2026-05-03T12:51:27Z</time></trkpt><trkpt lat="43.186875049105645" lon="18.933316176230992"><ele>1445.3999999999999</ele><time>2026-05-03T12:51:28Z</time></trkpt><trkpt lat="43.18693778770944" lon="18.933373645977515"><ele>1442.0</ele><time>2026-05-03T12:51:29Z</time></trkpt><trkpt lat="43.18697646894835" lon="18.933463270736205"><ele>1442.0</ele><time>2026-05-03T12:51:30Z</time></trkpt><trkpt lat="43.186993051808884" lon="18.933579916394898"><ele>1442.0</ele><time>2026-05-03T12:51:31Z</time></trkpt><trkpt lat="43.18700533929758" lon="18.933708741831122"><ele>1442.0</ele><time>2026-05-03T12:51:32Z</time></trkpt><trkpt lat="43.18701663632913" lon="18.933841938238256"><ele>1442.0</ele><time>2026-05-03T12:51:33Z</time></trkpt><trkpt lat="43.187035400356876" lon="18.93397035993204"><ele>1442.0</ele><time>2026-05-03T12:51:34Z</time></trkpt><trkpt lat="43.187058771588745" lon="18.934107226104064"><ele>1441.6</ele><time>2026-05-03T12:51:35Z</time></trkpt><trkpt lat="43.187082639506755" lon="18.934245823054276"><ele>1441.1999999999998</ele><time>2026-05-03T12:51:36Z</time></trkpt><trkpt lat="43.18710148280663" lon="18.93437514747343"><ele>1440.8</ele><time>2026-05-03T12:51:37Z</time></trkpt><trkpt lat="43.18712087587858" lon="18.93450148165342"><ele>1440.4</ele><time>2026-05-03T12:51:38Z</time></trkpt><trkpt lat="43.18713553630324" lon="18.934619716217203"><ele>1440.0</ele><time>2026-05-03T12:51:39Z</time></trkpt><trkpt lat="43.18715046222716" lon="18.934739749401118"><ele>1440.0</ele><time>2026-05-03T12:51:40Z</time></trkpt><trkpt lat="43.18716420264944" lon="18.934865265003022"><ele>1440.0</ele><time>2026-05-03T12:51:41Z</time></trkpt><trkpt lat="43.18717750378897" lon="18.934977493442403"><ele>1440.0</ele><time>2026-05-03T12:51:42Z</time></trkpt><trkpt lat="43.18719205863914" lon="18.93508262126974"><ele>1440.0</ele><time>2026-05-03T12:51:43Z</time></trkpt><trkpt lat="43.187204737862174" lon="18.93518794517911"><ele>1440.0</ele><time>2026-05-03T12:51:44Z</time></trkpt><trkpt lat="43.187221639316824" lon="18.935284299016566"><ele>1440.0</ele><time>2026-05-03T12:51:45Z</time></trkpt><trkpt lat="43.187227339001694" lon="18.93543968757142"><ele>1440.0</ele><time>2026-05-03T12:51:47Z</time></trkpt><trkpt lat="43.18726161483067" lon="18.935553127813797"><ele>1440.0</ele><time>2026-05-03T12:51:49Z</time></trkpt><trkpt lat="43.187356288262535" lon="18.935596323933122"><ele>1440.0</ele><time>2026-05-03T12:52:01Z</time></trkpt><trkpt lat="43.1874243231388" lon="18.935604725738724"><ele>1440.0</ele><time>2026-05-03T12:52:02Z</time></trkpt><trkpt lat="43.18750197591121" lon="18.935424405736164"><ele>1440.0</ele><time>2026-05-03T12:52:03Z</time></trkpt><trkpt lat="43.18756350772407" lon="18.93531917430413"><ele>1439.75</ele><time>2026-05-03T12:52:04Z</time></trkpt><trkpt lat="43.18764080395263" lon="18.93522631241022"><ele>1439.5</ele><time>2026-05-03T12:52:05Z</time></trkpt><trkpt lat="43.18771348678444" lon="18.935103930369955"><ele>1439.25</ele><time>2026-05-03T12:52:06Z</time></trkpt><trkpt lat="43.187795153277264" lon="18.934966421842784"><ele>1439.0</ele><time>2026-05-03T12:52:07Z</time></trkpt><trkpt lat="43.187877273977456" lon="18.934813772110548"><ele>1438.2</ele><time>2026-05-03T12:52:08Z</time></trkpt><trkpt lat="43.187938338644415" lon="18.934680605908916"><ele>1437.4</ele><time>2026-05-03T12:52:09Z</time></trkpt><trkpt lat="43.18798194891634" lon="18.934551297569737"><ele>1436.6</ele><time>2026-05-03T12:52:10Z</time></trkpt><trkpt lat="43.18802973082495" lon="18.93445658964282"><ele>1435.8</ele><time>2026-05-03T12:52:11Z</time></trkpt><trkpt lat="43.18812976048492" lon="18.934434223056307"><ele>1435.0</ele><time>2026-05-03T12:52:12Z</time></trkpt><trkpt lat="43.18825258729207" lon="18.934409521244028"><ele>1435.0</ele><time>2026-05-03T12:52:13Z</time></trkpt><trkpt lat="43.188398687013105" lon="18.934366005753713"><ele>1435.0</ele><time>2026-05-03T12:52:14Z</time></trkpt><trkpt lat="43.18857922059553" lon="18.93434208064825"><ele>1435.0</ele><time>2026-05-03T12:52:15Z</time></trkpt><trkpt lat="43.18874668033793" lon="18.934319047902516"><ele>1435.0</ele><time>2026-05-03T12:52:16Z</time></trkpt><trkpt lat="43.188887220242535" lon="18.934306142654606"><ele>1435.0</ele><time>2026-05-03T12:52:17Z</time></trkpt><trkpt lat="43.18901048916057" lon="18.934332892596856"><ele>1435.0</ele><time>2026-05-03T12:52:18Z</time></trkpt><trkpt lat="43.18910818577324" lon="18.934337146442104"><ele>1435.0</ele><time>2026-05-03T12:52:19Z</time></trkpt><trkpt lat="43.18919222554207" lon="18.934389523285148"><ele>1435.0</ele><time>2026-05-03T12:52:20Z</time></trkpt><trkpt lat="43.18927278922295" lon="18.934472209800273"><ele>1435.0</ele><time>2026-05-03T12:52:21Z</time></trkpt><trkpt lat="43.18934435572914" lon="18.934592538247593"><ele>1435.0</ele><time>2026-05-03T12:52:22Z</time></trkpt><trkpt lat="43.189392822137584" lon="18.93474788186783"><ele>1435.0</ele><time>2026-05-03T12:52:23Z</time></trkpt><trkpt lat="43.18942548873695" lon="18.934906042427507"><ele>1435.0</ele><time>2026-05-03T12:52:24Z</time></trkpt><trkpt lat="43.18945395758473" lon="18.935024152919326"><ele>1435.0</ele><time>2026-05-03T12:52:25Z</time></trkpt><trkpt lat="43.18947443288927" lon="18.935130428006754"><ele>1435.0</ele><time>2026-05-03T12:52:26Z</time></trkpt><trkpt lat="43.18949406330321" lon="18.93525676068145"><ele>1435.0</ele><time>2026-05-03T12:52:27Z</time></trkpt><trkpt lat="43.18952585152442" lon="18.935381729704243"><ele>1435.0</ele><time>2026-05-03T12:52:28Z</time></trkpt><trkpt lat="43.189574986455824" lon="18.935522280040278"><ele>1435.3333333333333</ele><time>2026-05-03T12:52:29Z</time></trkpt><trkpt lat="43.189641844840814" lon="18.935684730861354"><ele>1435.6666666666667</ele><time>2026-05-03T12:52:30Z</time></trkpt><trkpt lat="43.18974059483188" lon="18.935868264324174"><ele>1436.0</ele><time>2026-05-03T12:52:31Z</time></trkpt><trkpt lat="43.18985721120173" lon="18.93606215979232"><ele>1436.0</ele><time>2026-05-03T12:52:32Z</time></trkpt><trkpt lat="43.189965290207404" lon="18.93627358708233"><ele>1436.0</ele><time>2026-05-03T12:52:33Z</time></trkpt><trkpt lat="43.190041618656814" lon="18.936479029470384"><ele>1436.0</ele><time>2026-05-03T12:52:34Z</time></trkpt><trkpt lat="43.19011468508891" lon="18.936661176945332"><ele>1437.6</ele><time>2026-05-03T12:52:35Z</time></trkpt><trkpt lat="43.19018831420912" lon="18.936801435877214"><ele>1439.1999999999998</ele><time>2026-05-03T12:52:36Z</time></trkpt><trkpt lat="43.19026681233662" lon="18.93692690493641"><ele>1440.8000000000002</ele><time>2026-05-03T12:52:37Z</time></trkpt><trkpt lat="43.19033844796767" lon="18.937029381073717"><ele>1442.4</ele><time>2026-05-03T12:52:38Z</time></trkpt><trkpt lat="43.190418758169564" lon="18.93710442964291"><ele>1444.0</ele><time>2026-05-03T12:52:39Z</time></trkpt><trkpt lat="43.19051783629249" lon="18.937143202792225"><ele>1444.0</ele><time>2026-05-03T12:52:40Z</time></trkpt><trkpt lat="43.19063466084962" lon="18.937150686344935"><ele>1444.0</ele><time>2026-05-03T12:52:41Z</time></trkpt><trkpt lat="43.19075876224957" lon="18.93714923897886"><ele>1444.0</ele><time>2026-05-03T12:52:42Z</time></trkpt><trkpt lat="43.190870453169055" lon="18.937169973932576"><ele>1444.0</ele><time>2026-05-03T12:52:43Z</time></trkpt><trkpt lat="43.19096767484161" lon="18.93722696354632"><ele>1442.0</ele><time>2026-05-03T12:52:44Z</time></trkpt><trkpt lat="43.19106096704242" lon="18.93732220470495"><ele>1440.0</ele><time>2026-05-03T12:52:45Z</time></trkpt><trkpt lat="43.191154835483594" lon="18.93745692182017"><ele>1438.0</ele><time>2026-05-03T12:52:46Z</time></trkpt><trkpt lat="43.19124967949621" lon="18.937612769768414"><ele>1436.0</ele><time>2026-05-03T12:52:47Z</time></trkpt><trkpt lat="43.19134890243875" lon="18.937763983670056"><ele>1436.0</ele><time>2026-05-03T12:52:48Z</time></trkpt><trkpt lat="43.191439850177645" lon="18.937901348245564"><ele>1436.0</ele><time>2026-05-03T12:52:49Z</time></trkpt><trkpt lat="43.19149968249461" lon="18.93805872122943"><ele>1436.0</ele><time>2026-05-03T12:52:50Z</time></trkpt><trkpt lat="43.19153585674373" lon="18.938240560035272"><ele>1436.0</ele><time>2026-05-03T12:52:51Z</time></trkpt><trkpt lat="43.19155288723036" lon="18.938425568529517"><ele>1436.0</ele><time>2026-05-03T12:52:52Z</time></trkpt><trkpt lat="43.19156294467452" lon="18.938588980956887"><ele>1436.0</ele><time>2026-05-03T12:52:53Z</time></trkpt><trkpt lat="43.191541066711714" lon="18.938716345385497"><ele>1436.0</ele><time>2026-05-03T12:52:54Z</time></trkpt><trkpt lat="43.19149320301543" lon="18.938831491367402"><ele>1436.0</ele><time>2026-05-03T12:52:55Z</time></trkpt><trkpt lat="43.19145898619247" lon="18.938954691342857"><ele>1436.0</ele><time>2026-05-03T12:52:56Z</time></trkpt><trkpt lat="43.191487940317785" lon="18.939079456491452"><ele>1434.5</ele><time>2026-05-03T12:52:57Z</time></trkpt><trkpt lat="43.19155832262522" lon="18.93917337298184"><ele>1433.0</ele><time>2026-05-03T12:52:58Z</time></trkpt><trkpt lat="43.19165755561544" lon="18.93924712916718"><ele>1431.5</ele><time>2026-05-03T12:52:59Z</time></trkpt><trkpt lat="43.19177403496901" lon="18.939340886332623"><ele>1430.0</ele><time>2026-05-03T12:53:00Z</time></trkpt><trkpt lat="43.19189291541872" lon="18.939465017930605"><ele>1430.0</ele><time>2026-05-03T12:53:01Z</time></trkpt><trkpt lat="43.192013277195805" lon="18.9396129398273"><ele>1430.0</ele><time>2026-05-03T12:53:02Z</time></trkpt><trkpt lat="43.19214197318779" lon="18.939762126318115"><ele>1430.0</ele><time>2026-05-03T12:53:03Z</time></trkpt><trkpt lat="43.19227824894416" lon="18.93991185956828"><ele>1429.3333333333335</ele><time>2026-05-03T12:53:04Z</time></trkpt><trkpt lat="43.19241882497746" lon="18.94006129688713"><ele>1428.6666666666667</ele><time>2026-05-03T12:53:05Z</time></trkpt><trkpt lat="43.19255579483557" lon="18.940202025742003"><ele>1428.0</ele><time>2026-05-03T12:53:06Z</time></trkpt><trkpt lat="43.19269147873137" lon="18.940331299190998"><ele>1428.0</ele><time>2026-05-03T12:53:07Z</time></trkpt><trkpt lat="43.19282256509178" lon="18.94045816062613"><ele>1428.0</ele><time>2026-05-03T12:53:08Z</time></trkpt><trkpt lat="43.19296070553419" lon="18.940593040517676"><ele>1428.0</ele><time>2026-05-03T12:53:09Z</time></trkpt><trkpt lat="43.19309514120059" lon="18.940734816115295"><ele>1427.6666666666667</ele><time>2026-05-03T12:53:10Z</time></trkpt><trkpt lat="43.19322643105601" lon="18.940894189215573"><ele>1427.3333333333335</ele><time>2026-05-03T12:53:11Z</time></trkpt><trkpt lat="43.19334647273228" lon="18.94105975621823"><ele>1427.0</ele><time>2026-05-03T12:53:12Z</time></trkpt><trkpt lat="43.19346517457241" lon="18.941238655565176"><ele>1427.0</ele><time>2026-05-03T12:53:13Z</time></trkpt><trkpt lat="43.193590710807314" lon="18.941412559111537"><ele>1427.0</ele><time>2026-05-03T12:53:14Z</time></trkpt><trkpt lat="43.19371270997582" lon="18.941569110736584"><ele>1427.0</ele><time>2026-05-03T12:53:15Z</time></trkpt><trkpt lat="43.193829031113815" lon="18.941731719358714"><ele>1430.0</ele><time>2026-05-03T12:53:16Z</time></trkpt><trkpt lat="43.19393123423419" lon="18.94188555533633"><ele>1433.0</ele><time>2026-05-03T12:53:17Z</time></trkpt><trkpt lat="43.19403651993768" lon="18.942011233187564"><ele>1436.0</ele><time>2026-05-03T12:53:18Z</time></trkpt><trkpt lat="43.19413975349547" lon="18.942097824974304"><ele>1439.0</ele><time>2026-05-03T12:53:19Z</time></trkpt><trkpt lat="43.1942406706989" lon="18.942144361505452"><ele>1440.2</ele><time>2026-05-03T12:53:20Z</time></trkpt><trkpt lat="43.19433565110098" lon="18.94216084201378"><ele>1441.4</ele><time>2026-05-03T12:53:21Z</time></trkpt><trkpt lat="43.19441973891524" lon="18.942138317519504"><ele>1442.6</ele><time>2026-05-03T12:53:22Z</time></trkpt><trkpt lat="43.19450494085346" lon="18.94210644577291"><ele>1443.8</ele><time>2026-05-03T12:53:23Z</time></trkpt><trkpt lat="43.194575218206516" lon="18.942004466837194"><ele>1445.0</ele><time>2026-05-03T12:53:24Z</time></trkpt><trkpt lat="43.19464115199507" lon="18.941842948210496"><ele>1444.0</ele><time>2026-05-03T12:53:25Z</time></trkpt><trkpt lat="43.19469830786599" lon="18.941677998303188"><ele>1443.0</ele><time>2026-05-03T12:53:26Z</time></trkpt><trkpt lat="43.194769034652346" lon="18.941538432885377"><ele>1442.0</ele><time>2026-05-03T12:53:27Z</time></trkpt><trkpt lat="43.19485694973484" lon="18.941413894291273"><ele>1441.0</ele><time>2026-05-03T12:53:28Z</time></trkpt><trkpt lat="43.19495670611645" lon="18.941314499579665"><ele>1441.0</ele><time>2026-05-03T12:53:29Z</time></trkpt><trkpt lat="43.19505721876858" lon="18.941231143535134"><ele>1441.0</ele><time>2026-05-03T12:53:30Z</time></trkpt><trkpt lat="43.19515133151091" lon="18.941165490894324"><ele>1441.0</ele><time>2026-05-03T12:53:31Z</time></trkpt><trkpt lat="43.19523905732155" lon="18.94113391724915"><ele>1441.0</ele><time>2026-05-03T12:53:32Z</time></trkpt><trkpt lat="43.195338085251144" lon="18.94114973432648"><ele>1441.0</ele><time>2026-05-03T12:53:33Z</time></trkpt><trkpt lat="43.1954580456178" lon="18.941180989554844"><ele>1441.0</ele><time>2026-05-03T12:53:34Z</time></trkpt><trkpt lat="43.19560106053076" lon="18.94120148308755"><ele>1441.0</ele><time>2026-05-03T12:53:35Z</time></trkpt><trkpt lat="43.195754292993506" lon="18.941181876452383"><ele>1441.0</ele><time>2026-05-03T12:53:36Z</time></trkpt><trkpt lat="43.19591906613495" lon="18.941152729986154"><ele>1445.0</ele><time>2026-05-03T12:53:37Z</time></trkpt><trkpt lat="43.19608096621346" lon="18.94116074099675"><ele>1449.0</ele><time>2026-05-03T12:53:38Z</time></trkpt><trkpt lat="43.196237742413246" lon="18.941175990951415"><ele>1453.0</ele><time>2026-05-03T12:53:39Z</time></trkpt><trkpt lat="43.19636263887004" lon="18.941189349376945"><ele>1457.0</ele><time>2026-05-03T12:53:40Z</time></trkpt><trkpt lat="43.196468045803044" lon="18.941227620162987"><ele>1458.1999999999998</ele><time>2026-05-03T12:53:41Z</time></trkpt><trkpt lat="43.19655935833652" lon="18.941305945084554"><ele>1459.4</ele><time>2026-05-03T12:53:42Z</time></trkpt><trkpt lat="43.196635668196244" lon="18.94140721192454"><ele>1460.6</ele><time>2026-05-03T12:53:43Z</time></trkpt><trkpt lat="43.196683741871276" lon="18.941545526429138"><ele>1461.8000000000002</ele><time>2026-05-03T12:53:44Z</time></trkpt><trkpt lat="43.19672023202563" lon="18.941701200234917"><ele>1463.0</ele><time>2026-05-03T12:53:45Z</time></trkpt><trkpt lat="43.196746493591405" lon="18.94187080425176"><ele>1464.5</ele><time>2026-05-03T12:53:46Z</time></trkpt><trkpt lat="43.19676990688094" lon="18.942037812891556"><ele>1466.0</ele><time>2026-05-03T12:53:47Z</time></trkpt><trkpt lat="43.19680297754882" lon="18.94220559682776"><ele>1467.5</ele><time>2026-05-03T12:53:48Z</time></trkpt><trkpt lat="43.19685552662715" lon="18.942361038823787"><ele>1469.0</ele><time>2026-05-03T12:53:49Z</time></trkpt><trkpt lat="43.19692506021123" lon="18.942490889325704"><ele>1472.4</ele><time>2026-05-03T12:53:50Z</time></trkpt><trkpt lat="43.19699320912776" lon="18.94259707122167"><ele>1475.8000000000002</ele><time>2026-05-03T12:53:51Z</time></trkpt><trkpt lat="43.19704783517943" lon="18.942675406891812"><ele>1479.1999999999998</ele><time>2026-05-03T12:53:52Z</time></trkpt><trkpt lat="43.19708221647287" lon="18.94278682910213"><ele>1482.6</ele><time>2026-05-03T12:53:53Z</time></trkpt><trkpt lat="43.19711094599615" lon="18.94290802402966"><ele>1486.0</ele><time>2026-05-03T12:53:54Z</time></trkpt><trkpt lat="43.197126279760774" lon="18.943043352903086"><ele>1486.0</ele><time>2026-05-03T12:53:55Z</time></trkpt><trkpt lat="43.19713382255746" lon="18.943196139297957"><ele>1486.0</ele><time>2026-05-03T12:53:56Z</time></trkpt><trkpt lat="43.19715544458923" lon="18.94334665804245"><ele>1486.0</ele><time>2026-05-03T12:53:57Z</time></trkpt><trkpt lat="43.1972067433261" lon="18.943471860329396"><ele>1486.0</ele><time>2026-05-03T12:53:58Z</time></trkpt><trkpt lat="43.197274168852864" lon="18.943581223995256"><ele>1486.0</ele><time>2026-05-03T12:53:59Z</time></trkpt><trkpt lat="43.197399745774" lon="18.94359608585037"><ele>1488.75</ele><time>2026-05-03T12:54:00Z</time></trkpt><trkpt lat="43.19750444496383" lon="18.943652158105433"><ele>1491.5</ele><time>2026-05-03T12:54:01Z</time></trkpt><trkpt lat="43.197630057480694" lon="18.943715624199424"><ele>1494.25</ele><time>2026-05-03T12:54:02Z</time></trkpt><trkpt lat="43.19773787704013" lon="18.943824312684626"><ele>1497.0</ele><time>2026-05-03T12:54:03Z</time></trkpt><trkpt lat="43.197859441712815" lon="18.94395082869812"><ele>1497.0</ele><time>2026-05-03T12:54:04Z</time></trkpt><trkpt lat="43.197978849741794" lon="18.94407446334904"><ele>1497.0</ele><time>2026-05-03T12:54:05Z</time></trkpt><trkpt lat="43.198092709472995" lon="18.94415755521012"><ele>1497.0</ele><time>2026-05-03T12:54:06Z</time></trkpt><trkpt lat="43.19817454890955" lon="18.944204633815787"><ele>1497.0</ele><time>2026-05-03T12:54:07Z</time></trkpt><trkpt lat="43.19829258167049" lon="18.944124582932922"><ele>1497.25</ele><time>2026-05-03T12:54:08Z</time></trkpt><trkpt lat="43.19840102304328" lon="18.944010623690676"><ele>1497.5</ele><time>2026-05-03T12:54:09Z</time></trkpt><trkpt lat="43.198522636141874" lon="18.943904226843692"><ele>1497.75</ele><time>2026-05-03T12:54:10Z</time></trkpt><trkpt lat="43.19867612054759" lon="18.943824402858464"><ele>1498.0</ele><time>2026-05-03T12:54:11Z</time></trkpt><trkpt lat="43.19885863168916" lon="18.943754520898004"><ele>1505.3333333333333</ele><time>2026-05-03T12:54:12Z</time></trkpt><trkpt lat="43.19904651485795" lon="18.943623351377155"><ele>1512.6666666666667</ele><time>2026-05-03T12:54:13Z</time></trkpt><trkpt lat="43.19924523247883" lon="18.943507422113438"><ele>1520.0</ele><time>2026-05-03T12:54:14Z</time></trkpt><trkpt lat="43.19943055447538" lon="18.943430386960017"><ele>1516.6666666666667</ele><time>2026-05-03T12:54:15Z</time></trkpt><trkpt lat="43.199614564317024" lon="18.94337058223018"><ele>1513.3333333333333</ele><time>2026-05-03T12:54:16Z</time></trkpt><trkpt lat="43.1997916717647" lon="18.943306258233964"><ele>1510.0</ele><time>2026-05-03T12:54:17Z</time></trkpt><trkpt lat="43.199933124657015" lon="18.943188575735267"><ele>1510.0</ele><time>2026-05-03T12:54:18Z</time></trkpt><trkpt lat="43.20006417922068" lon="18.943084744516227"><ele>1510.0</ele><time>2026-05-03T12:54:19Z</time></trkpt><trkpt lat="43.20019606157132" lon="18.943019483585182"><ele>1510.0</ele><time>2026-05-03T12:54:20Z</time></trkpt><trkpt lat="43.20034669462327" lon="18.9429595754524"><ele>1510.0</ele><time>2026-05-03T12:54:21Z</time></trkpt><trkpt lat="43.2004883458824" lon="18.94291579266234"><ele>1510.0</ele><time>2026-05-03T12:54:22Z</time></trkpt><trkpt lat="43.20061000817724" lon="18.942903647099545"><ele>1510.0</ele><time>2026-05-03T12:54:23Z</time></trkpt><trkpt lat="43.20072217992884" lon="18.942902956325245"><ele>1510.0</ele><time>2026-05-03T12:54:24Z</time></trkpt><trkpt lat="43.20081465975929" lon="18.9429029563239"><ele>1510.0</ele><time>2026-05-03T12:54:25Z</time></trkpt><trkpt lat="43.200900188382896" lon="18.94293684351779"><ele>1510.0</ele><time>2026-05-03T12:54:26Z</time></trkpt><trkpt lat="43.20097742407604" lon="18.94299884546049"><ele>1512.6</ele><time>2026-05-03T12:54:27Z</time></trkpt><trkpt lat="43.20105081010954" lon="18.943077075323934"><ele>1515.2</ele><time>2026-05-03T12:54:28Z</time></trkpt><trkpt lat="43.20114432394854" lon="18.943132876384574"><ele>1517.8000000000002</ele><time>2026-05-03T12:54:29Z</time></trkpt><trkpt lat="43.201240864914226" lon="18.9431518330073"><ele>1520.4</ele><time>2026-05-03T12:54:30Z</time></trkpt><trkpt lat="43.201351777572036" lon="18.943115569607052"><ele>1523.0</ele><time>2026-05-03T12:54:31Z</time></trkpt><trkpt lat="43.20143622013916" lon="18.942976738394123"><ele>1525.0</ele><time>2026-05-03T12:54:32Z</time></trkpt><trkpt lat="43.20154261402015" lon="18.942872000501815"><ele>1527.0</ele><time>2026-05-03T12:54:33Z</time></trkpt><trkpt lat="43.201646029164934" lon="18.942788039279122"><ele>1529.0</ele><time>2026-05-03T12:54:34Z</time></trkpt><trkpt lat="43.20173501971755" lon="18.942712695196573"><ele>1531.0</ele><time>2026-05-03T12:54:35Z</time></trkpt><trkpt lat="43.2018213366952" lon="18.94268362972643"><ele>1533.0</ele><time>2026-05-03T12:54:36Z</time></trkpt><trkpt lat="43.20191649335924" lon="18.942686956272482"><ele>1533.0</ele><time>2026-05-03T12:54:37Z</time></trkpt><trkpt lat="43.202014867285854" lon="18.942713064716802"><ele>1533.0</ele><time>2026-05-03T12:54:38Z</time></trkpt><trkpt lat="43.202100144770014" lon="18.94278380489476"><ele>1533.0</ele><time>2026-05-03T12:54:39Z</time></trkpt><trkpt lat="43.20216942648402" lon="18.94290026908329"><ele>1533.0</ele><time>2026-05-03T12:54:40Z</time></trkpt><trkpt lat="43.202243297998066" lon="18.943020789326276"><ele>1533.0</ele><time>2026-05-03T12:54:41Z</time></trkpt><trkpt lat="43.20229971162802" lon="18.94315705083844"><ele>1532.5</ele><time>2026-05-03T12:54:42Z</time></trkpt><trkpt lat="43.202338989910174" lon="18.943299729838802"><ele>1532.0</ele><time>2026-05-03T12:54:43Z</time></trkpt><trkpt lat="43.20236578048352" lon="18.943455612797386"><ele>1531.5</ele><time>2026-05-03T12:54:44Z</time></trkpt><trkpt lat="43.20240010192164" lon="18.94363778132382"><ele>1531.0</ele><time>2026-05-03T12:54:45Z</time></trkpt><trkpt lat="43.20244687604307" lon="18.943804998930226"><ele>1535.5</ele><time>2026-05-03T12:54:46Z</time></trkpt><trkpt lat="43.20253415590406" lon="18.943927160423588"><ele>1540.0</ele><time>2026-05-03T12:54:47Z</time></trkpt><trkpt lat="43.20264425479936" lon="18.944020688399846"><ele>1544.5</ele><time>2026-05-03T12:54:48Z</time></trkpt><trkpt lat="43.202776208949636" lon="18.94408821174591"><ele>1549.0</ele><time>2026-05-03T12:54:49Z</time></trkpt><trkpt lat="43.20289445802426" lon="18.94412072483772"><ele>1549.0</ele><time>2026-05-03T12:54:50Z</time></trkpt><trkpt lat="43.203017277334425" lon="18.944120856237088"><ele>1549.0</ele><time>2026-05-03T12:54:51Z</time></trkpt><trkpt lat="43.20314105269515" lon="18.944020042876115"><ele>1549.0</ele><time>2026-05-03T12:54:52Z</time></trkpt><trkpt lat="43.203259675345755" lon="18.943929056453868"><ele>1549.0</ele><time>2026-05-03T12:54:53Z</time></trkpt><trkpt lat="43.20337433801688" lon="18.943839882781116"><ele>1548.4</ele><time>2026-05-03T12:54:54Z</time></trkpt><trkpt lat="43.203474756678474" lon="18.943762200053317"><ele>1547.8000000000002</ele><time>2026-05-03T12:54:55Z</time></trkpt><trkpt lat="43.20357355919475" lon="18.94373887644517"><ele>1547.1999999999998</ele><time>2026-05-03T12:54:56Z</time></trkpt><trkpt lat="43.20365851217607" lon="18.943736777050063"><ele>1546.6</ele><time>2026-05-03T12:54:57Z</time></trkpt><trkpt lat="43.203729204790974" lon="18.943739206293245"><ele>1546.0</ele><time>2026-05-03T12:54:58Z</time></trkpt><trkpt lat="43.20379040916341" lon="18.943829559163056"><ele>1546.0</ele><time>2026-05-03T12:55:00Z</time></trkpt><trkpt lat="43.20382796835632" lon="18.943971163099732"><ele>1546.0</ele><time>2026-05-03T12:55:02Z</time></trkpt><trkpt lat="43.20381388369628" lon="18.944077939507753"><ele>1546.0</ele><time>2026-05-03T12:55:03Z</time></trkpt><trkpt lat="43.20381880636902" lon="18.94420850106325"><ele>1546.0</ele><time>2026-05-03T12:55:04Z</time></trkpt><trkpt lat="43.20386379090577" lon="18.94435411678289"><ele>1546.0</ele><time>2026-05-03T12:55:05Z</time></trkpt><trkpt lat="43.20392897057411" lon="18.944482936911815"><ele>1548.1999999999998</ele><time>2026-05-03T12:55:06Z</time></trkpt><trkpt lat="43.20403002730049" lon="18.944563775881758"><ele>1550.3999999999999</ele><time>2026-05-03T12:55:07Z</time></trkpt><trkpt lat="43.204144874379246" lon="18.94457965891241"><ele>1552.6</ele><time>2026-05-03T12:55:08Z</time></trkpt><trkpt lat="43.20425147051649" lon="18.94456432833987"><ele>1554.8</ele><time>2026-05-03T12:55:09Z</time></trkpt><trkpt lat="43.2043495101353" lon="18.94452303740595"><ele>1557.0</ele><time>2026-05-03T12:55:10Z</time></trkpt><trkpt lat="43.20444049873899" lon="18.94445575914759"><ele>1557.0</ele><time>2026-05-03T12:55:11Z</time></trkpt><trkpt lat="43.20451516083396" lon="18.94439400078068"><ele>1557.0</ele><time>2026-05-03T12:55:12Z</time></trkpt><trkpt lat="43.2045770271911" lon="18.944311403346223"><ele>1557.0</ele><time>2026-05-03T12:55:13Z</time></trkpt><trkpt lat="43.20463385872004" lon="18.944241899362257"><ele>1557.0</ele><time>2026-05-03T12:55:14Z</time></trkpt><trkpt lat="43.20469357703988" lon="18.944168864947393"><ele>1557.0</ele><time>2026-05-03T12:55:15Z</time></trkpt><trkpt lat="43.2047536992437" lon="18.944096030702838"><ele>1557.0</ele><time>2026-05-03T12:55:16Z</time></trkpt><trkpt lat="43.2048190933991" lon="18.944018384463515"><ele>1555.1999999999998</ele><time>2026-05-03T12:55:17Z</time></trkpt><trkpt lat="43.20488811649845" lon="18.943935606915904"><ele>1553.4</ele><time>2026-05-03T12:55:18Z</time></trkpt><trkpt lat="43.20495659039077" lon="18.94385335589281"><ele>1551.6</ele><time>2026-05-03T12:55:19Z</time></trkpt><trkpt lat="43.205025577920495" lon="18.943770487694028"><ele>1549.8000000000002</ele><time>2026-05-03T12:55:20Z</time></trkpt><trkpt lat="43.20509167420785" lon="18.943690872050365"><ele>1548.0</ele><time>2026-05-03T12:55:21Z</time></trkpt><trkpt lat="43.205159403034905" lon="18.943613565640284"><ele>1548.0</ele><time>2026-05-03T12:55:22Z</time></trkpt><trkpt lat="43.20523267038004" lon="18.943530595761793"><ele>1548.0</ele><time>2026-05-03T12:55:23Z</time></trkpt><trkpt lat="43.20530952444625" lon="18.943443907549756"><ele>1548.0</ele><time>2026-05-03T12:55:24Z</time></trkpt><trkpt lat="43.20538314515554" lon="18.94337857129289"><ele>1548.0</ele><time>2026-05-03T12:55:25Z</time></trkpt><trkpt lat="43.205460858240926" lon="18.943318011479214"><ele>1548.0</ele><time>2026-05-03T12:55:26Z</time></trkpt><trkpt lat="43.205534790249125" lon="18.943265616524492"><ele>1547.5</ele><time>2026-05-03T12:55:27Z</time></trkpt><trkpt lat="43.20561142630237" lon="18.943221959841694"><ele>1547.0</ele><time>2026-05-03T12:55:28Z</time></trkpt><trkpt lat="43.20569010140569" lon="18.943176623105636"><ele>1546.5</ele><time>2026-05-03T12:55:29Z</time></trkpt><trkpt lat="43.205770887598405" lon="18.943131283638632"><ele>1546.0</ele><time>2026-05-03T12:55:30Z</time></trkpt><trkpt lat="43.205852055581396" lon="18.943087452026074"><ele>1545.5</ele><time>2026-05-03T12:55:31Z</time></trkpt><trkpt lat="43.2059344772176" lon="18.943042943789397"><ele>1545.0</ele><time>2026-05-03T12:55:32Z</time></trkpt><trkpt lat="43.20600520790827" lon="18.94299114656609"><ele>1545.0</ele><time>2026-05-03T12:55:33Z</time></trkpt><trkpt lat="43.20608414778018" lon="18.942934876938494"><ele>1545.0</ele><time>2026-05-03T12:55:34Z</time></trkpt><trkpt lat="43.20616783663056" lon="18.942875596284264"><ele>1545.0</ele><time>2026-05-03T12:55:35Z</time></trkpt><trkpt lat="43.20624962117292" lon="18.942817664473527"><ele>1545.0</ele><time>2026-05-03T12:55:36Z</time></trkpt><trkpt lat="43.20633050415419" lon="18.942760371403054"><ele>1545.0</ele><time>2026-05-03T12:55:37Z</time></trkpt><trkpt lat="43.20641293246091" lon="18.942701916207454"><ele>1545.4</ele><time>2026-05-03T12:55:38Z</time></trkpt><trkpt lat="43.20649646764543" lon="18.942641977934237"><ele>1545.8</ele><time>2026-05-03T12:55:39Z</time></trkpt><trkpt lat="43.20657694732962" lon="18.94255785929521"><ele>1546.1999999999998</ele><time>2026-05-03T12:55:40Z</time></trkpt><trkpt lat="43.206665783064594" lon="18.942455711942944"><ele>1546.6</ele><time>2026-05-03T12:55:41Z</time></trkpt><trkpt lat="43.206745646394545" lon="18.942332298083443"><ele>1547.0</ele><time>2026-05-03T12:55:42Z</time></trkpt><trkpt lat="43.206832651423014" lon="18.942199335086652"><ele>1547.0</ele><time>2026-05-03T12:55:43Z</time></trkpt><trkpt lat="43.20692432828323" lon="18.942057105032433"><ele>1547.0</ele><time>2026-05-03T12:55:44Z</time></trkpt><trkpt lat="43.20701920431839" lon="18.94191073649194"><ele>1547.0</ele><time>2026-05-03T12:55:45Z</time></trkpt><trkpt lat="43.20711469342595" lon="18.941763185763048"><ele>1547.0</ele><time>2026-05-03T12:55:46Z</time></trkpt><trkpt lat="43.207228860394935" lon="18.941628928626415"><ele>1545.25</ele><time>2026-05-03T12:55:47Z</time></trkpt><trkpt lat="43.20733708333694" lon="18.941503101962766"><ele>1543.5</ele><time>2026-05-03T12:55:48Z</time></trkpt><trkpt lat="43.20743897970823" lon="18.941382769442637"><ele>1541.75</ele><time>2026-05-03T12:55:49Z</time></trkpt><trkpt lat="43.20749097089684" lon="18.941208742028383"><ele>1540.0</ele><time>2026-05-03T12:55:50Z</time></trkpt><trkpt lat="43.20754043892992" lon="18.94104937683681"><ele>1540.0</ele><time>2026-05-03T12:55:51Z</time></trkpt><trkpt lat="43.207609859500984" lon="18.940910476588734"><ele>1540.0</ele><time>2026-05-03T12:55:52Z</time></trkpt><trkpt lat="43.20768046494599" lon="18.940759696721567"><ele>1540.0</ele><time>2026-05-03T12:55:53Z</time></trkpt><trkpt lat="43.207773713865336" lon="18.940629887743547"><ele>1540.0</ele><time>2026-05-03T12:55:54Z</time></trkpt><trkpt lat="43.207861722687845" lon="18.940488710351183"><ele>1541.0</ele><time>2026-05-03T12:55:55Z</time></trkpt><trkpt lat="43.20790945097321" lon="18.940336916731958"><ele>1542.0</ele><time>2026-05-03T12:55:56Z</time></trkpt><trkpt lat="43.20797611290687" lon="18.940190913083963"><ele>1543.0</ele><time>2026-05-03T12:55:57Z</time></trkpt><trkpt lat="43.207998627088635" lon="18.940011618537994"><ele>1544.0</ele><time>2026-05-03T12:55:58Z</time></trkpt><trkpt lat="43.208033155743756" lon="18.93983802362763"><ele>1545.6</ele><time>2026-05-03T12:55:59Z</time></trkpt><trkpt lat="43.20806598385462" lon="18.939674799732916"><ele>1547.2</ele><time>2026-05-03T12:56:00Z</time></trkpt><trkpt lat="43.20809506509465" lon="18.939529119955427"><ele>1548.8</ele><time>2026-05-03T12:56:01Z</time></trkpt><trkpt lat="43.20812419555874" lon="18.939383266506738"><ele>1550.3999999999999</ele><time>2026-05-03T12:56:02Z</time></trkpt><trkpt lat="43.20817427543381" lon="18.93925545637347"><ele>1552.0</ele><time>2026-05-03T12:56:03Z</time></trkpt><trkpt lat="43.20826577289494" lon="18.939158614001272"><ele>1544.6666666666667</ele><time>2026-05-03T12:56:04Z</time></trkpt><trkpt lat="43.20838265867381" lon="18.939032697231795"><ele>1537.3333333333335</ele><time>2026-05-03T12:56:05Z</time></trkpt><trkpt lat="43.20850523819263" lon="18.938899889336703"><ele>1530.0</ele><time>2026-05-03T12:56:06Z</time></trkpt><trkpt lat="43.20862928738593" lon="18.938757059202747"><ele>1530.0</ele><time>2026-05-03T12:56:07Z</time></trkpt><trkpt lat="43.208729872135386" lon="18.93859541020745"><ele>1530.0</ele><time>2026-05-03T12:56:08Z</time></trkpt><trkpt lat="43.2088160474439" lon="18.93845229392995"><ele>1530.0</ele><time>2026-05-03T12:56:09Z</time></trkpt><trkpt lat="43.20890012519447" lon="18.93836133145897"><ele>1530.0</ele><time>2026-05-03T12:56:10Z</time></trkpt><trkpt lat="43.20898470561972" lon="18.938317647342362"><ele>1529.4</ele><time>2026-05-03T12:56:11Z</time></trkpt><trkpt lat="43.209072250095666" lon="18.93832189747748"><ele>1528.8</ele><time>2026-05-03T12:56:12Z</time></trkpt><trkpt lat="43.209168693055894" lon="18.938336832411885"><ele>1528.1999999999998</ele><time>2026-05-03T12:56:13Z</time></trkpt><trkpt lat="43.20925791614132" lon="18.938326800318233"><ele>1527.6</ele><time>2026-05-03T12:56:14Z</time></trkpt><trkpt lat="43.209344255652155" lon="18.9382916248316"><ele>1527.0</ele><time>2026-05-03T12:56:15Z</time></trkpt><trkpt lat="43.20941455976183" lon="18.938189321982055"><ele>1527.0</ele><time>2026-05-03T12:56:16Z</time></trkpt><trkpt lat="43.209505158344626" lon="18.938132442642726"><ele>1527.0</ele><time>2026-05-03T12:56:17Z</time></trkpt><trkpt lat="43.209587317491504" lon="18.93808149812476"><ele>1527.0</ele><time>2026-05-03T12:56:18Z</time></trkpt><trkpt lat="43.209685561650815" lon="18.938031062278124"><ele>1527.0</ele><time>2026-05-03T12:56:19Z</time></trkpt><trkpt lat="43.20976255057281" lon="18.937972617604515"><ele>1527.0</ele><time>2026-05-03T12:56:20Z</time></trkpt><trkpt lat="43.2098074832465" lon="18.937871371997293"><ele>1526.0</ele><time>2026-05-03T12:56:21Z</time></trkpt><trkpt lat="43.20983975620473" lon="18.937767844717982"><ele>1525.0</ele><time>2026-05-03T12:56:22Z</time></trkpt><trkpt lat="43.20989183543181" lon="18.937669449156612"><ele>1524.0</ele><time>2026-05-03T12:56:23Z</time></trkpt><trkpt lat="43.2099358019578" lon="18.9375595683443"><ele>1523.0</ele><time>2026-05-03T12:56:24Z</time></trkpt><trkpt lat="43.209973459730584" lon="18.937460102708872"><ele>1522.0</ele><time>2026-05-03T12:56:25Z</time></trkpt><trkpt lat="43.210018163408414" lon="18.937373773420706"><ele>1521.0</ele><time>2026-05-03T12:56:26Z</time></trkpt><trkpt lat="43.21010740663179" lon="18.937368200720194"><ele>1521.0</ele><time>2026-05-03T12:56:27Z</time></trkpt><trkpt lat="43.210164258276926" lon="18.93730735595239"><ele>1521.0</ele><time>2026-05-03T12:56:28Z</time></trkpt><trkpt lat="43.21021252833596" lon="18.937227212787153"><ele>1521.0</ele><time>2026-05-03T12:56:29Z</time></trkpt><trkpt lat="43.21027771499887" lon="18.93716091060044"><ele>1521.0</ele><time>2026-05-03T12:56:30Z</time></trkpt><trkpt lat="43.21036217949213" lon="18.937094116350828"><ele>1521.0</ele><time>2026-05-03T12:56:31Z</time></trkpt><trkpt lat="43.210439899337494" lon="18.937010741090315"><ele>1521.0</ele><time>2026-05-03T12:56:32Z</time></trkpt><trkpt lat="43.210521207003545" lon="18.936923658105663"><ele>1521.0</ele><time>2026-05-03T12:56:33Z</time></trkpt><trkpt lat="43.210606878609205" lon="18.936831851474153"><ele>1521.0</ele><time>2026-05-03T12:56:34Z</time></trkpt><trkpt lat="43.210695543022375" lon="18.936737014451907"><ele>1521.0</ele><time>2026-05-03T12:56:35Z</time></trkpt><trkpt lat="43.21078519139305" lon="18.936628317740485"><ele>1521.0</ele><time>2026-05-03T12:56:36Z</time></trkpt><trkpt lat="43.210873453715976" lon="18.93651850911225"><ele>1518.5</ele><time>2026-05-03T12:56:37Z</time></trkpt><trkpt lat="43.21095894695687" lon="18.936412202782176"><ele>1516.0</ele><time>2026-05-03T12:56:38Z</time></trkpt><trkpt lat="43.21102892401113" lon="18.93628068593791"><ele>1513.5</ele><time>2026-05-03T12:56:39Z</time></trkpt><trkpt lat="43.21110604164239" lon="18.936174429328094"><ele>1511.0</ele><time>2026-05-03T12:56:40Z</time></trkpt><trkpt lat="43.21117348336391" lon="18.936038075565218"><ele>1506.25</ele><time>2026-05-03T12:56:41Z</time></trkpt><trkpt lat="43.2112436136033" lon="18.935882641151814"><ele>1501.5</ele><time>2026-05-03T12:56:42Z</time></trkpt><trkpt lat="43.21134777827473" lon="18.935761129375297"><ele>1496.75</ele><time>2026-05-03T12:56:43Z</time></trkpt><trkpt lat="43.21144473993063" lon="18.935619591995735"><ele>1492.0</ele><time>2026-05-03T12:56:44Z</time></trkpt><trkpt lat="43.211530900058335" lon="18.93547909424732"><ele>1492.0</ele><time>2026-05-03T12:56:45Z</time></trkpt><trkpt lat="43.211613497262015" lon="18.935336268128538"><ele>1492.0</ele><time>2026-05-03T12:56:46Z</time></trkpt><trkpt lat="43.21167561095514" lon="18.935176514939332"><ele>1492.0</ele><time>2026-05-03T12:56:47Z</time></trkpt><trkpt lat="43.21170765885528" lon="18.93500747460165"><ele>1492.0</ele><time>2026-05-03T12:56:48Z</time></trkpt><trkpt lat="43.21174983471418" lon="18.934843950792622"><ele>1495.5</ele><time>2026-05-03T12:56:49Z</time></trkpt><trkpt lat="43.21182811292417" lon="18.93469658191556"><ele>1499.0</ele><time>2026-05-03T12:56:50Z</time></trkpt><trkpt lat="43.21190363518507" lon="18.934538685521677"><ele>1502.5</ele><time>2026-05-03T12:56:51Z</time></trkpt><trkpt lat="43.21200343149301" lon="18.934424644155722"><ele>1506.0</ele><time>2026-05-03T12:56:52Z</time></trkpt><trkpt lat="43.21209854553331" lon="18.934285446600477"><ele>1509.25</ele><time>2026-05-03T12:56:53Z</time></trkpt><trkpt lat="43.21217283436714" lon="18.93413635953876"><ele>1512.5</ele><time>2026-05-03T12:56:54Z</time></trkpt><trkpt lat="43.21226633595197" lon="18.934023529236043"><ele>1515.75</ele><time>2026-05-03T12:56:55Z</time></trkpt><trkpt lat="43.212364413094" lon="18.93390549448926"><ele>1519.0</ele><time>2026-05-03T12:56:56Z</time></trkpt><trkpt lat="43.21246631901218" lon="18.93382788170561"><ele>1511.8000000000002</ele><time>2026-05-03T12:56:57Z</time></trkpt><trkpt lat="43.21256351814609" lon="18.933794361020432"><ele>1504.6000000000001</ele><time>2026-05-03T12:56:58Z</time></trkpt><trkpt lat="43.21266484299912" lon="18.933760135812573"><ele>1497.4</ele><time>2026-05-03T12:56:59Z</time></trkpt><trkpt lat="43.2127698897568" lon="18.93371158697744"><ele>1490.2</ele><time>2026-05-03T12:57:01Z</time></trkpt><trkpt lat="43.21280166872241" lon="18.933598848801036"><ele>1483.0</ele><time>2026-05-03T12:57:02Z</time></trkpt><trkpt lat="43.21281383955713" lon="18.933463665892916"><ele>1485.5</ele><time>2026-05-03T12:57:03Z</time></trkpt><trkpt lat="43.21283028846566" lon="18.933321427776207"><ele>1488.0</ele><time>2026-05-03T12:57:04Z</time></trkpt><trkpt lat="43.21285647684102" lon="18.933163646727344"><ele>1490.5</ele><time>2026-05-03T12:57:05Z</time></trkpt><trkpt lat="43.21289391831791" lon="18.932991172192555"><ele>1493.0</ele><time>2026-05-03T12:57:06Z</time></trkpt><trkpt lat="43.212967172355654" lon="18.932856478702565"><ele>1493.0</ele><time>2026-05-03T12:57:07Z</time></trkpt><trkpt lat="43.21302637535725" lon="18.932714730738706"><ele>1493.0</ele><time>2026-05-03T12:57:08Z</time></trkpt><trkpt lat="43.21309156591958" lon="18.932584303775418"><ele>1493.0</ele><time>2026-05-03T12:57:09Z</time></trkpt><trkpt lat="43.21315511493659" lon="18.932463647642578"><ele>1493.0</ele><time>2026-05-03T12:57:10Z</time></trkpt><trkpt lat="43.21321547185584" lon="18.93234752859751"><ele>1493.0</ele><time>2026-05-03T12:57:11Z</time></trkpt><trkpt lat="43.2132924071302" lon="18.93224041846391"><ele>1488.5</ele><time>2026-05-03T12:57:12Z</time></trkpt><trkpt lat="43.21337813668986" lon="18.932121309695056"><ele>1484.0</ele><time>2026-05-03T12:57:13Z</time></trkpt><trkpt lat="43.213503391770445" lon="18.93210753587412"><ele>1479.5</ele><time>2026-05-03T12:57:14Z</time></trkpt><trkpt lat="43.21362386734164" lon="18.93205753817467"><ele>1475.0</ele><time>2026-05-03T12:57:15Z</time></trkpt><trkpt lat="43.21373173195665" lon="18.932078306270437"><ele>1475.0</ele><time>2026-05-03T12:57:16Z</time></trkpt><trkpt lat="43.21384640656241" lon="18.9321128144159"><ele>1475.0</ele><time>2026-05-03T12:57:17Z</time></trkpt><trkpt lat="43.213939058630444" lon="18.93220248106799"><ele>1475.0</ele><time>2026-05-03T12:57:18Z</time></trkpt><trkpt lat="43.21401307552095" lon="18.932246239074754"><ele>1475.0</ele><time>2026-05-03T12:57:19Z</time></trkpt><trkpt lat="43.21411972246037" lon="18.93221976501553"><ele>1475.0</ele><time>2026-05-03T12:57:21Z</time></trkpt><trkpt lat="43.214166529348276" lon="18.932157328482038"><ele>1474.2</ele><time>2026-05-03T12:57:22Z</time></trkpt><trkpt lat="43.21416723135921" lon="18.932032780141807"><ele>1473.4</ele><time>2026-05-03T12:57:23Z</time></trkpt><trkpt lat="43.21413462291389" lon="18.93189484680604"><ele>1472.6</ele><time>2026-05-03T12:57:24Z</time></trkpt><trkpt lat="43.214144486908545" lon="18.931732239740942"><ele>1471.8</ele><time>2026-05-03T12:57:25Z</time></trkpt><trkpt lat="43.21416129147516" lon="18.931595499658613"><ele>1471.0</ele><time>2026-05-03T12:57:26Z</time></trkpt><trkpt lat="43.214179972124604" lon="18.93144386408634"><ele>1471.0</ele><time>2026-05-03T12:57:27Z</time></trkpt><trkpt lat="43.21425905106428" lon="18.93130586089982"><ele>1471.0</ele><time>2026-05-03T12:57:28Z</time></trkpt><trkpt lat="43.21432392985504" lon="18.931138991820273"><ele>1471.0</ele><time>2026-05-03T12:57:29Z</time></trkpt><trkpt lat="43.21437283665457" lon="18.930967510103862"><ele>1471.0</ele><time>2026-05-03T12:57:30Z</time></trkpt><trkpt lat="43.21444658595364" lon="18.930831808090414"><ele>1471.5</ele><time>2026-05-03T12:57:31Z</time></trkpt><trkpt lat="43.21452374003404" lon="18.930664108393348"><ele>1472.0</ele><time>2026-05-03T12:57:32Z</time></trkpt><trkpt lat="43.2146333665933" lon="18.930546732638327"><ele>1472.5</ele><time>2026-05-03T12:57:33Z</time></trkpt><trkpt lat="43.21473758101706" lon="18.93040234328601"><ele>1473.0</ele><time>2026-05-03T12:57:34Z</time></trkpt><trkpt lat="43.21483034350892" lon="18.930263592766586"><ele>1471.6000000000001</ele><time>2026-05-03T12:57:35Z</time></trkpt><trkpt lat="43.214909802548355" lon="18.930148366421324"><ele>1470.2</ele><time>2026-05-03T12:57:36Z</time></trkpt><trkpt lat="43.21496079759376" lon="18.930028980172157"><ele>1468.8</ele><time>2026-05-03T12:57:37Z</time></trkpt><trkpt lat="43.215003656270184" lon="18.929900144483057"><ele>1467.4</ele><time>2026-05-03T12:57:38Z</time></trkpt><trkpt lat="43.21503468554529" lon="18.929762811187896"><ele>1466.0</ele><time>2026-05-03T12:57:39Z</time></trkpt><trkpt lat="43.21507041235745" lon="18.929634831922687"><ele>1466.0</ele><time>2026-05-03T12:57:40Z</time></trkpt><trkpt lat="43.21510590454028" lon="18.929515092039964"><ele>1466.0</ele><time>2026-05-03T12:57:41Z</time></trkpt><trkpt lat="43.21515184917676" lon="18.929396400780313"><ele>1466.0</ele><time>2026-05-03T12:57:42Z</time></trkpt><trkpt lat="43.21520802759197" lon="18.929278828303655"><ele>1466.0</ele><time>2026-05-03T12:57:43Z</time></trkpt><trkpt lat="43.21527525296995" lon="18.929168929005417"><ele>1466.0</ele><time>2026-05-03T12:57:44Z</time></trkpt><trkpt lat="43.21535334184715" lon="18.929067058429936"><ele>1466.5</ele><time>2026-05-03T12:57:45Z</time></trkpt><trkpt lat="43.21546045791363" lon="18.928993959158806"><ele>1467.0</ele><time>2026-05-03T12:57:46Z</time></trkpt><trkpt lat="43.215548594838076" lon="18.928887365320797"><ele>1467.5</ele><time>2026-05-03T12:57:47Z</time></trkpt><trkpt lat="43.21564218168436" lon="18.928802459157218"><ele>1468.0</ele><time>2026-05-03T12:57:48Z</time></trkpt><trkpt lat="43.215729204042276" lon="18.92871993430235"><ele>1466.4</ele><time>2026-05-03T12:57:49Z</time></trkpt><trkpt lat="43.21581444671155" lon="18.928635412007235"><ele>1464.8000000000002</ele><time>2026-05-03T12:57:50Z</time></trkpt><trkpt lat="43.215897597949095" lon="18.9285556750025"><ele>1463.2</ele><time>2026-05-03T12:57:51Z</time></trkpt><trkpt lat="43.21598263382988" lon="18.928480631830915"><ele>1461.6</ele><time>2026-05-03T12:57:52Z</time></trkpt><trkpt lat="43.21608176404582" lon="18.928452420357083"><ele>1460.0</ele><time>2026-05-03T12:57:53Z</time></trkpt><trkpt lat="43.21617012973823" lon="18.928406369834892"><ele>1460.0</ele><time>2026-05-03T12:57:54Z</time></trkpt><trkpt lat="43.21625953062435" lon="18.928411007198378"><ele>1460.0</ele><time>2026-05-03T12:57:55Z</time></trkpt><trkpt lat="43.216310699463065" lon="18.928490802139507"><ele>1460.0</ele><time>2026-05-03T12:57:56Z</time></trkpt><trkpt lat="43.216378307781625" lon="18.92857168547653"><ele>1460.0</ele><time>2026-05-03T12:57:57Z</time></trkpt><trkpt lat="43.21647856682628" lon="18.928676707927124"><ele>1460.0</ele><time>2026-05-03T12:57:58Z</time></trkpt><trkpt lat="43.21657844988204" lon="18.928782881497433"><ele>1459.0</ele><time>2026-05-03T12:57:59Z</time></trkpt><trkpt lat="43.21669321340676" lon="18.92885596164369"><ele>1458.0</ele><time>2026-05-03T12:58:00Z</time></trkpt><trkpt lat="43.21682472795956" lon="18.928847987890396"><ele>1457.0</ele><time>2026-05-03T12:58:01Z</time></trkpt><trkpt lat="43.21695162954998" lon="18.928891240715394"><ele>1456.0</ele><time>2026-05-03T12:58:02Z</time></trkpt><trkpt lat="43.21707950701683" lon="18.928913328681126"><ele>1456.0</ele><time>2026-05-03T12:58:03Z</time></trkpt><trkpt lat="43.21719808053026" lon="18.928905439209277"><ele>1456.0</ele><time>2026-05-03T12:58:04Z</time></trkpt><trkpt lat="43.2172985257546" lon="18.928879706164146"><ele>1456.0</ele><time>2026-05-03T12:58:05Z</time></trkpt><trkpt lat="43.21738573762209" lon="18.92889576933449"><ele>1456.0</ele><time>2026-05-03T12:58:06Z</time></trkpt><trkpt lat="43.21747058374681" lon="18.92883655913475"><ele>1456.0</ele><time>2026-05-03T12:58:07Z</time></trkpt><trkpt lat="43.217537385753985" lon="18.928761616226534"><ele>1455.3333333333333</ele><time>2026-05-03T12:58:08Z</time></trkpt><trkpt lat="43.217603348705794" lon="18.9286876271829"><ele>1454.6666666666665</ele><time>2026-05-03T12:58:09Z</time></trkpt><trkpt lat="43.217687365488025" lon="18.928618740297164"><ele>1454.0</ele><time>2026-05-03T12:58:10Z</time></trkpt><trkpt lat="43.21775867496754" lon="18.928547972949122"><ele>1453.3333333333333</ele><time>2026-05-03T12:58:11Z</time></trkpt><trkpt lat="43.2178279149431" lon="18.928557239190912"><ele>1452.6666666666667</ele><time>2026-05-03T12:58:12Z</time></trkpt><trkpt lat="43.217896523399595" lon="18.928551176468517"><ele>1452.0</ele><time>2026-05-03T12:58:13Z</time></trkpt><trkpt lat="43.217955517155154" lon="18.92862140587762"><ele>1452.0</ele><time>2026-05-03T12:58:14Z</time></trkpt><trkpt lat="43.21798923829778" lon="18.92872260987197"><ele>1452.0</ele><time>2026-05-03T12:58:15Z</time></trkpt><trkpt lat="43.2180283924787" lon="18.928804151205696"><ele>1452.0</ele><time>2026-05-03T12:58:16Z</time></trkpt><trkpt lat="43.218057677036576" lon="18.92889343817482"><ele>1452.0</ele><time>2026-05-03T12:58:17Z</time></trkpt><trkpt lat="43.218067610645946" lon="18.929007990343063"><ele>1452.0</ele><time>2026-05-03T12:58:18Z</time></trkpt><trkpt lat="43.21807692609069" lon="18.929120020679814"><ele>1452.0</ele><time>2026-05-03T12:58:19Z</time></trkpt><trkpt lat="43.21808388019337" lon="18.929228433131318"><ele>1450.6666666666667</ele><time>2026-05-03T12:58:20Z</time></trkpt><trkpt lat="43.2180893199036" lon="18.929332818965523"><ele>1449.3333333333333</ele><time>2026-05-03T12:58:21Z</time></trkpt><trkpt lat="43.21809773103512" lon="18.92944050534049"><ele>1448.0</ele><time>2026-05-03T12:58:22Z</time></trkpt><trkpt lat="43.21811999969554" lon="18.9295319883776"><ele>1446.6666666666665</ele><time>2026-05-03T12:58:23Z</time></trkpt><trkpt lat="43.21816755862952" lon="18.929600282248924"><ele>1445.3333333333333</ele><time>2026-05-03T12:58:24Z</time></trkpt><trkpt lat="43.218243280288306" lon="18.929633572395158"><ele>1444.0</ele><time>2026-05-03T12:58:25Z</time></trkpt><trkpt lat="43.21832957510665" lon="18.92959561941284"><ele>1444.0</ele><time>2026-05-03T12:58:26Z</time></trkpt><trkpt lat="43.21841473790221" lon="18.92960127954015"><ele>1444.0</ele><time>2026-05-03T12:58:27Z</time></trkpt><trkpt lat="43.21851279799593" lon="18.929589991619924"><ele>1444.0</ele><time>2026-05-03T12:58:28Z</time></trkpt><trkpt lat="43.218617963173024" lon="18.92957768015436"><ele>1444.0</ele><time>2026-05-03T12:58:29Z</time></trkpt><trkpt lat="43.218736346642906" lon="18.929575817645617"><ele>1444.0</ele><time>2026-05-03T12:58:30Z</time></trkpt><trkpt lat="43.21885638966226" lon="18.929607948364435"><ele>1444.0</ele><time>2026-05-03T12:58:31Z</time></trkpt><trkpt lat="43.218975063693854" lon="18.929649959123466"><ele>1444.0</ele><time>2026-05-03T12:58:32Z</time></trkpt><trkpt lat="43.21908460733025" lon="18.929689727439595"><ele>1444.0</ele><time>2026-05-03T12:58:33Z</time></trkpt><trkpt lat="43.21919319849688" lon="18.92973890197445"><ele>1444.0</ele><time>2026-05-03T12:58:34Z</time></trkpt><trkpt lat="43.21929634580926" lon="18.92982081212524"><ele>1443.75</ele><time>2026-05-03T12:58:35Z</time></trkpt><trkpt lat="43.21939373838473" lon="18.929925256044992"><ele>1443.5</ele><time>2026-05-03T12:58:36Z</time></trkpt><trkpt lat="43.219490362613335" lon="18.930019538590148"><ele>1443.25</ele><time>2026-05-03T12:58:37Z</time></trkpt><trkpt lat="43.21960473101767" lon="18.93006457141611"><ele>1443.0</ele><time>2026-05-03T12:58:38Z</time></trkpt><trkpt lat="43.21971823444478" lon="18.930071505180674"><ele>1441.0</ele><time>2026-05-03T12:58:39Z</time></trkpt><trkpt lat="43.219817397119726" lon="18.930021063122243"><ele>1439.0</ele><time>2026-05-03T12:58:40Z</time></trkpt><trkpt lat="43.21991301458574" lon="18.930033066215746"><ele>1437.0</ele><time>2026-05-03T12:58:41Z</time></trkpt><trkpt lat="43.22001125037717" lon="18.930047712864617"><ele>1435.0</ele><time>2026-05-03T12:58:42Z</time></trkpt><trkpt lat="43.22012096806851" lon="18.93006941512513"><ele>1433.0</ele><time>2026-05-03T12:58:43Z</time></trkpt><trkpt lat="43.22023894900148" lon="18.9300929578959"><ele>1432.6000000000001</ele><time>2026-05-03T12:58:44Z</time></trkpt><trkpt lat="43.22034130771846" lon="18.930139375899984"><ele>1432.2</ele><time>2026-05-03T12:58:45Z</time></trkpt><trkpt lat="43.22041568821181" lon="18.93023706731846"><ele>1431.8</ele><time>2026-05-03T12:58:46Z</time></trkpt><trkpt lat="43.220486292132314" lon="18.930358976321735"><ele>1431.4</ele><time>2026-05-03T12:58:47Z</time></trkpt><trkpt lat="43.22055923592077" lon="18.93047137767046"><ele>1431.0</ele><time>2026-05-03T12:58:48Z</time></trkpt><trkpt lat="43.22061703536471" lon="18.93056044251298"><ele>1431.0</ele><time>2026-05-03T12:58:49Z</time></trkpt><trkpt lat="43.22066729133527" lon="18.930637884291144"><ele>1431.0</ele><time>2026-05-03T12:58:50Z</time></trkpt><trkpt lat="43.22073931628562" lon="18.93069022334475"><ele>1431.0</ele><time>2026-05-03T12:58:51Z</time></trkpt><trkpt lat="43.22085755517896" lon="18.93062571038958"><ele>1431.0</ele><time>2026-05-03T12:58:52Z</time></trkpt><trkpt lat="43.220950728665045" lon="18.93062084780443"><ele>1431.0</ele><time>2026-05-03T12:58:53Z</time></trkpt><trkpt lat="43.22102994427708" lon="18.93072643004243"><ele>1431.0</ele><time>2026-05-03T12:58:54Z</time></trkpt><trkpt lat="43.22109012296823" lon="18.93082376548784"><ele>1431.0</ele><time>2026-05-03T12:58:55Z</time></trkpt><trkpt lat="43.221134164770824" lon="18.930940307060023"><ele>1431.0</ele><time>2026-05-03T12:58:56Z</time></trkpt><trkpt lat="43.22118272905962" lon="18.93107257338301"><ele>1431.0</ele><time>2026-05-03T12:58:57Z</time></trkpt><trkpt lat="43.22122977830215" lon="18.931200856767013"><ele>1431.0</ele><time>2026-05-03T12:58:58Z</time></trkpt><trkpt lat="43.22127869586573" lon="18.93131320907132"><ele>1431.0</ele><time>2026-05-03T12:58:59Z</time></trkpt><trkpt lat="43.221280222456826" lon="18.931433428983134"><ele>1431.0</ele><time>2026-05-03T12:59:00Z</time></trkpt><trkpt lat="43.22128906916056" lon="18.931542716929478"><ele>1431.0</ele><time>2026-05-03T12:59:01Z</time></trkpt><trkpt lat="43.221296533158494" lon="18.931637086679245"><ele>1431.0</ele><time>2026-05-03T12:59:02Z</time></trkpt><trkpt lat="43.22134304159727" lon="18.93179458933744"><ele>1431.0</ele><time>2026-05-03T12:59:04Z</time></trkpt><trkpt lat="43.221424559978466" lon="18.931841570280195"><ele>1431.0</ele><time>2026-05-03T12:59:05Z</time></trkpt><trkpt lat="43.22151242135205" lon="18.931882592492084"><ele>1431.0</ele><time>2026-05-03T12:59:06Z</time></trkpt><trkpt lat="43.22162464873146" lon="18.931932798861897"><ele>1431.0</ele><time>2026-05-03T12:59:07Z</time></trkpt><trkpt lat="43.221751285978776" lon="18.93198130065487"><ele>1431.0</ele><time>2026-05-03T12:59:08Z</time></trkpt><trkpt lat="43.22190775280642" lon="18.931935637865475"><ele>1431.0</ele><time>2026-05-03T12:59:09Z</time></trkpt><trkpt lat="43.222031839181994" lon="18.931931722605057"><ele>1431.0</ele><time>2026-05-03T12:59:10Z</time></trkpt><trkpt lat="43.22215703181929" lon="18.93194228579026"><ele>1431.0</ele><time>2026-05-03T12:59:11Z</time></trkpt><trkpt lat="43.22226088494471" lon="18.93197594276953"><ele>1431.0</ele><time>2026-05-03T12:59:12Z</time></trkpt><trkpt lat="43.22236022578714" lon="18.9320021119662"><ele>1431.0</ele><time>2026-05-03T12:59:13Z</time></trkpt><trkpt lat="43.222447178840184" lon="18.93203314708629"><ele>1431.0</ele><time>2026-05-03T12:59:14Z</time></trkpt><trkpt lat="43.22253199245289" lon="18.932064382834398"><ele>1430.8333333333333</ele><time>2026-05-03T12:59:15Z</time></trkpt><trkpt lat="43.22261896265612" lon="18.932079832888817"><ele>1430.6666666666667</ele><time>2026-05-03T12:59:16Z</time></trkpt><trkpt lat="43.22268717902109" lon="18.932067885270328"><ele>1430.5</ele><time>2026-05-03T12:59:17Z</time></trkpt><trkpt lat="43.222762643678585" lon="18.932016693377037"><ele>1430.3333333333335</ele><time>2026-05-03T12:59:18Z</time></trkpt><trkpt lat="43.22283025430778" lon="18.9319178615311"><ele>1430.1666666666667</ele><time>2026-05-03T12:59:19Z</time></trkpt><trkpt lat="43.22290253698714" lon="18.931837644328375"><ele>1430.0</ele><time>2026-05-03T12:59:20Z</time></trkpt><trkpt lat="43.222974749397984" lon="18.931792326898407"><ele>1430.0</ele><time>2026-05-03T12:59:21Z</time></trkpt><trkpt lat="43.22305323421931" lon="18.931772128206344"><ele>1430.0</ele><time>2026-05-03T12:59:22Z</time></trkpt><trkpt lat="43.22312667846391" lon="18.93178221483059"><ele>1430.0</ele><time>2026-05-03T12:59:23Z</time></trkpt><trkpt lat="43.22319820739448" lon="18.931827552026835"><ele>1430.0</ele><time>2026-05-03T12:59:24Z</time></trkpt><trkpt lat="43.223275646822856" lon="18.931875802860844"><ele>1430.0</ele><time>2026-05-03T12:59:25Z</time></trkpt><trkpt lat="43.22335950144593" lon="18.931935301415372"><ele>1430.0</ele><time>2026-05-03T12:59:26Z</time></trkpt><trkpt lat="43.22344478756718" lon="18.931993545647977"><ele>1430.2</ele><time>2026-05-03T12:59:27Z</time></trkpt><trkpt lat="43.22352891201442" lon="18.93205099650846"><ele>1430.4</ele><time>2026-05-03T12:59:28Z</time></trkpt><trkpt lat="43.223625832885155" lon="18.93209209722281"><ele>1430.6</ele><time>2026-05-03T12:59:29Z</time></trkpt><trkpt lat="43.223733486751804" lon="18.932072475109305"><ele>1430.8</ele><time>2026-05-03T12:59:30Z</time></trkpt><trkpt lat="43.223833257005424" lon="18.93202678446029"><ele>1431.0</ele><time>2026-05-03T12:59:31Z</time></trkpt><trkpt lat="43.22391920919825" lon="18.931931803300632"><ele>1430.4</ele><time>2026-05-03T12:59:32Z</time></trkpt><trkpt lat="43.22400140699233" lon="18.9318671677078"><ele>1429.8</ele><time>2026-05-03T12:59:33Z</time></trkpt><trkpt lat="43.224094472186195" lon="18.93179421120353"><ele>1429.2</ele><time>2026-05-03T12:59:34Z</time></trkpt><trkpt lat="43.22419367763636" lon="18.93176531653681"><ele>1428.6000000000001</ele><time>2026-05-03T12:59:35Z</time></trkpt><trkpt lat="43.224291221557294" lon="18.93174857169026"><ele>1428.0</ele><time>2026-05-03T12:59:36Z</time></trkpt><trkpt lat="43.22438205224411" lon="18.931753687608296"><ele>1428.0</ele><time>2026-05-03T12:59:37Z</time></trkpt><trkpt lat="43.2244663343725" lon="18.93176879186342"><ele>1428.0</ele><time>2026-05-03T12:59:38Z</time></trkpt><trkpt lat="43.22454844017345" lon="18.931807273652804"><ele>1428.0</ele><time>2026-05-03T12:59:39Z</time></trkpt><trkpt lat="43.22462815975212" lon="18.931869877570897"><ele>1428.0</ele><time>2026-05-03T12:59:40Z</time></trkpt><trkpt lat="43.2247017045671" lon="18.931948464784973"><ele>1428.0</ele><time>2026-05-03T12:59:41Z</time></trkpt><trkpt lat="43.224777638196706" lon="18.932026512231616"><ele>1431.2</ele><time>2026-05-03T12:59:42Z</time></trkpt><trkpt lat="43.224853255276656" lon="18.932104234307296"><ele>1434.4</ele><time>2026-05-03T12:59:43Z</time></trkpt><trkpt lat="43.22493491042174" lon="18.932166830245276"><ele>1437.6000000000001</ele><time>2026-05-03T12:59:44Z</time></trkpt><trkpt lat="43.22501195558898" lon="18.93224788704801"><ele>1440.8000000000002</ele><time>2026-05-03T12:59:45Z</time></trkpt><trkpt lat="43.22509293062304" lon="18.932325847139307"><ele>1444.0</ele><time>2026-05-03T12:59:46Z</time></trkpt><trkpt lat="43.225166326816996" lon="18.932427025632784"><ele>1444.0</ele><time>2026-05-03T12:59:47Z</time></trkpt><trkpt lat="43.22526703740176" lon="18.932484436013766"><ele>1444.0</ele><time>2026-05-03T12:59:48Z</time></trkpt><trkpt lat="43.22535287065787" lon="18.9325550528746"><ele>1444.0</ele><time>2026-05-03T12:59:49Z</time></trkpt><trkpt lat="43.225442255635635" lon="18.932607181281803"><ele>1444.0</ele><time>2026-05-03T12:59:50Z</time></trkpt><trkpt lat="43.22552589514311" lon="18.932663695458118"><ele>1444.0</ele><time>2026-05-03T12:59:51Z</time></trkpt><trkpt lat="43.225626872342666" lon="18.932646944159064"><ele>1445.8000000000002</ele><time>2026-05-03T12:59:52Z</time></trkpt><trkpt lat="43.22571686984485" lon="18.932664764755366"><ele>1447.6000000000001</ele><time>2026-05-03T12:59:53Z</time></trkpt><trkpt lat="43.22579760716361" lon="18.93266225909299"><ele>1449.4</ele><time>2026-05-03T12:59:54Z</time></trkpt><trkpt lat="43.225878693183596" lon="18.932551512777806"><ele>1451.2</ele><time>2026-05-03T12:59:55Z</time></trkpt><trkpt lat="43.22597170836237" lon="18.93249364555417"><ele>1453.0</ele><time>2026-05-03T12:59:56Z</time></trkpt><trkpt lat="43.22605595749084" lon="18.932438887661103"><ele>1453.0</ele><time>2026-05-03T12:59:57Z</time></trkpt><trkpt lat="43.22616141137855" lon="18.932426043542797"><ele>1453.0</ele><time>2026-05-03T12:59:58Z</time></trkpt><trkpt lat="43.22625865585274" lon="18.932450561201982"><ele>1453.0</ele><time>2026-05-03T12:59:59Z</time></trkpt><trkpt lat="43.22634097860043" lon="18.932521163159034"><ele>1453.0</ele><time>2026-05-03T13:00:00Z</time></trkpt><trkpt lat="43.22643639469539" lon="18.93258916297613"><ele>1453.0</ele><time>2026-05-03T13:00:01Z</time></trkpt><trkpt lat="43.22653468760686" lon="18.932649253237432"><ele>1450.5</ele><time>2026-05-03T13:00:02Z</time></trkpt><trkpt lat="43.226626784170456" lon="18.93272286487237"><ele>1448.0</ele><time>2026-05-03T13:00:03Z</time></trkpt><trkpt lat="43.22667906132977" lon="18.932821392094166"><ele>1445.5</ele><time>2026-05-03T13:00:04Z</time></trkpt><trkpt lat="43.22671135454077" lon="18.93292293098643"><ele>1443.0</ele><time>2026-05-03T13:00:05Z</time></trkpt><trkpt lat="43.22674147165127" lon="18.933002304332543"><ele>1440.5</ele><time>2026-05-03T13:00:06Z</time></trkpt><trkpt lat="43.226792617955944" lon="18.93308936631882"><ele>1438.0</ele><time>2026-05-03T13:00:07Z</time></trkpt><trkpt lat="43.226866041336955" lon="18.933164266272932"><ele>1438.0</ele><time>2026-05-03T13:00:08Z</time></trkpt><trkpt lat="43.226973530299816" lon="18.93318548956581"><ele>1438.0</ele><time>2026-05-03T13:00:09Z</time></trkpt><trkpt lat="43.22708621875203" lon="18.93321721596477"><ele>1438.0</ele><time>2026-05-03T13:00:10Z</time></trkpt><trkpt lat="43.227190913431585" lon="18.933272897942928"><ele>1438.0</ele><time>2026-05-03T13:00:11Z</time></trkpt><trkpt lat="43.22729193092063" lon="18.933305555698333"><ele>1438.0</ele><time>2026-05-03T13:00:12Z</time></trkpt><trkpt lat="43.22738937025829" lon="18.933336982537263"><ele>1440.4</ele><time>2026-05-03T13:00:13Z</time></trkpt><trkpt lat="43.22749160142299" lon="18.933369559196613"><ele>1442.8000000000002</ele><time>2026-05-03T13:00:14Z</time></trkpt><trkpt lat="43.22758421851439" lon="18.93339907228634"><ele>1445.2</ele><time>2026-05-03T13:00:15Z</time></trkpt><trkpt lat="43.22767017525216" lon="18.933426462685198"><ele>1447.6</ele><time>2026-05-03T13:00:16Z</time></trkpt><trkpt lat="43.22775565274919" lon="18.93342286554947"><ele>1450.0</ele><time>2026-05-03T13:00:17Z</time></trkpt><trkpt lat="43.2278287448881" lon="18.933376372796193"><ele>1450.0</ele><time>2026-05-03T13:00:18Z</time></trkpt><trkpt lat="43.227874930170664" lon="18.933266502260693"><ele>1450.0</ele><time>2026-05-03T13:00:19Z</time></trkpt><trkpt lat="43.22793646998333" lon="18.933191030988407"><ele>1450.0</ele><time>2026-05-03T13:00:20Z</time></trkpt><trkpt lat="43.228029102604346" lon="18.933221684358223"><ele>1450.0</ele><time>2026-05-03T13:00:21Z</time></trkpt><trkpt lat="43.22811099179773" lon="18.933242749398516"><ele>1450.0</ele><time>2026-05-03T13:00:22Z</time></trkpt><trkpt lat="43.228200488720795" lon="18.933265429569985"><ele>1450.0</ele><time>2026-05-03T13:00:23Z</time></trkpt><trkpt lat="43.22829201956119" lon="18.933288208774403"><ele>1450.0</ele><time>2026-05-03T13:00:24Z</time></trkpt><trkpt lat="43.22838364894744" lon="18.933301230423687"><ele>1450.0</ele><time>2026-05-03T13:00:25Z</time></trkpt><trkpt lat="43.2284719386514" lon="18.93328944172175"><ele>1450.0</ele><time>2026-05-03T13:00:26Z</time></trkpt><trkpt lat="43.228561475256775" lon="18.933232093857313"><ele>1450.0</ele><time>2026-05-03T13:00:27Z</time></trkpt><trkpt lat="43.228629363214615" lon="18.93312778360345"><ele>1450.0</ele><time>2026-05-03T13:00:28Z</time></trkpt><trkpt lat="43.22869887374494" lon="18.933055456527264"><ele>1450.0</ele><time>2026-05-03T13:00:29Z</time></trkpt><trkpt lat="43.22878782196435" lon="18.93296281350212"><ele>1450.0</ele><time>2026-05-03T13:00:30Z</time></trkpt><trkpt lat="43.228882311360024" lon="18.932874583460897"><ele>1450.0</ele><time>2026-05-03T13:00:31Z</time></trkpt><trkpt lat="43.229011892016025" lon="18.93279562428603"><ele>1450.0</ele><time>2026-05-03T13:00:32Z</time></trkpt><trkpt lat="43.229149335254675" lon="18.932725828789362"><ele>1448.0</ele><time>2026-05-03T13:00:33Z</time></trkpt><trkpt lat="43.22927863431594" lon="18.932671346965993"><ele>1446.0</ele><time>2026-05-03T13:00:34Z</time></trkpt><trkpt lat="43.22938517244836" lon="18.932633141331962"><ele>1444.0</ele><time>2026-05-03T13:00:35Z</time></trkpt><trkpt lat="43.22945004693516" lon="18.9326091325112"><ele>1442.0</ele><time>2026-05-03T13:00:36Z</time></trkpt><trkpt lat="43.22956060356049" lon="18.932689512516212"><ele>1440.0</ele><time>2026-05-03T13:00:38Z</time></trkpt><trkpt lat="43.229589417383096" lon="18.93281747895099"><ele>1440.0</ele><time>2026-05-03T13:00:39Z</time></trkpt><trkpt lat="43.229650672464885" lon="18.932899356259785"><ele>1440.0</ele><time>2026-05-03T13:00:40Z</time></trkpt><trkpt lat="43.229751154000944" lon="18.932941353213884"><ele>1440.0</ele><time>2026-05-03T13:00:41Z</time></trkpt><trkpt lat="43.22985150125038" lon="18.93298352427878"><ele>1440.0</ele><time>2026-05-03T13:00:42Z</time></trkpt><trkpt lat="43.22995857177779" lon="18.932977049547404"><ele>1440.0</ele><time>2026-05-03T13:00:43Z</time></trkpt><trkpt lat="43.23005611939525" lon="18.93299293105914"><ele>1440.6666666666667</ele><time>2026-05-03T13:00:44Z</time></trkpt><trkpt lat="43.23014564082723" lon="18.933024409641867"><ele>1441.3333333333333</ele><time>2026-05-03T13:00:45Z</time></trkpt><trkpt lat="43.230196508942356" lon="18.933142592288764"><ele>1442.0</ele><time>2026-05-03T13:00:46Z</time></trkpt><trkpt lat="43.23027376216205" lon="18.933206668253092"><ele>1442.6666666666665</ele><time>2026-05-03T13:00:47Z</time></trkpt><trkpt lat="43.23033803492198" lon="18.933259977882464"><ele>1443.3333333333333</ele><time>2026-05-03T13:00:48Z</time></trkpt><trkpt lat="43.23042083682915" lon="18.933238292500103"><ele>1444.0</ele><time>2026-05-03T13:00:49Z</time></trkpt><trkpt lat="43.230484166215085" lon="18.933137196948365"><ele>1444.0</ele><time>2026-05-03T13:00:50Z</time></trkpt><trkpt lat="43.230549063060614" lon="18.933120324449632"><ele>1444.0</ele><time>2026-05-03T13:00:51Z</time></trkpt><trkpt lat="43.2306289654738" lon="18.9331125117759"><ele>1444.0</ele><time>2026-05-03T13:00:52Z</time></trkpt><trkpt lat="43.23070254227809" lon="18.93314641565021"><ele>1444.0</ele><time>2026-05-03T13:00:53Z</time></trkpt><trkpt lat="43.23071348123911" lon="18.933290980302363"><ele>1444.0</ele><time>2026-05-03T13:00:54Z</time></trkpt><trkpt lat="43.230726815652176" lon="18.933407975360485"><ele>1444.0</ele><time>2026-05-03T13:00:55Z</time></trkpt><trkpt lat="43.23077938206598" lon="18.933532728173518"><ele>1442.0</ele><time>2026-05-03T13:00:56Z</time></trkpt><trkpt lat="43.23081343070954" lon="18.933676999971592"><ele>1440.0</ele><time>2026-05-03T13:00:57Z</time></trkpt><trkpt lat="43.23086536556049" lon="18.93383337761492"><ele>1438.0</ele><time>2026-05-03T13:00:58Z</time></trkpt><trkpt lat="43.230931190506354" lon="18.933976457515712"><ele>1436.0</ele><time>2026-05-03T13:00:59Z</time></trkpt><trkpt lat="43.23101065049767" lon="18.934100556850968"><ele>1436.0</ele><time>2026-05-03T13:01:00Z</time></trkpt><trkpt lat="43.23107906057113" lon="18.93421661779039"><ele>1436.0</ele><time>2026-05-03T13:01:01Z</time></trkpt><trkpt lat="43.23115765572284" lon="18.934280358115533"><ele>1436.0</ele><time>2026-05-03T13:01:02Z</time></trkpt><trkpt lat="43.23124665969967" lon="18.93429681878237"><ele>1436.0</ele><time>2026-05-03T13:01:03Z</time></trkpt><trkpt lat="43.2313354244287" lon="18.93427651087741"><ele>1436.0</ele><time>2026-05-03T13:01:04Z</time></trkpt><trkpt lat="43.231436041310694" lon="18.934294667373777"><ele>1433.0</ele><time>2026-05-03T13:01:05Z</time></trkpt><trkpt lat="43.23155518959371" lon="18.934293319062558"><ele>1430.0</ele><time>2026-05-03T13:01:06Z</time></trkpt><trkpt lat="43.23168659656096" lon="18.93429713848648"><ele>1427.0</ele><time>2026-05-03T13:01:07Z</time></trkpt><trkpt lat="43.23179735875156" lon="18.9343218974038"><ele>1424.0</ele><time>2026-05-03T13:01:08Z</time></trkpt><trkpt lat="43.231884783343716" lon="18.934341802961647"><ele>1424.0</ele><time>2026-05-03T13:01:09Z</time></trkpt><trkpt lat="43.23197342206873" lon="18.93436211953124"><ele>1424.0</ele><time>2026-05-03T13:01:10Z</time></trkpt><trkpt lat="43.23206460104913" lon="18.93434402496809"><ele>1424.0</ele><time>2026-05-03T13:01:11Z</time></trkpt><trkpt lat="43.23213736170153" lon="18.934244724201466"><ele>1424.0</ele><time>2026-05-03T13:01:12Z</time></trkpt><trkpt lat="43.23221302717999" lon="18.934242997216582"><ele>1424.0</ele><time>2026-05-03T13:01:13Z</time></trkpt><trkpt lat="43.23228304210846" lon="18.934230365237337"><ele>1424.0</ele><time>2026-05-03T13:01:14Z</time></trkpt><trkpt lat="43.23233351308896" lon="18.93434974073248"><ele>1427.25</ele><time>2026-05-03T13:01:15Z</time></trkpt><trkpt lat="43.232373164929584" lon="18.934480410875093"><ele>1430.5</ele><time>2026-05-03T13:01:16Z</time></trkpt><trkpt lat="43.23242713615622" lon="18.934629445047808"><ele>1433.75</ele><time>2026-05-03T13:01:17Z</time></trkpt><trkpt lat="43.23252187779126" lon="18.934770592385593"><ele>1437.0</ele><time>2026-05-03T13:01:18Z</time></trkpt><trkpt lat="43.23261795208324" lon="18.934900740643055"><ele>1437.0</ele><time>2026-05-03T13:01:19Z</time></trkpt><trkpt lat="43.23270394324724" lon="18.935004994192337"><ele>1437.0</ele><time>2026-05-03T13:01:20Z</time></trkpt><trkpt lat="43.232781005054754" lon="18.935072697934537"><ele>1437.0</ele><time>2026-05-03T13:01:21Z</time></trkpt><trkpt lat="43.23286843384181" lon="18.93511238086906"><ele>1437.0</ele><time>2026-05-03T13:01:22Z</time></trkpt><trkpt lat="43.232959051577744" lon="18.935173735619127"><ele>1437.0</ele><time>2026-05-03T13:01:23Z</time></trkpt><trkpt lat="43.23307942195161" lon="18.935146547885847"><ele>1435.6</ele><time>2026-05-03T13:01:24Z</time></trkpt><trkpt lat="43.23319604445097" lon="18.935150684808733"><ele>1434.1999999999998</ele><time>2026-05-03T13:01:25Z</time></trkpt><trkpt lat="43.23330623074869" lon="18.935175612733413"><ele>1432.8</ele><time>2026-05-03T13:01:26Z</time></trkpt><trkpt lat="43.233413011065686" lon="18.93514276657716"><ele>1431.4</ele><time>2026-05-03T13:01:27Z</time></trkpt><trkpt lat="43.23350435190869" lon="18.93508508246933"><ele>1430.0</ele><time>2026-05-03T13:01:28Z</time></trkpt><trkpt lat="43.23358831662189" lon="18.934981496579425"><ele>1433.4</ele><time>2026-05-03T13:01:29Z</time></trkpt><trkpt lat="43.233675616030716" lon="18.934881344633038"><ele>1436.8</ele><time>2026-05-03T13:01:30Z</time></trkpt><trkpt lat="43.23378097440202" lon="18.934848196659118"><ele>1440.1999999999998</ele><time>2026-05-03T13:01:31Z</time></trkpt><trkpt lat="43.23387023293579" lon="18.934853079838767"><ele>1443.6</ele><time>2026-05-03T13:01:32Z</time></trkpt><trkpt lat="43.23397285455779" lon="18.934845806507152"><ele>1447.0</ele><time>2026-05-03T13:01:33Z</time></trkpt><trkpt lat="43.23405649332176" lon="18.934944777791742"><ele>1445.3333333333333</ele><time>2026-05-03T13:01:34Z</time></trkpt><trkpt lat="43.23409900020284" lon="18.93506670457501"><ele>1443.6666666666665</ele><time>2026-05-03T13:01:35Z</time></trkpt><trkpt lat="43.23406062138796" lon="18.935183274686512"><ele>1442.0</ele><time>2026-05-03T13:01:36Z</time></trkpt><trkpt lat="43.23403988672324" lon="18.935276588770133"><ele>1440.3333333333333</ele><time>2026-05-03T13:01:37Z</time></trkpt><trkpt lat="43.234015358704234" lon="18.9353996470072"><ele>1438.6666666666667</ele><time>2026-05-03T13:01:38Z</time></trkpt><trkpt lat="43.23398028669" lon="18.935501291734024"><ele>1437.0</ele><time>2026-05-03T13:01:39Z</time></trkpt><trkpt lat="43.23397568311542" lon="18.935603077318508"><ele>1437.0</ele><time>2026-05-03T13:01:40Z</time></trkpt><trkpt lat="43.23399093707052" lon="18.93569424085512"><ele>1437.0</ele><time>2026-05-03T13:01:41Z</time></trkpt><trkpt lat="43.234133848483765" lon="18.935762554351804"><ele>1437.0</ele><time>2026-05-03T13:01:43Z</time></trkpt><trkpt lat="43.23420753328415" lon="18.935752082299068"><ele>1437.0</ele><time>2026-05-03T13:01:44Z</time></trkpt><trkpt lat="43.234271735538144" lon="18.935654748657967"><ele>1437.0</ele><time>2026-05-03T13:01:45Z</time></trkpt><trkpt lat="43.23433405939517" lon="18.935564736851532"><ele>1437.0</ele><time>2026-05-03T13:01:46Z</time></trkpt><trkpt lat="43.234400937316934" lon="18.935467535218294"><ele>1437.0</ele><time>2026-05-03T13:01:47Z</time></trkpt><trkpt lat="43.2344722285069" lon="18.93536371073405"><ele>1437.0</ele><time>2026-05-03T13:01:48Z</time></trkpt><trkpt lat="43.234538346238196" lon="18.93526835032457"><ele>1437.0</ele><time>2026-05-03T13:01:49Z</time></trkpt><trkpt lat="43.23460873564433" lon="18.935171046671513"><ele>1437.0</ele><time>2026-05-03T13:01:50Z</time></trkpt><trkpt lat="43.2346875454712" lon="18.935073460003498"><ele>1437.0</ele><time>2026-05-03T13:01:51Z</time></trkpt><trkpt lat="43.23479029087414" lon="18.935076529242394"><ele>1437.0</ele><time>2026-05-03T13:01:52Z</time></trkpt><trkpt lat="43.234905096364905" lon="18.935062586519315"><ele>1437.0</ele><time>2026-05-03T13:01:53Z</time></trkpt><trkpt lat="43.23501725661611" lon="18.935073056191747"><ele>1437.0</ele><time>2026-05-03T13:01:54Z</time></trkpt><trkpt lat="43.23513521398043" lon="18.935089642459182"><ele>1437.0</ele><time>2026-05-03T13:01:55Z</time></trkpt><trkpt lat="43.23525391802629" lon="18.935106623170267"><ele>1436.1999999999998</ele><time>2026-05-03T13:01:56Z</time></trkpt><trkpt lat="43.23536967239847" lon="18.935125551174785"><ele>1435.4</ele><time>2026-05-03T13:01:57Z</time></trkpt><trkpt lat="43.235479359017425" lon="18.935144532958134"><ele>1434.6</ele><time>2026-05-03T13:01:58Z</time></trkpt><trkpt lat="43.23555005446541" lon="18.935195700138614"><ele>1433.8000000000002</ele><time>2026-05-03T13:01:59Z</time></trkpt><trkpt lat="43.23563546774152" lon="18.935246116927924"><ele>1433.0</ele><time>2026-05-03T13:02:00Z</time></trkpt><trkpt lat="43.235659191191615" lon="18.93539476393605"><ele>1435.0</ele><time>2026-05-03T13:02:01Z</time></trkpt><trkpt lat="43.23571663782318" lon="18.935520650198566"><ele>1437.0</ele><time>2026-05-03T13:02:02Z</time></trkpt><trkpt lat="43.235793342521575" lon="18.935648159089514"><ele>1439.0</ele><time>2026-05-03T13:02:03Z</time></trkpt><trkpt lat="43.23590710592451" lon="18.935749481503585"><ele>1441.0</ele><time>2026-05-03T13:02:04Z</time></trkpt><trkpt lat="43.23601121738167" lon="18.935886644715033"><ele>1438.0</ele><time>2026-05-03T13:02:05Z</time></trkpt><trkpt lat="43.23612385828306" lon="18.936004491427774"><ele>1435.0</ele><time>2026-05-03T13:02:06Z</time></trkpt><trkpt lat="43.23623857673331" lon="18.936125972753377"><ele>1432.0</ele><time>2026-05-03T13:02:07Z</time></trkpt><trkpt lat="43.2363589453527" lon="18.936252628533897"><ele>1429.0</ele><time>2026-05-03T13:02:08Z</time></trkpt><trkpt lat="43.23646398068661" lon="18.936406832594237"><ele>1431.3333333333333</ele><time>2026-05-03T13:02:09Z</time></trkpt><trkpt lat="43.23656361278604" lon="18.93659083027819"><ele>1433.6666666666667</ele><time>2026-05-03T13:02:10Z</time></trkpt><trkpt lat="43.23665312957869" lon="18.936755218579147"><ele>1436.0</ele><time>2026-05-03T13:02:11Z</time></trkpt><trkpt lat="43.236767170895014" lon="18.936883608809325"><ele>1436.0</ele><time>2026-05-03T13:02:12Z</time></trkpt><trkpt lat="43.2368650704892" lon="18.936998531788728"><ele>1436.0</ele><time>2026-05-03T13:02:13Z</time></trkpt><trkpt lat="43.23695585797413" lon="18.93710917180489"><ele>1436.0</ele><time>2026-05-03T13:02:14Z</time></trkpt><trkpt lat="43.23700339538568" lon="18.937254585323313"><ele>1436.0</ele><time>2026-05-03T13:02:15Z</time></trkpt><trkpt lat="43.237064239793675" lon="18.937418244301586"><ele>1437.0</ele><time>2026-05-03T13:02:16Z</time></trkpt><trkpt lat="43.237121639049995" lon="18.9375745829671"><ele>1438.0</ele><time>2026-05-03T13:02:17Z</time></trkpt><trkpt lat="43.23717581695739" lon="18.937722712932743"><ele>1439.0</ele><time>2026-05-03T13:02:18Z</time></trkpt><trkpt lat="43.237222639419144" lon="18.93785136546512"><ele>1440.0</ele><time>2026-05-03T13:02:19Z</time></trkpt><trkpt lat="43.23730828472221" lon="18.937949266248193"><ele>1440.0</ele><time>2026-05-03T13:02:20Z</time></trkpt><trkpt lat="43.23739219669662" lon="18.938012980996632"><ele>1440.0</ele><time>2026-05-03T13:02:21Z</time></trkpt><trkpt lat="43.23750796890709" lon="18.93804569896364"><ele>1440.0</ele><time>2026-05-03T13:02:22Z</time></trkpt><trkpt lat="43.23761639624844" lon="18.93808321579545"><ele>1440.0</ele><time>2026-05-03T13:02:23Z</time></trkpt><trkpt lat="43.237727164186175" lon="18.9381191344318"><ele>1440.0</ele><time>2026-05-03T13:02:24Z</time></trkpt><trkpt lat="43.237831576630036" lon="18.938151941211775"><ele>1440.0</ele><time>2026-05-03T13:02:25Z</time></trkpt><trkpt lat="43.23792632741473" lon="18.938169580480743"><ele>1440.0</ele><time>2026-05-03T13:02:26Z</time></trkpt><trkpt lat="43.237995380306124" lon="18.938176344436645"><ele>1440.0</ele><time>2026-05-03T13:02:27Z</time></trkpt><trkpt lat="43.23806151734526" lon="18.93811954900251"><ele>1440.0</ele><time>2026-05-03T13:02:28Z</time></trkpt><trkpt lat="43.238114467723236" lon="18.938045562612366"><ele>1440.0</ele><time>2026-05-03T13:02:29Z</time></trkpt><trkpt lat="43.23817763117227" lon="18.937995913328553"><ele>1440.0</ele><time>2026-05-03T13:02:30Z</time></trkpt><trkpt lat="43.238249970599654" lon="18.937945311177945"><ele>1440.6666666666667</ele><time>2026-05-03T13:02:31Z</time></trkpt><trkpt lat="43.23832753900722" lon="18.937890980241608"><ele>1441.3333333333333</ele><time>2026-05-03T13:02:32Z</time></trkpt><trkpt lat="43.23841465667054" lon="18.937859266748156"><ele>1442.0</ele><time>2026-05-03T13:02:33Z</time></trkpt><trkpt lat="43.23850727628585" lon="18.93786852624503"><ele>1442.6666666666665</ele><time>2026-05-03T13:02:34Z</time></trkpt><trkpt lat="43.238583048891726" lon="18.93791794491965"><ele>1443.3333333333333</ele><time>2026-05-03T13:02:35Z</time></trkpt><trkpt lat="43.238667022201504" lon="18.937953860382123"><ele>1444.0</ele><time>2026-05-03T13:02:36Z</time></trkpt><trkpt lat="43.23874424662209" lon="18.93798687433082"><ele>1444.0</ele><time>2026-05-03T13:02:37Z</time></trkpt><trkpt lat="43.23883867706403" lon="18.937978482217595"><ele>1444.0</ele><time>2026-05-03T13:02:38Z</time></trkpt><trkpt lat="43.23891609829178" lon="18.937973617138304"><ele>1444.0</ele><time>2026-05-03T13:02:39Z</time></trkpt><trkpt lat="43.23900271669603" lon="18.937887299921556"><ele>1444.0</ele><time>2026-05-03T13:02:40Z</time></trkpt><trkpt lat="43.239049179594716" lon="18.937785095801186"><ele>1444.0</ele><time>2026-05-03T13:02:41Z</time></trkpt><trkpt lat="43.23904985419535" lon="18.93767593429335"><ele>1444.0</ele><time>2026-05-03T13:02:42Z</time></trkpt><trkpt lat="43.23909538332238" lon="18.93760134485056"><ele>1444.8333333333333</ele><time>2026-05-03T13:02:43Z</time></trkpt><trkpt lat="43.23913340664523" lon="18.937507372496718"><ele>1445.6666666666665</ele><time>2026-05-03T13:02:44Z</time></trkpt><trkpt lat="43.23917370092204" lon="18.937409730104246"><ele>1446.5</ele><time>2026-05-03T13:02:45Z</time></trkpt><trkpt lat="43.23922079860265" lon="18.937313561854054"><ele>1447.3333333333333</ele><time>2026-05-03T13:02:46Z</time></trkpt><trkpt lat="43.23928290003454" lon="18.93726969061764"><ele>1448.1666666666667</ele><time>2026-05-03T13:02:47Z</time></trkpt><trkpt lat="43.23935308250442" lon="18.937261313789328"><ele>1449.0</ele><time>2026-05-03T13:02:48Z</time></trkpt><trkpt lat="43.23943422063149" lon="18.93729382104222"><ele>1449.0</ele><time>2026-05-03T13:02:49Z</time></trkpt><trkpt lat="43.23953795743326" lon="18.93730038510684"><ele>1449.0</ele><time>2026-05-03T13:02:50Z</time></trkpt><trkpt lat="43.23964507549186" lon="18.937321347141772"><ele>1449.0</ele><time>2026-05-03T13:02:51Z</time></trkpt><trkpt lat="43.23976385797108" lon="18.937344522451614"><ele>1449.0</ele><time>2026-05-03T13:02:52Z</time></trkpt><trkpt lat="43.239874393646474" lon="18.93736606008603"><ele>1449.0</ele><time>2026-05-03T13:02:53Z</time></trkpt><trkpt lat="43.239933914907375" lon="18.937424369424384"><ele>1449.5</ele><time>2026-05-03T13:02:54Z</time></trkpt><trkpt lat="43.239977212098324" lon="18.93749191459509"><ele>1450.0</ele><time>2026-05-03T13:02:55Z</time></trkpt><trkpt lat="43.23999897576475" lon="18.937577670217948"><ele>1450.5</ele><time>2026-05-03T13:02:56Z</time></trkpt><trkpt lat="43.23997559170795" lon="18.937690977874134"><ele>1451.0</ele><time>2026-05-03T13:02:57Z</time></trkpt><trkpt lat="43.23997063076533" lon="18.937837258742935"><ele>1451.5</ele><time>2026-05-03T13:02:58Z</time></trkpt><trkpt lat="43.2399555442398" lon="18.937990131724437"><ele>1452.0</ele><time>2026-05-03T13:02:59Z</time></trkpt><trkpt lat="43.239964592455394" lon="18.9381366672127"><ele>1450.6</ele><time>2026-05-03T13:03:00Z</time></trkpt><trkpt lat="43.23996076969259" lon="18.938280721327576"><ele>1449.1999999999998</ele><time>2026-05-03T13:03:01Z</time></trkpt><trkpt lat="43.23997999146223" lon="18.93841576496313"><ele>1447.8</ele><time>2026-05-03T13:03:02Z</time></trkpt><trkpt lat="43.23999719557967" lon="18.938535541843997"><ele>1446.4</ele><time>2026-05-03T13:03:03Z</time></trkpt><trkpt lat="43.24003985776768" lon="18.938644305050257"><ele>1445.0</ele><time>2026-05-03T13:03:04Z</time></trkpt><trkpt lat="43.24008855099509" lon="18.938741841913306"><ele>1442.6</ele><time>2026-05-03T13:03:05Z</time></trkpt><trkpt lat="43.24015769734549" lon="18.938822898080172"><ele>1440.2</ele><time>2026-05-03T13:03:06Z</time></trkpt><trkpt lat="43.24025304825864" lon="18.938875843774117"><ele>1437.8000000000002</ele><time>2026-05-03T13:03:07Z</time></trkpt><trkpt lat="43.24035456911011" lon="18.938946181766696"><ele>1435.4</ele><time>2026-05-03T13:03:08Z</time></trkpt><trkpt lat="43.24046387355451" lon="18.939026915327418"><ele>1433.0</ele><time>2026-05-03T13:03:09Z</time></trkpt><trkpt lat="43.24055732759236" lon="18.93913590671256"><ele>1431.75</ele><time>2026-05-03T13:03:10Z</time></trkpt><trkpt lat="43.240650506511045" lon="18.939251826561947"><ele>1430.5</ele><time>2026-05-03T13:03:11Z</time></trkpt><trkpt lat="43.240747873705764" lon="18.93935540563592"><ele>1429.25</ele><time>2026-05-03T13:03:12Z</time></trkpt><trkpt lat="43.24083418501259" lon="18.9394389214355"><ele>1428.0</ele><time>2026-05-03T13:03:13Z</time></trkpt><trkpt lat="43.240936562938295" lon="18.939469415505307"><ele>1428.0</ele><time>2026-05-03T13:03:14Z</time></trkpt><trkpt lat="43.241030219525356" lon="18.939423618176427"><ele>1428.0</ele><time>2026-05-03T13:03:15Z</time></trkpt><trkpt lat="43.2411115726985" lon="18.939380740971515"><ele>1428.0</ele><time>2026-05-03T13:03:16Z</time></trkpt><trkpt lat="43.241186587906455" lon="18.93929742071"><ele>1428.0</ele><time>2026-05-03T13:03:17Z</time></trkpt><trkpt lat="43.24127006497318" lon="18.939238254749622"><ele>1428.0</ele><time>2026-05-03T13:03:18Z</time></trkpt><trkpt lat="43.24136120921941" lon="18.939180303643763"><ele>1430.0</ele><time>2026-05-03T13:03:19Z</time></trkpt><trkpt lat="43.24145978358454" lon="18.93911506437841"><ele>1432.0</ele><time>2026-05-03T13:03:20Z</time></trkpt><trkpt lat="43.24156063161047" lon="18.93910362950069"><ele>1434.0</ele><time>2026-05-03T13:03:21Z</time></trkpt><trkpt lat="43.24167055860773" lon="18.939082205507617"><ele>1436.0</ele><time>2026-05-03T13:03:22Z</time></trkpt><trkpt lat="43.24174772472414" lon="18.939143382696873"><ele>1438.0</ele><time>2026-05-03T13:03:23Z</time></trkpt><trkpt lat="43.24178327174217" lon="18.939225491323015"><ele>1438.0</ele><time>2026-05-03T13:03:24Z</time></trkpt><trkpt lat="43.241829350639364" lon="18.9393024513923"><ele>1438.0</ele><time>2026-05-03T13:03:25Z</time></trkpt><trkpt lat="43.24187196517834" lon="18.939369507960315"><ele>1438.0</ele><time>2026-05-03T13:03:26Z</time></trkpt><trkpt lat="43.24191639756087" lon="18.93944013676463"><ele>1438.0</ele><time>2026-05-03T13:03:27Z</time></trkpt><trkpt lat="43.24196924115181" lon="18.93952179588777"><ele>1438.0</ele><time>2026-05-03T13:03:28Z</time></trkpt><trkpt lat="43.24202415561699" lon="18.93960541456204"><ele>1438.0</ele><time>2026-05-03T13:03:29Z</time></trkpt><trkpt lat="43.242078526605106" lon="18.939704820036198"><ele>1438.0</ele><time>2026-05-03T13:03:30Z</time></trkpt><trkpt lat="43.2421391410855" lon="18.939792835076133"><ele>1438.0</ele><time>2026-05-03T13:03:31Z</time></trkpt><trkpt lat="43.24216058393271" lon="18.939923245913395"><ele>1438.0</ele><time>2026-05-03T13:03:32Z</time></trkpt><trkpt lat="43.24219524094895" lon="18.940017742374234"><ele>1438.0</ele><time>2026-05-03T13:03:33Z</time></trkpt><trkpt lat="43.242227733259476" lon="18.940106060256046"><ele>1438.0</ele><time>2026-05-03T13:03:34Z</time></trkpt><trkpt lat="43.24226540471627" lon="18.94019546707038"><ele>1438.0</ele><time>2026-05-03T13:03:35Z</time></trkpt><trkpt lat="43.24231024196005" lon="18.94028044906114"><ele>1439.0</ele><time>2026-05-03T13:03:36Z</time></trkpt><trkpt lat="43.24239294940603" lon="18.940337561525972"><ele>1440.0</ele><time>2026-05-03T13:03:37Z</time></trkpt><trkpt lat="43.242475443070774" lon="18.940400602606285"><ele>1441.0</ele><time>2026-05-03T13:03:38Z</time></trkpt><trkpt lat="43.24256099392252" lon="18.940470401313764"><ele>1442.0</ele><time>2026-05-03T13:03:39Z</time></trkpt><trkpt lat="43.24265720074383" lon="18.94054709986497"><ele>1443.0</ele><time>2026-05-03T13:03:40Z</time></trkpt><trkpt lat="43.24277259707114" lon="18.940627425631515"><ele>1443.0</ele><time>2026-05-03T13:03:41Z</time></trkpt><trkpt lat="43.24290708429396" lon="18.940684958891048"><ele>1443.0</ele><time>2026-05-03T13:03:42Z</time></trkpt><trkpt lat="43.24305827724313" lon="18.940718159785366"><ele>1443.0</ele><time>2026-05-03T13:03:43Z</time></trkpt><trkpt lat="43.24321750599072" lon="18.94076190014635"><ele>1441.0</ele><time>2026-05-03T13:03:44Z</time></trkpt><trkpt lat="43.24337098327912" lon="18.94080425288003"><ele>1439.0</ele><time>2026-05-03T13:03:45Z</time></trkpt><trkpt lat="43.243518333744476" lon="18.94084568622129"><ele>1437.0</ele><time>2026-05-03T13:03:46Z</time></trkpt><trkpt lat="43.24367600433436" lon="18.94087791750244"><ele>1437.0</ele><time>2026-05-03T13:03:47Z</time></trkpt><trkpt lat="43.24384971090932" lon="18.940840513962662"><ele>1437.0</ele><time>2026-05-03T13:03:48Z</time></trkpt><trkpt lat="43.244029374322075" lon="18.940765604953576"><ele>1437.0</ele><time>2026-05-03T13:03:49Z</time></trkpt><trkpt lat="43.24418941707297" lon="18.940674806393513"><ele>1435.75</ele><time>2026-05-03T13:03:50Z</time></trkpt><trkpt lat="43.244324778788105" lon="18.940599705610417"><ele>1434.5</ele><time>2026-05-03T13:03:51Z</time></trkpt><trkpt lat="43.244451192093706" lon="18.940529385263773"><ele>1433.25</ele><time>2026-05-03T13:03:52Z</time></trkpt><trkpt lat="43.24457323642839" lon="18.94046149524805"><ele>1432.0</ele><time>2026-05-03T13:03:53Z</time></trkpt><trkpt lat="43.24468876683592" lon="18.940397383779683"><ele>1431.5</ele><time>2026-05-03T13:03:54Z</time></trkpt><trkpt lat="43.244803621386524" lon="18.940354237320637"><ele>1431.0</ele><time>2026-05-03T13:03:55Z</time></trkpt><trkpt lat="43.244920270918755" lon="18.94031781889026"><ele>1430.5</ele><time>2026-05-03T13:03:56Z</time></trkpt><trkpt lat="43.245027623427305" lon="18.94029474033139"><ele>1430.0</ele><time>2026-05-03T13:03:57Z</time></trkpt><trkpt lat="43.245130131877644" lon="18.940275142127692"><ele>1430.0</ele><time>2026-05-03T13:03:58Z</time></trkpt><trkpt lat="43.24520533642138" lon="18.94029859146236"><ele>1430.0</ele><time>2026-05-03T13:03:59Z</time></trkpt><trkpt lat="43.245273891815415" lon="18.940332640107236"><ele>1430.0</ele><time>2026-05-03T13:04:00Z</time></trkpt><trkpt lat="43.245374831598255" lon="18.94047261642685"><ele>1430.0</ele><time>2026-05-03T13:04:02Z</time></trkpt><trkpt lat="43.2454082280711" lon="18.940589469715775"><ele>1430.0</ele><time>2026-05-03T13:04:03Z</time></trkpt><trkpt lat="43.24543626772646" lon="18.940712086458635"><ele>1430.0</ele><time>2026-05-03T13:04:04Z</time></trkpt><trkpt lat="43.24546673662227" lon="18.940847977856084"><ele>1430.0</ele><time>2026-05-03T13:04:05Z</time></trkpt><trkpt lat="43.24549867959265" lon="18.940993520441204"><ele>1430.0</ele><time>2026-05-03T13:04:06Z</time></trkpt><trkpt lat="43.24553616589522" lon="18.94112942409973"><ele>1430.0</ele><time>2026-05-03T13:04:07Z</time></trkpt><trkpt lat="43.24557250315922" lon="18.941255821071284"><ele>1430.0</ele><time>2026-05-03T13:04:08Z</time></trkpt><trkpt lat="43.24561829959059" lon="18.9413799613872"><ele>1428.25</ele><time>2026-05-03T13:04:09Z</time></trkpt><trkpt lat="43.24568791014588" lon="18.941474425531215"><ele>1426.5</ele><time>2026-05-03T13:04:10Z</time></trkpt><trkpt lat="43.24578037285301" lon="18.941537287224456"><ele>1424.75</ele><time>2026-05-03T13:04:11Z</time></trkpt><trkpt lat="43.24589017102819" lon="18.941601240060233"><ele>1423.0</ele><time>2026-05-03T13:04:12Z</time></trkpt><trkpt lat="43.24601469260539" lon="18.941657932556858"><ele>1423.0</ele><time>2026-05-03T13:04:13Z</time></trkpt><trkpt lat="43.246146926511734" lon="18.94170481447138"><ele>1423.0</ele><time>2026-05-03T13:04:14Z</time></trkpt><trkpt lat="43.24627618190452" lon="18.941753043540448"><ele>1423.0</ele><time>2026-05-03T13:04:15Z</time></trkpt><trkpt lat="43.2463865792985" lon="18.941801170796403"><ele>1423.0</ele><time>2026-05-03T13:04:16Z</time></trkpt><trkpt lat="43.24646232681119" lon="18.941878290087697"><ele>1422.0</ele><time>2026-05-03T13:04:17Z</time></trkpt><trkpt lat="43.246529618755446" lon="18.94196750823547"><ele>1421.0</ele><time>2026-05-03T13:04:18Z</time></trkpt><trkpt lat="43.24658293187995" lon="18.942070868581943"><ele>1420.0</ele><time>2026-05-03T13:04:19Z</time></trkpt><trkpt lat="43.24661968182524" lon="18.94220236793253"><ele>1419.0</ele><time>2026-05-03T13:04:20Z</time></trkpt><trkpt lat="43.24664475125399" lon="18.942337361557296"><ele>1418.0</ele><time>2026-05-03T13:04:21Z</time></trkpt><trkpt lat="43.246671227080526" lon="18.94247480686884"><ele>1417.25</ele><time>2026-05-03T13:04:22Z</time></trkpt><trkpt lat="43.24671009657786" lon="18.94261605291393"><ele>1416.5</ele><time>2026-05-03T13:04:23Z</time></trkpt><trkpt lat="43.24674222977055" lon="18.942756676981205"><ele>1415.75</ele><time>2026-05-03T13:04:24Z</time></trkpt><trkpt lat="43.246776805611255" lon="18.94291216179973"><ele>1415.0</ele><time>2026-05-03T13:04:25Z</time></trkpt><trkpt lat="43.246809960869285" lon="18.94307923700149"><ele>1415.0</ele><time>2026-05-03T13:04:26Z</time></trkpt><trkpt lat="43.24684684367483" lon="18.94324814484635"><ele>1415.0</ele><time>2026-05-03T13:04:27Z</time></trkpt><trkpt lat="43.24688281632367" lon="18.94342426887621"><ele>1415.0</ele><time>2026-05-03T13:04:28Z</time></trkpt><trkpt lat="43.246906036790016" lon="18.943606107344124"><ele>1415.0</ele><time>2026-05-03T13:04:29Z</time></trkpt><trkpt lat="43.24691698394246" lon="18.943768746067693"><ele>1415.2</ele><time>2026-05-03T13:04:30Z</time></trkpt><trkpt lat="43.246909699321165" lon="18.94390275289661"><ele>1415.4</ele><time>2026-05-03T13:04:31Z</time></trkpt><trkpt lat="43.24695097936021" lon="18.944036113698118"><ele>1415.6</ele><time>2026-05-03T13:04:32Z</time></trkpt><trkpt lat="43.24706441927151" lon="18.944098046172225"><ele>1415.8</ele><time>2026-05-03T13:04:33Z</time></trkpt><trkpt lat="43.24714778881584" lon="18.944151317289577"><ele>1416.0</ele><time>2026-05-03T13:04:34Z</time></trkpt><trkpt lat="43.24726155186895" lon="18.944099588350916"><ele>1415.6666666666667</ele><time>2026-05-03T13:04:35Z</time></trkpt><trkpt lat="43.24735408061802" lon="18.944026986093736"><ele>1415.3333333333333</ele><time>2026-05-03T13:04:36Z</time></trkpt><trkpt lat="43.24743021724172" lon="18.94398784683978"><ele>1415.0</ele><time>2026-05-03T13:04:37Z</time></trkpt><trkpt lat="43.247538442461625" lon="18.94402862612437"><ele>1414.6666666666665</ele><time>2026-05-03T13:04:39Z</time></trkpt><trkpt lat="43.24759328953776" lon="18.944088381781526"><ele>1414.3333333333333</ele><time>2026-05-03T13:04:40Z</time></trkpt><trkpt lat="43.24762620299498" lon="18.944168124797883"><ele>1414.0</ele><time>2026-05-03T13:04:41Z</time></trkpt><trkpt lat="43.24765131978861" lon="18.944272044940675"><ele>1413.5</ele><time>2026-05-03T13:04:42Z</time></trkpt><trkpt lat="43.24769037278513" lon="18.94435961632783"><ele>1413.0</ele><time>2026-05-03T13:04:43Z</time></trkpt><trkpt lat="43.24778117385828" lon="18.944443659655864"><ele>1412.5</ele><time>2026-05-03T13:04:44Z</time></trkpt><trkpt lat="43.247922592468775" lon="18.94445108551368"><ele>1412.0</ele><time>2026-05-03T13:04:45Z</time></trkpt><trkpt lat="43.24805417051461" lon="18.944464368778995"><ele>1410.0</ele><time>2026-05-03T13:04:46Z</time></trkpt><trkpt lat="43.24818958265798" lon="18.94448275730652"><ele>1408.0</ele><time>2026-05-03T13:04:47Z</time></trkpt><trkpt lat="43.2483247870836" lon="18.94452078699611"><ele>1406.0</ele><time>2026-05-03T13:04:48Z</time></trkpt><trkpt lat="43.2484527102634" lon="18.9445837334616"><ele>1404.0</ele><time>2026-05-03T13:04:49Z</time></trkpt><trkpt lat="43.24858222407353" lon="18.944680973560125"><ele>1404.0</ele><time>2026-05-03T13:04:50Z</time></trkpt><trkpt lat="43.248698180867365" lon="18.94479593085212"><ele>1404.0</ele><time>2026-05-03T13:04:51Z</time></trkpt><trkpt lat="43.24879517321833" lon="18.944920781771284"><ele>1404.0</ele><time>2026-05-03T13:04:52Z</time></trkpt><trkpt lat="43.24886838823618" lon="18.945058272503196"><ele>1404.0</ele><time>2026-05-03T13:04:53Z</time></trkpt><trkpt lat="43.248942621933416" lon="18.945177912358"><ele>1403.6</ele><time>2026-05-03T13:04:54Z</time></trkpt><trkpt lat="43.248940363315384" lon="18.94533661324343"><ele>1403.2</ele><time>2026-05-03T13:04:55Z</time></trkpt><trkpt lat="43.24893127161875" lon="18.945476715431695"><ele>1402.8</ele><time>2026-05-03T13:04:56Z</time></trkpt><trkpt lat="43.24892881919777" lon="18.945625720235892"><ele>1402.3999999999999</ele><time>2026-05-03T13:04:57Z</time></trkpt><trkpt lat="43.24894355326891" lon="18.945773913186652"><ele>1402.0</ele><time>2026-05-03T13:04:58Z</time></trkpt><trkpt lat="43.24894462016299" lon="18.945914677419253"><ele>1402.3999999999999</ele><time>2026-05-03T13:04:59Z</time></trkpt><trkpt lat="43.24898252267389" lon="18.94604011170342"><ele>1402.8</ele><time>2026-05-03T13:05:00Z</time></trkpt><trkpt lat="43.249051662255546" lon="18.946138025260964"><ele>1403.2</ele><time>2026-05-03T13:05:01Z</time></trkpt><trkpt lat="43.24913558125867" lon="18.946217870358925"><ele>1403.6</ele><time>2026-05-03T13:05:02Z</time></trkpt><trkpt lat="43.24922412319795" lon="18.946299374202663"><ele>1404.0</ele><time>2026-05-03T13:05:03Z</time></trkpt><trkpt lat="43.24931332503257" lon="18.946380921559197"><ele>1404.0</ele><time>2026-05-03T13:05:04Z</time></trkpt><trkpt lat="43.24939261149294" lon="18.9464753272118"><ele>1404.0</ele><time>2026-05-03T13:05:05Z</time></trkpt><trkpt lat="43.24945253646963" lon="18.946588131138007"><ele>1404.0</ele><time>2026-05-03T13:05:06Z</time></trkpt><trkpt lat="43.24947847371289" lon="18.946725725011007"><ele>1404.0</ele><time>2026-05-03T13:05:07Z</time></trkpt><trkpt lat="43.249506003292495" lon="18.94684761828927"><ele>1404.0</ele><time>2026-05-03T13:05:08Z</time></trkpt><trkpt lat="43.24953334573322" lon="18.946958027484552"><ele>1402.6</ele><time>2026-05-03T13:05:09Z</time></trkpt><trkpt lat="43.24952290254571" lon="18.947056575570322"><ele>1401.2</ele><time>2026-05-03T13:05:10Z</time></trkpt><trkpt lat="43.24949318162719" lon="18.947136526279994"><ele>1399.8</ele><time>2026-05-03T13:05:11Z</time></trkpt><trkpt lat="43.24942545863513" lon="18.947237496269363"><ele>1398.3999999999999</ele><time>2026-05-03T13:05:12Z</time></trkpt><trkpt lat="43.249393037212236" lon="18.947385780684225"><ele>1397.0</ele><time>2026-05-03T13:05:13Z</time></trkpt><trkpt lat="43.24939977207169" lon="18.947585484576823"><ele>1395.3333333333335</ele><time>2026-05-03T13:05:14Z</time></trkpt><trkpt lat="43.24945165729194" lon="18.947796653173324"><ele>1393.6666666666667</ele><time>2026-05-03T13:05:15Z</time></trkpt><trkpt lat="43.24945348966623" lon="18.94802714076025"><ele>1392.0</ele><time>2026-05-03T13:05:16Z</time></trkpt><trkpt lat="43.24950371971671" lon="18.948257964991754"><ele>1393.3333333333333</ele><time>2026-05-03T13:05:17Z</time></trkpt><trkpt lat="43.249573649354986" lon="18.94847281819945"><ele>1394.6666666666665</ele><time>2026-05-03T13:05:18Z</time></trkpt><trkpt lat="43.24967773252999" lon="18.94866668840448"><ele>1396.0</ele><time>2026-05-03T13:05:19Z</time></trkpt><trkpt lat="43.24976067334475" lon="18.948842334214532"><ele>1396.0</ele><time>2026-05-03T13:05:20Z</time></trkpt><trkpt lat="43.24982743083286" lon="18.94898361520592"><ele>1396.0</ele><time>2026-05-03T13:05:21Z</time></trkpt><trkpt lat="43.24989437972792" lon="18.949130698860053"><ele>1396.0</ele><time>2026-05-03T13:05:22Z</time></trkpt><trkpt lat="43.249952384435254" lon="18.94926157935082"><ele>1396.0</ele><time>2026-05-03T13:05:23Z</time></trkpt><trkpt lat="43.2500041063774" lon="18.949378365938465"><ele>1396.8333333333333</ele><time>2026-05-03T13:05:24Z</time></trkpt><trkpt lat="43.250057900798545" lon="18.949468063826163"><ele>1397.6666666666665</ele><time>2026-05-03T13:05:25Z</time></trkpt><trkpt lat="43.25010675186469" lon="18.949538883582466"><ele>1398.5</ele><time>2026-05-03T13:05:26Z</time></trkpt><trkpt lat="43.25017269487862" lon="18.94959849268234"><ele>1399.3333333333333</ele><time>2026-05-03T13:05:27Z</time></trkpt><trkpt lat="43.25026504127998" lon="18.949636910618295"><ele>1400.1666666666667</ele><time>2026-05-03T13:05:28Z</time></trkpt><trkpt lat="43.25035255382472" lon="18.949675378523086"><ele>1401.0</ele><time>2026-05-03T13:05:29Z</time></trkpt><trkpt lat="43.25047345671876" lon="18.949677374464763"><ele>1401.0</ele><time>2026-05-03T13:05:30Z</time></trkpt><trkpt lat="43.250600215201075" lon="18.94965509709507"><ele>1401.0</ele><time>2026-05-03T13:05:31Z</time></trkpt><trkpt lat="43.25073456157965" lon="18.94960283109471"><ele>1401.0</ele><time>2026-05-03T13:05:32Z</time></trkpt><trkpt lat="43.25087512153243" lon="18.949531576517664"><ele>1401.0</ele><time>2026-05-03T13:05:33Z</time></trkpt><trkpt lat="43.25101617468621" lon="18.94943930232847"><ele>1401.0</ele><time>2026-05-03T13:05:34Z</time></trkpt><trkpt lat="43.25114268355623" lon="18.949326943929037"><ele>1401.0</ele><time>2026-05-03T13:05:35Z</time></trkpt><trkpt lat="43.251240531034455" lon="18.949201168974227"><ele>1401.0</ele><time>2026-05-03T13:05:36Z</time></trkpt><trkpt lat="43.25132778477859" lon="18.94908438577281"><ele>1401.0</ele><time>2026-05-03T13:05:37Z</time></trkpt><trkpt lat="43.251414741502686" lon="18.948965049638772"><ele>1397.5</ele><time>2026-05-03T13:05:38Z</time></trkpt><trkpt lat="43.25149376182497" lon="18.948849002301227"><ele>1394.0</ele><time>2026-05-03T13:05:39Z</time></trkpt><trkpt lat="43.251571297439405" lon="18.94872490552931"><ele>1390.5</ele><time>2026-05-03T13:05:40Z</time></trkpt><trkpt lat="43.25164626276667" lon="18.948604685982705"><ele>1387.0</ele><time>2026-05-03T13:05:41Z</time></trkpt><trkpt lat="43.251733480318165" lon="18.94851239548566"><ele>1387.0</ele><time>2026-05-03T13:05:42Z</time></trkpt><trkpt lat="43.25183713976492" lon="18.948440961607282"><ele>1387.0</ele><time>2026-05-03T13:05:43Z</time></trkpt><trkpt lat="43.25195383705672" lon="18.948359332536153"><ele>1387.0</ele><time>2026-05-03T13:05:44Z</time></trkpt><trkpt lat="43.25207335053204" lon="18.94827220988119"><ele>1387.0</ele><time>2026-05-03T13:05:45Z</time></trkpt><trkpt lat="43.25220063176773" lon="18.948169000711356"><ele>1387.0</ele><time>2026-05-03T13:05:46Z</time></trkpt><trkpt lat="43.25231880868788" lon="18.94805748991662"><ele>1387.0</ele><time>2026-05-03T13:05:47Z</time></trkpt><trkpt lat="43.25240065820298" lon="18.94788735143378"><ele>1387.0</ele><time>2026-05-03T13:05:48Z</time></trkpt><trkpt lat="43.25250621134993" lon="18.947750652338655"><ele>1387.0</ele><time>2026-05-03T13:05:49Z</time></trkpt><trkpt lat="43.25260022967161" lon="18.94760655576085"><ele>1385.75</ele><time>2026-05-03T13:05:50Z</time></trkpt><trkpt lat="43.252697207906714" lon="18.947463646911896"><ele>1384.5</ele><time>2026-05-03T13:05:51Z</time></trkpt><trkpt lat="43.25279658444018" lon="18.94733817750653"><ele>1383.25</ele><time>2026-05-03T13:05:52Z</time></trkpt><trkpt lat="43.25289724435553" lon="18.9472870897924"><ele>1382.0</ele><time>2026-05-03T13:05:53Z</time></trkpt><trkpt lat="43.25297585852827" lon="18.947284501481327"><ele>1382.0</ele><time>2026-05-03T13:05:54Z</time></trkpt><trkpt lat="43.25307233002096" lon="18.947270433622815"><ele>1382.0</ele><time>2026-05-03T13:05:55Z</time></trkpt><trkpt lat="43.25316171857595" lon="18.94725739865932"><ele>1382.0</ele><time>2026-05-03T13:05:56Z</time></trkpt><trkpt lat="43.25324127520009" lon="18.947246680362216"><ele>1382.0</ele><time>2026-05-03T13:05:57Z</time></trkpt><trkpt lat="43.25331605055054" lon="18.947235284476754"><ele>1382.0</ele><time>2026-05-03T13:05:58Z</time></trkpt><trkpt lat="43.25340897616796" lon="18.94722150771304"><ele>1382.0</ele><time>2026-05-03T13:05:59Z</time></trkpt><trkpt lat="43.253512987746475" lon="18.94722720519549"><ele>1383.25</ele><time>2026-05-03T13:06:00Z</time></trkpt><trkpt lat="43.253626550593204" lon="18.9472476307078"><ele>1384.5</ele><time>2026-05-03T13:06:01Z</time></trkpt><trkpt lat="43.253745721957976" lon="18.947284689826134"><ele>1385.75</ele><time>2026-05-03T13:06:02Z</time></trkpt><trkpt lat="43.253841848712966" lon="18.947381003075357"><ele>1387.0</ele><time>2026-05-03T13:06:03Z</time></trkpt><trkpt lat="43.25394954153996" lon="18.947465594129625"><ele>1387.0</ele><time>2026-05-03T13:06:04Z</time></trkpt><trkpt lat="43.254061856971866" lon="18.94750993211302"><ele>1387.0</ele><time>2026-05-03T13:06:05Z</time></trkpt><trkpt lat="43.2541646137928" lon="18.947579139011825"><ele>1387.0</ele><time>2026-05-03T13:06:06Z</time></trkpt><trkpt lat="43.254275250160845" lon="18.947552537568008"><ele>1387.0</ele><time>2026-05-03T13:06:07Z</time></trkpt><trkpt lat="43.25435806706373" lon="18.94753140660931"><ele>1387.0</ele><time>2026-05-03T13:06:08Z</time></trkpt><trkpt lat="43.25444488835935" lon="18.947501695947942"><ele>1387.0</ele><time>2026-05-03T13:06:09Z</time></trkpt><trkpt lat="43.254509042473515" lon="18.947388510601083"><ele>1387.0</ele><time>2026-05-03T13:06:10Z</time></trkpt><trkpt lat="43.25460917872198" lon="18.94735077398285"><ele>1387.0</ele><time>2026-05-03T13:06:11Z</time></trkpt><trkpt lat="43.2547083937634" lon="18.947364180442595"><ele>1387.0</ele><time>2026-05-03T13:06:12Z</time></trkpt><trkpt lat="43.254816472101105" lon="18.947422092344016"><ele>1387.0</ele><time>2026-05-03T13:06:13Z</time></trkpt><trkpt lat="43.25494872464269" lon="18.947433376551142"><ele>1387.6</ele><time>2026-05-03T13:06:14Z</time></trkpt><trkpt lat="43.25507516045425" lon="18.94743427583712"><ele>1388.1999999999998</ele><time>2026-05-03T13:06:15Z</time></trkpt><trkpt lat="43.25518240727004" lon="18.94743486810923"><ele>1388.8</ele><time>2026-05-03T13:06:16Z</time></trkpt><trkpt lat="43.25527938770463" lon="18.94743214983882"><ele>1389.4</ele><time>2026-05-03T13:06:17Z</time></trkpt><trkpt lat="43.25537836788556" lon="18.947427230231014"><ele>1390.0</ele><time>2026-05-03T13:06:18Z</time></trkpt><trkpt lat="43.25547914425806" lon="18.9474505643985"><ele>1390.0</ele><time>2026-05-03T13:06:19Z</time></trkpt><trkpt lat="43.25558864791042" lon="18.947463630713564"><ele>1390.0</ele><time>2026-05-03T13:06:20Z</time></trkpt><trkpt lat="43.25569932016678" lon="18.94749690509133"><ele>1390.0</ele><time>2026-05-03T13:06:21Z</time></trkpt><trkpt lat="43.25579999893976" lon="18.94756562453953"><ele>1390.0</ele><time>2026-05-03T13:06:22Z</time></trkpt><trkpt lat="43.25590479506148" lon="18.947624924649062"><ele>1390.0</ele><time>2026-05-03T13:06:23Z</time></trkpt><trkpt lat="43.256002633673546" lon="18.94767235809442"><ele>1389.2</ele><time>2026-05-03T13:06:24Z</time></trkpt><trkpt lat="43.25610047428819" lon="18.947666074522733"><ele>1388.4</ele><time>2026-05-03T13:06:25Z</time></trkpt><trkpt lat="43.256178258373986" lon="18.947660802808528"><ele>1387.6</ele><time>2026-05-03T13:06:26Z</time></trkpt><trkpt lat="43.2562335156681" lon="18.947476881010317"><ele>1386.8</ele><time>2026-05-03T13:06:27Z</time></trkpt><trkpt lat="43.25629014934051" lon="18.947385329128377"><ele>1386.0</ele><time>2026-05-03T13:06:28Z</time></trkpt><trkpt lat="43.25635910918068" lon="18.947307745130665"><ele>1386.0</ele><time>2026-05-03T13:06:29Z</time></trkpt><trkpt lat="43.256446981121336" lon="18.9472172140756"><ele>1386.0</ele><time>2026-05-03T13:06:30Z</time></trkpt><trkpt lat="43.256546746240716" lon="18.94714662110806"><ele>1386.0</ele><time>2026-05-03T13:06:31Z</time></trkpt><trkpt lat="43.25664683171617" lon="18.94707425216361"><ele>1386.0</ele><time>2026-05-03T13:06:32Z</time></trkpt><trkpt lat="43.25674248907631" lon="18.947036245315054"><ele>1386.0</ele><time>2026-05-03T13:06:33Z</time></trkpt><trkpt lat="43.25683828784208" lon="18.947036436818447"><ele>1384.1999999999998</ele><time>2026-05-03T13:06:34Z</time></trkpt><trkpt lat="43.25691109601548" lon="18.947100745100027"><ele>1382.3999999999999</ele><time>2026-05-03T13:06:35Z</time></trkpt><trkpt lat="43.25697310902904" lon="18.94718648690146"><ele>1380.6</ele><time>2026-05-03T13:06:36Z</time></trkpt><trkpt lat="43.25703468211157" lon="18.94728396729025"><ele>1378.8</ele><time>2026-05-03T13:06:37Z</time></trkpt><trkpt lat="43.2571070243459" lon="18.94739144488422"><ele>1377.0</ele><time>2026-05-03T13:06:38Z</time></trkpt><trkpt lat="43.25717833365847" lon="18.947497481237818"><ele>1375.3999999999999</ele><time>2026-05-03T13:06:39Z</time></trkpt><trkpt lat="43.257249933184696" lon="18.947594020906166"><ele>1373.8</ele><time>2026-05-03T13:06:40Z</time></trkpt><trkpt lat="43.257329706847074" lon="18.947689327538644"><ele>1372.2</ele><time>2026-05-03T13:06:41Z</time></trkpt><trkpt lat="43.25741751904924" lon="18.94776180525053"><ele>1370.6</ele><time>2026-05-03T13:06:42Z</time></trkpt><trkpt lat="43.25751281042059" lon="18.947828275958997"><ele>1369.0</ele><time>2026-05-03T13:06:43Z</time></trkpt><trkpt lat="43.257617619318516" lon="18.947892120538388"><ele>1368.6</ele><time>2026-05-03T13:06:44Z</time></trkpt><trkpt lat="43.2577263584824" lon="18.94795014368423"><ele>1368.2</ele><time>2026-05-03T13:06:45Z</time></trkpt><trkpt lat="43.25784291936598" lon="18.947961878888396"><ele>1367.8</ele><time>2026-05-03T13:06:46Z</time></trkpt><trkpt lat="43.257937373528584" lon="18.947963908274705"><ele>1367.3999999999999</ele><time>2026-05-03T13:06:47Z</time></trkpt><trkpt lat="43.258020553995905" lon="18.947958131795488"><ele>1367.0</ele><time>2026-05-03T13:06:48Z</time></trkpt><trkpt lat="43.25810231372593" lon="18.94800890434793"><ele>1366.8</ele><time>2026-05-03T13:06:49Z</time></trkpt><trkpt lat="43.258183693415845" lon="18.948078600916023"><ele>1366.6</ele><time>2026-05-03T13:06:50Z</time></trkpt><trkpt lat="43.25825089797527" lon="18.94819995722449"><ele>1366.3999999999999</ele><time>2026-05-03T13:06:51Z</time></trkpt><trkpt lat="43.258303981823474" lon="18.948332696717987"><ele>1366.1999999999998</ele><time>2026-05-03T13:06:52Z</time></trkpt><trkpt lat="43.258369314774626" lon="18.948454446240603"><ele>1366.0</ele><time>2026-05-03T13:06:53Z</time></trkpt><trkpt lat="43.25846804679605" lon="18.948540832169854"><ele>1365.5</ele><time>2026-05-03T13:06:54Z</time></trkpt><trkpt lat="43.25855508996049" lon="18.948645846996353"><ele>1365.0</ele><time>2026-05-03T13:06:55Z</time></trkpt><trkpt lat="43.2586916940011" lon="18.948664441240048"><ele>1364.5</ele><time>2026-05-03T13:06:56Z</time></trkpt><trkpt lat="43.258822878381906" lon="18.94872592757844"><ele>1364.0</ele><time>2026-05-03T13:06:57Z</time></trkpt><trkpt lat="43.258961737286974" lon="18.948774657229507"><ele>1366.3333333333335</ele><time>2026-05-03T13:06:58Z</time></trkpt><trkpt lat="43.2591061293983" lon="18.94880270459955"><ele>1368.6666666666667</ele><time>2026-05-03T13:06:59Z</time></trkpt><trkpt lat="43.259255005442945" lon="18.948807178531005"><ele>1371.0</ele><time>2026-05-03T13:07:00Z</time></trkpt><trkpt lat="43.25941711006176" lon="18.948789664487936"><ele>1371.0</ele><time>2026-05-03T13:07:01Z</time></trkpt><trkpt lat="43.25959009163065" lon="18.94876562263133"><ele>1371.0</ele><time>2026-05-03T13:07:02Z</time></trkpt><trkpt lat="43.2597542287618" lon="18.94873292070987"><ele>1371.0</ele><time>2026-05-03T13:07:03Z</time></trkpt><trkpt lat="43.25991118634261" lon="18.9486529249411"><ele>1373.3333333333333</ele><time>2026-05-03T13:07:04Z</time></trkpt><trkpt lat="43.260085659067826" lon="18.94858666471884"><ele>1375.6666666666665</ele><time>2026-05-03T13:07:05Z</time></trkpt><trkpt lat="43.26024466020468" lon="18.948495348914616"><ele>1378.0</ele><time>2026-05-03T13:07:06Z</time></trkpt><trkpt lat="43.26040208399451" lon="18.948402710242732"><ele>1377.3333333333333</ele><time>2026-05-03T13:07:07Z</time></trkpt><trkpt lat="43.260550108307875" lon="18.948315602847128"><ele>1376.6666666666667</ele><time>2026-05-03T13:07:08Z</time></trkpt><trkpt lat="43.26069203796248" lon="18.9482265384156"><ele>1376.0</ele><time>2026-05-03T13:07:09Z</time></trkpt><trkpt lat="43.26082996725728" lon="18.948138790898117"><ele>1378.5</ele><time>2026-05-03T13:07:10Z</time></trkpt><trkpt lat="43.26095989490678" lon="18.948056140604503"><ele>1381.0</ele><time>2026-05-03T13:07:11Z</time></trkpt><trkpt lat="43.26109449282471" lon="18.94796977825104"><ele>1383.5</ele><time>2026-05-03T13:07:12Z</time></trkpt><trkpt lat="43.26122587910361" lon="18.947949118016428"><ele>1386.0</ele><time>2026-05-03T13:07:13Z</time></trkpt><trkpt lat="43.26136586978145" lon="18.947909968088755"><ele>1386.75</ele><time>2026-05-03T13:07:14Z</time></trkpt><trkpt lat="43.26151075139456" lon="18.947880700090725"><ele>1387.5</ele><time>2026-05-03T13:07:15Z</time></trkpt><trkpt lat="43.26164482736559" lon="18.947873917093315"><ele>1388.25</ele><time>2026-05-03T13:07:16Z</time></trkpt><trkpt lat="43.26177940284956" lon="18.94784290197132"><ele>1389.0</ele><time>2026-05-03T13:07:17Z</time></trkpt><trkpt lat="43.26189245730609" lon="18.947804916384165"><ele>1389.0</ele><time>2026-05-03T13:07:18Z</time></trkpt><trkpt lat="43.262007610281685" lon="18.947766291066028"><ele>1389.0</ele><time>2026-05-03T13:07:19Z</time></trkpt><trkpt lat="43.262131956962925" lon="18.947718840387626"><ele>1389.0</ele><time>2026-05-03T13:07:20Z</time></trkpt><trkpt lat="43.262243738689264" lon="18.94766538613477"><ele>1389.0</ele><time>2026-05-03T13:07:21Z</time></trkpt><trkpt lat="43.262341377512676" lon="18.9476711803365"><ele>1387.6</ele><time>2026-05-03T13:07:22Z</time></trkpt><trkpt lat="43.26240611717008" lon="18.947712078235412"><ele>1386.2</ele><time>2026-05-03T13:07:23Z</time></trkpt><trkpt lat="43.26247456577878" lon="18.947771056685912"><ele>1384.8</ele><time>2026-05-03T13:07:24Z</time></trkpt><trkpt lat="43.26254835425989" lon="18.94785137379982"><ele>1383.3999999999999</ele><time>2026-05-03T13:07:25Z</time></trkpt><trkpt lat="43.26264683663122" lon="18.947909232036665"><ele>1382.0</ele><time>2026-05-03T13:07:26Z</time></trkpt><trkpt lat="43.2627628427783" lon="18.94793408358966"><ele>1382.0</ele><time>2026-05-03T13:07:27Z</time></trkpt><trkpt lat="43.262883351948815" lon="18.94786252543424"><ele>1382.0</ele><time>2026-05-03T13:07:28Z</time></trkpt><trkpt lat="43.262999316427084" lon="18.947863673707165"><ele>1382.0</ele><time>2026-05-03T13:07:29Z</time></trkpt><trkpt lat="43.26309573151164" lon="18.947877122163515"><ele>1382.0</ele><time>2026-05-03T13:07:30Z</time></trkpt><trkpt lat="43.263162613349266" lon="18.94793077417194"><ele>1382.0</ele><time>2026-05-03T13:07:31Z</time></trkpt><trkpt lat="43.26323756363292" lon="18.94796732076658"><ele>1381.8</ele><time>2026-05-03T13:07:32Z</time></trkpt><trkpt lat="43.26332237581166" lon="18.947967163370265"><ele>1381.6</ele><time>2026-05-03T13:07:33Z</time></trkpt><trkpt lat="43.263416460686514" lon="18.9479302383976"><ele>1381.3999999999999</ele><time>2026-05-03T13:07:34Z</time></trkpt><trkpt lat="43.263494099541944" lon="18.94783721172089"><ele>1381.1999999999998</ele><time>2026-05-03T13:07:35Z</time></trkpt><trkpt lat="43.26352482668845" lon="18.94770562352027"><ele>1381.0</ele><time>2026-05-03T13:07:36Z</time></trkpt><trkpt lat="43.263597697674335" lon="18.947680263770334"><ele>1381.0</ele><time>2026-05-03T13:07:37Z</time></trkpt><trkpt lat="43.26366944612999" lon="18.947688270150614"><ele>1381.0</ele><time>2026-05-03T13:07:38Z</time></trkpt><trkpt lat="43.263755393745065" lon="18.947692006450225"><ele>1381.0</ele><time>2026-05-03T13:07:39Z</time></trkpt><trkpt lat="43.263858357049926" lon="18.947701686020906"><ele>1381.0</ele><time>2026-05-03T13:07:40Z</time></trkpt><trkpt lat="43.26395417395251" lon="18.947717176263534"><ele>1381.0</ele><time>2026-05-03T13:07:41Z</time></trkpt><trkpt lat="43.264022951414496" lon="18.94776032539219"><ele>1381.0</ele><time>2026-05-03T13:07:42Z</time></trkpt><trkpt lat="43.26405495471337" lon="18.94786659035178"><ele>1381.0</ele><time>2026-05-03T13:07:43Z</time></trkpt><trkpt lat="43.26408065497041" lon="18.947968737439183"><ele>1381.0</ele><time>2026-05-03T13:07:44Z</time></trkpt><trkpt lat="43.26411738308288" lon="18.94808273649671"><ele>1381.0</ele><time>2026-05-03T13:07:45Z</time></trkpt><trkpt lat="43.26414193498096" lon="18.948216129730294"><ele>1381.0</ele><time>2026-05-03T13:07:46Z</time></trkpt><trkpt lat="43.26418561571028" lon="18.9483498512616"><ele>1381.0</ele><time>2026-05-03T13:07:47Z</time></trkpt><trkpt lat="43.264256312142685" lon="18.94844502133008"><ele>1379.1999999999998</ele><time>2026-05-03T13:07:48Z</time></trkpt><trkpt lat="43.264334966372715" lon="18.948498324111775"><ele>1377.3999999999999</ele><time>2026-05-03T13:07:49Z</time></trkpt><trkpt lat="43.26441839980516" lon="18.948519505346358"><ele>1375.6</ele><time>2026-05-03T13:07:50Z</time></trkpt><trkpt lat="43.26452374537127" lon="18.94850321619944"><ele>1373.8</ele><time>2026-05-03T13:07:51Z</time></trkpt><trkpt lat="43.26464468347006" lon="18.94848899829375"><ele>1372.0</ele><time>2026-05-03T13:07:52Z</time></trkpt><trkpt lat="43.264800347895324" lon="18.948390026026292"><ele>1373.25</ele><time>2026-05-03T13:07:53Z</time></trkpt><trkpt lat="43.26495247376873" lon="18.948272358177864"><ele>1374.5</ele><time>2026-05-03T13:07:54Z</time></trkpt><trkpt lat="43.26507372319418" lon="18.948165547863457"><ele>1375.75</ele><time>2026-05-03T13:07:55Z</time></trkpt><trkpt lat="43.26517807405206" lon="18.948074232813724"><ele>1377.0</ele><time>2026-05-03T13:07:56Z</time></trkpt><trkpt lat="43.26526508195446" lon="18.948020616383047"><ele>1377.0</ele><time>2026-05-03T13:07:57Z</time></trkpt><trkpt lat="43.26535147779814" lon="18.948019841480512"><ele>1377.0</ele><time>2026-05-03T13:07:58Z</time></trkpt><trkpt lat="43.26544617376479" lon="18.948029171740433"><ele>1377.0</ele><time>2026-05-03T13:07:59Z</time></trkpt><trkpt lat="43.26554792608488" lon="18.948032517791784"><ele>1377.0</ele><time>2026-05-03T13:08:00Z</time></trkpt><trkpt lat="43.26564985249609" lon="18.948036905788193"><ele>1377.0</ele><time>2026-05-03T13:08:01Z</time></trkpt><trkpt lat="43.26575532262534" lon="18.948009362580315"><ele>1375.6</ele><time>2026-05-03T13:08:02Z</time></trkpt><trkpt lat="43.265840435016585" lon="18.947948535202215"><ele>1374.1999999999998</ele><time>2026-05-03T13:08:03Z</time></trkpt><trkpt lat="43.26591159280377" lon="18.947848145730052"><ele>1372.8</ele><time>2026-05-03T13:08:04Z</time></trkpt><trkpt lat="43.2659611286122" lon="18.947701745716028"><ele>1371.4</ele><time>2026-05-03T13:08:05Z</time></trkpt><trkpt lat="43.265977984845364" lon="18.947526583710125"><ele>1370.0</ele><time>2026-05-03T13:08:06Z</time></trkpt><trkpt lat="43.266027257916676" lon="18.947386777521842"><ele>1370.0</ele><time>2026-05-03T13:08:07Z</time></trkpt><trkpt lat="43.26607890783607" lon="18.94725892925955"><ele>1370.0</ele><time>2026-05-03T13:08:08Z</time></trkpt><trkpt lat="43.26616623920596" lon="18.947243316912964"><ele>1370.0</ele><time>2026-05-03T13:08:09Z</time></trkpt><trkpt lat="43.26623024677309" lon="18.947237700950676"><ele>1370.0</ele><time>2026-05-03T13:08:10Z</time></trkpt><trkpt lat="43.26635425494132" lon="18.947314903244113"><ele>1370.0</ele><time>2026-05-03T13:08:12Z</time></trkpt><trkpt lat="43.26643130577898" lon="18.947377345456967"><ele>1368.0</ele><time>2026-05-03T13:08:13Z</time></trkpt><trkpt lat="43.266518284354206" lon="18.947381798227198"><ele>1366.0</ele><time>2026-05-03T13:08:14Z</time></trkpt><trkpt lat="43.266598250899264" lon="18.947381499971286"><ele>1364.0</ele><time>2026-05-03T13:08:15Z</time></trkpt><trkpt lat="43.2666785299529" lon="18.94729009789024"><ele>1362.0</ele><time>2026-05-03T13:08:16Z</time></trkpt><trkpt lat="43.266719450466475" lon="18.947128972198655"><ele>1360.0</ele><time>2026-05-03T13:08:17Z</time></trkpt><trkpt lat="43.26676492094299" lon="18.94697897218247"><ele>1360.0</ele><time>2026-05-03T13:08:18Z</time></trkpt><trkpt lat="43.26682866259677" lon="18.946832345930414"><ele>1360.0</ele><time>2026-05-03T13:08:19Z</time></trkpt><trkpt lat="43.26689920183957" lon="18.946685793052584"><ele>1360.0</ele><time>2026-05-03T13:08:20Z</time></trkpt><trkpt lat="43.26697926981536" lon="18.946572436456453"><ele>1360.0</ele><time>2026-05-03T13:08:21Z</time></trkpt><trkpt lat="43.26706051724406" lon="18.946480443339006"><ele>1359.2</ele><time>2026-05-03T13:08:22Z</time></trkpt><trkpt lat="43.267145405397834" lon="18.94640127592951"><ele>1358.4</ele><time>2026-05-03T13:08:23Z</time></trkpt><trkpt lat="43.26723300086179" lon="18.94638609590343"><ele>1357.6</ele><time>2026-05-03T13:08:24Z</time></trkpt><trkpt lat="43.26732066927893" lon="18.946407680433055"><ele>1356.8</ele><time>2026-05-03T13:08:25Z</time></trkpt><trkpt lat="43.26740058632558" lon="18.946459471086566"><ele>1356.0</ele><time>2026-05-03T13:08:26Z</time></trkpt><trkpt lat="43.26745580151486" lon="18.946548422810867"><ele>1356.0</ele><time>2026-05-03T13:08:27Z</time></trkpt><trkpt lat="43.26745437252064" lon="18.94666862520501"><ele>1356.0</ele><time>2026-05-03T13:08:28Z</time></trkpt><trkpt lat="43.26749260202442" lon="18.94679934496145"><ele>1356.0</ele><time>2026-05-03T13:08:29Z</time></trkpt><trkpt lat="43.26750526643467" lon="18.946948454234416"><ele>1356.0</ele><time>2026-05-03T13:08:30Z</time></trkpt><trkpt lat="43.267511261589405" lon="18.947090407178578"><ele>1356.0</ele><time>2026-05-03T13:08:31Z</time></trkpt><trkpt lat="43.26755150314594" lon="18.947204588763167"><ele>1354.4</ele><time>2026-05-03T13:08:32Z</time></trkpt><trkpt lat="43.267602147370035" lon="18.947298583978142"><ele>1352.8</ele><time>2026-05-03T13:08:33Z</time></trkpt><trkpt lat="43.26769336303971" lon="18.947371355948185"><ele>1351.2</ele><time>2026-05-03T13:08:34Z</time></trkpt><trkpt lat="43.26780999400704" lon="18.94739385202588"><ele>1349.6000000000001</ele><time>2026-05-03T13:08:35Z</time></trkpt><trkpt lat="43.26790851329469" lon="18.947378364069024"><ele>1348.0</ele><time>2026-05-03T13:08:36Z</time></trkpt><trkpt lat="43.26797312257779" lon="18.9472974672755"><ele>1348.0</ele><time>2026-05-03T13:08:37Z</time></trkpt><trkpt lat="43.26804089417868" lon="18.94723225418966"><ele>1348.0</ele><time>2026-05-03T13:08:38Z</time></trkpt><trkpt lat="43.268086403010145" lon="18.947128233510906"><ele>1348.0</ele><time>2026-05-03T13:08:39Z</time></trkpt><trkpt lat="43.26812870582831" lon="18.9470409059441"><ele>1348.0</ele><time>2026-05-03T13:08:40Z</time></trkpt><trkpt lat="43.268123350169844" lon="18.94692500449535"><ele>1348.0</ele><time>2026-05-03T13:08:41Z</time></trkpt><trkpt lat="43.26809558089413" lon="18.94683233580535"><ele>1348.0</ele><time>2026-05-03T13:08:42Z</time></trkpt><trkpt lat="43.26808203204606" lon="18.946728617609867"><ele>1347.1666666666665</ele><time>2026-05-03T13:08:43Z</time></trkpt><trkpt lat="43.26806001102866" lon="18.94662685985829"><ele>1346.3333333333333</ele><time>2026-05-03T13:08:44Z</time></trkpt><trkpt lat="43.26807307418264" lon="18.946535892504578"><ele>1345.5</ele><time>2026-05-03T13:08:45Z</time></trkpt><trkpt lat="43.26816402491161" lon="18.94641495083414"><ele>1344.6666666666667</ele><time>2026-05-03T13:08:47Z</time></trkpt><trkpt lat="43.268241538681735" lon="18.946397285387576"><ele>1343.8333333333335</ele><time>2026-05-03T13:08:48Z</time></trkpt><trkpt lat="43.268322745374256" lon="18.946407682329436"><ele>1343.0</ele><time>2026-05-03T13:08:49Z</time></trkpt><trkpt lat="43.26841245796428" lon="18.94641038232827"><ele>1343.0</ele><time>2026-05-03T13:08:50Z</time></trkpt><trkpt lat="43.26851762996093" lon="18.946415482737784"><ele>1343.0</ele><time>2026-05-03T13:08:51Z</time></trkpt><trkpt lat="43.268639635970764" lon="18.946398401104748"><ele>1343.0</ele><time>2026-05-03T13:08:52Z</time></trkpt><trkpt lat="43.268751579177476" lon="18.946386511821927"><ele>1343.0</ele><time>2026-05-03T13:08:53Z</time></trkpt><trkpt lat="43.26886587275122" lon="18.946340958349605"><ele>1340.5</ele><time>2026-05-03T13:08:54Z</time></trkpt><trkpt lat="43.26897206139508" lon="18.946267597636627"><ele>1338.0</ele><time>2026-05-03T13:08:55Z</time></trkpt><trkpt lat="43.2690842759497" lon="18.946191912313374"><ele>1335.5</ele><time>2026-05-03T13:08:56Z</time></trkpt><trkpt lat="43.269198244695964" lon="18.946168094777587"><ele>1333.0</ele><time>2026-05-03T13:08:57Z</time></trkpt><trkpt lat="43.26929373094324" lon="18.94612023115212"><ele>1333.0</ele><time>2026-05-03T13:08:58Z</time></trkpt><trkpt lat="43.26936106682977" lon="18.9460797635263"><ele>1333.0</ele><time>2026-05-03T13:08:59Z</time></trkpt><trkpt lat="43.269375851998184" lon="18.945939517640006"><ele>1333.0</ele><time>2026-05-03T13:09:00Z</time></trkpt><trkpt lat="43.26939312489676" lon="18.94582258285454"><ele>1333.0</ele><time>2026-05-03T13:09:01Z</time></trkpt><trkpt lat="43.26941014515863" lon="18.94568982838322"><ele>1333.0</ele><time>2026-05-03T13:09:02Z</time></trkpt><trkpt lat="43.26943725858261" lon="18.94554466529749"><ele>1333.5</ele><time>2026-05-03T13:09:03Z</time></trkpt><trkpt lat="43.269493355813715" lon="18.945398292977664"><ele>1334.0</ele><time>2026-05-03T13:09:04Z</time></trkpt><trkpt lat="43.269533776753555" lon="18.945232560433872"><ele>1334.5</ele><time>2026-05-03T13:09:05Z</time></trkpt><trkpt lat="43.26959183552568" lon="18.94508504389481"><ele>1335.0</ele><time>2026-05-03T13:09:06Z</time></trkpt><trkpt lat="43.2696348246464" lon="18.94492292656383"><ele>1336.25</ele><time>2026-05-03T13:09:07Z</time></trkpt><trkpt lat="43.26967115665188" lon="18.944737171225952"><ele>1337.5</ele><time>2026-05-03T13:09:08Z</time></trkpt><trkpt lat="43.26973309866167" lon="18.944565331059643"><ele>1338.75</ele><time>2026-05-03T13:09:09Z</time></trkpt><trkpt lat="43.26979346604538" lon="18.94440851290257"><ele>1340.0</ele><time>2026-05-03T13:09:10Z</time></trkpt><trkpt lat="43.26986219499931" lon="18.944233570333886"><ele>1339.25</ele><time>2026-05-03T13:09:11Z</time></trkpt><trkpt lat="43.26992416928463" lon="18.944049425553278"><ele>1338.5</ele><time>2026-05-03T13:09:12Z</time></trkpt><trkpt lat="43.26996293683217" lon="18.943865045013013"><ele>1337.75</ele><time>2026-05-03T13:09:13Z</time></trkpt><trkpt lat="43.27000198442506" lon="18.943716387502025"><ele>1337.0</ele><time>2026-05-03T13:09:14Z</time></trkpt><trkpt lat="43.270100759003974" lon="18.943629397136984"><ele>1337.0</ele><time>2026-05-03T13:09:15Z</time></trkpt><trkpt lat="43.27020054493499" lon="18.943560166658656"><ele>1337.0</ele><time>2026-05-03T13:09:16Z</time></trkpt><trkpt lat="43.27031623961449" lon="18.943442420435762"><ele>1337.0</ele><time>2026-05-03T13:09:17Z</time></trkpt><trkpt lat="43.27044799747302" lon="18.943361161975186"><ele>1337.0</ele><time>2026-05-03T13:09:18Z</time></trkpt><trkpt lat="43.27056133459699" lon="18.943274115197365"><ele>1336.75</ele><time>2026-05-03T13:09:19Z</time></trkpt><trkpt lat="43.27068040779664" lon="18.943234707278044"><ele>1336.5</ele><time>2026-05-03T13:09:20Z</time></trkpt><trkpt lat="43.27078174751024" lon="18.94316505399406"><ele>1336.25</ele><time>2026-05-03T13:09:21Z</time></trkpt><trkpt lat="43.27088267154512" lon="18.943041124140795"><ele>1336.0</ele><time>2026-05-03T13:09:22Z</time></trkpt><trkpt lat="43.27098845882422" lon="18.942887232161567"><ele>1336.0</ele><time>2026-05-03T13:09:23Z</time></trkpt><trkpt lat="43.2710835636986" lon="18.942717386577698"><ele>1336.0</ele><time>2026-05-03T13:09:24Z</time></trkpt><trkpt lat="43.2711683933186" lon="18.942565641475657"><ele>1336.0</ele><time>2026-05-03T13:09:25Z</time></trkpt><trkpt lat="43.271239056374306" lon="18.94241659305142"><ele>1336.0</ele><time>2026-05-03T13:09:26Z</time></trkpt><trkpt lat="43.27131031002864" lon="18.94226832513093"><ele>1336.75</ele><time>2026-05-03T13:09:27Z</time></trkpt><trkpt lat="43.27141678923703" lon="18.942148235800573"><ele>1337.5</ele><time>2026-05-03T13:09:28Z</time></trkpt><trkpt lat="43.27151760943754" lon="18.942015859422177"><ele>1338.25</ele><time>2026-05-03T13:09:29Z</time></trkpt><trkpt lat="43.271655103280764" lon="18.941953436420338"><ele>1339.0</ele><time>2026-05-03T13:09:30Z</time></trkpt><trkpt lat="43.2717818550847" lon="18.941869174342717"><ele>1337.0</ele><time>2026-05-03T13:09:31Z</time></trkpt><trkpt lat="43.271867112101965" lon="18.941797012395178"><ele>1335.0</ele><time>2026-05-03T13:09:32Z</time></trkpt><trkpt lat="43.27193074383915" lon="18.941673493553193"><ele>1333.0</ele><time>2026-05-03T13:09:33Z</time></trkpt><trkpt lat="43.271985387551176" lon="18.941490419307936"><ele>1331.0</ele><time>2026-05-03T13:09:34Z</time></trkpt><trkpt lat="43.272055789518724" lon="18.941256349974974"><ele>1331.0</ele><time>2026-05-03T13:09:35Z</time></trkpt><trkpt lat="43.272141564008024" lon="18.9410201810598"><ele>1331.0</ele><time>2026-05-03T13:09:36Z</time></trkpt><trkpt lat="43.272251424721524" lon="18.940871286590482"><ele>1331.0</ele><time>2026-05-03T13:09:37Z</time></trkpt><trkpt lat="43.272349019211504" lon="18.940744743016506"><ele>1330.8</ele><time>2026-05-03T13:09:38Z</time></trkpt><trkpt lat="43.27242899720683" lon="18.940648824532815"><ele>1330.6</ele><time>2026-05-03T13:09:39Z</time></trkpt><trkpt lat="43.27249713610259" lon="18.940566724761553"><ele>1330.4</ele><time>2026-05-03T13:09:40Z</time></trkpt><trkpt lat="43.27255737061355" lon="18.940482816175624"><ele>1330.2</ele><time>2026-05-03T13:09:41Z</time></trkpt><trkpt lat="43.27263965454024" lon="18.94047087449933"><ele>1330.0</ele><time>2026-05-03T13:09:42Z</time></trkpt><trkpt lat="43.27273488915309" lon="18.94049452101696"><ele>1330.0</ele><time>2026-05-03T13:09:43Z</time></trkpt><trkpt lat="43.27282979772429" lon="18.94057291565532"><ele>1330.0</ele><time>2026-05-03T13:09:44Z</time></trkpt><trkpt lat="43.27287563785679" lon="18.940739561190373"><ele>1330.0</ele><time>2026-05-03T13:09:45Z</time></trkpt><trkpt lat="43.2729665763609" lon="18.940853197642404"><ele>1330.0</ele><time>2026-05-03T13:09:46Z</time></trkpt><trkpt lat="43.27306443992643" lon="18.940944922990315"><ele>1330.5</ele><time>2026-05-03T13:09:47Z</time></trkpt><trkpt lat="43.27315379039208" lon="18.94104173248532"><ele>1331.0</ele><time>2026-05-03T13:09:48Z</time></trkpt><trkpt lat="43.273274521733505" lon="18.94110269842998"><ele>1331.5</ele><time>2026-05-03T13:09:49Z</time></trkpt><trkpt lat="43.27339546602081" lon="18.941147329488043"><ele>1332.0</ele><time>2026-05-03T13:09:50Z</time></trkpt><trkpt lat="43.273512774843105" lon="18.94114330544752"><ele>1332.0</ele><time>2026-05-03T13:09:51Z</time></trkpt><trkpt lat="43.273619336880095" lon="18.941111969669326"><ele>1332.0</ele><time>2026-05-03T13:09:52Z</time></trkpt><trkpt lat="43.273729630147486" lon="18.940987006814215"><ele>1332.0</ele><time>2026-05-03T13:09:53Z</time></trkpt><trkpt lat="43.27386018385983" lon="18.940894340143966"><ele>1332.0</ele><time>2026-05-03T13:09:54Z</time></trkpt><trkpt lat="43.273999667486194" lon="18.940765800204833"><ele>1332.0</ele><time>2026-05-03T13:09:55Z</time></trkpt><trkpt lat="43.27415651365894" lon="18.940641662825367"><ele>1332.0</ele><time>2026-05-03T13:09:56Z</time></trkpt><trkpt lat="43.27430922009859" lon="18.94053372756301"><ele>1332.0</ele><time>2026-05-03T13:09:57Z</time></trkpt><trkpt lat="43.27444630080642" lon="18.940458659668614"><ele>1332.0</ele><time>2026-05-03T13:09:58Z</time></trkpt><trkpt lat="43.27459676338909" lon="18.940399368188487"><ele>1332.0</ele><time>2026-05-03T13:09:59Z</time></trkpt><trkpt lat="43.27472069204269" lon="18.940384097420147"><ele>1332.0</ele><time>2026-05-03T13:10:00Z</time></trkpt><trkpt lat="43.274833286432695" lon="18.940401570660796"><ele>1332.0</ele><time>2026-05-03T13:10:01Z</time></trkpt><trkpt lat="43.27493100925881" lon="18.940413344212867"><ele>1332.0</ele><time>2026-05-03T13:10:02Z</time></trkpt><trkpt lat="43.275023522381254" lon="18.940302832401283"><ele>1332.0</ele><time>2026-05-03T13:10:03Z</time></trkpt><trkpt lat="43.27510000718459" lon="18.9401739948036"><ele>1332.0</ele><time>2026-05-03T13:10:04Z</time></trkpt><trkpt lat="43.2752062832784" lon="18.9399930517161"><ele>1332.0</ele><time>2026-05-03T13:10:05Z</time></trkpt><trkpt lat="43.27534476982614" lon="18.93982847450926"><ele>1332.0</ele><time>2026-05-03T13:10:06Z</time></trkpt><trkpt lat="43.275446071707" lon="18.939647642200917"><ele>1332.0</ele><time>2026-05-03T13:10:07Z</time></trkpt><trkpt lat="43.27553081415826" lon="18.939521080105497"><ele>1332.0</ele><time>2026-05-03T13:10:08Z</time></trkpt><trkpt lat="43.27560821105341" lon="18.939443362945852"><ele>1332.0</ele><time>2026-05-03T13:10:09Z</time></trkpt><trkpt lat="43.275677191835854" lon="18.93939221589534"><ele>1332.6666666666667</ele><time>2026-05-03T13:10:10Z</time></trkpt><trkpt lat="43.27574611655182" lon="18.939331816199658"><ele>1333.3333333333333</ele><time>2026-05-03T13:10:11Z</time></trkpt><trkpt lat="43.27581781396701" lon="18.939295977805187"><ele>1334.0</ele><time>2026-05-03T13:10:12Z</time></trkpt><trkpt lat="43.275888883698855" lon="18.93925282435299"><ele>1334.6666666666665</ele><time>2026-05-03T13:10:13Z</time></trkpt><trkpt lat="43.27596203197268" lon="18.939209293198584"><ele>1335.3333333333333</ele><time>2026-05-03T13:10:14Z</time></trkpt><trkpt lat="43.27605701155791" lon="18.939142655245355"><ele>1336.0</ele><time>2026-05-03T13:10:15Z</time></trkpt><trkpt lat="43.276173707303045" lon="18.93905651744085"><ele>1336.0</ele><time>2026-05-03T13:10:16Z</time></trkpt><trkpt lat="43.276292367902556" lon="18.9389490990456"><ele>1336.0</ele><time>2026-05-03T13:10:17Z</time></trkpt><trkpt lat="43.276406085256674" lon="18.938824714919306"><ele>1336.0</ele><time>2026-05-03T13:10:18Z</time></trkpt><trkpt lat="43.276529937793946" lon="18.938723446074075"><ele>1336.0</ele><time>2026-05-03T13:10:19Z</time></trkpt><trkpt lat="43.276652410772364" lon="18.938609616070217"><ele>1336.75</ele><time>2026-05-03T13:10:20Z</time></trkpt><trkpt lat="43.27675528003618" lon="18.938497915516702"><ele>1337.5</ele><time>2026-05-03T13:10:21Z</time></trkpt><trkpt lat="43.27683050912125" lon="18.93836110506266"><ele>1338.25</ele><time>2026-05-03T13:10:22Z</time></trkpt><trkpt lat="43.27691496091799" lon="18.938238549553986"><ele>1339.0</ele><time>2026-05-03T13:10:23Z</time></trkpt><trkpt lat="43.27698303959218" lon="18.93809950790007"><ele>1339.0</ele><time>2026-05-03T13:10:24Z</time></trkpt><trkpt lat="43.27703280920474" lon="18.937948631498628"><ele>1339.0</ele><time>2026-05-03T13:10:25Z</time></trkpt><trkpt lat="43.277071044460705" lon="18.937789092270716"><ele>1339.0</ele><time>2026-05-03T13:10:26Z</time></trkpt><trkpt lat="43.27710610697819" lon="18.937619858094354"><ele>1339.0</ele><time>2026-05-03T13:10:27Z</time></trkpt><trkpt lat="43.27717187987977" lon="18.937468481019035"><ele>1338.25</ele><time>2026-05-03T13:10:28Z</time></trkpt><trkpt lat="43.277260003123494" lon="18.937346517777584"><ele>1337.5</ele><time>2026-05-03T13:10:29Z</time></trkpt><trkpt lat="43.27732124215591" lon="18.937229528943444"><ele>1336.75</ele><time>2026-05-03T13:10:30Z</time></trkpt><trkpt lat="43.27738695481487" lon="18.937102565793996"><ele>1336.0</ele><time>2026-05-03T13:10:31Z</time></trkpt><trkpt lat="43.277422963404675" lon="18.936929655921567"><ele>1337.0</ele><time>2026-05-03T13:10:32Z</time></trkpt><trkpt lat="43.277466213478" lon="18.936771683559527"><ele>1338.0</ele><time>2026-05-03T13:10:33Z</time></trkpt><trkpt lat="43.277510828412524" lon="18.936629859449617"><ele>1339.0</ele><time>2026-05-03T13:10:34Z</time></trkpt><trkpt lat="43.27760757344026" lon="18.93653676902905"><ele>1340.0</ele><time>2026-05-03T13:10:35Z</time></trkpt><trkpt lat="43.27770605848792" lon="18.936490348966156"><ele>1340.0</ele><time>2026-05-03T13:10:36Z</time></trkpt><trkpt lat="43.27780187970897" lon="18.93648445859316"><ele>1340.0</ele><time>2026-05-03T13:10:37Z</time></trkpt><trkpt lat="43.277906446087854" lon="18.936481598477247"><ele>1340.0</ele><time>2026-05-03T13:10:38Z</time></trkpt><trkpt lat="43.27801289633805" lon="18.936515438280946"><ele>1340.0</ele><time>2026-05-03T13:10:39Z</time></trkpt><trkpt lat="43.278132643384026" lon="18.936547246391104"><ele>1340.0</ele><time>2026-05-03T13:10:40Z</time></trkpt><trkpt lat="43.27825034231987" lon="18.936522205288224"><ele>1339.8</ele><time>2026-05-03T13:10:41Z</time></trkpt><trkpt lat="43.27832591815127" lon="18.936436586396084"><ele>1339.6</ele><time>2026-05-03T13:10:42Z</time></trkpt><trkpt lat="43.27839201443994" lon="18.936339308103143"><ele>1339.4</ele><time>2026-05-03T13:10:43Z</time></trkpt><trkpt lat="43.27844382459856" lon="18.93621441988352"><ele>1339.2</ele><time>2026-05-03T13:10:44Z</time></trkpt><trkpt lat="43.27851936077525" lon="18.936155360846424"><ele>1339.0</ele><time>2026-05-03T13:10:45Z</time></trkpt><trkpt lat="43.27857592736045" lon="18.93607163938158"><ele>1339.0</ele><time>2026-05-03T13:10:46Z</time></trkpt><trkpt lat="43.27868729817218" lon="18.936054784724064"><ele>1339.0</ele><time>2026-05-03T13:10:47Z</time></trkpt><trkpt lat="43.278809608858566" lon="18.935969707296945"><ele>1339.0</ele><time>2026-05-03T13:10:48Z</time></trkpt><trkpt lat="43.278974436556375" lon="18.935874288309297"><ele>1339.0</ele><time>2026-05-03T13:10:49Z</time></trkpt><trkpt lat="43.279163771767244" lon="18.935753122323586"><ele>1341.0</ele><time>2026-05-03T13:10:50Z</time></trkpt><trkpt lat="43.27938447031087" lon="18.93564501051075"><ele>1343.0</ele><time>2026-05-03T13:10:51Z</time></trkpt><trkpt lat="43.27960287572736" lon="18.935514216423776"><ele>1345.3333333333335</ele><time>2026-05-03T13:10:52Z</time></trkpt><trkpt lat="43.27982008182951" lon="18.935385202632666"><ele>1347.6666666666667</ele><time>2026-05-03T13:10:53Z</time></trkpt><trkpt lat="43.280014607954406" lon="18.935268426539597"><ele>1350.0</ele><time>2026-05-03T13:10:54Z</time></trkpt><trkpt lat="43.28018331399671" lon="18.935167150360062"><ele>1350.0</ele><time>2026-05-03T13:10:55Z</time></trkpt><trkpt lat="43.280338906667915" lon="18.935074167870358"><ele>1350.0</ele><time>2026-05-03T13:10:56Z</time></trkpt><trkpt lat="43.28046923163926" lon="18.934995707511217"><ele>1350.0</ele><time>2026-05-03T13:10:57Z</time></trkpt><trkpt lat="43.28059986426545" lon="18.93494342135185"><ele>1350.0</ele><time>2026-05-03T13:10:58Z</time></trkpt><trkpt lat="43.28071354346095" lon="18.934939165208526"><ele>1350.0</ele><time>2026-05-03T13:10:59Z</time></trkpt><trkpt lat="43.28082143960805" lon="18.934983088666904"><ele>1350.0</ele><time>2026-05-03T13:11:00Z</time></trkpt><trkpt lat="43.28094322251387" lon="18.93501363886509"><ele>1350.0</ele><time>2026-05-03T13:11:01Z</time></trkpt><trkpt lat="43.28108038772015" lon="18.93501802097147"><ele>1350.0</ele><time>2026-05-03T13:11:02Z</time></trkpt><trkpt lat="43.281233143157436" lon="18.934976421247057"><ele>1350.0</ele><time>2026-05-03T13:11:03Z</time></trkpt><trkpt lat="43.28138305728897" lon="18.93488806124627"><ele>1350.0</ele><time>2026-05-03T13:11:04Z</time></trkpt><trkpt lat="43.28153841329847" lon="18.934780841950396"><ele>1350.0</ele><time>2026-05-03T13:11:05Z</time></trkpt><trkpt lat="43.28169619562738" lon="18.93468059096029"><ele>1351.0</ele><time>2026-05-03T13:11:06Z</time></trkpt><trkpt lat="43.281839801789964" lon="18.934638762376856"><ele>1352.0</ele><time>2026-05-03T13:11:07Z</time></trkpt><trkpt lat="43.28198503717466" lon="18.934658187755428"><ele>1353.0</ele><time>2026-05-03T13:11:08Z</time></trkpt><trkpt lat="43.28213200638261" lon="18.934660063697955"><ele>1354.0</ele><time>2026-05-03T13:11:09Z</time></trkpt><trkpt lat="43.282278754979735" lon="18.934628049372048"><ele>1354.3333333333333</ele><time>2026-05-03T13:11:10Z</time></trkpt><trkpt lat="43.28242941728421" lon="18.93461963390796"><ele>1354.6666666666667</ele><time>2026-05-03T13:11:11Z</time></trkpt><trkpt lat="43.28257577074824" lon="18.934435012383855"><ele>1355.0</ele><time>2026-05-03T13:11:12Z</time></trkpt><trkpt lat="43.282723613046635" lon="18.934310492987713"><ele>1355.25</ele><time>2026-05-03T13:11:13Z</time></trkpt><trkpt lat="43.28284639159906" lon="18.934177009313366"><ele>1355.5</ele><time>2026-05-03T13:11:14Z</time></trkpt><trkpt lat="43.28294142093741" lon="18.93407341169176"><ele>1355.75</ele><time>2026-05-03T13:11:15Z</time></trkpt><trkpt lat="43.28303845819827" lon="18.9339752947629"><ele>1356.0</ele><time>2026-05-03T13:11:16Z</time></trkpt><trkpt lat="43.283147207829906" lon="18.933983016937827"><ele>1356.6</ele><time>2026-05-03T13:11:17Z</time></trkpt><trkpt lat="43.28322826372154" lon="18.93405526381277"><ele>1357.1999999999998</ele><time>2026-05-03T13:11:18Z</time></trkpt><trkpt lat="43.28327070944114" lon="18.934187665504567"><ele>1357.8000000000002</ele><time>2026-05-03T13:11:19Z</time></trkpt><trkpt lat="43.283240924203746" lon="18.934343051634166"><ele>1358.4</ele><time>2026-05-03T13:11:20Z</time></trkpt><trkpt lat="43.28322087318807" lon="18.934510265077126"><ele>1359.0</ele><time>2026-05-03T13:11:21Z</time></trkpt><trkpt lat="43.28319020118615" lon="18.934669251627138"><ele>1360.2</ele><time>2026-05-03T13:11:22Z</time></trkpt><trkpt lat="43.2832217823115" lon="18.93480945219826"><ele>1361.4</ele><time>2026-05-03T13:11:23Z</time></trkpt><trkpt lat="43.28323106821432" lon="18.934935971135182"><ele>1362.6</ele><time>2026-05-03T13:11:24Z</time></trkpt><trkpt lat="43.28335850156069" lon="18.934996051109803"><ele>1363.8</ele><time>2026-05-03T13:11:25Z</time></trkpt><trkpt lat="43.283441554407894" lon="18.935016374491145"><ele>1365.0</ele><time>2026-05-03T13:11:26Z</time></trkpt><trkpt lat="43.283531243625724" lon="18.935000357302297"><ele>1365.0</ele><time>2026-05-03T13:11:27Z</time></trkpt><trkpt lat="43.2836167934248" lon="18.934948060415824"><ele>1365.0</ele><time>2026-05-03T13:11:28Z</time></trkpt><trkpt lat="43.28370352082047" lon="18.934910577903356"><ele>1365.0</ele><time>2026-05-03T13:11:29Z</time></trkpt><trkpt lat="43.283770786264185" lon="18.934781931549985"><ele>1365.0</ele><time>2026-05-03T13:11:30Z</time></trkpt><trkpt lat="43.2838397029428" lon="18.934698536435814"><ele>1365.0</ele><time>2026-05-03T13:11:31Z</time></trkpt><trkpt lat="43.2839152390017" lon="18.93460901565983"><ele>1364.8</ele><time>2026-05-03T13:11:32Z</time></trkpt><trkpt lat="43.28399807956786" lon="18.934544696109498"><ele>1364.6</ele><time>2026-05-03T13:11:33Z</time></trkpt><trkpt lat="43.28408860116961" lon="18.93447718193184"><ele>1364.4</ele><time>2026-05-03T13:11:34Z</time></trkpt><trkpt lat="43.284179090975556" lon="18.93444770865733"><ele>1364.2</ele><time>2026-05-03T13:11:35Z</time></trkpt><trkpt lat="43.284273953324515" lon="18.934421563435535"><ele>1364.0</ele><time>2026-05-03T13:11:36Z</time></trkpt><trkpt lat="43.28436084143354" lon="18.934417983365268"><ele>1364.0</ele><time>2026-05-03T13:11:37Z</time></trkpt><trkpt lat="43.28445454645209" lon="18.934432204260993"><ele>1364.0</ele><time>2026-05-03T13:11:38Z</time></trkpt><trkpt lat="43.284538553383314" lon="18.934471312350833"><ele>1364.0</ele><time>2026-05-03T13:11:39Z</time></trkpt><trkpt lat="43.28459974304881" lon="18.934546460832735"><ele>1364.0</ele><time>2026-05-03T13:11:40Z</time></trkpt><trkpt lat="43.28466320255067" lon="18.934625869678488"><ele>1364.0</ele><time>2026-05-03T13:11:41Z</time></trkpt><trkpt lat="43.28473132476102" lon="18.934714817065302"><ele>1364.0</ele><time>2026-05-03T13:11:42Z</time></trkpt><trkpt lat="43.28479630972405" lon="18.93483172271646"><ele>1366.0</ele><time>2026-05-03T13:11:43Z</time></trkpt><trkpt lat="43.284866955632744" lon="18.934967522858273"><ele>1368.0</ele><time>2026-05-03T13:11:44Z</time></trkpt><trkpt lat="43.284956456565105" lon="18.93513882598259"><ele>1370.0</ele><time>2026-05-03T13:11:45Z</time></trkpt><trkpt lat="43.28505578142536" lon="18.935329186039066"><ele>1372.0</ele><time>2026-05-03T13:11:46Z</time></trkpt><trkpt lat="43.28514554303282" lon="18.93550014048279"><ele>1372.0</ele><time>2026-05-03T13:11:47Z</time></trkpt><trkpt lat="43.285229835023216" lon="18.935620540430886"><ele>1372.0</ele><time>2026-05-03T13:11:48Z</time></trkpt><trkpt lat="43.28531666739548" lon="18.93566891208476"><ele>1372.0</ele><time>2026-05-03T13:11:49Z</time></trkpt><trkpt lat="43.285399591065406" lon="18.93566805132346"><ele>1372.0</ele><time>2026-05-03T13:11:50Z</time></trkpt><trkpt lat="43.28548327285334" lon="18.93562591881567"><ele>1372.0</ele><time>2026-05-03T13:11:51Z</time></trkpt><trkpt lat="43.28555392405291" lon="18.935499031761513"><ele>1372.0</ele><time>2026-05-03T13:11:52Z</time></trkpt><trkpt lat="43.28558296632198" lon="18.935339348939245"><ele>1372.0</ele><time>2026-05-03T13:11:53Z</time></trkpt><trkpt lat="43.28566389992682" lon="18.935236808344094"><ele>1372.0</ele><time>2026-05-03T13:11:54Z</time></trkpt><trkpt lat="43.285738027506966" lon="18.935143492822146"><ele>1372.0</ele><time>2026-05-03T13:11:55Z</time></trkpt><trkpt lat="43.28583278432043" lon="18.935165885319883"><ele>1372.0</ele><time>2026-05-03T13:11:56Z</time></trkpt><trkpt lat="43.28594080240485" lon="18.935192348697253"><ele>1372.3333333333333</ele><time>2026-05-03T13:11:57Z</time></trkpt><trkpt lat="43.286096696066075" lon="18.935201096541068"><ele>1372.6666666666667</ele><time>2026-05-03T13:11:58Z</time></trkpt><trkpt lat="43.28625291247029" lon="18.9352088211889"><ele>1373.0</ele><time>2026-05-03T13:11:59Z</time></trkpt><trkpt lat="43.28639533726582" lon="18.93518816513642"><ele>1373.0</ele><time>2026-05-03T13:12:00Z</time></trkpt><trkpt lat="43.28652552064941" lon="18.935126898823164"><ele>1373.0</ele><time>2026-05-03T13:12:01Z</time></trkpt><trkpt lat="43.28663353489236" lon="18.934981228125235"><ele>1374.0</ele><time>2026-05-03T13:12:02Z</time></trkpt><trkpt lat="43.28674839543524" lon="18.93483081960908"><ele>1374.0</ele><time>2026-05-03T13:12:03Z</time></trkpt></trkseg><trkseg><trkpt lat="43.30548144027886" lon="18.92682029380593"><ele>1467.6666666666667</ele><time>2026-05-03T13:26:36Z</time></trkpt><trkpt lat="43.3055135761511" lon="18.926702704735188"><ele>1466.3333333333335</ele><time>2026-05-03T13:26:38Z</time></trkpt><trkpt lat="43.30556714149805" lon="18.926634954525376"><ele>1465.0</ele><time>2026-05-03T13:26:39Z</time></trkpt><trkpt lat="43.30560313177861" lon="18.926553796958828"><ele>1463.6666666666667</ele><time>2026-05-03T13:26:40Z</time></trkpt><trkpt lat="43.30564474874734" lon="18.92646256232868"><ele>1462.3333333333333</ele><time>2026-05-03T13:26:41Z</time></trkpt><trkpt lat="43.305742714669115" lon="18.926398070020333"><ele>1461.0</ele><time>2026-05-03T13:26:43Z</time></trkpt><trkpt lat="43.30581292280078" lon="18.92636179298682"><ele>1460.7142857142856</ele><time>2026-05-03T13:26:44Z</time></trkpt><trkpt lat="43.3058891989031" lon="18.92632640639209"><ele>1460.4285714285716</ele><time>2026-05-03T13:26:45Z</time></trkpt><trkpt lat="43.305956800716174" lon="18.926298392858463"><ele>1460.142857142857</ele><time>2026-05-03T13:26:46Z</time></trkpt><trkpt lat="43.30603317829327" lon="18.92627121733827"><ele>1459.8571428571427</ele><time>2026-05-03T13:26:47Z</time></trkpt><trkpt lat="43.30610568812792" lon="18.926243787266152"><ele>1459.5714285714284</ele><time>2026-05-03T13:26:48Z</time></trkpt><trkpt lat="43.30616414235728" lon="18.92619328143756"><ele>1459.2857142857142</ele><time>2026-05-03T13:26:49Z</time></trkpt><trkpt lat="43.306221368787675" lon="18.92615655343791"><ele>1459.0</ele><time>2026-05-03T13:26:50Z</time></trkpt><trkpt lat="43.306285995690565" lon="18.926101640277817"><ele>1459.0</ele><time>2026-05-03T13:26:51Z</time></trkpt><trkpt lat="43.30636400247348" lon="18.926053186794597"><ele>1459.0</ele><time>2026-05-03T13:26:52Z</time></trkpt><trkpt lat="43.306432846837055" lon="18.925987280398648"><ele>1459.0</ele><time>2026-05-03T13:26:53Z</time></trkpt><trkpt lat="43.30650463123926" lon="18.92591795128142"><ele>1459.0</ele><time>2026-05-03T13:26:54Z</time></trkpt><trkpt lat="43.30657965059784" lon="18.925934954624918"><ele>1459.0</ele><time>2026-05-03T13:26:55Z</time></trkpt><trkpt lat="43.306638585756964" lon="18.925992626812846"><ele>1459.0</ele><time>2026-05-03T13:26:56Z</time></trkpt><trkpt lat="43.306698945521234" lon="18.926064685253696"><ele>1460.0</ele><time>2026-05-03T13:26:57Z</time></trkpt><trkpt lat="43.306768768421534" lon="18.926116544977837"><ele>1461.0</ele><time>2026-05-03T13:26:58Z</time></trkpt><trkpt lat="43.30685064137502" lon="18.92617548732025"><ele>1462.0</ele><time>2026-05-03T13:26:59Z</time></trkpt><trkpt lat="43.30695760056468" lon="18.9261495575002"><ele>1463.0</ele><time>2026-05-03T13:27:00Z</time></trkpt><trkpt lat="43.30705249579664" lon="18.926098974117515"><ele>1464.0</ele><time>2026-05-03T13:27:01Z</time></trkpt><trkpt lat="43.30712475745936" lon="18.925954640153524"><ele>1464.0</ele><time>2026-05-03T13:27:02Z</time></trkpt><trkpt lat="43.307188094401184" lon="18.925865960375006"><ele>1464.0</ele><time>2026-05-03T13:27:03Z</time></trkpt><trkpt lat="43.30726076134574" lon="18.92576421727204"><ele>1464.0</ele><time>2026-05-03T13:27:04Z</time></trkpt><trkpt lat="43.30732747683655" lon="18.925615409437917"><ele>1464.0</ele><time>2026-05-03T13:27:05Z</time></trkpt><trkpt lat="43.30738725373181" lon="18.92547436053952"><ele>1464.0</ele><time>2026-05-03T13:27:06Z</time></trkpt><trkpt lat="43.3074307787753" lon="18.925310327671816"><ele>1464.0</ele><time>2026-05-03T13:27:07Z</time></trkpt><trkpt lat="43.30747241643792" lon="18.92514014461739"><ele>1464.0</ele><time>2026-05-03T13:27:08Z</time></trkpt><trkpt lat="43.30751126025497" lon="18.92496804056696"><ele>1464.0</ele><time>2026-05-03T13:27:09Z</time></trkpt><trkpt lat="43.30755507594994" lon="18.924800313969193"><ele>1464.0</ele><time>2026-05-03T13:27:10Z</time></trkpt><trkpt lat="43.307607000844314" lon="18.924646251625457"><ele>1460.5</ele><time>2026-05-03T13:27:11Z</time></trkpt><trkpt lat="43.30765894233278" lon="18.924492246533948"><ele>1457.0</ele><time>2026-05-03T13:27:12Z</time></trkpt><trkpt lat="43.30772714018145" lon="18.924370012761443"><ele>1453.5</ele><time>2026-05-03T13:27:13Z</time></trkpt><trkpt lat="43.30780515822632" lon="18.92424245626208"><ele>1450.0</ele><time>2026-05-03T13:27:14Z</time></trkpt><trkpt lat="43.307903510003854" lon="18.92410555502216"><ele>1449.0</ele><time>2026-05-03T13:27:15Z</time></trkpt><trkpt lat="43.308001897347744" lon="18.923968868217795"><ele>1448.0</ele><time>2026-05-03T13:27:16Z</time></trkpt><trkpt lat="43.30810045789815" lon="18.923862948331674"><ele>1447.0</ele><time>2026-05-03T13:27:17Z</time></trkpt><trkpt lat="43.30820131077003" lon="18.923760160674654"><ele>1446.0</ele><time>2026-05-03T13:27:18Z</time></trkpt><trkpt lat="43.30830152366162" lon="18.923670472378927"><ele>1446.0</ele><time>2026-05-03T13:27:19Z</time></trkpt><trkpt lat="43.30840437828568" lon="18.923581316649038"><ele>1446.0</ele><time>2026-05-03T13:27:20Z</time></trkpt><trkpt lat="43.308505551706276" lon="18.923478368599135"><ele>1446.0</ele><time>2026-05-03T13:27:21Z</time></trkpt><trkpt lat="43.30862145950172" lon="18.923387178009765"><ele>1446.0</ele><time>2026-05-03T13:27:22Z</time></trkpt><trkpt lat="43.30872660434414" lon="18.923281301343444"><ele>1443.25</ele><time>2026-05-03T13:27:23Z</time></trkpt><trkpt lat="43.30883821742836" lon="18.92318556032117"><ele>1440.5</ele><time>2026-05-03T13:27:24Z</time></trkpt><trkpt lat="43.30895917750131" lon="18.923124381990508"><ele>1437.75</ele><time>2026-05-03T13:27:25Z</time></trkpt><trkpt lat="43.3090777179166" lon="18.923059856284464"><ele>1435.0</ele><time>2026-05-03T13:27:26Z</time></trkpt><trkpt lat="43.309200332156244" lon="18.923000803339914"><ele>1435.0</ele><time>2026-05-03T13:27:27Z</time></trkpt><trkpt lat="43.30931704776152" lon="18.92294408583654"><ele>1435.0</ele><time>2026-05-03T13:27:28Z</time></trkpt><trkpt lat="43.309426563695425" lon="18.922883425939546"><ele>1435.0</ele><time>2026-05-03T13:27:29Z</time></trkpt><trkpt lat="43.309534206438286" lon="18.922862625781054"><ele>1435.0</ele><time>2026-05-03T13:27:30Z</time></trkpt><trkpt lat="43.309623574800064" lon="18.922944036260176"><ele>1435.0</ele><time>2026-05-03T13:27:31Z</time></trkpt><trkpt lat="43.30969100844102" lon="18.92303817506251"><ele>1435.0</ele><time>2026-05-03T13:27:32Z</time></trkpt><trkpt lat="43.30975557081322" lon="18.923137852730303"><ele>1435.0</ele><time>2026-05-03T13:27:33Z</time></trkpt><trkpt lat="43.30982849410668" lon="18.923227092763007"><ele>1435.0</ele><time>2026-05-03T13:27:34Z</time></trkpt><trkpt lat="43.309939375699564" lon="18.923244822352174"><ele>1435.0</ele><time>2026-05-03T13:27:35Z</time></trkpt><trkpt lat="43.310039198463606" lon="18.92324460415347"><ele>1433.8</ele><time>2026-05-03T13:27:36Z</time></trkpt><trkpt lat="43.31013852099245" lon="18.923202340763794"><ele>1432.6</ele><time>2026-05-03T13:27:37Z</time></trkpt><trkpt lat="43.310207490425334" lon="18.92303724990554"><ele>1431.4</ele><time>2026-05-03T13:27:38Z</time></trkpt><trkpt lat="43.310277649155154" lon="18.92293653947285"><ele>1430.2</ele><time>2026-05-03T13:27:39Z</time></trkpt><trkpt lat="43.3103549854709" lon="18.922856687311512"><ele>1429.0</ele><time>2026-05-03T13:27:40Z</time></trkpt><trkpt lat="43.310446700214754" lon="18.92287237467611"><ele>1429.0</ele><time>2026-05-03T13:27:41Z</time></trkpt><trkpt lat="43.310541845521165" lon="18.922864371914713"><ele>1429.0</ele><time>2026-05-03T13:27:42Z</time></trkpt><trkpt lat="43.31063969893467" lon="18.922866334138945"><ele>1429.0</ele><time>2026-05-03T13:27:43Z</time></trkpt><trkpt lat="43.310734607571334" lon="18.922880097880345"><ele>1429.0</ele><time>2026-05-03T13:27:44Z</time></trkpt><trkpt lat="43.310805855030324" lon="18.92294320257534"><ele>1429.0</ele><time>2026-05-03T13:27:45Z</time></trkpt><trkpt lat="43.31084582537986" lon="18.923043525381715"><ele>1427.2</ele><time>2026-05-03T13:27:46Z</time></trkpt><trkpt lat="43.31089223496801" lon="18.923156113564495"><ele>1425.4</ele><time>2026-05-03T13:27:47Z</time></trkpt><trkpt lat="43.3109333173439" lon="18.923297384924584"><ele>1423.6</ele><time>2026-05-03T13:27:48Z</time></trkpt><trkpt lat="43.31095362616007" lon="18.923434300200174"><ele>1421.8</ele><time>2026-05-03T13:27:49Z</time></trkpt><trkpt lat="43.310976385392635" lon="18.923569575221045"><ele>1420.0</ele><time>2026-05-03T13:27:50Z</time></trkpt><trkpt lat="43.31097638604925" lon="18.923701826378934"><ele>1420.0</ele><time>2026-05-03T13:27:51Z</time></trkpt><trkpt lat="43.31096054638706" lon="18.923821646660315"><ele>1420.0</ele><time>2026-05-03T13:27:52Z</time></trkpt><trkpt lat="43.310989799813406" lon="18.923930362897885"><ele>1420.0</ele><time>2026-05-03T13:27:53Z</time></trkpt><trkpt lat="43.31104347798329" lon="18.924023325317954"><ele>1420.0</ele><time>2026-05-03T13:27:54Z</time></trkpt><trkpt lat="43.311103384062015" lon="18.92408185583119"><ele>1420.0</ele><time>2026-05-03T13:27:55Z</time></trkpt><trkpt lat="43.311204694723" lon="18.92409061024873"><ele>1420.0</ele><time>2026-05-03T13:27:56Z</time></trkpt><trkpt lat="43.31129434010703" lon="18.924063262146515"><ele>1420.0</ele><time>2026-05-03T13:27:57Z</time></trkpt><trkpt lat="43.311374694444176" lon="18.923954136632275"><ele>1420.0</ele><time>2026-05-03T13:27:58Z</time></trkpt><trkpt lat="43.31143191263098" lon="18.923824363644272"><ele>1420.0</ele><time>2026-05-03T13:27:59Z</time></trkpt><trkpt lat="43.31148196132605" lon="18.923683648875112"><ele>1420.0</ele><time>2026-05-03T13:28:00Z</time></trkpt><trkpt lat="43.31153039539238" lon="18.923539526622168"><ele>1415.0</ele><time>2026-05-03T13:28:01Z</time></trkpt><trkpt lat="43.31155328093883" lon="18.923390227552954"><ele>1410.0</ele><time>2026-05-03T13:28:02Z</time></trkpt><trkpt lat="43.311606804884335" lon="18.923256654957054"><ele>1405.0</ele><time>2026-05-03T13:28:03Z</time></trkpt><trkpt lat="43.3116400236574" lon="18.92310768752027"><ele>1400.0</ele><time>2026-05-03T13:28:04Z</time></trkpt><trkpt lat="43.31165719428463" lon="18.92294908185452"><ele>1400.0</ele><time>2026-05-03T13:28:05Z</time></trkpt><trkpt lat="43.311688507753075" lon="18.922789937619495"><ele>1400.0</ele><time>2026-05-03T13:28:06Z</time></trkpt><trkpt lat="43.31173436238633" lon="18.922617707341658"><ele>1400.0</ele><time>2026-05-03T13:28:07Z</time></trkpt><trkpt lat="43.311781121391725" lon="18.922442307697104"><ele>1400.0</ele><time>2026-05-03T13:28:08Z</time></trkpt><trkpt lat="43.311879897039155" lon="18.922314503304683"><ele>1398.5</ele><time>2026-05-03T13:28:09Z</time></trkpt><trkpt lat="43.31200243732525" lon="18.92221058874998"><ele>1397.0</ele><time>2026-05-03T13:28:10Z</time></trkpt><trkpt lat="43.312116070976" lon="18.922093403159483"><ele>1395.5</ele><time>2026-05-03T13:28:11Z</time></trkpt><trkpt lat="43.31224498433998" lon="18.922105877472422"><ele>1394.0</ele><time>2026-05-03T13:28:12Z</time></trkpt><trkpt lat="43.312363355846706" lon="18.922132198956845"><ele>1394.0</ele><time>2026-05-03T13:28:13Z</time></trkpt><trkpt lat="43.31247318392101" lon="18.922200009633166"><ele>1394.0</ele><time>2026-05-03T13:28:14Z</time></trkpt><trkpt lat="43.3125921367883" lon="18.922260747637935"><ele>1394.0</ele><time>2026-05-03T13:28:15Z</time></trkpt><trkpt lat="43.31271223884318" lon="18.922287277449005"><ele>1394.0</ele><time>2026-05-03T13:28:16Z</time></trkpt><trkpt lat="43.31284570647632" lon="18.922260247555805"><ele>1394.0</ele><time>2026-05-03T13:28:17Z</time></trkpt><trkpt lat="43.3129619948256" lon="18.92214669859062"><ele>1394.0</ele><time>2026-05-03T13:28:18Z</time></trkpt><trkpt lat="43.31305387655019" lon="18.921998417243497"><ele>1394.0</ele><time>2026-05-03T13:28:19Z</time></trkpt><trkpt lat="43.31305906829491" lon="18.92177477927775"><ele>1394.0</ele><time>2026-05-03T13:28:20Z</time></trkpt><trkpt lat="43.31306915533597" lon="18.921578863937643"><ele>1390.25</ele><time>2026-05-03T13:28:21Z</time></trkpt><trkpt lat="43.3130874473264" lon="18.92138472825439"><ele>1386.5</ele><time>2026-05-03T13:28:22Z</time></trkpt><trkpt lat="43.31314228407832" lon="18.921207286314043"><ele>1382.75</ele><time>2026-05-03T13:28:23Z</time></trkpt><trkpt lat="43.313202977961225" lon="18.92101728072036"><ele>1379.0</ele><time>2026-05-03T13:28:24Z</time></trkpt><trkpt lat="43.313265931377515" lon="18.920821572834"><ele>1376.25</ele><time>2026-05-03T13:28:25Z</time></trkpt><trkpt lat="43.313323880289076" lon="18.920640483099767"><ele>1373.5</ele><time>2026-05-03T13:28:26Z</time></trkpt><trkpt lat="43.31337857443601" lon="18.920466704275352"><ele>1370.75</ele><time>2026-05-03T13:28:27Z</time></trkpt><trkpt lat="43.31342270283459" lon="18.920308777784182"><ele>1368.0</ele><time>2026-05-03T13:28:28Z</time></trkpt><trkpt lat="43.31343376057745" lon="18.92013982528305"><ele>1366.8000000000002</ele><time>2026-05-03T13:28:29Z</time></trkpt><trkpt lat="43.313416007178596" lon="18.91998015089006"><ele>1365.6</ele><time>2026-05-03T13:28:30Z</time></trkpt><trkpt lat="43.313374023920886" lon="18.919831847021833"><ele>1364.4</ele><time>2026-05-03T13:28:31Z</time></trkpt><trkpt lat="43.31335904470204" lon="18.919697617093618"><ele>1363.1999999999998</ele><time>2026-05-03T13:28:32Z</time></trkpt><trkpt lat="43.313411308549725" lon="18.919580397748877"><ele>1362.0</ele><time>2026-05-03T13:28:33Z</time></trkpt><trkpt lat="43.313467598711185" lon="18.91948271242332"><ele>1362.0</ele><time>2026-05-03T13:28:34Z</time></trkpt><trkpt lat="43.3135266363041" lon="18.919420797636224"><ele>1362.0</ele><time>2026-05-03T13:28:35Z</time></trkpt><trkpt lat="43.313602105722815" lon="18.91936897532212"><ele>1362.0</ele><time>2026-05-03T13:28:36Z</time></trkpt><trkpt lat="43.31368937031889" lon="18.919312740714663"><ele>1362.0</ele><time>2026-05-03T13:28:37Z</time></trkpt><trkpt lat="43.313782908250374" lon="18.919330881776183"><ele>1362.0</ele><time>2026-05-03T13:28:38Z</time></trkpt><trkpt lat="43.31385930382905" lon="18.91939470054596"><ele>1362.0</ele><time>2026-05-03T13:28:39Z</time></trkpt><trkpt lat="43.31392483581964" lon="18.919495852906937"><ele>1361.8</ele><time>2026-05-03T13:28:40Z</time></trkpt><trkpt lat="43.31402731332846" lon="18.919549277670008"><ele>1361.6</ele><time>2026-05-03T13:28:41Z</time></trkpt><trkpt lat="43.31410814977593" lon="18.9195668346587"><ele>1361.3999999999999</ele><time>2026-05-03T13:28:42Z</time></trkpt><trkpt lat="43.31420077167854" lon="18.919541105269936"><ele>1361.1999999999998</ele><time>2026-05-03T13:28:43Z</time></trkpt><trkpt lat="43.31425176935715" lon="18.919398798497614"><ele>1361.0</ele><time>2026-05-03T13:28:44Z</time></trkpt><trkpt lat="43.31422457146819" lon="18.91924135784114"><ele>1360.8</ele><time>2026-05-03T13:28:45Z</time></trkpt><trkpt lat="43.31421694047928" lon="18.919105423948558"><ele>1360.6</ele><time>2026-05-03T13:28:46Z</time></trkpt><trkpt lat="43.31422546258449" lon="18.918958859971234"><ele>1360.4</ele><time>2026-05-03T13:28:47Z</time></trkpt><trkpt lat="43.31424108824659" lon="18.918813598169855"><ele>1360.2</ele><time>2026-05-03T13:28:48Z</time></trkpt><trkpt lat="43.31425527889772" lon="18.918677674080776"><ele>1360.0</ele><time>2026-05-03T13:28:49Z</time></trkpt><trkpt lat="43.3142506252954" lon="18.918563203667897"><ele>1360.0</ele><time>2026-05-03T13:28:50Z</time></trkpt><trkpt lat="43.31418304497713" lon="18.918475366206856"><ele>1360.0</ele><time>2026-05-03T13:28:51Z</time></trkpt><trkpt lat="43.3140924403811" lon="18.918400564303486"><ele>1360.0</ele><time>2026-05-03T13:28:52Z</time></trkpt><trkpt lat="43.314019584768694" lon="18.91830151236953"><ele>1360.0</ele><time>2026-05-03T13:28:53Z</time></trkpt><trkpt lat="43.313975088893685" lon="18.91816415268617"><ele>1360.0</ele><time>2026-05-03T13:28:54Z</time></trkpt><trkpt lat="43.31392013692902" lon="18.918057308311845"><ele>1359.25</ele><time>2026-05-03T13:28:55Z</time></trkpt><trkpt lat="43.31394935588201" lon="18.917843971059714"><ele>1358.5</ele><time>2026-05-03T13:28:56Z</time></trkpt><trkpt lat="43.313894910379936" lon="18.917716012440835"><ele>1357.75</ele><time>2026-05-03T13:28:57Z</time></trkpt><trkpt lat="43.3138137775374" lon="18.917609332833248"><ele>1357.0</ele><time>2026-05-03T13:28:58Z</time></trkpt><trkpt lat="43.3137427165142" lon="18.917493905011504"><ele>1355.8</ele><time>2026-05-03T13:28:59Z</time></trkpt><trkpt lat="43.31370637762753" lon="18.917355376058204"><ele>1354.6</ele><time>2026-05-03T13:29:00Z</time></trkpt><trkpt lat="43.31370524259438" lon="18.91720343284881"><ele>1353.3999999999999</ele><time>2026-05-03T13:29:01Z</time></trkpt><trkpt lat="43.31371152642417" lon="18.917052536452253"><ele>1352.1999999999998</ele><time>2026-05-03T13:29:02Z</time></trkpt><trkpt lat="43.31369682979387" lon="18.91690275664081"><ele>1351.0</ele><time>2026-05-03T13:29:03Z</time></trkpt><trkpt lat="43.313650506238474" lon="18.91677775938324"><ele>1351.25</ele><time>2026-05-03T13:29:04Z</time></trkpt><trkpt lat="43.31358639814249" lon="18.916639455837473"><ele>1351.5</ele><time>2026-05-03T13:29:05Z</time></trkpt><trkpt lat="43.31354745651128" lon="18.916503190705022"><ele>1351.75</ele><time>2026-05-03T13:29:06Z</time></trkpt><trkpt lat="43.31354849198611" lon="18.916355913249543"><ele>1352.0</ele><time>2026-05-03T13:29:07Z</time></trkpt><trkpt lat="43.313585389053834" lon="18.916203444535974"><ele>1352.0</ele><time>2026-05-03T13:29:08Z</time></trkpt><trkpt lat="43.31364101632082" lon="18.91607779162667"><ele>1352.0</ele><time>2026-05-03T13:29:09Z</time></trkpt><trkpt lat="43.31372774769292" lon="18.915993115736942"><ele>1352.0</ele><time>2026-05-03T13:29:10Z</time></trkpt><trkpt lat="43.31382819712472" lon="18.915929850541367"><ele>1352.0</ele><time>2026-05-03T13:29:11Z</time></trkpt><trkpt lat="43.313929359259674" lon="18.915876297815576"><ele>1352.0</ele><time>2026-05-03T13:29:12Z</time></trkpt><trkpt lat="43.31398735931096" lon="18.91575886856733"><ele>1347.0</ele><time>2026-05-03T13:29:13Z</time></trkpt><trkpt lat="43.31402943388716" lon="18.915606142557532"><ele>1342.0</ele><time>2026-05-03T13:29:14Z</time></trkpt><trkpt lat="43.31403722821208" lon="18.915432326598516"><ele>1337.0</ele><time>2026-05-03T13:29:15Z</time></trkpt><trkpt lat="43.31403590010531" lon="18.91525186645428"><ele>1332.0</ele><time>2026-05-03T13:29:16Z</time></trkpt><trkpt lat="43.31404806095036" lon="18.91508041228693"><ele>1330.75</ele><time>2026-05-03T13:29:17Z</time></trkpt><trkpt lat="43.314071484084465" lon="18.91490044324251"><ele>1329.5</ele><time>2026-05-03T13:29:18Z</time></trkpt><trkpt lat="43.31410143312575" lon="18.91471719435065"><ele>1328.25</ele><time>2026-05-03T13:29:19Z</time></trkpt><trkpt lat="43.31414261843424" lon="18.914550606699322"><ele>1327.0</ele><time>2026-05-03T13:29:20Z</time></trkpt><trkpt lat="43.31419228902472" lon="18.914394635078015"><ele>1326.3999999999999</ele><time>2026-05-03T13:29:21Z</time></trkpt><trkpt lat="43.31423418196949" lon="18.914235764982674"><ele>1325.8</ele><time>2026-05-03T13:29:22Z</time></trkpt><trkpt lat="43.31426858677501" lon="18.91408885999354"><ele>1325.2</ele><time>2026-05-03T13:29:23Z</time></trkpt><trkpt lat="43.31428846270923" lon="18.913951967759402"><ele>1324.6</ele><time>2026-05-03T13:29:24Z</time></trkpt><trkpt lat="43.31427413514856" lon="18.913831566774018"><ele>1324.0</ele><time>2026-05-03T13:29:25Z</time></trkpt><trkpt lat="43.31421454228952" lon="18.913723157564213"><ele>1324.0</ele><time>2026-05-03T13:29:26Z</time></trkpt><trkpt lat="43.31411815086426" lon="18.913669046427536"><ele>1324.0</ele><time>2026-05-03T13:29:27Z</time></trkpt><trkpt lat="43.31401685972006" lon="18.913662621597616"><ele>1324.0</ele><time>2026-05-03T13:29:28Z</time></trkpt><trkpt lat="43.31391014673215" lon="18.913647690557138"><ele>1324.0</ele><time>2026-05-03T13:29:29Z</time></trkpt><trkpt lat="43.31380963113539" lon="18.913625110832776"><ele>1324.0</ele><time>2026-05-03T13:29:30Z</time></trkpt><trkpt lat="43.313728016389604" lon="18.913555417752733"><ele>1323.8000000000002</ele><time>2026-05-03T13:29:31Z</time></trkpt><trkpt lat="43.31365592154164" lon="18.913468321233374"><ele>1323.6000000000001</ele><time>2026-05-03T13:29:32Z</time></trkpt><trkpt lat="43.31360622035181" lon="18.913360627258037"><ele>1323.4</ele><time>2026-05-03T13:29:33Z</time></trkpt><trkpt lat="43.31360006544668" lon="18.913222722354313"><ele>1323.2</ele><time>2026-05-03T13:29:34Z</time></trkpt><trkpt lat="43.31361213257255" lon="18.913097289826375"><ele>1323.0</ele><time>2026-05-03T13:29:35Z</time></trkpt><trkpt lat="43.3136295010538" lon="18.912973965206106"><ele>1323.0</ele><time>2026-05-03T13:29:36Z</time></trkpt><trkpt lat="43.31364686264514" lon="18.91282852665168"><ele>1323.0</ele><time>2026-05-03T13:29:37Z</time></trkpt><trkpt lat="43.31367027207908" lon="18.912691410028174"><ele>1323.0</ele><time>2026-05-03T13:29:38Z</time></trkpt><trkpt lat="43.31370786266614" lon="18.912551970992176"><ele>1323.0</ele><time>2026-05-03T13:29:39Z</time></trkpt><trkpt lat="43.31376292493307" lon="18.912433106444446"><ele>1323.0</ele><time>2026-05-03T13:29:40Z</time></trkpt><trkpt lat="43.313826427312" lon="18.912319489160527"><ele>1323.2</ele><time>2026-05-03T13:29:41Z</time></trkpt><trkpt lat="43.31386769222312" lon="18.912196485605875"><ele>1323.4</ele><time>2026-05-03T13:29:42Z</time></trkpt><trkpt lat="43.31385842522011" lon="18.912061423657835"><ele>1323.6000000000001</ele><time>2026-05-03T13:29:43Z</time></trkpt><trkpt lat="43.31379508851135" lon="18.91195172248865"><ele>1323.8000000000002</ele><time>2026-05-03T13:29:44Z</time></trkpt><trkpt lat="43.31370019188075" lon="18.911893144577586"><ele>1324.0</ele><time>2026-05-03T13:29:45Z</time></trkpt><trkpt lat="43.31360791666608" lon="18.91183524918194"><ele>1324.0</ele><time>2026-05-03T13:29:46Z</time></trkpt><trkpt lat="43.31354594918866" lon="18.911749909933388"><ele>1324.0</ele><time>2026-05-03T13:29:47Z</time></trkpt><trkpt lat="43.31352708067926" lon="18.91162743374371"><ele>1324.0</ele><time>2026-05-03T13:29:48Z</time></trkpt><trkpt lat="43.31355222922532" lon="18.911486919290947"><ele>1324.0</ele><time>2026-05-03T13:29:49Z</time></trkpt><trkpt lat="43.31358939071907" lon="18.911355278848045"><ele>1324.0</ele><time>2026-05-03T13:29:50Z</time></trkpt><trkpt lat="43.313605077673785" lon="18.911228215740643"><ele>1322.8000000000002</ele><time>2026-05-03T13:29:51Z</time></trkpt><trkpt lat="43.31355653070461" lon="18.911107462182628"><ele>1321.6000000000001</ele><time>2026-05-03T13:29:52Z</time></trkpt><trkpt lat="43.31347365042155" lon="18.911016093656432"><ele>1320.4</ele><time>2026-05-03T13:29:53Z</time></trkpt><trkpt lat="43.31337010558804" lon="18.91094901485825"><ele>1319.2</ele><time>2026-05-03T13:29:54Z</time></trkpt><trkpt lat="43.31326381910725" lon="18.910885659390814"><ele>1318.0</ele><time>2026-05-03T13:29:55Z</time></trkpt><trkpt lat="43.313160981821525" lon="18.910808005703306"><ele>1316.25</ele><time>2026-05-03T13:29:56Z</time></trkpt><trkpt lat="43.31306180969808" lon="18.910717069091508"><ele>1314.5</ele><time>2026-05-03T13:29:57Z</time></trkpt><trkpt lat="43.312952178533415" lon="18.910627631911368"><ele>1312.75</ele><time>2026-05-03T13:29:58Z</time></trkpt><trkpt lat="43.31284194995372" lon="18.91053864411302"><ele>1311.0</ele><time>2026-05-03T13:29:59Z</time></trkpt><trkpt lat="43.312734682126376" lon="18.910450879859074"><ele>1311.0</ele><time>2026-05-03T13:30:00Z</time></trkpt><trkpt lat="43.31264625859864" lon="18.91035261159087"><ele>1311.0</ele><time>2026-05-03T13:30:01Z</time></trkpt><trkpt lat="43.31258738176222" lon="18.9102378485778"><ele>1311.0</ele><time>2026-05-03T13:30:02Z</time></trkpt><trkpt lat="43.31256018733046" lon="18.910107378380815"><ele>1311.0</ele><time>2026-05-03T13:30:03Z</time></trkpt><trkpt lat="43.31257841417685" lon="18.909976292809183"><ele>1311.0</ele><time>2026-05-03T13:30:04Z</time></trkpt><trkpt lat="43.31262209711837" lon="18.90986113493974"><ele>1308.0</ele><time>2026-05-03T13:30:05Z</time></trkpt><trkpt lat="43.312697708043416" lon="18.909776875337162"><ele>1305.0</ele><time>2026-05-03T13:30:06Z</time></trkpt><trkpt lat="43.312796880860745" lon="18.90971393381582"><ele>1302.0</ele><time>2026-05-03T13:30:07Z</time></trkpt><trkpt lat="43.31292258397151" lon="18.90967933539549"><ele>1299.0</ele><time>2026-05-03T13:30:08Z</time></trkpt><trkpt lat="43.31303987629433" lon="18.90965900236261"><ele>1297.2</ele><time>2026-05-03T13:30:09Z</time></trkpt><trkpt lat="43.313143409421805" lon="18.90963369093586"><ele>1295.4</ele><time>2026-05-03T13:30:10Z</time></trkpt><trkpt lat="43.313229200593874" lon="18.90956175084639"><ele>1293.6</ele><time>2026-05-03T13:30:11Z</time></trkpt><trkpt lat="43.31328296306605" lon="18.909448400553472"><ele>1291.8</ele><time>2026-05-03T13:30:12Z</time></trkpt><trkpt lat="43.313301003561975" lon="18.9093097454368"><ele>1290.0</ele><time>2026-05-03T13:30:13Z</time></trkpt><trkpt lat="43.31330679619813" lon="18.90915737380212"><ele>1290.0</ele><time>2026-05-03T13:30:14Z</time></trkpt><trkpt lat="43.31331186927523" lon="18.908996588687256"><ele>1290.0</ele><time>2026-05-03T13:30:15Z</time></trkpt><trkpt lat="43.31332438854765" lon="18.908844776088966"><ele>1290.0</ele><time>2026-05-03T13:30:16Z</time></trkpt><trkpt lat="43.313347770436046" lon="18.908697393591364"><ele>1290.0</ele><time>2026-05-03T13:30:17Z</time></trkpt><trkpt lat="43.3134022100608" lon="18.90856598106178"><ele>1290.0</ele><time>2026-05-03T13:30:18Z</time></trkpt><trkpt lat="43.31347486568278" lon="18.90845635003529"><ele>1289.75</ele><time>2026-05-03T13:30:19Z</time></trkpt><trkpt lat="43.31354817094188" lon="18.908342214663165"><ele>1289.5</ele><time>2026-05-03T13:30:20Z</time></trkpt><trkpt lat="43.31359778474639" lon="18.90820097590546"><ele>1289.25</ele><time>2026-05-03T13:30:21Z</time></trkpt><trkpt lat="43.313626245586036" lon="18.908034845589125"><ele>1289.0</ele><time>2026-05-03T13:30:22Z</time></trkpt><trkpt lat="43.31363602096762" lon="18.907862478862228"><ele>1289.0</ele><time>2026-05-03T13:30:23Z</time></trkpt><trkpt lat="43.313611348644926" lon="18.907685256670565"><ele>1289.0</ele><time>2026-05-03T13:30:24Z</time></trkpt><trkpt lat="43.313562469303356" lon="18.907526103531907"><ele>1289.0</ele><time>2026-05-03T13:30:25Z</time></trkpt><trkpt lat="43.3134855962271" lon="18.9073896354107"><ele>1289.0</ele><time>2026-05-03T13:30:26Z</time></trkpt><trkpt lat="43.31338427147802" lon="18.907276257372537"><ele>1287.0</ele><time>2026-05-03T13:30:27Z</time></trkpt><trkpt lat="43.31327854231462" lon="18.907188762694105"><ele>1285.0</ele><time>2026-05-03T13:30:28Z</time></trkpt><trkpt lat="43.31317250020248" lon="18.907112875401257"><ele>1283.0</ele><time>2026-05-03T13:30:29Z</time></trkpt><trkpt lat="43.31306884311998" lon="18.907030839101736"><ele>1281.0</ele><time>2026-05-03T13:30:30Z</time></trkpt><trkpt lat="43.31297888256084" lon="18.90693851347928"><ele>1285.25</ele><time>2026-05-03T13:30:31Z</time></trkpt><trkpt lat="43.312902386858816" lon="18.906824062038936"><ele>1289.5</ele><time>2026-05-03T13:30:32Z</time></trkpt><trkpt lat="43.31286528292771" lon="18.9066756456942"><ele>1293.75</ele><time>2026-05-03T13:30:33Z</time></trkpt><trkpt lat="43.31286967020507" lon="18.90651150164279"><ele>1298.0</ele><time>2026-05-03T13:30:34Z</time></trkpt><trkpt lat="43.312891903910256" lon="18.906358263634775"><ele>1298.0</ele><time>2026-05-03T13:30:35Z</time></trkpt><trkpt lat="43.31291014500832" lon="18.90621070826456"><ele>1298.0</ele><time>2026-05-03T13:30:36Z</time></trkpt><trkpt lat="43.312921181951516" lon="18.90606586461835"><ele>1298.0</ele><time>2026-05-03T13:30:37Z</time></trkpt><trkpt lat="43.31289929170192" lon="18.905926577250405"><ele>1298.0</ele><time>2026-05-03T13:30:38Z</time></trkpt><trkpt lat="43.31283383895252" lon="18.905797714828115"><ele>1298.0</ele><time>2026-05-03T13:30:39Z</time></trkpt><trkpt lat="43.312744569268226" lon="18.905684426671034"><ele>1295.75</ele><time>2026-05-03T13:30:40Z</time></trkpt><trkpt lat="43.31263871878808" lon="18.90558852497874"><ele>1293.5</ele><time>2026-05-03T13:30:41Z</time></trkpt><trkpt lat="43.31254524658013" lon="18.905477243177444"><ele>1291.25</ele><time>2026-05-03T13:30:42Z</time></trkpt><trkpt lat="43.312480703787664" lon="18.90533220115722"><ele>1289.0</ele><time>2026-05-03T13:30:43Z</time></trkpt><trkpt lat="43.31244622079867" lon="18.905173469239354"><ele>1284.75</ele><time>2026-05-03T13:30:44Z</time></trkpt><trkpt lat="43.312434770405666" lon="18.905009882802897"><ele>1280.5</ele><time>2026-05-03T13:30:45Z</time></trkpt><trkpt lat="43.31244586719102" lon="18.904855840439645"><ele>1276.25</ele><time>2026-05-03T13:30:46Z</time></trkpt><trkpt lat="43.3124902349907" lon="18.90471549128428"><ele>1272.0</ele><time>2026-05-03T13:30:47Z</time></trkpt><trkpt lat="43.31254498412469" lon="18.90457597488133"><ele>1272.0</ele><time>2026-05-03T13:30:48Z</time></trkpt><trkpt lat="43.31260281494146" lon="18.904441942456515"><ele>1272.0</ele><time>2026-05-03T13:30:49Z</time></trkpt><trkpt lat="43.31268888817326" lon="18.904318214820712"><ele>1272.0</ele><time>2026-05-03T13:30:50Z</time></trkpt><trkpt lat="43.312803511706846" lon="18.904229630283293"><ele>1272.0</ele><time>2026-05-03T13:30:51Z</time></trkpt><trkpt lat="43.312922809971276" lon="18.904173424085112"><ele>1271.8</ele><time>2026-05-03T13:30:52Z</time></trkpt><trkpt lat="43.313023778894156" lon="18.904098654427866"><ele>1271.6</ele><time>2026-05-03T13:30:53Z</time></trkpt><trkpt lat="43.31309235601362" lon="18.90398261873412"><ele>1271.3999999999999</ele><time>2026-05-03T13:30:54Z</time></trkpt><trkpt lat="43.313111395853454" lon="18.903842052603075"><ele>1271.2</ele><time>2026-05-03T13:30:55Z</time></trkpt><trkpt lat="43.31307604509605" lon="18.903695553370966"><ele>1271.0</ele><time>2026-05-03T13:30:56Z</time></trkpt><trkpt lat="43.3130069519431" lon="18.903565584297574"><ele>1271.0</ele><time>2026-05-03T13:30:57Z</time></trkpt><trkpt lat="43.3129650398705" lon="18.903421718886857"><ele>1271.0</ele><time>2026-05-03T13:30:58Z</time></trkpt><trkpt lat="43.312964244366626" lon="18.90325959480007"><ele>1271.0</ele><time>2026-05-03T13:30:59Z</time></trkpt><trkpt lat="43.31298029186591" lon="18.90310463973241"><ele>1271.0</ele><time>2026-05-03T13:31:00Z</time></trkpt><trkpt lat="43.31301924147569" lon="18.90298496310095"><ele>1271.0</ele><time>2026-05-03T13:31:01Z</time></trkpt><trkpt lat="43.31309713466242" lon="18.902921562828734"><ele>1266.3999999999999</ele><time>2026-05-03T13:31:02Z</time></trkpt><trkpt lat="43.313200305595316" lon="18.9029225657362"><ele>1261.8</ele><time>2026-05-03T13:31:03Z</time></trkpt><trkpt lat="43.31329027699347" lon="18.90296071083002"><ele>1257.1999999999998</ele><time>2026-05-03T13:31:04Z</time></trkpt><trkpt lat="43.31338803372702" lon="18.90298381918144"><ele>1252.6</ele><time>2026-05-03T13:31:05Z</time></trkpt><trkpt lat="43.313476000148924" lon="18.902956241731303"><ele>1248.0</ele><time>2026-05-03T13:31:06Z</time></trkpt><trkpt lat="43.313553110448446" lon="18.90285602089012"><ele>1248.0</ele><time>2026-05-03T13:31:07Z</time></trkpt><trkpt lat="43.313600063235945" lon="18.902703714467624"><ele>1248.0</ele><time>2026-05-03T13:31:08Z</time></trkpt><trkpt lat="43.313620111169186" lon="18.90253724148178"><ele>1248.0</ele><time>2026-05-03T13:31:09Z</time></trkpt><trkpt lat="43.313661597851365" lon="18.90239291093503"><ele>1248.0</ele><time>2026-05-03T13:31:10Z</time></trkpt><trkpt lat="43.31370360968294" lon="18.90225847920253"><ele>1249.0</ele><time>2026-05-03T13:31:11Z</time></trkpt><trkpt lat="43.313820021308814" lon="18.902171688322035"><ele>1250.0</ele><time>2026-05-03T13:31:12Z</time></trkpt><trkpt lat="43.31387464890475" lon="18.902082038808896"><ele>1251.0</ele><time>2026-05-03T13:31:13Z</time></trkpt><trkpt lat="43.3138940893859" lon="18.901896235226527"><ele>1252.0</ele><time>2026-05-03T13:31:14Z</time></trkpt><trkpt lat="43.31389667293068" lon="18.90171970954895"><ele>1247.6</ele><time>2026-05-03T13:31:15Z</time></trkpt><trkpt lat="43.31390624948175" lon="18.90156248636066"><ele>1243.2</ele><time>2026-05-03T13:31:16Z</time></trkpt><trkpt lat="43.313929917425135" lon="18.901411914369568"><ele>1238.8</ele><time>2026-05-03T13:31:17Z</time></trkpt><trkpt lat="43.313964676636054" lon="18.901261549103296"><ele>1234.4</ele><time>2026-05-03T13:31:18Z</time></trkpt><trkpt lat="43.314016232754135" lon="18.901134710096375"><ele>1230.0</ele><time>2026-05-03T13:31:19Z</time></trkpt><trkpt lat="43.314086501655716" lon="18.901036670234838"><ele>1230.0</ele><time>2026-05-03T13:31:20Z</time></trkpt><trkpt lat="43.31417924404038" lon="18.90098669431613"><ele>1230.0</ele><time>2026-05-03T13:31:21Z</time></trkpt><trkpt lat="43.31427456806468" lon="18.900969041960966"><ele>1230.0</ele><time>2026-05-03T13:31:22Z</time></trkpt><trkpt lat="43.31436953648384" lon="18.900982999265025"><ele>1230.0</ele><time>2026-05-03T13:31:23Z</time></trkpt><trkpt lat="43.31446404968793" lon="18.90106123727175"><ele>1230.0</ele><time>2026-05-03T13:31:24Z</time></trkpt><trkpt lat="43.3145446531448" lon="18.901176613381654"><ele>1230.0</ele><time>2026-05-03T13:31:25Z</time></trkpt><trkpt lat="43.314622722292846" lon="18.90125215748923"><ele>1230.0</ele><time>2026-05-03T13:31:26Z</time></trkpt><trkpt lat="43.314703722685394" lon="18.901344539203542"><ele>1230.0</ele><time>2026-05-03T13:31:27Z</time></trkpt><trkpt lat="43.31479616663747" lon="18.901422447127803"><ele>1230.0</ele><time>2026-05-03T13:31:28Z</time></trkpt><trkpt lat="43.31489941448911" lon="18.901455533831573"><ele>1230.0</ele><time>2026-05-03T13:31:29Z</time></trkpt><trkpt lat="43.315009143316864" lon="18.901433239344538"><ele>1227.25</ele><time>2026-05-03T13:31:30Z</time></trkpt><trkpt lat="43.31511070671826" lon="18.90137681153881"><ele>1224.5</ele><time>2026-05-03T13:31:31Z</time></trkpt><trkpt lat="43.3151899852713" lon="18.901264599141864"><ele>1221.75</ele><time>2026-05-03T13:31:32Z</time></trkpt><trkpt lat="43.3152568645452" lon="18.901125415839875"><ele>1219.0</ele><time>2026-05-03T13:31:33Z</time></trkpt><trkpt lat="43.31531888053118" lon="18.900981782074904"><ele>1219.0</ele><time>2026-05-03T13:31:34Z</time></trkpt><trkpt lat="43.315378829206864" lon="18.900850727272054"><ele>1219.0</ele><time>2026-05-03T13:31:35Z</time></trkpt><trkpt lat="43.31543431422998" lon="18.90072789029128"><ele>1219.0</ele><time>2026-05-03T13:31:36Z</time></trkpt><trkpt lat="43.31549004385274" lon="18.90061104379983"><ele>1219.0</ele><time>2026-05-03T13:31:37Z</time></trkpt><trkpt lat="43.31554700879594" lon="18.900500056399874"><ele>1219.0</ele><time>2026-05-03T13:31:38Z</time></trkpt><trkpt lat="43.3156114055382" lon="18.90039110697551"><ele>1219.0</ele><time>2026-05-03T13:31:39Z</time></trkpt><trkpt lat="43.31569298472226" lon="18.900304742413805"><ele>1219.0</ele><time>2026-05-03T13:31:40Z</time></trkpt><trkpt lat="43.31580122096041" lon="18.900284382290817"><ele>1219.0</ele><time>2026-05-03T13:31:41Z</time></trkpt><trkpt lat="43.31591467360639" lon="18.900294996340914"><ele>1219.0</ele><time>2026-05-03T13:31:42Z</time></trkpt><trkpt lat="43.31600695907974" lon="18.9003835517395"><ele>1219.0</ele><time>2026-05-03T13:31:43Z</time></trkpt><trkpt lat="43.3160919925643" lon="18.900497283665903"><ele>1219.0</ele><time>2026-05-03T13:31:44Z</time></trkpt><trkpt lat="43.31617724434132" lon="18.900641957973193"><ele>1219.0</ele><time>2026-05-03T13:31:45Z</time></trkpt><trkpt lat="43.31627805637825" lon="18.900759348246766"><ele>1219.0</ele><time>2026-05-03T13:31:46Z</time></trkpt><trkpt lat="43.316394974973385" lon="18.90087534217611"><ele>1219.0</ele><time>2026-05-03T13:31:47Z</time></trkpt><trkpt lat="43.31653300446741" lon="18.900975763788086"><ele>1215.5</ele><time>2026-05-03T13:31:48Z</time></trkpt><trkpt lat="43.316663214058316" lon="18.901084526830047"><ele>1212.0</ele><time>2026-05-03T13:31:49Z</time></trkpt><trkpt lat="43.31675981101882" lon="18.901230762298997"><ele>1208.5</ele><time>2026-05-03T13:31:50Z</time></trkpt><trkpt lat="43.31684604309171" lon="18.901375401716255"><ele>1205.0</ele><time>2026-05-03T13:31:51Z</time></trkpt><trkpt lat="43.3168986230721" lon="18.90154368961709"><ele>1205.0</ele><time>2026-05-03T13:31:52Z</time></trkpt><trkpt lat="43.31698594554587" lon="18.90166277504355"><ele>1205.0</ele><time>2026-05-03T13:31:53Z</time></trkpt><trkpt lat="43.317079751492585" lon="18.901741227565914"><ele>1205.0</ele><time>2026-05-03T13:31:54Z</time></trkpt><trkpt lat="43.317194998867464" lon="18.901784176452583"><ele>1205.0</ele><time>2026-05-03T13:31:55Z</time></trkpt><trkpt lat="43.31731883442637" lon="18.90177480497259"><ele>1205.25</ele><time>2026-05-03T13:31:56Z</time></trkpt><trkpt lat="43.317426538659994" lon="18.901707869260473"><ele>1205.5</ele><time>2026-05-03T13:31:57Z</time></trkpt><trkpt lat="43.31752725114349" lon="18.901645116746877"><ele>1205.75</ele><time>2026-05-03T13:31:58Z</time></trkpt><trkpt lat="43.31757740521334" lon="18.901467233086166"><ele>1206.0</ele><time>2026-05-03T13:31:59Z</time></trkpt><trkpt lat="43.31761442266291" lon="18.901312457275544"><ele>1206.0</ele><time>2026-05-03T13:32:00Z</time></trkpt><trkpt lat="43.31764053450805" lon="18.901159022627752"><ele>1206.0</ele><time>2026-05-03T13:32:01Z</time></trkpt><trkpt lat="43.317714407062425" lon="18.901051521468847"><ele>1206.0</ele><time>2026-05-03T13:32:02Z</time></trkpt><trkpt lat="43.317807601918695" lon="18.900969341083375"><ele>1206.0</ele><time>2026-05-03T13:32:03Z</time></trkpt><trkpt lat="43.31793959833699" lon="18.900933348529975"><ele>1203.75</ele><time>2026-05-03T13:32:04Z</time></trkpt><trkpt lat="43.318080817770024" lon="18.90087704412535"><ele>1201.5</ele><time>2026-05-03T13:32:05Z</time></trkpt><trkpt lat="43.318210625604415" lon="18.90079225679302"><ele>1199.25</ele><time>2026-05-03T13:32:06Z</time></trkpt><trkpt lat="43.31832607704632" lon="18.900689079281424"><ele>1197.0</ele><time>2026-05-03T13:32:07Z</time></trkpt><trkpt lat="43.31842272676494" lon="18.900538081749815"><ele>1197.0</ele><time>2026-05-03T13:32:08Z</time></trkpt><trkpt lat="43.31849641733975" lon="18.90036959046094"><ele>1197.0</ele><time>2026-05-03T13:32:09Z</time></trkpt><trkpt lat="43.318553075503985" lon="18.900178574217737"><ele>1197.0</ele><time>2026-05-03T13:32:10Z</time></trkpt><trkpt lat="43.318622814569345" lon="18.899999396292383"><ele>1197.0</ele><time>2026-05-03T13:32:11Z</time></trkpt><trkpt lat="43.31869414587748" lon="18.899812065067852"><ele>1194.3333333333333</ele><time>2026-05-03T13:32:12Z</time></trkpt><trkpt lat="43.318766823178315" lon="18.89962703424428"><ele>1191.6666666666665</ele><time>2026-05-03T13:32:13Z</time></trkpt><trkpt lat="43.31885576603188" lon="18.899458142398927"><ele>1189.0</ele><time>2026-05-03T13:32:14Z</time></trkpt><trkpt lat="43.318945067662" lon="18.899287902703698"><ele>1188.5</ele><time>2026-05-03T13:32:15Z</time></trkpt><trkpt lat="43.31903280770623" lon="18.899126279882353"><ele>1188.0</ele><time>2026-05-03T13:32:16Z</time></trkpt><trkpt lat="43.31908487588136" lon="18.898946328095143"><ele>1187.5</ele><time>2026-05-03T13:32:17Z</time></trkpt><trkpt lat="43.31913143497299" lon="18.898752532264947"><ele>1187.0</ele><time>2026-05-03T13:32:18Z</time></trkpt><trkpt lat="43.319196457282224" lon="18.89857233377911"><ele>1187.25</ele><time>2026-05-03T13:32:19Z</time></trkpt><trkpt lat="43.319247467319876" lon="18.898395052823357"><ele>1187.5</ele><time>2026-05-03T13:32:20Z</time></trkpt><trkpt lat="43.319284044421124" lon="18.898222799045197"><ele>1187.75</ele><time>2026-05-03T13:32:21Z</time></trkpt><trkpt lat="43.319345277578456" lon="18.898082384623834"><ele>1188.0</ele><time>2026-05-03T13:32:22Z</time></trkpt><trkpt lat="43.3194474557276" lon="18.898018739738927"><ele>1188.0</ele><time>2026-05-03T13:32:23Z</time></trkpt><trkpt lat="43.31953720401824" lon="18.897946657175957"><ele>1188.0</ele><time>2026-05-03T13:32:24Z</time></trkpt><trkpt lat="43.31962141514679" lon="18.897879355511158"><ele>1188.0</ele><time>2026-05-03T13:32:25Z</time></trkpt><trkpt lat="43.31970204226663" lon="18.89777906252522"><ele>1188.0</ele><time>2026-05-03T13:32:26Z</time></trkpt><trkpt lat="43.31984817222939" lon="18.897789971888226"><ele>1185.8</ele><time>2026-05-03T13:32:27Z</time></trkpt><trkpt lat="43.3199507461126" lon="18.89774299349044"><ele>1183.6</ele><time>2026-05-03T13:32:28Z</time></trkpt><trkpt lat="43.32006325438387" lon="18.897703849740935"><ele>1181.4</ele><time>2026-05-03T13:32:29Z</time></trkpt><trkpt lat="43.32017091426778" lon="18.89769085366772"><ele>1179.2</ele><time>2026-05-03T13:32:30Z</time></trkpt><trkpt lat="43.32027356691615" lon="18.897726255962763"><ele>1177.0</ele><time>2026-05-03T13:32:31Z</time></trkpt><trkpt lat="43.320364959257994" lon="18.89780589422432"><ele>1177.0</ele><time>2026-05-03T13:32:32Z</time></trkpt><trkpt lat="43.320451556102824" lon="18.897868571440704"><ele>1177.0</ele><time>2026-05-03T13:32:33Z</time></trkpt><trkpt lat="43.32054283044407" lon="18.89785776588347"><ele>1177.0</ele><time>2026-05-03T13:32:34Z</time></trkpt><trkpt lat="43.32062893115989" lon="18.897804941599297"><ele>1177.0</ele><time>2026-05-03T13:32:35Z</time></trkpt><trkpt lat="43.32069839165359" lon="18.89770019633694"><ele>1177.0</ele><time>2026-05-03T13:32:36Z</time></trkpt><trkpt lat="43.3207710494204" lon="18.897591897166787"><ele>1173.8</ele><time>2026-05-03T13:32:37Z</time></trkpt><trkpt lat="43.32082711986207" lon="18.897474279374148"><ele>1170.6</ele><time>2026-05-03T13:32:38Z</time></trkpt><trkpt lat="43.320845308020694" lon="18.897345442139365"><ele>1167.3999999999999</ele><time>2026-05-03T13:32:39Z</time></trkpt><trkpt lat="43.32083557022089" lon="18.897229920713905"><ele>1164.2</ele><time>2026-05-03T13:32:40Z</time></trkpt><trkpt lat="43.32079795446836" lon="18.89711802988509"><ele>1161.0</ele><time>2026-05-03T13:32:41Z</time></trkpt><trkpt lat="43.320752470365555" lon="18.897001874902962"><ele>1161.0</ele><time>2026-05-03T13:32:42Z</time></trkpt><trkpt lat="43.32071752289919" lon="18.8968811521001"><ele>1161.0</ele><time>2026-05-03T13:32:43Z</time></trkpt><trkpt lat="43.32068908735779" lon="18.896762401117588"><ele>1161.0</ele><time>2026-05-03T13:32:44Z</time></trkpt><trkpt lat="43.32070279773563" lon="18.896644100640398"><ele>1161.0</ele><time>2026-05-03T13:32:45Z</time></trkpt><trkpt lat="43.32075723956454" lon="18.8965403009795"><ele>1161.0</ele><time>2026-05-03T13:32:46Z</time></trkpt><trkpt lat="43.3208226810049" lon="18.896448425791753"><ele>1160.6666666666667</ele><time>2026-05-03T13:32:47Z</time></trkpt><trkpt lat="43.32088193279216" lon="18.896343297521504"><ele>1160.3333333333333</ele><time>2026-05-03T13:32:48Z</time></trkpt><trkpt lat="43.3209450745861" lon="18.89625186938775"><ele>1160.0</ele><time>2026-05-03T13:32:49Z</time></trkpt><trkpt lat="43.321018436199196" lon="18.896221606787837"><ele>1159.6666666666665</ele><time>2026-05-03T13:32:50Z</time></trkpt><trkpt lat="43.32110308944735" lon="18.89623153718762"><ele>1159.3333333333333</ele><time>2026-05-03T13:32:51Z</time></trkpt><trkpt lat="43.321187697880646" lon="18.896252873559053"><ele>1159.0</ele><time>2026-05-03T13:32:52Z</time></trkpt><trkpt lat="43.32126968918001" lon="18.896245130924058"><ele>1159.0</ele><time>2026-05-03T13:32:53Z</time></trkpt><trkpt lat="43.32134036716411" lon="18.89620061573432"><ele>1159.0</ele><time>2026-05-03T13:32:54Z</time></trkpt><trkpt lat="43.321384928682185" lon="18.896116505595195"><ele>1159.0</ele><time>2026-05-03T13:32:55Z</time></trkpt><trkpt lat="43.32141349720187" lon="18.896009695065334"><ele>1159.0</ele><time>2026-05-03T13:32:56Z</time></trkpt><trkpt lat="43.32145519128124" lon="18.89591829593709"><ele>1159.0</ele><time>2026-05-03T13:32:57Z</time></trkpt><trkpt lat="43.32153098414993" lon="18.89585106839907"><ele>1159.0</ele><time>2026-05-03T13:32:58Z</time></trkpt><trkpt lat="43.321620026512726" lon="18.895779526583055"><ele>1155.8</ele><time>2026-05-03T13:32:59Z</time></trkpt><trkpt lat="43.32170991307392" lon="18.895714109753083"><ele>1152.6000000000001</ele><time>2026-05-03T13:33:00Z</time></trkpt><trkpt lat="43.32180664596587" lon="18.89567312539149"><ele>1149.4</ele><time>2026-05-03T13:33:01Z</time></trkpt><trkpt lat="43.32189485491724" lon="18.895649842184795"><ele>1146.2</ele><time>2026-05-03T13:33:02Z</time></trkpt><trkpt lat="43.32198137894148" lon="18.895615575464348"><ele>1143.0</ele><time>2026-05-03T13:33:03Z</time></trkpt><trkpt lat="43.32205950191877" lon="18.895552047709568"><ele>1143.0</ele><time>2026-05-03T13:33:04Z</time></trkpt><trkpt lat="43.322121557024246" lon="18.895458800821086"><ele>1143.0</ele><time>2026-05-03T13:33:05Z</time></trkpt><trkpt lat="43.322176525754664" lon="18.895343779910522"><ele>1143.0</ele><time>2026-05-03T13:33:06Z</time></trkpt><trkpt lat="43.32223186573654" lon="18.89521587787774"><ele>1143.0</ele><time>2026-05-03T13:33:07Z</time></trkpt><trkpt lat="43.32229299218851" lon="18.895086710550334"><ele>1143.0</ele><time>2026-05-03T13:33:08Z</time></trkpt><trkpt lat="43.32236720049662" lon="18.894965129784666"><ele>1140.5</ele><time>2026-05-03T13:33:09Z</time></trkpt><trkpt lat="43.322463149768865" lon="18.89484090913135"><ele>1138.0</ele><time>2026-05-03T13:33:10Z</time></trkpt><trkpt lat="43.32257327794092" lon="18.89475194611261"><ele>1135.5</ele><time>2026-05-03T13:33:11Z</time></trkpt><trkpt lat="43.32268795280077" lon="18.894680115968026"><ele>1133.0</ele><time>2026-05-03T13:33:12Z</time></trkpt><trkpt lat="43.3227968673503" lon="18.89460410686219"><ele>1133.0</ele><time>2026-05-03T13:33:13Z</time></trkpt><trkpt lat="43.322899342107306" lon="18.894498119268537"><ele>1133.0</ele><time>2026-05-03T13:33:14Z</time></trkpt><trkpt lat="43.32298503097927" lon="18.8943660924168"><ele>1133.0</ele><time>2026-05-03T13:33:15Z</time></trkpt><trkpt lat="43.32306995805608" lon="18.89422561661997"><ele>1133.0</ele><time>2026-05-03T13:33:16Z</time></trkpt><trkpt lat="43.323163801530946" lon="18.8940988450231"><ele>1131.0</ele><time>2026-05-03T13:33:17Z</time></trkpt><trkpt lat="43.32326556390012" lon="18.893988571521216"><ele>1129.0</ele><time>2026-05-03T13:33:18Z</time></trkpt><trkpt lat="43.32336742621868" lon="18.89388125246707"><ele>1127.0</ele><time>2026-05-03T13:33:19Z</time></trkpt><trkpt lat="43.32346492981001" lon="18.893781736192338"><ele>1125.0</ele><time>2026-05-03T13:33:20Z</time></trkpt><trkpt lat="43.3235591261746" lon="18.8936869203773"><ele>1125.0</ele><time>2026-05-03T13:33:21Z</time></trkpt><trkpt lat="43.32365124983763" lon="18.893599500122974"><ele>1125.0</ele><time>2026-05-03T13:33:22Z</time></trkpt><trkpt lat="43.323748064701334" lon="18.893522216331576"><ele>1125.0</ele><time>2026-05-03T13:33:23Z</time></trkpt><trkpt lat="43.32385710847138" lon="18.893452943385476"><ele>1125.0</ele><time>2026-05-03T13:33:24Z</time></trkpt><trkpt lat="43.32398213894183" lon="18.893386658533615"><ele>1123.25</ele><time>2026-05-03T13:33:25Z</time></trkpt><trkpt lat="43.32410916698" lon="18.89332539920027"><ele>1121.5</ele><time>2026-05-03T13:33:26Z</time></trkpt><trkpt lat="43.3242472418017" lon="18.893278090024257"><ele>1119.75</ele><time>2026-05-03T13:33:27Z</time></trkpt><trkpt lat="43.32438439278209" lon="18.89323522190605"><ele>1118.0</ele><time>2026-05-03T13:33:28Z</time></trkpt><trkpt lat="43.324513589990985" lon="18.89318620883527"><ele>1118.0</ele><time>2026-05-03T13:33:29Z</time></trkpt><trkpt lat="43.324636089798716" lon="18.893122336494475"><ele>1118.0</ele><time>2026-05-03T13:33:30Z</time></trkpt><trkpt lat="43.3247459772333" lon="18.89305247477243"><ele>1118.0</ele><time>2026-05-03T13:33:31Z</time></trkpt><trkpt lat="43.32485793667314" lon="18.892980388180373"><ele>1118.0</ele><time>2026-05-03T13:33:32Z</time></trkpt><trkpt lat="43.32496309281745" lon="18.89291196279212"><ele>1115.75</ele><time>2026-05-03T13:33:33Z</time></trkpt><trkpt lat="43.32506488127754" lon="18.892841406887786"><ele>1113.5</ele><time>2026-05-03T13:33:34Z</time></trkpt><trkpt lat="43.32516632476294" lon="18.892763736116493"><ele>1111.25</ele><time>2026-05-03T13:33:35Z</time></trkpt><trkpt lat="43.32527178796372" lon="18.89269865464093"><ele>1109.0</ele><time>2026-05-03T13:33:36Z</time></trkpt><trkpt lat="43.325383198092496" lon="18.892634887974527"><ele>1109.2</ele><time>2026-05-03T13:33:37Z</time></trkpt><trkpt lat="43.32549764661543" lon="18.892567581216287"><ele>1109.4</ele><time>2026-05-03T13:33:38Z</time></trkpt><trkpt lat="43.32561710399862" lon="18.892521260045427"><ele>1109.6</ele><time>2026-05-03T13:33:39Z</time></trkpt><trkpt lat="43.32572717762714" lon="18.892520289607923"><ele>1109.8</ele><time>2026-05-03T13:33:40Z</time></trkpt><trkpt lat="43.32581612990726" lon="18.892532290379044"><ele>1110.0</ele><time>2026-05-03T13:33:41Z</time></trkpt><trkpt lat="43.32588281051905" lon="18.89251585232221"><ele>1108.8333333333333</ele><time>2026-05-03T13:33:42Z</time></trkpt><trkpt lat="43.32594141123434" lon="18.892460633824907"><ele>1107.6666666666667</ele><time>2026-05-03T13:33:43Z</time></trkpt><trkpt lat="43.325967584352746" lon="18.8923648365405"><ele>1106.5</ele><time>2026-05-03T13:33:44Z</time></trkpt><trkpt lat="43.325970388846294" lon="18.89224449506629"><ele>1105.3333333333335</ele><time>2026-05-03T13:33:45Z</time></trkpt><trkpt lat="43.325945631097525" lon="18.89211042057059"><ele>1104.1666666666667</ele><time>2026-05-03T13:33:46Z</time></trkpt><trkpt lat="43.325918461068994" lon="18.891983711211942"><ele>1103.0</ele><time>2026-05-03T13:33:47Z</time></trkpt><trkpt lat="43.325901988345535" lon="18.891840357287798"><ele>1101.6</ele><time>2026-05-03T13:33:48Z</time></trkpt><trkpt lat="43.32589299525417" lon="18.8916939663936"><ele>1100.1999999999998</ele><time>2026-05-03T13:33:49Z</time></trkpt><trkpt lat="43.325896698913226" lon="18.89155707682338"><ele>1098.8</ele><time>2026-05-03T13:33:50Z</time></trkpt><trkpt lat="43.32591580545849" lon="18.891430534617076"><ele>1097.3999999999999</ele><time>2026-05-03T13:33:51Z</time></trkpt><trkpt lat="43.325960876616804" lon="18.89132309732086"><ele>1096.0</ele><time>2026-05-03T13:33:52Z</time></trkpt><trkpt lat="43.326024035910905" lon="18.89124877085439"><ele>1096.0</ele><time>2026-05-03T13:33:53Z</time></trkpt><trkpt lat="43.326096425838" lon="18.891221921693393"><ele>1096.0</ele><time>2026-05-03T13:33:54Z</time></trkpt><trkpt lat="43.32617267765723" lon="18.89124831439802"><ele>1096.0</ele><time>2026-05-03T13:33:55Z</time></trkpt><trkpt lat="43.326249497707614" lon="18.891307591100087"><ele>1096.0</ele><time>2026-05-03T13:33:56Z</time></trkpt><trkpt lat="43.3263289938146" lon="18.89138435746334"><ele>1096.0</ele><time>2026-05-03T13:33:57Z</time></trkpt><trkpt lat="43.326426953697" lon="18.891459225080883"><ele>1095.8</ele><time>2026-05-03T13:33:58Z</time></trkpt><trkpt lat="43.32653208706788" lon="18.89150752312637"><ele>1095.6</ele><time>2026-05-03T13:33:59Z</time></trkpt><trkpt lat="43.32663826336823" lon="18.89153598681743"><ele>1095.4</ele><time>2026-05-03T13:34:00Z</time></trkpt><trkpt lat="43.32674744924594" lon="18.891538486251832"><ele>1095.2</ele><time>2026-05-03T13:34:01Z</time></trkpt><trkpt lat="43.32686513420391" lon="18.891525002577144"><ele>1095.0</ele><time>2026-05-03T13:34:02Z</time></trkpt><trkpt lat="43.326989654607935" lon="18.891535570932145"><ele>1095.0</ele><time>2026-05-03T13:34:03Z</time></trkpt><trkpt lat="43.3271144025082" lon="18.891614264201888"><ele>1095.0</ele><time>2026-05-03T13:34:04Z</time></trkpt><trkpt lat="43.32723130029365" lon="18.891733672129522"><ele>1095.0</ele><time>2026-05-03T13:34:05Z</time></trkpt><trkpt lat="43.32735714040906" lon="18.891872366941058"><ele>1095.0</ele><time>2026-05-03T13:34:06Z</time></trkpt><trkpt lat="43.32749438164466" lon="18.892017873745495"><ele>1094.3333333333333</ele><time>2026-05-03T13:34:07Z</time></trkpt><trkpt lat="43.32764333097244" lon="18.892178327622766"><ele>1093.6666666666665</ele><time>2026-05-03T13:34:08Z</time></trkpt><trkpt lat="43.32778684480375" lon="18.89237174219103"><ele>1093.0</ele><time>2026-05-03T13:34:09Z</time></trkpt><trkpt lat="43.32792848236627" lon="18.89257955443251"><ele>1094.6666666666665</ele><time>2026-05-03T13:34:10Z</time></trkpt><trkpt lat="43.328086579194384" lon="18.892773472420938"><ele>1096.3333333333333</ele><time>2026-05-03T13:34:11Z</time></trkpt><trkpt lat="43.32823384137356" lon="18.892996662416824"><ele>1098.0</ele><time>2026-05-03T13:34:12Z</time></trkpt><trkpt lat="43.32834097719096" lon="18.893187520477298"><ele>1098.0</ele><time>2026-05-03T13:34:13Z</time></trkpt><trkpt lat="43.32843259721848" lon="18.89331931079757"><ele>1098.0</ele><time>2026-05-03T13:34:14Z</time></trkpt><trkpt lat="43.328547621277785" lon="18.893425252351143"><ele>1098.0</ele><time>2026-05-03T13:34:15Z</time></trkpt><trkpt lat="43.32871237190447" lon="18.8935736082219"><ele>1099.6666666666667</ele><time>2026-05-03T13:34:16Z</time></trkpt><trkpt lat="43.32888969808796" lon="18.89374880207422"><ele>1101.3333333333335</ele><time>2026-05-03T13:34:17Z</time></trkpt><trkpt lat="43.329060211965825" lon="18.893920075394828"><ele>1103.0</ele><time>2026-05-03T13:34:18Z</time></trkpt><trkpt lat="43.32919799393395" lon="18.894071178001116"><ele>1103.0</ele><time>2026-05-03T13:34:19Z</time></trkpt><trkpt lat="43.329300523050115" lon="18.89419893748467"><ele>1103.0</ele><time>2026-05-03T13:34:20Z</time></trkpt><trkpt lat="43.32938591381161" lon="18.89428939763766"><ele>1103.0</ele><time>2026-05-03T13:34:21Z</time></trkpt><trkpt lat="43.32947442619118" lon="18.89434026984884"><ele>1103.0</ele><time>2026-05-03T13:34:22Z</time></trkpt><trkpt lat="43.32955369368689" lon="18.894360532266273"><ele>1103.0</ele><time>2026-05-03T13:34:23Z</time></trkpt><trkpt lat="43.32962894867586" lon="18.89436896152118"><ele>1103.75</ele><time>2026-05-03T13:34:24Z</time></trkpt><trkpt lat="43.329724844906906" lon="18.894367161466874"><ele>1104.5</ele><time>2026-05-03T13:34:25Z</time></trkpt><trkpt lat="43.3298413600225" lon="18.894341345120893"><ele>1105.25</ele><time>2026-05-03T13:34:26Z</time></trkpt><trkpt lat="43.32996151451104" lon="18.894304017792315"><ele>1106.0</ele><time>2026-05-03T13:34:27Z</time></trkpt><trkpt lat="43.33008519909761" lon="18.89429344035972"><ele>1106.0</ele><time>2026-05-03T13:34:28Z</time></trkpt><trkpt lat="43.33020599408012" lon="18.89429556015244"><ele>1106.0</ele><time>2026-05-03T13:34:29Z</time></trkpt><trkpt lat="43.33033337983545" lon="18.89429883741108"><ele>1106.0</ele><time>2026-05-03T13:34:30Z</time></trkpt><trkpt lat="43.330459454465135" lon="18.894301226641748"><ele>1106.0</ele><time>2026-05-03T13:34:31Z</time></trkpt><trkpt lat="43.33058506581443" lon="18.894300617205186"><ele>1104.75</ele><time>2026-05-03T13:34:32Z</time></trkpt><trkpt lat="43.33072032930271" lon="18.894288263948745"><ele>1103.5</ele><time>2026-05-03T13:34:33Z</time></trkpt><trkpt lat="43.33086001502258" lon="18.894253847855754"><ele>1102.25</ele><time>2026-05-03T13:34:34Z</time></trkpt><trkpt lat="43.33099312671401" lon="18.89418871708559"><ele>1101.0</ele><time>2026-05-03T13:34:35Z</time></trkpt><trkpt lat="43.33114462062153" lon="18.89413854978063"><ele>1101.0</ele><time>2026-05-03T13:34:36Z</time></trkpt><trkpt lat="43.331306886931735" lon="18.89411958323457"><ele>1101.0</ele><time>2026-05-03T13:34:37Z</time></trkpt><trkpt lat="43.331456765937226" lon="18.894117385601742"><ele>1101.0</ele><time>2026-05-03T13:34:38Z</time></trkpt><trkpt lat="43.33159906924946" lon="18.894098820264144"><ele>1100.25</ele><time>2026-05-03T13:34:39Z</time></trkpt><trkpt lat="43.3317328688611" lon="18.894056965301196"><ele>1099.5</ele><time>2026-05-03T13:34:40Z</time></trkpt><trkpt lat="43.331845447200095" lon="18.89403776108933"><ele>1098.75</ele><time>2026-05-03T13:34:41Z</time></trkpt><trkpt lat="43.33195171868968" lon="18.89407618541309"><ele>1098.0</ele><time>2026-05-03T13:34:42Z</time></trkpt><trkpt lat="43.33205508911894" lon="18.894155912274094"><ele>1096.75</ele><time>2026-05-03T13:34:43Z</time></trkpt><trkpt lat="43.3321616031175" lon="18.894263454275574"><ele>1095.5</ele><time>2026-05-03T13:34:44Z</time></trkpt><trkpt lat="43.33227366685843" lon="18.89439871934171"><ele>1094.25</ele><time>2026-05-03T13:34:45Z</time></trkpt><trkpt lat="43.33239703565935" lon="18.89453200107127"><ele>1093.0</ele><time>2026-05-03T13:34:46Z</time></trkpt><trkpt lat="43.33252087642877" lon="18.894664776892238"><ele>1092.3333333333333</ele><time>2026-05-03T13:34:47Z</time></trkpt><trkpt lat="43.33263761983157" lon="18.89479397703448"><ele>1091.6666666666667</ele><time>2026-05-03T13:34:48Z</time></trkpt><trkpt lat="43.33275367005785" lon="18.89493552834049"><ele>1091.0</ele><time>2026-05-03T13:34:49Z</time></trkpt><trkpt lat="43.3328726242315" lon="18.895075707061196"><ele>1090.0</ele><time>2026-05-03T13:34:50Z</time></trkpt><trkpt lat="43.332995973597164" lon="18.895207836255576"><ele>1089.0</ele><time>2026-05-03T13:34:51Z</time></trkpt><trkpt lat="43.3331298608304" lon="18.895326233104832"><ele>1088.0</ele><time>2026-05-03T13:34:52Z</time></trkpt><trkpt lat="43.33327615181279" lon="18.895412487254756"><ele>1087.0</ele><time>2026-05-03T13:34:53Z</time></trkpt><trkpt lat="43.33342450217361" lon="18.89549506726262"><ele>1086.0</ele><time>2026-05-03T13:34:54Z</time></trkpt><trkpt lat="43.333561402817175" lon="18.895581740426692"><ele>1085.0</ele><time>2026-05-03T13:34:55Z</time></trkpt><trkpt lat="43.33368399202233" lon="18.89567723096956"><ele>1085.0</ele><time>2026-05-03T13:34:56Z</time></trkpt><trkpt lat="43.33379478363942" lon="18.895781590474346"><ele>1085.0</ele><time>2026-05-03T13:34:57Z</time></trkpt><trkpt lat="43.333908186299766" lon="18.89588975462652"><ele>1085.0</ele><time>2026-05-03T13:34:58Z</time></trkpt><trkpt lat="43.33401986718041" lon="18.89597864441187"><ele>1085.0</ele><time>2026-05-03T13:34:59Z</time></trkpt><trkpt lat="43.33414164108435" lon="18.89603337398192"><ele>1084.25</ele><time>2026-05-03T13:35:00Z</time></trkpt><trkpt lat="43.33427647182902" lon="18.896042679172634"><ele>1083.5</ele><time>2026-05-03T13:35:01Z</time></trkpt><trkpt lat="43.3344297366576" lon="18.896025195794877"><ele>1082.75</ele><time>2026-05-03T13:35:02Z</time></trkpt><trkpt lat="43.33458245767489" lon="18.895998108697903"><ele>1082.0</ele><time>2026-05-03T13:35:03Z</time></trkpt><trkpt lat="43.33472066865052" lon="18.89598377297285"><ele>1082.0</ele><time>2026-05-03T13:35:04Z</time></trkpt><trkpt lat="43.33485404474771" lon="18.896005416457392"><ele>1082.0</ele><time>2026-05-03T13:35:05Z</time></trkpt><trkpt lat="43.33498608380456" lon="18.896074132475768"><ele>1082.0</ele><time>2026-05-03T13:35:06Z</time></trkpt><trkpt lat="43.335123469846145" lon="18.89615886545621"><ele>1082.0</ele><time>2026-05-03T13:35:07Z</time></trkpt><trkpt lat="43.33527665670669" lon="18.896228203799208"><ele>1082.0</ele><time>2026-05-03T13:35:08Z</time></trkpt><trkpt lat="43.3354352404877" lon="18.89629052784248"><ele>1082.0</ele><time>2026-05-03T13:35:09Z</time></trkpt><trkpt lat="43.335598338965774" lon="18.896350493755214"><ele>1082.0</ele><time>2026-05-03T13:35:10Z</time></trkpt><trkpt lat="43.33575428217926" lon="18.896403661482967"><ele>1079.6666666666667</ele><time>2026-05-03T13:35:11Z</time></trkpt><trkpt lat="43.3359018054502" lon="18.896447275605855"><ele>1077.3333333333333</ele><time>2026-05-03T13:35:12Z</time></trkpt><trkpt lat="43.336049781330416" lon="18.89647327685291"><ele>1075.0</ele><time>2026-05-03T13:35:13Z</time></trkpt><trkpt lat="43.33619943534227" lon="18.896458858398006"><ele>1075.0</ele><time>2026-05-03T13:35:14Z</time></trkpt><trkpt lat="43.336340962202954" lon="18.896416259162713"><ele>1075.0</ele><time>2026-05-03T13:35:15Z</time></trkpt><trkpt lat="43.336472298051355" lon="18.89634242904316"><ele>1075.0</ele><time>2026-05-03T13:35:16Z</time></trkpt><trkpt lat="43.33660273317886" lon="18.896264530229153"><ele>1075.0</ele><time>2026-05-03T13:35:17Z</time></trkpt><trkpt lat="43.336730756269084" lon="18.896214645796277"><ele>1073.75</ele><time>2026-05-03T13:35:18Z</time></trkpt><trkpt lat="43.33686940851605" lon="18.89619788822388"><ele>1072.5</ele><time>2026-05-03T13:35:19Z</time></trkpt><trkpt lat="43.337010575981004" lon="18.89619980371702"><ele>1071.25</ele><time>2026-05-03T13:35:20Z</time></trkpt><trkpt lat="43.33714401017256" lon="18.896219792827488"><ele>1070.0</ele><time>2026-05-03T13:35:21Z</time></trkpt><trkpt lat="43.337256621094696" lon="18.896262767202277"><ele>1067.4</ele><time>2026-05-03T13:35:22Z</time></trkpt><trkpt lat="43.337338613997844" lon="18.89635253593497"><ele>1064.8</ele><time>2026-05-03T13:35:23Z</time></trkpt><trkpt lat="43.33739345347656" lon="18.896482335344853"><ele>1062.2</ele><time>2026-05-03T13:35:24Z</time></trkpt><trkpt lat="43.33746534090313" lon="18.8966048636708"><ele>1059.6</ele><time>2026-05-03T13:35:25Z</time></trkpt><trkpt lat="43.3375669796238" lon="18.89667475083681"><ele>1057.0</ele><time>2026-05-03T13:35:26Z</time></trkpt><trkpt lat="43.337681335050355" lon="18.896707837762005"><ele>1057.0</ele><time>2026-05-03T13:35:27Z</time></trkpt><trkpt lat="43.337787843299495" lon="18.896745941446063"><ele>1057.0</ele><time>2026-05-03T13:35:28Z</time></trkpt><trkpt lat="43.33786630288891" lon="18.89682411183116"><ele>1057.0</ele><time>2026-05-03T13:35:29Z</time></trkpt><trkpt lat="43.3379359436556" lon="18.896945752983484"><ele>1057.0</ele><time>2026-05-03T13:35:30Z</time></trkpt><trkpt lat="43.33800392224546" lon="18.89707041394256"><ele>1057.0</ele><time>2026-05-03T13:35:31Z</time></trkpt><trkpt lat="43.338080252454006" lon="18.89716598787416"><ele>1056.5</ele><time>2026-05-03T13:35:32Z</time></trkpt><trkpt lat="43.33816897565911" lon="18.897232169480972"><ele>1056.0</ele><time>2026-05-03T13:35:33Z</time></trkpt><trkpt lat="43.338272124750524" lon="18.89726925438116"><ele>1055.5</ele><time>2026-05-03T13:35:34Z</time></trkpt><trkpt lat="43.338393798781276" lon="18.897288429728984"><ele>1055.0</ele><time>2026-05-03T13:35:35Z</time></trkpt><trkpt lat="43.3385256447962" lon="18.897326152174628"><ele>1055.0</ele><time>2026-05-03T13:35:36Z</time></trkpt><trkpt lat="43.33864773858013" lon="18.89740125233349"><ele>1055.0</ele><time>2026-05-03T13:35:37Z</time></trkpt><trkpt lat="43.33874379234689" lon="18.897514289451347"><ele>1055.0</ele><time>2026-05-03T13:35:38Z</time></trkpt><trkpt lat="43.33882090716147" lon="18.89762969093899"><ele>1055.0</ele><time>2026-05-03T13:35:39Z</time></trkpt><trkpt lat="43.33889282365311" lon="18.897718741471053"><ele>1056.5</ele><time>2026-05-03T13:35:40Z</time></trkpt><trkpt lat="43.338989350183894" lon="18.897764681684443"><ele>1058.0</ele><time>2026-05-03T13:35:41Z</time></trkpt><trkpt lat="43.339109524943545" lon="18.897771899855023"><ele>1059.5</ele><time>2026-05-03T13:35:42Z</time></trkpt><trkpt lat="43.339240807568196" lon="18.89775653301271"><ele>1061.0</ele><time>2026-05-03T13:35:43Z</time></trkpt><trkpt lat="43.33937841120705" lon="18.89774419718058"><ele>1061.0</ele><time>2026-05-03T13:35:44Z</time></trkpt><trkpt lat="43.339537621384906" lon="18.897739560956612"><ele>1061.0</ele><time>2026-05-03T13:35:45Z</time></trkpt><trkpt lat="43.33969498527377" lon="18.897731840553362"><ele>1061.0</ele><time>2026-05-03T13:35:46Z</time></trkpt><trkpt lat="43.33983887025603" lon="18.89770655730775"><ele>1060.75</ele><time>2026-05-03T13:35:47Z</time></trkpt><trkpt lat="43.339972585625155" lon="18.897670813029666"><ele>1060.5</ele><time>2026-05-03T13:35:48Z</time></trkpt><trkpt lat="43.34009584528971" lon="18.89763382330567"><ele>1060.25</ele><time>2026-05-03T13:35:49Z</time></trkpt><trkpt lat="43.340213289383875" lon="18.8975920308207"><ele>1060.0</ele><time>2026-05-03T13:35:50Z</time></trkpt><trkpt lat="43.34031757114202" lon="18.89753918023687"><ele>1059.4</ele><time>2026-05-03T13:35:51Z</time></trkpt><trkpt lat="43.3404130042172" lon="18.8974861297233"><ele>1058.8</ele><time>2026-05-03T13:35:52Z</time></trkpt><trkpt lat="43.34051387876201" lon="18.897451880039103"><ele>1058.2</ele><time>2026-05-03T13:35:53Z</time></trkpt><trkpt lat="43.34060832807056" lon="18.897484454481738"><ele>1057.6</ele><time>2026-05-03T13:35:54Z</time></trkpt><trkpt lat="43.34066987889643" lon="18.897574446544105"><ele>1057.0</ele><time>2026-05-03T13:35:55Z</time></trkpt><trkpt lat="43.340711466080094" lon="18.897697495821223"><ele>1056.4</ele><time>2026-05-03T13:35:56Z</time></trkpt><trkpt lat="43.34076249493782" lon="18.897824214547718"><ele>1055.8000000000002</ele><time>2026-05-03T13:35:57Z</time></trkpt><trkpt lat="43.34082745244705" lon="18.897932374895074"><ele>1055.2</ele><time>2026-05-03T13:35:58Z</time></trkpt><trkpt lat="43.340905758715344" lon="18.89803083624771"><ele>1054.6000000000001</ele><time>2026-05-03T13:35:59Z</time></trkpt><trkpt lat="43.34098967201325" lon="18.898100237783414"><ele>1054.0</ele><time>2026-05-03T13:36:00Z</time></trkpt><trkpt lat="43.34108518134545" lon="18.898148806893364"><ele>1054.0</ele><time>2026-05-03T13:36:01Z</time></trkpt><trkpt lat="43.341193136793954" lon="18.89816478280679"><ele>1054.0</ele><time>2026-05-03T13:36:02Z</time></trkpt><trkpt lat="43.34129037124544" lon="18.898168878634074"><ele>1054.0</ele><time>2026-05-03T13:36:03Z</time></trkpt><trkpt lat="43.34137655966937" lon="18.89819828872783"><ele>1054.0</ele><time>2026-05-03T13:36:04Z</time></trkpt><trkpt lat="43.34144514223464" lon="18.898263650877176"><ele>1054.0</ele><time>2026-05-03T13:36:05Z</time></trkpt><trkpt lat="43.341509489126295" lon="18.898370357323913"><ele>1054.0</ele><time>2026-05-03T13:36:06Z</time></trkpt><trkpt lat="43.34157381075345" lon="18.89848658337292"><ele>1054.0</ele><time>2026-05-03T13:36:07Z</time></trkpt><trkpt lat="43.34164972334687" lon="18.898606528492234"><ele>1054.0</ele><time>2026-05-03T13:36:08Z</time></trkpt><trkpt lat="43.34172841243854" lon="18.89873141647049"><ele>1054.0</ele><time>2026-05-03T13:36:09Z</time></trkpt><trkpt lat="43.341810963051856" lon="18.898855979070486"><ele>1054.0</ele><time>2026-05-03T13:36:10Z</time></trkpt><trkpt lat="43.34190679431408" lon="18.898956950431973"><ele>1054.0</ele><time>2026-05-03T13:36:11Z</time></trkpt><trkpt lat="43.3420177017907" lon="18.899021653237128"><ele>1054.0</ele><time>2026-05-03T13:36:12Z</time></trkpt><trkpt lat="43.342149432324895" lon="18.899054348237733"><ele>1054.0</ele><time>2026-05-03T13:36:13Z</time></trkpt><trkpt lat="43.34229003196324" lon="18.899065437249106"><ele>1054.0</ele><time>2026-05-03T13:36:14Z</time></trkpt><trkpt lat="43.342413020551355" lon="18.89909386781311"><ele>1054.0</ele><time>2026-05-03T13:36:15Z</time></trkpt><trkpt lat="43.342515093721424" lon="18.89915575007062"><ele>1054.0</ele><time>2026-05-03T13:36:16Z</time></trkpt><trkpt lat="43.34258374971103" lon="18.899256440635448"><ele>1054.0</ele><time>2026-05-03T13:36:17Z</time></trkpt><trkpt lat="43.34263122429953" lon="18.899395039821243"><ele>1054.0</ele><time>2026-05-03T13:36:18Z</time></trkpt><trkpt lat="43.34268045937569" lon="18.899518442383954"><ele>1054.2</ele><time>2026-05-03T13:36:19Z</time></trkpt><trkpt lat="43.34276349249331" lon="18.89960836773443"><ele>1054.4</ele><time>2026-05-03T13:36:20Z</time></trkpt><trkpt lat="43.34287384715142" lon="18.89963887589391"><ele>1054.6</ele><time>2026-05-03T13:36:21Z</time></trkpt><trkpt lat="43.34297449443408" lon="18.89959853073684"><ele>1054.8</ele><time>2026-05-03T13:36:22Z</time></trkpt><trkpt lat="43.34306641404492" lon="18.899526717499857"><ele>1055.0</ele><time>2026-05-03T13:36:23Z</time></trkpt><trkpt lat="43.343161956812665" lon="18.899484418661206"><ele>1055.0</ele><time>2026-05-03T13:36:24Z</time></trkpt><trkpt lat="43.34325523741454" lon="18.89947465613258"><ele>1055.0</ele><time>2026-05-03T13:36:25Z</time></trkpt><trkpt lat="43.34334193401103" lon="18.899488920223888"><ele>1055.0</ele><time>2026-05-03T13:36:26Z</time></trkpt><trkpt lat="43.3434240041318" lon="18.899532746441384"><ele>1055.0</ele><time>2026-05-03T13:36:27Z</time></trkpt><trkpt lat="43.34349775701705" lon="18.89960926215537"><ele>1055.0</ele><time>2026-05-03T13:36:28Z</time></trkpt><trkpt lat="43.34356085584153" lon="18.899708392180866"><ele>1055.0</ele><time>2026-05-03T13:36:29Z</time></trkpt><trkpt lat="43.3436198136654" lon="18.899822993122033"><ele>1055.0</ele><time>2026-05-03T13:36:30Z</time></trkpt><trkpt lat="43.34368040800945" lon="18.899957762216054"><ele>1055.0</ele><time>2026-05-03T13:36:31Z</time></trkpt><trkpt lat="43.34373346105943" lon="18.900101068593866"><ele>1055.0</ele><time>2026-05-03T13:36:32Z</time></trkpt><trkpt lat="43.34381050234593" lon="18.90022253635892"><ele>1054.0</ele><time>2026-05-03T13:36:33Z</time></trkpt><trkpt lat="43.34392245722822" lon="18.90028349268176"><ele>1053.0</ele><time>2026-05-03T13:36:34Z</time></trkpt><trkpt lat="43.34404976152458" lon="18.9002796159594"><ele>1052.0</ele><time>2026-05-03T13:36:35Z</time></trkpt><trkpt lat="43.34417520861821" lon="18.90026684376442"><ele>1051.0</ele><time>2026-05-03T13:36:36Z</time></trkpt><trkpt lat="43.344291706716" lon="18.9002798149469"><ele>1051.0</ele><time>2026-05-03T13:36:37Z</time></trkpt><trkpt lat="43.34439470360956" lon="18.900324113889326"><ele>1051.0</ele><time>2026-05-03T13:36:38Z</time></trkpt><trkpt lat="43.344472290265806" lon="18.900402916345936"><ele>1051.0</ele><time>2026-05-03T13:36:39Z</time></trkpt><trkpt lat="43.34453374647919" lon="18.90051210005357"><ele>1051.0</ele><time>2026-05-03T13:36:40Z</time></trkpt><trkpt lat="43.34458469450399" lon="18.900642423336226"><ele>1051.0</ele><time>2026-05-03T13:36:41Z</time></trkpt><trkpt lat="43.344639206116646" lon="18.900767211052642"><ele>1051.0</ele><time>2026-05-03T13:36:42Z</time></trkpt><trkpt lat="43.3447089547785" lon="18.900869700731995"><ele>1051.0</ele><time>2026-05-03T13:36:43Z</time></trkpt><trkpt lat="43.34479935027123" lon="18.90091778998172"><ele>1051.0</ele><time>2026-05-03T13:36:44Z</time></trkpt><trkpt lat="43.34491786997737" lon="18.900920951276944"><ele>1051.0</ele><time>2026-05-03T13:36:45Z</time></trkpt><trkpt lat="43.34503143904589" lon="18.900901889507512"><ele>1051.0</ele><time>2026-05-03T13:36:46Z</time></trkpt><trkpt lat="43.34515268732014" lon="18.900887133338976"><ele>1051.2</ele><time>2026-05-03T13:36:47Z</time></trkpt><trkpt lat="43.34527241065688" lon="18.90090143459849"><ele>1051.3999999999999</ele><time>2026-05-03T13:36:48Z</time></trkpt><trkpt lat="43.34538037288735" lon="18.9009373910983"><ele>1051.6</ele><time>2026-05-03T13:36:49Z</time></trkpt><trkpt lat="43.345466975810034" lon="18.901006329621893"><ele>1051.8</ele><time>2026-05-03T13:36:50Z</time></trkpt><trkpt lat="43.34554191652655" lon="18.90111852087527"><ele>1052.0</ele><time>2026-05-03T13:36:51Z</time></trkpt><trkpt lat="43.345585458867404" lon="18.90126276788106"><ele>1046.75</ele><time>2026-05-03T13:36:52Z</time></trkpt><trkpt lat="43.345631189282095" lon="18.901404398489156"><ele>1041.5</ele><time>2026-05-03T13:36:53Z</time></trkpt><trkpt lat="43.34570228089625" lon="18.90154522539078"><ele>1036.25</ele><time>2026-05-03T13:36:54Z</time></trkpt><trkpt lat="43.34578906535762" lon="18.901659193228152"><ele>1031.0</ele><time>2026-05-03T13:36:55Z</time></trkpt><trkpt lat="43.34587574620401" lon="18.90177344697068"><ele>1031.0</ele><time>2026-05-03T13:36:56Z</time></trkpt><trkpt lat="43.3459405313067" lon="18.9019092277321"><ele>1031.0</ele><time>2026-05-03T13:36:57Z</time></trkpt><trkpt lat="43.34598356057107" lon="18.90206299905343"><ele>1031.0</ele><time>2026-05-03T13:36:58Z</time></trkpt><trkpt lat="43.346025668492295" lon="18.902226706393833"><ele>1031.0</ele><time>2026-05-03T13:36:59Z</time></trkpt><trkpt lat="43.3460645115076" lon="18.90239602915098"><ele>1031.0</ele><time>2026-05-03T13:37:00Z</time></trkpt><trkpt lat="43.34610063438486" lon="18.902576209758895"><ele>1031.0</ele><time>2026-05-03T13:37:01Z</time></trkpt><trkpt lat="43.3461287771002" lon="18.902752160111337"><ele>1031.0</ele><time>2026-05-03T13:37:02Z</time></trkpt><trkpt lat="43.3461458484256" lon="18.90292865780668"><ele>1031.0</ele><time>2026-05-03T13:37:03Z</time></trkpt><trkpt lat="43.346130638493136" lon="18.903099693128443"><ele>1031.75</ele><time>2026-05-03T13:37:04Z</time></trkpt><trkpt lat="43.34608427062418" lon="18.903264323120528"><ele>1032.5</ele><time>2026-05-03T13:37:05Z</time></trkpt><trkpt lat="43.346051122709305" lon="18.903417836744424"><ele>1033.25</ele><time>2026-05-03T13:37:06Z</time></trkpt><trkpt lat="43.34605239191816" lon="18.903580706486096"><ele>1034.0</ele><time>2026-05-03T13:37:07Z</time></trkpt><trkpt lat="43.346077351309916" lon="18.903744661455313"><ele>1034.25</ele><time>2026-05-03T13:37:08Z</time></trkpt><trkpt lat="43.34610716213231" lon="18.903902737456228"><ele>1034.5</ele><time>2026-05-03T13:37:09Z</time></trkpt><trkpt lat="43.34614360130726" lon="18.904052858461945"><ele>1034.75</ele><time>2026-05-03T13:37:10Z</time></trkpt><trkpt lat="43.346195193746354" lon="18.904194835968383"><ele>1035.0</ele><time>2026-05-03T13:37:11Z</time></trkpt><trkpt lat="43.34626960150373" lon="18.90432405425336"><ele>1034.2</ele><time>2026-05-03T13:37:12Z</time></trkpt><trkpt lat="43.346356656065815" lon="18.9044320208045"><ele>1033.4</ele><time>2026-05-03T13:37:13Z</time></trkpt><trkpt lat="43.34640939322454" lon="18.904556483873925"><ele>1032.6</ele><time>2026-05-03T13:37:14Z</time></trkpt><trkpt lat="43.346433321771265" lon="18.904693889492066"><ele>1031.8</ele><time>2026-05-03T13:37:15Z</time></trkpt><trkpt lat="43.34644399353566" lon="18.904828568157647"><ele>1031.0</ele><time>2026-05-03T13:37:16Z</time></trkpt><trkpt lat="43.346469593899904" lon="18.90494545101468"><ele>1027.8</ele><time>2026-05-03T13:37:17Z</time></trkpt><trkpt lat="43.34653085650565" lon="18.905030496783574"><ele>1024.6</ele><time>2026-05-03T13:37:18Z</time></trkpt><trkpt lat="43.346615642206885" lon="18.905098142138733"><ele>1021.4</ele><time>2026-05-03T13:37:19Z</time></trkpt><trkpt lat="43.34669966932403" lon="18.905168768586616"><ele>1018.2</ele><time>2026-05-03T13:37:20Z</time></trkpt><trkpt lat="43.346784073880045" lon="18.905250270151218"><ele>1015.0</ele><time>2026-05-03T13:37:21Z</time></trkpt><trkpt lat="43.34686918789261" lon="18.905342460719407"><ele>1015.0</ele><time>2026-05-03T13:37:22Z</time></trkpt><trkpt lat="43.346962346279724" lon="18.905436871966614"><ele>1015.0</ele><time>2026-05-03T13:37:23Z</time></trkpt><trkpt lat="43.34705442802159" lon="18.90553218274619"><ele>1015.0</ele><time>2026-05-03T13:37:24Z</time></trkpt><trkpt lat="43.347135199860595" lon="18.905638710793344"><ele>1015.0</ele><time>2026-05-03T13:37:25Z</time></trkpt><trkpt lat="43.3472076099962" lon="18.9057667139378"><ele>1012.0</ele><time>2026-05-03T13:37:26Z</time></trkpt><trkpt lat="43.347280472700575" lon="18.905884564380646"><ele>1009.0</ele><time>2026-05-03T13:37:27Z</time></trkpt><trkpt lat="43.34736264091468" lon="18.905992346305872"><ele>1006.0</ele><time>2026-05-03T13:37:28Z</time></trkpt><trkpt lat="43.34744280627957" lon="18.906112732959514"><ele>1003.0</ele><time>2026-05-03T13:37:29Z</time></trkpt><trkpt lat="43.34751479100875" lon="18.906247746555234"><ele>1003.0</ele><time>2026-05-03T13:37:30Z</time></trkpt><trkpt lat="43.34759116440252" lon="18.906368498767883"><ele>1003.0</ele><time>2026-05-03T13:37:31Z</time></trkpt><trkpt lat="43.34769327057512" lon="18.90645186425488"><ele>1003.0</ele><time>2026-05-03T13:37:32Z</time></trkpt><trkpt lat="43.34780492646003" lon="18.906507975116018"><ele>1003.0</ele><time>2026-05-03T13:37:33Z</time></trkpt><trkpt lat="43.347911598551754" lon="18.90659680655112"><ele>1003.0</ele><time>2026-05-03T13:37:34Z</time></trkpt><trkpt lat="43.348014998653504" lon="18.906691905662363"><ele>1003.0</ele><time>2026-05-03T13:37:35Z</time></trkpt><trkpt lat="43.3481205349101" lon="18.90678625240953"><ele>1003.0</ele><time>2026-05-03T13:37:36Z</time></trkpt><trkpt lat="43.34822614106983" lon="18.906871776283772"><ele>1003.0</ele><time>2026-05-03T13:37:37Z</time></trkpt><trkpt lat="43.34833504700487" lon="18.906955471045798"><ele>999.75</ele><time>2026-05-03T13:37:38Z</time></trkpt><trkpt lat="43.348444491954744" lon="18.907039541709306"><ele>996.5</ele><time>2026-05-03T13:37:39Z</time></trkpt><trkpt lat="43.34854689142397" lon="18.907132658803167"><ele>993.25</ele><time>2026-05-03T13:37:40Z</time></trkpt><trkpt lat="43.348633799485434" lon="18.907261264608177"><ele>990.0</ele><time>2026-05-03T13:37:41Z</time></trkpt><trkpt lat="43.348702679195185" lon="18.907398090321113"><ele>990.0</ele><time>2026-05-03T13:37:42Z</time></trkpt><trkpt lat="43.34877393132304" lon="18.907529965162155"><ele>990.0</ele><time>2026-05-03T13:37:43Z</time></trkpt><trkpt lat="43.3488482938401" lon="18.9076581784571"><ele>990.0</ele><time>2026-05-03T13:37:44Z</time></trkpt><trkpt lat="43.34891660808072" lon="18.90777959045436"><ele>990.0</ele><time>2026-05-03T13:37:45Z</time></trkpt><trkpt lat="43.34897424752109" lon="18.90790639889265"><ele>982.5</ele><time>2026-05-03T13:37:46Z</time></trkpt><trkpt lat="43.349041510866684" lon="18.90802728825862"><ele>975.0</ele><time>2026-05-03T13:37:47Z</time></trkpt><trkpt lat="43.34912991462041" lon="18.908126366218426"><ele>967.5</ele><time>2026-05-03T13:37:48Z</time></trkpt><trkpt lat="43.349213090879644" lon="18.908240079153728"><ele>960.0</ele><time>2026-05-03T13:37:49Z</time></trkpt><trkpt lat="43.3492825671357" lon="18.90837319194045"><ele>957.6</ele><time>2026-05-03T13:37:50Z</time></trkpt><trkpt lat="43.349342855069935" lon="18.908505172447477"><ele>955.2</ele><time>2026-05-03T13:37:51Z</time></trkpt><trkpt lat="43.349391204591505" lon="18.908644869059366"><ele>952.8</ele><time>2026-05-03T13:37:52Z</time></trkpt><trkpt lat="43.34942810725557" lon="18.90878723346789"><ele>950.4</ele><time>2026-05-03T13:37:53Z</time></trkpt><trkpt lat="43.349434137863035" lon="18.908925076308766"><ele>948.0</ele><time>2026-05-03T13:37:54Z</time></trkpt><trkpt lat="43.34941588358708" lon="18.90905109918026"><ele>948.0</ele><time>2026-05-03T13:37:55Z</time></trkpt><trkpt lat="43.34938998858501" lon="18.909133386867946"><ele>948.0</ele><time>2026-05-03T13:37:56Z</time></trkpt><trkpt lat="43.34928802688129" lon="18.90921663592971"><ele>948.0</ele><time>2026-05-03T13:37:58Z</time></trkpt><trkpt lat="43.34921080833631" lon="18.909190818751114"><ele>948.0</ele><time>2026-05-03T13:37:59Z</time></trkpt><trkpt lat="43.349115063883815" lon="18.909160317290457"><ele>948.0</ele><time>2026-05-03T13:38:00Z</time></trkpt><trkpt lat="43.349017130681034" lon="18.90914618704225"><ele>948.0</ele><time>2026-05-03T13:38:01Z</time></trkpt><trkpt lat="43.34892672994909" lon="18.909161582035647"><ele>948.0</ele><time>2026-05-03T13:38:02Z</time></trkpt><trkpt lat="43.34884201219415" lon="18.909217248102465"><ele>948.0</ele><time>2026-05-03T13:38:03Z</time></trkpt><trkpt lat="43.34876602541842" lon="18.909301090945895"><ele>948.0</ele><time>2026-05-03T13:38:04Z</time></trkpt><trkpt lat="43.348714890531845" lon="18.90940731965859"><ele>948.0</ele><time>2026-05-03T13:38:05Z</time></trkpt><trkpt lat="43.34866715844439" lon="18.90951911714343"><ele>952.6666666666666</ele><time>2026-05-03T13:38:06Z</time></trkpt><trkpt lat="43.34862295679884" lon="18.909633404395276"><ele>957.3333333333333</ele><time>2026-05-03T13:38:07Z</time></trkpt><trkpt lat="43.34859234010774" lon="18.909733091187963"><ele>962.0</ele><time>2026-05-03T13:38:08Z</time></trkpt><trkpt lat="43.348581980361935" lon="18.909839314026932"><ele>966.6666666666666</ele><time>2026-05-03T13:38:09Z</time></trkpt><trkpt lat="43.348597086403664" lon="18.909939173478566"><ele>971.3333333333333</ele><time>2026-05-03T13:38:10Z</time></trkpt><trkpt lat="43.348648965711426" lon="18.910034221112937"><ele>976.0</ele><time>2026-05-03T13:38:11Z</time></trkpt><trkpt lat="43.348723136914124" lon="18.910134785018755"><ele>979.0</ele><time>2026-05-03T13:38:12Z</time></trkpt><trkpt lat="43.34881353463864" lon="18.910235800827355"><ele>982.0</ele><time>2026-05-03T13:38:13Z</time></trkpt><trkpt lat="43.34891265292671" lon="18.91032991008486"><ele>985.0</ele><time>2026-05-03T13:38:14Z</time></trkpt><trkpt lat="43.34901687873193" lon="18.91044660170554"><ele>988.0</ele><time>2026-05-03T13:38:15Z</time></trkpt><trkpt lat="43.34910100856714" lon="18.91055534018356"><ele>977.75</ele><time>2026-05-03T13:38:16Z</time></trkpt><trkpt lat="43.34919043377981" lon="18.91066397094032"><ele>967.5</ele><time>2026-05-03T13:38:17Z</time></trkpt><trkpt lat="43.349279767840656" lon="18.910759831833783"><ele>957.25</ele><time>2026-05-03T13:38:18Z</time></trkpt><trkpt lat="43.34938722467283" lon="18.910838403174818"><ele>947.0</ele><time>2026-05-03T13:38:19Z</time></trkpt><trkpt lat="43.34948421419455" lon="18.910905951861338"><ele>948.2</ele><time>2026-05-03T13:38:20Z</time></trkpt><trkpt lat="43.349566808501365" lon="18.911003173279138"><ele>949.4000000000001</ele><time>2026-05-03T13:38:21Z</time></trkpt><trkpt lat="43.349626170780844" lon="18.91113019359423"><ele>950.5999999999999</ele><time>2026-05-03T13:38:22Z</time></trkpt><trkpt lat="43.349666555198894" lon="18.911277314818904"><ele>951.8</ele><time>2026-05-03T13:38:23Z</time></trkpt><trkpt lat="43.34970943464723" lon="18.911420025502537"><ele>953.0</ele><time>2026-05-03T13:38:24Z</time></trkpt><trkpt lat="43.349748593765675" lon="18.911562559191086"><ele>945.3333333333334</ele><time>2026-05-03T13:38:25Z</time></trkpt><trkpt lat="43.34978100025115" lon="18.911707365244247"><ele>937.6666666666667</ele><time>2026-05-03T13:38:26Z</time></trkpt><trkpt lat="43.34977923202228" lon="18.911849525255175"><ele>930.0</ele><time>2026-05-03T13:38:27Z</time></trkpt><trkpt lat="43.34974845019687" lon="18.911963167786666"><ele>922.3333333333333</ele><time>2026-05-03T13:38:28Z</time></trkpt><trkpt lat="43.34969191535573" lon="18.912028336784694"><ele>914.6666666666666</ele><time>2026-05-03T13:38:29Z</time></trkpt><trkpt lat="43.34962105249085" lon="18.912057101794176"><ele>907.0</ele><time>2026-05-03T13:38:30Z</time></trkpt><trkpt lat="43.34954239090504" lon="18.91209583311196"><ele>905.8</ele><time>2026-05-03T13:38:31Z</time></trkpt><trkpt lat="43.34944899164642" lon="18.91213081929819"><ele>904.6</ele><time>2026-05-03T13:38:32Z</time></trkpt><trkpt lat="43.34935867033807" lon="18.91216094003862"><ele>903.3999999999999</ele><time>2026-05-03T13:38:33Z</time></trkpt><trkpt lat="43.34926689367229" lon="18.912194561228585"><ele>902.1999999999999</ele><time>2026-05-03T13:38:34Z</time></trkpt><trkpt lat="43.349183581806976" lon="18.912221344666403"><ele>901.0</ele><time>2026-05-03T13:38:35Z</time></trkpt><trkpt lat="43.349105195611685" lon="18.912270889877536"><ele>901.0</ele><time>2026-05-03T13:38:36Z</time></trkpt><trkpt lat="43.34903585927161" lon="18.91235345505779"><ele>900.9999999999999</ele><time>2026-05-03T13:38:37Z</time></trkpt><trkpt lat="43.34896758852507" lon="18.912423228060867"><ele>900.9999999999999</ele><time>2026-05-03T13:38:38Z</time></trkpt><trkpt lat="43.348877423467876" lon="18.91249030666214"><ele>901.0</ele><time>2026-05-03T13:38:39Z</time></trkpt><trkpt lat="43.3487836104635" lon="18.912531955083868"><ele>901.0</ele><time>2026-05-03T13:38:40Z</time></trkpt><trkpt lat="43.348690863992005" lon="18.912582644183072"><ele>898.1999999999999</ele><time>2026-05-03T13:38:41Z</time></trkpt><trkpt lat="43.34859923250136" lon="18.912653722015047"><ele>895.3999999999999</ele><time>2026-05-03T13:38:42Z</time></trkpt><trkpt lat="43.348508903274286" lon="18.912727293729652"><ele>892.6</ele><time>2026-05-03T13:38:43Z</time></trkpt><trkpt lat="43.348424158875474" lon="18.912798816099986"><ele>889.8</ele><time>2026-05-03T13:38:44Z</time></trkpt><trkpt lat="43.34836395972342" lon="18.91291214684462"><ele>887.0</ele><time>2026-05-03T13:38:45Z</time></trkpt><trkpt lat="43.348314458500646" lon="18.91304965400039"><ele>887.0</ele><time>2026-05-03T13:38:46Z</time></trkpt><trkpt lat="43.34825544200265" lon="18.913168460504682"><ele>887.0</ele><time>2026-05-03T13:38:47Z</time></trkpt><trkpt lat="43.348187215510166" lon="18.913282829620066"><ele>887.0</ele><time>2026-05-03T13:38:48Z</time></trkpt><trkpt lat="43.34812576969824" lon="18.913403397596642"><ele>887.0</ele><time>2026-05-03T13:38:49Z</time></trkpt><trkpt lat="43.34806420860227" lon="18.91350642224415"><ele>887.0</ele><time>2026-05-03T13:38:50Z</time></trkpt><trkpt lat="43.34799076828673" lon="18.91360017938782"><ele>885.8</ele><time>2026-05-03T13:38:51Z</time></trkpt><trkpt lat="43.34791106596986" lon="18.913676292822945"><ele>884.6</ele><time>2026-05-03T13:38:52Z</time></trkpt><trkpt lat="43.34782434206033" lon="18.913742035643274"><ele>883.3999999999999</ele><time>2026-05-03T13:38:53Z</time></trkpt><trkpt lat="43.34773246091611" lon="18.9138136679094"><ele>882.1999999999999</ele><time>2026-05-03T13:38:54Z</time></trkpt><trkpt lat="43.3476332039914" lon="18.913882838330462"><ele>881.0</ele><time>2026-05-03T13:38:55Z</time></trkpt><trkpt lat="43.347532753108005" lon="18.91394474054983"><ele>881.0</ele><time>2026-05-03T13:38:56Z</time></trkpt><trkpt lat="43.347426912490064" lon="18.91400867785518"><ele>880.9999999999999</ele><time>2026-05-03T13:38:57Z</time></trkpt><trkpt lat="43.34732313459929" lon="18.91405234080761"><ele>880.9999999999999</ele><time>2026-05-03T13:38:58Z</time></trkpt><trkpt lat="43.347215962291315" lon="18.914096176949528"><ele>881.0</ele><time>2026-05-03T13:38:59Z</time></trkpt><trkpt lat="43.347106925321434" lon="18.914137589375464"><ele>881.0</ele><time>2026-05-03T13:39:00Z</time></trkpt><trkpt lat="43.34700434475062" lon="18.91419316267071"><ele>879.75</ele><time>2026-05-03T13:39:01Z</time></trkpt><trkpt lat="43.34690134074235" lon="18.914269941063882"><ele>878.5</ele><time>2026-05-03T13:39:02Z</time></trkpt><trkpt lat="43.34680798810449" lon="18.914363149819785"><ele>877.25</ele><time>2026-05-03T13:39:03Z</time></trkpt><trkpt lat="43.34671326225875" lon="18.914464258799928"><ele>876.0</ele><time>2026-05-03T13:39:04Z</time></trkpt><trkpt lat="43.34662700515068" lon="18.91456683213622"><ele>876.0</ele><time>2026-05-03T13:39:05Z</time></trkpt><trkpt lat="43.346542600604465" lon="18.914683297700478"><ele>875.9999999999999</ele><time>2026-05-03T13:39:06Z</time></trkpt><trkpt lat="43.34646617129019" lon="18.914803075371953"><ele>875.9999999999999</ele><time>2026-05-03T13:39:07Z</time></trkpt><trkpt lat="43.34639225098993" lon="18.914917951966995"><ele>876.0</ele><time>2026-05-03T13:39:08Z</time></trkpt><trkpt lat="43.34631941248154" lon="18.915014391300936"><ele>876.0</ele><time>2026-05-03T13:39:09Z</time></trkpt><trkpt lat="43.34626706354401" lon="18.9150964782796"><ele>876.0</ele><time>2026-05-03T13:39:10Z</time></trkpt><trkpt lat="43.34627347566099" lon="18.915255881352472"><ele>875.9999999999999</ele><time>2026-05-03T13:39:12Z</time></trkpt><trkpt lat="43.34636944288343" lon="18.9153011040266"><ele>875.9999999999999</ele><time>2026-05-03T13:39:14Z</time></trkpt><trkpt lat="43.34646709537731" lon="18.915209837498068"><ele>876.0</ele><time>2026-05-03T13:39:16Z</time></trkpt><trkpt lat="43.34651363754141" lon="18.91512864363241"><ele>876.0</ele><time>2026-05-03T13:39:17Z</time></trkpt><trkpt lat="43.34656773241904" lon="18.91503754003596"><ele>876.0</ele><time>2026-05-03T13:39:18Z</time></trkpt><trkpt lat="43.34661964943361" lon="18.914962175224993"><ele>875.9999999999999</ele><time>2026-05-03T13:39:19Z</time></trkpt><trkpt lat="43.346677738851305" lon="18.914886856013535"><ele>875.9999999999999</ele><time>2026-05-03T13:39:20Z</time></trkpt><trkpt lat="43.34674857473002" lon="18.91479592641144"><ele>876.0</ele><time>2026-05-03T13:39:21Z</time></trkpt><trkpt lat="43.34684217963909" lon="18.914716687395753"><ele>876.0</ele><time>2026-05-03T13:39:22Z</time></trkpt><trkpt lat="43.34694678001503" lon="18.914642263188153"><ele>876.0</ele><time>2026-05-03T13:39:23Z</time></trkpt><trkpt lat="43.347056881272586" lon="18.914576249653823"><ele>876.0</ele><time>2026-05-03T13:39:24Z</time></trkpt><trkpt lat="43.34716801319687" lon="18.914528236179766"><ele>876.0</ele><time>2026-05-03T13:39:25Z</time></trkpt><trkpt lat="43.3472802006516" lon="18.914492164303358"><ele>876.0</ele><time>2026-05-03T13:39:26Z</time></trkpt><trkpt lat="43.34740128646374" lon="18.914465505812984"><ele>877.0</ele><time>2026-05-03T13:39:27Z</time></trkpt><trkpt lat="43.347507752623926" lon="18.914439020864133"><ele>877.9999999999999</ele><time>2026-05-03T13:39:28Z</time></trkpt><trkpt lat="43.34761304461335" lon="18.914410379716777"><ele>878.9999999999999</ele><time>2026-05-03T13:39:29Z</time></trkpt><trkpt lat="43.34771212566944" lon="18.9143579525381"><ele>880.0</ele><time>2026-05-03T13:39:30Z</time></trkpt><trkpt lat="43.347806089940484" lon="18.914300888775426"><ele>881.0</ele><time>2026-05-03T13:39:31Z</time></trkpt><trkpt lat="43.347900532244154" lon="18.91422670892963"><ele>881.0</ele><time>2026-05-03T13:39:32Z</time></trkpt><trkpt lat="43.34799671442801" lon="18.914131136921256"><ele>881.0</ele><time>2026-05-03T13:39:33Z</time></trkpt><trkpt lat="43.348097391830564" lon="18.914042013964142"><ele>881.0</ele><time>2026-05-03T13:39:34Z</time></trkpt><trkpt lat="43.34820681167545" lon="18.913963023674846"><ele>881.0</ele><time>2026-05-03T13:39:35Z</time></trkpt><trkpt lat="43.34831437621274" lon="18.913880094420534"><ele>873.1999999999999</ele><time>2026-05-03T13:39:36Z</time></trkpt><trkpt lat="43.34840904202408" lon="18.913789947942636"><ele>865.3999999999999</ele><time>2026-05-03T13:39:37Z</time></trkpt><trkpt lat="43.34849863950854" lon="18.913699557552498"><ele>857.6</ele><time>2026-05-03T13:39:38Z</time></trkpt><trkpt lat="43.3485941974448" lon="18.913623498347008"><ele>849.8</ele><time>2026-05-03T13:39:39Z</time></trkpt><trkpt lat="43.348691493151016" lon="18.913565555411957"><ele>842.0</ele><time>2026-05-03T13:39:40Z</time></trkpt><trkpt lat="43.34878918755627" lon="18.913518766190585"><ele>843.4000000000001</ele><time>2026-05-03T13:39:41Z</time></trkpt><trkpt lat="43.348887030479965" lon="18.913479678433223"><ele>844.8000000000001</ele><time>2026-05-03T13:39:42Z</time></trkpt><trkpt lat="43.348994180825294" lon="18.913436830877696"><ele>846.2</ele><time>2026-05-03T13:39:43Z</time></trkpt><trkpt lat="43.349102204741065" lon="18.913396893228352"><ele>847.6</ele><time>2026-05-03T13:39:44Z</time></trkpt><trkpt lat="43.34920983531864" lon="18.913375212708548"><ele>849.0</ele><time>2026-05-03T13:39:45Z</time></trkpt><trkpt lat="43.349326783106235" lon="18.913389408654545"><ele>849.0</ele><time>2026-05-03T13:39:46Z</time></trkpt><trkpt lat="43.34944640963107" lon="18.913426539874933"><ele>849.0</ele><time>2026-05-03T13:39:47Z</time></trkpt><trkpt lat="43.34954458013405" lon="18.91343047492971"><ele>849.0</ele><time>2026-05-03T13:39:48Z</time></trkpt><trkpt lat="43.349643927587614" lon="18.913401125705253"><ele>849.0</ele><time>2026-05-03T13:39:49Z</time></trkpt><trkpt lat="43.349730453696395" lon="18.913334442297103"><ele>849.0</ele><time>2026-05-03T13:39:50Z</time></trkpt><trkpt lat="43.34981966521745" lon="18.913264291509066"><ele>846.8000000000001</ele><time>2026-05-03T13:39:51Z</time></trkpt><trkpt lat="43.34992112533236" lon="18.9132336552587"><ele>844.6</ele><time>2026-05-03T13:39:52Z</time></trkpt><trkpt lat="43.35002391034045" lon="18.91322450891035"><ele>842.4</ele><time>2026-05-03T13:39:53Z</time></trkpt><trkpt lat="43.35012795446572" lon="18.913214207523993"><ele>840.2</ele><time>2026-05-03T13:39:54Z</time></trkpt><trkpt lat="43.35022988414124" lon="18.913175836276768"><ele>838.0</ele><time>2026-05-03T13:39:55Z</time></trkpt><trkpt lat="43.350333186206875" lon="18.913101282321083"><ele>838.0</ele><time>2026-05-03T13:39:56Z</time></trkpt><trkpt lat="43.350431960900316" lon="18.913014071627856"><ele>838.0</ele><time>2026-05-03T13:39:57Z</time></trkpt><trkpt lat="43.35052949868679" lon="18.9129343079263"><ele>838.0</ele><time>2026-05-03T13:39:58Z</time></trkpt><trkpt lat="43.350632389831446" lon="18.91285648465798"><ele>838.0</ele><time>2026-05-03T13:39:59Z</time></trkpt><trkpt lat="43.35072973317995" lon="18.91278173473578"><ele>837.5999999999999</ele><time>2026-05-03T13:40:00Z</time></trkpt><trkpt lat="43.35082091945792" lon="18.912713455384687"><ele>837.1999999999999</ele><time>2026-05-03T13:40:01Z</time></trkpt><trkpt lat="43.35090907694925" lon="18.91263793563441"><ele>836.8</ele><time>2026-05-03T13:40:02Z</time></trkpt><trkpt lat="43.350971460209564" lon="18.912524925372008"><ele>836.4</ele><time>2026-05-03T13:40:03Z</time></trkpt><trkpt lat="43.35102144011562" lon="18.912388713074513"><ele>836.0</ele><time>2026-05-03T13:40:04Z</time></trkpt><trkpt lat="43.351054777287246" lon="18.91224148745057"><ele>836.0</ele><time>2026-05-03T13:40:05Z</time></trkpt><trkpt lat="43.35109474367333" lon="18.91209373152898"><ele>836.0</ele><time>2026-05-03T13:40:06Z</time></trkpt><trkpt lat="43.35114177709963" lon="18.911944660200206"><ele>836.0</ele><time>2026-05-03T13:40:07Z</time></trkpt><trkpt lat="43.35118775321616" lon="18.91179399778555"><ele>836.0</ele><time>2026-05-03T13:40:08Z</time></trkpt><trkpt lat="43.351237055914105" lon="18.911652615438285"><ele>839.5999999999999</ele><time>2026-05-03T13:40:09Z</time></trkpt><trkpt lat="43.351280861209666" lon="18.911513256016356"><ele>843.2</ele><time>2026-05-03T13:40:10Z</time></trkpt><trkpt lat="43.351333930455766" lon="18.91138405311389"><ele>846.8000000000001</ele><time>2026-05-03T13:40:11Z</time></trkpt><trkpt lat="43.35140177615935" lon="18.911271104357027"><ele>850.4000000000001</ele><time>2026-05-03T13:40:12Z</time></trkpt><trkpt lat="43.35148834462858" lon="18.91119093665911"><ele>854.0</ele><time>2026-05-03T13:40:13Z</time></trkpt><trkpt lat="43.35157226184822" lon="18.911101707858403"><ele>845.6</ele><time>2026-05-03T13:40:14Z</time></trkpt><trkpt lat="43.351616229731555" lon="18.910978137856848"><ele>837.2</ele><time>2026-05-03T13:40:15Z</time></trkpt><trkpt lat="43.351633634560876" lon="18.910827483251047"><ele>828.8000000000001</ele><time>2026-05-03T13:40:16Z</time></trkpt><trkpt lat="43.35168094003318" lon="18.91070764318223"><ele>820.4000000000001</ele><time>2026-05-03T13:40:17Z</time></trkpt><trkpt lat="43.35176978300617" lon="18.910631755234814"><ele>812.0</ele><time>2026-05-03T13:40:18Z</time></trkpt><trkpt lat="43.351853178789135" lon="18.910553642611838"><ele>812.0</ele><time>2026-05-03T13:40:19Z</time></trkpt><trkpt lat="43.35191900039499" lon="18.91045820285904"><ele>812.0</ele><time>2026-05-03T13:40:20Z</time></trkpt><trkpt lat="43.351948608256414" lon="18.910355793855402"><ele>812.0</ele><time>2026-05-03T13:40:21Z</time></trkpt><trkpt lat="43.35194006704232" lon="18.910222247838394"><ele>812.0</ele><time>2026-05-03T13:40:22Z</time></trkpt><trkpt lat="43.35193389819919" lon="18.91009241175408"><ele>812.0</ele><time>2026-05-03T13:40:23Z</time></trkpt><trkpt lat="43.35191297475145" lon="18.909968580880047"><ele>812.6</ele><time>2026-05-03T13:40:24Z</time></trkpt><trkpt lat="43.35192294414012" lon="18.909845942515492"><ele>813.2</ele><time>2026-05-03T13:40:25Z</time></trkpt><trkpt lat="43.351977085087995" lon="18.909743740849255"><ele>813.8</ele><time>2026-05-03T13:40:26Z</time></trkpt><trkpt lat="43.35203590036948" lon="18.909645609390022"><ele>814.4</ele><time>2026-05-03T13:40:27Z</time></trkpt><trkpt lat="43.35208976913785" lon="18.90953412915239"><ele>815.0</ele><time>2026-05-03T13:40:28Z</time></trkpt><trkpt lat="43.35215216717555" lon="18.90941728376633"><ele>808.3333333333334</ele><time>2026-05-03T13:40:29Z</time></trkpt><trkpt lat="43.352227673689086" lon="18.909294453027904"><ele>801.6666666666667</ele><time>2026-05-03T13:40:30Z</time></trkpt><trkpt lat="43.352321041313544" lon="18.90919020979544"><ele>795.0</ele><time>2026-05-03T13:40:31Z</time></trkpt><trkpt lat="43.352510492202775" lon="18.90901986396208"><ele>795.0</ele><time>2026-05-03T13:40:33Z</time></trkpt><trkpt lat="43.35258546755318" lon="18.908918010850762"><ele>795.0</ele><time>2026-05-03T13:40:34Z</time></trkpt><trkpt lat="43.352628876449025" lon="18.90881815274073"><ele>795.0</ele><time>2026-05-03T13:40:35Z</time></trkpt><trkpt lat="43.35264072519108" lon="18.908720544527704"><ele>795.0</ele><time>2026-05-03T13:40:36Z</time></trkpt><trkpt lat="43.35264075642395" lon="18.908619908928163"><ele>795.0</ele><time>2026-05-03T13:40:37Z</time></trkpt><trkpt lat="43.352604095042096" lon="18.908512117106476"><ele>795.0</ele><time>2026-05-03T13:40:38Z</time></trkpt><trkpt lat="43.35253571945911" lon="18.908407845111622"><ele>794.5</ele><time>2026-05-03T13:40:39Z</time></trkpt><trkpt lat="43.352456994644804" lon="18.908282847652877"><ele>794.0</ele><time>2026-05-03T13:40:40Z</time></trkpt><trkpt lat="43.35238342683825" lon="18.90815857429524"><ele>793.5</ele><time>2026-05-03T13:40:41Z</time></trkpt><trkpt lat="43.35231068028776" lon="18.908040402779235"><ele>793.0</ele><time>2026-05-03T13:40:42Z</time></trkpt><trkpt lat="43.35223731318828" lon="18.90792266913702"><ele>795.5999999999999</ele><time>2026-05-03T13:40:43Z</time></trkpt><trkpt lat="43.352182857373805" lon="18.907799838865024"><ele>798.1999999999999</ele><time>2026-05-03T13:40:44Z</time></trkpt><trkpt lat="43.35215222866082" lon="18.90768254729962"><ele>800.8</ele><time>2026-05-03T13:40:45Z</time></trkpt><trkpt lat="43.35214658223009" lon="18.907552242776486"><ele>803.4</ele><time>2026-05-03T13:40:46Z</time></trkpt><trkpt lat="43.352139516899214" lon="18.907429063140242"><ele>806.0</ele><time>2026-05-03T13:40:47Z</time></trkpt><trkpt lat="43.35212221290329" lon="18.907310300629852"><ele>806.0000000000001</ele><time>2026-05-03T13:40:48Z</time></trkpt><trkpt lat="43.35209769281473" lon="18.907183478781796"><ele>806.0</ele><time>2026-05-03T13:40:49Z</time></trkpt><trkpt lat="43.35208867067391" lon="18.90706025161801"><ele>806.0</ele><time>2026-05-03T13:40:50Z</time></trkpt><trkpt lat="43.35207058890058" lon="18.906946961202728"><ele>806.0</ele><time>2026-05-03T13:40:51Z</time></trkpt><trkpt lat="43.35202956604747" lon="18.90686875107825"><ele>806.0000000000001</ele><time>2026-05-03T13:40:52Z</time></trkpt><trkpt lat="43.35196970657748" lon="18.90680392271419"><ele>806.0</ele><time>2026-05-03T13:40:53Z</time></trkpt><trkpt lat="43.351902212003814" lon="18.90674383534702"><ele>803.1666666666667</ele><time>2026-05-03T13:40:54Z</time></trkpt><trkpt lat="43.35184177636807" lon="18.906659166973775"><ele>800.3333333333334</ele><time>2026-05-03T13:40:55Z</time></trkpt><trkpt lat="43.351816697206374" lon="18.906549447665565"><ele>797.5</ele><time>2026-05-03T13:40:56Z</time></trkpt><trkpt lat="43.3518223012344" lon="18.906440039844256"><ele>794.6666666666667</ele><time>2026-05-03T13:40:57Z</time></trkpt><trkpt lat="43.35183391684632" lon="18.906333316019047"><ele>791.8333333333334</ele><time>2026-05-03T13:40:58Z</time></trkpt><trkpt lat="43.35183546921791" lon="18.906230649190817"><ele>789.0</ele><time>2026-05-03T13:40:59Z</time></trkpt><trkpt lat="43.3518345890115" lon="18.906123511221153"><ele>789.0</ele><time>2026-05-03T13:41:00Z</time></trkpt><trkpt lat="43.35183250571729" lon="18.90601686459534"><ele>789.0</ele><time>2026-05-03T13:41:01Z</time></trkpt><trkpt lat="43.35182743335588" lon="18.905910074212077"><ele>789.0</ele><time>2026-05-03T13:41:02Z</time></trkpt><trkpt lat="43.35181058382259" lon="18.90579892294373"><ele>789.0</ele><time>2026-05-03T13:41:03Z</time></trkpt><trkpt lat="43.351787439316816" lon="18.90569298650004"><ele>789.0</ele><time>2026-05-03T13:41:04Z</time></trkpt><trkpt lat="43.35176976776658" lon="18.905607075032286"><ele>789.0</ele><time>2026-05-03T13:41:05Z</time></trkpt><trkpt lat="43.351716944458005" lon="18.905425389472352"><ele>785.4000000000001</ele><time>2026-05-03T13:41:07Z</time></trkpt><trkpt lat="43.351667367151656" lon="18.90531460000455"><ele>781.8</ele><time>2026-05-03T13:41:08Z</time></trkpt><trkpt lat="43.3515979919857" lon="18.905203352905904"><ele>778.2</ele><time>2026-05-03T13:41:09Z</time></trkpt><trkpt lat="43.35152323701574" lon="18.90509844331391"><ele>774.5999999999999</ele><time>2026-05-03T13:41:10Z</time></trkpt><trkpt lat="43.351454010131306" lon="18.904992080431896"><ele>771.0</ele><time>2026-05-03T13:41:11Z</time></trkpt><trkpt lat="43.3513858470714" lon="18.904892252189164"><ele>773.0</ele><time>2026-05-03T13:41:12Z</time></trkpt><trkpt lat="43.3513098589272" lon="18.904788522750476"><ele>775.0</ele><time>2026-05-03T13:41:13Z</time></trkpt><trkpt lat="43.35122877235416" lon="18.904685398646414"><ele>777.0</ele><time>2026-05-03T13:41:14Z</time></trkpt><trkpt lat="43.35114249192391" lon="18.904573983370568"><ele>779.0</ele><time>2026-05-03T13:41:15Z</time></trkpt><trkpt lat="43.35106386563028" lon="18.904465701985593"><ele>781.0</ele><time>2026-05-03T13:41:16Z</time></trkpt><trkpt lat="43.35098576580723" lon="18.90436563204018"><ele>781.0</ele><time>2026-05-03T13:41:17Z</time></trkpt><trkpt lat="43.35090374738614" lon="18.904273840590424"><ele>781.0</ele><time>2026-05-03T13:41:18Z</time></trkpt><trkpt lat="43.35081855825589" lon="18.904198035212012"><ele>781.0</ele><time>2026-05-03T13:41:19Z</time></trkpt><trkpt lat="43.350725586932825" lon="18.904131428917367"><ele>781.0</ele><time>2026-05-03T13:41:20Z</time></trkpt><trkpt lat="43.35063084955368" lon="18.904068710220198"><ele>781.0</ele><time>2026-05-03T13:41:21Z</time></trkpt><trkpt lat="43.35053952470495" lon="18.904000699107723"><ele>783.8</ele><time>2026-05-03T13:41:22Z</time></trkpt><trkpt lat="43.350449785407655" lon="18.903919190634294"><ele>786.5999999999999</ele><time>2026-05-03T13:41:23Z</time></trkpt><trkpt lat="43.35035326533054" lon="18.903837114816398"><ele>789.4</ele><time>2026-05-03T13:41:24Z</time></trkpt><trkpt lat="43.35026813633501" lon="18.9037479869231"><ele>792.2</ele><time>2026-05-03T13:41:25Z</time></trkpt><trkpt lat="43.35019441619983" lon="18.903656002898988"><ele>795.0</ele><time>2026-05-03T13:41:26Z</time></trkpt><trkpt lat="43.350124668899056" lon="18.903567021171067"><ele>795.0</ele><time>2026-05-03T13:41:27Z</time></trkpt><trkpt lat="43.35006594638294" lon="18.903463866380786"><ele>795.0</ele><time>2026-05-03T13:41:28Z</time></trkpt><trkpt lat="43.350046175446536" lon="18.90334443195509"><ele>795.0</ele><time>2026-05-03T13:41:29Z</time></trkpt><trkpt lat="43.35003524936815" lon="18.90321352371154"><ele>795.0</ele><time>2026-05-03T13:41:30Z</time></trkpt><trkpt lat="43.35001286645399" lon="18.90308506935478"><ele>795.0</ele><time>2026-05-03T13:41:31Z</time></trkpt><trkpt lat="43.34998569686462" lon="18.902960880019993"><ele>798.6</ele><time>2026-05-03T13:41:32Z</time></trkpt><trkpt lat="43.34992903585539" lon="18.902830476011104"><ele>802.2</ele><time>2026-05-03T13:41:33Z</time></trkpt><trkpt lat="43.34986832160535" lon="18.902744662851298"><ele>805.8</ele><time>2026-05-03T13:41:34Z</time></trkpt><trkpt lat="43.349791966449985" lon="18.9027013632371"><ele>809.4</ele><time>2026-05-03T13:41:35Z</time></trkpt><trkpt lat="43.34968911226752" lon="18.90267741893461"><ele>813.0</ele><time>2026-05-03T13:41:36Z</time></trkpt><trkpt lat="43.34957859881224" lon="18.902623314589356"><ele>806.0</ele><time>2026-05-03T13:41:37Z</time></trkpt><trkpt lat="43.34947200517612" lon="18.902554378888052"><ele>799.0</ele><time>2026-05-03T13:41:38Z</time></trkpt><trkpt lat="43.34937084172764" lon="18.902466207654513"><ele>792.0</ele><time>2026-05-03T13:41:39Z</time></trkpt><trkpt lat="43.34929288263966" lon="18.902357174282468"><ele>785.0</ele><time>2026-05-03T13:41:40Z</time></trkpt><trkpt lat="43.34923321616954" lon="18.90223019829927"><ele>785.0</ele><time>2026-05-03T13:41:41Z</time></trkpt><trkpt lat="43.34920007547093" lon="18.902089606674505"><ele>785.0</ele><time>2026-05-03T13:41:42Z</time></trkpt><trkpt lat="43.349184254752075" lon="18.901937623188438"><ele>785.0</ele><time>2026-05-03T13:41:43Z</time></trkpt><trkpt lat="43.34917742697886" lon="18.901767158430403"><ele>785.0</ele><time>2026-05-03T13:41:44Z</time></trkpt><trkpt lat="43.34918655880864" lon="18.90160669498119"><ele>782.6</ele><time>2026-05-03T13:41:45Z</time></trkpt><trkpt lat="43.34920427114116" lon="18.901455810109567"><ele>780.2</ele><time>2026-05-03T13:41:46Z</time></trkpt><trkpt lat="43.349212439747966" lon="18.901301265577818"><ele>777.8</ele><time>2026-05-03T13:41:47Z</time></trkpt><trkpt lat="43.3492203609269" lon="18.901147442606884"><ele>775.4</ele><time>2026-05-03T13:41:48Z</time></trkpt><trkpt lat="43.34922562419103" lon="18.900999727534547"><ele>773.0</ele><time>2026-05-03T13:41:49Z</time></trkpt><trkpt lat="43.349249691643095" lon="18.900831714080773"><ele>771.4</ele><time>2026-05-03T13:41:50Z</time></trkpt><trkpt lat="43.34926139868852" lon="18.900664773963836"><ele>769.8</ele><time>2026-05-03T13:41:51Z</time></trkpt><trkpt lat="43.349257397095" lon="18.900506387214307"><ele>768.2</ele><time>2026-05-03T13:41:52Z</time></trkpt><trkpt lat="43.3492220523575" lon="18.90037307382576"><ele>766.6</ele><time>2026-05-03T13:41:53Z</time></trkpt><trkpt lat="43.34916288653279" lon="18.900256261580985"><ele>765.0</ele><time>2026-05-03T13:41:54Z</time></trkpt><trkpt lat="43.34910211885892" lon="18.900121259196766"><ele>761.25</ele><time>2026-05-03T13:41:55Z</time></trkpt><trkpt lat="43.34905298080955" lon="18.899971952778632"><ele>757.5</ele><time>2026-05-03T13:41:56Z</time></trkpt><trkpt lat="43.34900603527841" lon="18.899820005552858"><ele>753.75</ele><time>2026-05-03T13:41:57Z</time></trkpt><trkpt lat="43.34894636674214" lon="18.89967563457926"><ele>750.0</ele><time>2026-05-03T13:41:58Z</time></trkpt><trkpt lat="43.34888293612661" lon="18.899548376455915"><ele>755.2</ele><time>2026-05-03T13:41:59Z</time></trkpt><trkpt lat="43.348816009348106" lon="18.899421385716373"><ele>760.4</ele><time>2026-05-03T13:42:00Z</time></trkpt><trkpt lat="43.34877205918587" lon="18.899285136214992"><ele>765.5999999999999</ele><time>2026-05-03T13:42:01Z</time></trkpt><trkpt lat="43.34874843492889" lon="18.899149150050437"><ele>770.8</ele><time>2026-05-03T13:42:02Z</time></trkpt><trkpt lat="43.34874670904035" lon="18.899002307882"><ele>776.0</ele><time>2026-05-03T13:42:03Z</time></trkpt><trkpt lat="43.34873952494753" lon="18.89884421880795"><ele>776.0</ele><time>2026-05-03T13:42:04Z</time></trkpt><trkpt lat="43.34872805215218" lon="18.89868705313672"><ele>776.0</ele><time>2026-05-03T13:42:05Z</time></trkpt><trkpt lat="43.348711132816774" lon="18.89851793504085"><ele>776.0</ele><time>2026-05-03T13:42:06Z</time></trkpt><trkpt lat="43.34868265244855" lon="18.898354322665334"><ele>776.0</ele><time>2026-05-03T13:42:07Z</time></trkpt><trkpt lat="43.34863440466448" lon="18.898191661283583"><ele>770.5</ele><time>2026-05-03T13:42:08Z</time></trkpt><trkpt lat="43.348570186330114" lon="18.898028487065694"><ele>765.0</ele><time>2026-05-03T13:42:09Z</time></trkpt><trkpt lat="43.34851462204361" lon="18.897880116262147"><ele>759.5</ele><time>2026-05-03T13:42:10Z</time></trkpt><trkpt lat="43.34846459117716" lon="18.89773558254104"><ele>754.0</ele><time>2026-05-03T13:42:11Z</time></trkpt><trkpt lat="43.34839294758501" lon="18.89762766659014"><ele>755.8000000000001</ele><time>2026-05-03T13:42:12Z</time></trkpt><trkpt lat="43.34830076393865" lon="18.89753979087525"><ele>757.6</ele><time>2026-05-03T13:42:13Z</time></trkpt><trkpt lat="43.34820424439801" lon="18.897457970079067"><ele>759.4</ele><time>2026-05-03T13:42:14Z</time></trkpt><trkpt lat="43.34810180226955" lon="18.89739949599656"><ele>761.2</ele><time>2026-05-03T13:42:15Z</time></trkpt><trkpt lat="43.34800070916231" lon="18.897376071738883"><ele>763.0</ele><time>2026-05-03T13:42:16Z</time></trkpt><trkpt lat="43.34788588458659" lon="18.897389105717426"><ele>763.0</ele><time>2026-05-03T13:42:17Z</time></trkpt><trkpt lat="43.34777344812083" lon="18.89740072767543"><ele>763.0</ele><time>2026-05-03T13:42:18Z</time></trkpt><trkpt lat="43.347676336003516" lon="18.89739501449836"><ele>763.0</ele><time>2026-05-03T13:42:19Z</time></trkpt><trkpt lat="43.34758727338227" lon="18.89736237036476"><ele>763.0</ele><time>2026-05-03T13:42:20Z</time></trkpt><trkpt lat="43.34749668258181" lon="18.89730428867765"><ele>763.0</ele><time>2026-05-03T13:42:21Z</time></trkpt><trkpt lat="43.3474239766438" lon="18.897199675476262"><ele>763.0</ele><time>2026-05-03T13:42:22Z</time></trkpt><trkpt lat="43.34735027512771" lon="18.897065699749046"><ele>763.0</ele><time>2026-05-03T13:42:23Z</time></trkpt><trkpt lat="43.347271193116256" lon="18.89692247460725"><ele>763.0</ele><time>2026-05-03T13:42:24Z</time></trkpt><trkpt lat="43.34717709415429" lon="18.896772212807637"><ele>763.0</ele><time>2026-05-03T13:42:25Z</time></trkpt><trkpt lat="43.34710113473835" lon="18.896631363199926"><ele>768.25</ele><time>2026-05-03T13:42:26Z</time></trkpt><trkpt lat="43.34703293656482" lon="18.89647400225823"><ele>773.5</ele><time>2026-05-03T13:42:27Z</time></trkpt><trkpt lat="43.346975939481425" lon="18.896332859192"><ele>778.75</ele><time>2026-05-03T13:42:28Z</time></trkpt><trkpt lat="43.34691720371857" lon="18.896213356989982"><ele>784.0</ele><time>2026-05-03T13:42:29Z</time></trkpt><trkpt lat="43.34687623366338" lon="18.896092891621464"><ele>784.0</ele><time>2026-05-03T13:42:30Z</time></trkpt><trkpt lat="43.34688151681481" lon="18.89595306989146"><ele>784.0</ele><time>2026-05-03T13:42:31Z</time></trkpt><trkpt lat="43.34691842196065" lon="18.89580862224535"><ele>784.0</ele><time>2026-05-03T13:42:32Z</time></trkpt><trkpt lat="43.34694705495706" lon="18.895667253945305"><ele>784.0</ele><time>2026-05-03T13:42:33Z</time></trkpt><trkpt lat="43.3469484182423" lon="18.89552477643014"><ele>784.0</ele><time>2026-05-03T13:42:34Z</time></trkpt><trkpt lat="43.3469117278135" lon="18.895379167823652"><ele>779.6</ele><time>2026-05-03T13:42:35Z</time></trkpt><trkpt lat="43.346856413083216" lon="18.895241833586738"><ele>775.2</ele><time>2026-05-03T13:42:36Z</time></trkpt><trkpt lat="43.346815842157355" lon="18.895116514502618"><ele>770.8000000000001</ele><time>2026-05-03T13:42:37Z</time></trkpt><trkpt lat="43.34679995900171" lon="18.894979058904436"><ele>766.4000000000001</ele><time>2026-05-03T13:42:38Z</time></trkpt><trkpt lat="43.34682412027282" lon="18.894843350354744"><ele>762.0</ele><time>2026-05-03T13:42:39Z</time></trkpt><trkpt lat="43.34687438741804" lon="18.89471359723703"><ele>762.0</ele><time>2026-05-03T13:42:40Z</time></trkpt><trkpt lat="43.346930173090826" lon="18.89457784953598"><ele>762.0</ele><time>2026-05-03T13:42:41Z</time></trkpt><trkpt lat="43.34699022610777" lon="18.894428943635315"><ele>762.0</ele><time>2026-05-03T13:42:42Z</time></trkpt><trkpt lat="43.34705868447564" lon="18.894264559847283"><ele>762.0</ele><time>2026-05-03T13:42:43Z</time></trkpt><trkpt lat="43.34712620329711" lon="18.894101581056937"><ele>762.0</ele><time>2026-05-03T13:42:44Z</time></trkpt><trkpt lat="43.347191266417546" lon="18.893946264550923"><ele>762.0</ele><time>2026-05-03T13:42:45Z</time></trkpt><trkpt lat="43.34727331261603" lon="18.893809500291066"><ele>762.0</ele><time>2026-05-03T13:42:46Z</time></trkpt><trkpt lat="43.347367161024984" lon="18.89368181980973"><ele>762.0</ele><time>2026-05-03T13:42:47Z</time></trkpt><trkpt lat="43.34741878191388" lon="18.89354987695824"><ele>756.5</ele><time>2026-05-03T13:42:48Z</time></trkpt><trkpt lat="43.34742956601501" lon="18.893391559238097"><ele>751.0</ele><time>2026-05-03T13:42:49Z</time></trkpt><trkpt lat="43.347437883666764" lon="18.893220727016224"><ele>745.5</ele><time>2026-05-03T13:42:50Z</time></trkpt><trkpt lat="43.34744139958088" lon="18.893049193411606"><ele>740.0</ele><time>2026-05-03T13:42:51Z</time></trkpt><trkpt lat="43.34743368798634" lon="18.892901708631268"><ele>740.0</ele><time>2026-05-03T13:42:52Z</time></trkpt><trkpt lat="43.34739767560435" lon="18.892734745881892"><ele>740.0</ele><time>2026-05-03T13:42:53Z</time></trkpt><trkpt lat="43.34735256334983" lon="18.892591640439406"><ele>740.0</ele><time>2026-05-03T13:42:54Z</time></trkpt><trkpt lat="43.3473489859746" lon="18.89244743462081"><ele>740.0</ele><time>2026-05-03T13:42:55Z</time></trkpt><trkpt lat="43.34738964444321" lon="18.89230033246965"><ele>739.75</ele><time>2026-05-03T13:42:56Z</time></trkpt><trkpt lat="43.34744482484862" lon="18.892173598050263"><ele>739.5</ele><time>2026-05-03T13:42:57Z</time></trkpt><trkpt lat="43.34751473926463" lon="18.892048635774426"><ele>739.25</ele><time>2026-05-03T13:42:58Z</time></trkpt><trkpt lat="43.34760922564073" lon="18.89192751504417"><ele>739.0</ele><time>2026-05-03T13:42:59Z</time></trkpt><trkpt lat="43.347718109185145" lon="18.891805198356472"><ele>742.25</ele><time>2026-05-03T13:43:00Z</time></trkpt><trkpt lat="43.34781914058694" lon="18.89168731426442"><ele>745.5</ele><time>2026-05-03T13:43:01Z</time></trkpt><trkpt lat="43.3479091967787" lon="18.891553954069586"><ele>748.75</ele><time>2026-05-03T13:43:02Z</time></trkpt><trkpt lat="43.34799852176421" lon="18.891383633417927"><ele>752.0</ele><time>2026-05-03T13:43:03Z</time></trkpt><trkpt lat="43.34807147407273" lon="18.891188091029463"><ele>749.0</ele><time>2026-05-03T13:43:04Z</time></trkpt><trkpt lat="43.34814051696971" lon="18.891024255150743"><ele>746.0</ele><time>2026-05-03T13:43:05Z</time></trkpt><trkpt lat="43.34823748911025" lon="18.890896060247155"><ele>743.0</ele><time>2026-05-03T13:43:06Z</time></trkpt><trkpt lat="43.34835271558624" lon="18.89080571513293"><ele>740.0</ele><time>2026-05-03T13:43:07Z</time></trkpt><trkpt lat="43.3484773584644" lon="18.890702975266674"><ele>740.0</ele><time>2026-05-03T13:43:08Z</time></trkpt><trkpt lat="43.348593899254205" lon="18.8905692891569"><ele>740.0</ele><time>2026-05-03T13:43:09Z</time></trkpt><trkpt lat="43.3487031698236" lon="18.890422368345238"><ele>740.0</ele><time>2026-05-03T13:43:10Z</time></trkpt><trkpt lat="43.34880035166274" lon="18.890281481003598"><ele>740.0</ele><time>2026-05-03T13:43:11Z</time></trkpt><trkpt lat="43.34889565063963" lon="18.890141669842844"><ele>740.0</ele><time>2026-05-03T13:43:12Z</time></trkpt><trkpt lat="43.348988872477584" lon="18.889996470328043"><ele>740.0</ele><time>2026-05-03T13:43:13Z</time></trkpt><trkpt lat="43.34908705445725" lon="18.889864714631525"><ele>740.0</ele><time>2026-05-03T13:43:14Z</time></trkpt><trkpt lat="43.349203092590145" lon="18.8897619573499"><ele>740.0</ele><time>2026-05-03T13:43:15Z</time></trkpt><trkpt lat="43.349323810646794" lon="18.889671678856374"><ele>740.0</ele><time>2026-05-03T13:43:16Z</time></trkpt><trkpt lat="43.349448650652015" lon="18.889588460382544"><ele>740.0</ele><time>2026-05-03T13:43:17Z</time></trkpt><trkpt lat="43.349566285226" lon="18.889501859443858"><ele>740.0</ele><time>2026-05-03T13:43:18Z</time></trkpt><trkpt lat="43.34968859765184" lon="18.889404288606183"><ele>740.0</ele><time>2026-05-03T13:43:19Z</time></trkpt><trkpt lat="43.349810502943384" lon="18.889303627296705"><ele>740.75</ele><time>2026-05-03T13:43:20Z</time></trkpt><trkpt lat="43.34992758970094" lon="18.889213782079207"><ele>741.5</ele><time>2026-05-03T13:43:21Z</time></trkpt><trkpt lat="43.350040557085514" lon="18.88914095204188"><ele>742.25</ele><time>2026-05-03T13:43:22Z</time></trkpt><trkpt lat="43.350157277584785" lon="18.88909888735053"><ele>743.0</ele><time>2026-05-03T13:43:23Z</time></trkpt><trkpt lat="43.350255137455584" lon="18.889075264190456"><ele>743.0</ele><time>2026-05-03T13:43:24Z</time></trkpt><trkpt lat="43.35033413768342" lon="18.889051955401445"><ele>743.0</ele><time>2026-05-03T13:43:25Z</time></trkpt><trkpt lat="43.35042174603165" lon="18.888912481850234"><ele>743.0</ele><time>2026-05-03T13:43:27Z</time></trkpt><trkpt lat="43.35045660016102" lon="18.888784159904386"><ele>743.0</ele><time>2026-05-03T13:43:28Z</time></trkpt><trkpt lat="43.35048756015058" lon="18.888614525980255"><ele>743.0</ele><time>2026-05-03T13:43:29Z</time></trkpt><trkpt lat="43.35053896153724" lon="18.888448247177976"><ele>737.5</ele><time>2026-05-03T13:43:30Z</time></trkpt><trkpt lat="43.3506187963691" lon="18.88829647947281"><ele>732.0</ele><time>2026-05-03T13:43:31Z</time></trkpt><trkpt lat="43.350709034657505" lon="18.88817301034685"><ele>726.5</ele><time>2026-05-03T13:43:32Z</time></trkpt><trkpt lat="43.350806166799345" lon="18.888063197786035"><ele>721.0</ele><time>2026-05-03T13:43:33Z</time></trkpt><trkpt lat="43.35088442637156" lon="18.887971354656433"><ele>721.0</ele><time>2026-05-03T13:43:34Z</time></trkpt><trkpt lat="43.350941545263034" lon="18.887870989004508"><ele>721.0</ele><time>2026-05-03T13:43:35Z</time></trkpt><trkpt lat="43.35098226735317" lon="18.88774619074205"><ele>721.0</ele><time>2026-05-03T13:43:36Z</time></trkpt><trkpt lat="43.35100450173846" lon="18.887616577908307"><ele>721.0</ele><time>2026-05-03T13:43:37Z</time></trkpt><trkpt lat="43.35100217925124" lon="18.887464948134777"><ele>721.0</ele><time>2026-05-03T13:43:38Z</time></trkpt><trkpt lat="43.350976348250235" lon="18.88732289108225"><ele>725.0</ele><time>2026-05-03T13:43:39Z</time></trkpt><trkpt lat="43.35091228723137" lon="18.88719463860512"><ele>729.0</ele><time>2026-05-03T13:43:40Z</time></trkpt><trkpt lat="43.35083009600555" lon="18.887069595409347"><ele>733.0</ele><time>2026-05-03T13:43:41Z</time></trkpt><trkpt lat="43.35074021118549" lon="18.886946311462395"><ele>737.0</ele><time>2026-05-03T13:43:42Z</time></trkpt><trkpt lat="43.350668565287094" lon="18.886828166379466"><ele>736.25</ele><time>2026-05-03T13:43:43Z</time></trkpt><trkpt lat="43.350615438022466" lon="18.886696271351834"><ele>735.5</ele><time>2026-05-03T13:43:44Z</time></trkpt><trkpt lat="43.35057802602962" lon="18.8865635040148"><ele>734.75</ele><time>2026-05-03T13:43:45Z</time></trkpt><trkpt lat="43.35052647721608" lon="18.88639998616618"><ele>734.0</ele><time>2026-05-03T13:43:46Z</time></trkpt><trkpt lat="43.3504701113239" lon="18.886223528051634"><ele>746.75</ele><time>2026-05-03T13:43:47Z</time></trkpt><trkpt lat="43.350404751396596" lon="18.88604061100052"><ele>759.5</ele><time>2026-05-03T13:43:48Z</time></trkpt><trkpt lat="43.35035462407051" lon="18.88585768177285"><ele>772.25</ele><time>2026-05-03T13:43:49Z</time></trkpt><trkpt lat="43.35030768491711" lon="18.885660361585913"><ele>785.0</ele><time>2026-05-03T13:43:50Z</time></trkpt><trkpt lat="43.35025702603476" lon="18.885467116512324"><ele>785.0</ele><time>2026-05-03T13:43:51Z</time></trkpt><trkpt lat="43.35021575763223" lon="18.88527591496252"><ele>785.0</ele><time>2026-05-03T13:43:52Z</time></trkpt><trkpt lat="43.35019249701428" lon="18.88508044646195"><ele>785.0</ele><time>2026-05-03T13:43:53Z</time></trkpt><trkpt lat="43.35017283192073" lon="18.88488468930441"><ele>785.0</ele><time>2026-05-03T13:43:54Z</time></trkpt><trkpt lat="43.350128126818745" lon="18.884695206930893"><ele>778.3333333333334</ele><time>2026-05-03T13:43:55Z</time></trkpt><trkpt lat="43.35007129888029" lon="18.88450263482987"><ele>771.6666666666667</ele><time>2026-05-03T13:43:56Z</time></trkpt><trkpt lat="43.350001127649755" lon="18.884314162588407"><ele>765.0</ele><time>2026-05-03T13:43:57Z</time></trkpt><trkpt lat="43.349928677231844" lon="18.88411551615191"><ele>755.6666666666666</ele><time>2026-05-03T13:43:58Z</time></trkpt><trkpt lat="43.34986947005081" lon="18.883911541390415"><ele>746.3333333333333</ele><time>2026-05-03T13:43:59Z</time></trkpt><trkpt lat="43.349814302186594" lon="18.883712242334873"><ele>737.0</ele><time>2026-05-03T13:44:00Z</time></trkpt><trkpt lat="43.34977158598835" lon="18.883516072279956"><ele>733.0</ele><time>2026-05-03T13:44:01Z</time></trkpt><trkpt lat="43.34973535718731" lon="18.88336431809028"><ele>729.0</ele><time>2026-05-03T13:44:02Z</time></trkpt><trkpt lat="43.34971448326509" lon="18.88314159924348"><ele>725.0</ele><time>2026-05-03T13:44:03Z</time></trkpt><trkpt lat="43.349695557134986" lon="18.882937694469263"><ele>721.0</ele><time>2026-05-03T13:44:04Z</time></trkpt><trkpt lat="43.3496928693483" lon="18.88273875371096"><ele>718.0</ele><time>2026-05-03T13:44:05Z</time></trkpt><trkpt lat="43.34973966225754" lon="18.88255888068514"><ele>715.0</ele><time>2026-05-03T13:44:06Z</time></trkpt><trkpt lat="43.34977551875734" lon="18.88237891625058"><ele>712.0</ele><time>2026-05-03T13:44:07Z</time></trkpt><trkpt lat="43.34977401944348" lon="18.8821856486498"><ele>709.0</ele><time>2026-05-03T13:44:08Z</time></trkpt><trkpt lat="43.34981244029463" lon="18.88201378552483"><ele>709.0</ele><time>2026-05-03T13:44:09Z</time></trkpt><trkpt lat="43.349859288182316" lon="18.881845669813348"><ele>709.0</ele><time>2026-05-03T13:44:10Z</time></trkpt><trkpt lat="43.34991140175258" lon="18.881673847549926"><ele>709.0</ele><time>2026-05-03T13:44:11Z</time></trkpt><trkpt lat="43.34997891235491" lon="18.881525693643855"><ele>709.0</ele><time>2026-05-03T13:44:12Z</time></trkpt><trkpt lat="43.35007046349021" lon="18.881393502549727"><ele>709.0</ele><time>2026-05-03T13:44:13Z</time></trkpt><trkpt lat="43.35016511371232" lon="18.881276003622965"><ele>709.0</ele><time>2026-05-03T13:44:14Z</time></trkpt><trkpt lat="43.35025771346965" lon="18.881151496931285"><ele>709.0</ele><time>2026-05-03T13:44:15Z</time></trkpt><trkpt lat="43.350334410341354" lon="18.881006566579682"><ele>709.0</ele><time>2026-05-03T13:44:16Z</time></trkpt><trkpt lat="43.35039325369664" lon="18.880844746884076"><ele>713.5</ele><time>2026-05-03T13:44:17Z</time></trkpt><trkpt lat="43.35044440836175" lon="18.880666711774733"><ele>718.0</ele><time>2026-05-03T13:44:18Z</time></trkpt><trkpt lat="43.350495665044406" lon="18.88050662271499"><ele>722.5</ele><time>2026-05-03T13:44:19Z</time></trkpt><trkpt lat="43.35057021492811" lon="18.880366991396087"><ele>727.0</ele><time>2026-05-03T13:44:20Z</time></trkpt><trkpt lat="43.35065559573964" lon="18.88023890479169"><ele>719.0</ele><time>2026-05-03T13:44:21Z</time></trkpt><trkpt lat="43.35073345887312" lon="18.880092815584256"><ele>711.0</ele><time>2026-05-03T13:44:22Z</time></trkpt><trkpt lat="43.35080627681247" lon="18.879940903370354"><ele>703.0</ele><time>2026-05-03T13:44:23Z</time></trkpt><trkpt lat="43.35087532466173" lon="18.879794896724263"><ele>695.0</ele><time>2026-05-03T13:44:24Z</time></trkpt><trkpt lat="43.35094066960379" lon="18.879645130326058"><ele>695.0</ele><time>2026-05-03T13:44:25Z</time></trkpt><trkpt lat="43.35099181955251" lon="18.879484388204673"><ele>695.0</ele><time>2026-05-03T13:44:26Z</time></trkpt><trkpt lat="43.35103601022293" lon="18.879305206134998"><ele>695.0</ele><time>2026-05-03T13:44:27Z</time></trkpt><trkpt lat="43.35107634442102" lon="18.879113054079962"><ele>695.0</ele><time>2026-05-03T13:44:28Z</time></trkpt><trkpt lat="43.35110495372518" lon="18.878921263855442"><ele>699.0</ele><time>2026-05-03T13:44:29Z</time></trkpt><trkpt lat="43.35116253444847" lon="18.878744665651954"><ele>703.0</ele><time>2026-05-03T13:44:30Z</time></trkpt><trkpt lat="43.351228016052914" lon="18.87859215172772"><ele>707.0</ele><time>2026-05-03T13:44:31Z</time></trkpt><trkpt lat="43.35130154402811" lon="18.878468016969236"><ele>711.0</ele><time>2026-05-03T13:44:32Z</time></trkpt><trkpt lat="43.3513559544995" lon="18.878350333640103"><ele>714.0</ele><time>2026-05-03T13:44:33Z</time></trkpt><trkpt lat="43.35137606798061" lon="18.87820721403188"><ele>717.0</ele><time>2026-05-03T13:44:34Z</time></trkpt><trkpt lat="43.351353789228426" lon="18.878064257438055"><ele>720.0</ele><time>2026-05-03T13:44:35Z</time></trkpt><trkpt lat="43.35132013405546" lon="18.877927585181947"><ele>723.0</ele><time>2026-05-03T13:44:36Z</time></trkpt><trkpt lat="43.351299347767544" lon="18.87780652355682"><ele>726.0</ele><time>2026-05-03T13:44:37Z</time></trkpt><trkpt lat="43.351307427650944" lon="18.877689248897113"><ele>727.8</ele><time>2026-05-03T13:44:38Z</time></trkpt><trkpt lat="43.35134981274025" lon="18.877565407829028"><ele>729.5999999999999</ele><time>2026-05-03T13:44:39Z</time></trkpt><trkpt lat="43.35140447048107" lon="18.87743541652585"><ele>731.4</ele><time>2026-05-03T13:44:40Z</time></trkpt><trkpt lat="43.35145297040854" lon="18.87729077263879"><ele>733.2</ele><time>2026-05-03T13:44:41Z</time></trkpt><trkpt lat="43.35151570982183" lon="18.877153836214976"><ele>735.0</ele><time>2026-05-03T13:44:42Z</time></trkpt><trkpt lat="43.35159354234273" lon="18.87704802683896"><ele>723.0</ele><time>2026-05-03T13:44:43Z</time></trkpt><trkpt lat="43.35167542730431" lon="18.87696327802446"><ele>711.0</ele><time>2026-05-03T13:44:44Z</time></trkpt><trkpt lat="43.351737898361314" lon="18.87687435645424"><ele>699.0</ele><time>2026-05-03T13:44:45Z</time></trkpt><trkpt lat="43.35178059473396" lon="18.87676619513249"><ele>687.0</ele><time>2026-05-03T13:44:46Z</time></trkpt><trkpt lat="43.351791116668416" lon="18.876641485827527"><ele>675.0</ele><time>2026-05-03T13:44:47Z</time></trkpt><trkpt lat="43.35178409337937" lon="18.876489725844927"><ele>675.0</ele><time>2026-05-03T13:44:48Z</time></trkpt><trkpt lat="43.351779107247225" lon="18.876331600353176"><ele>675.0</ele><time>2026-05-03T13:44:49Z</time></trkpt><trkpt lat="43.351772566214706" lon="18.876168825784237"><ele>675.0</ele><time>2026-05-03T13:44:50Z</time></trkpt><trkpt lat="43.35175886892946" lon="18.875990878949516"><ele>675.0</ele><time>2026-05-03T13:44:51Z</time></trkpt><trkpt lat="43.35174954745322" lon="18.875804706766537"><ele>675.75</ele><time>2026-05-03T13:44:52Z</time></trkpt><trkpt lat="43.35172874607231" lon="18.87560490271507"><ele>676.5</ele><time>2026-05-03T13:44:53Z</time></trkpt><trkpt lat="43.35171320416696" lon="18.875424835563816"><ele>677.25</ele><time>2026-05-03T13:44:54Z</time></trkpt><trkpt lat="43.3516939553031" lon="18.875256455395512"><ele>678.0</ele><time>2026-05-03T13:44:55Z</time></trkpt><trkpt lat="43.351670675651405" lon="18.87510584108979"><ele>676.25</ele><time>2026-05-03T13:44:56Z</time></trkpt><trkpt lat="43.35165054841433" lon="18.87494983886511"><ele>674.5</ele><time>2026-05-03T13:44:57Z</time></trkpt><trkpt lat="43.351649008009986" lon="18.87478429837279"><ele>672.75</ele><time>2026-05-03T13:44:58Z</time></trkpt><trkpt lat="43.35164977702421" lon="18.874615774141624"><ele>671.0</ele><time>2026-05-03T13:44:59Z</time></trkpt><trkpt lat="43.35164628585536" lon="18.874449152776986"><ele>671.0</ele><time>2026-05-03T13:45:00Z</time></trkpt><trkpt lat="43.351650724089204" lon="18.874293550229158"><ele>671.0</ele><time>2026-05-03T13:45:01Z</time></trkpt><trkpt lat="43.35169234453068" lon="18.874161300838043"><ele>671.0</ele><time>2026-05-03T13:45:02Z</time></trkpt><trkpt lat="43.35176735241999" lon="18.87407099612085"><ele>671.0</ele><time>2026-05-03T13:45:03Z</time></trkpt><trkpt lat="43.351852475630565" lon="18.873989151688697"><ele>671.0</ele><time>2026-05-03T13:45:04Z</time></trkpt><trkpt lat="43.35192916740791" lon="18.87391219077891"><ele>670.0</ele><time>2026-05-03T13:45:05Z</time></trkpt><trkpt lat="43.35199676430687" lon="18.873831875976876"><ele>669.0</ele><time>2026-05-03T13:45:06Z</time></trkpt><trkpt lat="43.352046703822396" lon="18.873752364594836"><ele>668.0</ele><time>2026-05-03T13:45:07Z</time></trkpt><trkpt lat="43.352081824434656" lon="18.873670424993822"><ele>667.0</ele><time>2026-05-03T13:45:08Z</time></trkpt><trkpt lat="43.35206562846759" lon="18.87348621518152"><ele>666.0</ele><time>2026-05-03T13:45:10Z</time></trkpt><trkpt lat="43.35203117288853" lon="18.87337288066814"><ele>665.0</ele><time>2026-05-03T13:45:11Z</time></trkpt><trkpt lat="43.35197587512682" lon="18.873251646941977"><ele>664.0</ele><time>2026-05-03T13:45:12Z</time></trkpt><trkpt lat="43.35191860893742" lon="18.87313450243055"><ele>663.0</ele><time>2026-05-03T13:45:13Z</time></trkpt><trkpt lat="43.3518457808083" lon="18.873031946650077"><ele>662.0</ele><time>2026-05-03T13:45:14Z</time></trkpt><trkpt lat="43.35174711561976" lon="18.87294989141888"><ele>661.0</ele><time>2026-05-03T13:45:15Z</time></trkpt><trkpt lat="43.35163849025428" lon="18.872882428913012"><ele>661.0</ele><time>2026-05-03T13:45:16Z</time></trkpt><trkpt lat="43.35154446905743" lon="18.87281572492847"><ele>661.0</ele><time>2026-05-03T13:45:17Z</time></trkpt><trkpt lat="43.35145638751183" lon="18.872723211929852"><ele>661.0</ele><time>2026-05-03T13:45:18Z</time></trkpt><trkpt lat="43.351399796571236" lon="18.87260582626507"><ele>661.0</ele><time>2026-05-03T13:45:19Z</time></trkpt><trkpt lat="43.35136879107728" lon="18.872465486211876"><ele>661.0</ele><time>2026-05-03T13:45:20Z</time></trkpt><trkpt lat="43.35134924122811" lon="18.872306470762588"><ele>661.0</ele><time>2026-05-03T13:45:21Z</time></trkpt><trkpt lat="43.35132884972987" lon="18.87213030625501"><ele>661.0</ele><time>2026-05-03T13:45:22Z</time></trkpt><trkpt lat="43.35130172725284" lon="18.871950797691493"><ele>661.0</ele><time>2026-05-03T13:45:23Z</time></trkpt><trkpt lat="43.351279256634186" lon="18.871780119907466"><ele>661.0</ele><time>2026-05-03T13:45:24Z</time></trkpt><trkpt lat="43.35125596541461" lon="18.871626146858137"><ele>661.0</ele><time>2026-05-03T13:45:25Z</time></trkpt><trkpt lat="43.35120968767985" lon="18.871481860393892"><ele>661.0</ele><time>2026-05-03T13:45:26Z</time></trkpt><trkpt lat="43.3511520515607" lon="18.871350107584377"><ele>661.0</ele><time>2026-05-03T13:45:27Z</time></trkpt><trkpt lat="43.351078281122824" lon="18.871217718185832"><ele>661.0</ele><time>2026-05-03T13:45:28Z</time></trkpt><trkpt lat="43.351008397914846" lon="18.871090911078962"><ele>661.0</ele><time>2026-05-03T13:45:29Z</time></trkpt><trkpt lat="43.35092361716158" lon="18.870966822006483"><ele>661.0</ele><time>2026-05-03T13:45:30Z</time></trkpt><trkpt lat="43.35082557057979" lon="18.87087248499979"><ele>661.0</ele><time>2026-05-03T13:45:31Z</time></trkpt><trkpt lat="43.35073046967354" lon="18.870788050013488"><ele>661.0</ele><time>2026-05-03T13:45:32Z</time></trkpt><trkpt lat="43.3506494836551" lon="18.870691740579634"><ele>664.0</ele><time>2026-05-03T13:45:33Z</time></trkpt><trkpt lat="43.35057494960601" lon="18.870578519021205"><ele>667.0</ele><time>2026-05-03T13:45:34Z</time></trkpt><trkpt lat="43.35051830387308" lon="18.87042995648003"><ele>670.0</ele><time>2026-05-03T13:45:35Z</time></trkpt><trkpt lat="43.350471781852264" lon="18.870281094935187"><ele>673.0</ele><time>2026-05-03T13:45:36Z</time></trkpt><trkpt lat="43.35042021118593" lon="18.870134019055513"><ele>666.5999999999999</ele><time>2026-05-03T13:45:37Z</time></trkpt><trkpt lat="43.35036820363675" lon="18.869997629118238"><ele>660.1999999999999</ele><time>2026-05-03T13:45:38Z</time></trkpt><trkpt lat="43.35031276986216" lon="18.869874741807685"><ele>653.8</ele><time>2026-05-03T13:45:39Z</time></trkpt><trkpt lat="43.35024056513186" lon="18.869772064005513"><ele>647.4</ele><time>2026-05-03T13:45:40Z</time></trkpt><trkpt lat="43.350156863136334" lon="18.869695972384925"><ele>641.0</ele><time>2026-05-03T13:45:41Z</time></trkpt><trkpt lat="43.35005784177755" lon="18.86965359122304"><ele>641.0</ele><time>2026-05-03T13:45:42Z</time></trkpt><trkpt lat="43.34995957916942" lon="18.86959985225066"><ele>641.0</ele><time>2026-05-03T13:45:43Z</time></trkpt><trkpt lat="43.349882351779975" lon="18.869504733938072"><ele>641.0</ele><time>2026-05-03T13:45:44Z</time></trkpt><trkpt lat="43.3498356530595" lon="18.86937751646932"><ele>641.0</ele><time>2026-05-03T13:45:45Z</time></trkpt><trkpt lat="43.34980986873149" lon="18.86923011742401"><ele>641.0</ele><time>2026-05-03T13:45:46Z</time></trkpt><trkpt lat="43.349811076438975" lon="18.869077324579614"><ele>635.75</ele><time>2026-05-03T13:45:47Z</time></trkpt><trkpt lat="43.349825086661305" lon="18.868919878914493"><ele>630.5</ele><time>2026-05-03T13:45:48Z</time></trkpt><trkpt lat="43.349837988137374" lon="18.86877177843891"><ele>625.25</ele><time>2026-05-03T13:45:49Z</time></trkpt><trkpt lat="43.349843373456565" lon="18.86860945948372"><ele>620.0</ele><time>2026-05-03T13:45:50Z</time></trkpt><trkpt lat="43.349853943824435" lon="18.868444501158997"><ele>617.25</ele><time>2026-05-03T13:45:51Z</time></trkpt><trkpt lat="43.34984027585886" lon="18.868273584868007"><ele>614.5</ele><time>2026-05-03T13:45:52Z</time></trkpt><trkpt lat="43.349831764689995" lon="18.868099984586145"><ele>611.75</ele><time>2026-05-03T13:45:53Z</time></trkpt><trkpt lat="43.34983300604833" lon="18.86793602120472"><ele>609.0</ele><time>2026-05-03T13:45:54Z</time></trkpt><trkpt lat="43.34987281734106" lon="18.867770544559896"><ele>608.0</ele><time>2026-05-03T13:45:55Z</time></trkpt><trkpt lat="43.34992835754897" lon="18.867601856469093"><ele>607.0</ele><time>2026-05-03T13:45:56Z</time></trkpt><trkpt lat="43.34998022993806" lon="18.86742824719068"><ele>606.0</ele><time>2026-05-03T13:45:57Z</time></trkpt><trkpt lat="43.35003242370667" lon="18.867260686755813"><ele>605.0</ele><time>2026-05-03T13:45:58Z</time></trkpt><trkpt lat="43.35007840791645" lon="18.86708665519255"><ele>605.0</ele><time>2026-05-03T13:45:59Z</time></trkpt><trkpt lat="43.35011038157876" lon="18.86690801700824"><ele>605.0</ele><time>2026-05-03T13:46:00Z</time></trkpt><trkpt lat="43.35011993255883" lon="18.86673358120357"><ele>605.0</ele><time>2026-05-03T13:46:01Z</time></trkpt><trkpt lat="43.35009346726481" lon="18.866558185242823"><ele>605.0</ele><time>2026-05-03T13:46:02Z</time></trkpt><trkpt lat="43.35003670489556" lon="18.866397834001212"><ele>606.5</ele><time>2026-05-03T13:46:03Z</time></trkpt><trkpt lat="43.34999641680327" lon="18.866242206049765"><ele>608.0</ele><time>2026-05-03T13:46:04Z</time></trkpt><trkpt lat="43.34999280192353" lon="18.866085177081395"><ele>609.5</ele><time>2026-05-03T13:46:05Z</time></trkpt><trkpt lat="43.35003308384322" lon="18.865929608073273"><ele>611.0</ele><time>2026-05-03T13:46:06Z</time></trkpt><trkpt lat="43.35007096756702" lon="18.865796958472945"><ele>611.0</ele><time>2026-05-03T13:46:07Z</time></trkpt><trkpt lat="43.350128353822555" lon="18.8656779985341"><ele>611.0</ele><time>2026-05-03T13:46:08Z</time></trkpt><trkpt lat="43.350202121658164" lon="18.86556447025985"><ele>611.0</ele><time>2026-05-03T13:46:09Z</time></trkpt><trkpt lat="43.35027944199936" lon="18.86546978136139"><ele>611.0</ele><time>2026-05-03T13:46:10Z</time></trkpt><trkpt lat="43.350349373531884" lon="18.86537520584338"><ele>611.0</ele><time>2026-05-03T13:46:11Z</time></trkpt><trkpt lat="43.35040188576567" lon="18.865252439804202"><ele>611.25</ele><time>2026-05-03T13:46:12Z</time></trkpt><trkpt lat="43.35043508623717" lon="18.86511008132638"><ele>611.5</ele><time>2026-05-03T13:46:13Z</time></trkpt><trkpt lat="43.350446097648614" lon="18.864951025266507"><ele>611.75</ele><time>2026-05-03T13:46:14Z</time></trkpt><trkpt lat="43.35044043090446" lon="18.864781325114134"><ele>612.0</ele><time>2026-05-03T13:46:15Z</time></trkpt><trkpt lat="43.35043676625725" lon="18.86461960148322"><ele>612.0</ele><time>2026-05-03T13:46:16Z</time></trkpt><trkpt lat="43.350422440242774" lon="18.86445029565957"><ele>612.0</ele><time>2026-05-03T13:46:17Z</time></trkpt><trkpt lat="43.35038374025061" lon="18.864282780775582"><ele>612.0</ele><time>2026-05-03T13:46:18Z</time></trkpt><trkpt lat="43.350341881172746" lon="18.86410678500312"><ele>612.0</ele><time>2026-05-03T13:46:19Z</time></trkpt><trkpt lat="43.35030542791445" lon="18.863927248750077"><ele>610.75</ele><time>2026-05-03T13:46:20Z</time></trkpt><trkpt lat="43.35028582356066" lon="18.86373771835081"><ele>609.5</ele><time>2026-05-03T13:46:21Z</time></trkpt><trkpt lat="43.35029834378364" lon="18.863546766570007"><ele>608.25</ele><time>2026-05-03T13:46:22Z</time></trkpt><trkpt lat="43.35032577490479" lon="18.863361589622016"><ele>607.0</ele><time>2026-05-03T13:46:23Z</time></trkpt><trkpt lat="43.3503449070813" lon="18.86319732890563"><ele>603.75</ele><time>2026-05-03T13:46:24Z</time></trkpt><trkpt lat="43.350363089185535" lon="18.86301936336509"><ele>600.5</ele><time>2026-05-03T13:46:25Z</time></trkpt><trkpt lat="43.35038020010541" lon="18.86283850176022"><ele>597.25</ele><time>2026-05-03T13:46:26Z</time></trkpt><trkpt lat="43.350394423639" lon="18.862653017877708"><ele>594.0</ele><time>2026-05-03T13:46:27Z</time></trkpt><trkpt lat="43.35042470413089" lon="18.862476869372642"><ele>591.0</ele><time>2026-05-03T13:46:28Z</time></trkpt><trkpt lat="43.350454337111536" lon="18.8623065492277"><ele>588.0</ele><time>2026-05-03T13:46:29Z</time></trkpt><trkpt lat="43.350470932493664" lon="18.86215199318759"><ele>585.0</ele><time>2026-05-03T13:46:30Z</time></trkpt><trkpt lat="43.35045509229122" lon="18.861996413661913"><ele>582.0</ele><time>2026-05-03T13:46:31Z</time></trkpt><trkpt lat="43.350408419851775" lon="18.861844000391432"><ele>580.25</ele><time>2026-05-03T13:46:32Z</time></trkpt><trkpt lat="43.35034551908193" lon="18.861701042684466"><ele>578.5</ele><time>2026-05-03T13:46:33Z</time></trkpt><trkpt lat="43.35028040898679" lon="18.861560939650637"><ele>576.75</ele><time>2026-05-03T13:46:34Z</time></trkpt><trkpt lat="43.35022941996398" lon="18.86139559803042"><ele>575.0</ele><time>2026-05-03T13:46:35Z</time></trkpt><trkpt lat="43.350187453098314" lon="18.861242426129227"><ele>575.0</ele><time>2026-05-03T13:46:36Z</time></trkpt><trkpt lat="43.35014182343559" lon="18.861078891260618"><ele>575.0</ele><time>2026-05-03T13:46:37Z</time></trkpt><trkpt lat="43.35010011745046" lon="18.86091429993668"><ele>575.0</ele><time>2026-05-03T13:46:38Z</time></trkpt><trkpt lat="43.35007539894437" lon="18.86074369457231"><ele>575.0</ele><time>2026-05-03T13:46:39Z</time></trkpt><trkpt lat="43.35007212015342" lon="18.860561379415575"><ele>572.0</ele><time>2026-05-03T13:46:40Z</time></trkpt><trkpt lat="43.35008126164938" lon="18.860376627941132"><ele>569.0</ele><time>2026-05-03T13:46:41Z</time></trkpt><trkpt lat="43.35009594920306" lon="18.86021524913011"><ele>566.0</ele><time>2026-05-03T13:46:42Z</time></trkpt><trkpt lat="43.350075030827966" lon="18.860071974953787"><ele>563.0</ele><time>2026-05-03T13:46:43Z</time></trkpt><trkpt lat="43.3500307565348" lon="18.859944522025035"><ele>558.75</ele><time>2026-05-03T13:46:44Z</time></trkpt><trkpt lat="43.349937267382366" lon="18.859824910465278"><ele>554.5</ele><time>2026-05-03T13:46:45Z</time></trkpt><trkpt lat="43.3498420717231" lon="18.85969763661079"><ele>550.25</ele><time>2026-05-03T13:46:46Z</time></trkpt><trkpt lat="43.349763037719256" lon="18.859555771546066"><ele>546.0</ele><time>2026-05-03T13:46:47Z</time></trkpt><trkpt lat="43.34970926150165" lon="18.85941118970226"><ele>544.8333333333334</ele><time>2026-05-03T13:46:48Z</time></trkpt><trkpt lat="43.34968504522064" lon="18.859276742889346"><ele>543.6666666666666</ele><time>2026-05-03T13:46:49Z</time></trkpt><trkpt lat="43.34969101303099" lon="18.859175683898627"><ele>542.5</ele><time>2026-05-03T13:46:50Z</time></trkpt><trkpt lat="43.349748635079735" lon="18.859098976377723"><ele>541.3333333333333</ele><time>2026-05-03T13:46:51Z</time></trkpt><trkpt lat="43.349819488629485" lon="18.859020113519513"><ele>540.1666666666666</ele><time>2026-05-03T13:46:52Z</time></trkpt><trkpt lat="43.34989467193922" lon="18.85893569007933"><ele>539.0</ele><time>2026-05-03T13:46:53Z</time></trkpt><trkpt lat="43.349960518483705" lon="18.858831405752433"><ele>539.0</ele><time>2026-05-03T13:46:54Z</time></trkpt><trkpt lat="43.35001849548752" lon="18.858722938287105"><ele>539.0</ele><time>2026-05-03T13:46:55Z</time></trkpt><trkpt lat="43.35007572867406" lon="18.858603799232814"><ele>539.0</ele><time>2026-05-03T13:46:56Z</time></trkpt><trkpt lat="43.35011415517007" lon="18.858493283618486"><ele>539.0</ele><time>2026-05-03T13:46:57Z</time></trkpt><trkpt lat="43.35012192079818" lon="18.858381960483293"><ele>539.0</ele><time>2026-05-03T13:46:58Z</time></trkpt><trkpt lat="43.35010774528556" lon="18.858270157101007"><ele>540.5</ele><time>2026-05-03T13:46:59Z</time></trkpt><trkpt lat="43.35010407839131" lon="18.858152853132143"><ele>542.0</ele><time>2026-05-03T13:47:00Z</time></trkpt><trkpt lat="43.350110948149265" lon="18.858046017889972"><ele>543.5</ele><time>2026-05-03T13:47:01Z</time></trkpt><trkpt lat="43.35011668788382" lon="18.857936126592627"><ele>545.0</ele><time>2026-05-03T13:47:02Z</time></trkpt><trkpt lat="43.35011504517493" lon="18.857813100256482"><ele>546.5</ele><time>2026-05-03T13:47:03Z</time></trkpt><trkpt lat="43.35011169572084" lon="18.857693388690805"><ele>548.0</ele><time>2026-05-03T13:47:04Z</time></trkpt><trkpt lat="43.35011535665368" lon="18.857559524730835"><ele>552.8333333333333</ele><time>2026-05-03T13:47:05Z</time></trkpt><trkpt lat="43.35012459998759" lon="18.857422448281383"><ele>557.6666666666666</ele><time>2026-05-03T13:47:06Z</time></trkpt><trkpt lat="43.35012494626359" lon="18.857305449841256"><ele>562.5</ele><time>2026-05-03T13:47:07Z</time></trkpt><trkpt lat="43.350126527173835" lon="18.857188345626366"><ele>567.3333333333334</ele><time>2026-05-03T13:47:08Z</time></trkpt><trkpt lat="43.350156262444386" lon="18.85709726690995"><ele>572.1666666666667</ele><time>2026-05-03T13:47:09Z</time></trkpt><trkpt lat="43.350194969117005" lon="18.857007729142182"><ele>577.0</ele><time>2026-05-03T13:47:10Z</time></trkpt><trkpt lat="43.35022041418542" lon="18.8569203473684"><ele>577.0</ele><time>2026-05-03T13:47:11Z</time></trkpt><trkpt lat="43.35023588683977" lon="18.85682787065903"><ele>577.0</ele><time>2026-05-03T13:47:12Z</time></trkpt><trkpt lat="43.35024766089039" lon="18.85672335896839"><ele>577.0</ele><time>2026-05-03T13:47:13Z</time></trkpt><trkpt lat="43.350255519512984" lon="18.856626492022837"><ele>577.0</ele><time>2026-05-03T13:47:14Z</time></trkpt><trkpt lat="43.3502600086784" lon="18.85653072971144"><ele>577.0</ele><time>2026-05-03T13:47:15Z</time></trkpt><trkpt lat="43.350267464500995" lon="18.856425988597344"><ele>577.0</ele><time>2026-05-03T13:47:16Z</time></trkpt><trkpt lat="43.350295117609406" lon="18.85631092788071"><ele>579.2</ele><time>2026-05-03T13:47:17Z</time></trkpt><trkpt lat="43.35033173246277" lon="18.856193686735146"><ele>581.4000000000001</ele><time>2026-05-03T13:47:18Z</time></trkpt><trkpt lat="43.35033544418319" lon="18.856054559252883"><ele>583.5999999999999</ele><time>2026-05-03T13:47:19Z</time></trkpt><trkpt lat="43.350288440096" lon="18.855917771302448"><ele>585.8</ele><time>2026-05-03T13:47:20Z</time></trkpt><trkpt lat="43.35024062459777" lon="18.855775958223457"><ele>588.0</ele><time>2026-05-03T13:47:21Z</time></trkpt><trkpt lat="43.35019520603844" lon="18.855640435981684"><ele>579.0</ele><time>2026-05-03T13:47:22Z</time></trkpt><trkpt lat="43.3501642668719" lon="18.8555060952076"><ele>570.0</ele><time>2026-05-03T13:47:23Z</time></trkpt><trkpt lat="43.350134650969075" lon="18.85537685999486"><ele>561.0</ele><time>2026-05-03T13:47:24Z</time></trkpt><trkpt lat="43.35011049441095" lon="18.855255918550267"><ele>552.0</ele><time>2026-05-03T13:47:25Z</time></trkpt><trkpt lat="43.35010564737629" lon="18.855136408799115"><ele>543.0</ele><time>2026-05-03T13:47:26Z</time></trkpt><trkpt lat="43.35011118465312" lon="18.855021405007886"><ele>537.6</ele><time>2026-05-03T13:47:27Z</time></trkpt><trkpt lat="43.350126695642885" lon="18.8549059760818"><ele>532.1999999999999</ele><time>2026-05-03T13:47:28Z</time></trkpt><trkpt lat="43.35013001492559" lon="18.854774423327054"><ele>526.8</ele><time>2026-05-03T13:47:29Z</time></trkpt><trkpt lat="43.35012258982634" lon="18.854637893063973"><ele>521.4</ele><time>2026-05-03T13:47:30Z</time></trkpt><trkpt lat="43.350108835864674" lon="18.85450325241956"><ele>516.0</ele><time>2026-05-03T13:47:31Z</time></trkpt><trkpt lat="43.35008515596562" lon="18.854372913245168"><ele>512.0</ele><time>2026-05-03T13:47:32Z</time></trkpt><trkpt lat="43.3500597290295" lon="18.85423802309759"><ele>508.0</ele><time>2026-05-03T13:47:33Z</time></trkpt><trkpt lat="43.35003330799757" lon="18.854097173869928"><ele>504.0</ele><time>2026-05-03T13:47:34Z</time></trkpt><trkpt lat="43.35000118039154" lon="18.853943632596582"><ele>500.0</ele><time>2026-05-03T13:47:35Z</time></trkpt><trkpt lat="43.34996888034009" lon="18.853792912816115"><ele>496.0</ele><time>2026-05-03T13:47:36Z</time></trkpt><trkpt lat="43.34993540552497" lon="18.853657306016302"><ele>496.0</ele><time>2026-05-03T13:47:37Z</time></trkpt><trkpt lat="43.34989540847343" lon="18.8535145762864"><ele>496.0</ele><time>2026-05-03T13:47:38Z</time></trkpt><trkpt lat="43.34985860491016" lon="18.85336347323577"><ele>496.0</ele><time>2026-05-03T13:47:39Z</time></trkpt><trkpt lat="43.34982683418422" lon="18.853217240003787"><ele>496.0</ele><time>2026-05-03T13:47:40Z</time></trkpt><trkpt lat="43.349806528636115" lon="18.853065296981647"><ele>490.0</ele><time>2026-05-03T13:47:41Z</time></trkpt><trkpt lat="43.349794475470915" lon="18.85291613334852"><ele>484.0</ele><time>2026-05-03T13:47:42Z</time></trkpt><trkpt lat="43.34976346787721" lon="18.852763938442862"><ele>478.0</ele><time>2026-05-03T13:47:43Z</time></trkpt><trkpt lat="43.34971862551828" lon="18.852619247443634"><ele>472.0</ele><time>2026-05-03T13:47:44Z</time></trkpt><trkpt lat="43.349674000372936" lon="18.852456779979935"><ele>487.5</ele><time>2026-05-03T13:47:45Z</time></trkpt><trkpt lat="43.349627985871436" lon="18.85228882226797"><ele>503.0</ele><time>2026-05-03T13:47:46Z</time></trkpt><trkpt lat="43.3495740855688" lon="18.852121413081413"><ele>518.5</ele><time>2026-05-03T13:47:47Z</time></trkpt><trkpt lat="43.34952165851749" lon="18.8519544833944"><ele>534.0</ele><time>2026-05-03T13:47:48Z</time></trkpt><trkpt lat="43.349466026479426" lon="18.851798675292073"><ele>527.25</ele><time>2026-05-03T13:47:49Z</time></trkpt><trkpt lat="43.349409140956745" lon="18.85162820137322"><ele>520.5</ele><time>2026-05-03T13:47:50Z</time></trkpt><trkpt lat="43.34935520625832" lon="18.85147150065355"><ele>513.75</ele><time>2026-05-03T13:47:51Z</time></trkpt><trkpt lat="43.349304046356984" lon="18.851321531835644"><ele>507.0</ele><time>2026-05-03T13:47:52Z</time></trkpt><trkpt lat="43.349253397641924" lon="18.851167173462674"><ele>507.0</ele><time>2026-05-03T13:47:53Z</time></trkpt><trkpt lat="43.34919978667854" lon="18.851002221521583"><ele>507.0</ele><time>2026-05-03T13:47:54Z</time></trkpt><trkpt lat="43.34915281149529" lon="18.85083990988144"><ele>507.0</ele><time>2026-05-03T13:47:55Z</time></trkpt><trkpt lat="43.34911387098203" lon="18.850677257532865"><ele>507.0</ele><time>2026-05-03T13:47:56Z</time></trkpt><trkpt lat="43.34907830657979" lon="18.850501264303944"><ele>500.25</ele><time>2026-05-03T13:47:57Z</time></trkpt><trkpt lat="43.34904583261861" lon="18.850329089015446"><ele>493.5</ele><time>2026-05-03T13:47:58Z</time></trkpt><trkpt lat="43.34901814754566" lon="18.850149416482097"><ele>486.75</ele><time>2026-05-03T13:47:59Z</time></trkpt><trkpt lat="43.34898881380444" lon="18.84997821664174"><ele>480.0</ele><time>2026-05-03T13:48:00Z</time></trkpt><trkpt lat="43.34896041718403" lon="18.849804492250477"><ele>477.0</ele><time>2026-05-03T13:48:01Z</time></trkpt><trkpt lat="43.34893247445508" lon="18.849632713882343"><ele>474.0</ele><time>2026-05-03T13:48:02Z</time></trkpt><trkpt lat="43.348899799454514" lon="18.84948163778675"><ele>471.0</ele><time>2026-05-03T13:48:03Z</time></trkpt><trkpt lat="43.34887610522888" lon="18.84933192320697"><ele>468.0</ele><time>2026-05-03T13:48:04Z</time></trkpt><trkpt lat="43.34884964082903" lon="18.849181242251777"><ele>465.0</ele><time>2026-05-03T13:48:05Z</time></trkpt><trkpt lat="43.34881493463771" lon="18.849049101577958"><ele>462.0</ele><time>2026-05-03T13:48:06Z</time></trkpt><trkpt lat="43.34879740326933" lon="18.84892969548685"><ele>459.0</ele><time>2026-05-03T13:48:07Z</time></trkpt><trkpt lat="43.348773893219914" lon="18.84883192357001"><ele>456.0</ele><time>2026-05-03T13:48:08Z</time></trkpt><trkpt lat="43.34874192708141" lon="18.8487510912741"><ele>453.0</ele><time>2026-05-03T13:48:10Z</time></trkpt><trkpt lat="43.348841003263416" lon="18.84867102773506"><ele>450.0</ele><time>2026-05-03T13:48:13Z</time></trkpt><trkpt lat="43.34890121194936" lon="18.84862569102707"><ele>450.0</ele><time>2026-05-03T13:48:14Z</time></trkpt><trkpt lat="43.34891629507464" lon="18.848520276634332"><ele>450.0</ele><time>2026-05-03T13:48:15Z</time></trkpt><trkpt lat="43.34887287651118" lon="18.848386261369473"><ele>450.0</ele><time>2026-05-03T13:48:16Z</time></trkpt><trkpt lat="43.34881466058686" lon="18.848271768749374"><ele>450.0</ele><time>2026-05-03T13:48:17Z</time></trkpt><trkpt lat="43.348769094973285" lon="18.848157909467727"><ele>450.0</ele><time>2026-05-03T13:48:18Z</time></trkpt><trkpt lat="43.34873656446054" lon="18.848036542777706"><ele>455.4</ele><time>2026-05-03T13:48:19Z</time></trkpt><trkpt lat="43.34870465857262" lon="18.847904206000063"><ele>460.8</ele><time>2026-05-03T13:48:20Z</time></trkpt><trkpt lat="43.34867269595607" lon="18.847772843320683"><ele>466.20000000000005</ele><time>2026-05-03T13:48:21Z</time></trkpt><trkpt lat="43.34864272766117" lon="18.847632291923414"><ele>471.6</ele><time>2026-05-03T13:48:22Z</time></trkpt><trkpt lat="43.348613353561745" lon="18.847485556644493"><ele>477.0</ele><time>2026-05-03T13:48:23Z</time></trkpt><trkpt lat="43.3485817593429" lon="18.847336327632913"><ele>477.0</ele><time>2026-05-03T13:48:24Z</time></trkpt><trkpt lat="43.348549749343036" lon="18.847187097266332"><ele>477.00000000000006</ele><time>2026-05-03T13:48:25Z</time></trkpt><trkpt lat="43.348521900873514" lon="18.84704394118751"><ele>477.00000000000006</ele><time>2026-05-03T13:48:26Z</time></trkpt><trkpt lat="43.348499864417555" lon="18.846894682417805"><ele>477.0</ele><time>2026-05-03T13:48:27Z</time></trkpt><trkpt lat="43.34848865116005" lon="18.84674498262023"><ele>477.0</ele><time>2026-05-03T13:48:28Z</time></trkpt><trkpt lat="43.34848828246453" lon="18.846593201057722"><ele>474.8</ele><time>2026-05-03T13:48:29Z</time></trkpt><trkpt lat="43.348499216120814" lon="18.846451731060263"><ele>472.6</ele><time>2026-05-03T13:48:30Z</time></trkpt><trkpt lat="43.348515670394804" lon="18.84631474297238"><ele>470.40000000000003</ele><time>2026-05-03T13:48:31Z</time></trkpt><trkpt lat="43.34851222675554" lon="18.846187933931002"><ele>468.20000000000005</ele><time>2026-05-03T13:48:32Z</time></trkpt><trkpt lat="43.34850042264244" lon="18.846069299464354"><ele>466.0</ele><time>2026-05-03T13:48:33Z</time></trkpt><trkpt lat="43.34847672756122" lon="18.84595230361662"><ele>464.83333333333337</ele><time>2026-05-03T13:48:34Z</time></trkpt><trkpt lat="43.34844757617179" lon="18.84584590315257"><ele>463.6666666666667</ele><time>2026-05-03T13:48:35Z</time></trkpt><trkpt lat="43.34842797997406" lon="18.845754229307104"><ele>462.5</ele><time>2026-05-03T13:48:36Z</time></trkpt><trkpt lat="43.34842377158418" lon="18.845607652917245"><ele>461.33333333333337</ele><time>2026-05-03T13:48:38Z</time></trkpt><trkpt lat="43.34845461208608" lon="18.84551823577008"><ele>460.1666666666667</ele><time>2026-05-03T13:48:40Z</time></trkpt><trkpt lat="43.34851371998502" lon="18.845424436935136"><ele>459.0</ele><time>2026-05-03T13:48:43Z</time></trkpt><trkpt lat="43.34859273473977" lon="18.845369537594735"><ele>459.0</ele><time>2026-05-03T13:48:45Z</time></trkpt><trkpt lat="43.34866907852473" lon="18.84531050488665"><ele>459.0</ele><time>2026-05-03T13:48:47Z</time></trkpt><trkpt lat="43.34875124248172" lon="18.845248146666226"><ele>459.0</ele><time>2026-05-03T13:48:49Z</time></trkpt><trkpt lat="43.3488283983784" lon="18.845188386621885"><ele>459.0</ele><time>2026-05-03T13:48:51Z</time></trkpt><trkpt lat="43.348908343712786" lon="18.845130773307645"><ele>459.0</ele><time>2026-05-03T13:48:53Z</time></trkpt><trkpt lat="43.3489766810977" lon="18.84508307920813"><ele>459.0</ele><time>2026-05-03T13:48:55Z</time></trkpt><trkpt lat="43.3490425992247" lon="18.845041277674984"><ele>457.2857142857143</ele><time>2026-05-03T13:48:57Z</time></trkpt><trkpt lat="43.349103571928545" lon="18.845005623926923"><ele>455.57142857142856</ele><time>2026-05-03T13:48:59Z</time></trkpt><trkpt lat="43.34913260346342" lon="18.844922130510277"><ele>453.85714285714283</ele><time>2026-05-03T13:49:01Z</time></trkpt><trkpt lat="43.349107872498166" lon="18.844833228345998"><ele>452.1428571428571</ele><time>2026-05-03T13:49:04Z</time></trkpt><trkpt lat="43.3490879939343" lon="18.844749687930545"><ele>450.42857142857144</ele><time>2026-05-03T13:51:16Z</time></trkpt><trkpt lat="43.349081363399314" lon="18.84465150797979"><ele>448.71428571428567</ele><time>2026-05-03T13:53:11Z</time></trkpt><trkpt lat="43.34907060362854" lon="18.844547978545005"><ele>447.0</ele><time>2026-05-03T13:53:13Z</time></trkpt><trkpt lat="43.349056164771206" lon="18.844457280073946"><ele>447.0</ele><time>2026-05-03T13:53:16Z</time></trkpt><trkpt lat="43.349051932547624" lon="18.844362219832092"><ele>447.0</ele><time>2026-05-03T13:53:24Z</time></trkpt><trkpt lat="43.349034775889045" lon="18.844245822860405"><ele>447.0</ele><time>2026-05-03T13:53:26Z</time></trkpt><trkpt lat="43.34901773889532" lon="18.84411082457772"><ele>447.0</ele><time>2026-05-03T13:53:28Z</time></trkpt><trkpt lat="43.34900333635891" lon="18.844001202127593"><ele>447.0</ele><time>2026-05-03T13:53:30Z</time></trkpt><trkpt lat="43.34899279599279" lon="18.843914858446148"><ele>447.0</ele><time>2026-05-03T13:53:33Z</time></trkpt><trkpt lat="43.348947396329756" lon="18.843797723215207"><ele>447.6</ele><time>2026-05-03T13:57:02Z</time></trkpt><trkpt lat="43.348946916331634" lon="18.843630206249525"><ele>448.20000000000005</ele><time>2026-05-03T13:57:04Z</time></trkpt><trkpt lat="43.34893115968879" lon="18.843503760979623"><ele>448.8</ele><time>2026-05-03T13:57:05Z</time></trkpt><trkpt lat="43.348927034364756" lon="18.84336066217422"><ele>449.4</ele><time>2026-05-03T13:57:06Z</time></trkpt><trkpt lat="43.348930983565225" lon="18.8432051088085"><ele>450.0</ele><time>2026-05-03T13:57:07Z</time></trkpt><trkpt lat="43.34893989603105" lon="18.843049225156097"><ele>450.2</ele><time>2026-05-03T13:57:08Z</time></trkpt><trkpt lat="43.34895595417399" lon="18.84289614334046"><ele>450.4</ele><time>2026-05-03T13:57:09Z</time></trkpt><trkpt lat="43.34897624835809" lon="18.842746962273523"><ele>450.6</ele><time>2026-05-03T13:57:10Z</time></trkpt><trkpt lat="43.34899017082002" lon="18.842595346276966"><ele>450.8</ele><time>2026-05-03T13:57:11Z</time></trkpt><trkpt lat="43.349006576545925" lon="18.842454982161062"><ele>451.0</ele><time>2026-05-03T13:57:12Z</time></trkpt><trkpt lat="43.34903602771681" lon="18.84232527301764"><ele>450.6666666666667</ele><time>2026-05-03T13:57:13Z</time></trkpt><trkpt lat="43.34908481945197" lon="18.842224378660873"><ele>450.33333333333337</ele><time>2026-05-03T13:57:14Z</time></trkpt><trkpt lat="43.349151632878716" lon="18.842169552505926"><ele>450.0</ele><time>2026-05-03T13:57:15Z</time></trkpt><trkpt lat="43.34922987729286" lon="18.84213758156427"><ele>449.66666666666663</ele><time>2026-05-03T13:57:16Z</time></trkpt><trkpt lat="43.34929502417318" lon="18.84211863871902"><ele>449.3333333333333</ele><time>2026-05-03T13:57:17Z</time></trkpt><trkpt lat="43.349370634929635" lon="18.842031296587493"><ele>449.0</ele><time>2026-05-03T13:57:19Z</time></trkpt><trkpt lat="43.34939280649464" lon="18.841935292797636"><ele>448.99999999999994</ele><time>2026-05-03T13:57:21Z</time></trkpt><trkpt lat="43.349395029659235" lon="18.841816795162103"><ele>449.0</ele><time>2026-05-03T13:57:23Z</time></trkpt><trkpt lat="43.34939313935954" lon="18.84168543212631"><ele>449.0</ele><time>2026-05-03T13:57:25Z</time></trkpt><trkpt lat="43.34938562724045" lon="18.841523085291886"><ele>449.0</ele><time>2026-05-03T13:57:27Z</time></trkpt><trkpt lat="43.34938938587732" lon="18.84142374511542"><ele>448.99999999999994</ele><time>2026-05-03T13:57:28Z</time></trkpt><trkpt lat="43.34938700771464" lon="18.84132177029387"><ele>449.0</ele><time>2026-05-03T13:57:29Z</time></trkpt><trkpt lat="43.349380812376126" lon="18.841218032644885"><ele>449.66666666666663</ele><time>2026-05-03T13:57:30Z</time></trkpt><trkpt lat="43.34938150493264" lon="18.841128628074745"><ele>450.3333333333333</ele><time>2026-05-03T13:57:31Z</time></trkpt><trkpt lat="43.34938576464044" lon="18.841037029111302"><ele>451.0</ele><time>2026-05-03T13:57:32Z</time></trkpt><trkpt lat="43.349394454810415" lon="18.84094682849869"><ele>451.66666666666663</ele><time>2026-05-03T13:57:33Z</time></trkpt><trkpt lat="43.34940465552804" lon="18.840773461154182"><ele>452.3333333333333</ele><time>2026-05-03T13:57:35Z</time></trkpt><trkpt lat="43.349423420096244" lon="18.840610670379153"><ele>453.0</ele><time>2026-05-03T13:57:37Z</time></trkpt><trkpt lat="43.34944478055136" lon="18.84047488426475"><ele>453.0</ele><time>2026-05-03T13:57:39Z</time></trkpt><trkpt lat="43.34947187186879" lon="18.840370218864642"><ele>453.0</ele><time>2026-05-03T13:57:41Z</time></trkpt><trkpt lat="43.349484181256734" lon="18.84028115738415"><ele>453.0</ele><time>2026-05-03T13:57:43Z</time></trkpt><trkpt lat="43.349493015028976" lon="18.84017171537547"><ele>453.0</ele><time>2026-05-03T13:57:46Z</time></trkpt><trkpt lat="43.349526484269695" lon="18.84007619683951"><ele>453.0</ele><time>2026-05-03T13:58:00Z</time></trkpt><trkpt lat="43.34956590117705" lon="18.839957784341287"><ele>453.0</ele><time>2026-05-03T13:58:02Z</time></trkpt><trkpt lat="43.34963968011045" lon="18.839821777916796"><ele>452.3333333333333</ele><time>2026-05-03T13:58:04Z</time></trkpt><trkpt lat="43.3496965356679" lon="18.839752502667892"><ele>451.66666666666663</ele><time>2026-05-03T13:58:05Z</time></trkpt><trkpt lat="43.349749117806994" lon="18.839698484000625"><ele>451.0</ele><time>2026-05-03T13:58:06Z</time></trkpt><trkpt lat="43.3498325668841" lon="18.839674774484727"><ele>450.3333333333333</ele><time>2026-05-03T13:58:08Z</time></trkpt><trkpt lat="43.3499189389824" lon="18.83958210397188"><ele>449.66666666666663</ele><time>2026-05-03T13:58:10Z</time></trkpt><trkpt lat="43.34997356294584" lon="18.839516338153558"><ele>449.0</ele><time>2026-05-03T13:58:11Z</time></trkpt><trkpt lat="43.35002024480464" lon="18.839443762956787"><ele>451.66666666666663</ele><time>2026-05-03T13:58:12Z</time></trkpt><trkpt lat="43.350054965761785" lon="18.839347872369586"><ele>454.3333333333333</ele><time>2026-05-03T13:58:13Z</time></trkpt><trkpt lat="43.35008604079824" lon="18.83925579936763"><ele>457.0</ele><time>2026-05-03T13:58:14Z</time></trkpt><trkpt lat="43.35010903342107" lon="18.839151880374914"><ele>459.66666666666663</ele><time>2026-05-03T13:58:15Z</time></trkpt><trkpt lat="43.35013123013149" lon="18.839049221462403"><ele>462.3333333333333</ele><time>2026-05-03T13:58:16Z</time></trkpt><trkpt lat="43.350152581996184" lon="18.838944100529886"><ele>465.0</ele><time>2026-05-03T13:58:17Z</time></trkpt><trkpt lat="43.35017748217106" lon="18.838847665030627"><ele>465.0</ele><time>2026-05-03T13:58:18Z</time></trkpt><trkpt lat="43.35021872808994" lon="18.83878209480128"><ele>465.0</ele><time>2026-05-03T13:58:19Z</time></trkpt><trkpt lat="43.35035437882683" lon="18.838720809840698"><ele>465.0</ele><time>2026-05-03T13:58:21Z</time></trkpt><trkpt lat="43.35044976847048" lon="18.838678654581248"><ele>465.0</ele><time>2026-05-03T13:58:22Z</time></trkpt><trkpt lat="43.35050088249821" lon="18.83858375342059"><ele>465.0</ele><time>2026-05-03T13:58:23Z</time></trkpt><trkpt lat="43.35052026812262" lon="18.83845708649578"><ele>463.1666666666667</ele><time>2026-05-03T13:58:24Z</time></trkpt><trkpt lat="43.350518334879006" lon="18.83833430935981"><ele>461.33333333333337</ele><time>2026-05-03T13:58:25Z</time></trkpt><trkpt lat="43.350522307280215" lon="18.83822993196761"><ele>459.5</ele><time>2026-05-03T13:58:26Z</time></trkpt><trkpt lat="43.35055075680888" lon="18.838136429477203"><ele>457.6666666666667</ele><time>2026-05-03T13:58:27Z</time></trkpt><trkpt lat="43.35059160783196" lon="18.83804565468566"><ele>455.83333333333337</ele><time>2026-05-03T13:58:28Z</time></trkpt><trkpt lat="43.350639265182394" lon="18.837937475453725"><ele>454.0</ele><time>2026-05-03T13:58:29Z</time></trkpt><trkpt lat="43.35069090974912" lon="18.837825458500493"><ele>459.79999999999995</ele><time>2026-05-03T13:58:30Z</time></trkpt><trkpt lat="43.35074127213769" lon="18.837713880313462"><ele>465.59999999999997</ele><time>2026-05-03T13:58:31Z</time></trkpt><trkpt lat="43.35079278577749" lon="18.837591243410877"><ele>471.4</ele><time>2026-05-03T13:58:32Z</time></trkpt><trkpt lat="43.350842929779304" lon="18.837471895708457"><ele>477.2</ele><time>2026-05-03T13:58:33Z</time></trkpt><trkpt lat="43.350880501788915" lon="18.83734138456964"><ele>483.0</ele><time>2026-05-03T13:58:34Z</time></trkpt><trkpt lat="43.35089234872699" lon="18.83721089621822"><ele>483.0</ele><time>2026-05-03T13:58:35Z</time></trkpt><trkpt lat="43.35087900123258" lon="18.837083025087214"><ele>482.99999999999994</ele><time>2026-05-03T13:58:36Z</time></trkpt><trkpt lat="43.35085822365885" lon="18.83696138993028"><ele>482.99999999999994</ele><time>2026-05-03T13:58:37Z</time></trkpt><trkpt lat="43.35084616642361" lon="18.836820660924136"><ele>483.0</ele><time>2026-05-03T13:58:38Z</time></trkpt><trkpt lat="43.350856600417714" lon="18.83667659860074"><ele>483.0</ele><time>2026-05-03T13:58:39Z</time></trkpt><trkpt lat="43.350880148237664" lon="18.836538425534485"><ele>481.0</ele><time>2026-05-03T13:58:40Z</time></trkpt><trkpt lat="43.35092219665523" lon="18.836421297828846"><ele>478.99999999999994</ele><time>2026-05-03T13:58:41Z</time></trkpt><trkpt lat="43.35098272314325" lon="18.836308774089133"><ele>476.99999999999994</ele><time>2026-05-03T13:58:42Z</time></trkpt><trkpt lat="43.35105906645251" lon="18.83622292155302"><ele>475.0</ele><time>2026-05-03T13:58:43Z</time></trkpt><trkpt lat="43.35113966267228" lon="18.836145277824265"><ele>473.0</ele><time>2026-05-03T13:58:44Z</time></trkpt><trkpt lat="43.351206759070436" lon="18.836050168603613"><ele>471.5</ele><time>2026-05-03T13:58:45Z</time></trkpt><trkpt lat="43.351247790998286" lon="18.835914886851743"><ele>470.0</ele><time>2026-05-03T13:58:46Z</time></trkpt><trkpt lat="43.351275716991175" lon="18.835742386576253"><ele>468.5</ele><time>2026-05-03T13:58:47Z</time></trkpt><trkpt lat="43.35131240313133" lon="18.83557990325176"><ele>467.0</ele><time>2026-05-03T13:58:48Z</time></trkpt><trkpt lat="43.35135727056299" lon="18.835413167671803"><ele>475.66666666666663</ele><time>2026-05-03T13:58:49Z</time></trkpt><trkpt lat="43.35141401157288" lon="18.835222742498868"><ele>484.33333333333337</ele><time>2026-05-03T13:58:50Z</time></trkpt><trkpt lat="43.351463763617666" lon="18.835015914995772"><ele>493.0</ele><time>2026-05-03T13:58:51Z</time></trkpt><trkpt lat="43.351497214513735" lon="18.83481045336873"><ele>493.0</ele><time>2026-05-03T13:58:52Z</time></trkpt><trkpt lat="43.351526496696266" lon="18.834606440106977"><ele>493.0</ele><time>2026-05-03T13:58:53Z</time></trkpt><trkpt lat="43.35155658286825" lon="18.834425474883677"><ele>493.0</ele><time>2026-05-03T13:58:54Z</time></trkpt><trkpt lat="43.35159287267792" lon="18.83426160438409"><ele>493.0</ele><time>2026-05-03T13:58:55Z</time></trkpt><trkpt lat="43.351627309867176" lon="18.834121377885225"><ele>492.2</ele><time>2026-05-03T13:58:56Z</time></trkpt><trkpt lat="43.35166272371569" lon="18.83398851701076"><ele>491.4</ele><time>2026-05-03T13:58:57Z</time></trkpt><trkpt lat="43.35170335979123" lon="18.83385348095661"><ele>490.59999999999997</ele><time>2026-05-03T13:58:58Z</time></trkpt><trkpt lat="43.35175611591145" lon="18.833708821352236"><ele>489.79999999999995</ele><time>2026-05-03T13:58:59Z</time></trkpt><trkpt lat="43.35180143341245" lon="18.833567339921988"><ele>489.0</ele><time>2026-05-03T13:59:00Z</time></trkpt><trkpt lat="43.35183561440208" lon="18.833412823952063"><ele>487.79999999999995</ele><time>2026-05-03T13:59:01Z</time></trkpt><trkpt lat="43.35185261491242" lon="18.833262054811282"><ele>486.59999999999997</ele><time>2026-05-03T13:59:02Z</time></trkpt><trkpt lat="43.351862643366246" lon="18.833111672064074"><ele>485.4</ele><time>2026-05-03T13:59:03Z</time></trkpt><trkpt lat="43.35188561936859" lon="18.832967068591422"><ele>484.2</ele><time>2026-05-03T13:59:04Z</time></trkpt><trkpt lat="43.35192703636752" lon="18.832831116734603"><ele>483.0</ele><time>2026-05-03T13:59:05Z</time></trkpt><trkpt lat="43.35199736341407" lon="18.83271885196759"><ele>481.59999999999997</ele><time>2026-05-03T13:59:06Z</time></trkpt><trkpt lat="43.35207553984401" lon="18.832616474171854"><ele>480.19999999999993</ele><time>2026-05-03T13:59:07Z</time></trkpt><trkpt lat="43.35213973013702" lon="18.83252918979197"><ele>478.8</ele><time>2026-05-03T13:59:08Z</time></trkpt><trkpt lat="43.35220161998003" lon="18.832444012191026"><ele>477.4</ele><time>2026-05-03T13:59:09Z</time></trkpt><trkpt lat="43.352275694929666" lon="18.83238198501875"><ele>476.0</ele><time>2026-05-03T13:59:10Z</time></trkpt><trkpt lat="43.35236669205528" lon="18.83232824310116"><ele>479.6</ele><time>2026-05-03T13:59:11Z</time></trkpt><trkpt lat="43.35243901244211" lon="18.832231399618543"><ele>483.20000000000005</ele><time>2026-05-03T13:59:12Z</time></trkpt><trkpt lat="43.35248127786005" lon="18.832079808041005"><ele>486.79999999999995</ele><time>2026-05-03T13:59:13Z</time></trkpt><trkpt lat="43.352514586048244" lon="18.83193742543253"><ele>490.4</ele><time>2026-05-03T13:59:14Z</time></trkpt><trkpt lat="43.35254711761803" lon="18.83182600735126"><ele>494.0</ele><time>2026-05-03T13:59:15Z</time></trkpt><trkpt lat="43.35255999061464" lon="18.831726170886686"><ele>494.0</ele><time>2026-05-03T13:59:16Z</time></trkpt><trkpt lat="43.352484784282446" lon="18.831583063908738"><ele>494.0</ele><time>2026-05-03T13:59:18Z</time></trkpt><trkpt lat="43.35241478461911" lon="18.831523956276488"><ele>494.0</ele><time>2026-05-03T13:59:19Z</time></trkpt><trkpt lat="43.352347944233976" lon="18.831470782650317"><ele>494.0</ele><time>2026-05-03T13:59:20Z</time></trkpt><trkpt lat="43.35228020720132" lon="18.8314090931765"><ele>494.0</ele><time>2026-05-03T13:59:21Z</time></trkpt><trkpt lat="43.35221791229836" lon="18.831334239887823"><ele>489.6</ele><time>2026-05-03T13:59:22Z</time></trkpt><trkpt lat="43.352155906306926" lon="18.831257395065048"><ele>485.2</ele><time>2026-05-03T13:59:23Z</time></trkpt><trkpt lat="43.35208228514287" lon="18.8311916842479"><ele>480.80000000000007</ele><time>2026-05-03T13:59:24Z</time></trkpt><trkpt lat="43.35199445936589" lon="18.83114504303143"><ele>476.40000000000003</ele><time>2026-05-03T13:59:25Z</time></trkpt><trkpt lat="43.35189974884675" lon="18.83108471957483"><ele>472.0</ele><time>2026-05-03T13:59:26Z</time></trkpt><trkpt lat="43.351812286483145" lon="18.831006713222973"><ele>473.0</ele><time>2026-05-03T13:59:27Z</time></trkpt><trkpt lat="43.351740102350405" lon="18.83089011118823"><ele>474.00000000000006</ele><time>2026-05-03T13:59:28Z</time></trkpt><trkpt lat="43.35168388103487" lon="18.83075542825302"><ele>475.00000000000006</ele><time>2026-05-03T13:59:29Z</time></trkpt><trkpt lat="43.35164376485905" lon="18.830635243776186"><ele>476.0</ele><time>2026-05-03T13:59:30Z</time></trkpt><trkpt lat="43.35160595313138" lon="18.83052450811601"><ele>477.0</ele><time>2026-05-03T13:59:31Z</time></trkpt><trkpt lat="43.35157823393135" lon="18.830409732063174"><ele>477.0</ele><time>2026-05-03T13:59:32Z</time></trkpt><trkpt lat="43.351583761566644" lon="18.830288431085922"><ele>477.00000000000006</ele><time>2026-05-03T13:59:33Z</time></trkpt><trkpt lat="43.35160504964313" lon="18.830152727030555"><ele>477.00000000000006</ele><time>2026-05-03T13:59:34Z</time></trkpt><trkpt lat="43.351624762282206" lon="18.830003800727873"><ele>477.0</ele><time>2026-05-03T13:59:35Z</time></trkpt><trkpt lat="43.35164460093213" lon="18.829866233285852"><ele>477.0</ele><time>2026-05-03T13:59:36Z</time></trkpt><trkpt lat="43.35165886143076" lon="18.829744959120642"><ele>478.0</ele><time>2026-05-03T13:59:37Z</time></trkpt><trkpt lat="43.351673747870315" lon="18.82960568926806"><ele>479.0</ele><time>2026-05-03T13:59:38Z</time></trkpt><trkpt lat="43.351681022801685" lon="18.829468081062743"><ele>480.0</ele><time>2026-05-03T13:59:39Z</time></trkpt><trkpt lat="43.35169163943475" lon="18.829301470788973"><ele>481.0</ele><time>2026-05-03T13:59:40Z</time></trkpt><trkpt lat="43.35171100548056" lon="18.829129944546672"><ele>481.0</ele><time>2026-05-03T13:59:41Z</time></trkpt><trkpt lat="43.351726948692615" lon="18.82897041491373"><ele>481.0</ele><time>2026-05-03T13:59:42Z</time></trkpt><trkpt lat="43.35173805432963" lon="18.828836693596738"><ele>481.0</ele><time>2026-05-03T13:59:43Z</time></trkpt><trkpt lat="43.35174658143477" lon="18.828688414163597"><ele>481.0</ele><time>2026-05-03T13:59:44Z</time></trkpt><trkpt lat="43.351759997565466" lon="18.828529729800923"><ele>481.0</ele><time>2026-05-03T13:59:45Z</time></trkpt><trkpt lat="43.351782004790714" lon="18.828374916818728"><ele>480.0</ele><time>2026-05-03T13:59:46Z</time></trkpt><trkpt lat="43.35180461170037" lon="18.828233733343236"><ele>479.0</ele><time>2026-05-03T13:59:47Z</time></trkpt><trkpt lat="43.3518343810885" lon="18.82808290619445"><ele>478.0</ele><time>2026-05-03T13:59:48Z</time></trkpt><trkpt lat="43.35186304763378" lon="18.82794342068594"><ele>477.0</ele><time>2026-05-03T13:59:49Z</time></trkpt><trkpt lat="43.35189519638427" lon="18.82777061047541"><ele>476.20000000000005</ele><time>2026-05-03T13:59:50Z</time></trkpt><trkpt lat="43.35189960680089" lon="18.827595365408932"><ele>475.40000000000003</ele><time>2026-05-03T13:59:51Z</time></trkpt><trkpt lat="43.35190380763798" lon="18.82746057607661"><ele>474.59999999999997</ele><time>2026-05-03T13:59:52Z</time></trkpt><trkpt lat="43.35194309092403" lon="18.827344614079642"><ele>473.79999999999995</ele><time>2026-05-03T13:59:53Z</time></trkpt><trkpt lat="43.351999488514146" lon="18.82724245539344"><ele>473.0</ele><time>2026-05-03T13:59:54Z</time></trkpt><trkpt lat="43.352077609630925" lon="18.827146187993804"><ele>473.0</ele><time>2026-05-03T13:59:55Z</time></trkpt><trkpt lat="43.352180510225786" lon="18.827066890699303"><ele>473.0</ele><time>2026-05-03T13:59:56Z</time></trkpt><trkpt lat="43.352296769528536" lon="18.826998578941406"><ele>473.0</ele><time>2026-05-03T13:59:57Z</time></trkpt><trkpt lat="43.35240865835567" lon="18.826921386594027"><ele>473.0</ele><time>2026-05-03T13:59:58Z</time></trkpt><trkpt lat="43.35250401345884" lon="18.82684793474224"><ele>475.59999999999997</ele><time>2026-05-03T13:59:59Z</time></trkpt><trkpt lat="43.35260447405579" lon="18.826794590442365"><ele>478.19999999999993</ele><time>2026-05-03T14:00:00Z</time></trkpt><trkpt lat="43.35271059694531" lon="18.82675909823736"><ele>480.8</ele><time>2026-05-03T14:00:01Z</time></trkpt><trkpt lat="43.35280721453526" lon="18.82674926732134"><ele>483.4</ele><time>2026-05-03T14:00:02Z</time></trkpt><trkpt lat="43.352882841528015" lon="18.826705056209583"><ele>486.0</ele><time>2026-05-03T14:00:03Z</time></trkpt><trkpt lat="43.35292822997509" lon="18.82662856932005"><ele>486.0</ele><time>2026-05-03T14:00:04Z</time></trkpt><trkpt lat="43.35296013355008" lon="18.826517986502676"><ele>486.0</ele><time>2026-05-03T14:00:05Z</time></trkpt><trkpt lat="43.352971187900124" lon="18.826406599863994"><ele>486.0</ele><time>2026-05-03T14:00:06Z</time></trkpt><trkpt lat="43.35299295914978" lon="18.826278876739504"><ele>486.0</ele><time>2026-05-03T14:00:07Z</time></trkpt><trkpt lat="43.35302902458385" lon="18.826149176117344"><ele>486.0</ele><time>2026-05-03T14:00:08Z</time></trkpt><trkpt lat="43.353073317757776" lon="18.82600648325833"><ele>488.25</ele><time>2026-05-03T14:00:09Z</time></trkpt><trkpt lat="43.35312064451707" lon="18.825850097783007"><ele>490.5</ele><time>2026-05-03T14:00:10Z</time></trkpt><trkpt lat="43.35316329839439" lon="18.825687433885708"><ele>492.75</ele><time>2026-05-03T14:00:11Z</time></trkpt><trkpt lat="43.353196172146" lon="18.8255206221818"><ele>495.0</ele><time>2026-05-03T14:00:12Z</time></trkpt><trkpt lat="43.35321162151643" lon="18.825352561390623"><ele>495.0</ele><time>2026-05-03T14:00:13Z</time></trkpt><trkpt lat="43.35321258913133" lon="18.825153074857216"><ele>495.0</ele><time>2026-05-03T14:00:14Z</time></trkpt><trkpt lat="43.35321684740593" lon="18.82491809843925"><ele>495.0</ele><time>2026-05-03T14:00:15Z</time></trkpt><trkpt lat="43.35322138534489" lon="18.824688014843673"><ele>492.33333333333337</ele><time>2026-05-03T14:00:16Z</time></trkpt><trkpt lat="43.353222449074366" lon="18.82447812913403"><ele>489.6666666666667</ele><time>2026-05-03T14:00:17Z</time></trkpt><trkpt lat="43.353235168203135" lon="18.824269890298172"><ele>487.0</ele><time>2026-05-03T14:00:18Z</time></trkpt><trkpt lat="43.35325254821915" lon="18.824066296615072"><ele>485.25</ele><time>2026-05-03T14:00:19Z</time></trkpt><trkpt lat="43.35327699223751" lon="18.823863170614977"><ele>483.5</ele><time>2026-05-03T14:00:20Z</time></trkpt><trkpt lat="43.35330969556947" lon="18.823688207490704"><ele>481.75</ele><time>2026-05-03T14:00:21Z</time></trkpt><trkpt lat="43.353374312003766" lon="18.823533555166645"><ele>480.0</ele><time>2026-05-03T14:00:22Z</time></trkpt><trkpt lat="43.35346159503081" lon="18.823400800303386"><ele>478.5</ele><time>2026-05-03T14:00:23Z</time></trkpt><trkpt lat="43.35357707919604" lon="18.823298514718804"><ele>477.0</ele><time>2026-05-03T14:00:24Z</time></trkpt><trkpt lat="43.35369473293007" lon="18.823213769511547"><ele>475.5</ele><time>2026-05-03T14:00:25Z</time></trkpt><trkpt lat="43.3538226617589" lon="18.823120803108285"><ele>474.0</ele><time>2026-05-03T14:00:26Z</time></trkpt><trkpt lat="43.35394425772789" lon="18.823008795906524"><ele>474.75</ele><time>2026-05-03T14:00:27Z</time></trkpt><trkpt lat="43.354050701560574" lon="18.82289523961351"><ele>475.5</ele><time>2026-05-03T14:00:28Z</time></trkpt><trkpt lat="43.35415103972979" lon="18.822787669405034"><ele>476.25</ele><time>2026-05-03T14:00:29Z</time></trkpt><trkpt lat="43.35424094467709" lon="18.82270463173871"><ele>477.0</ele><time>2026-05-03T14:00:30Z</time></trkpt><trkpt lat="43.35432866027344" lon="18.822627754096324"><ele>477.0</ele><time>2026-05-03T14:00:31Z</time></trkpt><trkpt lat="43.354393821169054" lon="18.822566202085046"><ele>477.0</ele><time>2026-05-03T14:00:32Z</time></trkpt><trkpt lat="43.3544504430234" lon="18.822481461125154"><ele>477.0</ele><time>2026-05-03T14:00:34Z</time></trkpt><trkpt lat="43.35446994806573" lon="18.82238838127246"><ele>477.0</ele><time>2026-05-03T14:00:43Z</time></trkpt><trkpt lat="43.35447753768597" lon="18.82228125090366"><ele>477.0</ele><time>2026-05-03T14:00:46Z</time></trkpt><trkpt lat="43.35448145154872" lon="18.822190151982824"><ele>477.0</ele><time>2026-05-03T14:00:51Z</time></trkpt><trkpt lat="43.35444925280126" lon="18.822099829099187"><ele>477.0</ele><time>2026-05-03T14:00:53Z</time></trkpt><trkpt lat="43.35441608595104" lon="18.82200774869519"><ele>477.0</ele><time>2026-05-03T14:00:55Z</time></trkpt><trkpt lat="43.354381087863615" lon="18.821907289695282"><ele>477.0</ele><time>2026-05-03T14:00:58Z</time></trkpt><trkpt lat="43.35434602749723" lon="18.821801987864145"><ele>477.0</ele><time>2026-05-03T14:01:01Z</time></trkpt><trkpt lat="43.354316566573715" lon="18.821677794172988"><ele>477.0</ele><time>2026-05-03T14:01:04Z</time></trkpt><trkpt lat="43.35429384250742" lon="18.821588289310856"><ele>477.0</ele><time>2026-05-03T14:01:06Z</time></trkpt><trkpt lat="43.35429912205019" lon="18.821477433516016"><ele>476.0</ele><time>2026-05-03T14:01:09Z</time></trkpt><trkpt lat="43.354287679428495" lon="18.821392181665896"><ele>475.00000000000006</ele><time>2026-05-03T14:01:13Z</time></trkpt><trkpt lat="43.354297389928554" lon="18.821279169823406"><ele>474.00000000000006</ele><time>2026-05-03T14:01:15Z</time></trkpt><trkpt lat="43.354325857665714" lon="18.82117138971832"><ele>473.0</ele><time>2026-05-03T14:01:17Z</time></trkpt><trkpt lat="43.354357198640756" lon="18.821026958389215"><ele>472.0</ele><time>2026-05-03T14:01:19Z</time></trkpt><trkpt lat="43.354382919497674" lon="18.82087146546546"><ele>471.83333333333337</ele><time>2026-05-03T14:01:21Z</time></trkpt><trkpt lat="43.35439582636876" lon="18.820777238266942"><ele>471.6666666666667</ele><time>2026-05-03T14:01:22Z</time></trkpt><trkpt lat="43.35440946071304" lon="18.82067658663833"><ele>471.5</ele><time>2026-05-03T14:01:23Z</time></trkpt><trkpt lat="43.35442353960489" lon="18.820567789864466"><ele>471.33333333333337</ele><time>2026-05-03T14:01:24Z</time></trkpt><trkpt lat="43.35444180897244" lon="18.820444110979214"><ele>471.1666666666667</ele><time>2026-05-03T14:01:25Z</time></trkpt><trkpt lat="43.354472378517734" lon="18.820316578169695"><ele>471.0</ele><time>2026-05-03T14:01:26Z</time></trkpt><trkpt lat="43.35453068770462" lon="18.82019300423718"><ele>470.20000000000005</ele><time>2026-05-03T14:01:27Z</time></trkpt><trkpt lat="43.35461163764733" lon="18.82008462420312"><ele>469.40000000000003</ele><time>2026-05-03T14:01:28Z</time></trkpt><trkpt lat="43.35468592531997" lon="18.81997839314715"><ele>468.6</ele><time>2026-05-03T14:01:29Z</time></trkpt><trkpt lat="43.354740262250246" lon="18.819852211434355"><ele>467.8</ele><time>2026-05-03T14:01:30Z</time></trkpt><trkpt lat="43.35477670056063" lon="18.81970081296263"><ele>467.0</ele><time>2026-05-03T14:01:31Z</time></trkpt><trkpt lat="43.35480390483789" lon="18.819535693865834"><ele>473.25</ele><time>2026-05-03T14:01:32Z</time></trkpt><trkpt lat="43.35482889846708" lon="18.81935312166499"><ele>479.5</ele><time>2026-05-03T14:01:33Z</time></trkpt><trkpt lat="43.35484965413845" lon="18.819169501083657"><ele>485.75</ele><time>2026-05-03T14:01:34Z</time></trkpt><trkpt lat="43.35487704980842" lon="18.818993803770955"><ele>492.0</ele><time>2026-05-03T14:01:35Z</time></trkpt><trkpt lat="43.354924324967776" lon="18.81882397819391"><ele>492.0</ele><time>2026-05-03T14:01:36Z</time></trkpt><trkpt lat="43.35498576763633" lon="18.818668649609645"><ele>492.0</ele><time>2026-05-03T14:01:37Z</time></trkpt><trkpt lat="43.355045205392564" lon="18.818511523258962"><ele>492.0</ele><time>2026-05-03T14:01:38Z</time></trkpt><trkpt lat="43.355081761703296" lon="18.818333651546308"><ele>492.0</ele><time>2026-05-03T14:01:39Z</time></trkpt><trkpt lat="43.35508544249354" lon="18.818144493727765"><ele>489.75</ele><time>2026-05-03T14:01:40Z</time></trkpt><trkpt lat="43.355059587803495" lon="18.817973404104265"><ele>487.5</ele><time>2026-05-03T14:01:41Z</time></trkpt><trkpt lat="43.35505610206546" lon="18.817816071321666"><ele>485.25</ele><time>2026-05-03T14:01:42Z</time></trkpt><trkpt lat="43.35510275678941" lon="18.81768979459921"><ele>483.0</ele><time>2026-05-03T14:01:43Z</time></trkpt><trkpt lat="43.35518501569083" lon="18.81757906595639"><ele>479.75</ele><time>2026-05-03T14:01:44Z</time></trkpt><trkpt lat="43.35528471681114" lon="18.817502371491525"><ele>476.5</ele><time>2026-05-03T14:01:45Z</time></trkpt><trkpt lat="43.35540528407563" lon="18.81744691290914"><ele>473.25</ele><time>2026-05-03T14:01:46Z</time></trkpt><trkpt lat="43.3555259310083" lon="18.817419738462245"><ele>470.0</ele><time>2026-05-03T14:01:47Z</time></trkpt><trkpt lat="43.3556452877449" lon="18.817392421074423"><ele>475.4</ele><time>2026-05-03T14:01:48Z</time></trkpt><trkpt lat="43.35574091109241" lon="18.8173638353114"><ele>480.8</ele><time>2026-05-03T14:01:49Z</time></trkpt><trkpt lat="43.35580754010023" lon="18.817335572159053"><ele>486.20000000000005</ele><time>2026-05-03T14:01:50Z</time></trkpt><trkpt lat="43.355878449924084" lon="18.817272446034412"><ele>491.6</ele><time>2026-05-03T14:01:53Z</time></trkpt><trkpt lat="43.3559920508414" lon="18.81719473464001"><ele>497.0</ele><time>2026-05-03T14:01:55Z</time></trkpt><trkpt lat="43.35608811403379" lon="18.81715062396053"><ele>497.0</ele><time>2026-05-03T14:01:56Z</time></trkpt><trkpt lat="43.35620011250205" lon="18.81710454858401"><ele>497.00000000000006</ele><time>2026-05-03T14:01:57Z</time></trkpt><trkpt lat="43.35630855287727" lon="18.817069356720168"><ele>497.00000000000006</ele><time>2026-05-03T14:01:58Z</time></trkpt><trkpt lat="43.35640556127621" lon="18.817034630288"><ele>497.0</ele><time>2026-05-03T14:01:59Z</time></trkpt><trkpt lat="43.356493207781845" lon="18.816978828751378"><ele>497.0</ele><time>2026-05-03T14:02:00Z</time></trkpt><trkpt lat="43.3565706677729" lon="18.81691027538814"><ele>499.99999999999994</ele><time>2026-05-03T14:02:01Z</time></trkpt><trkpt lat="43.356628945034586" lon="18.816830670993863"><ele>503.0</ele><time>2026-05-03T14:02:02Z</time></trkpt><trkpt lat="43.35668665023588" lon="18.816759068299366"><ele>506.0</ele><time>2026-05-03T14:02:03Z</time></trkpt><trkpt lat="43.356761519397025" lon="18.81669675120264"><ele>509.0</ele><time>2026-05-03T14:02:04Z</time></trkpt><trkpt lat="43.35684166307395" lon="18.816630640950837"><ele>511.99999999999994</ele><time>2026-05-03T14:02:05Z</time></trkpt><trkpt lat="43.35692178106861" lon="18.816576554935804"><ele>515.0</ele><time>2026-05-03T14:02:06Z</time></trkpt><trkpt lat="43.35699312265842" lon="18.816517384445365"><ele>513.1666666666666</ele><time>2026-05-03T14:02:07Z</time></trkpt><trkpt lat="43.35706142189716" lon="18.81646083687282"><ele>511.3333333333333</ele><time>2026-05-03T14:02:08Z</time></trkpt><trkpt lat="43.3571341032278" lon="18.816409050878864"><ele>509.5</ele><time>2026-05-03T14:02:09Z</time></trkpt><trkpt lat="43.357213203702926" lon="18.816355750763893"><ele>507.66666666666663</ele><time>2026-05-03T14:02:10Z</time></trkpt><trkpt lat="43.35729047772745" lon="18.816308131044988"><ele>505.8333333333333</ele><time>2026-05-03T14:02:11Z</time></trkpt><trkpt lat="43.35735933829813" lon="18.81627112651731"><ele>504.0</ele><time>2026-05-03T14:02:12Z</time></trkpt><trkpt lat="43.35742326012228" lon="18.816216993445973"><ele>504.0</ele><time>2026-05-03T14:02:13Z</time></trkpt><trkpt lat="43.35747015900288" lon="18.816131526660882"><ele>504.0</ele><time>2026-05-03T14:02:14Z</time></trkpt><trkpt lat="43.357511630160495" lon="18.816036225420092"><ele>504.0</ele><time>2026-05-03T14:02:15Z</time></trkpt><trkpt lat="43.35756055746903" lon="18.815949584903564"><ele>504.0</ele><time>2026-05-03T14:02:16Z</time></trkpt><trkpt lat="43.357601504954594" lon="18.815879341318677"><ele>504.0</ele><time>2026-05-03T14:02:17Z</time></trkpt><trkpt lat="43.3576571013191" lon="18.81578393878748"><ele>504.0</ele><time>2026-05-03T14:02:19Z</time></trkpt><trkpt lat="43.35772042657446" lon="18.81570109918796"><ele>504.3333333333333</ele><time>2026-05-03T14:02:22Z</time></trkpt><trkpt lat="43.35780074972614" lon="18.815605798956703"><ele>504.66666666666663</ele><time>2026-05-03T14:02:24Z</time></trkpt><trkpt lat="43.35786521885562" lon="18.815561255591625"><ele>505.0</ele><time>2026-05-03T14:02:25Z</time></trkpt><trkpt lat="43.35792985957272" lon="18.815529981623637"><ele>505.3333333333333</ele><time>2026-05-03T14:02:26Z</time></trkpt><trkpt lat="43.35804575324521" lon="18.815467957672787"><ele>505.66666666666663</ele><time>2026-05-03T14:02:28Z</time></trkpt><trkpt lat="43.35809979910857" lon="18.815404899270717"><ele>506.0</ele><time>2026-05-03T14:02:29Z</time></trkpt><trkpt lat="43.358138606197116" lon="18.815336069665676"><ele>505.99999999999994</ele><time>2026-05-03T14:02:30Z</time></trkpt><trkpt lat="43.35817161119509" lon="18.81526134380233"><ele>506.0</ele><time>2026-05-03T14:02:31Z</time></trkpt><trkpt lat="43.35820107726808" lon="18.815181119293406"><ele>506.0</ele><time>2026-05-03T14:02:32Z</time></trkpt><trkpt lat="43.35822809293904" lon="18.815094587233904"><ele>506.0</ele><time>2026-05-03T14:02:33Z</time></trkpt><trkpt lat="43.35825362017595" lon="18.815007295017953"><ele>505.99999999999994</ele><time>2026-05-03T14:02:34Z</time></trkpt><trkpt lat="43.35832395996276" lon="18.81485227238221"><ele>506.0</ele><time>2026-05-03T14:02:36Z</time></trkpt><trkpt lat="43.35838156518153" lon="18.814788357584586"><ele>502.8333333333333</ele><time>2026-05-03T14:02:37Z</time></trkpt><trkpt lat="43.35844688065693" lon="18.81472995372697"><ele>499.66666666666663</ele><time>2026-05-03T14:02:38Z</time></trkpt><trkpt lat="43.35851668075271" lon="18.814670185439983"><ele>496.5</ele><time>2026-05-03T14:02:39Z</time></trkpt><trkpt lat="43.358580505520855" lon="18.814594362069325"><ele>493.33333333333337</ele><time>2026-05-03T14:02:40Z</time></trkpt><trkpt lat="43.358636051812894" lon="18.814495086908405"><ele>490.1666666666667</ele><time>2026-05-03T14:02:41Z</time></trkpt><trkpt lat="43.358654283481066" lon="18.814372314334797"><ele>487.0</ele><time>2026-05-03T14:02:42Z</time></trkpt><trkpt lat="43.35864981127445" lon="18.814250642426696"><ele>489.1666666666667</ele><time>2026-05-03T14:02:43Z</time></trkpt><trkpt lat="43.3586588411345" lon="18.814146429235976"><ele>491.33333333333337</ele><time>2026-05-03T14:02:44Z</time></trkpt><trkpt lat="43.358691243855766" lon="18.814037870126107"><ele>493.5</ele><time>2026-05-03T14:02:45Z</time></trkpt><trkpt lat="43.35874607243167" lon="18.813924606780404"><ele>495.66666666666663</ele><time>2026-05-03T14:02:46Z</time></trkpt><trkpt lat="43.35881127728071" lon="18.8138378437827"><ele>497.8333333333333</ele><time>2026-05-03T14:02:47Z</time></trkpt><trkpt lat="43.35887107905387" lon="18.813744983238227"><ele>500.0</ele><time>2026-05-03T14:02:48Z</time></trkpt><trkpt lat="43.35891052101215" lon="18.81363736417225"><ele>500.0</ele><time>2026-05-03T14:02:49Z</time></trkpt><trkpt lat="43.3589386122805" lon="18.813516598585256"><ele>500.0</ele><time>2026-05-03T14:02:50Z</time></trkpt><trkpt lat="43.35896554174766" lon="18.81337305753407"><ele>500.0</ele><time>2026-05-03T14:02:51Z</time></trkpt><trkpt lat="43.359003365190155" lon="18.813209029273846"><ele>500.0</ele><time>2026-05-03T14:02:52Z</time></trkpt><trkpt lat="43.359048678723866" lon="18.813042188998256"><ele>497.0</ele><time>2026-05-03T14:02:53Z</time></trkpt><trkpt lat="43.35910378301666" lon="18.812891579032165"><ele>494.0</ele><time>2026-05-03T14:02:54Z</time></trkpt><trkpt lat="43.359165535076315" lon="18.812759681722476"><ele>491.0</ele><time>2026-05-03T14:02:55Z</time></trkpt><trkpt lat="43.35922829169844" lon="18.812652900049326"><ele>488.0</ele><time>2026-05-03T14:02:56Z</time></trkpt><trkpt lat="43.3592808560589" lon="18.8125738095879"><ele>485.0</ele><time>2026-05-03T14:02:57Z</time></trkpt><trkpt lat="43.35932399184054" lon="18.812507864180663"><ele>485.28571428571433</ele><time>2026-05-03T14:02:58Z</time></trkpt><trkpt lat="43.35936682068858" lon="18.812444323285604"><ele>485.57142857142856</ele><time>2026-05-03T14:02:59Z</time></trkpt><trkpt lat="43.35941704372469" lon="18.81238096578815"><ele>485.8571428571429</ele><time>2026-05-03T14:03:00Z</time></trkpt><trkpt lat="43.35947621765335" lon="18.812323951637186"><ele>486.14285714285717</ele><time>2026-05-03T14:03:01Z</time></trkpt><trkpt lat="43.359551366479415" lon="18.81227180271586"><ele>486.42857142857144</ele><time>2026-05-03T14:03:02Z</time></trkpt><trkpt lat="43.35962158976362" lon="18.812240941718997"><ele>486.7142857142857</ele><time>2026-05-03T14:03:03Z</time></trkpt><trkpt lat="43.35969978252515" lon="18.812211920288657"><ele>487.0</ele><time>2026-05-03T14:03:04Z</time></trkpt><trkpt lat="43.3597723036402" lon="18.812195028496163"><ele>487.00000000000006</ele><time>2026-05-03T14:03:05Z</time></trkpt><trkpt lat="43.35984588904624" lon="18.812178909083993"><ele>487.0</ele><time>2026-05-03T14:03:06Z</time></trkpt><trkpt lat="43.359922218557884" lon="18.812172855192077"><ele>487.0</ele><time>2026-05-03T14:03:07Z</time></trkpt><trkpt lat="43.35999950302246" lon="18.812166641723127"><ele>487.0</ele><time>2026-05-03T14:03:08Z</time></trkpt><trkpt lat="43.36007668493814" lon="18.812156742007456"><ele>487.00000000000006</ele><time>2026-05-03T14:03:09Z</time></trkpt><trkpt lat="43.36015025096985" lon="18.812148129887586"><ele>487.0</ele><time>2026-05-03T14:03:10Z</time></trkpt><trkpt lat="43.36022649490864" lon="18.812142197510383"><ele>487.0</ele><time>2026-05-03T14:03:11Z</time></trkpt><trkpt lat="43.360327624251035" lon="18.812129111199024"><ele>487.00000000000006</ele><time>2026-05-03T14:03:12Z</time></trkpt><trkpt lat="43.36042941854824" lon="18.8121167481441"><ele>487.00000000000006</ele><time>2026-05-03T14:03:13Z</time></trkpt><trkpt lat="43.36053060109927" lon="18.812113121252107"><ele>487.0</ele><time>2026-05-03T14:03:14Z</time></trkpt><trkpt lat="43.36064809286056" lon="18.812125726905624"><ele>487.0</ele><time>2026-05-03T14:03:15Z</time></trkpt><trkpt lat="43.360741079528594" lon="18.812158949852705"><ele>488.00000000000006</ele><time>2026-05-03T14:03:16Z</time></trkpt><trkpt lat="43.36082447762348" lon="18.812199928832733"><ele>489.0</ele><time>2026-05-03T14:03:17Z</time></trkpt><trkpt lat="43.360909454902284" lon="18.812227807313167"><ele>490.0</ele><time>2026-05-03T14:03:18Z</time></trkpt><trkpt lat="43.36099496970185" lon="18.8122168013885"><ele>491.0</ele><time>2026-05-03T14:03:19Z</time></trkpt><trkpt lat="43.36106303127541" lon="18.81215315201054"><ele>492.00000000000006</ele><time>2026-05-03T14:03:20Z</time></trkpt><trkpt lat="43.36109435569269" lon="18.812040137549346"><ele>493.0</ele><time>2026-05-03T14:03:21Z</time></trkpt><trkpt lat="43.36109482804408" lon="18.81191292968669"><ele>490.4</ele><time>2026-05-03T14:03:22Z</time></trkpt><trkpt lat="43.361098786247524" lon="18.811784876865623"><ele>487.79999999999995</ele><time>2026-05-03T14:03:23Z</time></trkpt><trkpt lat="43.36111087535225" lon="18.811690364924427"><ele>485.2</ele><time>2026-05-03T14:03:24Z</time></trkpt><trkpt lat="43.36117268127688" lon="18.811557281939965"><ele>482.6</ele><time>2026-05-03T14:03:26Z</time></trkpt><trkpt lat="43.361227273114054" lon="18.811482824986044"><ele>480.0</ele><time>2026-05-03T14:03:27Z</time></trkpt><trkpt lat="43.36130689563061" lon="18.811403624149378"><ele>479.25</ele><time>2026-05-03T14:03:28Z</time></trkpt><trkpt lat="43.36139709744351" lon="18.811321855871523"><ele>478.5</ele><time>2026-05-03T14:03:29Z</time></trkpt><trkpt lat="43.36148583857924" lon="18.811221477985054"><ele>477.75</ele><time>2026-05-03T14:03:30Z</time></trkpt><trkpt lat="43.36155626281284" lon="18.811087747986168"><ele>477.0</ele><time>2026-05-03T14:03:31Z</time></trkpt><trkpt lat="43.36159869444329" lon="18.810952592394873"><ele>477.0</ele><time>2026-05-03T14:03:32Z</time></trkpt><trkpt lat="43.361650418998124" lon="18.810807886177937"><ele>477.0</ele><time>2026-05-03T14:03:33Z</time></trkpt><trkpt lat="43.36174694476532" lon="18.810675487469233"><ele>477.0</ele><time>2026-05-03T14:03:34Z</time></trkpt><trkpt lat="43.36187761372531" lon="18.81061709365864"><ele>477.0</ele><time>2026-05-03T14:03:35Z</time></trkpt><trkpt lat="43.36202986594489" lon="18.810616921848403"><ele>477.0</ele><time>2026-05-03T14:03:36Z</time></trkpt><trkpt lat="43.36218738627302" lon="18.81063168093957"><ele>477.0</ele><time>2026-05-03T14:03:37Z</time></trkpt><trkpt lat="43.36231774586233" lon="18.810580338676093"><ele>477.0</ele><time>2026-05-03T14:03:38Z</time></trkpt><trkpt lat="43.36243898549935" lon="18.810496341780023"><ele>477.0</ele><time>2026-05-03T14:03:39Z</time></trkpt><trkpt lat="43.36254730295348" lon="18.8103700603121"><ele>477.25</ele><time>2026-05-03T14:03:40Z</time></trkpt><trkpt lat="43.36261966596759" lon="18.810188232902313"><ele>477.5</ele><time>2026-05-03T14:03:41Z</time></trkpt><trkpt lat="43.362657411909254" lon="18.810008536661385"><ele>477.75</ele><time>2026-05-03T14:03:42Z</time></trkpt><trkpt lat="43.362714196825564" lon="18.809851983611797"><ele>478.0</ele><time>2026-05-03T14:03:43Z</time></trkpt><trkpt lat="43.36278382840731" lon="18.809720236170644"><ele>478.0</ele><time>2026-05-03T14:03:44Z</time></trkpt><trkpt lat="43.36286626425079" lon="18.809598652861464"><ele>477.99999999999994</ele><time>2026-05-03T14:03:45Z</time></trkpt><trkpt lat="43.36294443202103" lon="18.8095081209996"><ele>477.99999999999994</ele><time>2026-05-03T14:03:46Z</time></trkpt><trkpt lat="43.3630125267781" lon="18.809422021263366"><ele>478.0</ele><time>2026-05-03T14:03:47Z</time></trkpt><trkpt lat="43.363066061942675" lon="18.809336354677"><ele>478.0</ele><time>2026-05-03T14:03:48Z</time></trkpt><trkpt lat="43.36310601485987" lon="18.809258620961526"><ele>478.79999999999995</ele><time>2026-05-03T14:03:49Z</time></trkpt><trkpt lat="43.36314254091749" lon="18.809173658554688"><ele>479.59999999999997</ele><time>2026-05-03T14:03:50Z</time></trkpt><trkpt lat="43.36317794025875" lon="18.809065004303704"><ele>480.40000000000003</ele><time>2026-05-03T14:03:51Z</time></trkpt><trkpt lat="43.3632154014977" lon="18.808947819303775"><ele>481.20000000000005</ele><time>2026-05-03T14:03:52Z</time></trkpt><trkpt lat="43.363260421906936" lon="18.808823641619256"><ele>482.0</ele><time>2026-05-03T14:03:53Z</time></trkpt><trkpt lat="43.363316728287394" lon="18.80870749310301"><ele>482.0</ele><time>2026-05-03T14:03:54Z</time></trkpt><trkpt lat="43.36337661203724" lon="18.808586689395884"><ele>482.0</ele><time>2026-05-03T14:03:55Z</time></trkpt><trkpt lat="43.36343318039321" lon="18.808442985084906"><ele>482.0</ele><time>2026-05-03T14:03:56Z</time></trkpt><trkpt lat="43.36348185332601" lon="18.808258060302066"><ele>482.0</ele><time>2026-05-03T14:03:57Z</time></trkpt><trkpt lat="43.363521622562246" lon="18.80807069744778"><ele>480.5</ele><time>2026-05-03T14:03:58Z</time></trkpt><trkpt lat="43.36357717162647" lon="18.807904469974428"><ele>479.0</ele><time>2026-05-03T14:03:59Z</time></trkpt><trkpt lat="43.363662411805464" lon="18.807753618193832"><ele>477.5</ele><time>2026-05-03T14:04:00Z</time></trkpt><trkpt lat="43.363758294539544" lon="18.807604757646274"><ele>476.0</ele><time>2026-05-03T14:04:01Z</time></trkpt><trkpt lat="43.36386129811674" lon="18.80746942555503"><ele>478.0</ele><time>2026-05-03T14:04:02Z</time></trkpt><trkpt lat="43.36397181484678" lon="18.80737498766071"><ele>480.0</ele><time>2026-05-03T14:04:03Z</time></trkpt><trkpt lat="43.364091814166144" lon="18.80733165550744"><ele>482.0</ele><time>2026-05-03T14:04:04Z</time></trkpt><trkpt lat="43.36421623653331" lon="18.807319344962593"><ele>484.0</ele><time>2026-05-03T14:04:05Z</time></trkpt><trkpt lat="43.36431017217869" lon="18.807283930813416"><ele>484.0</ele><time>2026-05-03T14:04:06Z</time></trkpt><trkpt lat="43.36439476767807" lon="18.80718728993746"><ele>484.0</ele><time>2026-05-03T14:04:07Z</time></trkpt><trkpt lat="43.36444980261415" lon="18.80703805203221"><ele>484.0</ele><time>2026-05-03T14:04:08Z</time></trkpt><trkpt lat="43.36451057514871" lon="18.806883647529"><ele>484.0</ele><time>2026-05-03T14:04:09Z</time></trkpt><trkpt lat="43.3646069074743" lon="18.806753328838276"><ele>485.33333333333337</ele><time>2026-05-03T14:04:10Z</time></trkpt><trkpt lat="43.364731103086534" lon="18.80664732553363"><ele>486.66666666666663</ele><time>2026-05-03T14:04:11Z</time></trkpt><trkpt lat="43.36487127291391" lon="18.806544974846844"><ele>488.0</ele><time>2026-05-03T14:04:12Z</time></trkpt><trkpt lat="43.365001308660396" lon="18.80644881324206"><ele>488.0</ele><time>2026-05-03T14:04:13Z</time></trkpt><trkpt lat="43.365120099388136" lon="18.806361840159294"><ele>488.0</ele><time>2026-05-03T14:04:14Z</time></trkpt><trkpt lat="43.36522513729392" lon="18.806281171535215"><ele>488.0</ele><time>2026-05-03T14:04:15Z</time></trkpt><trkpt lat="43.36532062705659" lon="18.80620406388756"><ele>488.0</ele><time>2026-05-03T14:04:16Z</time></trkpt><trkpt lat="43.36541541959379" lon="18.806154454421762"><ele>488.0</ele><time>2026-05-03T14:04:17Z</time></trkpt><trkpt lat="43.365517013918364" lon="18.806138403013968"><ele>487.99999999999994</ele><time>2026-05-03T14:04:18Z</time></trkpt><trkpt lat="43.365621256899985" lon="18.80613174391808"><ele>487.99999999999994</ele><time>2026-05-03T14:04:19Z</time></trkpt><trkpt lat="43.36571484758911" lon="18.80612563504286"><ele>488.0</ele><time>2026-05-03T14:04:20Z</time></trkpt><trkpt lat="43.36579124180242" lon="18.8061141380637"><ele>488.0</ele><time>2026-05-03T14:04:21Z</time></trkpt><trkpt lat="43.365882995530335" lon="18.80598952341722"><ele>488.0</ele><time>2026-05-03T14:04:23Z</time></trkpt><trkpt lat="43.365894979318696" lon="18.805869524989753"><ele>487.99999999999994</ele><time>2026-05-03T14:04:24Z</time></trkpt><trkpt lat="43.3658916972268" lon="18.805738454333632"><ele>487.99999999999994</ele><time>2026-05-03T14:04:25Z</time></trkpt><trkpt lat="43.3659011455454" lon="18.80559066547215"><ele>488.0</ele><time>2026-05-03T14:04:26Z</time></trkpt><trkpt lat="43.36592818969828" lon="18.805459388947842"><ele>488.0</ele><time>2026-05-03T14:04:27Z</time></trkpt><trkpt lat="43.36595725787029" lon="18.805344235048725"><ele>488.0</ele><time>2026-05-03T14:04:28Z</time></trkpt><trkpt lat="43.36595282838769" lon="18.805230700359292"><ele>487.99999999999994</ele><time>2026-05-03T14:04:29Z</time></trkpt><trkpt lat="43.36590603271439" lon="18.805124380765765"><ele>487.99999999999994</ele><time>2026-05-03T14:04:30Z</time></trkpt><trkpt lat="43.36584246029923" lon="18.80502954964443"><ele>488.0</ele><time>2026-05-03T14:04:31Z</time></trkpt><trkpt lat="43.36580376772004" lon="18.80491910397817"><ele>488.0</ele><time>2026-05-03T14:04:32Z</time></trkpt><trkpt lat="43.365824466771684" lon="18.804773349398147"><ele>484.5</ele><time>2026-05-03T14:04:33Z</time></trkpt><trkpt lat="43.36588193067183" lon="18.804613267999308"><ele>481.0</ele><time>2026-05-03T14:04:34Z</time></trkpt><trkpt lat="43.36594443519934" lon="18.80446993387433"><ele>477.5</ele><time>2026-05-03T14:04:35Z</time></trkpt><trkpt lat="43.36600242746234" lon="18.80434296095953"><ele>474.0</ele><time>2026-05-03T14:04:36Z</time></trkpt><trkpt lat="43.36607280129977" lon="18.80423630451275"><ele>470.25</ele><time>2026-05-03T14:04:37Z</time></trkpt><trkpt lat="43.366168134656" lon="18.80413232129552"><ele>466.5</ele><time>2026-05-03T14:04:38Z</time></trkpt><trkpt lat="43.36626540072739" lon="18.80401707284704"><ele>462.75</ele><time>2026-05-03T14:04:39Z</time></trkpt><trkpt lat="43.36634216034349" lon="18.803887560981476"><ele>459.0</ele><time>2026-05-03T14:04:40Z</time></trkpt><trkpt lat="43.366397986920525" lon="18.80373383049318"><ele>461.6</ele><time>2026-05-03T14:04:41Z</time></trkpt><trkpt lat="43.366443751037274" lon="18.80359600128564"><ele>464.2</ele><time>2026-05-03T14:04:42Z</time></trkpt><trkpt lat="43.36651689070755" lon="18.80348975108419"><ele>466.80000000000007</ele><time>2026-05-03T14:04:43Z</time></trkpt><trkpt lat="43.366605674876645" lon="18.8034259465379"><ele>469.40000000000003</ele><time>2026-05-03T14:04:44Z</time></trkpt><trkpt lat="43.366701880491554" lon="18.803412788350684"><ele>472.0</ele><time>2026-05-03T14:04:45Z</time></trkpt><trkpt lat="43.366796553174254" lon="18.803433366437755"><ele>472.0</ele><time>2026-05-03T14:04:46Z</time></trkpt><trkpt lat="43.36688123384709" lon="18.803487643557652"><ele>472.00000000000006</ele><time>2026-05-03T14:04:47Z</time></trkpt><trkpt lat="43.366972546708816" lon="18.80351016524922"><ele>472.00000000000006</ele><time>2026-05-03T14:04:48Z</time></trkpt><trkpt lat="43.36705169739499" lon="18.803459826149663"><ele>472.0</ele><time>2026-05-03T14:04:49Z</time></trkpt><trkpt lat="43.36709893886762" lon="18.803344797259385"><ele>472.0</ele><time>2026-05-03T14:04:50Z</time></trkpt><trkpt lat="43.36711181642587" lon="18.80322133949257"><ele>472.0</ele><time>2026-05-03T14:04:51Z</time></trkpt><trkpt lat="43.3670964255612" lon="18.8030834336993"><ele>472.00000000000006</ele><time>2026-05-03T14:04:52Z</time></trkpt><trkpt lat="43.36707609155973" lon="18.802958666342693"><ele>472.00000000000006</ele><time>2026-05-03T14:04:53Z</time></trkpt><trkpt lat="43.367043442925215" lon="18.80283216839094"><ele>472.0</ele><time>2026-05-03T14:04:54Z</time></trkpt><trkpt lat="43.36699128280474" lon="18.802732127018942"><ele>472.0</ele><time>2026-05-03T14:04:55Z</time></trkpt><trkpt lat="43.3669638329596" lon="18.80262420145155"><ele>468.40000000000003</ele><time>2026-05-03T14:04:56Z</time></trkpt><trkpt lat="43.3669592471803" lon="18.802491304708948"><ele>464.80000000000007</ele><time>2026-05-03T14:04:57Z</time></trkpt><trkpt lat="43.36697202440976" lon="18.802345447155794"><ele>461.2</ele><time>2026-05-03T14:04:58Z</time></trkpt><trkpt lat="43.36698790601897" lon="18.802198267512527"><ele>457.6</ele><time>2026-05-03T14:04:59Z</time></trkpt><trkpt lat="43.366995704651224" lon="18.802059755987532"><ele>454.0</ele><time>2026-05-03T14:05:00Z</time></trkpt><trkpt lat="43.367000845599726" lon="18.80193694897572"><ele>452.2</ele><time>2026-05-03T14:05:01Z</time></trkpt><trkpt lat="43.36703775361183" lon="18.801818932988553"><ele>450.4</ele><time>2026-05-03T14:05:02Z</time></trkpt><trkpt lat="43.36711469514931" lon="18.801731979155807"><ele>448.6</ele><time>2026-05-03T14:05:03Z</time></trkpt><trkpt lat="43.36721209475972" lon="18.8016749127218"><ele>446.8</ele><time>2026-05-03T14:05:04Z</time></trkpt><trkpt lat="43.36730192728377" lon="18.80161029899249"><ele>445.0</ele><time>2026-05-03T14:05:05Z</time></trkpt><trkpt lat="43.36735704624253" lon="18.80150191758996"><ele>449.0</ele><time>2026-05-03T14:05:06Z</time></trkpt><trkpt lat="43.36740700719974" lon="18.80139700558459"><ele>453.0</ele><time>2026-05-03T14:05:07Z</time></trkpt><trkpt lat="43.367463428779715" lon="18.801288140279258"><ele>457.0</ele><time>2026-05-03T14:05:08Z</time></trkpt><trkpt lat="43.36751122073609" lon="18.80117863204352"><ele>461.0</ele><time>2026-05-03T14:05:09Z</time></trkpt><trkpt lat="43.367561516586385" lon="18.801046544829113"><ele>465.0</ele><time>2026-05-03T14:05:10Z</time></trkpt><trkpt lat="43.367605814554125" lon="18.800899555749226"><ele>465.0</ele><time>2026-05-03T14:05:11Z</time></trkpt><trkpt lat="43.36763697178416" lon="18.800747964727535"><ele>465.0</ele><time>2026-05-03T14:05:12Z</time></trkpt><trkpt lat="43.36768854591646" lon="18.800613774217695"><ele>465.0</ele><time>2026-05-03T14:05:13Z</time></trkpt><trkpt lat="43.3677654751529" lon="18.80049400498676"><ele>465.0</ele><time>2026-05-03T14:05:14Z</time></trkpt><trkpt lat="43.36784482987765" lon="18.800387123722693"><ele>465.0</ele><time>2026-05-03T14:05:15Z</time></trkpt><trkpt lat="43.36793673012317" lon="18.8002982211054"><ele>465.0</ele><time>2026-05-03T14:05:16Z</time></trkpt><trkpt lat="43.368051012242724" lon="18.800235429680942"><ele>465.0</ele><time>2026-05-03T14:05:17Z</time></trkpt><trkpt lat="43.36817309304907" lon="18.80017256710366"><ele>465.0</ele><time>2026-05-03T14:05:18Z</time></trkpt><trkpt lat="43.36826870717176" lon="18.80005873732626"><ele>467.75</ele><time>2026-05-03T14:05:19Z</time></trkpt><trkpt lat="43.36837637385344" lon="18.799931795686728"><ele>470.5</ele><time>2026-05-03T14:05:20Z</time></trkpt><trkpt lat="43.36847852167599" lon="18.799835380681404"><ele>473.25</ele><time>2026-05-03T14:05:21Z</time></trkpt><trkpt lat="43.368570833289475" lon="18.799733132938314"><ele>476.0</ele><time>2026-05-03T14:05:22Z</time></trkpt><trkpt lat="43.36864174645452" lon="18.79960788250013"><ele>476.0</ele><time>2026-05-03T14:05:23Z</time></trkpt><trkpt lat="43.36870057557302" lon="18.799463462900945"><ele>476.0</ele><time>2026-05-03T14:05:24Z</time></trkpt><trkpt lat="43.368770048508985" lon="18.799340207903132"><ele>476.0</ele><time>2026-05-03T14:05:25Z</time></trkpt><trkpt lat="43.368857024506774" lon="18.799225504588755"><ele>476.0</ele><time>2026-05-03T14:05:26Z</time></trkpt><trkpt lat="43.368954791795296" lon="18.79912199936421"><ele>479.25</ele><time>2026-05-03T14:05:27Z</time></trkpt><trkpt lat="43.36906507535866" lon="18.799046432843337"><ele>482.5</ele><time>2026-05-03T14:05:28Z</time></trkpt><trkpt lat="43.36917176935572" lon="18.79895281858002"><ele>485.75</ele><time>2026-05-03T14:05:29Z</time></trkpt><trkpt lat="43.369256746188356" lon="18.79883895963738"><ele>489.0</ele><time>2026-05-03T14:05:30Z</time></trkpt><trkpt lat="43.369331456284165" lon="18.79869396058381"><ele>489.0</ele><time>2026-05-03T14:05:31Z</time></trkpt><trkpt lat="43.36939341864217" lon="18.798517315035664"><ele>489.0</ele><time>2026-05-03T14:05:32Z</time></trkpt><trkpt lat="43.369467412254984" lon="18.798357716530248"><ele>489.0</ele><time>2026-05-03T14:05:33Z</time></trkpt><trkpt lat="43.36955460083146" lon="18.79822629277028"><ele>489.0</ele><time>2026-05-03T14:05:34Z</time></trkpt><trkpt lat="43.36964862041434" lon="18.79808804957844"><ele>486.5</ele><time>2026-05-03T14:05:35Z</time></trkpt><trkpt lat="43.36974595842525" lon="18.797948721270007"><ele>484.0</ele><time>2026-05-03T14:05:36Z</time></trkpt><trkpt lat="43.369854189650596" lon="18.797795357814728"><ele>481.5</ele><time>2026-05-03T14:05:37Z</time></trkpt><trkpt lat="43.369956450987225" lon="18.797643266993408"><ele>479.0</ele><time>2026-05-03T14:05:38Z</time></trkpt><trkpt lat="43.370046241185555" lon="18.79751061355004"><ele>479.0</ele><time>2026-05-03T14:05:39Z</time></trkpt><trkpt lat="43.370132933686776" lon="18.79739172032805"><ele>479.0</ele><time>2026-05-03T14:05:40Z</time></trkpt><trkpt lat="43.37023133495944" lon="18.797292709124527"><ele>479.0</ele><time>2026-05-03T14:05:41Z</time></trkpt><trkpt lat="43.37033883367163" lon="18.797211123632636"><ele>479.0</ele><time>2026-05-03T14:05:42Z</time></trkpt><trkpt lat="43.37044258143454" lon="18.79712336625789"><ele>486.5</ele><time>2026-05-03T14:05:43Z</time></trkpt><trkpt lat="43.370552792201565" lon="18.79704435140185"><ele>494.0</ele><time>2026-05-03T14:05:44Z</time></trkpt><trkpt lat="43.37067035901415" lon="18.796978062242662"><ele>501.5</ele><time>2026-05-03T14:05:45Z</time></trkpt><trkpt lat="43.37078362607772" lon="18.796920303153207"><ele>509.0</ele><time>2026-05-03T14:05:46Z</time></trkpt><trkpt lat="43.37090432909913" lon="18.796841009027148"><ele>501.75</ele><time>2026-05-03T14:05:47Z</time></trkpt><trkpt lat="43.3710101116256" lon="18.796763324149182"><ele>494.5</ele><time>2026-05-03T14:05:48Z</time></trkpt><trkpt lat="43.37111626123551" lon="18.796719313422376"><ele>487.25</ele><time>2026-05-03T14:05:49Z</time></trkpt><trkpt lat="43.371249010460446" lon="18.796709450695754"><ele>480.0</ele><time>2026-05-03T14:05:50Z</time></trkpt><trkpt lat="43.371380113068795" lon="18.7967181499825"><ele>480.0</ele><time>2026-05-03T14:05:51Z</time></trkpt><trkpt lat="43.37150044917092" lon="18.796707728327405"><ele>480.0</ele><time>2026-05-03T14:05:52Z</time></trkpt><trkpt lat="43.37160771382439" lon="18.79669070228697"><ele>480.0</ele><time>2026-05-03T14:05:53Z</time></trkpt><trkpt lat="43.371705175238574" lon="18.796693886486672"><ele>480.0</ele><time>2026-05-03T14:05:54Z</time></trkpt><trkpt lat="43.37180349671971" lon="18.79674708243042"><ele>480.0</ele><time>2026-05-03T14:05:55Z</time></trkpt><trkpt lat="43.37190306580527" lon="18.796824781012127"><ele>481.0</ele><time>2026-05-03T14:05:56Z</time></trkpt><trkpt lat="43.37200479735778" lon="18.796890169277315"><ele>482.0</ele><time>2026-05-03T14:05:57Z</time></trkpt><trkpt lat="43.37210649396997" lon="18.79692611172736"><ele>483.0</ele><time>2026-05-03T14:05:58Z</time></trkpt><trkpt lat="43.372215285080294" lon="18.79691027872225"><ele>484.0</ele><time>2026-05-03T14:05:59Z</time></trkpt><trkpt lat="43.37232254526094" lon="18.79683064108093"><ele>485.0</ele><time>2026-05-03T14:06:00Z</time></trkpt><trkpt lat="43.372406441402795" lon="18.7967175837368"><ele>485.0</ele><time>2026-05-03T14:06:01Z</time></trkpt><trkpt lat="43.37247621204529" lon="18.796584662287085"><ele>485.0</ele><time>2026-05-03T14:06:02Z</time></trkpt><trkpt lat="43.372545745779675" lon="18.7964777962672"><ele>485.0</ele><time>2026-05-03T14:06:03Z</time></trkpt><trkpt lat="43.37264146496665" lon="18.796421105261235"><ele>485.0</ele><time>2026-05-03T14:06:04Z</time></trkpt><trkpt lat="43.372753288748285" lon="18.796424854456646"><ele>485.0</ele><time>2026-05-03T14:06:05Z</time></trkpt><trkpt lat="43.37286508592188" lon="18.79645914540677"><ele>485.0</ele><time>2026-05-03T14:06:06Z</time></trkpt><trkpt lat="43.372976159488324" lon="18.79652185553629"><ele>485.0</ele><time>2026-05-03T14:06:07Z</time></trkpt><trkpt lat="43.37309018356371" lon="18.796587986625514"><ele>485.0</ele><time>2026-05-03T14:06:08Z</time></trkpt><trkpt lat="43.37321021512019" lon="18.796648940454745"><ele>485.0</ele><time>2026-05-03T14:06:09Z</time></trkpt><trkpt lat="43.37333447221814" lon="18.796714213525107"><ele>485.2</ele><time>2026-05-03T14:06:10Z</time></trkpt><trkpt lat="43.37344748768174" lon="18.796781482570896"><ele>485.4</ele><time>2026-05-03T14:06:11Z</time></trkpt><trkpt lat="43.373545577832274" lon="18.79682273584711"><ele>485.6</ele><time>2026-05-03T14:06:12Z</time></trkpt><trkpt lat="43.3736490166452" lon="18.796800141459727"><ele>485.8</ele><time>2026-05-03T14:06:13Z</time></trkpt><trkpt lat="43.37375084332427" lon="18.79672157937051"><ele>486.0</ele><time>2026-05-03T14:06:14Z</time></trkpt><trkpt lat="43.37386114961921" lon="18.796656519335517"><ele>486.0</ele><time>2026-05-03T14:06:15Z</time></trkpt><trkpt lat="43.373982225015446" lon="18.796644181520577"><ele>486.0</ele><time>2026-05-03T14:06:16Z</time></trkpt><trkpt lat="43.374107416215715" lon="18.796684160389514"><ele>486.0</ele><time>2026-05-03T14:06:17Z</time></trkpt><trkpt lat="43.37422401260462" lon="18.796749035712917"><ele>486.0</ele><time>2026-05-03T14:06:18Z</time></trkpt><trkpt lat="43.37433162803526" lon="18.79680739364636"><ele>486.0</ele><time>2026-05-03T14:06:19Z</time></trkpt><trkpt lat="43.374456183301916" lon="18.796830119915242"><ele>486.0</ele><time>2026-05-03T14:06:20Z</time></trkpt><trkpt lat="43.37459894102305" lon="18.79680583229704"><ele>486.0</ele><time>2026-05-03T14:06:21Z</time></trkpt><trkpt lat="43.37473950806911" lon="18.796763386584146"><ele>486.0</ele><time>2026-05-03T14:06:22Z</time></trkpt><trkpt lat="43.374874317043" lon="18.79672274845968"><ele>487.5</ele><time>2026-05-03T14:06:23Z</time></trkpt><trkpt lat="43.37499970608223" lon="18.796677992082742"><ele>489.0</ele><time>2026-05-03T14:06:24Z</time></trkpt><trkpt lat="43.37511960470109" lon="18.796602541540448"><ele>490.5</ele><time>2026-05-03T14:06:25Z</time></trkpt><trkpt lat="43.375211895802245" lon="18.796503067216044"><ele>492.0</ele><time>2026-05-03T14:06:26Z</time></trkpt><trkpt lat="43.375304435628784" lon="18.796438633849338"><ele>492.0</ele><time>2026-05-03T14:06:27Z</time></trkpt><trkpt lat="43.37541485252105" lon="18.79643396677148"><ele>492.0</ele><time>2026-05-03T14:06:28Z</time></trkpt><trkpt lat="43.37554058691834" lon="18.796460200794677"><ele>492.0</ele><time>2026-05-03T14:06:29Z</time></trkpt><trkpt lat="43.37567217299623" lon="18.79649644229777"><ele>492.0</ele><time>2026-05-03T14:06:30Z</time></trkpt><trkpt lat="43.37580286918551" lon="18.79649161087394"><ele>493.20000000000005</ele><time>2026-05-03T14:06:31Z</time></trkpt><trkpt lat="43.37592029010933" lon="18.79644918739143"><ele>494.40000000000003</ele><time>2026-05-03T14:06:32Z</time></trkpt><trkpt lat="43.37602746024976" lon="18.796420093088308"><ele>495.59999999999997</ele><time>2026-05-03T14:06:33Z</time></trkpt><trkpt lat="43.37612780098848" lon="18.79641008729933"><ele>496.79999999999995</ele><time>2026-05-03T14:06:34Z</time></trkpt><trkpt lat="43.37622487884451" lon="18.796417421896646"><ele>498.0</ele><time>2026-05-03T14:06:35Z</time></trkpt><trkpt lat="43.376316061105896" lon="18.796447302908252"><ele>499.3333333333333</ele><time>2026-05-03T14:06:36Z</time></trkpt><trkpt lat="43.376399050332765" lon="18.79648560802894"><ele>500.66666666666663</ele><time>2026-05-03T14:06:37Z</time></trkpt><trkpt lat="43.3764815806368" lon="18.79649996911416"><ele>502.0</ele><time>2026-05-03T14:06:38Z</time></trkpt><trkpt lat="43.37656275328466" lon="18.796481455313177"><ele>503.3333333333333</ele><time>2026-05-03T14:06:39Z</time></trkpt><trkpt lat="43.37662964335773" lon="18.796450344682366"><ele>504.66666666666663</ele><time>2026-05-03T14:06:40Z</time></trkpt><trkpt lat="43.37669066964469" lon="18.79641856278771"><ele>506.0</ele><time>2026-05-03T14:06:41Z</time></trkpt><trkpt lat="43.376746399416625" lon="18.796377646219796"><ele>505.99999999999994</ele><time>2026-05-03T14:06:42Z</time></trkpt><trkpt lat="43.37686389752787" lon="18.7962899952498"><ele>506.0</ele><time>2026-05-03T14:06:44Z</time></trkpt><trkpt lat="43.37693216182098" lon="18.79624726931271"><ele>506.0</ele><time>2026-05-03T14:06:45Z</time></trkpt><trkpt lat="43.37698689099248" lon="18.796189063364515"><ele>506.0</ele><time>2026-05-03T14:06:46Z</time></trkpt><trkpt lat="43.37701669201449" lon="18.796089543360406"><ele>505.99999999999994</ele><time>2026-05-03T14:06:47Z</time></trkpt><trkpt lat="43.37704580121104" lon="18.7959865160176"><ele>506.0</ele><time>2026-05-03T14:06:48Z</time></trkpt><trkpt lat="43.37709038229777" lon="18.795899480917875"><ele>502.8</ele><time>2026-05-03T14:06:49Z</time></trkpt><trkpt lat="43.377166959956085" lon="18.7958368727647"><ele>499.6</ele><time>2026-05-03T14:06:50Z</time></trkpt><trkpt lat="43.377252254200485" lon="18.795811761359726"><ele>496.4</ele><time>2026-05-03T14:06:51Z</time></trkpt><trkpt lat="43.3773380755833" lon="18.795792611256516"><ele>493.2</ele><time>2026-05-03T14:06:52Z</time></trkpt><trkpt lat="43.377429966781584" lon="18.795766976102424"><ele>490.0</ele><time>2026-05-03T14:06:53Z</time></trkpt><trkpt lat="43.377521488202" lon="18.795737597036773"><ele>490.0</ele><time>2026-05-03T14:06:54Z</time></trkpt><trkpt lat="43.3776206237321" lon="18.795701165441024"><ele>490.0</ele><time>2026-05-03T14:06:55Z</time></trkpt><trkpt lat="43.37771461308778" lon="18.795672871327383"><ele>490.0</ele><time>2026-05-03T14:06:56Z</time></trkpt><trkpt lat="43.37780850154863" lon="18.79566042710675"><ele>490.0</ele><time>2026-05-03T14:06:57Z</time></trkpt><trkpt lat="43.377902527921265" lon="18.795676397892677"><ele>490.0</ele><time>2026-05-03T14:06:58Z</time></trkpt><trkpt lat="43.377986184155716" lon="18.795735650594686"><ele>489.0</ele><time>2026-05-03T14:06:59Z</time></trkpt><trkpt lat="43.37804762113931" lon="18.795830437357058"><ele>488.0</ele><time>2026-05-03T14:07:00Z</time></trkpt><trkpt lat="43.37810501848282" lon="18.795944479540204"><ele>487.0</ele><time>2026-05-03T14:07:01Z</time></trkpt><trkpt lat="43.378160178484485" lon="18.796053979929525"><ele>486.0</ele><time>2026-05-03T14:07:02Z</time></trkpt><trkpt lat="43.37823257279665" lon="18.796131983381745"><ele>485.0</ele><time>2026-05-03T14:07:03Z</time></trkpt><trkpt lat="43.37831096280622" lon="18.796178932419853"><ele>484.99999999999994</ele><time>2026-05-03T14:07:04Z</time></trkpt><trkpt lat="43.378394568785744" lon="18.796211142847557"><ele>485.0</ele><time>2026-05-03T14:07:05Z</time></trkpt><trkpt lat="43.37847083096896" lon="18.79621549448326"><ele>485.0</ele><time>2026-05-03T14:07:06Z</time></trkpt><trkpt lat="43.378546529687576" lon="18.796185392469283"><ele>485.0</ele><time>2026-05-03T14:07:07Z</time></trkpt><trkpt lat="43.37860215880183" lon="18.796109596748988"><ele>484.99999999999994</ele><time>2026-05-03T14:07:08Z</time></trkpt><trkpt lat="43.37862401790372" lon="18.796002209710533"><ele>485.0</ele><time>2026-05-03T14:07:09Z</time></trkpt><trkpt lat="43.37862244739738" lon="18.795887131840857"><ele>485.0</ele><time>2026-05-03T14:07:10Z</time></trkpt><trkpt lat="43.37861554705178" lon="18.795758778854612"><ele>485.0</ele><time>2026-05-03T14:07:11Z</time></trkpt><trkpt lat="43.378620701194286" lon="18.795638003272295"><ele>485.0</ele><time>2026-05-03T14:07:12Z</time></trkpt><trkpt lat="43.37864671806862" lon="18.79550989852278"><ele>485.0</ele><time>2026-05-03T14:07:13Z</time></trkpt><trkpt lat="43.378688522547186" lon="18.79539266644473"><ele>485.0</ele><time>2026-05-03T14:07:14Z</time></trkpt><trkpt lat="43.378743313456404" lon="18.795287234608313"><ele>485.0</ele><time>2026-05-03T14:07:15Z</time></trkpt><trkpt lat="43.37881032700452" lon="18.795187373048254"><ele>485.0</ele><time>2026-05-03T14:07:16Z</time></trkpt><trkpt lat="43.378890512800474" lon="18.79511906565215"><ele>485.0</ele><time>2026-05-03T14:07:17Z</time></trkpt><trkpt lat="43.37898155616875" lon="18.795079110840284"><ele>485.0</ele><time>2026-05-03T14:07:18Z</time></trkpt><trkpt lat="43.379075402680684" lon="18.79507738882142"><ele>485.0</ele><time>2026-05-03T14:07:19Z</time></trkpt><trkpt lat="43.379166429947375" lon="18.795104079230832"><ele>486.3333333333333</ele><time>2026-05-03T14:07:20Z</time></trkpt><trkpt lat="43.3792431121547" lon="18.7951562152352"><ele>487.66666666666663</ele><time>2026-05-03T14:07:21Z</time></trkpt><trkpt lat="43.379317142699854" lon="18.795213426618947"><ele>489.0</ele><time>2026-05-03T14:07:22Z</time></trkpt><trkpt lat="43.379390821985744" lon="18.79523517563861"><ele>490.33333333333337</ele><time>2026-05-03T14:07:23Z</time></trkpt><trkpt lat="43.37946807457919" lon="18.7952144431476"><ele>491.6666666666667</ele><time>2026-05-03T14:07:24Z</time></trkpt><trkpt lat="43.379550633795255" lon="18.795177161533523"><ele>493.0</ele><time>2026-05-03T14:07:25Z</time></trkpt><trkpt lat="43.3796338246214" lon="18.79514142542051"><ele>490.83333333333337</ele><time>2026-05-03T14:07:26Z</time></trkpt><trkpt lat="43.379711086521965" lon="18.79512607747812"><ele>488.6666666666667</ele><time>2026-05-03T14:07:27Z</time></trkpt><trkpt lat="43.379783901091734" lon="18.795109189080062"><ele>486.5</ele><time>2026-05-03T14:07:28Z</time></trkpt><trkpt lat="43.37984643989572" lon="18.795063474880806"><ele>484.33333333333337</ele><time>2026-05-03T14:07:29Z</time></trkpt><trkpt lat="43.37989363629587" lon="18.79496987940155"><ele>482.1666666666667</ele><time>2026-05-03T14:07:30Z</time></trkpt><trkpt lat="43.37993226524306" lon="18.794853698890662"><ele>480.0</ele><time>2026-05-03T14:07:31Z</time></trkpt><trkpt lat="43.379964931997144" lon="18.7947174919718"><ele>480.0</ele><time>2026-05-03T14:07:32Z</time></trkpt><trkpt lat="43.38001740644745" lon="18.79457712883582"><ele>480.0</ele><time>2026-05-03T14:07:33Z</time></trkpt><trkpt lat="43.38009952965365" lon="18.794446142203036"><ele>480.0</ele><time>2026-05-03T14:07:34Z</time></trkpt><trkpt lat="43.380198582913124" lon="18.794342663058305"><ele>480.0</ele><time>2026-05-03T14:07:35Z</time></trkpt><trkpt lat="43.38029414846943" lon="18.794252293378175"><ele>479.0</ele><time>2026-05-03T14:07:36Z</time></trkpt><trkpt lat="43.38038077695588" lon="18.794165329838133"><ele>478.0</ele><time>2026-05-03T14:07:37Z</time></trkpt><trkpt lat="43.38046271178761" lon="18.79407239539289"><ele>477.0</ele><time>2026-05-03T14:07:38Z</time></trkpt><trkpt lat="43.38054416205767" lon="18.79397818242394"><ele>476.0</ele><time>2026-05-03T14:07:39Z</time></trkpt><trkpt lat="43.38063177950683" lon="18.79388607502551"><ele>475.0</ele><time>2026-05-03T14:07:40Z</time></trkpt><trkpt lat="43.380742539557815" lon="18.793761559857366"><ele>475.0</ele><time>2026-05-03T14:07:41Z</time></trkpt><trkpt lat="43.38085918454727" lon="18.79360060346754"><ele>475.0</ele><time>2026-05-03T14:07:42Z</time></trkpt><trkpt lat="43.38096855311767" lon="18.793432442038217"><ele>475.0</ele><time>2026-05-03T14:07:43Z</time></trkpt><trkpt lat="43.38108097038904" lon="18.79326929844066"><ele>472.33333333333337</ele><time>2026-05-03T14:07:44Z</time></trkpt><trkpt lat="43.3812125760182" lon="18.7931175395067"><ele>469.66666666666663</ele><time>2026-05-03T14:07:45Z</time></trkpt><trkpt lat="43.38132674715285" lon="18.793004847415656"><ele>467.0</ele><time>2026-05-03T14:07:46Z</time></trkpt><trkpt lat="43.38143570112607" lon="18.792866429243443"><ele>467.0</ele><time>2026-05-03T14:07:47Z</time></trkpt><trkpt lat="43.38155256452026" lon="18.7927900428105"><ele>467.0</ele><time>2026-05-03T14:07:48Z</time></trkpt><trkpt lat="43.38167814997058" lon="18.79276736831071"><ele>467.0</ele><time>2026-05-03T14:07:49Z</time></trkpt><trkpt lat="43.38179214785594" lon="18.792793365503577"><ele>467.0</ele><time>2026-05-03T14:07:50Z</time></trkpt><trkpt lat="43.381898455917806" lon="18.792852025476197"><ele>467.0</ele><time>2026-05-03T14:07:51Z</time></trkpt><trkpt lat="43.38200104919718" lon="18.792905763725514"><ele>467.00000000000006</ele><time>2026-05-03T14:07:52Z</time></trkpt><trkpt lat="43.382111660015944" lon="18.79290895800455"><ele>467.00000000000006</ele><time>2026-05-03T14:07:53Z</time></trkpt><trkpt lat="43.382223159499084" lon="18.79285709293361"><ele>467.0</ele><time>2026-05-03T14:07:54Z</time></trkpt><trkpt lat="43.38231514419303" lon="18.792770883306225"><ele>467.0</ele><time>2026-05-03T14:07:55Z</time></trkpt><trkpt lat="43.38237413879903" lon="18.792638277619574"><ele>465.8</ele><time>2026-05-03T14:07:56Z</time></trkpt><trkpt lat="43.382400630363335" lon="18.79251040050831"><ele>464.6</ele><time>2026-05-03T14:07:57Z</time></trkpt><trkpt lat="43.382428887058445" lon="18.79238565904184"><ele>463.40000000000003</ele><time>2026-05-03T14:07:58Z</time></trkpt><trkpt lat="43.38248831665913" lon="18.792280677293874"><ele>462.20000000000005</ele><time>2026-05-03T14:07:59Z</time></trkpt><trkpt lat="43.382575030831376" lon="18.79219418869601"><ele>461.0</ele><time>2026-05-03T14:08:00Z</time></trkpt><trkpt lat="43.3826742120399" lon="18.792124548716277"><ele>461.0</ele><time>2026-05-03T14:08:01Z</time></trkpt><trkpt lat="43.382781927191495" lon="18.792044461309864"><ele>461.0</ele><time>2026-05-03T14:08:02Z</time></trkpt><trkpt lat="43.382882610816814" lon="18.79194531292295"><ele>461.0</ele><time>2026-05-03T14:08:03Z</time></trkpt><trkpt lat="43.38297519535907" lon="18.791809323134682"><ele>461.0</ele><time>2026-05-03T14:08:04Z</time></trkpt><trkpt lat="43.38306590595372" lon="18.79167352784447"><ele>462.25</ele><time>2026-05-03T14:08:05Z</time></trkpt><trkpt lat="43.38316869421776" lon="18.791550490688635"><ele>463.5</ele><time>2026-05-03T14:08:06Z</time></trkpt><trkpt lat="43.383272877492175" lon="18.79143594648425"><ele>464.75</ele><time>2026-05-03T14:08:07Z</time></trkpt><trkpt lat="43.38337519919408" lon="18.791323629404616"><ele>466.0</ele><time>2026-05-03T14:08:08Z</time></trkpt><trkpt lat="43.38347887166367" lon="18.791219059667643"><ele>466.0</ele><time>2026-05-03T14:08:09Z</time></trkpt><trkpt lat="43.38357762699208" lon="18.791140235712458"><ele>466.0</ele><time>2026-05-03T14:08:10Z</time></trkpt><trkpt lat="43.383668792005835" lon="18.79104977236266"><ele>466.0</ele><time>2026-05-03T14:08:11Z</time></trkpt><trkpt lat="43.38373684999449" lon="18.79091759208299"><ele>466.0</ele><time>2026-05-03T14:08:12Z</time></trkpt><trkpt lat="43.383772744917394" lon="18.79077472019943"><ele>464.4</ele><time>2026-05-03T14:08:13Z</time></trkpt><trkpt lat="43.38380329102225" lon="18.790646709172396"><ele>462.8</ele><time>2026-05-03T14:08:14Z</time></trkpt><trkpt lat="43.38385369766037" lon="18.790532177833295"><ele>461.19999999999993</ele><time>2026-05-03T14:08:15Z</time></trkpt><trkpt lat="43.38391358012725" lon="18.79040606226094"><ele>459.59999999999997</ele><time>2026-05-03T14:08:16Z</time></trkpt><trkpt lat="43.38397741257349" lon="18.79027559361083"><ele>458.0</ele><time>2026-05-03T14:08:17Z</time></trkpt><trkpt lat="43.38403949775823" lon="18.79015552499146"><ele>458.0</ele><time>2026-05-03T14:08:18Z</time></trkpt><trkpt lat="43.384107038620186" lon="18.79005082466036"><ele>457.99999999999994</ele><time>2026-05-03T14:08:19Z</time></trkpt><trkpt lat="43.38419310923277" lon="18.78996277070616"><ele>457.99999999999994</ele><time>2026-05-03T14:08:20Z</time></trkpt><trkpt lat="43.38427346246279" lon="18.789894200147685"><ele>458.0</ele><time>2026-05-03T14:08:21Z</time></trkpt><trkpt lat="43.38435117017669" lon="18.789825421558334"><ele>458.0</ele><time>2026-05-03T14:08:22Z</time></trkpt><trkpt lat="43.3844208682052" lon="18.789734220328985"><ele>458.0</ele><time>2026-05-03T14:08:23Z</time></trkpt><trkpt lat="43.38446740453682" lon="18.78961808136402"><ele>457.99999999999994</ele><time>2026-05-03T14:08:24Z</time></trkpt><trkpt lat="43.38449515105232" lon="18.78949042872373"><ele>457.99999999999994</ele><time>2026-05-03T14:08:25Z</time></trkpt><trkpt lat="43.384520826216125" lon="18.7893711109218"><ele>458.0</ele><time>2026-05-03T14:08:26Z</time></trkpt><trkpt lat="43.38455748334527" lon="18.789269371230002"><ele>458.0</ele><time>2026-05-03T14:08:27Z</time></trkpt><trkpt lat="43.384617312987466" lon="18.789185472411116"><ele>460.5</ele><time>2026-05-03T14:08:28Z</time></trkpt><trkpt lat="43.384708244785905" lon="18.789088261881112"><ele>463.0</ele><time>2026-05-03T14:08:29Z</time></trkpt><trkpt lat="43.384839418902196" lon="18.788975610357134"><ele>465.5</ele><time>2026-05-03T14:08:30Z</time></trkpt><trkpt lat="43.38498549722752" lon="18.78884448496899"><ele>468.0</ele><time>2026-05-03T14:08:31Z</time></trkpt><trkpt lat="43.3851433173694" lon="18.78868294680038"><ele>464.5</ele><time>2026-05-03T14:08:32Z</time></trkpt><trkpt lat="43.385332806472945" lon="18.788500303337397"><ele>461.0</ele><time>2026-05-03T14:08:33Z</time></trkpt><trkpt lat="43.385544870680555" lon="18.78828928802679"><ele>461.0</ele><time>2026-05-03T14:08:34Z</time></trkpt><trkpt lat="43.38576856656767" lon="18.788046934203795"><ele>461.0</ele><time>2026-05-03T14:08:35Z</time></trkpt><trkpt lat="43.38600589928058" lon="18.787769202224727"><ele>462.0</ele><time>2026-05-03T14:08:36Z</time></trkpt><trkpt lat="43.386252007203495" lon="18.787475449250664"><ele>463.0</ele><time>2026-05-03T14:08:37Z</time></trkpt><trkpt lat="43.38647496957318" lon="18.78721218276777"><ele>463.0</ele><time>2026-05-03T14:08:38Z</time></trkpt><trkpt lat="43.38667722732203" lon="18.78698072186436"><ele>463.0</ele><time>2026-05-03T14:08:39Z</time></trkpt><trkpt lat="43.38685841114265" lon="18.78676666793889"><ele>463.0</ele><time>2026-05-03T14:08:40Z</time></trkpt><trkpt lat="43.38700697544936" lon="18.786560635132354"><ele>463.0</ele><time>2026-05-03T14:08:41Z</time></trkpt><trkpt lat="43.38712176667564" lon="18.78637879692591"><ele>463.0</ele><time>2026-05-03T14:08:42Z</time></trkpt><trkpt lat="43.38722863136541" lon="18.786202031185955"><ele>463.0</ele><time>2026-05-03T14:08:43Z</time></trkpt><trkpt lat="43.3873265318529" lon="18.786044771401652"><ele>463.0</ele><time>2026-05-03T14:08:44Z</time></trkpt><trkpt lat="43.38743645010527" lon="18.78589814635491"><ele>463.0</ele><time>2026-05-03T14:08:45Z</time></trkpt><trkpt lat="43.38755591675805" lon="18.785771234161412"><ele>461.0</ele><time>2026-05-03T14:08:46Z</time></trkpt><trkpt lat="43.38768284946962" lon="18.78566409774203"><ele>459.0</ele><time>2026-05-03T14:08:47Z</time></trkpt><trkpt lat="43.387816331262556" lon="18.78555153721833"><ele>457.0</ele><time>2026-05-03T14:08:48Z</time></trkpt><trkpt lat="43.38795790274787" lon="18.785424210122994"><ele>457.33333333333337</ele><time>2026-05-03T14:08:49Z</time></trkpt><trkpt lat="43.38810790444413" lon="18.785285655947856"><ele>457.66666666666663</ele><time>2026-05-03T14:08:50Z</time></trkpt><trkpt lat="43.38827254483724" lon="18.785142957589056"><ele>458.0</ele><time>2026-05-03T14:08:51Z</time></trkpt><trkpt lat="43.38843916600146" lon="18.784998798519435"><ele>458.0</ele><time>2026-05-03T14:08:52Z</time></trkpt><trkpt lat="43.38861427330737" lon="18.78487091402196"><ele>458.0</ele><time>2026-05-03T14:08:53Z</time></trkpt><trkpt lat="43.38879411733872" lon="18.784777273980065"><ele>458.0</ele><time>2026-05-03T14:08:54Z</time></trkpt><trkpt lat="43.38897596628282" lon="18.78465123531961"><ele>460.0</ele><time>2026-05-03T14:08:55Z</time></trkpt><trkpt lat="43.38912833140069" lon="18.784464263670042"><ele>462.0</ele><time>2026-05-03T14:08:56Z</time></trkpt><trkpt lat="43.38925708047098" lon="18.78427779848894"><ele>464.0</ele><time>2026-05-03T14:08:57Z</time></trkpt><trkpt lat="43.38939084768332" lon="18.784133241875953"><ele>463.66666666666663</ele><time>2026-05-03T14:08:58Z</time></trkpt><trkpt lat="43.38954848306374" lon="18.784041634457346"><ele>463.33333333333337</ele><time>2026-05-03T14:08:59Z</time></trkpt><trkpt lat="43.38971179371821" lon="18.783976599509923"><ele>463.0</ele><time>2026-05-03T14:09:00Z</time></trkpt><trkpt lat="43.38986693649013" lon="18.78392391489044"><ele>463.0</ele><time>2026-05-03T14:09:01Z</time></trkpt><trkpt lat="43.39000736104287" lon="18.78388016449161"><ele>463.0</ele><time>2026-05-03T14:09:02Z</time></trkpt><trkpt lat="43.39014785409411" lon="18.78383711744598"><ele>463.0</ele><time>2026-05-03T14:09:03Z</time></trkpt><trkpt lat="43.390298053483555" lon="18.783799588872398"><ele>463.0</ele><time>2026-05-03T14:09:04Z</time></trkpt><trkpt lat="43.39046406974564" lon="18.78372912752097"><ele>460.0</ele><time>2026-05-03T14:09:05Z</time></trkpt><trkpt lat="43.390640619152066" lon="18.78359388308253"><ele>457.0</ele><time>2026-05-03T14:09:06Z</time></trkpt><trkpt lat="43.39082333612455" lon="18.783417903817373"><ele>454.0</ele><time>2026-05-03T14:09:07Z</time></trkpt><trkpt lat="43.39100942745655" lon="18.78325328656075"><ele>454.0</ele><time>2026-05-03T14:09:08Z</time></trkpt><trkpt lat="43.391195188677344" lon="18.783162858256425"><ele>454.0</ele><time>2026-05-03T14:09:09Z</time></trkpt><trkpt lat="43.391376744774604" lon="18.783099181941655"><ele>454.0</ele><time>2026-05-03T14:09:10Z</time></trkpt><trkpt lat="43.39154552977181" lon="18.78304597749733"><ele>460.6666666666667</ele><time>2026-05-03T14:09:11Z</time></trkpt><trkpt lat="43.39171932713515" lon="18.782979096757842"><ele>467.33333333333337</ele><time>2026-05-03T14:09:12Z</time></trkpt><trkpt lat="43.391899521946684" lon="18.782921350154762"><ele>474.0</ele><time>2026-05-03T14:09:13Z</time></trkpt><trkpt lat="43.392070608064984" lon="18.782881836717014"><ele>476.0</ele><time>2026-05-03T14:09:14Z</time></trkpt><trkpt lat="43.39224506915525" lon="18.78283747834894"><ele>478.0</ele><time>2026-05-03T14:09:15Z</time></trkpt><trkpt lat="43.39241241615055" lon="18.78277633810528"><ele>480.0</ele><time>2026-05-03T14:09:16Z</time></trkpt><trkpt lat="43.39257148043716" lon="18.7827471635452"><ele>480.0</ele><time>2026-05-03T14:09:17Z</time></trkpt><trkpt lat="43.39273157193623" lon="18.78276451086928"><ele>480.0</ele><time>2026-05-03T14:09:18Z</time></trkpt><trkpt lat="43.392896221380994" lon="18.782773847092386"><ele>480.0</ele><time>2026-05-03T14:09:19Z</time></trkpt><trkpt lat="43.39304775537253" lon="18.782773083750552"><ele>478.25</ele><time>2026-05-03T14:09:20Z</time></trkpt><trkpt lat="43.393201954814884" lon="18.78277719874452"><ele>476.5</ele><time>2026-05-03T14:09:21Z</time></trkpt><trkpt lat="43.393356287420765" lon="18.782831926283343"><ele>474.75</ele><time>2026-05-03T14:09:22Z</time></trkpt><trkpt lat="43.39346904262922" lon="18.782926695131483"><ele>473.0</ele><time>2026-05-03T14:09:23Z</time></trkpt><trkpt lat="43.39355967790867" lon="18.7830297469293"><ele>472.99999999999994</ele><time>2026-05-03T14:09:24Z</time></trkpt><trkpt lat="43.393633274080806" lon="18.78310876156725"><ele>473.0</ele><time>2026-05-03T14:09:25Z</time></trkpt><trkpt lat="43.39370531123836" lon="18.78310790379101"><ele>473.0</ele><time>2026-05-03T14:09:26Z</time></trkpt><trkpt lat="43.393764282079864" lon="18.78306294102623"><ele>473.0</ele><time>2026-05-03T14:09:27Z</time></trkpt><trkpt lat="43.39381434422948" lon="18.78292655057261"><ele>472.99999999999994</ele><time>2026-05-03T14:09:29Z</time></trkpt><trkpt lat="43.39380784810676" lon="18.78282794070038"><ele>473.0</ele><time>2026-05-03T14:09:30Z</time></trkpt><trkpt lat="43.39377558279673" lon="18.78271540829269"><ele>472.0</ele><time>2026-05-03T14:09:31Z</time></trkpt><trkpt lat="43.39376257840914" lon="18.78258711027591"><ele>470.99999999999994</ele><time>2026-05-03T14:09:32Z</time></trkpt><trkpt lat="43.39379164551114" lon="18.78245602259716"><ele>469.99999999999994</ele><time>2026-05-03T14:09:33Z</time></trkpt><trkpt lat="43.39386302197951" lon="18.78236694337334"><ele>469.0</ele><time>2026-05-03T14:09:34Z</time></trkpt><trkpt lat="43.393972384727796" lon="18.782290899347196"><ele>468.0</ele><time>2026-05-03T14:09:35Z</time></trkpt><trkpt lat="43.39411213299843" lon="18.7822292814432"><ele>468.0</ele><time>2026-05-03T14:09:36Z</time></trkpt><trkpt lat="43.39426927873312" lon="18.782171200443475"><ele>468.0</ele><time>2026-05-03T14:09:37Z</time></trkpt><trkpt lat="43.39441661824282" lon="18.782141962762562"><ele>468.0</ele><time>2026-05-03T14:09:38Z</time></trkpt><trkpt lat="43.3945578576778" lon="18.782163156723218"><ele>473.75</ele><time>2026-05-03T14:09:39Z</time></trkpt><trkpt lat="43.39469343076133" lon="18.782184775823556"><ele>479.5</ele><time>2026-05-03T14:09:40Z</time></trkpt><trkpt lat="43.39482880903944" lon="18.78214551769627"><ele>485.25</ele><time>2026-05-03T14:09:41Z</time></trkpt><trkpt lat="43.39496296536958" lon="18.782041155537843"><ele>491.0</ele><time>2026-05-03T14:09:42Z</time></trkpt><trkpt lat="43.395079670324165" lon="18.78186866317371"><ele>488.75</ele><time>2026-05-03T14:09:43Z</time></trkpt><trkpt lat="43.39520643390695" lon="18.781723283282016"><ele>486.5</ele><time>2026-05-03T14:09:44Z</time></trkpt><trkpt lat="43.395334870790954" lon="18.781658788584256"><ele>484.25</ele><time>2026-05-03T14:09:45Z</time></trkpt><trkpt lat="43.39545638636998" lon="18.781628283855557"><ele>482.0</ele><time>2026-05-03T14:09:46Z</time></trkpt><trkpt lat="43.39556204179866" lon="18.781571426921285"><ele>482.0</ele><time>2026-05-03T14:09:47Z</time></trkpt><trkpt lat="43.3956454972928" lon="18.781451310529643"><ele>482.0</ele><time>2026-05-03T14:09:48Z</time></trkpt><trkpt lat="43.39570264133335" lon="18.781302398775374"><ele>482.0</ele><time>2026-05-03T14:09:49Z</time></trkpt><trkpt lat="43.39575671931057" lon="18.781149491759255"><ele>482.0</ele><time>2026-05-03T14:09:50Z</time></trkpt><trkpt lat="43.39584291543915" lon="18.781061015280642"><ele>482.0</ele><time>2026-05-03T14:09:51Z</time></trkpt><trkpt lat="43.395946294529665" lon="18.781023011336874"><ele>482.0</ele><time>2026-05-03T14:09:52Z</time></trkpt><trkpt lat="43.39606936137943" lon="18.781026044093153"><ele>482.0</ele><time>2026-05-03T14:09:53Z</time></trkpt><trkpt lat="43.39619084479176" lon="18.781077181327383"><ele>482.0</ele><time>2026-05-03T14:09:54Z</time></trkpt><trkpt lat="43.39630922051462" lon="18.781181902310635"><ele>483.0</ele><time>2026-05-03T14:09:55Z</time></trkpt><trkpt lat="43.39642588488287" lon="18.78130289903872"><ele>484.0</ele><time>2026-05-03T14:09:56Z</time></trkpt><trkpt lat="43.39654550181885" lon="18.78138822931789"><ele>485.0</ele><time>2026-05-03T14:09:57Z</time></trkpt><trkpt lat="43.39666680403841" lon="18.781419639475835"><ele>486.0</ele><time>2026-05-03T14:09:58Z</time></trkpt><trkpt lat="43.396773137245646" lon="18.78137261269142"><ele>486.0</ele><time>2026-05-03T14:09:59Z</time></trkpt><trkpt lat="43.39685100061461" lon="18.781263400454712"><ele>486.0</ele><time>2026-05-03T14:10:00Z</time></trkpt><trkpt lat="43.39691205296035" lon="18.781119486177875"><ele>486.0</ele><time>2026-05-03T14:10:01Z</time></trkpt><trkpt lat="43.39697891438054" lon="18.78098442831437"><ele>486.0</ele><time>2026-05-03T14:10:02Z</time></trkpt><trkpt lat="43.39706128511098" lon="18.780906869155626"><ele>486.75</ele><time>2026-05-03T14:10:03Z</time></trkpt><trkpt lat="43.39716678456121" lon="18.78085281073904"><ele>487.5</ele><time>2026-05-03T14:10:04Z</time></trkpt><trkpt lat="43.397285530759646" lon="18.7808600905287"><ele>488.25</ele><time>2026-05-03T14:10:05Z</time></trkpt><trkpt lat="43.39741477288177" lon="18.780909470119244"><ele>489.0</ele><time>2026-05-03T14:10:06Z</time></trkpt><trkpt lat="43.39755437578102" lon="18.780968594389662"><ele>489.0</ele><time>2026-05-03T14:10:07Z</time></trkpt><trkpt lat="43.39770110350128" lon="18.781014755771825"><ele>489.0</ele><time>2026-05-03T14:10:08Z</time></trkpt><trkpt lat="43.39783987615387" lon="18.781047470335555"><ele>489.0</ele><time>2026-05-03T14:10:09Z</time></trkpt><trkpt lat="43.39797027754346" lon="18.781066108255835"><ele>489.0</ele><time>2026-05-03T14:10:10Z</time></trkpt><trkpt lat="43.39809889813837" lon="18.78105556152951"><ele>489.75</ele><time>2026-05-03T14:10:11Z</time></trkpt><trkpt lat="43.39822548672199" lon="18.78099735187135"><ele>490.5</ele><time>2026-05-03T14:10:12Z</time></trkpt><trkpt lat="43.39834652929366" lon="18.78090692273692"><ele>491.25</ele><time>2026-05-03T14:10:13Z</time></trkpt><trkpt lat="43.3984620052763" lon="18.780780927504107"><ele>492.0</ele><time>2026-05-03T14:10:14Z</time></trkpt><trkpt lat="43.39858646023669" lon="18.78065506592872"><ele>492.0</ele><time>2026-05-03T14:10:15Z</time></trkpt><trkpt lat="43.39873149637925" lon="18.780548880885867"><ele>492.0</ele><time>2026-05-03T14:10:16Z</time></trkpt><trkpt lat="43.39890214931467" lon="18.780469409384025"><ele>492.0</ele><time>2026-05-03T14:10:17Z</time></trkpt><trkpt lat="43.39907712851421" lon="18.78042925861402"><ele>494.5</ele><time>2026-05-03T14:10:18Z</time></trkpt><trkpt lat="43.39922581402798" lon="18.78043501086788"><ele>497.0</ele><time>2026-05-03T14:10:19Z</time></trkpt><trkpt lat="43.39936028742788" lon="18.780466093065915"><ele>499.5</ele><time>2026-05-03T14:10:20Z</time></trkpt><trkpt lat="43.399497043356945" lon="18.780522964483065"><ele>502.0</ele><time>2026-05-03T14:10:21Z</time></trkpt><trkpt lat="43.39962430420967" lon="18.780605838551427"><ele>499.6666666666667</ele><time>2026-05-03T14:10:22Z</time></trkpt><trkpt lat="43.39974329120504" lon="18.780718191674694"><ele>497.33333333333337</ele><time>2026-05-03T14:10:23Z</time></trkpt><trkpt lat="43.399862508417215" lon="18.78086246924788"><ele>495.0</ele><time>2026-05-03T14:10:24Z</time></trkpt><trkpt lat="43.39998253741286" lon="18.78101682545305"><ele>504.0</ele><time>2026-05-03T14:10:25Z</time></trkpt><trkpt lat="43.40013297422545" lon="18.781149396899764"><ele>513.0</ele><time>2026-05-03T14:10:26Z</time></trkpt><trkpt lat="43.400302785584046" lon="18.781265391981286"><ele>522.0</ele><time>2026-05-03T14:10:27Z</time></trkpt><trkpt lat="43.40047876222149" lon="18.781378390524537"><ele>515.6666666666666</ele><time>2026-05-03T14:10:28Z</time></trkpt><trkpt lat="43.40065556380397" lon="18.78148996520471"><ele>509.3333333333333</ele><time>2026-05-03T14:10:29Z</time></trkpt><trkpt lat="43.400826644922475" lon="18.781606086396625"><ele>503.0</ele><time>2026-05-03T14:10:30Z</time></trkpt><trkpt lat="43.400970984462575" lon="18.781726577169874"><ele>509.0</ele><time>2026-05-03T14:10:31Z</time></trkpt><trkpt lat="43.4010898127574" lon="18.78185211877588"><ele>515.0</ele><time>2026-05-03T14:10:32Z</time></trkpt><trkpt lat="43.401194622397426" lon="18.781957357916536"><ele>521.0</ele><time>2026-05-03T14:10:33Z</time></trkpt><trkpt lat="43.401319430448304" lon="18.782027181068937"><ele>527.0</ele><time>2026-05-03T14:10:34Z</time></trkpt><trkpt lat="43.40146377480418" lon="18.782065138449642"><ele>527.0</ele><time>2026-05-03T14:10:35Z</time></trkpt><trkpt lat="43.401612120097084" lon="18.78206202986254"><ele>527.0</ele><time>2026-05-03T14:10:36Z</time></trkpt><trkpt lat="43.40174787009574" lon="18.78204535284601"><ele>527.0</ele><time>2026-05-03T14:10:37Z</time></trkpt><trkpt lat="43.40186916374567" lon="18.782037403133053"><ele>527.0</ele><time>2026-05-03T14:10:38Z</time></trkpt><trkpt lat="43.401979458187924" lon="18.782051503040595"><ele>527.0</ele><time>2026-05-03T14:10:39Z</time></trkpt><trkpt lat="43.40208519428634" lon="18.782070435345886"><ele>527.0</ele><time>2026-05-03T14:10:40Z</time></trkpt><trkpt lat="43.402185489980226" lon="18.782068045981944"><ele>527.0</ele><time>2026-05-03T14:10:41Z</time></trkpt><trkpt lat="43.40227136976851" lon="18.78205810609404"><ele>527.0</ele><time>2026-05-03T14:10:42Z</time></trkpt><trkpt lat="43.40235203070014" lon="18.782055225329923"><ele>527.0</ele><time>2026-05-03T14:10:43Z</time></trkpt><trkpt lat="43.4024349630114" lon="18.78205340921916"><ele>526.0</ele><time>2026-05-03T14:10:45Z</time></trkpt><trkpt lat="43.40252981420529" lon="18.782035798103863"><ele>525.0</ele><time>2026-05-03T14:10:47Z</time></trkpt><trkpt lat="43.40259760988338" lon="18.782032874872694"><ele>524.0</ele><time>2026-05-03T14:10:48Z</time></trkpt><trkpt lat="43.4026752403142" lon="18.782025172892585"><ele>523.0</ele><time>2026-05-03T14:10:49Z</time></trkpt><trkpt lat="43.402779469997625" lon="18.782001387077848"><ele>522.0</ele><time>2026-05-03T14:10:50Z</time></trkpt><trkpt lat="43.402927970409564" lon="18.781946626464773"><ele>522.0</ele><time>2026-05-03T14:10:51Z</time></trkpt><trkpt lat="43.40309251728198" lon="18.78188024366198"><ele>522.0</ele><time>2026-05-03T14:10:52Z</time></trkpt><trkpt lat="43.403308031509496" lon="18.781802430100644"><ele>522.0</ele><time>2026-05-03T14:10:53Z</time></trkpt><trkpt lat="43.4035536298518" lon="18.781728662219457"><ele>514.5</ele><time>2026-05-03T14:10:54Z</time></trkpt><trkpt lat="43.40380693043011" lon="18.781656029699192"><ele>507.0</ele><time>2026-05-03T14:10:55Z</time></trkpt><trkpt lat="43.404039009852234" lon="18.781580294205103"><ele>507.0</ele><time>2026-05-03T14:10:56Z</time></trkpt><trkpt lat="43.40424740302058" lon="18.781503375057234"><ele>507.0</ele><time>2026-05-03T14:10:57Z</time></trkpt><trkpt lat="43.40443709907978" lon="18.781395785333384"><ele>507.0</ele><time>2026-05-03T14:10:58Z</time></trkpt><trkpt lat="43.404605382094346" lon="18.78126125315797"><ele>511.0</ele><time>2026-05-03T14:10:59Z</time></trkpt><trkpt lat="43.40475352714711" lon="18.7811453555524"><ele>515.0</ele><time>2026-05-03T14:11:00Z</time></trkpt><trkpt lat="43.404886521484755" lon="18.78109192709032"><ele>519.0</ele><time>2026-05-03T14:11:01Z</time></trkpt><trkpt lat="43.40501295251046" lon="18.78109384446979"><ele>523.0</ele><time>2026-05-03T14:11:02Z</time></trkpt><trkpt lat="43.40515817558904" lon="18.781150210210498"><ele>523.0</ele><time>2026-05-03T14:11:03Z</time></trkpt><trkpt lat="43.40531703402344" lon="18.781180671930592"><ele>523.0</ele><time>2026-05-03T14:11:04Z</time></trkpt><trkpt lat="43.40547219054878" lon="18.78120087525394"><ele>523.0</ele><time>2026-05-03T14:11:05Z</time></trkpt><trkpt lat="43.40559961884257" lon="18.781212173230244"><ele>523.0</ele><time>2026-05-03T14:11:06Z</time></trkpt><trkpt lat="43.40570569092994" lon="18.78120321659979"><ele>521.1999999999999</ele><time>2026-05-03T14:11:07Z</time></trkpt><trkpt lat="43.40579469191641" lon="18.78114906815876"><ele>519.4</ele><time>2026-05-03T14:11:08Z</time></trkpt><trkpt lat="43.40585782156939" lon="18.78107583920733"><ele>517.5999999999999</ele><time>2026-05-03T14:11:09Z</time></trkpt><trkpt lat="43.405939344255586" lon="18.780993715164815"><ele>515.8</ele><time>2026-05-03T14:11:10Z</time></trkpt><trkpt lat="43.406043316252514" lon="18.780932390994206"><ele>514.0</ele><time>2026-05-03T14:11:11Z</time></trkpt><trkpt lat="43.406142277252684" lon="18.78089745585673"><ele>514.0</ele><time>2026-05-03T14:11:12Z</time></trkpt><trkpt lat="43.406219460850586" lon="18.780827516724337"><ele>514.0</ele><time>2026-05-03T14:11:13Z</time></trkpt><trkpt lat="43.40626626812123" lon="18.780715864127984"><ele>514.0</ele><time>2026-05-03T14:11:14Z</time></trkpt><trkpt lat="43.40625353716809" lon="18.780596232654723"><ele>514.0</ele><time>2026-05-03T14:11:15Z</time></trkpt><trkpt lat="43.406195042099405" lon="18.780501439220682"><ele>514.0</ele><time>2026-05-03T14:11:16Z</time></trkpt><trkpt lat="43.40611965409205" lon="18.7804250365352"><ele>514.0</ele><time>2026-05-03T14:11:17Z</time></trkpt><trkpt lat="43.40605101976401" lon="18.78034918715817"><ele>514.0</ele><time>2026-05-03T14:11:18Z</time></trkpt><trkpt lat="43.40601598066319" lon="18.78024303421872"><ele>514.0</ele><time>2026-05-03T14:11:19Z</time></trkpt><trkpt lat="43.40603287810929" lon="18.780133635335204"><ele>514.0</ele><time>2026-05-03T14:11:20Z</time></trkpt><trkpt lat="43.40608304857696" lon="18.78003393068256"><ele>514.0</ele><time>2026-05-03T14:11:21Z</time></trkpt><trkpt lat="43.406171138141076" lon="18.779966333804612"><ele>514.0</ele><time>2026-05-03T14:11:22Z</time></trkpt><trkpt lat="43.406308007653834" lon="18.779916215428877"><ele>517.75</ele><time>2026-05-03T14:11:23Z</time></trkpt><trkpt lat="43.40647121079441" lon="18.779863584957482"><ele>521.5</ele><time>2026-05-03T14:11:24Z</time></trkpt><trkpt lat="43.40660762345437" lon="18.779806663811076"><ele>525.25</ele><time>2026-05-03T14:11:25Z</time></trkpt><trkpt lat="43.406717480719685" lon="18.779741627744066"><ele>529.0</ele><time>2026-05-03T14:11:26Z</time></trkpt><trkpt lat="43.40681492120413" lon="18.779648079559866"><ele>529.0</ele><time>2026-05-03T14:11:27Z</time></trkpt><trkpt lat="43.40689689000483" lon="18.779530258077784"><ele>529.0</ele><time>2026-05-03T14:11:28Z</time></trkpt><trkpt lat="43.40698095904328" lon="18.779426284950393"><ele>529.0</ele><time>2026-05-03T14:11:29Z</time></trkpt><trkpt lat="43.40710201952791" lon="18.779390843503457"><ele>529.0</ele><time>2026-05-03T14:11:30Z</time></trkpt><trkpt lat="43.40725373330452" lon="18.77941112450383"><ele>536.6666666666667</ele><time>2026-05-03T14:11:31Z</time></trkpt><trkpt lat="43.40741806459489" lon="18.779453064488028"><ele>544.3333333333334</ele><time>2026-05-03T14:11:32Z</time></trkpt><trkpt lat="43.40756666404422" lon="18.77945231043693"><ele>552.0</ele><time>2026-05-03T14:11:33Z</time></trkpt><trkpt lat="43.40769902382107" lon="18.779376023537885"><ele>550.6666666666666</ele><time>2026-05-03T14:11:34Z</time></trkpt><trkpt lat="43.407817985267165" lon="18.77924709647915"><ele>549.3333333333333</ele><time>2026-05-03T14:11:35Z</time></trkpt><trkpt lat="43.40792709587626" lon="18.77907811884636"><ele>548.0</ele><time>2026-05-03T14:11:36Z</time></trkpt><trkpt lat="43.40801811039035" lon="18.778908348937303"><ele>548.0</ele><time>2026-05-03T14:11:37Z</time></trkpt><trkpt lat="43.40809913235078" lon="18.778767278276472"><ele>548.0</ele><time>2026-05-03T14:11:38Z</time></trkpt><trkpt lat="43.40819234456861" lon="18.778663170326634"><ele>548.0</ele><time>2026-05-03T14:11:39Z</time></trkpt><trkpt lat="43.40829035646574" lon="18.77863947879156"><ele>548.0</ele><time>2026-05-03T14:11:40Z</time></trkpt><trkpt lat="43.408364554512" lon="18.778672881496142"><ele>548.0</ele><time>2026-05-03T14:11:41Z</time></trkpt><trkpt lat="43.40841350131317" lon="18.778742949246954"><ele>548.0</ele><time>2026-05-03T14:11:42Z</time></trkpt><trkpt lat="43.40845095674687" lon="18.778854306288704"><ele>548.0</ele><time>2026-05-03T14:11:43Z</time></trkpt><trkpt lat="43.408493702935274" lon="18.778943519319014"><ele>548.0</ele><time>2026-05-03T14:11:44Z</time></trkpt><trkpt lat="43.40857434158161" lon="18.778999148431648"><ele>548.0</ele><time>2026-05-03T14:11:45Z</time></trkpt><trkpt lat="43.40865989379098" lon="18.77900953849409"><ele>548.0</ele><time>2026-05-03T14:11:46Z</time></trkpt><trkpt lat="43.40874733250051" lon="18.778943506450066"><ele>548.0</ele><time>2026-05-03T14:11:47Z</time></trkpt><trkpt lat="43.40879584228336" lon="18.778836374057803"><ele>550.25</ele><time>2026-05-03T14:11:48Z</time></trkpt><trkpt lat="43.4088431067671" lon="18.778698813814483"><ele>552.5</ele><time>2026-05-03T14:11:49Z</time></trkpt><trkpt lat="43.40891640809296" lon="18.77855837611589"><ele>554.75</ele><time>2026-05-03T14:11:50Z</time></trkpt><trkpt lat="43.40902190864813" lon="18.778459576349363"><ele>557.0</ele><time>2026-05-03T14:11:51Z</time></trkpt><trkpt lat="43.409157634903806" lon="18.778406785324584"><ele>554.0</ele><time>2026-05-03T14:11:52Z</time></trkpt><trkpt lat="43.4093092556325" lon="18.778362258422057"><ele>551.0</ele><time>2026-05-03T14:11:53Z</time></trkpt><trkpt lat="43.40948390291966" lon="18.77832764786011"><ele>548.0</ele><time>2026-05-03T14:11:54Z</time></trkpt><trkpt lat="43.40967605404503" lon="18.778316491040993"><ele>548.0</ele><time>2026-05-03T14:11:55Z</time></trkpt><trkpt lat="43.40986565838533" lon="18.778290887619775"><ele>548.0</ele><time>2026-05-03T14:11:56Z</time></trkpt><trkpt lat="43.41004284903775" lon="18.77822811224489"><ele>548.0</ele><time>2026-05-03T14:11:57Z</time></trkpt><trkpt lat="43.410211208344585" lon="18.77819657420077"><ele>548.0</ele><time>2026-05-03T14:11:58Z</time></trkpt><trkpt lat="43.410338160310715" lon="18.778208870652453"><ele>548.0</ele><time>2026-05-03T14:11:59Z</time></trkpt><trkpt lat="43.41044460139898" lon="18.77817788700075"><ele>548.0</ele><time>2026-05-03T14:12:00Z</time></trkpt><trkpt lat="43.4105388728148" lon="18.778098883174426"><ele>548.0</ele><time>2026-05-03T14:12:01Z</time></trkpt><trkpt lat="43.41063872509985" lon="18.77797216326116"><ele>551.75</ele><time>2026-05-03T14:12:02Z</time></trkpt><trkpt lat="43.41073565354083" lon="18.777875578587775"><ele>555.5</ele><time>2026-05-03T14:12:03Z</time></trkpt><trkpt lat="43.410847225056244" lon="18.777835455604503"><ele>559.25</ele><time>2026-05-03T14:12:04Z</time></trkpt><trkpt lat="43.41097792760833" lon="18.777844739915285"><ele>563.0</ele><time>2026-05-03T14:12:05Z</time></trkpt><trkpt lat="43.41113267740148" lon="18.7778608218311"><ele>563.0</ele><time>2026-05-03T14:12:06Z</time></trkpt><trkpt lat="43.41129927925246" lon="18.777811980259354"><ele>563.0</ele><time>2026-05-03T14:12:07Z</time></trkpt><trkpt lat="43.41146775370785" lon="18.777704344899497"><ele>563.0</ele><time>2026-05-03T14:12:08Z</time></trkpt><trkpt lat="43.41161836644152" lon="18.777608994204986"><ele>558.0</ele><time>2026-05-03T14:12:09Z</time></trkpt><trkpt lat="43.41175637422001" lon="18.777522179214277"><ele>553.0</ele><time>2026-05-03T14:12:10Z</time></trkpt><trkpt lat="43.41188238512921" lon="18.777424700162275"><ele>548.0</ele><time>2026-05-03T14:12:11Z</time></trkpt><trkpt lat="43.41200960213156" lon="18.777337698386297"><ele>543.0</ele><time>2026-05-03T14:12:12Z</time></trkpt><trkpt lat="43.412144736443494" lon="18.777274636223904"><ele>547.5</ele><time>2026-05-03T14:12:13Z</time></trkpt><trkpt lat="43.41227479966881" lon="18.777194859313425"><ele>552.0</ele><time>2026-05-03T14:12:14Z</time></trkpt><trkpt lat="43.41239358614349" lon="18.77712223196157"><ele>556.5</ele><time>2026-05-03T14:12:15Z</time></trkpt><trkpt lat="43.41252221225954" lon="18.777070274024698"><ele>561.0</ele><time>2026-05-03T14:12:16Z</time></trkpt><trkpt lat="43.41267186129219" lon="18.77701247013427"><ele>561.0</ele><time>2026-05-03T14:12:17Z</time></trkpt><trkpt lat="43.41281933507081" lon="18.77697361610219"><ele>561.0</ele><time>2026-05-03T14:12:18Z</time></trkpt><trkpt lat="43.41295835762479" lon="18.776929221264858"><ele>561.0</ele><time>2026-05-03T14:12:19Z</time></trkpt><trkpt lat="43.413075371375534" lon="18.77684015951159"><ele>561.0</ele><time>2026-05-03T14:12:20Z</time></trkpt><trkpt lat="43.413176172123755" lon="18.776742023226035"><ele>555.0</ele><time>2026-05-03T14:12:21Z</time></trkpt><trkpt lat="43.41327667578089" lon="18.77667133526413"><ele>549.0</ele><time>2026-05-03T14:12:22Z</time></trkpt><trkpt lat="43.41337791004058" lon="18.77663361559129"><ele>543.0</ele><time>2026-05-03T14:12:23Z</time></trkpt><trkpt lat="43.41349088795342" lon="18.776667055631215"><ele>537.0</ele><time>2026-05-03T14:12:24Z</time></trkpt><trkpt lat="43.41361039110241" lon="18.776705860237723"><ele>537.0</ele><time>2026-05-03T14:12:25Z</time></trkpt><trkpt lat="43.413718794870434" lon="18.77667243274763"><ele>537.0</ele><time>2026-05-03T14:12:26Z</time></trkpt><trkpt lat="43.41383056037146" lon="18.776560626044756"><ele>537.0</ele><time>2026-05-03T14:12:27Z</time></trkpt><trkpt lat="43.41393571470999" lon="18.776417481186165"><ele>537.0</ele><time>2026-05-03T14:12:28Z</time></trkpt><trkpt lat="43.41402414304984" lon="18.776288776515937"><ele>535.8000000000001</ele><time>2026-05-03T14:12:29Z</time></trkpt><trkpt lat="43.41410573998522" lon="18.77618319967293"><ele>534.6</ele><time>2026-05-03T14:12:30Z</time></trkpt><trkpt lat="43.41419653352893" lon="18.77609910134322"><ele>533.4000000000001</ele><time>2026-05-03T14:12:31Z</time></trkpt><trkpt lat="43.414281039716165" lon="18.776049158986996"><ele>532.2</ele><time>2026-05-03T14:12:32Z</time></trkpt><trkpt lat="43.41436994618195" lon="18.776027985816206"><ele>531.0</ele><time>2026-05-03T14:12:33Z</time></trkpt><trkpt lat="43.41446065582676" lon="18.776005966930256"><ele>531.0</ele><time>2026-05-03T14:12:34Z</time></trkpt><trkpt lat="43.414551753260376" lon="18.775983265794697"><ele>531.0</ele><time>2026-05-03T14:12:35Z</time></trkpt><trkpt lat="43.41464092581349" lon="18.775975113158886"><ele>531.0</ele><time>2026-05-03T14:12:36Z</time></trkpt><trkpt lat="43.41473675897198" lon="18.775976540084987"><ele>531.0</ele><time>2026-05-03T14:12:37Z</time></trkpt><trkpt lat="43.414826754866276" lon="18.775983845141884"><ele>531.0</ele><time>2026-05-03T14:12:38Z</time></trkpt><trkpt lat="43.41491223676893" lon="18.775982041492227"><ele>532.0</ele><time>2026-05-03T14:12:39Z</time></trkpt><trkpt lat="43.41498919029808" lon="18.775980336907818"><ele>533.0</ele><time>2026-05-03T14:12:40Z</time></trkpt><trkpt lat="43.41505350979574" lon="18.775982024875955"><ele>534.0</ele><time>2026-05-03T14:12:41Z</time></trkpt><trkpt lat="43.41515150991639" lon="18.77601493254868"><ele>535.0</ele><time>2026-05-03T14:12:43Z</time></trkpt><trkpt lat="43.41526370056987" lon="18.776063987737064"><ele>536.0</ele><time>2026-05-03T14:12:45Z</time></trkpt><trkpt lat="43.415345682309606" lon="18.776067485723225"><ele>537.0</ele><time>2026-05-03T14:12:46Z</time></trkpt><trkpt lat="43.415423219774425" lon="18.77604000904231"><ele>540.8000000000001</ele><time>2026-05-03T14:12:47Z</time></trkpt><trkpt lat="43.415500466176276" lon="18.775982930844464"><ele>544.6</ele><time>2026-05-03T14:12:48Z</time></trkpt><trkpt lat="43.41556254539575" lon="18.77589500134419"><ele>548.4000000000001</ele><time>2026-05-03T14:12:49Z</time></trkpt><trkpt lat="43.41559485541622" lon="18.775766376179213"><ele>552.2</ele><time>2026-05-03T14:12:50Z</time></trkpt><trkpt lat="43.41560313368526" lon="18.77561513058124"><ele>556.0</ele><time>2026-05-03T14:12:51Z</time></trkpt><trkpt lat="43.415618186852704" lon="18.775458405566596"><ele>556.0</ele><time>2026-05-03T14:12:52Z</time></trkpt><trkpt lat="43.41564136178698" lon="18.775271513916703"><ele>556.0</ele><time>2026-05-03T14:12:53Z</time></trkpt><trkpt lat="43.41569018305749" lon="18.775099940354565"><ele>556.0</ele><time>2026-05-03T14:12:54Z</time></trkpt><trkpt lat="43.41572752892021" lon="18.774949226558306"><ele>556.0</ele><time>2026-05-03T14:12:55Z</time></trkpt><trkpt lat="43.41576243520481" lon="18.77481122778039"><ele>553.2</ele><time>2026-05-03T14:12:56Z</time></trkpt><trkpt lat="43.415783173189375" lon="18.774683764824218"><ele>550.4000000000001</ele><time>2026-05-03T14:12:57Z</time></trkpt><trkpt lat="43.41580669262883" lon="18.774550704647115"><ele>547.6</ele><time>2026-05-03T14:12:58Z</time></trkpt><trkpt lat="43.41584458027504" lon="18.77440678424672"><ele>544.8000000000001</ele><time>2026-05-03T14:12:59Z</time></trkpt><trkpt lat="43.415889392695036" lon="18.77426958528399"><ele>542.0</ele><time>2026-05-03T14:13:00Z</time></trkpt><trkpt lat="43.415939686636264" lon="18.774137398605927"><ele>538.6</ele><time>2026-05-03T14:13:01Z</time></trkpt><trkpt lat="43.41600341387596" lon="18.77401451010611"><ele>535.2</ele><time>2026-05-03T14:13:02Z</time></trkpt><trkpt lat="43.41608202368915" lon="18.773912201618515"><ele>531.8</ele><time>2026-05-03T14:13:03Z</time></trkpt><trkpt lat="43.41616088144417" lon="18.7738191636875"><ele>528.4</ele><time>2026-05-03T14:13:04Z</time></trkpt><trkpt lat="43.416242935904805" lon="18.77371553174552"><ele>525.0</ele><time>2026-05-03T14:13:05Z</time></trkpt><trkpt lat="43.41631973750663" lon="18.77359656361451"><ele>528.75</ele><time>2026-05-03T14:13:06Z</time></trkpt><trkpt lat="43.41639090232736" lon="18.77346447841342"><ele>532.5</ele><time>2026-05-03T14:13:07Z</time></trkpt><trkpt lat="43.41645000902276" lon="18.773322170534115"><ele>536.25</ele><time>2026-05-03T14:13:08Z</time></trkpt><trkpt lat="43.416492641335445" lon="18.77317158050986"><ele>540.0</ele><time>2026-05-03T14:13:09Z</time></trkpt><trkpt lat="43.41651649733396" lon="18.77303084026479"><ele>540.0</ele><time>2026-05-03T14:13:10Z</time></trkpt><trkpt lat="43.41655559038623" lon="18.772911073962735"><ele>540.0</ele><time>2026-05-03T14:13:11Z</time></trkpt><trkpt lat="43.41663035833668" lon="18.77283533519849"><ele>540.0</ele><time>2026-05-03T14:13:12Z</time></trkpt><trkpt lat="43.416721128383024" lon="18.772776991789133"><ele>540.0</ele><time>2026-05-03T14:13:13Z</time></trkpt><trkpt lat="43.41680884461769" lon="18.77275328909061"><ele>540.0</ele><time>2026-05-03T14:13:14Z</time></trkpt><trkpt lat="43.41689727326401" lon="18.772733569218293"><ele>540.0</ele><time>2026-05-03T14:13:15Z</time></trkpt><trkpt lat="43.41698128717739" lon="18.772707061969555"><ele>540.0</ele><time>2026-05-03T14:13:16Z</time></trkpt><trkpt lat="43.4170670880874" lon="18.772665876750153"><ele>540.0</ele><time>2026-05-03T14:13:17Z</time></trkpt><trkpt lat="43.417143949247446" lon="18.772598229564807"><ele>540.0</ele><time>2026-05-03T14:13:18Z</time></trkpt><trkpt lat="43.41719717058129" lon="18.772496741193358"><ele>540.0</ele><time>2026-05-03T14:13:19Z</time></trkpt><trkpt lat="43.41723237243184" lon="18.772367779281574"><ele>541.4</ele><time>2026-05-03T14:13:20Z</time></trkpt><trkpt lat="43.41727527932528" lon="18.77223850477372"><ele>542.8</ele><time>2026-05-03T14:13:21Z</time></trkpt><trkpt lat="43.41733355006121" lon="18.772133783940863"><ele>544.2</ele><time>2026-05-03T14:13:22Z</time></trkpt><trkpt lat="43.41741497243933" lon="18.772034927211642"><ele>545.6</ele><time>2026-05-03T14:13:23Z</time></trkpt><trkpt lat="43.417498310642884" lon="18.77194320575523"><ele>547.0</ele><time>2026-05-03T14:13:24Z</time></trkpt><trkpt lat="43.417585292323366" lon="18.771866624429418"><ele>544.5</ele><time>2026-05-03T14:13:25Z</time></trkpt><trkpt lat="43.41768150689813" lon="18.771791847900737"><ele>542.0</ele><time>2026-05-03T14:13:26Z</time></trkpt><trkpt lat="43.41778710308164" lon="18.77171055004222"><ele>539.5</ele><time>2026-05-03T14:13:27Z</time></trkpt><trkpt lat="43.41789380989542" lon="18.771620351066208"><ele>537.0</ele><time>2026-05-03T14:13:28Z</time></trkpt><trkpt lat="43.418004929166216" lon="18.77153140013965"><ele>537.0</ele><time>2026-05-03T14:13:29Z</time></trkpt><trkpt lat="43.41811765662503" lon="18.771453166912785"><ele>537.0</ele><time>2026-05-03T14:13:30Z</time></trkpt><trkpt lat="43.418239500350815" lon="18.771377685623783"><ele>537.0</ele><time>2026-05-03T14:13:31Z</time></trkpt><trkpt lat="43.41836569278227" lon="18.771308097483274"><ele>537.0</ele><time>2026-05-03T14:13:32Z</time></trkpt><trkpt lat="43.41849394511028" lon="18.771221466817085"><ele>537.0</ele><time>2026-05-03T14:13:33Z</time></trkpt><trkpt lat="43.41860855575599" lon="18.771119222072933"><ele>537.0</ele><time>2026-05-03T14:13:34Z</time></trkpt><trkpt lat="43.41871033900191" lon="18.77100841411411"><ele>537.0</ele><time>2026-05-03T14:13:35Z</time></trkpt><trkpt lat="43.41880004040129" lon="18.77088605638871"><ele>537.0</ele><time>2026-05-03T14:13:36Z</time></trkpt><trkpt lat="43.41888686899897" lon="18.770784274884043"><ele>537.8000000000001</ele><time>2026-05-03T14:13:37Z</time></trkpt><trkpt lat="43.418975935377354" lon="18.77069079921719"><ele>538.6</ele><time>2026-05-03T14:13:38Z</time></trkpt><trkpt lat="43.41905674916345" lon="18.77058353148102"><ele>539.4000000000001</ele><time>2026-05-03T14:13:39Z</time></trkpt><trkpt lat="43.41911776598021" lon="18.77045539986945"><ele>540.2</ele><time>2026-05-03T14:13:40Z</time></trkpt><trkpt lat="43.41917636751725" lon="18.770330243752397"><ele>541.0</ele><time>2026-05-03T14:13:41Z</time></trkpt><trkpt lat="43.4192434512724" lon="18.77020035834586"><ele>533.5</ele><time>2026-05-03T14:13:42Z</time></trkpt><trkpt lat="43.419318368391586" lon="18.770069702991893"><ele>526.0</ele><time>2026-05-03T14:13:43Z</time></trkpt><trkpt lat="43.41940254702909" lon="18.769950866005797"><ele>518.5</ele><time>2026-05-03T14:13:44Z</time></trkpt><trkpt lat="43.41949483343424" lon="18.769851722777315"><ele>511.0</ele><time>2026-05-03T14:13:45Z</time></trkpt><trkpt lat="43.419600548433664" lon="18.76975720113627"><ele>518.25</ele><time>2026-05-03T14:13:46Z</time></trkpt><trkpt lat="43.41971175490973" lon="18.769675349398874"><ele>525.5</ele><time>2026-05-03T14:13:47Z</time></trkpt><trkpt lat="43.419827861992395" lon="18.76960526020385"><ele>532.75</ele><time>2026-05-03T14:13:48Z</time></trkpt><trkpt lat="43.419947294438806" lon="18.76954391541373"><ele>540.0</ele><time>2026-05-03T14:13:49Z</time></trkpt><trkpt lat="43.4200700842861" lon="18.769486243806963"><ele>540.0</ele><time>2026-05-03T14:13:50Z</time></trkpt><trkpt lat="43.42019260100489" lon="18.769441686046395"><ele>540.0</ele><time>2026-05-03T14:13:51Z</time></trkpt><trkpt lat="43.420309374221105" lon="18.76940595736842"><ele>540.0</ele><time>2026-05-03T14:13:52Z</time></trkpt><trkpt lat="43.42041828282073" lon="18.76937293260951"><ele>540.0</ele><time>2026-05-03T14:13:53Z</time></trkpt><trkpt lat="43.420521168759" lon="18.76932262635071"><ele>535.8</ele><time>2026-05-03T14:13:54Z</time></trkpt><trkpt lat="43.4206107952007" lon="18.769257743107882"><ele>531.6</ele><time>2026-05-03T14:13:55Z</time></trkpt><trkpt lat="43.42069427092325" lon="18.769196107404035"><ele>527.4</ele><time>2026-05-03T14:13:56Z</time></trkpt><trkpt lat="43.420773183952235" lon="18.769133783630664"><ele>523.2</ele><time>2026-05-03T14:13:57Z</time></trkpt><trkpt lat="43.42086225663719" lon="18.76907242696182"><ele>519.0</ele><time>2026-05-03T14:13:58Z</time></trkpt><trkpt lat="43.42097818858348" lon="18.769028877590195"><ele>519.0</ele><time>2026-05-03T14:13:59Z</time></trkpt><trkpt lat="43.42112233500053" lon="18.768995552367354"><ele>519.0</ele><time>2026-05-03T14:14:00Z</time></trkpt><trkpt lat="43.42126513847466" lon="18.7689708747161"><ele>519.0</ele><time>2026-05-03T14:14:01Z</time></trkpt><trkpt lat="43.421394254867245" lon="18.76893295256595"><ele>519.0</ele><time>2026-05-03T14:14:02Z</time></trkpt><trkpt lat="43.42150145180281" lon="18.76885080818396"><ele>521.0</ele><time>2026-05-03T14:14:03Z</time></trkpt><trkpt lat="43.42158990827073" lon="18.768768959297788"><ele>523.0</ele><time>2026-05-03T14:14:04Z</time></trkpt><trkpt lat="43.421682635324274" lon="18.768726935795165"><ele>525.0</ele><time>2026-05-03T14:14:05Z</time></trkpt><trkpt lat="43.42178561798505" lon="18.768713318139287"><ele>527.0</ele><time>2026-05-03T14:14:06Z</time></trkpt><trkpt lat="43.421886288969816" lon="18.76871911319588"><ele>529.0</ele><time>2026-05-03T14:14:07Z</time></trkpt><trkpt lat="43.42197959960982" lon="18.76873415748291"><ele>529.0</ele><time>2026-05-03T14:14:08Z</time></trkpt><trkpt lat="43.422070090023645" lon="18.768767454338477"><ele>529.0</ele><time>2026-05-03T14:14:09Z</time></trkpt><trkpt lat="43.42215040746043" lon="18.768831098825693"><ele>529.0</ele><time>2026-05-03T14:14:10Z</time></trkpt><trkpt lat="43.422215048209225" lon="18.76892132610655"><ele>529.0</ele><time>2026-05-03T14:14:11Z</time></trkpt><trkpt lat="43.42227031485877" lon="18.76903104800196"><ele>529.0</ele><time>2026-05-03T14:14:12Z</time></trkpt><trkpt lat="43.422329077392185" lon="18.76912906981071"><ele>526.8</ele><time>2026-05-03T14:14:13Z</time></trkpt><trkpt lat="43.42240938750624" lon="18.76920750483912"><ele>524.5999999999999</ele><time>2026-05-03T14:14:14Z</time></trkpt><trkpt lat="43.42250164285182" lon="18.7692527236995"><ele>522.4</ele><time>2026-05-03T14:14:15Z</time></trkpt><trkpt lat="43.42259503521114" lon="18.76925085919409"><ele>520.1999999999999</ele><time>2026-05-03T14:14:16Z</time></trkpt><trkpt lat="43.422685053694785" lon="18.76921247116688"><ele>518.0</ele><time>2026-05-03T14:14:17Z</time></trkpt><trkpt lat="43.42276171974473" lon="18.769143339132338"><ele>518.0</ele><time>2026-05-03T14:14:18Z</time></trkpt><trkpt lat="43.42282387139008" lon="18.769065336834604"><ele>518.0</ele><time>2026-05-03T14:14:19Z</time></trkpt><trkpt lat="43.42289216775212" lon="18.76898217996479"><ele>518.0</ele><time>2026-05-03T14:14:20Z</time></trkpt><trkpt lat="43.42296633421045" lon="18.768903555659957"><ele>518.0</ele><time>2026-05-03T14:14:21Z</time></trkpt><trkpt lat="43.42305094524103" lon="18.76883716264956"><ele>518.0</ele><time>2026-05-03T14:14:22Z</time></trkpt><trkpt lat="43.42314364520271" lon="18.768781546021152"><ele>519.1999999999999</ele><time>2026-05-03T14:14:23Z</time></trkpt><trkpt lat="43.423239862961" lon="18.768729738228156"><ele>520.4</ele><time>2026-05-03T14:14:24Z</time></trkpt><trkpt lat="43.423339742144435" lon="18.768672917071036"><ele>521.5999999999999</ele><time>2026-05-03T14:14:25Z</time></trkpt><trkpt lat="43.42344162816706" lon="18.768619411810185"><ele>522.8</ele><time>2026-05-03T14:14:26Z</time></trkpt><trkpt lat="43.42355077466265" lon="18.768575640315188"><ele>524.0</ele><time>2026-05-03T14:14:27Z</time></trkpt><trkpt lat="43.423657646369136" lon="18.768525150385187"><ele>523.2</ele><time>2026-05-03T14:14:28Z</time></trkpt><trkpt lat="43.42375628020332" lon="18.76846080416288"><ele>522.4</ele><time>2026-05-03T14:14:29Z</time></trkpt><trkpt lat="43.42384802111918" lon="18.768378171196186"><ele>521.6</ele><time>2026-05-03T14:14:30Z</time></trkpt><trkpt lat="43.42393639390544" lon="18.768285790533493"><ele>520.8</ele><time>2026-05-03T14:14:31Z</time></trkpt><trkpt lat="43.424014381513786" lon="18.768199947196127"><ele>520.0</ele><time>2026-05-03T14:14:32Z</time></trkpt><trkpt lat="43.42408916223834" lon="18.76812011780635"><ele>520.0</ele><time>2026-05-03T14:14:33Z</time></trkpt><trkpt lat="43.42416455246125" lon="18.768051104982533"><ele>520.0</ele><time>2026-05-03T14:14:34Z</time></trkpt><trkpt lat="43.42422941968111" lon="18.767995311939853"><ele>520.0</ele><time>2026-05-03T14:14:35Z</time></trkpt><trkpt lat="43.42431106642443" lon="18.767936232195623"><ele>520.0</ele><time>2026-05-03T14:14:37Z</time></trkpt><trkpt lat="43.42440049622285" lon="18.76786362456734"><ele>520.0</ele><time>2026-05-03T14:14:39Z</time></trkpt><trkpt lat="43.42446128899223" lon="18.76782001813595"><ele>520.0</ele><time>2026-05-03T14:14:40Z</time></trkpt><trkpt lat="43.42452116610823" lon="18.767785233663492"><ele>520.0</ele><time>2026-05-03T14:14:41Z</time></trkpt><trkpt lat="43.42458624182807" lon="18.76774891755926"><ele>520.0</ele><time>2026-05-03T14:14:42Z</time></trkpt><trkpt lat="43.42464861459759" lon="18.767713389200605"><ele>520.0</ele><time>2026-05-03T14:14:43Z</time></trkpt><trkpt lat="43.42472376823156" lon="18.76768008613404"><ele>520.0</ele><time>2026-05-03T14:14:44Z</time></trkpt><trkpt lat="43.424805474880905" lon="18.767653340308048"><ele>520.0</ele><time>2026-05-03T14:14:45Z</time></trkpt><trkpt lat="43.42489067391236" lon="18.767623656430963"><ele>520.0</ele><time>2026-05-03T14:14:46Z</time></trkpt><trkpt lat="43.42497377346158" lon="18.767590098839932"><ele>516.3333333333334</ele><time>2026-05-03T14:14:47Z</time></trkpt><trkpt lat="43.425057195948185" lon="18.76755566923481"><ele>512.6666666666667</ele><time>2026-05-03T14:14:48Z</time></trkpt><trkpt lat="43.42513775519565" lon="18.767514688260736"><ele>509.0</ele><time>2026-05-03T14:14:49Z</time></trkpt><trkpt lat="43.42521520273768" lon="18.7674643760873"><ele>505.33333333333337</ele><time>2026-05-03T14:14:50Z</time></trkpt><trkpt lat="43.425287961528674" lon="18.767415082834248"><ele>501.6666666666667</ele><time>2026-05-03T14:14:51Z</time></trkpt><trkpt lat="43.42536095849768" lon="18.767378228781467"><ele>498.0</ele><time>2026-05-03T14:14:52Z</time></trkpt><trkpt lat="43.42543961475807" lon="18.767365705648317"><ele>499.1666666666667</ele><time>2026-05-03T14:14:53Z</time></trkpt><trkpt lat="43.42552265068369" lon="18.76736677527585"><ele>500.33333333333337</ele><time>2026-05-03T14:14:54Z</time></trkpt><trkpt lat="43.42560849295146" lon="18.767364554913673"><ele>501.5</ele><time>2026-05-03T14:14:55Z</time></trkpt><trkpt lat="43.425694986549104" lon="18.76736067730472"><ele>502.6666666666667</ele><time>2026-05-03T14:14:56Z</time></trkpt><trkpt lat="43.42578570453351" lon="18.76735833263702"><ele>503.83333333333337</ele><time>2026-05-03T14:14:57Z</time></trkpt><trkpt lat="43.425871791018984" lon="18.767360368345695"><ele>505.0</ele><time>2026-05-03T14:14:58Z</time></trkpt><trkpt lat="43.425962483965826" lon="18.76735694819298"><ele>505.0</ele><time>2026-05-03T14:14:59Z</time></trkpt><trkpt lat="43.42606596663218" lon="18.767347036375714"><ele>505.0</ele><time>2026-05-03T14:15:00Z</time></trkpt><trkpt lat="43.42616927511579" lon="18.76733972575264"><ele>505.0</ele><time>2026-05-03T14:15:01Z</time></trkpt><trkpt lat="43.42627352654119" lon="18.767334713663782"><ele>505.0</ele><time>2026-05-03T14:15:02Z</time></trkpt><trkpt lat="43.42637596122896" lon="18.767341550906945"><ele>505.0</ele><time>2026-05-03T14:15:03Z</time></trkpt><trkpt lat="43.426482034786574" lon="18.767352840850968"><ele>505.2</ele><time>2026-05-03T14:15:04Z</time></trkpt><trkpt lat="43.42658310929917" lon="18.767368286964146"><ele>505.4</ele><time>2026-05-03T14:15:05Z</time></trkpt><trkpt lat="43.42668272375643" lon="18.767392112760266"><ele>505.6</ele><time>2026-05-03T14:15:06Z</time></trkpt><trkpt lat="43.426783879668676" lon="18.767418040952148"><ele>505.8</ele><time>2026-05-03T14:15:07Z</time></trkpt><trkpt lat="43.42688552965807" lon="18.767444285918042"><ele>506.0</ele><time>2026-05-03T14:15:08Z</time></trkpt><trkpt lat="43.426983313062095" lon="18.76746402402808"><ele>506.0</ele><time>2026-05-03T14:15:09Z</time></trkpt><trkpt lat="43.42708419375297" lon="18.76748332346759"><ele>506.0</ele><time>2026-05-03T14:15:10Z</time></trkpt><trkpt lat="43.427187303484764" lon="18.767510614470467"><ele>506.0</ele><time>2026-05-03T14:15:11Z</time></trkpt><trkpt lat="43.42728795119" lon="18.767542630410432"><ele>506.0</ele><time>2026-05-03T14:15:12Z</time></trkpt><trkpt lat="43.42739184922591" lon="18.767568044188746"><ele>506.0</ele><time>2026-05-03T14:15:13Z</time></trkpt><trkpt lat="43.42750137494187" lon="18.767568728780383"><ele>505.25</ele><time>2026-05-03T14:15:14Z</time></trkpt><trkpt lat="43.42761111442379" lon="18.76753475634337"><ele>504.5</ele><time>2026-05-03T14:15:15Z</time></trkpt><trkpt lat="43.42772082977548" lon="18.76752130893512"><ele>503.75</ele><time>2026-05-03T14:15:16Z</time></trkpt><trkpt lat="43.42783108990906" lon="18.767547429788134"><ele>503.0</ele><time>2026-05-03T14:15:17Z</time></trkpt><trkpt lat="43.42795094273323" lon="18.767592323909046"><ele>502.2</ele><time>2026-05-03T14:15:18Z</time></trkpt><trkpt lat="43.428071802395834" lon="18.767633873112818"><ele>501.4</ele><time>2026-05-03T14:15:19Z</time></trkpt><trkpt lat="43.42818688623257" lon="18.76764076515434"><ele>500.59999999999997</ele><time>2026-05-03T14:15:20Z</time></trkpt><trkpt lat="43.42828710430719" lon="18.76765004623453"><ele>499.79999999999995</ele><time>2026-05-03T14:15:21Z</time></trkpt><trkpt lat="43.428385997874265" lon="18.76768376938217"><ele>499.0</ele><time>2026-05-03T14:15:22Z</time></trkpt><trkpt lat="43.428480877925836" lon="18.767738440235057"><ele>505.75</ele><time>2026-05-03T14:15:23Z</time></trkpt><trkpt lat="43.42857672121881" lon="18.76780896518941"><ele>512.5</ele><time>2026-05-03T14:15:24Z</time></trkpt><trkpt lat="43.428698706696174" lon="18.767873251858816"><ele>519.25</ele><time>2026-05-03T14:15:25Z</time></trkpt><trkpt lat="43.42882984480677" lon="18.7678797420989"><ele>526.0</ele><time>2026-05-03T14:15:26Z</time></trkpt><trkpt lat="43.428945850228914" lon="18.767848836668218"><ele>526.0</ele><time>2026-05-03T14:15:27Z</time></trkpt><trkpt lat="43.42904766742159" lon="18.767811720534123"><ele>526.0</ele><time>2026-05-03T14:15:28Z</time></trkpt><trkpt lat="43.429140724539444" lon="18.767772355408166"><ele>526.0</ele><time>2026-05-03T14:15:29Z</time></trkpt><trkpt lat="43.42922571787913" lon="18.7677089984866"><ele>526.0</ele><time>2026-05-03T14:15:30Z</time></trkpt><trkpt lat="43.4292897452991" lon="18.76763458310681"><ele>526.0</ele><time>2026-05-03T14:15:31Z</time></trkpt><trkpt lat="43.42934235422086" lon="18.767569102876426"><ele>523.3333333333334</ele><time>2026-05-03T14:15:32Z</time></trkpt><trkpt lat="43.42939550872085" lon="18.767513949529558"><ele>520.6666666666667</ele><time>2026-05-03T14:15:33Z</time></trkpt><trkpt lat="43.429452452529254" lon="18.767475405067042"><ele>518.0</ele><time>2026-05-03T14:15:34Z</time></trkpt><trkpt lat="43.42951612684613" lon="18.76744957849382"><ele>515.3333333333334</ele><time>2026-05-03T14:15:35Z</time></trkpt><trkpt lat="43.42958154813263" lon="18.76744809806538"><ele>512.6666666666666</ele><time>2026-05-03T14:15:36Z</time></trkpt><trkpt lat="43.42968103013088" lon="18.76750435476288"><ele>510.0</ele><time>2026-05-03T14:15:38Z</time></trkpt><trkpt lat="43.4297843830043" lon="18.767568075262083"><ele>510.0</ele><time>2026-05-03T14:15:40Z</time></trkpt><trkpt lat="43.42989095232964" lon="18.767633076894914"><ele>510.0</ele><time>2026-05-03T14:15:42Z</time></trkpt><trkpt lat="43.429988924876824" lon="18.767684310485276"><ele>510.0</ele><time>2026-05-03T14:15:44Z</time></trkpt><trkpt lat="43.43007635057169" lon="18.767710046575484"><ele>510.0</ele><time>2026-05-03T14:15:46Z</time></trkpt><trkpt lat="43.43015897070423" lon="18.767643171843993"><ele>510.0</ele><time>2026-05-03T14:15:48Z</time></trkpt><trkpt lat="43.43023577680784" lon="18.76754958493094"><ele>510.0</ele><time>2026-05-03T14:15:50Z</time></trkpt><trkpt lat="43.430306067927845" lon="18.767447127884452"><ele>510.0</ele><time>2026-05-03T14:15:52Z</time></trkpt><trkpt lat="43.430382408727716" lon="18.76736731590708"><ele>510.0</ele><time>2026-05-03T14:15:54Z</time></trkpt><trkpt lat="43.43045466766221" lon="18.7672802768428"><ele>510.0</ele><time>2026-05-03T14:15:56Z</time></trkpt><trkpt lat="43.43051328048671" lon="18.76718835010871"><ele>510.0</ele><time>2026-05-03T14:15:58Z</time></trkpt><trkpt lat="43.430555412129195" lon="18.767122081558977"><ele>510.0</ele><time>2026-05-03T14:16:01Z</time></trkpt><trkpt lat="43.430598878773516" lon="18.767047634540447"><ele>510.5</ele><time>2026-05-03T14:16:05Z</time></trkpt><trkpt lat="43.43066933588454" lon="18.76696267021657"><ele>511.0</ele><time>2026-05-03T14:16:08Z</time></trkpt><trkpt lat="43.43074199904371" lon="18.76693021064713"><ele>511.5</ele><time>2026-05-03T14:16:10Z</time></trkpt><trkpt lat="43.43081501249628" lon="18.766894021156382"><ele>512.0</ele><time>2026-05-03T14:16:12Z</time></trkpt><trkpt lat="43.43088955056353" lon="18.766867128214226"><ele>512.5</ele><time>2026-05-03T14:16:14Z</time></trkpt><trkpt lat="43.43097378660269" lon="18.766879076244496"><ele>513.0</ele><time>2026-05-03T14:16:16Z</time></trkpt><trkpt lat="43.43107297529105" lon="18.76689429923127"><ele>513.0</ele><time>2026-05-03T14:16:18Z</time></trkpt><trkpt lat="43.43118140153296" lon="18.76691070030066"><ele>513.0</ele><time>2026-05-03T14:16:20Z</time></trkpt><trkpt lat="43.43129455785971" lon="18.766907234030707"><ele>513.0</ele><time>2026-05-03T14:16:22Z</time></trkpt><trkpt lat="43.43141301358035" lon="18.766867560710427"><ele>513.0</ele><time>2026-05-03T14:16:24Z</time></trkpt><trkpt lat="43.43147131739258" lon="18.766828142703588"><ele>513.0</ele><time>2026-05-03T14:16:25Z</time></trkpt><trkpt lat="43.4315571823918" lon="18.76670568816367"><ele>511.0</ele><time>2026-05-03T14:16:27Z</time></trkpt><trkpt lat="43.431630695073935" lon="18.766567192204338"><ele>508.99999999999994</ele><time>2026-05-03T14:16:29Z</time></trkpt><trkpt lat="43.431678988683494" lon="18.766496475241382"><ele>506.99999999999994</ele><time>2026-05-03T14:16:30Z</time></trkpt><trkpt lat="43.431738170840724" lon="18.766425671388912"><ele>505.0</ele><time>2026-05-03T14:16:31Z</time></trkpt><trkpt lat="43.43181015411506" lon="18.766359085342245"><ele>503.0</ele><time>2026-05-03T14:16:32Z</time></trkpt><trkpt lat="43.431899052472104" lon="18.76632478059909"><ele>502.99999999999994</ele><time>2026-05-03T14:16:33Z</time></trkpt><trkpt lat="43.43198549366807" lon="18.766336622606104"><ele>503.0</ele><time>2026-05-03T14:16:34Z</time></trkpt><trkpt lat="43.43206183060794" lon="18.766357446607046"><ele>503.0</ele><time>2026-05-03T14:16:35Z</time></trkpt><trkpt lat="43.43214062549875" lon="18.7663888278791"><ele>503.0</ele><time>2026-05-03T14:16:36Z</time></trkpt><trkpt lat="43.43221140210807" lon="18.76641311523569"><ele>502.99999999999994</ele><time>2026-05-03T14:16:37Z</time></trkpt><trkpt lat="43.432283636460575" lon="18.76642677060913"><ele>503.0</ele><time>2026-05-03T14:16:38Z</time></trkpt><trkpt lat="43.432351587221554" lon="18.76642024830631"><ele>504.42857142857144</ele><time>2026-05-03T14:16:39Z</time></trkpt><trkpt lat="43.43241307325478" lon="18.766386018845346"><ele>505.8571428571429</ele><time>2026-05-03T14:16:40Z</time></trkpt><trkpt lat="43.43247468945654" lon="18.766333239099424"><ele>507.28571428571433</ele><time>2026-05-03T14:16:41Z</time></trkpt><trkpt lat="43.43253555114239" lon="18.766289255932435"><ele>508.7142857142858</ele><time>2026-05-03T14:16:42Z</time></trkpt><trkpt lat="43.432600548871" lon="18.766241681358476"><ele>510.14285714285717</ele><time>2026-05-03T14:16:43Z</time></trkpt><trkpt lat="43.43266830980264" lon="18.766193427659854"><ele>511.57142857142867</ele><time>2026-05-03T14:16:44Z</time></trkpt><trkpt lat="43.43275100156227" lon="18.7661775290174"><ele>513.0</ele><time>2026-05-03T14:16:45Z</time></trkpt><trkpt lat="43.43281871580082" lon="18.766126428048953"><ele>513.0</ele><time>2026-05-03T14:16:46Z</time></trkpt><trkpt lat="43.4328795876814" lon="18.766056510734014"><ele>513.0</ele><time>2026-05-03T14:16:47Z</time></trkpt><trkpt lat="43.432953889765415" lon="18.766015266974055"><ele>513.0</ele><time>2026-05-03T14:16:48Z</time></trkpt><trkpt lat="43.433020005423415" lon="18.765960487103126"><ele>513.0</ele><time>2026-05-03T14:16:49Z</time></trkpt><trkpt lat="43.43308525936324" lon="18.76590736419104"><ele>513.0</ele><time>2026-05-03T14:16:50Z</time></trkpt><trkpt lat="43.43315055968909" lon="18.76584966803486"><ele>513.0</ele><time>2026-05-03T14:16:51Z</time></trkpt><trkpt lat="43.43321291515713" lon="18.765788085425367"><ele>510.25</ele><time>2026-05-03T14:16:52Z</time></trkpt><trkpt lat="43.433287369585344" lon="18.76570591137799"><ele>507.5</ele><time>2026-05-03T14:16:53Z</time></trkpt><trkpt lat="43.43338299040149" lon="18.76559968343133"><ele>504.75</ele><time>2026-05-03T14:16:54Z</time></trkpt><trkpt lat="43.43348051274065" lon="18.765466778697387"><ele>502.0</ele><time>2026-05-03T14:16:55Z</time></trkpt><trkpt lat="43.433587682731634" lon="18.765321160271494"><ele>500.33333333333337</ele><time>2026-05-03T14:16:56Z</time></trkpt><trkpt lat="43.433697238008904" lon="18.765185065054325"><ele>498.66666666666663</ele><time>2026-05-03T14:16:57Z</time></trkpt><trkpt lat="43.43382026543393" lon="18.765032307831177"><ele>497.0</ele><time>2026-05-03T14:16:58Z</time></trkpt><trkpt lat="43.43395029440803" lon="18.7648763334709"><ele>497.0</ele><time>2026-05-03T14:16:59Z</time></trkpt><trkpt lat="43.43409754260234" lon="18.7647502508706"><ele>497.0</ele><time>2026-05-03T14:17:00Z</time></trkpt><trkpt lat="43.43424600658857" lon="18.764621753003308"><ele>497.0</ele><time>2026-05-03T14:17:01Z</time></trkpt><trkpt lat="43.43440399612834" lon="18.764543048660723"><ele>497.0</ele><time>2026-05-03T14:17:02Z</time></trkpt><trkpt lat="43.43454241358661" lon="18.764469449601616"><ele>497.0</ele><time>2026-05-03T14:17:03Z</time></trkpt><trkpt lat="43.434659822070614" lon="18.764437319892544"><ele>497.0</ele><time>2026-05-03T14:17:04Z</time></trkpt><trkpt lat="43.434767012890894" lon="18.764409197585845"><ele>497.0</ele><time>2026-05-03T14:17:05Z</time></trkpt><trkpt lat="43.43487049295142" lon="18.764381798921193"><ele>496.6</ele><time>2026-05-03T14:17:06Z</time></trkpt><trkpt lat="43.43495875601655" lon="18.764372639104632"><ele>496.20000000000005</ele><time>2026-05-03T14:17:07Z</time></trkpt><trkpt lat="43.43505050701905" lon="18.764365381353418"><ele>495.8</ele><time>2026-05-03T14:17:08Z</time></trkpt><trkpt lat="43.4351475893079" lon="18.76435793193924"><ele>495.4</ele><time>2026-05-03T14:17:09Z</time></trkpt><trkpt lat="43.435249445938354" lon="18.764333128946635"><ele>495.0</ele><time>2026-05-03T14:17:10Z</time></trkpt><trkpt lat="43.435361718115395" lon="18.764333391042783"><ele>490.0</ele><time>2026-05-03T14:17:11Z</time></trkpt><trkpt lat="43.435483549448335" lon="18.76432614457593"><ele>485.0</ele><time>2026-05-03T14:17:12Z</time></trkpt><trkpt lat="43.43560245467407" lon="18.764322812119623"><ele>480.0</ele><time>2026-05-03T14:17:13Z</time></trkpt><trkpt lat="43.43572476740287" lon="18.764312027562465"><ele>475.0</ele><time>2026-05-03T14:17:14Z</time></trkpt><trkpt lat="43.43585122685545" lon="18.76428848296922"><ele>475.0</ele><time>2026-05-03T14:17:15Z</time></trkpt><trkpt lat="43.435980590561506" lon="18.76424992012609"><ele>475.0</ele><time>2026-05-03T14:17:16Z</time></trkpt><trkpt lat="43.43611511057202" lon="18.7641945936964"><ele>475.0</ele><time>2026-05-03T14:17:17Z</time></trkpt><trkpt lat="43.43625791797897" lon="18.764126656386892"><ele>475.0</ele><time>2026-05-03T14:17:18Z</time></trkpt><trkpt lat="43.4364075843435" lon="18.76404370099134"><ele>475.6666666666667</ele><time>2026-05-03T14:17:19Z</time></trkpt><trkpt lat="43.43655417095168" lon="18.763956392032437"><ele>476.33333333333337</ele><time>2026-05-03T14:17:20Z</time></trkpt><trkpt lat="43.436710929186255" lon="18.763865899185458"><ele>477.0</ele><time>2026-05-03T14:17:21Z</time></trkpt><trkpt lat="43.436862056039566" lon="18.763776137126836"><ele>477.0</ele><time>2026-05-03T14:17:22Z</time></trkpt><trkpt lat="43.437009815765684" lon="18.763691613724887"><ele>477.0</ele><time>2026-05-03T14:17:23Z</time></trkpt><trkpt lat="43.43714653376338" lon="18.763612014363627"><ele>477.0</ele><time>2026-05-03T14:17:24Z</time></trkpt><trkpt lat="43.437272846609865" lon="18.76354379258809"><ele>477.0</ele><time>2026-05-03T14:17:25Z</time></trkpt><trkpt lat="43.43739989100631" lon="18.763476277230243"><ele>476.5</ele><time>2026-05-03T14:17:26Z</time></trkpt><trkpt lat="43.437514255994145" lon="18.76344864261336"><ele>476.0</ele><time>2026-05-03T14:17:27Z</time></trkpt><trkpt lat="43.43764097477047" lon="18.763468213140698"><ele>475.5</ele><time>2026-05-03T14:17:28Z</time></trkpt><trkpt lat="43.437745153544384" lon="18.763567984909205"><ele>475.0</ele><time>2026-05-03T14:17:29Z</time></trkpt><trkpt lat="43.437837288394725" lon="18.763684439452117"><ele>475.0</ele><time>2026-05-03T14:17:30Z</time></trkpt><trkpt lat="43.43795227134121" lon="18.763730125419187"><ele>475.0</ele><time>2026-05-03T14:17:31Z</time></trkpt><trkpt lat="43.43807792958324" lon="18.763713366921575"><ele>475.0</ele><time>2026-05-03T14:17:32Z</time></trkpt><trkpt lat="43.43819982036131" lon="18.763642834469795"><ele>475.0</ele><time>2026-05-03T14:17:33Z</time></trkpt><trkpt lat="43.438313194965545" lon="18.76354264095262"><ele>470.75</ele><time>2026-05-03T14:17:34Z</time></trkpt><trkpt lat="43.43840293567712" lon="18.763411507724832"><ele>466.5</ele><time>2026-05-03T14:17:35Z</time></trkpt><trkpt lat="43.43847806558105" lon="18.76325433936459"><ele>462.25</ele><time>2026-05-03T14:17:36Z</time></trkpt><trkpt lat="43.43856318923003" lon="18.763117742132444"><ele>458.0</ele><time>2026-05-03T14:17:37Z</time></trkpt><trkpt lat="43.43866676943044" lon="18.76301945209154"><ele>458.0</ele><time>2026-05-03T14:17:38Z</time></trkpt><trkpt lat="43.43878441956201" lon="18.762968768119553"><ele>458.0</ele><time>2026-05-03T14:17:39Z</time></trkpt><trkpt lat="43.438903860851546" lon="18.76295565310605"><ele>458.0</ele><time>2026-05-03T14:17:40Z</time></trkpt><trkpt lat="43.439024959923714" lon="18.76296144941243"><ele>458.0</ele><time>2026-05-03T14:17:41Z</time></trkpt><trkpt lat="43.4391367817614" lon="18.762951667191288"><ele>458.49999999999994</ele><time>2026-05-03T14:17:42Z</time></trkpt><trkpt lat="43.43923776127944" lon="18.7629239431195"><ele>459.0</ele><time>2026-05-03T14:17:43Z</time></trkpt><trkpt lat="43.43932659749038" lon="18.76288168092517"><ele>459.5</ele><time>2026-05-03T14:17:44Z</time></trkpt><trkpt lat="43.439404488883476" lon="18.762847462115836"><ele>460.0</ele><time>2026-05-03T14:17:45Z</time></trkpt><trkpt lat="43.43948138220981" lon="18.762818866024205"><ele>460.49999999999994</ele><time>2026-05-03T14:17:46Z</time></trkpt><trkpt lat="43.43955904375364" lon="18.76280498903322"><ele>461.0</ele><time>2026-05-03T14:17:47Z</time></trkpt><trkpt lat="43.439649427316816" lon="18.762772798365766"><ele>461.0</ele><time>2026-05-03T14:17:48Z</time></trkpt><trkpt lat="43.43973951642766" lon="18.762714697008217"><ele>461.0</ele><time>2026-05-03T14:17:49Z</time></trkpt><trkpt lat="43.43980442021024" lon="18.762647578330387"><ele>461.0</ele><time>2026-05-03T14:17:50Z</time></trkpt><trkpt lat="43.43987230680072" lon="18.762565140801307"><ele>461.0</ele><time>2026-05-03T14:17:51Z</time></trkpt><trkpt lat="43.43993933759764" lon="18.7624677158499"><ele>461.0</ele><time>2026-05-03T14:17:52Z</time></trkpt><trkpt lat="43.44000345196238" lon="18.762354545814922"><ele>458.25</ele><time>2026-05-03T14:17:53Z</time></trkpt><trkpt lat="43.4400622512534" lon="18.7622223346577"><ele>455.5</ele><time>2026-05-03T14:17:54Z</time></trkpt><trkpt lat="43.44011880832269" lon="18.762072667980103"><ele>452.75</ele><time>2026-05-03T14:17:55Z</time></trkpt><trkpt lat="43.44016238903227" lon="18.761903550261273"><ele>450.0</ele><time>2026-05-03T14:17:56Z</time></trkpt><trkpt lat="43.44020145643207" lon="18.76173077545991"><ele>450.0</ele><time>2026-05-03T14:17:57Z</time></trkpt><trkpt lat="43.44023646453596" lon="18.761546338765747"><ele>450.0</ele><time>2026-05-03T14:17:58Z</time></trkpt><trkpt lat="43.440269546803904" lon="18.761366443461636"><ele>450.0</ele><time>2026-05-03T14:17:59Z</time></trkpt><trkpt lat="43.440309943500445" lon="18.761194544390634"><ele>450.0</ele><time>2026-05-03T14:18:00Z</time></trkpt><trkpt lat="43.44036477728602" lon="18.76102819293861"><ele>449.25</ele><time>2026-05-03T14:18:01Z</time></trkpt><trkpt lat="43.440439772215704" lon="18.760869454067375"><ele>448.5</ele><time>2026-05-03T14:18:02Z</time></trkpt><trkpt lat="43.4405326034045" lon="18.760726054631103"><ele>447.75</ele><time>2026-05-03T14:18:03Z</time></trkpt><trkpt lat="43.440655190563206" lon="18.760602095512876"><ele>447.0</ele><time>2026-05-03T14:18:04Z</time></trkpt><trkpt lat="43.44080572867538" lon="18.76049203291698"><ele>450.33333333333337</ele><time>2026-05-03T14:18:05Z</time></trkpt><trkpt lat="43.44098185219024" lon="18.760369115229967"><ele>453.6666666666667</ele><time>2026-05-03T14:18:06Z</time></trkpt><trkpt lat="43.44116310162718" lon="18.760220719303614"><ele>457.0</ele><time>2026-05-03T14:18:07Z</time></trkpt><trkpt lat="43.441361093028846" lon="18.76005896253329"><ele>457.0</ele><time>2026-05-03T14:18:08Z</time></trkpt><trkpt lat="43.44158541087603" lon="18.759874684484377"><ele>457.0</ele><time>2026-05-03T14:18:09Z</time></trkpt><trkpt lat="43.44183442863922" lon="18.759672662918756"><ele>457.0</ele><time>2026-05-03T14:18:10Z</time></trkpt><trkpt lat="43.44208828947103" lon="18.75946161827486"><ele>457.0</ele><time>2026-05-03T14:18:11Z</time></trkpt><trkpt lat="43.44233288695379" lon="18.759262440792686"><ele>453.0</ele><time>2026-05-03T14:18:12Z</time></trkpt><trkpt lat="43.44257476452608" lon="18.759058383835665"><ele>449.0</ele><time>2026-05-03T14:18:13Z</time></trkpt><trkpt lat="43.44282144387723" lon="18.75885476692414"><ele>446.5</ele><time>2026-05-03T14:18:14Z</time></trkpt><trkpt lat="43.443069464895075" lon="18.75864040948517"><ele>444.0</ele><time>2026-05-03T14:18:15Z</time></trkpt><trkpt lat="43.44331835073357" lon="18.758421131043967"><ele>444.0</ele><time>2026-05-03T14:18:16Z</time></trkpt><trkpt lat="43.44356787595006" lon="18.758196408632916"><ele>444.0</ele><time>2026-05-03T14:18:17Z</time></trkpt><trkpt lat="43.443809299119096" lon="18.757976612269516"><ele>441.0</ele><time>2026-05-03T14:18:18Z</time></trkpt><trkpt lat="43.444048926030916" lon="18.757755030075298"><ele>438.0</ele><time>2026-05-03T14:18:19Z</time></trkpt><trkpt lat="43.44428693010663" lon="18.757534516937145"><ele>438.0</ele><time>2026-05-03T14:18:20Z</time></trkpt><trkpt lat="43.44452371686437" lon="18.757314986852535"><ele>438.0</ele><time>2026-05-03T14:18:21Z</time></trkpt><trkpt lat="43.44475891752251" lon="18.757095538704444"><ele>435.0</ele><time>2026-05-03T14:18:22Z</time></trkpt><trkpt lat="43.44498937930018" lon="18.756884162775876"><ele>432.0</ele><time>2026-05-03T14:18:23Z</time></trkpt><trkpt lat="43.44520315171888" lon="18.756691351024056"><ele>432.0</ele><time>2026-05-03T14:18:24Z</time></trkpt><trkpt lat="43.44540444098604" lon="18.75651138020266"><ele>432.0</ele><time>2026-05-03T14:18:25Z</time></trkpt><trkpt lat="43.44560524952058" lon="18.756356342922146"><ele>428.66666666666663</ele><time>2026-05-03T14:18:26Z</time></trkpt><trkpt lat="43.44580369133825" lon="18.756216883224944"><ele>425.3333333333333</ele><time>2026-05-03T14:18:27Z</time></trkpt><trkpt lat="43.44600760338321" lon="18.7560938343333"><ele>422.0</ele><time>2026-05-03T14:18:28Z</time></trkpt><trkpt lat="43.44621237648229" lon="18.755984607326308"><ele>426.0</ele><time>2026-05-03T14:18:29Z</time></trkpt><trkpt lat="43.44642556060076" lon="18.755889435322487"><ele>430.0</ele><time>2026-05-03T14:18:30Z</time></trkpt><trkpt lat="43.44664100279593" lon="18.755808500416407"><ele>434.0</ele><time>2026-05-03T14:18:31Z</time></trkpt><trkpt lat="43.44687324902693" lon="18.755733468632048"><ele>434.0</ele><time>2026-05-03T14:18:32Z</time></trkpt><trkpt lat="43.44711942307882" lon="18.75568062535041"><ele>434.0</ele><time>2026-05-03T14:18:33Z</time></trkpt><trkpt lat="43.44737844550729" lon="18.755631608287626"><ele>436.0</ele><time>2026-05-03T14:18:34Z</time></trkpt><trkpt lat="43.44764045900082" lon="18.755591061281745"><ele>438.0</ele><time>2026-05-03T14:18:35Z</time></trkpt><trkpt lat="43.44790352014264" lon="18.755553567636"><ele>439.5</ele><time>2026-05-03T14:18:36Z</time></trkpt><trkpt lat="43.448166872606976" lon="18.755511391080066"><ele>441.0</ele><time>2026-05-03T14:18:37Z</time></trkpt><trkpt lat="43.448430803322594" lon="18.755478753857425"><ele>441.0</ele><time>2026-05-03T14:18:38Z</time></trkpt><trkpt lat="43.44868665823965" lon="18.755471323880474"><ele>441.0</ele><time>2026-05-03T14:18:39Z</time></trkpt><trkpt lat="43.448942511798684" lon="18.755485674095773"><ele>442.0</ele><time>2026-05-03T14:18:40Z</time></trkpt><trkpt lat="43.44919499661028" lon="18.75551144553748"><ele>443.0</ele><time>2026-05-03T14:18:41Z</time></trkpt><trkpt lat="43.44944267458935" lon="18.75554010224996"><ele>438.0</ele><time>2026-05-03T14:18:42Z</time></trkpt><trkpt lat="43.44968207246494" lon="18.7555673194761"><ele>433.0</ele><time>2026-05-03T14:18:43Z</time></trkpt><trkpt lat="43.44991627664363" lon="18.755580111867754"><ele>433.0</ele><time>2026-05-03T14:18:44Z</time></trkpt><trkpt lat="43.45015073294657" lon="18.755566133175172"><ele>433.0</ele><time>2026-05-03T14:18:45Z</time></trkpt><trkpt lat="43.450381867372236" lon="18.755513418281296"><ele>438.5</ele><time>2026-05-03T14:18:46Z</time></trkpt><trkpt lat="43.45060932857378" lon="18.75542511666648"><ele>444.0</ele><time>2026-05-03T14:18:47Z</time></trkpt><trkpt lat="43.450840904007826" lon="18.755319287902626"><ele>433.0</ele><time>2026-05-03T14:18:48Z</time></trkpt><trkpt lat="43.451065893211" lon="18.755187367875337"><ele>422.0</ele><time>2026-05-03T14:18:49Z</time></trkpt><trkpt lat="43.45127833960477" lon="18.75503606531879"><ele>426.66666666666663</ele><time>2026-05-03T14:18:50Z</time></trkpt><trkpt lat="43.45145960296856" lon="18.75488314799733"><ele>431.33333333333337</ele><time>2026-05-03T14:18:51Z</time></trkpt><trkpt lat="43.45163008721908" lon="18.75473738865749"><ele>436.0</ele><time>2026-05-03T14:18:52Z</time></trkpt><trkpt lat="43.451809650532496" lon="18.75459870048942"><ele>436.0</ele><time>2026-05-03T14:18:53Z</time></trkpt><trkpt lat="43.451997062648694" lon="18.754479766290608"><ele>436.0</ele><time>2026-05-03T14:18:54Z</time></trkpt><trkpt lat="43.452192359851026" lon="18.754365745998896"><ele>436.0</ele><time>2026-05-03T14:18:55Z</time></trkpt><trkpt lat="43.452396824145026" lon="18.754256247849003"><ele>438.0</ele><time>2026-05-03T14:18:56Z</time></trkpt><trkpt lat="43.452608211271595" lon="18.754152145854484"><ele>440.0</ele><time>2026-05-03T14:18:57Z</time></trkpt><trkpt lat="43.452815491577326" lon="18.75403696146733"><ele>442.0</ele><time>2026-05-03T14:18:58Z</time></trkpt><trkpt lat="43.453013065810765" lon="18.753902195323203"><ele>442.0</ele><time>2026-05-03T14:18:59Z</time></trkpt><trkpt lat="43.45320306604823" lon="18.753742642898203"><ele>442.0</ele><time>2026-05-03T14:19:00Z</time></trkpt><trkpt lat="43.45338163536064" lon="18.75356129666938"><ele>442.0</ele><time>2026-05-03T14:19:01Z</time></trkpt><trkpt lat="43.45354152740421" lon="18.75336296339827"><ele>444.33333333333337</ele><time>2026-05-03T14:19:02Z</time></trkpt><trkpt lat="43.4536705035933" lon="18.753158480641076"><ele>446.66666666666663</ele><time>2026-05-03T14:19:03Z</time></trkpt><trkpt lat="43.45378278399591" lon="18.75295564579813"><ele>449.0</ele><time>2026-05-03T14:19:04Z</time></trkpt><trkpt lat="43.45388619534251" lon="18.752768048300428"><ele>443.0</ele><time>2026-05-03T14:19:05Z</time></trkpt><trkpt lat="43.45398797776091" lon="18.75259560550185"><ele>437.0</ele><time>2026-05-03T14:19:06Z</time></trkpt><trkpt lat="43.454086857699686" lon="18.752433911037443"><ele>431.0</ele><time>2026-05-03T14:19:07Z</time></trkpt><trkpt lat="43.454187833507504" lon="18.752300408486676"><ele>431.0</ele><time>2026-05-03T14:19:08Z</time></trkpt><trkpt lat="43.45430374140202" lon="18.752162273413802"><ele>431.0</ele><time>2026-05-03T14:19:09Z</time></trkpt><trkpt lat="43.45443639373767" lon="18.75202581534475"><ele>431.0</ele><time>2026-05-03T14:19:10Z</time></trkpt><trkpt lat="43.45458173446159" lon="18.751909984211558"><ele>432.3333333333333</ele><time>2026-05-03T14:19:11Z</time></trkpt><trkpt lat="43.45472999408191" lon="18.75180901805382"><ele>433.66666666666663</ele><time>2026-05-03T14:19:12Z</time></trkpt><trkpt lat="43.45486936285923" lon="18.75170991915616"><ele>435.0</ele><time>2026-05-03T14:19:13Z</time></trkpt><trkpt lat="43.45500054408624" lon="18.75159417891848"><ele>435.0</ele><time>2026-05-03T14:19:14Z</time></trkpt><trkpt lat="43.45512797644085" lon="18.751440375486474"><ele>435.0</ele><time>2026-05-03T14:19:15Z</time></trkpt><trkpt lat="43.455240794284585" lon="18.751248024681054"><ele>435.0</ele><time>2026-05-03T14:19:16Z</time></trkpt><trkpt lat="43.455341227026175" lon="18.75105330357086"><ele>439.0</ele><time>2026-05-03T14:19:17Z</time></trkpt><trkpt lat="43.455436296424594" lon="18.75086245780694"><ele>443.0</ele><time>2026-05-03T14:19:18Z</time></trkpt><trkpt lat="43.45552792836175" lon="18.75068431581726"><ele>447.0</ele><time>2026-05-03T14:19:19Z</time></trkpt><trkpt lat="43.4556248616628" lon="18.75051452427739"><ele>447.0</ele><time>2026-05-03T14:19:20Z</time></trkpt><trkpt lat="43.455720953058204" lon="18.75035178665731"><ele>447.0</ele><time>2026-05-03T14:19:21Z</time></trkpt><trkpt lat="43.455826415277116" lon="18.750191215202506"><ele>447.0</ele><time>2026-05-03T14:19:22Z</time></trkpt><trkpt lat="43.45594416216553" lon="18.750040151458766"><ele>448.0</ele><time>2026-05-03T14:19:23Z</time></trkpt><trkpt lat="43.45606343710954" lon="18.749891313852366"><ele>449.0</ele><time>2026-05-03T14:19:24Z</time></trkpt><trkpt lat="43.456186169433714" lon="18.74974123178678"><ele>450.0</ele><time>2026-05-03T14:19:25Z</time></trkpt><trkpt lat="43.45631371777139" lon="18.749596581708605"><ele>450.0</ele><time>2026-05-03T14:19:26Z</time></trkpt><trkpt lat="43.456442697377526" lon="18.749462989853047"><ele>450.0</ele><time>2026-05-03T14:19:27Z</time></trkpt><trkpt lat="43.45657304290216" lon="18.749320784339634"><ele>450.0</ele><time>2026-05-03T14:19:28Z</time></trkpt><trkpt lat="43.45672301313975" lon="18.749159933935115"><ele>443.66666666666663</ele><time>2026-05-03T14:19:29Z</time></trkpt><trkpt lat="43.45687249519752" lon="18.748973934442017"><ele>437.3333333333333</ele><time>2026-05-03T14:19:30Z</time></trkpt><trkpt lat="43.4569969637585" lon="18.748795976638288"><ele>431.0</ele><time>2026-05-03T14:19:31Z</time></trkpt><trkpt lat="43.457107367672926" lon="18.74862469522054"><ele>433.0</ele><time>2026-05-03T14:19:32Z</time></trkpt><trkpt lat="43.45721050469975" lon="18.74845383712713"><ele>435.0</ele><time>2026-05-03T14:19:33Z</time></trkpt><trkpt lat="43.45730986914361" lon="18.748286194848262"><ele>437.0</ele><time>2026-05-03T14:19:34Z</time></trkpt><trkpt lat="43.45740647920156" lon="18.748121393706217"><ele>437.0</ele><time>2026-05-03T14:19:35Z</time></trkpt><trkpt lat="43.45750769180983" lon="18.74796976529266"><ele>437.0</ele><time>2026-05-03T14:19:36Z</time></trkpt><trkpt lat="43.45761633296052" lon="18.747834410049578"><ele>437.0</ele><time>2026-05-03T14:19:37Z</time></trkpt><trkpt lat="43.457738885804474" lon="18.747734673021696"><ele>437.0</ele><time>2026-05-03T14:19:38Z</time></trkpt><trkpt lat="43.45787026602921" lon="18.74764300791998"><ele>434.66666666666663</ele><time>2026-05-03T14:19:39Z</time></trkpt><trkpt lat="43.45801308712332" lon="18.74754935041956"><ele>432.33333333333337</ele><time>2026-05-03T14:19:40Z</time></trkpt><trkpt lat="43.45816386347637" lon="18.747463999337587"><ele>430.0</ele><time>2026-05-03T14:19:41Z</time></trkpt><trkpt lat="43.45831221070704" lon="18.747385427083405"><ele>430.0</ele><time>2026-05-03T14:19:42Z</time></trkpt><trkpt lat="43.45846688524421" lon="18.747307881317518"><ele>430.0</ele><time>2026-05-03T14:19:43Z</time></trkpt><trkpt lat="43.45862436738358" lon="18.7472227862455"><ele>430.0</ele><time>2026-05-03T14:19:44Z</time></trkpt><trkpt lat="43.458793048718796" lon="18.747140289845284"><ele>432.33333333333337</ele><time>2026-05-03T14:19:45Z</time></trkpt><trkpt lat="43.45897213522584" lon="18.74706658298925"><ele>434.66666666666663</ele><time>2026-05-03T14:19:46Z</time></trkpt><trkpt lat="43.45914734016212" lon="18.747001049662273"><ele>437.0</ele><time>2026-05-03T14:19:47Z</time></trkpt><trkpt lat="43.459321027183" lon="18.74693048018861"><ele>434.3333333333333</ele><time>2026-05-03T14:19:48Z</time></trkpt><trkpt lat="43.459491401968954" lon="18.7468592519254"><ele>431.66666666666663</ele><time>2026-05-03T14:19:49Z</time></trkpt><trkpt lat="43.45966227190508" lon="18.7467955442044"><ele>429.0</ele><time>2026-05-03T14:19:50Z</time></trkpt><trkpt lat="43.45982699868936" lon="18.746748406557074"><ele>429.0</ele><time>2026-05-03T14:19:51Z</time></trkpt><trkpt lat="43.45999402725944" lon="18.74670579182021"><ele>429.0</ele><time>2026-05-03T14:19:52Z</time></trkpt><trkpt lat="43.46015596076656" lon="18.746688458046812"><ele>429.0</ele><time>2026-05-03T14:19:53Z</time></trkpt><trkpt lat="43.46032065384335" lon="18.746717760666666"><ele>427.0</ele><time>2026-05-03T14:19:54Z</time></trkpt><trkpt lat="43.46048429464378" lon="18.746777618852246"><ele>425.0</ele><time>2026-05-03T14:19:55Z</time></trkpt><trkpt lat="43.460640678285095" lon="18.746865376489172"><ele>423.0</ele><time>2026-05-03T14:19:56Z</time></trkpt><trkpt lat="43.46079165549383" lon="18.746969749593838"><ele>430.66666666666663</ele><time>2026-05-03T14:19:57Z</time></trkpt><trkpt lat="43.46093374123827" lon="18.74709557524738"><ele>438.3333333333333</ele><time>2026-05-03T14:19:58Z</time></trkpt><trkpt lat="43.461064978976275" lon="18.747218881122002"><ele>446.0</ele><time>2026-05-03T14:19:59Z</time></trkpt><trkpt lat="43.461198752618444" lon="18.74732867884902"><ele>444.0</ele><time>2026-05-03T14:20:00Z</time></trkpt><trkpt lat="43.46135355370316" lon="18.74741352445429"><ele>442.0</ele><time>2026-05-03T14:20:01Z</time></trkpt><trkpt lat="43.4615438089158" lon="18.74747226069644"><ele>440.0</ele><time>2026-05-03T14:20:02Z</time></trkpt><trkpt lat="43.461782496718044" lon="18.747502544603464"><ele>440.0</ele><time>2026-05-03T14:20:03Z</time></trkpt><trkpt lat="43.46205750612824" lon="18.74749252323872"><ele>440.0</ele><time>2026-05-03T14:20:04Z</time></trkpt><trkpt lat="43.46234857552915" lon="18.74743352168626"><ele>437.0</ele><time>2026-05-03T14:20:05Z</time></trkpt><trkpt lat="43.4626420780712" lon="18.747382408915698"><ele>434.0</ele><time>2026-05-03T14:20:06Z</time></trkpt><trkpt lat="43.462954226918065" lon="18.74738972111811"><ele>431.5</ele><time>2026-05-03T14:20:07Z</time></trkpt><trkpt lat="43.46326666824702" lon="18.747478097611275"><ele>429.0</ele><time>2026-05-03T14:20:08Z</time></trkpt><trkpt lat="43.46355642244274" lon="18.74757115977131"><ele>432.0</ele><time>2026-05-03T14:20:09Z</time></trkpt><trkpt lat="43.46382512478379" lon="18.747622420545103"><ele>435.0</ele><time>2026-05-03T14:20:10Z</time></trkpt><trkpt lat="43.4641012696644" lon="18.74762025226092"><ele>435.0</ele><time>2026-05-03T14:20:11Z</time></trkpt><trkpt lat="43.46437131296225" lon="18.747563396798522"><ele>435.0</ele><time>2026-05-03T14:20:12Z</time></trkpt><trkpt lat="43.464647076996556" lon="18.747478905426824"><ele>440.0</ele><time>2026-05-03T14:20:13Z</time></trkpt><trkpt lat="43.464910515513495" lon="18.747386964024997"><ele>445.0</ele><time>2026-05-03T14:20:14Z</time></trkpt><trkpt lat="43.46515371921233" lon="18.747305266657108"><ele>445.0</ele><time>2026-05-03T14:20:15Z</time></trkpt><trkpt lat="43.465383048276216" lon="18.747245757012337"><ele>445.0</ele><time>2026-05-03T14:20:16Z</time></trkpt><trkpt lat="43.4656020479594" lon="18.747206491798675"><ele>445.33333333333337</ele><time>2026-05-03T14:20:17Z</time></trkpt><trkpt lat="43.46581859220126" lon="18.747193277367074"><ele>445.66666666666663</ele><time>2026-05-03T14:20:18Z</time></trkpt><trkpt lat="43.46604096269682" lon="18.747204119395995"><ele>446.0</ele><time>2026-05-03T14:20:19Z</time></trkpt><trkpt lat="43.46627320272335" lon="18.747248018266973"><ele>445.0</ele><time>2026-05-03T14:20:20Z</time></trkpt><trkpt lat="43.46652128122738" lon="18.74729292717733"><ele>444.0</ele><time>2026-05-03T14:20:21Z</time></trkpt><trkpt lat="43.46677221578751" lon="18.747328444636477"><ele>444.0</ele><time>2026-05-03T14:20:22Z</time></trkpt><trkpt lat="43.46704467466742" lon="18.747337303815037"><ele>444.0</ele><time>2026-05-03T14:20:23Z</time></trkpt><trkpt lat="43.467337375264584" lon="18.74731703904972"><ele>443.5</ele><time>2026-05-03T14:20:24Z</time></trkpt><trkpt lat="43.46762202853961" lon="18.74727784224235"><ele>443.0</ele><time>2026-05-03T14:20:25Z</time></trkpt><trkpt lat="43.46788868184698" lon="18.747267891093678"><ele>440.5</ele><time>2026-05-03T14:20:26Z</time></trkpt><trkpt lat="43.46813793265751" lon="18.74732245975525"><ele>438.0</ele><time>2026-05-03T14:20:27Z</time></trkpt><trkpt lat="43.46835326504803" lon="18.74743983435432"><ele>438.0</ele><time>2026-05-03T14:20:28Z</time></trkpt><trkpt lat="43.468543555817966" lon="18.747589027760107"><ele>438.0</ele><time>2026-05-03T14:20:29Z</time></trkpt><trkpt lat="43.4687006105564" lon="18.74777703972068"><ele>438.0</ele><time>2026-05-03T14:20:30Z</time></trkpt><trkpt lat="43.46882475355307" lon="18.747994808561543"><ele>438.66666666666663</ele><time>2026-05-03T14:20:31Z</time></trkpt><trkpt lat="43.46894404946726" lon="18.748213192040115"><ele>439.3333333333333</ele><time>2026-05-03T14:20:32Z</time></trkpt><trkpt lat="43.469052338280356" lon="18.74842148637921"><ele>440.0</ele><time>2026-05-03T14:20:33Z</time></trkpt><trkpt lat="43.469181124724805" lon="18.748598758452943"><ele>442.66666666666663</ele><time>2026-05-03T14:20:34Z</time></trkpt><trkpt lat="43.469334795192" lon="18.74873432484538"><ele>445.33333333333337</ele><time>2026-05-03T14:20:35Z</time></trkpt><trkpt lat="43.46952707354294" lon="18.748830478845576"><ele>448.0</ele><time>2026-05-03T14:20:36Z</time></trkpt><trkpt lat="43.469720290425556" lon="18.748899390244723"><ele>448.0</ele><time>2026-05-03T14:20:37Z</time></trkpt><trkpt lat="43.469913286848005" lon="18.748952478824208"><ele>448.0</ele><time>2026-05-03T14:20:38Z</time></trkpt><trkpt lat="43.47011561312489" lon="18.749001499254998"><ele>448.0</ele><time>2026-05-03T14:20:39Z</time></trkpt><trkpt lat="43.470320735126016" lon="18.749053072737745"><ele>445.0</ele><time>2026-05-03T14:20:40Z</time></trkpt><trkpt lat="43.47052660545657" lon="18.749122868496073"><ele>442.0</ele><time>2026-05-03T14:20:41Z</time></trkpt><trkpt lat="43.470717418810395" lon="18.74918861777236"><ele>439.0</ele><time>2026-05-03T14:20:42Z</time></trkpt><trkpt lat="43.47090833387479" lon="18.749259375659577"><ele>439.0</ele><time>2026-05-03T14:20:43Z</time></trkpt><trkpt lat="43.47109785632646" lon="18.749346326841756"><ele>439.0</ele><time>2026-05-03T14:20:44Z</time></trkpt><trkpt lat="43.471277294832035" lon="18.74946242135885"><ele>439.0</ele><time>2026-05-03T14:20:45Z</time></trkpt><trkpt lat="43.47144106322635" lon="18.749619258701134"><ele>442.33333333333337</ele><time>2026-05-03T14:20:46Z</time></trkpt><trkpt lat="43.471588161547835" lon="18.74982964113584"><ele>445.66666666666663</ele><time>2026-05-03T14:20:47Z</time></trkpt><trkpt lat="43.47171603608631" lon="18.750043183150538"><ele>449.0</ele><time>2026-05-03T14:20:48Z</time></trkpt><trkpt lat="43.47186788601409" lon="18.750221443218326"><ele>451.0</ele><time>2026-05-03T14:20:49Z</time></trkpt><trkpt lat="43.47203635149941" lon="18.750336532123598"><ele>453.0</ele><time>2026-05-03T14:20:50Z</time></trkpt><trkpt lat="43.47219698543518" lon="18.750406625963826"><ele>455.0</ele><time>2026-05-03T14:20:51Z</time></trkpt><trkpt lat="43.472343314116706" lon="18.750480612379796"><ele>455.0</ele><time>2026-05-03T14:20:52Z</time></trkpt><trkpt lat="43.47247764351489" lon="18.750561215110277"><ele>455.0</ele><time>2026-05-03T14:20:53Z</time></trkpt><trkpt lat="43.472590390076476" lon="18.75065508013986"><ele>455.0</ele><time>2026-05-03T14:20:54Z</time></trkpt><trkpt lat="43.47268867759573" lon="18.75076886272464"><ele>455.0</ele><time>2026-05-03T14:20:55Z</time></trkpt><trkpt lat="43.47277741014063" lon="18.750900428513425"><ele>455.0</ele><time>2026-05-03T14:20:56Z</time></trkpt><trkpt lat="43.47286072186977" lon="18.751035387568027"><ele>455.0</ele><time>2026-05-03T14:20:57Z</time></trkpt><trkpt lat="43.472937542109754" lon="18.751159707533525"><ele>455.0</ele><time>2026-05-03T14:20:58Z</time></trkpt><trkpt lat="43.473034760939015" lon="18.7512835643911"><ele>455.0</ele><time>2026-05-03T14:20:59Z</time></trkpt><trkpt lat="43.473150202310975" lon="18.75138173494506"><ele>452.0</ele><time>2026-05-03T14:21:00Z</time></trkpt><trkpt lat="43.47327754101754" lon="18.751448051756718"><ele>449.0</ele><time>2026-05-03T14:21:01Z</time></trkpt><trkpt lat="43.473404743749995" lon="18.751474450223192"><ele>446.0</ele><time>2026-05-03T14:21:02Z</time></trkpt><trkpt lat="43.473546022243134" lon="18.751468019063644"><ele>443.0</ele><time>2026-05-03T14:21:03Z</time></trkpt><trkpt lat="43.47368703068049" lon="18.751420936231604"><ele>442.59999999999997</ele><time>2026-05-03T14:21:04Z</time></trkpt><trkpt lat="43.47379820041554" lon="18.751343835013696"><ele>442.19999999999993</ele><time>2026-05-03T14:21:05Z</time></trkpt><trkpt lat="43.47389740752653" lon="18.75125388841217"><ele>441.8</ele><time>2026-05-03T14:21:06Z</time></trkpt><trkpt lat="43.47397417257192" lon="18.751162628277143"><ele>441.4</ele><time>2026-05-03T14:21:07Z</time></trkpt><trkpt lat="43.474025487637334" lon="18.751079653589375"><ele>441.0</ele><time>2026-05-03T14:21:08Z</time></trkpt><trkpt lat="43.47407758957175" lon="18.751017045076036"><ele>441.0</ele><time>2026-05-03T14:21:09Z</time></trkpt><trkpt lat="43.47414307176062" lon="18.750955799569397"><ele>441.0</ele><time>2026-05-03T14:21:10Z</time></trkpt><trkpt lat="43.47422520032836" lon="18.750894007765954"><ele>441.0</ele><time>2026-05-03T14:21:11Z</time></trkpt><trkpt lat="43.47432713042455" lon="18.750843125168544"><ele>441.0</ele><time>2026-05-03T14:21:12Z</time></trkpt><trkpt lat="43.47443320803155" lon="18.750792088169426"><ele>441.0</ele><time>2026-05-03T14:21:13Z</time></trkpt><trkpt lat="43.47455487154221" lon="18.750744145084507"><ele>445.33333333333337</ele><time>2026-05-03T14:21:14Z</time></trkpt><trkpt lat="43.474688172653195" lon="18.750702894923702"><ele>449.6666666666667</ele><time>2026-05-03T14:21:15Z</time></trkpt><trkpt lat="43.474839508658" lon="18.750668373041464"><ele>454.0</ele><time>2026-05-03T14:21:16Z</time></trkpt><trkpt lat="43.47502682632453" lon="18.75063603230952"><ele>454.0</ele><time>2026-05-03T14:21:17Z</time></trkpt><trkpt lat="43.47523408373961" lon="18.750609033861807"><ele>454.0</ele><time>2026-05-03T14:21:18Z</time></trkpt><trkpt lat="43.4754556435096" lon="18.750585662197558"><ele>454.0</ele><time>2026-05-03T14:21:19Z</time></trkpt><trkpt lat="43.47570575475508" lon="18.750576900699286"><ele>453.0</ele><time>2026-05-03T14:21:20Z</time></trkpt><trkpt lat="43.47595844053577" lon="18.75058545954733"><ele>452.0</ele><time>2026-05-03T14:21:21Z</time></trkpt><trkpt lat="43.47620055408357" lon="18.75058874161496"><ele>452.0</ele><time>2026-05-03T14:21:22Z</time></trkpt><trkpt lat="43.47642359171883" lon="18.750590974866157"><ele>452.0</ele><time>2026-05-03T14:21:23Z</time></trkpt><trkpt lat="43.476636880116686" lon="18.750569536601525"><ele>452.0</ele><time>2026-05-03T14:21:24Z</time></trkpt><trkpt lat="43.47684404505039" lon="18.750498673675914"><ele>452.0</ele><time>2026-05-03T14:21:25Z</time></trkpt><trkpt lat="43.47703438679028" lon="18.750377202034397"><ele>452.0</ele><time>2026-05-03T14:21:26Z</time></trkpt><trkpt lat="43.47721996204328" lon="18.75022157290337"><ele>452.0</ele><time>2026-05-03T14:21:27Z</time></trkpt><trkpt lat="43.47739697058638" lon="18.750067348960062"><ele>447.3333333333333</ele><time>2026-05-03T14:21:28Z</time></trkpt><trkpt lat="43.47756733433948" lon="18.749934895415365"><ele>442.66666666666663</ele><time>2026-05-03T14:21:29Z</time></trkpt><trkpt lat="43.47774204915653" lon="18.749842757345128"><ele>438.0</ele><time>2026-05-03T14:21:30Z</time></trkpt><trkpt lat="43.47791436786225" lon="18.74976798940356"><ele>444.66666666666663</ele><time>2026-05-03T14:21:31Z</time></trkpt><trkpt lat="43.478084443462606" lon="18.749701701186027"><ele>451.3333333333333</ele><time>2026-05-03T14:21:32Z</time></trkpt><trkpt lat="43.47825121739495" lon="18.7496206543704"><ele>458.0</ele><time>2026-05-03T14:21:33Z</time></trkpt><trkpt lat="43.47841384430048" lon="18.74951282712446"><ele>458.0</ele><time>2026-05-03T14:21:34Z</time></trkpt><trkpt lat="43.47856914494534" lon="18.74939155210529"><ele>458.0</ele><time>2026-05-03T14:21:35Z</time></trkpt><trkpt lat="43.47872073664986" lon="18.749251264666746"><ele>458.0</ele><time>2026-05-03T14:21:36Z</time></trkpt><trkpt lat="43.47887441127984" lon="18.749110601931555"><ele>455.0</ele><time>2026-05-03T14:21:37Z</time></trkpt><trkpt lat="43.47902569619741" lon="18.7489778633297"><ele>452.0</ele><time>2026-05-03T14:21:38Z</time></trkpt><trkpt lat="43.479179061138744" lon="18.748838872178272"><ele>449.0</ele><time>2026-05-03T14:21:39Z</time></trkpt><trkpt lat="43.479338696501365" lon="18.748704234828264"><ele>449.0</ele><time>2026-05-03T14:21:40Z</time></trkpt><trkpt lat="43.47950227156711" lon="18.74857571294106"><ele>449.0</ele><time>2026-05-03T14:21:41Z</time></trkpt><trkpt lat="43.4796799932604" lon="18.748458661088268"><ele>449.0</ele><time>2026-05-03T14:21:42Z</time></trkpt><trkpt lat="43.47986540135992" lon="18.748342597626507"><ele>446.66666666666663</ele><time>2026-05-03T14:21:43Z</time></trkpt><trkpt lat="43.48005170125846" lon="18.74823307704365"><ele>444.33333333333337</ele><time>2026-05-03T14:21:44Z</time></trkpt><trkpt lat="43.48023639094155" lon="18.74813060199118"><ele>442.0</ele><time>2026-05-03T14:21:45Z</time></trkpt><trkpt lat="43.48040974131422" lon="18.74803565545093"><ele>447.6666666666667</ele><time>2026-05-03T14:21:46Z</time></trkpt><trkpt lat="43.4805755771893" lon="18.747965907405785"><ele>453.33333333333337</ele><time>2026-05-03T14:21:47Z</time></trkpt><trkpt lat="43.48074347552979" lon="18.747894956259834"><ele>459.0</ele><time>2026-05-03T14:21:48Z</time></trkpt><trkpt lat="43.48091769654411" lon="18.747823977551374"><ele>459.0</ele><time>2026-05-03T14:21:49Z</time></trkpt><trkpt lat="43.48109462202921" lon="18.74774837572819"><ele>459.0</ele><time>2026-05-03T14:21:50Z</time></trkpt><trkpt lat="43.481284049958525" lon="18.747679152338442"><ele>459.0</ele><time>2026-05-03T14:21:51Z</time></trkpt><trkpt lat="43.48147278675991" lon="18.747609207967052"><ele>450.33333333333337</ele><time>2026-05-03T14:21:52Z</time></trkpt><trkpt lat="43.48166765239923" lon="18.747535188497316"><ele>441.6666666666667</ele><time>2026-05-03T14:21:53Z</time></trkpt><trkpt lat="43.48186202748011" lon="18.747460102530425"><ele>433.0</ele><time>2026-05-03T14:21:54Z</time></trkpt><trkpt lat="43.48205168040437" lon="18.747374465211887"><ele>435.0</ele><time>2026-05-03T14:21:55Z</time></trkpt><trkpt lat="43.48224837993254" lon="18.74729322239827"><ele>437.0</ele><time>2026-05-03T14:21:56Z</time></trkpt><trkpt lat="43.48244738335024" lon="18.747213594115696"><ele>439.0</ele><time>2026-05-03T14:21:57Z</time></trkpt><trkpt lat="43.48264869606846" lon="18.74714219836949"><ele>439.0</ele><time>2026-05-03T14:21:58Z</time></trkpt><trkpt lat="43.482858997610684" lon="18.747071150834326"><ele>439.0</ele><time>2026-05-03T14:21:59Z</time></trkpt><trkpt lat="43.483065306917865" lon="18.74702902728135"><ele>439.0</ele><time>2026-05-03T14:22:00Z</time></trkpt><trkpt lat="43.483263457051116" lon="18.747013888953838"><ele>439.0</ele><time>2026-05-03T14:22:01Z</time></trkpt><trkpt lat="43.48345746406785" lon="18.74701030423933"><ele>439.0</ele><time>2026-05-03T14:22:02Z</time></trkpt><trkpt lat="43.48364909653864" lon="18.74702569642693"><ele>439.0</ele><time>2026-05-03T14:22:03Z</time></trkpt><trkpt lat="43.483844220002794" lon="18.74705930994743"><ele>440.6666666666667</ele><time>2026-05-03T14:22:04Z</time></trkpt><trkpt lat="43.484042468941105" lon="18.747097411460405"><ele>442.33333333333337</ele><time>2026-05-03T14:22:05Z</time></trkpt><trkpt lat="43.4842453548635" lon="18.747139612440836"><ele>444.0</ele><time>2026-05-03T14:22:06Z</time></trkpt><trkpt lat="43.484449078527675" lon="18.747187071101784"><ele>442.0</ele><time>2026-05-03T14:22:07Z</time></trkpt><trkpt lat="43.48464716843006" lon="18.747231178561133"><ele>440.0</ele><time>2026-05-03T14:22:08Z</time></trkpt><trkpt lat="43.48483499033867" lon="18.74727693723448"><ele>438.0</ele><time>2026-05-03T14:22:09Z</time></trkpt><trkpt lat="43.485001388295736" lon="18.74731565062566"><ele>438.0</ele><time>2026-05-03T14:22:10Z</time></trkpt><trkpt lat="43.485166619920626" lon="18.74733989181976"><ele>438.0</ele><time>2026-05-03T14:22:11Z</time></trkpt><trkpt lat="43.48533736972404" lon="18.747353160266698"><ele>438.0</ele><time>2026-05-03T14:22:12Z</time></trkpt><trkpt lat="43.48550386552934" lon="18.747332863140663"><ele>437.33333333333337</ele><time>2026-05-03T14:22:13Z</time></trkpt><trkpt lat="43.48567689015389" lon="18.747303292011203"><ele>436.6666666666667</ele><time>2026-05-03T14:22:14Z</time></trkpt><trkpt lat="43.48583515150397" lon="18.747271442938384"><ele>436.0</ele><time>2026-05-03T14:22:15Z</time></trkpt><trkpt lat="43.48598626775071" lon="18.747238484448168"><ele>436.0</ele><time>2026-05-03T14:22:16Z</time></trkpt><trkpt lat="43.486123764260874" lon="18.74721876185821"><ele>436.0</ele><time>2026-05-03T14:22:17Z</time></trkpt><trkpt lat="43.486243438488465" lon="18.74718927284451"><ele>436.0</ele><time>2026-05-03T14:22:18Z</time></trkpt><trkpt lat="43.4863446656541" lon="18.747138178402206"><ele>436.0</ele><time>2026-05-03T14:22:19Z</time></trkpt><trkpt lat="43.48642687726184" lon="18.747040657810093"><ele>434.4</ele><time>2026-05-03T14:22:20Z</time></trkpt><trkpt lat="43.486491822195234" lon="18.74691011126029"><ele>432.8</ele><time>2026-05-03T14:22:21Z</time></trkpt><trkpt lat="43.486516921391846" lon="18.746770136178306"><ele>431.19999999999993</ele><time>2026-05-03T14:22:22Z</time></trkpt><trkpt lat="43.48651788113689" lon="18.746637479376993"><ele>429.59999999999997</ele><time>2026-05-03T14:22:23Z</time></trkpt><trkpt lat="43.48649609848057" lon="18.7465164844763"><ele>428.0</ele><time>2026-05-03T14:22:24Z</time></trkpt><trkpt lat="43.4864644274037" lon="18.74637743483108"><ele>425.0</ele><time>2026-05-03T14:22:25Z</time></trkpt><trkpt lat="43.4864276984842" lon="18.74623039345752"><ele>422.0</ele><time>2026-05-03T14:22:26Z</time></trkpt><trkpt lat="43.486385997517644" lon="18.746075826469678"><ele>419.0</ele><time>2026-05-03T14:22:27Z</time></trkpt><trkpt lat="43.486345426077236" lon="18.745910364768044"><ele>416.0</ele><time>2026-05-03T14:22:28Z</time></trkpt><trkpt lat="43.486314801327005" lon="18.745735079205424"><ele>415.0</ele><time>2026-05-03T14:22:29Z</time></trkpt><trkpt lat="43.486287850296506" lon="18.74555426104516"><ele>414.0</ele><time>2026-05-03T14:22:30Z</time></trkpt><trkpt lat="43.48626357068066" lon="18.74537275803933"><ele>413.0</ele><time>2026-05-03T14:22:31Z</time></trkpt><trkpt lat="43.48624139297331" lon="18.745188524179653"><ele>412.0</ele><time>2026-05-03T14:22:32Z</time></trkpt><trkpt lat="43.486217063534525" lon="18.745011819857574"><ele>410.5</ele><time>2026-05-03T14:22:33Z</time></trkpt><trkpt lat="43.48619096959065" lon="18.744835075827243"><ele>409.0</ele><time>2026-05-03T14:22:34Z</time></trkpt><trkpt lat="43.48616714203853" lon="18.744661616172078"><ele>407.5</ele><time>2026-05-03T14:22:35Z</time></trkpt><trkpt lat="43.48614372691302" lon="18.744501718555487"><ele>406.0</ele><time>2026-05-03T14:22:36Z</time></trkpt><trkpt lat="43.48611975058357" lon="18.744352749775295"><ele>406.0</ele><time>2026-05-03T14:22:37Z</time></trkpt><trkpt lat="43.48609932486517" lon="18.744215383770044"><ele>406.0</ele><time>2026-05-03T14:22:38Z</time></trkpt><trkpt lat="43.48608524505732" lon="18.744081604689942"><ele>406.0</ele><time>2026-05-03T14:22:39Z</time></trkpt><trkpt lat="43.486087630009614" lon="18.74396074614071"><ele>406.0</ele><time>2026-05-03T14:22:40Z</time></trkpt><trkpt lat="43.48611007737762" lon="18.74384380073917"><ele>406.0</ele><time>2026-05-03T14:22:41Z</time></trkpt><trkpt lat="43.48615640915332" lon="18.74373074515407"><ele>406.0</ele><time>2026-05-03T14:22:42Z</time></trkpt><trkpt lat="43.48621656916717" lon="18.743631350681643"><ele>406.0</ele><time>2026-05-03T14:22:43Z</time></trkpt><trkpt lat="43.48629315151391" lon="18.743548251055213"><ele>406.0</ele><time>2026-05-03T14:22:44Z</time></trkpt><trkpt lat="43.48638542551859" lon="18.74349232681475"><ele>406.0</ele><time>2026-05-03T14:22:45Z</time></trkpt><trkpt lat="43.486478102634166" lon="18.74345403883419"><ele>406.0</ele><time>2026-05-03T14:22:46Z</time></trkpt><trkpt lat="43.4865739511442" lon="18.74344276365371"><ele>409.25</ele><time>2026-05-03T14:22:47Z</time></trkpt><trkpt lat="43.4866864887823" lon="18.743442138785788"><ele>412.5</ele><time>2026-05-03T14:22:48Z</time></trkpt><trkpt lat="43.48680511324236" lon="18.743443637896743"><ele>415.75</ele><time>2026-05-03T14:22:49Z</time></trkpt><trkpt lat="43.486936191956815" lon="18.74345575902822"><ele>419.0</ele><time>2026-05-03T14:22:50Z</time></trkpt><trkpt lat="43.48707164869224" lon="18.743471545202045"><ele>420.0</ele><time>2026-05-03T14:22:51Z</time></trkpt><trkpt lat="43.487214310110886" lon="18.7434947459002"><ele>421.0</ele><time>2026-05-03T14:22:52Z</time></trkpt><trkpt lat="43.48735581569548" lon="18.743512088952745"><ele>422.0</ele><time>2026-05-03T14:22:53Z</time></trkpt><trkpt lat="43.48751039746359" lon="18.743533763772827"><ele>423.0</ele><time>2026-05-03T14:22:54Z</time></trkpt><trkpt lat="43.48767226598881" lon="18.74355061609026"><ele>415.33333333333337</ele><time>2026-05-03T14:22:55Z</time></trkpt><trkpt lat="43.48785105000558" lon="18.743562148459745"><ele>407.6666666666667</ele><time>2026-05-03T14:22:56Z</time></trkpt><trkpt lat="43.48802400315178" lon="18.743567433576747"><ele>400.0</ele><time>2026-05-03T14:22:57Z</time></trkpt><trkpt lat="43.488190134501885" lon="18.743564732291244"><ele>399.33333333333337</ele><time>2026-05-03T14:22:58Z</time></trkpt><trkpt lat="43.48835579087298" lon="18.74355115596185"><ele>398.66666666666663</ele><time>2026-05-03T14:22:59Z</time></trkpt><trkpt lat="43.48851821656622" lon="18.743533018856727"><ele>398.0</ele><time>2026-05-03T14:23:00Z</time></trkpt><trkpt lat="43.48868222690934" lon="18.743516320802996"><ele>402.3333333333333</ele><time>2026-05-03T14:23:01Z</time></trkpt><trkpt lat="43.488847797682006" lon="18.743495139049628"><ele>406.66666666666663</ele><time>2026-05-03T14:23:02Z</time></trkpt><trkpt lat="43.4890144239907" lon="18.743474331125245"><ele>411.0</ele><time>2026-05-03T14:23:03Z</time></trkpt><trkpt lat="43.48918261851024" lon="18.743452156600842"><ele>411.0</ele><time>2026-05-03T14:23:04Z</time></trkpt><trkpt lat="43.489347041877316" lon="18.743430045909076"><ele>411.0</ele><time>2026-05-03T14:23:05Z</time></trkpt><trkpt lat="43.4895104342386" lon="18.743403729369742"><ele>411.0</ele><time>2026-05-03T14:23:06Z</time></trkpt><trkpt lat="43.48967434867548" lon="18.743361200666236"><ele>409.33333333333337</ele><time>2026-05-03T14:23:07Z</time></trkpt><trkpt lat="43.48983398330015" lon="18.743297622565414"><ele>407.6666666666667</ele><time>2026-05-03T14:23:08Z</time></trkpt><trkpt lat="43.48998919512876" lon="18.743210789223447"><ele>406.0</ele><time>2026-05-03T14:23:09Z</time></trkpt><trkpt lat="43.490136099232465" lon="18.743101754348206"><ele>406.0</ele><time>2026-05-03T14:23:10Z</time></trkpt><trkpt lat="43.4902744507482" lon="18.74298381572203"><ele>406.0</ele><time>2026-05-03T14:23:11Z</time></trkpt><trkpt lat="43.49041550475057" lon="18.742853405882705"><ele>406.0</ele><time>2026-05-03T14:23:12Z</time></trkpt><trkpt lat="43.49055473233624" lon="18.74273139382942"><ele>407.6666666666667</ele><time>2026-05-03T14:23:13Z</time></trkpt><trkpt lat="43.49070346260583" lon="18.74262219079968"><ele>409.33333333333337</ele><time>2026-05-03T14:23:14Z</time></trkpt><trkpt lat="43.49085373421905" lon="18.742564821195906"><ele>411.0</ele><time>2026-05-03T14:23:15Z</time></trkpt><trkpt lat="43.49100504240731" lon="18.74255595863542"><ele>411.0</ele><time>2026-05-03T14:23:16Z</time></trkpt><trkpt lat="43.491162791401145" lon="18.742584484304036"><ele>411.0</ele><time>2026-05-03T14:23:17Z</time></trkpt><trkpt lat="43.49132673836949" lon="18.742636294980517"><ele>411.0</ele><time>2026-05-03T14:23:18Z</time></trkpt><trkpt lat="43.49147644800458" lon="18.742683542993458"><ele>409.0</ele><time>2026-05-03T14:23:19Z</time></trkpt><trkpt lat="43.491615531327184" lon="18.742713891391215"><ele>407.0</ele><time>2026-05-03T14:23:20Z</time></trkpt><trkpt lat="43.49175401581383" lon="18.742724664696155"><ele>405.0</ele><time>2026-05-03T14:23:21Z</time></trkpt><trkpt lat="43.49188054550496" lon="18.742696973755855"><ele>403.0</ele><time>2026-05-03T14:23:22Z</time></trkpt><trkpt lat="43.491995753449714" lon="18.74263154921542"><ele>407.5</ele><time>2026-05-03T14:23:23Z</time></trkpt><trkpt lat="43.4920966157681" lon="18.74253661714856"><ele>412.0</ele><time>2026-05-03T14:23:24Z</time></trkpt><trkpt lat="43.49216724288848" lon="18.742410243674772"><ele>416.5</ele><time>2026-05-03T14:23:25Z</time></trkpt><trkpt lat="43.492227007423004" lon="18.742274115007998"><ele>421.0</ele><time>2026-05-03T14:23:26Z</time></trkpt><trkpt lat="43.492273472862756" lon="18.742108560647026"><ele>421.0</ele><time>2026-05-03T14:23:27Z</time></trkpt><trkpt lat="43.492311105663816" lon="18.741927682715314"><ele>421.0</ele><time>2026-05-03T14:23:28Z</time></trkpt><trkpt lat="43.492352278858526" lon="18.74173644408565"><ele>421.0</ele><time>2026-05-03T14:23:29Z</time></trkpt><trkpt lat="43.492401398173435" lon="18.74153937723708"><ele>421.0</ele><time>2026-05-03T14:23:30Z</time></trkpt><trkpt lat="43.49246009681089" lon="18.741349194226558"><ele>417.33333333333337</ele><time>2026-05-03T14:23:31Z</time></trkpt><trkpt lat="43.49254014759099" lon="18.74117089519869"><ele>413.66666666666663</ele><time>2026-05-03T14:23:32Z</time></trkpt><trkpt lat="43.492640908654344" lon="18.74101244309748"><ele>410.0</ele><time>2026-05-03T14:23:33Z</time></trkpt><trkpt lat="43.49276704818273" lon="18.740861441326622"><ele>410.3333333333333</ele><time>2026-05-03T14:23:34Z</time></trkpt><trkpt lat="43.49291422620835" lon="18.740726513283967"><ele>410.66666666666663</ele><time>2026-05-03T14:23:35Z</time></trkpt><trkpt lat="43.4930827113501" lon="18.74061412813552"><ele>411.0</ele><time>2026-05-03T14:23:36Z</time></trkpt><trkpt lat="43.493274558923616" lon="18.740529011449947"><ele>411.0</ele><time>2026-05-03T14:23:37Z</time></trkpt><trkpt lat="43.49350816464415" lon="18.740454710262938"><ele>411.0</ele><time>2026-05-03T14:23:38Z</time></trkpt><trkpt lat="43.4937773010812" lon="18.74037942604159"><ele>409.0</ele><time>2026-05-03T14:23:39Z</time></trkpt><trkpt lat="43.49406496057392" lon="18.740282977779042"><ele>407.0</ele><time>2026-05-03T14:23:40Z</time></trkpt><trkpt lat="43.49435446841386" lon="18.740163018386156"><ele>415.5</ele><time>2026-05-03T14:23:41Z</time></trkpt><trkpt lat="43.49461461149434" lon="18.740031954006668"><ele>424.0</ele><time>2026-05-03T14:23:42Z</time></trkpt><trkpt lat="43.494830912002634" lon="18.739880470523193"><ele>424.0</ele><time>2026-05-03T14:23:43Z</time></trkpt><trkpt lat="43.49501232847572" lon="18.73968600991765"><ele>424.0</ele><time>2026-05-03T14:23:44Z</time></trkpt><trkpt lat="43.495171192505346" lon="18.739457514053814"><ele>417.0</ele><time>2026-05-03T14:23:45Z</time></trkpt><trkpt lat="43.49529959334147" lon="18.73918076867392"><ele>410.0</ele><time>2026-05-03T14:23:46Z</time></trkpt><trkpt lat="43.49541194752603" lon="18.73887192810587"><ele>414.0</ele><time>2026-05-03T14:23:47Z</time></trkpt><trkpt lat="43.4955158183041" lon="18.738521709451835"><ele>418.0</ele><time>2026-05-03T14:23:48Z</time></trkpt><trkpt lat="43.495629090975406" lon="18.738170172539846"><ele>418.0</ele><time>2026-05-03T14:23:49Z</time></trkpt><trkpt lat="43.49575728576798" lon="18.737819974179843"><ele>418.0</ele><time>2026-05-03T14:23:50Z</time></trkpt><trkpt lat="43.49589892361032" lon="18.737481568915797"><ele>415.5</ele><time>2026-05-03T14:23:51Z</time></trkpt><trkpt lat="43.49605403707909" lon="18.737164514179064"><ele>413.0</ele><time>2026-05-03T14:23:52Z</time></trkpt><trkpt lat="43.49620448211892" lon="18.736874630955228"><ele>420.66666666666663</ele><time>2026-05-03T14:23:53Z</time></trkpt><trkpt lat="43.49632905723297" lon="18.73660901990633"><ele>428.33333333333337</ele><time>2026-05-03T14:23:54Z</time></trkpt><trkpt lat="43.496411473217925" lon="18.73635327316421"><ele>436.0</ele><time>2026-05-03T14:23:55Z</time></trkpt><trkpt lat="43.49645393176864" lon="18.736104193224637"><ele>433.0</ele><time>2026-05-03T14:23:56Z</time></trkpt><trkpt lat="43.49645158266935" lon="18.73584754356695"><ele>430.0</ele><time>2026-05-03T14:23:57Z</time></trkpt><trkpt lat="43.49640614898887" lon="18.735596996043057"><ele>427.0</ele><time>2026-05-03T14:23:58Z</time></trkpt><trkpt lat="43.49635106801199" lon="18.735370862769738"><ele>426.0</ele><time>2026-05-03T14:23:59Z</time></trkpt><trkpt lat="43.49629950180943" lon="18.73514675023309"><ele>425.0</ele><time>2026-05-03T14:24:00Z</time></trkpt><trkpt lat="43.49625918464664" lon="18.734933869673032"><ele>424.0</ele><time>2026-05-03T14:24:01Z</time></trkpt><trkpt lat="43.49622385000236" lon="18.734729074489593"><ele>420.0</ele><time>2026-05-03T14:24:02Z</time></trkpt><trkpt lat="43.496192003616905" lon="18.734531944899327"><ele>416.0</ele><time>2026-05-03T14:24:03Z</time></trkpt><trkpt lat="43.496170210225436" lon="18.734333684504374"><ele>412.0</ele><time>2026-05-03T14:24:04Z</time></trkpt><trkpt lat="43.49616094223733" lon="18.73413763035307"><ele>408.0</ele><time>2026-05-03T14:24:05Z</time></trkpt><trkpt lat="43.49616971607617" lon="18.733938694200596"><ele>408.0</ele><time>2026-05-03T14:24:06Z</time></trkpt><trkpt lat="43.49618865157992" lon="18.733729133905598"><ele>408.0</ele><time>2026-05-03T14:24:07Z</time></trkpt><trkpt lat="43.49622554018869" lon="18.733505986349517"><ele>408.0</ele><time>2026-05-03T14:24:08Z</time></trkpt><trkpt lat="43.496274125688174" lon="18.733258545951646"><ele>410.66666666666663</ele><time>2026-05-03T14:24:09Z</time></trkpt><trkpt lat="43.496323302221896" lon="18.732996079489737"><ele>413.3333333333333</ele><time>2026-05-03T14:24:10Z</time></trkpt><trkpt lat="43.4963742574717" lon="18.73271135217694"><ele>416.0</ele><time>2026-05-03T14:24:11Z</time></trkpt><trkpt lat="43.49645025972529" lon="18.73241578681517"><ele>416.0</ele><time>2026-05-03T14:24:12Z</time></trkpt><trkpt lat="43.4965402962788" lon="18.732082357031953"><ele>416.0</ele><time>2026-05-03T14:24:13Z</time></trkpt><trkpt lat="43.49662618225727" lon="18.73171106957451"><ele>414.5</ele><time>2026-05-03T14:24:14Z</time></trkpt><trkpt lat="43.496702467717675" lon="18.731361664346018"><ele>413.0</ele><time>2026-05-03T14:24:15Z</time></trkpt><trkpt lat="43.496772246610654" lon="18.731048449432322"><ele>412.66666666666663</ele><time>2026-05-03T14:24:16Z</time></trkpt><trkpt lat="43.4968455759912" lon="18.730757800616548"><ele>412.33333333333337</ele><time>2026-05-03T14:24:17Z</time></trkpt><trkpt lat="43.496940055049166" lon="18.73049611012255"><ele>412.0</ele><time>2026-05-03T14:24:18Z</time></trkpt><trkpt lat="43.4970454981503" lon="18.730260800268873"><ele>413.33333333333337</ele><time>2026-05-03T14:24:19Z</time></trkpt><trkpt lat="43.49715750646019" lon="18.730053862211328"><ele>414.66666666666663</ele><time>2026-05-03T14:24:20Z</time></trkpt><trkpt lat="43.497282339338476" lon="18.72987172827078"><ele>416.0</ele><time>2026-05-03T14:24:21Z</time></trkpt><trkpt lat="43.49741212648779" lon="18.729699282495485"><ele>416.0</ele><time>2026-05-03T14:24:22Z</time></trkpt><trkpt lat="43.49753623617925" lon="18.729530462705448"><ele>416.0</ele><time>2026-05-03T14:24:23Z</time></trkpt><trkpt lat="43.49765591761682" lon="18.729346225026777"><ele>416.0</ele><time>2026-05-03T14:24:24Z</time></trkpt><trkpt lat="43.49776670978048" lon="18.729143006678875"><ele>415.0</ele><time>2026-05-03T14:24:25Z</time></trkpt><trkpt lat="43.49786134992314" lon="18.728921145215985"><ele>414.0</ele><time>2026-05-03T14:24:26Z</time></trkpt><trkpt lat="43.49793685883993" lon="18.728696368262106"><ele>413.0</ele><time>2026-05-03T14:24:27Z</time></trkpt><trkpt lat="43.49801029019622" lon="18.728460267946353"><ele>413.0</ele><time>2026-05-03T14:24:28Z</time></trkpt><trkpt lat="43.49808391724668" lon="18.728223871572226"><ele>413.0</ele><time>2026-05-03T14:24:29Z</time></trkpt><trkpt lat="43.49816576279544" lon="18.727992650764797"><ele>413.0</ele><time>2026-05-03T14:24:30Z</time></trkpt><trkpt lat="43.49825504204143" lon="18.727783062436608"><ele>414.66666666666663</ele><time>2026-05-03T14:24:31Z</time></trkpt><trkpt lat="43.49835984399375" lon="18.72756153641068"><ele>416.33333333333337</ele><time>2026-05-03T14:24:32Z</time></trkpt><trkpt lat="43.49848517037637" lon="18.72734819038912"><ele>418.0</ele><time>2026-05-03T14:24:33Z</time></trkpt><trkpt lat="43.49863205191934" lon="18.727118685785488"><ele>415.0</ele><time>2026-05-03T14:24:34Z</time></trkpt><trkpt lat="43.49880567673726" lon="18.72688628634705"><ele>412.0</ele><time>2026-05-03T14:24:35Z</time></trkpt><trkpt lat="43.49899252877054" lon="18.726657800309592"><ele>412.0</ele><time>2026-05-03T14:24:36Z</time></trkpt><trkpt lat="43.49917757102298" lon="18.726421315732892"><ele>412.0</ele><time>2026-05-03T14:24:37Z</time></trkpt><trkpt lat="43.49935991066972" lon="18.72618322498139"><ele>413.0</ele><time>2026-05-03T14:24:38Z</time></trkpt><trkpt lat="43.49954099176745" lon="18.725930617212388"><ele>414.0</ele><time>2026-05-03T14:24:39Z</time></trkpt><trkpt lat="43.49971584405866" lon="18.725662247487044"><ele>414.0</ele><time>2026-05-03T14:24:40Z</time></trkpt><trkpt lat="43.499870425018294" lon="18.725383943580635"><ele>414.0</ele><time>2026-05-03T14:24:41Z</time></trkpt><trkpt lat="43.4999906370155" lon="18.725087884031524"><ele>416.5</ele><time>2026-05-03T14:24:42Z</time></trkpt><trkpt lat="43.50008240149463" lon="18.72476090214987"><ele>419.0</ele><time>2026-05-03T14:24:43Z</time></trkpt><trkpt lat="43.50015819285651" lon="18.724404186744426"><ele>422.0</ele><time>2026-05-03T14:24:44Z</time></trkpt><trkpt lat="43.5002366735145" lon="18.724034882511937"><ele>425.0</ele><time>2026-05-03T14:24:45Z</time></trkpt><trkpt lat="43.500309493621664" lon="18.723716730694907"><ele>424.3333333333333</ele><time>2026-05-03T14:24:46Z</time></trkpt><trkpt lat="43.5003784902581" lon="18.72342761272236"><ele>423.66666666666663</ele><time>2026-05-03T14:24:47Z</time></trkpt><trkpt lat="43.5004298295213" lon="18.723157174492822"><ele>423.0</ele><time>2026-05-03T14:24:48Z</time></trkpt><trkpt lat="43.50045441525573" lon="18.722906456931092"><ele>421.0</ele><time>2026-05-03T14:24:49Z</time></trkpt><trkpt lat="43.500453730832376" lon="18.722657164535445"><ele>419.0</ele><time>2026-05-03T14:24:50Z</time></trkpt><trkpt lat="43.50042927532233" lon="18.722382515740758"><ele>417.0</ele><time>2026-05-03T14:24:51Z</time></trkpt><trkpt lat="43.500393813568884" lon="18.722089097032672"><ele>427.5</ele><time>2026-05-03T14:24:52Z</time></trkpt><trkpt lat="43.50035950184958" lon="18.721771358459645"><ele>438.0</ele><time>2026-05-03T14:24:53Z</time></trkpt><trkpt lat="43.50032923316426" lon="18.72144554435479"><ele>438.0</ele><time>2026-05-03T14:24:54Z</time></trkpt><trkpt lat="43.500301064641334" lon="18.721120117095555"><ele>438.0</ele><time>2026-05-03T14:24:55Z</time></trkpt><trkpt lat="43.500284360259435" lon="18.720791683815992"><ele>438.0</ele><time>2026-05-03T14:24:56Z</time></trkpt><trkpt lat="43.50030282054275" lon="18.720476196171592"><ele>438.0</ele><time>2026-05-03T14:24:57Z</time></trkpt><trkpt lat="43.50035162653622" lon="18.72017148837995"><ele>428.5</ele><time>2026-05-03T14:24:58Z</time></trkpt><trkpt lat="43.50043888290979" lon="18.719881789088795"><ele>419.0</ele><time>2026-05-03T14:24:59Z</time></trkpt><trkpt lat="43.500571687748305" lon="18.719620041414416"><ele>423.5</ele><time>2026-05-03T14:25:00Z</time></trkpt><trkpt lat="43.500728946024594" lon="18.719384005142306"><ele>428.0</ele><time>2026-05-03T14:25:01Z</time></trkpt><trkpt lat="43.5009093903502" lon="18.719167751756842"><ele>428.0</ele><time>2026-05-03T14:25:02Z</time></trkpt><trkpt lat="43.50108585100264" lon="18.718940762904314"><ele>428.0</ele><time>2026-05-03T14:25:03Z</time></trkpt><trkpt lat="43.50125504819589" lon="18.718719486639188"><ele>425.3333333333333</ele><time>2026-05-03T14:25:04Z</time></trkpt><trkpt lat="43.501415743149956" lon="18.718505881589014"><ele>422.66666666666663</ele><time>2026-05-03T14:25:05Z</time></trkpt><trkpt lat="43.50155540671423" lon="18.71831257187989"><ele>420.0</ele><time>2026-05-03T14:25:06Z</time></trkpt><trkpt lat="43.501702521357494" lon="18.718110684276315"><ele>420.0</ele><time>2026-05-03T14:25:07Z</time></trkpt><trkpt lat="43.501843551860155" lon="18.717917217868916"><ele>420.0</ele><time>2026-05-03T14:25:08Z</time></trkpt><trkpt lat="43.50197749114258" lon="18.71772952863588"><ele>420.0</ele><time>2026-05-03T14:25:09Z</time></trkpt><trkpt lat="43.5021118815157" lon="18.717526377500295"><ele>421.0</ele><time>2026-05-03T14:25:10Z</time></trkpt><trkpt lat="43.50223681674606" lon="18.717304332601586"><ele>422.0</ele><time>2026-05-03T14:25:11Z</time></trkpt><trkpt lat="43.50234724411659" lon="18.717068205594256"><ele>423.0</ele><time>2026-05-03T14:25:12Z</time></trkpt><trkpt lat="43.50243758968381" lon="18.716813676045195"><ele>423.66666666666663</ele><time>2026-05-03T14:25:13Z</time></trkpt><trkpt lat="43.50250311773351" lon="18.716535210984272"><ele>424.3333333333333</ele><time>2026-05-03T14:25:14Z</time></trkpt><trkpt lat="43.50254454929708" lon="18.716235436494127"><ele>425.0</ele><time>2026-05-03T14:25:15Z</time></trkpt><trkpt lat="43.50256281707047" lon="18.715934893698712"><ele>427.0</ele><time>2026-05-03T14:25:16Z</time></trkpt><trkpt lat="43.50255772253803" lon="18.71562662109858"><ele>429.0</ele><time>2026-05-03T14:25:17Z</time></trkpt><trkpt lat="43.50252322592054" lon="18.71533411949531"><ele>431.0</ele><time>2026-05-03T14:25:18Z</time></trkpt><trkpt lat="43.50248290689975" lon="18.715072780938822"><ele>431.0</ele><time>2026-05-03T14:25:19Z</time></trkpt><trkpt lat="43.50244348226961" lon="18.714821137383318"><ele>431.0</ele><time>2026-05-03T14:25:20Z</time></trkpt><trkpt lat="43.50241028756753" lon="18.714572940979583"><ele>431.0</ele><time>2026-05-03T14:25:21Z</time></trkpt><trkpt lat="43.502376938136415" lon="18.714327057452223"><ele>430.66666666666663</ele><time>2026-05-03T14:25:22Z</time></trkpt><trkpt lat="43.50234523899936" lon="18.714087414863247"><ele>430.33333333333337</ele><time>2026-05-03T14:25:23Z</time></trkpt><trkpt lat="43.50231682817853" lon="18.713843266211637"><ele>430.0</ele><time>2026-05-03T14:25:24Z</time></trkpt><trkpt lat="43.50230018685309" lon="18.71360329778337"><ele>429.6666666666667</ele><time>2026-05-03T14:25:25Z</time></trkpt><trkpt lat="43.502296218305496" lon="18.713361266248228"><ele>429.33333333333337</ele><time>2026-05-03T14:25:26Z</time></trkpt><trkpt lat="43.50231061971982" lon="18.713124098471226"><ele>429.0</ele><time>2026-05-03T14:25:27Z</time></trkpt><trkpt lat="43.50232442285576" lon="18.712873846318164"><ele>429.33333333333337</ele><time>2026-05-03T14:25:28Z</time></trkpt><trkpt lat="43.50233869386935" lon="18.712629246104278"><ele>429.6666666666667</ele><time>2026-05-03T14:25:29Z</time></trkpt><trkpt lat="43.50233266212909" lon="18.712400172258448"><ele>430.0</ele><time>2026-05-03T14:25:30Z</time></trkpt><trkpt lat="43.50230454781561" lon="18.712169636207104"><ele>430.0</ele><time>2026-05-03T14:25:31Z</time></trkpt><trkpt lat="43.50227987250243" lon="18.711933357935553"><ele>430.0</ele><time>2026-05-03T14:25:32Z</time></trkpt><trkpt lat="43.502215189159976" lon="18.711714410803577"><ele>430.0</ele><time>2026-05-03T14:25:33Z</time></trkpt><trkpt lat="43.50214533135437" lon="18.711515136307725"><ele>431.75</ele><time>2026-05-03T14:25:34Z</time></trkpt><trkpt lat="43.50208018082914" lon="18.711327682832255"><ele>433.5</ele><time>2026-05-03T14:25:35Z</time></trkpt><trkpt lat="43.50201827094854" lon="18.711145873741845"><ele>435.25</ele><time>2026-05-03T14:25:36Z</time></trkpt><trkpt lat="43.50195499384581" lon="18.710968244860883"><ele>437.0</ele><time>2026-05-03T14:25:37Z</time></trkpt><trkpt lat="43.50192855865711" lon="18.710790632666104"><ele>437.0</ele><time>2026-05-03T14:25:38Z</time></trkpt><trkpt lat="43.50192071589429" lon="18.710614735484775"><ele>437.0</ele><time>2026-05-03T14:25:39Z</time></trkpt><trkpt lat="43.50192603870191" lon="18.71044270803949"><ele>437.0</ele><time>2026-05-03T14:25:40Z</time></trkpt><trkpt lat="43.501939406269194" lon="18.7102787917599"><ele>437.0</ele><time>2026-05-03T14:25:41Z</time></trkpt><trkpt lat="43.5019614950766" lon="18.710112153104447"><ele>436.75</ele><time>2026-05-03T14:25:42Z</time></trkpt><trkpt lat="43.501994208195214" lon="18.709948310088077"><ele>436.5</ele><time>2026-05-03T14:25:43Z</time></trkpt><trkpt lat="43.502027179399555" lon="18.70979620258706"><ele>436.25</ele><time>2026-05-03T14:25:44Z</time></trkpt><trkpt lat="43.502058694805115" lon="18.709656372325618"><ele>436.0</ele><time>2026-05-03T14:25:45Z</time></trkpt><trkpt lat="43.50209254619034" lon="18.709507882663427"><ele>432.5</ele><time>2026-05-03T14:25:46Z</time></trkpt><trkpt lat="43.502126208374754" lon="18.709363206688927"><ele>429.0</ele><time>2026-05-03T14:25:47Z</time></trkpt><trkpt lat="43.502161528998556" lon="18.70922082902221"><ele>425.5</ele><time>2026-05-03T14:25:48Z</time></trkpt><trkpt lat="43.50219490408029" lon="18.709073446852756"><ele>422.0</ele><time>2026-05-03T14:25:49Z</time></trkpt><trkpt lat="43.502230448287605" lon="18.708913285518985"><ele>422.0</ele><time>2026-05-03T14:25:50Z</time></trkpt><trkpt lat="43.50226430698176" lon="18.70875369552394"><ele>422.0</ele><time>2026-05-03T14:25:51Z</time></trkpt><trkpt lat="43.502300859169594" lon="18.708598471034435"><ele>422.0</ele><time>2026-05-03T14:25:52Z</time></trkpt><trkpt lat="43.502334867642155" lon="18.708436500970155"><ele>422.0</ele><time>2026-05-03T14:25:53Z</time></trkpt><trkpt lat="43.50237140031322" lon="18.708269216933267"><ele>422.25</ele><time>2026-05-03T14:25:54Z</time></trkpt><trkpt lat="43.50242090907172" lon="18.70810287709901"><ele>422.5</ele><time>2026-05-03T14:25:55Z</time></trkpt><trkpt lat="43.50245683841807" lon="18.707931012875935"><ele>422.75</ele><time>2026-05-03T14:25:56Z</time></trkpt><trkpt lat="43.50248976662822" lon="18.707755071134994"><ele>423.0</ele><time>2026-05-03T14:25:57Z</time></trkpt><trkpt lat="43.50249979868876" lon="18.707568834546414"><ele>423.5</ele><time>2026-05-03T14:25:58Z</time></trkpt><trkpt lat="43.50251944919154" lon="18.707393491064174"><ele>424.0</ele><time>2026-05-03T14:25:59Z</time></trkpt><trkpt lat="43.502528839622656" lon="18.707215323186475"><ele>424.5</ele><time>2026-05-03T14:26:00Z</time></trkpt><trkpt lat="43.502528430672136" lon="18.70704533865767"><ele>425.0</ele><time>2026-05-03T14:26:01Z</time></trkpt><trkpt lat="43.50252177816316" lon="18.70687313360701"><ele>425.25</ele><time>2026-05-03T14:26:02Z</time></trkpt><trkpt lat="43.50250687812409" lon="18.706701190348276"><ele>425.5</ele><time>2026-05-03T14:26:03Z</time></trkpt><trkpt lat="43.50247974639033" lon="18.70652328017165"><ele>425.75</ele><time>2026-05-03T14:26:04Z</time></trkpt><trkpt lat="43.50244333168672" lon="18.70634203854736"><ele>426.0</ele><time>2026-05-03T14:26:05Z</time></trkpt><trkpt lat="43.502393678941786" lon="18.706157509901054"><ele>425.66666666666663</ele><time>2026-05-03T14:26:06Z</time></trkpt><trkpt lat="43.50235504453579" lon="18.70595664607804"><ele>425.3333333333333</ele><time>2026-05-03T14:26:07Z</time></trkpt><trkpt lat="43.50228779689162" lon="18.705744624385023"><ele>425.0</ele><time>2026-05-03T14:26:08Z</time></trkpt><trkpt lat="43.50220675254115" lon="18.705509174986773"><ele>427.0</ele><time>2026-05-03T14:26:09Z</time></trkpt><trkpt lat="43.502078648298365" lon="18.705257122756223"><ele>429.0</ele><time>2026-05-03T14:26:10Z</time></trkpt><trkpt lat="43.50194458875726" lon="18.704973433805403"><ele>429.5</ele><time>2026-05-03T14:26:11Z</time></trkpt><trkpt lat="43.50180048806656" lon="18.704666421998148"><ele>430.0</ele><time>2026-05-03T14:26:12Z</time></trkpt><trkpt lat="43.501645633866" lon="18.704357237629075"><ele>428.6666666666667</ele><time>2026-05-03T14:26:13Z</time></trkpt><trkpt lat="43.50152248066585" lon="18.704098964353392"><ele>427.33333333333337</ele><time>2026-05-03T14:26:14Z</time></trkpt><trkpt lat="43.50141264448127" lon="18.703831240203222"><ele>426.0</ele><time>2026-05-03T14:26:15Z</time></trkpt><trkpt lat="43.50132296327207" lon="18.70355489804113"><ele>425.33333333333337</ele><time>2026-05-03T14:26:16Z</time></trkpt><trkpt lat="43.50125024850367" lon="18.70327664563387"><ele>424.6666666666667</ele><time>2026-05-03T14:26:17Z</time></trkpt><trkpt lat="43.50119295825046" lon="18.702996428195473"><ele>424.0</ele><time>2026-05-03T14:26:18Z</time></trkpt><trkpt lat="43.501130241135215" lon="18.70271876711607"><ele>431.33333333333337</ele><time>2026-05-03T14:26:19Z</time></trkpt><trkpt lat="43.50111088892262" lon="18.702429466439067"><ele>438.66666666666663</ele><time>2026-05-03T14:26:20Z</time></trkpt><trkpt lat="43.501080731066764" lon="18.702140584244837"><ele>446.0</ele><time>2026-05-03T14:26:21Z</time></trkpt><trkpt lat="43.501039493674725" lon="18.70184684623052"><ele>446.66666666666663</ele><time>2026-05-03T14:26:22Z</time></trkpt><trkpt lat="43.50103339395052" lon="18.70155983321978"><ele>447.33333333333337</ele><time>2026-05-03T14:26:23Z</time></trkpt><trkpt lat="43.501065780539555" lon="18.701261836831726"><ele>448.0</ele><time>2026-05-03T14:26:24Z</time></trkpt><trkpt lat="43.50112852150765" lon="18.700970434550825"><ele>449.5</ele><time>2026-05-03T14:26:25Z</time></trkpt><trkpt lat="43.50120411449919" lon="18.700671665206894"><ele>451.0</ele><time>2026-05-03T14:26:26Z</time></trkpt><trkpt lat="43.50128324906634" lon="18.700371674796717"><ele>442.5</ele><time>2026-05-03T14:26:27Z</time></trkpt><trkpt lat="43.50137074636507" lon="18.700071730672583"><ele>434.0</ele><time>2026-05-03T14:26:28Z</time></trkpt><trkpt lat="43.50147268884753" lon="18.69977278330794"><ele>434.0</ele><time>2026-05-03T14:26:29Z</time></trkpt><trkpt lat="43.50162872589746" lon="18.699503558012022"><ele>434.0</ele><time>2026-05-03T14:26:30Z</time></trkpt><trkpt lat="43.50179411321209" lon="18.69926433080851"><ele>435.66666666666663</ele><time>2026-05-03T14:26:31Z</time></trkpt><trkpt lat="43.501939907794466" lon="18.699048996361903"><ele>437.33333333333337</ele><time>2026-05-03T14:26:32Z</time></trkpt><trkpt lat="43.502054875818295" lon="18.69880723347512"><ele>439.0</ele><time>2026-05-03T14:26:33Z</time></trkpt><trkpt lat="43.5021347921849" lon="18.69852717283262"><ele>439.0</ele><time>2026-05-03T14:26:34Z</time></trkpt><trkpt lat="43.502211977293776" lon="18.69823565952175"><ele>439.0</ele><time>2026-05-03T14:26:35Z</time></trkpt><trkpt lat="43.502296107304446" lon="18.69793805073002"><ele>440.0</ele><time>2026-05-03T14:26:36Z</time></trkpt><trkpt lat="43.50224565595832" lon="18.69757393665948"><ele>441.0</ele><time>2026-05-03T14:26:37Z</time></trkpt><trkpt lat="43.5022632208861" lon="18.69725697662897"><ele>441.0</ele><time>2026-05-03T14:26:38Z</time></trkpt><trkpt lat="43.502292204723894" lon="18.696957116248008"><ele>441.0</ele><time>2026-05-03T14:26:39Z</time></trkpt><trkpt lat="43.50234583624931" lon="18.696675381989316"><ele>441.0</ele><time>2026-05-03T14:26:40Z</time></trkpt><trkpt lat="43.502434990518246" lon="18.69642865711065"><ele>442.0</ele><time>2026-05-03T14:26:41Z</time></trkpt><trkpt lat="43.50256103325098" lon="18.696223783224905"><ele>443.0</ele><time>2026-05-03T14:26:42Z</time></trkpt><trkpt lat="43.50271858429702" lon="18.696051930713242"><ele>444.0</ele><time>2026-05-03T14:26:43Z</time></trkpt><trkpt lat="43.502900094845316" lon="18.69591589773769"><ele>443.0</ele><time>2026-05-03T14:26:44Z</time></trkpt><trkpt lat="43.50310394839754" lon="18.69579309486977"><ele>442.0</ele><time>2026-05-03T14:26:45Z</time></trkpt><trkpt lat="43.50333376448591" lon="18.69566702599806"><ele>442.0</ele><time>2026-05-03T14:26:46Z</time></trkpt><trkpt lat="43.50356944814106" lon="18.695518013921617"><ele>442.0</ele><time>2026-05-03T14:26:47Z</time></trkpt><trkpt lat="43.50378866443392" lon="18.695347709865253"><ele>443.5</ele><time>2026-05-03T14:26:48Z</time></trkpt><trkpt lat="43.503988679372874" lon="18.695166172317702"><ele>445.0</ele><time>2026-05-03T14:26:49Z</time></trkpt><trkpt lat="43.504169090137545" lon="18.694952280407232"><ele>445.0</ele><time>2026-05-03T14:26:50Z</time></trkpt><trkpt lat="43.50433145408359" lon="18.69470455611481"><ele>445.0</ele><time>2026-05-03T14:26:51Z</time></trkpt><trkpt lat="43.50447555321279" lon="18.69440803737907"><ele>446.5</ele><time>2026-05-03T14:26:52Z</time></trkpt><trkpt lat="43.50460435467802" lon="18.694076255546292"><ele>448.0</ele><time>2026-05-03T14:26:53Z</time></trkpt><trkpt lat="43.504729940729334" lon="18.693694357655673"><ele>449.0</ele><time>2026-05-03T14:26:54Z</time></trkpt><trkpt lat="43.50485252234309" lon="18.693320688107107"><ele>450.0</ele><time>2026-05-03T14:26:55Z</time></trkpt><trkpt lat="43.50495672042039" lon="18.69300081961488"><ele>453.0</ele><time>2026-05-03T14:26:56Z</time></trkpt><trkpt lat="43.50505398128947" lon="18.692709008256028"><ele>456.0</ele><time>2026-05-03T14:26:57Z</time></trkpt><trkpt lat="43.50513324642143" lon="18.69240642837379"><ele>456.0</ele><time>2026-05-03T14:26:58Z</time></trkpt><trkpt lat="43.50517670999506" lon="18.692087244634756"><ele>456.0</ele><time>2026-05-03T14:26:59Z</time></trkpt><trkpt lat="43.50517610149757" lon="18.691747337410415"><ele>462.0</ele><time>2026-05-03T14:27:00Z</time></trkpt><trkpt lat="43.50515345270847" lon="18.69139147351941"><ele>468.0</ele><time>2026-05-03T14:27:01Z</time></trkpt><trkpt lat="43.50512408828023" lon="18.691039149415243"><ele>468.5</ele><time>2026-05-03T14:27:02Z</time></trkpt><trkpt lat="43.505102740741485" lon="18.690708465343565"><ele>469.0</ele><time>2026-05-03T14:27:03Z</time></trkpt><trkpt lat="43.50511609240158" lon="18.690383600743797"><ele>471.0</ele><time>2026-05-03T14:27:04Z</time></trkpt><trkpt lat="43.50517086968635" lon="18.690063028998264"><ele>473.0</ele><time>2026-05-03T14:27:05Z</time></trkpt><trkpt lat="43.505237542823025" lon="18.68973163435072"><ele>477.5</ele><time>2026-05-03T14:27:06Z</time></trkpt><trkpt lat="43.50529876270542" lon="18.689398988563205"><ele>482.0</ele><time>2026-05-03T14:27:07Z</time></trkpt><trkpt lat="43.50536362463497" lon="18.689073471356437"><ele>474.3333333333333</ele><time>2026-05-03T14:27:08Z</time></trkpt><trkpt lat="43.505433295716585" lon="18.68877871953191"><ele>466.66666666666663</ele><time>2026-05-03T14:27:09Z</time></trkpt><trkpt lat="43.505515195389854" lon="18.688527655232093"><ele>459.0</ele><time>2026-05-03T14:27:10Z</time></trkpt><trkpt lat="43.505627858306035" lon="18.688323004159027"><ele>459.0</ele><time>2026-05-03T14:27:11Z</time></trkpt><trkpt lat="43.505782336520326" lon="18.688152981351156"><ele>459.0</ele><time>2026-05-03T14:27:12Z</time></trkpt><trkpt lat="43.50595528617983" lon="18.68801362239667"><ele>459.0</ele><time>2026-05-03T14:27:13Z</time></trkpt><trkpt lat="43.506136225176945" lon="18.68786935769376"><ele>457.5</ele><time>2026-05-03T14:27:14Z</time></trkpt><trkpt lat="43.50631196926265" lon="18.687685310916613"><ele>456.0</ele><time>2026-05-03T14:27:15Z</time></trkpt><trkpt lat="43.506476624503236" lon="18.687442270799245"><ele>456.0</ele><time>2026-05-03T14:27:16Z</time></trkpt><trkpt lat="43.506628155402204" lon="18.687151531859765"><ele>456.0</ele><time>2026-05-03T14:27:17Z</time></trkpt><trkpt lat="43.50676626104536" lon="18.686810907467652"><ele>459.0</ele><time>2026-05-03T14:27:18Z</time></trkpt><trkpt lat="43.50689072054624" lon="18.686433774471325"><ele>462.0</ele><time>2026-05-03T14:27:19Z</time></trkpt><trkpt lat="43.50699401524793" lon="18.68601929698076"><ele>459.5</ele><time>2026-05-03T14:27:20Z</time></trkpt><trkpt lat="43.50707997479891" lon="18.685599753673017"><ele>457.0</ele><time>2026-05-03T14:27:21Z</time></trkpt><trkpt lat="43.50716253664318" lon="18.685216517605177"><ele>457.0</ele><time>2026-05-03T14:27:22Z</time></trkpt><trkpt lat="43.507235615753245" lon="18.68484394618608"><ele>457.0</ele><time>2026-05-03T14:27:23Z</time></trkpt><trkpt lat="43.50729779782349" lon="18.684481229971034"><ele>459.5</ele><time>2026-05-03T14:27:24Z</time></trkpt><trkpt lat="43.507332321573045" lon="18.684141751885985"><ele>462.0</ele><time>2026-05-03T14:27:25Z</time></trkpt><trkpt lat="43.50733293248429" lon="18.68382334548465"><ele>461.66666666666663</ele><time>2026-05-03T14:27:26Z</time></trkpt><trkpt lat="43.50728043821562" lon="18.68352646523945"><ele>461.3333333333333</ele><time>2026-05-03T14:27:27Z</time></trkpt><trkpt lat="43.50718908942774" lon="18.683278163608605"><ele>461.0</ele><time>2026-05-03T14:27:28Z</time></trkpt><trkpt lat="43.507110211853615" lon="18.68305345059795"><ele>459.66666666666663</ele><time>2026-05-03T14:27:29Z</time></trkpt><trkpt lat="43.50707662575067" lon="18.68283081721009"><ele>458.33333333333337</ele><time>2026-05-03T14:27:30Z</time></trkpt><trkpt lat="43.50708535692524" lon="18.682601275698055"><ele>457.0</ele><time>2026-05-03T14:27:31Z</time></trkpt><trkpt lat="43.50713810732832" lon="18.6823652939997"><ele>457.0</ele><time>2026-05-03T14:27:32Z</time></trkpt><trkpt lat="43.50722553532057" lon="18.682147395481664"><ele>457.0</ele><time>2026-05-03T14:27:33Z</time></trkpt><trkpt lat="43.50735492315461" lon="18.681941816691563"><ele>457.0</ele><time>2026-05-03T14:27:34Z</time></trkpt><trkpt lat="43.50748680099814" lon="18.681757772485117"><ele>461.6666666666667</ele><time>2026-05-03T14:27:35Z</time></trkpt><trkpt lat="43.507630402284995" lon="18.681580217215462"><ele>466.33333333333337</ele><time>2026-05-03T14:27:36Z</time></trkpt><trkpt lat="43.50775793972661" lon="18.681373326895304"><ele>471.0</ele><time>2026-05-03T14:27:37Z</time></trkpt><trkpt lat="43.50786744506589" lon="18.681133202969953"><ele>467.5</ele><time>2026-05-03T14:27:38Z</time></trkpt><trkpt lat="43.50795505402518" lon="18.68084547038557"><ele>464.0</ele><time>2026-05-03T14:27:39Z</time></trkpt><trkpt lat="43.508011274608414" lon="18.68051333879069"><ele>465.0</ele><time>2026-05-03T14:27:40Z</time></trkpt><trkpt lat="43.508063940502055" lon="18.68013099318896"><ele>466.0</ele><time>2026-05-03T14:27:41Z</time></trkpt><trkpt lat="43.508123160988276" lon="18.67970308213635"><ele>468.5</ele><time>2026-05-03T14:27:42Z</time></trkpt><trkpt lat="43.508203547743825" lon="18.679254043187015"><ele>471.0</ele><time>2026-05-03T14:27:43Z</time></trkpt><trkpt lat="43.508282936946664" lon="18.678800535175732"><ele>471.0</ele><time>2026-05-03T14:27:44Z</time></trkpt><trkpt lat="43.508354977420744" lon="18.678324215632742"><ele>471.0</ele><time>2026-05-03T14:27:45Z</time></trkpt><trkpt lat="43.5084149951397" lon="18.677845711434003"><ele>473.0</ele><time>2026-05-03T14:27:46Z</time></trkpt><trkpt lat="43.508463611308606" lon="18.677400294420657"><ele>475.0</ele><time>2026-05-03T14:27:47Z</time></trkpt><trkpt lat="43.50851296596467" lon="18.676996870870628"><ele>480.0</ele><time>2026-05-03T14:27:48Z</time></trkpt><trkpt lat="43.508563130952076" lon="18.676621663043395"><ele>485.0</ele><time>2026-05-03T14:27:49Z</time></trkpt><trkpt lat="43.5086129375666" lon="18.67627600156944"><ele>487.5</ele><time>2026-05-03T14:27:50Z</time></trkpt><trkpt lat="43.50866381003625" lon="18.675955012721186"><ele>490.0</ele><time>2026-05-03T14:27:51Z</time></trkpt><trkpt lat="43.508727140548835" lon="18.675652142536844"><ele>494.0</ele><time>2026-05-03T14:27:52Z</time></trkpt><trkpt lat="43.508819461959646" lon="18.675382479017635"><ele>498.0</ele><time>2026-05-03T14:27:53Z</time></trkpt><trkpt lat="43.50894280690434" lon="18.675148551197694"><ele>502.0</ele><time>2026-05-03T14:27:54Z</time></trkpt><trkpt lat="43.50908970279689" lon="18.674924698228335"><ele>502.0</ele><time>2026-05-03T14:27:55Z</time></trkpt><trkpt lat="43.5092697570918" lon="18.674738711137557"><ele>502.0</ele><time>2026-05-03T14:27:56Z</time></trkpt><trkpt lat="43.5094643088288" lon="18.674580977143215"><ele>499.0</ele><time>2026-05-03T14:27:57Z</time></trkpt><trkpt lat="43.50966323161031" lon="18.674457345856812"><ele>496.0</ele><time>2026-05-03T14:27:58Z</time></trkpt><trkpt lat="43.50984062195605" lon="18.674329814062222"><ele>493.0</ele><time>2026-05-03T14:27:59Z</time></trkpt><trkpt lat="43.509995084983615" lon="18.67416074785328"><ele>493.0</ele><time>2026-05-03T14:28:00Z</time></trkpt><trkpt lat="43.51013287162904" lon="18.67393251554712"><ele>493.0</ele><time>2026-05-03T14:28:01Z</time></trkpt><trkpt lat="43.510256407637485" lon="18.673650503416813"><ele>499.5</ele><time>2026-05-03T14:28:02Z</time></trkpt><trkpt lat="43.51039077525023" lon="18.673329860480283"><ele>506.0</ele><time>2026-05-03T14:28:03Z</time></trkpt><trkpt lat="43.51053622068033" lon="18.672978899406804"><ele>506.0</ele><time>2026-05-03T14:28:04Z</time></trkpt><trkpt lat="43.51068439290768" lon="18.672601846321182"><ele>506.0</ele><time>2026-05-03T14:28:05Z</time></trkpt><trkpt lat="43.51082491886557" lon="18.6722364280283"><ele>506.0</ele><time>2026-05-03T14:28:06Z</time></trkpt><trkpt lat="43.510945131101344" lon="18.671909395245095"><ele>506.0</ele><time>2026-05-03T14:28:07Z</time></trkpt><trkpt lat="43.51105851800901" lon="18.671610909613598"><ele>506.0</ele><time>2026-05-03T14:28:08Z</time></trkpt><trkpt lat="43.51117114912168" lon="18.67133428313138"><ele>506.0</ele><time>2026-05-03T14:28:09Z</time></trkpt><trkpt lat="43.511291084127" lon="18.671088611620846"><ele>506.0</ele><time>2026-05-03T14:28:10Z</time></trkpt><trkpt lat="43.511423229545294" lon="18.67087867251248"><ele>506.0</ele><time>2026-05-03T14:28:11Z</time></trkpt><trkpt lat="43.51156630572258" lon="18.670718196293652"><ele>506.0</ele><time>2026-05-03T14:28:12Z</time></trkpt><trkpt lat="43.51172216645567" lon="18.670584371968527"><ele>506.0</ele><time>2026-05-03T14:28:13Z</time></trkpt><trkpt lat="43.51188393850738" lon="18.670466551014677"><ele>506.0</ele><time>2026-05-03T14:28:14Z</time></trkpt><trkpt lat="43.51205526541598" lon="18.670367013518398"><ele>506.0</ele><time>2026-05-03T14:28:15Z</time></trkpt><trkpt lat="43.51222705932371" lon="18.670266308411872"><ele>506.0</ele><time>2026-05-03T14:28:16Z</time></trkpt><trkpt lat="43.51240297401313" lon="18.670160072875365"><ele>506.0</ele><time>2026-05-03T14:28:17.026Z</time></trkpt><trkpt lat="43.51257541987986" lon="18.670060024064362"><ele>506.0</ele><time>2026-05-03T14:28:18.02Z</time></trkpt><trkpt lat="43.51275461369803" lon="18.669975386743214"><ele>506.0</ele><time>2026-05-03T14:28:19.02Z</time></trkpt><trkpt lat="43.51291774878128" lon="18.669886295614127"><ele>506.0</ele><time>2026-05-03T14:28:20Z</time></trkpt><trkpt lat="43.51308341952272" lon="18.669625529245366"><ele>506.0</ele><time>2026-05-03T14:28:21Z</time></trkpt><trkpt lat="43.51326018746359" lon="18.66935692610839"><ele>506.0</ele><time>2026-05-03T14:28:22Z</time></trkpt><trkpt lat="43.51346176414676" lon="18.66906645661142"><ele>506.0</ele><time>2026-05-03T14:28:23Z</time></trkpt><trkpt lat="43.51366877960947" lon="18.66874786482961"><ele>626.5</ele><time>2026-05-03T14:28:24Z</time></trkpt><trkpt lat="43.513876598552564" lon="18.668433575347496"><ele>747.0</ele><time>2026-05-03T14:28:25Z</time></trkpt><trkpt lat="43.51406999467071" lon="18.668097276169856"><ele>736.5</ele><time>2026-05-03T14:28:26Z</time></trkpt><trkpt lat="43.51424980617297" lon="18.66771915633919"><ele>726.0</ele><time>2026-05-03T14:28:27Z</time></trkpt><trkpt lat="43.51441632255519" lon="18.66729809219041"><ele>646.0</ele><time>2026-05-03T14:28:28Z</time></trkpt><trkpt lat="43.51458204754423" lon="18.666849532169604"><ele>566.0</ele><time>2026-05-03T14:28:29Z</time></trkpt><trkpt lat="43.51474759042629" lon="18.666397149504963"><ele>543.0</ele><time>2026-05-03T14:28:30Z</time></trkpt><trkpt lat="43.514920799878055" lon="18.66595491565277"><ele>520.0</ele><time>2026-05-03T14:28:31Z</time></trkpt><trkpt lat="43.515085892784754" lon="18.665516908012464"><ele>517.0</ele><time>2026-05-03T14:28:32Z</time></trkpt><trkpt lat="43.51524190031578" lon="18.66507307161047"><ele>514.0</ele><time>2026-05-03T14:28:33Z</time></trkpt><trkpt lat="43.515374810600484" lon="18.66462945618592"><ele>530.0</ele><time>2026-05-03T14:28:34Z</time></trkpt><trkpt lat="43.515496646711156" lon="18.664223755077582"><ele>546.0</ele><time>2026-05-03T14:28:35Z</time></trkpt><trkpt lat="43.51561842485097" lon="18.66386126132252"><ele>526.5</ele><time>2026-05-03T14:28:36Z</time></trkpt><trkpt lat="43.51574066293198" lon="18.66352187294649"><ele>507.0</ele><time>2026-05-03T14:28:37Z</time></trkpt><trkpt lat="43.515870318283845" lon="18.66323540444607"><ele>507.0</ele><time>2026-05-03T14:28:38Z</time></trkpt><trkpt lat="43.51602157636146" lon="18.66300142062535"><ele>507.0</ele><time>2026-05-03T14:28:39Z</time></trkpt><trkpt lat="43.516204587765706" lon="18.662802006517758"><ele>519.5</ele><time>2026-05-03T14:28:40Z</time></trkpt><trkpt lat="43.516401505924044" lon="18.662611551836218"><ele>532.0</ele><time>2026-05-03T14:28:41Z</time></trkpt><trkpt lat="43.51659064986233" lon="18.662415431481126"><ele>532.0</ele><time>2026-05-03T14:28:42Z</time></trkpt><trkpt lat="43.51677746556102" lon="18.662208190148334"><ele>532.0</ele><time>2026-05-03T14:28:43Z</time></trkpt><trkpt lat="43.51695543522185" lon="18.661968873013365"><ele>546.0</ele><time>2026-05-03T14:28:44Z</time></trkpt><trkpt lat="43.51711042647274" lon="18.66167514169319"><ele>560.0</ele><time>2026-05-03T14:28:45Z</time></trkpt><trkpt lat="43.51723327322824" lon="18.66133494131752"><ele>545.5</ele><time>2026-05-03T14:28:46Z</time></trkpt><trkpt lat="43.517346552497266" lon="18.66099058678787"><ele>531.0</ele><time>2026-05-03T14:28:47Z</time></trkpt><trkpt lat="43.517487237055235" lon="18.660654279125218"><ele>531.0</ele><time>2026-05-03T14:28:48Z</time></trkpt><trkpt lat="43.51766548272455" lon="18.66034616797641"><ele>531.0</ele><time>2026-05-03T14:28:49Z</time></trkpt><trkpt lat="43.517836306666915" lon="18.660071381841284"><ele>551.0</ele><time>2026-05-03T14:28:50Z</time></trkpt><trkpt lat="43.517994039816465" lon="18.659819600433412"><ele>571.0</ele><time>2026-05-03T14:28:51Z</time></trkpt><trkpt lat="43.51814611512919" lon="18.659562862036857"><ele>558.5</ele><time>2026-05-03T14:28:52Z</time></trkpt><trkpt lat="43.51828804822777" lon="18.65930570642694"><ele>546.0</ele><time>2026-05-03T14:28:53Z</time></trkpt><trkpt lat="43.51843417763202" lon="18.659045404098382"><ele>546.0</ele><time>2026-05-03T14:28:54.013Z</time></trkpt><trkpt lat="43.51858449099153" lon="18.658792267892796"><ele>546.0</ele><time>2026-05-03T14:28:55.023Z</time></trkpt><trkpt lat="43.51872513472381" lon="18.658540082149333"><ele>545.5</ele><time>2026-05-03T14:28:56.016Z</time></trkpt><trkpt lat="43.5188684900128" lon="18.65829261073633"><ele>545.0</ele><time>2026-05-03T14:28:57.015Z</time></trkpt><trkpt lat="43.51865133274674" lon="18.65787598306188"><ele>542.6666666666666</ele><time>2026-05-03T14:29:00Z</time></trkpt><trkpt lat="43.51864940200625" lon="18.65765981973566"><ele>540.3333333333334</ele><time>2026-05-03T14:29:01Z</time></trkpt><trkpt lat="43.51868938501467" lon="18.657467945427022"><ele>538.0</ele><time>2026-05-03T14:29:02Z</time></trkpt><trkpt lat="43.518683247079075" lon="18.657247118098198"><ele>538.0</ele><time>2026-05-03T14:29:03Z</time></trkpt><trkpt lat="43.51867943331855" lon="18.657034804808077"><ele>538.0</ele><time>2026-05-03T14:29:04Z</time></trkpt><trkpt lat="43.518676178745686" lon="18.656816845069184"><ele>538.0</ele><time>2026-05-03T14:29:05.029Z</time></trkpt><trkpt lat="43.51715256464064" lon="18.655755529197542"><ele>567.5</ele><time>2026-05-03T14:29:11Z</time></trkpt><trkpt lat="43.516946433168826" lon="18.655563744394083"><ele>597.0</ele><time>2026-05-03T14:29:12Z</time></trkpt><trkpt lat="43.51671548019278" lon="18.655373439399067"><ele>588.0</ele><time>2026-05-03T14:29:13Z</time></trkpt><trkpt lat="43.51649778880305" lon="18.655184599864644"><ele>579.0</ele><time>2026-05-03T14:29:14Z</time></trkpt><trkpt lat="43.51629690376657" lon="18.65508847097988"><ele>592.0</ele><time>2026-05-03T14:29:15Z</time></trkpt><trkpt lat="43.51617601182066" lon="18.654905665382422"><ele>605.0</ele><time>2026-05-03T14:29:16Z</time></trkpt><trkpt lat="43.51598926114026" lon="18.654629683763403"><ele>590.5</ele><time>2026-05-03T14:29:17Z</time></trkpt><trkpt lat="43.515848137054796" lon="18.65426471445898"><ele>576.0</ele><time>2026-05-03T14:29:18Z</time></trkpt><trkpt lat="43.515669235813235" lon="18.65397883249845"><ele>571.5</ele><time>2026-05-03T14:29:19Z</time></trkpt><trkpt lat="43.51549284953599" lon="18.65358683479315"><ele>567.0</ele><time>2026-05-03T14:29:20Z</time></trkpt><trkpt lat="43.515279911884605" lon="18.653168974754916"><ele>553.5</ele><time>2026-05-03T14:29:21Z</time></trkpt><trkpt lat="43.515087006360346" lon="18.652795537527357"><ele>540.0</ele><time>2026-05-03T14:29:22Z</time></trkpt><trkpt lat="43.51489974133224" lon="18.65242044565485"><ele>540.0</ele><time>2026-05-03T14:29:23Z</time></trkpt><trkpt lat="43.51474368809243" lon="18.652104664911324"><ele>540.0</ele><time>2026-05-03T14:29:24Z</time></trkpt><trkpt lat="43.51460880868873" lon="18.65181480645208"><ele>547.5</ele><time>2026-05-03T14:29:25Z</time></trkpt><trkpt lat="43.51448981049693" lon="18.65154007035682"><ele>555.0</ele><time>2026-05-03T14:29:26Z</time></trkpt><trkpt lat="43.51438548233059" lon="18.651249849761353"><ele>547.0</ele><time>2026-05-03T14:29:27Z</time></trkpt><trkpt lat="43.51427366838882" lon="18.65094932305184"><ele>539.0</ele><time>2026-05-03T14:29:28Z</time></trkpt><trkpt lat="43.51415765391781" lon="18.650652111029654"><ele>534.5</ele><time>2026-05-03T14:29:29Z</time></trkpt><trkpt lat="43.51418973014412" lon="18.650141101484365"><ele>530.0</ele><time>2026-05-03T14:29:30Z</time></trkpt><trkpt lat="43.514127239144216" lon="18.64975482686764"><ele>529.0</ele><time>2026-05-03T14:29:31Z</time></trkpt><trkpt lat="43.514067664580296" lon="18.649373095666363"><ele>528.0</ele><time>2026-05-03T14:29:32Z</time></trkpt><trkpt lat="43.51400297721369" lon="18.649001674657804"><ele>528.0</ele><time>2026-05-03T14:29:33Z</time></trkpt><trkpt lat="43.51393404132377" lon="18.648643527848616"><ele>528.0</ele><time>2026-05-03T14:29:34Z</time></trkpt><trkpt lat="43.51385356134306" lon="18.64832389260237"><ele>527.5</ele><time>2026-05-03T14:29:35Z</time></trkpt><trkpt lat="43.51375349946776" lon="18.648040034975285"><ele>527.0</ele><time>2026-05-03T14:29:36Z</time></trkpt><trkpt lat="43.51362570473654" lon="18.647757867440745"><ele>528.6666666666666</ele><time>2026-05-03T14:29:37Z</time></trkpt><trkpt lat="43.51348955604521" lon="18.647526457595003"><ele>530.3333333333334</ele><time>2026-05-03T14:29:38Z</time></trkpt><trkpt lat="43.51336089190123" lon="18.647332281469843"><ele>532.0</ele><time>2026-05-03T14:29:39Z</time></trkpt><trkpt lat="43.51323301419462" lon="18.647158238635328"><ele>532.0</ele><time>2026-05-03T14:29:40Z</time></trkpt><trkpt lat="43.513107331952725" lon="18.647009228169047"><ele>532.0</ele><time>2026-05-03T14:29:41Z</time></trkpt><trkpt lat="43.512982491885744" lon="18.64687801616474"><ele>532.0</ele><time>2026-05-03T14:29:42Z</time></trkpt><trkpt lat="43.51286065727632" lon="18.646763163281587"><ele>532.25</ele><time>2026-05-03T14:29:43Z</time></trkpt><trkpt lat="43.51273829796514" lon="18.64666213674237"><ele>532.5</ele><time>2026-05-03T14:29:44Z</time></trkpt><trkpt lat="43.51261928158787" lon="18.646584639865896"><ele>532.75</ele><time>2026-05-03T14:29:45Z</time></trkpt><trkpt lat="43.512501456208106" lon="18.646511532130695"><ele>533.0</ele><time>2026-05-03T14:29:46Z</time></trkpt><trkpt lat="43.5123808208923" lon="18.64644551571453"><ele>533.0</ele><time>2026-05-03T14:29:47Z</time></trkpt><trkpt lat="43.512258897156556" lon="18.64638186809624"><ele>533.0</ele><time>2026-05-03T14:29:48Z</time></trkpt><trkpt lat="43.5121389696191" lon="18.64631242159192"><ele>533.0</ele><time>2026-05-03T14:29:49Z</time></trkpt><trkpt lat="43.51202122457342" lon="18.64622278090341"><ele>533.0</ele><time>2026-05-03T14:29:50Z</time></trkpt><trkpt lat="43.51191088594125" lon="18.646107804571535"><ele>533.0</ele><time>2026-05-03T14:29:51Z</time></trkpt><trkpt lat="43.511808982356726" lon="18.645978124188176"><ele>533.0</ele><time>2026-05-03T14:29:52Z</time></trkpt><trkpt lat="43.51172131368348" lon="18.64583167788115"><ele>533.0</ele><time>2026-05-03T14:29:53Z</time></trkpt><trkpt lat="43.511645182780065" lon="18.645673808996825"><ele>533.0</ele><time>2026-05-03T14:29:54Z</time></trkpt><trkpt lat="43.511581930132756" lon="18.645520687466796"><ele>533.0</ele><time>2026-05-03T14:29:55Z</time></trkpt><trkpt lat="43.51152559324421" lon="18.645374377032816"><ele>533.0</ele><time>2026-05-03T14:29:56Z</time></trkpt><trkpt lat="43.51147043465044" lon="18.645233863367718"><ele>533.0</ele><time>2026-05-03T14:29:57Z</time></trkpt><trkpt lat="43.51141918964972" lon="18.645089265897855"><ele>533.0</ele><time>2026-05-03T14:29:58Z</time></trkpt><trkpt lat="43.511363546117195" lon="18.644948472502893"><ele>533.5</ele><time>2026-05-03T14:29:59Z</time></trkpt><trkpt lat="43.511301493840826" lon="18.644810374077412"><ele>534.0</ele><time>2026-05-03T14:30:00Z</time></trkpt><trkpt lat="43.51122786407234" lon="18.64468259256565"><ele>534.5</ele><time>2026-05-03T14:30:01Z</time></trkpt><trkpt lat="43.51114655177549" lon="18.644558467493294"><ele>535.0</ele><time>2026-05-03T14:30:02Z</time></trkpt><trkpt lat="43.51105724833026" lon="18.64444370976209"><ele>533.5</ele><time>2026-05-03T14:30:03Z</time></trkpt><trkpt lat="43.51095927735437" lon="18.644337465262748"><ele>532.0</ele><time>2026-05-03T14:30:04Z</time></trkpt><trkpt lat="43.51085399880431" lon="18.644242245055537"><ele>530.5</ele><time>2026-05-03T14:30:05Z</time></trkpt><trkpt lat="43.51074340303261" lon="18.644158147680976"><ele>529.0</ele><time>2026-05-03T14:30:06Z</time></trkpt><trkpt lat="43.51062664922419" lon="18.644085834493925"><ele>529.0</ele><time>2026-05-03T14:30:07Z</time></trkpt><trkpt lat="43.510506669499" lon="18.644023329622478"><ele>529.0</ele><time>2026-05-03T14:30:08Z</time></trkpt><trkpt lat="43.51038140065258" lon="18.64396834419601"><ele>529.0</ele><time>2026-05-03T14:30:09Z</time></trkpt><trkpt lat="43.51025546090079" lon="18.643920794187878"><ele>529.0</ele><time>2026-05-03T14:30:10Z</time></trkpt><trkpt lat="43.51012901034907" lon="18.643875552674135"><ele>530.0</ele><time>2026-05-03T14:30:11Z</time></trkpt><trkpt lat="43.51000315385841" lon="18.64382962128467"><ele>531.0</ele><time>2026-05-03T14:30:12Z</time></trkpt><trkpt lat="43.509875265267624" lon="18.64377807162505"><ele>532.0</ele><time>2026-05-03T14:30:13Z</time></trkpt><trkpt lat="43.50975031411324" lon="18.64372515761396"><ele>533.0</ele><time>2026-05-03T14:30:14Z</time></trkpt><trkpt lat="43.50962297851825" lon="18.64366392716277"><ele>534.0</ele><time>2026-05-03T14:30:15Z</time></trkpt><trkpt lat="43.50950252682964" lon="18.643596424524183"><ele>535.0</ele><time>2026-05-03T14:30:16Z</time></trkpt><trkpt lat="43.50938282509793" lon="18.643521537824387"><ele>536.0</ele><time>2026-05-03T14:30:17Z</time></trkpt><trkpt lat="43.50926104989849" lon="18.643429286324057"><ele>537.0</ele><time>2026-05-03T14:30:18Z</time></trkpt><trkpt lat="43.50914775763415" lon="18.6433180379803"><ele>537.0</ele><time>2026-05-03T14:30:19Z</time></trkpt><trkpt lat="43.509028786769385" lon="18.643195944702406"><ele>537.0</ele><time>2026-05-03T14:30:20Z</time></trkpt><trkpt lat="43.50891290269775" lon="18.643061527309168"><ele>537.0</ele><time>2026-05-03T14:30:21Z</time></trkpt><trkpt lat="43.508799112724994" lon="18.64290604060906"><ele>535.6666666666666</ele><time>2026-05-03T14:30:22Z</time></trkpt><trkpt lat="43.508688516701866" lon="18.64273894956179"><ele>534.3333333333333</ele><time>2026-05-03T14:30:23Z</time></trkpt><trkpt lat="43.508578848423355" lon="18.64255232768003"><ele>533.0</ele><time>2026-05-03T14:30:24Z</time></trkpt><trkpt lat="43.50847875967863" lon="18.642352032197444"><ele>533.0</ele><time>2026-05-03T14:30:25Z</time></trkpt><trkpt lat="43.50838609607599" lon="18.642137262979688"><ele>533.0</ele><time>2026-05-03T14:30:26Z</time></trkpt><trkpt lat="43.50829064606248" lon="18.64191879459533"><ele>533.0</ele><time>2026-05-03T14:30:27Z</time></trkpt><trkpt lat="43.508207275097554" lon="18.641704169091184"><ele>532.0</ele><time>2026-05-03T14:30:28Z</time></trkpt><trkpt lat="43.50812536390327" lon="18.641490452083797"><ele>531.0</ele><time>2026-05-03T14:30:29Z</time></trkpt><trkpt lat="43.508050733287085" lon="18.641273088646702"><ele>530.0</ele><time>2026-05-03T14:30:30Z</time></trkpt><trkpt lat="43.50796771227689" lon="18.64103973472978"><ele>533.6666666666666</ele><time>2026-05-03T14:30:31Z</time></trkpt><trkpt lat="43.50790100979707" lon="18.64080134728632"><ele>537.3333333333334</ele><time>2026-05-03T14:30:32Z</time></trkpt><trkpt lat="43.507839031151796" lon="18.640558573735852"><ele>541.0</ele><time>2026-05-03T14:30:33Z</time></trkpt><trkpt lat="43.507777423949875" lon="18.640301522980636"><ele>539.3333333333334</ele><time>2026-05-03T14:30:34Z</time></trkpt><trkpt lat="43.507722412744386" lon="18.640029388349657"><ele>537.6666666666666</ele><time>2026-05-03T14:30:35Z</time></trkpt><trkpt lat="43.50767797710126" lon="18.63976286545434"><ele>536.0</ele><time>2026-05-03T14:30:36Z</time></trkpt><trkpt lat="43.50763937349669" lon="18.639487863824012"><ele>535.0</ele><time>2026-05-03T14:30:37Z</time></trkpt><trkpt lat="43.507609705631936" lon="18.639198667824846"><ele>534.0</ele><time>2026-05-03T14:30:38Z</time></trkpt><trkpt lat="43.507589846727015" lon="18.63891899910781"><ele>533.0</ele><time>2026-05-03T14:30:39Z</time></trkpt><trkpt lat="43.50757154616128" lon="18.638657991644727"><ele>531.6666666666666</ele><time>2026-05-03T14:30:40Z</time></trkpt><trkpt lat="43.507560648218075" lon="18.63840150879849"><ele>530.3333333333334</ele><time>2026-05-03T14:30:41Z</time></trkpt><trkpt lat="43.507563228161914" lon="18.638141662500743"><ele>529.0</ele><time>2026-05-03T14:30:42Z</time></trkpt><trkpt lat="43.507567603398975" lon="18.637868443388662"><ele>530.3333333333334</ele><time>2026-05-03T14:30:43Z</time></trkpt><trkpt lat="43.507579457205935" lon="18.637612142954797"><ele>531.6666666666666</ele><time>2026-05-03T14:30:44Z</time></trkpt><trkpt lat="43.507590276105496" lon="18.637359611722957"><ele>533.0</ele><time>2026-05-03T14:30:45Z</time></trkpt><trkpt lat="43.507603782094534" lon="18.63709794160839"><ele>532.6666666666666</ele><time>2026-05-03T14:30:46Z</time></trkpt><trkpt lat="43.50761455201323" lon="18.636822205012486"><ele>532.3333333333334</ele><time>2026-05-03T14:30:47Z</time></trkpt><trkpt lat="43.50761419246918" lon="18.636542261135624"><ele>532.0</ele><time>2026-05-03T14:30:48Z</time></trkpt><trkpt lat="43.50760837033246" lon="18.63626142799946"><ele>530.6666666666667</ele><time>2026-05-03T14:30:49Z</time></trkpt><trkpt lat="43.50759241207141" lon="18.635983741703598"><ele>529.3333333333334</ele><time>2026-05-03T14:30:50Z</time></trkpt><trkpt lat="43.507568120171975" lon="18.63570192944916"><ele>528.0</ele><time>2026-05-03T14:30:51Z</time></trkpt><trkpt lat="43.50753904601714" lon="18.63542414054202"><ele>527.6666666666666</ele><time>2026-05-03T14:30:52Z</time></trkpt><trkpt lat="43.5075025046183" lon="18.635158929682337"><ele>527.3333333333333</ele><time>2026-05-03T14:30:53Z</time></trkpt><trkpt lat="43.507462457531105" lon="18.634905364895026"><ele>527.0</ele><time>2026-05-03T14:30:54Z</time></trkpt><trkpt lat="43.507413928920926" lon="18.63465029225455"><ele>526.0</ele><time>2026-05-03T14:30:55Z</time></trkpt><trkpt lat="43.507367736654366" lon="18.634403373422547"><ele>525.0</ele><time>2026-05-03T14:30:56Z</time></trkpt><trkpt lat="43.50732122368504" lon="18.634162201970483"><ele>524.0</ele><time>2026-05-03T14:30:57Z</time></trkpt><trkpt lat="43.507277947521324" lon="18.633918740890497"><ele>524.0</ele><time>2026-05-03T14:30:58Z</time></trkpt><trkpt lat="43.50724313851732" lon="18.633680819510392"><ele>524.0</ele><time>2026-05-03T14:30:59Z</time></trkpt><trkpt lat="43.50722340557401" lon="18.633450662392097"><ele>524.0</ele><time>2026-05-03T14:31:00Z</time></trkpt><trkpt lat="43.50721338789835" lon="18.63321245332573"><ele>523.0</ele><time>2026-05-03T14:31:01Z</time></trkpt><trkpt lat="43.507213715951536" lon="18.632971694483444"><ele>522.0</ele><time>2026-05-03T14:31:02Z</time></trkpt><trkpt lat="43.50723009816925" lon="18.632735915040087"><ele>521.0</ele><time>2026-05-03T14:31:03Z</time></trkpt><trkpt lat="43.507256250385645" lon="18.63249641194925"><ele>521.0</ele><time>2026-05-03T14:31:04Z</time></trkpt><trkpt lat="43.50729266235697" lon="18.63226428295386"><ele>521.0</ele><time>2026-05-03T14:31:05Z</time></trkpt><trkpt lat="43.507339392498494" lon="18.632023929426982"><ele>521.0</ele><time>2026-05-03T14:31:06Z</time></trkpt><trkpt lat="43.50739731492325" lon="18.631782162262915"><ele>521.0</ele><time>2026-05-03T14:31:07Z</time></trkpt><trkpt lat="43.50747133394838" lon="18.63152500150233"><ele>521.0</ele><time>2026-05-03T14:31:08Z</time></trkpt><trkpt lat="43.50756410248767" lon="18.631280045161017"><ele>521.0</ele><time>2026-05-03T14:31:09Z</time></trkpt><trkpt lat="43.50767067869321" lon="18.631040059201947"><ele>520.3333333333333</ele><time>2026-05-03T14:31:10Z</time></trkpt><trkpt lat="43.50778892681178" lon="18.630811969247002"><ele>519.6666666666666</ele><time>2026-05-03T14:31:11Z</time></trkpt><trkpt lat="43.50791701128538" lon="18.630583013511107"><ele>519.0</ele><time>2026-05-03T14:31:12Z</time></trkpt><trkpt lat="43.50804117903863" lon="18.63035301158689"><ele>519.6666666666666</ele><time>2026-05-03T14:31:13Z</time></trkpt><trkpt lat="43.50817017688714" lon="18.630109398872605"><ele>520.3333333333333</ele><time>2026-05-03T14:31:14Z</time></trkpt><trkpt lat="43.50829131638537" lon="18.629850181068097"><ele>521.0</ele><time>2026-05-03T14:31:15Z</time></trkpt><trkpt lat="43.50840092359048" lon="18.629580260569362"><ele>522.0</ele><time>2026-05-03T14:31:16Z</time></trkpt><trkpt lat="43.50849074507405" lon="18.629289092227804"><ele>523.0</ele><time>2026-05-03T14:31:17Z</time></trkpt><trkpt lat="43.508569528567484" lon="18.62898608156031"><ele>523.0</ele><time>2026-05-03T14:31:18Z</time></trkpt><trkpt lat="43.508633078653936" lon="18.62865456493542"><ele>523.0</ele><time>2026-05-03T14:31:19Z</time></trkpt><trkpt lat="43.50869613618376" lon="18.6283151578174"><ele>518.5</ele><time>2026-05-03T14:31:20Z</time></trkpt><trkpt lat="43.50875705195305" lon="18.62798760872685"><ele>514.0</ele><time>2026-05-03T14:31:21Z</time></trkpt><trkpt lat="43.50883379388798" lon="18.627690304486386"><ele>514.0</ele><time>2026-05-03T14:31:22Z</time></trkpt><trkpt lat="43.50893596968763" lon="18.62742587242969"><ele>514.0</ele><time>2026-05-03T14:31:23Z</time></trkpt><trkpt lat="43.50906034848255" lon="18.627177165237594"><ele>514.0</ele><time>2026-05-03T14:31:24Z</time></trkpt><trkpt lat="43.50918943332033" lon="18.626955990411624"><ele>514.3333333333334</ele><time>2026-05-03T14:31:25Z</time></trkpt><trkpt lat="43.509332282451474" lon="18.626752650293184"><ele>514.6666666666666</ele><time>2026-05-03T14:31:26Z</time></trkpt><trkpt lat="43.5094829669106" lon="18.626574841027175"><ele>515.0</ele><time>2026-05-03T14:31:27Z</time></trkpt><trkpt lat="43.509640672451596" lon="18.62640942350008"><ele>515.0</ele><time>2026-05-03T14:31:28Z</time></trkpt><trkpt lat="43.509801448031624" lon="18.62623743125574"><ele>515.0</ele><time>2026-05-03T14:31:29Z</time></trkpt><trkpt lat="43.509960817466954" lon="18.626061036485936"><ele>515.0</ele><time>2026-05-03T14:31:30Z</time></trkpt><trkpt lat="43.51012411915928" lon="18.62587998160393"><ele>515.3333333333333</ele><time>2026-05-03T14:31:31Z</time></trkpt><trkpt lat="43.51028165491965" lon="18.62570396192092"><ele>515.6666666666666</ele><time>2026-05-03T14:31:32Z</time></trkpt><trkpt lat="43.51044537045725" lon="18.62551881233243"><ele>516.0</ele><time>2026-05-03T14:31:33Z</time></trkpt><trkpt lat="43.510607671893105" lon="18.625334873188205"><ele>518.0</ele><time>2026-05-03T14:31:34Z</time></trkpt><trkpt lat="43.510763900020414" lon="18.625140196023636"><ele>520.0</ele><time>2026-05-03T14:31:35Z</time></trkpt><trkpt lat="43.51089793596062" lon="18.624933557278784"><ele>522.0</ele><time>2026-05-03T14:31:36Z</time></trkpt><trkpt lat="43.51103057275067" lon="18.624709539975253"><ele>522.0</ele><time>2026-05-03T14:31:37Z</time></trkpt><trkpt lat="43.51115939050583" lon="18.62447030608365"><ele>522.0</ele><time>2026-05-03T14:31:38Z</time></trkpt><trkpt lat="43.51126390324614" lon="18.62422179958416"><ele>522.0</ele><time>2026-05-03T14:31:39Z</time></trkpt><trkpt lat="43.51136131415789" lon="18.623957210519592"><ele>522.0</ele><time>2026-05-03T14:31:40Z</time></trkpt><trkpt lat="43.511440058031035" lon="18.623692945688905"><ele>522.0</ele><time>2026-05-03T14:31:41Z</time></trkpt><trkpt lat="43.51150068039159" lon="18.623435591724387"><ele>522.0</ele><time>2026-05-03T14:31:42Z</time></trkpt><trkpt lat="43.51154646241297" lon="18.623164859744517"><ele>523.3333333333334</ele><time>2026-05-03T14:31:43Z</time></trkpt><trkpt lat="43.511580342658355" lon="18.622882072391317"><ele>524.6666666666667</ele><time>2026-05-03T14:31:44Z</time></trkpt><trkpt lat="43.511592203578715" lon="18.622596101084003"><ele>526.0</ele><time>2026-05-03T14:31:45Z</time></trkpt><trkpt lat="43.51158913048365" lon="18.622306258809132"><ele>526.3333333333334</ele><time>2026-05-03T14:31:46Z</time></trkpt><trkpt lat="43.511577001914" lon="18.622027161146423"><ele>526.6666666666666</ele><time>2026-05-03T14:31:47Z</time></trkpt><trkpt lat="43.51156604969568" lon="18.62173889823094"><ele>527.0</ele><time>2026-05-03T14:31:48Z</time></trkpt><trkpt lat="43.51155254696612" lon="18.621478264294172"><ele>526.0</ele><time>2026-05-03T14:31:49Z</time></trkpt><trkpt lat="43.5115407749889" lon="18.621226682167112"><ele>525.0</ele><time>2026-05-03T14:31:50Z</time></trkpt><trkpt lat="43.51154853889643" lon="18.620963081142705"><ele>524.0</ele><time>2026-05-03T14:31:51Z</time></trkpt><trkpt lat="43.51157554206296" lon="18.620699581885276"><ele>523.6666666666666</ele><time>2026-05-03T14:31:52Z</time></trkpt><trkpt lat="43.51162107662857" lon="18.62043571855472"><ele>523.3333333333334</ele><time>2026-05-03T14:31:53Z</time></trkpt><trkpt lat="43.51168552681965" lon="18.620193065901606"><ele>523.0</ele><time>2026-05-03T14:31:54Z</time></trkpt><trkpt lat="43.51176269643" lon="18.619963295463428"><ele>524.6666666666667</ele><time>2026-05-03T14:31:55Z</time></trkpt><trkpt lat="43.51184947091116" lon="18.619751645358786"><ele>526.3333333333334</ele><time>2026-05-03T14:31:56Z</time></trkpt><trkpt lat="43.51194352426357" lon="18.619552189221977"><ele>528.0</ele><time>2026-05-03T14:31:57Z</time></trkpt><trkpt lat="43.512026678973605" lon="18.619414362081514"><ele>526.5</ele><time>2026-05-03T14:31:58Z</time></trkpt><trkpt lat="43.512087691196555" lon="18.619327109402338"><ele>525.0</ele><time>2026-05-03T14:31:59Z</time></trkpt><trkpt lat="43.51213222728378" lon="18.619263674359225"><ele>523.5</ele><time>2026-05-03T14:32:00Z</time></trkpt><trkpt lat="43.512168679370426" lon="18.61918889440929"><ele>522.0</ele><time>2026-05-03T14:32:02Z</time></trkpt><trkpt lat="43.51216848418743" lon="18.619092953863618"><ele>520.5</ele><time>2026-05-03T14:32:09Z</time></trkpt><trkpt lat="43.512188518338924" lon="18.61898673353684"><ele>519.0</ele><time>2026-05-03T14:32:11Z</time></trkpt><trkpt lat="43.51223917267316" lon="18.618834413552705"><ele>519.0</ele><time>2026-05-03T14:32:13Z</time></trkpt><trkpt lat="43.51226239821498" lon="18.618673110170835"><ele>519.0</ele><time>2026-05-03T14:32:15Z</time></trkpt><trkpt lat="43.51223777046019" lon="18.61855393533406"><ele>519.0</ele><time>2026-05-03T14:32:17Z</time></trkpt><trkpt lat="43.51215024342208" lon="18.618487537845034"><ele>519.0</ele><time>2026-05-03T14:32:19Z</time></trkpt><trkpt lat="43.512084963559424" lon="18.61846752486153"><ele>519.0</ele><time>2026-05-03T14:32:20Z</time></trkpt><trkpt lat="43.512015063973955" lon="18.618428983446996"><ele>521.5</ele><time>2026-05-03T14:32:21Z</time></trkpt><trkpt lat="43.5119542312222" lon="18.618382349766645"><ele>524.0</ele><time>2026-05-03T14:32:22Z</time></trkpt><trkpt lat="43.511894585544674" lon="18.61832721912129"><ele>526.5</ele><time>2026-05-03T14:32:23Z</time></trkpt><trkpt lat="43.51182987864319" lon="18.61826688755233"><ele>529.0</ele><time>2026-05-03T14:32:24Z</time></trkpt><trkpt lat="43.51176559874568" lon="18.618204031364577"><ele>531.5</ele><time>2026-05-03T14:32:25Z</time></trkpt><trkpt lat="43.51170566578679" lon="18.61814519626252"><ele>534.0</ele><time>2026-05-03T14:32:26Z</time></trkpt><trkpt lat="43.51161516004746" lon="18.618044492974978"><ele>534.0</ele><time>2026-05-03T14:32:28Z</time></trkpt><trkpt lat="43.51155999121608" lon="18.617998425763986"><ele>534.0</ele><time>2026-05-03T14:32:29Z</time></trkpt><trkpt lat="43.5114828639243" lon="18.617917046162056"><ele>534.0</ele><time>2026-05-03T14:32:31Z</time></trkpt><trkpt lat="43.511507003668" lon="18.617809853194544"><ele>534.0</ele><time>2026-05-03T14:32:33Z</time></trkpt><trkpt lat="43.511596379498556" lon="18.617755061185264"><ele>534.0</ele><time>2026-05-03T14:32:35Z</time></trkpt><trkpt lat="43.51171100280969" lon="18.617788865084336"><ele>534.0000000000001</ele><time>2026-05-03T14:32:37Z</time></trkpt><trkpt lat="43.51178570730893" lon="18.617823832397686"><ele>534.0</ele><time>2026-05-03T14:32:38Z</time></trkpt><trkpt lat="43.51186066229082" lon="18.617841817185617"><ele>534.0</ele><time>2026-05-03T14:32:39Z</time></trkpt><trkpt lat="43.5119280153079" lon="18.617839566043127"><ele>534.0</ele><time>2026-05-03T14:32:40Z</time></trkpt><trkpt lat="43.5119904469892" lon="18.61781586820108"><ele>534.0</ele><time>2026-05-03T14:32:41Z</time></trkpt><trkpt lat="43.51206160583511" lon="18.617780486185364"><ele>534.0000000000001</ele><time>2026-05-03T14:32:42Z</time></trkpt><trkpt lat="43.51213576478876" lon="18.6177236339845"><ele>534.0</ele><time>2026-05-03T14:32:43Z</time></trkpt><trkpt lat="43.512203285458526" lon="18.61766181162813"><ele>537.0</ele><time>2026-05-03T14:32:44Z</time></trkpt><trkpt lat="43.512304897182865" lon="18.617584660604663"><ele>540.0</ele><time>2026-05-03T14:32:45Z</time></trkpt><trkpt lat="43.51238203539971" lon="18.6175253676376"><ele>543.0</ele><time>2026-05-03T14:32:46Z</time></trkpt><trkpt lat="43.51245964888299" lon="18.617490137917766"><ele>546.0</ele><time>2026-05-03T14:32:47Z</time></trkpt><trkpt lat="43.51254928930274" lon="18.617464116036032"><ele>549.0</ele><time>2026-05-03T14:32:48Z</time></trkpt><trkpt lat="43.51263496541716" lon="18.617427880330403"><ele>549.0</ele><time>2026-05-03T14:32:49Z</time></trkpt><trkpt lat="43.51271647752412" lon="18.617383513757606"><ele>549.0</ele><time>2026-05-03T14:32:50Z</time></trkpt><trkpt lat="43.51278530553899" lon="18.61732574234174"><ele>549.0</ele><time>2026-05-03T14:32:51Z</time></trkpt><trkpt lat="43.512851836704954" lon="18.617251404598246"><ele>549.0</ele><time>2026-05-03T14:32:52Z</time></trkpt><trkpt lat="43.512930431364005" lon="18.617152469018016"><ele>549.0</ele><time>2026-05-03T14:32:53Z</time></trkpt><trkpt lat="43.5129988152705" lon="18.617048886544577"><ele>550.8</ele><time>2026-05-03T14:32:54Z</time></trkpt><trkpt lat="43.513064577262746" lon="18.61694442066031"><ele>552.5999999999999</ele><time>2026-05-03T14:32:55Z</time></trkpt><trkpt lat="43.51313691237818" lon="18.61683056475042"><ele>554.4</ele><time>2026-05-03T14:32:56Z</time></trkpt><trkpt lat="43.51320977980052" lon="18.61673889646518"><ele>556.1999999999999</ele><time>2026-05-03T14:32:57Z</time></trkpt><trkpt lat="43.51330147227979" lon="18.616634435391934"><ele>558.0</ele><time>2026-05-03T14:32:58Z</time></trkpt><trkpt lat="43.513394266950385" lon="18.616516560479916"><ele>558.0</ele><time>2026-05-03T14:32:59Z</time></trkpt><trkpt lat="43.513472741750135" lon="18.61640619548101"><ele>558.0</ele><time>2026-05-03T14:33:00Z</time></trkpt><trkpt lat="43.5135430169654" lon="18.616298017105663"><ele>558.0</ele><time>2026-05-03T14:33:01Z</time></trkpt><trkpt lat="43.513593397302316" lon="18.61620703876462"><ele>558.0</ele><time>2026-05-03T14:33:02Z</time></trkpt><trkpt lat="43.51362790693483" lon="18.616116854361135"><ele>558.0</ele><time>2026-05-03T14:33:03Z</time></trkpt><trkpt lat="43.513625021206096" lon="18.615960287573348"><ele>558.0</ele><time>2026-05-03T14:33:05Z</time></trkpt><trkpt lat="43.51354446958938" lon="18.61591585520516"><ele>558.0</ele><time>2026-05-03T14:33:07Z</time></trkpt><trkpt lat="43.51345223681291" lon="18.615964562212522"><ele>558.0</ele><time>2026-05-03T14:33:09Z</time></trkpt><trkpt lat="43.5133618377751" lon="18.616103582686094"><ele>558.0</ele><time>2026-05-03T14:33:11Z</time></trkpt><trkpt lat="43.51328321593294" lon="18.61617688887994"><ele>558.0</ele><time>2026-05-03T14:33:12Z</time></trkpt><trkpt lat="43.51320198161232" lon="18.61620349263938"><ele>558.0</ele><time>2026-05-03T14:33:13Z</time></trkpt><trkpt lat="43.51310577328093" lon="18.616228581542615"><ele>558.0</ele><time>2026-05-03T14:33:14Z</time></trkpt><trkpt lat="43.51301198036839" lon="18.616248163646272"><ele>558.0</ele><time>2026-05-03T14:33:15Z</time></trkpt><trkpt lat="43.5129127554771" lon="18.616264037729103"><ele>558.0</ele><time>2026-05-03T14:33:16Z</time></trkpt><trkpt lat="43.51281659817392" lon="18.616222731575753"><ele>558.0</ele><time>2026-05-03T14:33:17Z</time></trkpt><trkpt lat="43.512711795116026" lon="18.616217751218937"><ele>560.0</ele><time>2026-05-03T14:33:18Z</time></trkpt><trkpt lat="43.51260367094048" lon="18.61621652518959"><ele>562.0</ele><time>2026-05-03T14:33:19Z</time></trkpt><trkpt lat="43.512489008895194" lon="18.61618549384986"><ele>564.0</ele><time>2026-05-03T14:33:20Z</time></trkpt><trkpt lat="43.51236868922021" lon="18.616169476947913"><ele>566.0</ele><time>2026-05-03T14:33:21Z</time></trkpt><trkpt lat="43.51224581407119" lon="18.616149965308928"><ele>568.2</ele><time>2026-05-03T14:33:22Z</time></trkpt><trkpt lat="43.512105363808296" lon="18.616112012093623"><ele>570.4000000000001</ele><time>2026-05-03T14:33:23Z</time></trkpt><trkpt lat="43.51198927239772" lon="18.616071927067296"><ele>572.6</ele><time>2026-05-03T14:33:24Z</time></trkpt><trkpt lat="43.51189272003983" lon="18.616042855192294"><ele>574.8000000000001</ele><time>2026-05-03T14:33:25Z</time></trkpt><trkpt lat="43.51181120208246" lon="18.616005643446268"><ele>577.0</ele><time>2026-05-03T14:33:26Z</time></trkpt><trkpt lat="43.51175860062049" lon="18.61593883479041"><ele>577.0</ele><time>2026-05-03T14:33:27Z</time></trkpt><trkpt lat="43.511733201187994" lon="18.615832783630005"><ele>577.0</ele><time>2026-05-03T14:33:28Z</time></trkpt><trkpt lat="43.51172449810161" lon="18.61570934542376"><ele>577.0</ele><time>2026-05-03T14:33:29Z</time></trkpt><trkpt lat="43.511688639044564" lon="18.61558261206951"><ele>577.0</ele><time>2026-05-03T14:33:30Z</time></trkpt><trkpt lat="43.51165021258331" lon="18.615443434225146"><ele>577.0</ele><time>2026-05-03T14:33:31Z</time></trkpt><trkpt lat="43.511641299342266" lon="18.615315003458647"><ele>579.0</ele><time>2026-05-03T14:33:32Z</time></trkpt><trkpt lat="43.51163040868236" lon="18.615189496084614"><ele>581.0</ele><time>2026-05-03T14:33:33Z</time></trkpt><trkpt lat="43.511615797706085" lon="18.615076521566625"><ele>583.0</ele><time>2026-05-03T14:33:34Z</time></trkpt><trkpt lat="43.51160112934446" lon="18.61496569247651"><ele>585.0</ele><time>2026-05-03T14:33:35Z</time></trkpt><trkpt lat="43.511555205420585" lon="18.614805349074647"><ele>587.0</ele><time>2026-05-03T14:33:37Z</time></trkpt><trkpt lat="43.511425359055686" lon="18.614793038607615"><ele>587.0</ele><time>2026-05-03T14:33:38Z</time></trkpt><trkpt lat="43.51132283360163" lon="18.614768784822346"><ele>587.0</ele><time>2026-05-03T14:33:39Z</time></trkpt><trkpt lat="43.51119010009561" lon="18.614742597514933"><ele>587.0</ele><time>2026-05-03T14:33:40Z</time></trkpt><trkpt lat="43.51105321942694" lon="18.61470530188593"><ele>587.0</ele><time>2026-05-03T14:33:41Z</time></trkpt><trkpt lat="43.51090113690006" lon="18.61466151430436"><ele>587.0</ele><time>2026-05-03T14:33:42Z</time></trkpt><trkpt lat="43.51072960111552" lon="18.614630004306477"><ele>587.0</ele><time>2026-05-03T14:33:43Z</time></trkpt><trkpt lat="43.51055007389086" lon="18.614607020498074"><ele>587.0</ele><time>2026-05-03T14:33:44Z</time></trkpt><trkpt lat="43.51039055853033" lon="18.61460862789342"><ele>587.25</ele><time>2026-05-03T14:33:45Z</time></trkpt><trkpt lat="43.51024373788303" lon="18.614610677953692"><ele>587.5</ele><time>2026-05-03T14:33:46Z</time></trkpt><trkpt lat="43.510102175792724" lon="18.614600071041366"><ele>587.75</ele><time>2026-05-03T14:33:47Z</time></trkpt><trkpt lat="43.50996696343639" lon="18.614574156810225"><ele>588.0</ele><time>2026-05-03T14:33:48Z</time></trkpt><trkpt lat="43.50980913387985" lon="18.61453525115503"><ele>588.0</ele><time>2026-05-03T14:33:49Z</time></trkpt><trkpt lat="43.50965845329324" lon="18.614501726120768"><ele>588.0</ele><time>2026-05-03T14:33:50Z</time></trkpt><trkpt lat="43.50953375359507" lon="18.61449353274736"><ele>588.0</ele><time>2026-05-03T14:33:51Z</time></trkpt><trkpt lat="43.50941894520164" lon="18.61449978292765"><ele>588.0</ele><time>2026-05-03T14:33:52Z</time></trkpt><trkpt lat="43.50930695077787" lon="18.614517438411223"><ele>589.3333333333334</ele><time>2026-05-03T14:33:53Z</time></trkpt><trkpt lat="43.50921090657631" lon="18.614532827511084"><ele>590.6666666666666</ele><time>2026-05-03T14:33:54Z</time></trkpt><trkpt lat="43.509133654491116" lon="18.61452476718225"><ele>592.0</ele><time>2026-05-03T14:33:55Z</time></trkpt><trkpt lat="43.50907232214042" lon="18.61457313520713"><ele>593.3333333333333</ele><time>2026-05-03T14:33:56Z</time></trkpt><trkpt lat="43.508983356476435" lon="18.61460944534107"><ele>594.6666666666666</ele><time>2026-05-03T14:33:58Z</time></trkpt><trkpt lat="43.50893746528366" lon="18.6145202948207"><ele>596.0</ele><time>2026-05-03T14:34:00Z</time></trkpt><trkpt lat="43.50902321535293" lon="18.614437335469646"><ele>601.75</ele><time>2026-05-03T14:34:02Z</time></trkpt><trkpt lat="43.50909173745334" lon="18.61443886929722"><ele>607.5</ele><time>2026-05-03T14:34:03Z</time></trkpt><trkpt lat="43.50919539361011" lon="18.614389006205744"><ele>613.25</ele><time>2026-05-03T14:34:04Z</time></trkpt><trkpt lat="43.509325728705555" lon="18.614347346759626"><ele>619.0</ele><time>2026-05-03T14:34:05Z</time></trkpt><trkpt lat="43.50947853384023" lon="18.614299225773333"><ele>618.0</ele><time>2026-05-03T14:34:06Z</time></trkpt><trkpt lat="43.50961738319601" lon="18.614224658653114"><ele>617.0</ele><time>2026-05-03T14:34:07Z</time></trkpt><trkpt lat="43.50975638664623" lon="18.61416723527995"><ele>616.0</ele><time>2026-05-03T14:34:08Z</time></trkpt><trkpt lat="43.50990413058446" lon="18.614118081280605"><ele>615.0</ele><time>2026-05-03T14:34:09Z</time></trkpt><trkpt lat="43.5100745757444" lon="18.614042584750067"><ele>615.0</ele><time>2026-05-03T14:34:10Z</time></trkpt><trkpt lat="43.51025297693089" lon="18.613963613702914"><ele>615.0</ele><time>2026-05-03T14:34:11Z</time></trkpt><trkpt lat="43.510416854017" lon="18.613890813461317"><ele>615.0</ele><time>2026-05-03T14:34:12Z</time></trkpt><trkpt lat="43.51059347166966" lon="18.61382433412704"><ele>614.0</ele><time>2026-05-03T14:34:13Z</time></trkpt><trkpt lat="43.510775729952236" lon="18.613746543541396"><ele>613.0</ele><time>2026-05-03T14:34:14Z</time></trkpt><trkpt lat="43.51095580243647" lon="18.61369338861005"><ele>612.0</ele><time>2026-05-03T14:34:15Z</time></trkpt><trkpt lat="43.51112292090502" lon="18.61367480783993"><ele>621.0</ele><time>2026-05-03T14:34:16Z</time></trkpt><trkpt lat="43.51128331092171" lon="18.61364192299453"><ele>630.0</ele><time>2026-05-03T14:34:17Z</time></trkpt><trkpt lat="43.51146419206892" lon="18.613545841646182"><ele>639.0</ele><time>2026-05-03T14:34:18Z</time></trkpt><trkpt lat="43.51162713778909" lon="18.613458567111387"><ele>639.0</ele><time>2026-05-03T14:34:19Z</time></trkpt><trkpt lat="43.511766947296756" lon="18.61338370702812"><ele>639.0</ele><time>2026-05-03T14:34:20Z</time></trkpt><trkpt lat="43.511922697641346" lon="18.613299745934047"><ele>639.0</ele><time>2026-05-03T14:34:21Z</time></trkpt><trkpt lat="43.51209149194675" lon="18.61320974741444"><ele>638.25</ele><time>2026-05-03T14:34:22Z</time></trkpt><trkpt lat="43.51224247233673" lon="18.613133018147824"><ele>637.5</ele><time>2026-05-03T14:34:23Z</time></trkpt><trkpt lat="43.51237470145829" lon="18.61306602204159"><ele>636.75</ele><time>2026-05-03T14:34:24Z</time></trkpt><trkpt lat="43.512493507848646" lon="18.61300559412015"><ele>636.0</ele><time>2026-05-03T14:34:25Z</time></trkpt><trkpt lat="43.51261773901996" lon="18.61294213698729"><ele>636.0</ele><time>2026-05-03T14:34:26Z</time></trkpt><trkpt lat="43.512753992961905" lon="18.612859807383707"><ele>636.0</ele><time>2026-05-03T14:34:27Z</time></trkpt><trkpt lat="43.51288448719514" lon="18.612752765176907"><ele>636.0</ele><time>2026-05-03T14:34:28Z</time></trkpt><trkpt lat="43.51301122990736" lon="18.612679984880476"><ele>636.0</ele><time>2026-05-03T14:34:29Z</time></trkpt><trkpt lat="43.51312475287842" lon="18.612596445558108"><ele>638.6</ele><time>2026-05-03T14:34:30Z</time></trkpt><trkpt lat="43.51324225011075" lon="18.612554953828134"><ele>641.2</ele><time>2026-05-03T14:34:31Z</time></trkpt><trkpt lat="43.513346175107905" lon="18.612521481838325"><ele>643.8000000000001</ele><time>2026-05-03T14:34:32Z</time></trkpt><trkpt lat="43.51343724789347" lon="18.612525214451644"><ele>646.4000000000001</ele><time>2026-05-03T14:34:33Z</time></trkpt><trkpt lat="43.51351278660464" lon="18.612518201308855"><ele>649.0</ele><time>2026-05-03T14:34:34Z</time></trkpt><trkpt lat="43.51360634098053" lon="18.612509515324597"><ele>648.9999999999999</ele><time>2026-05-03T14:34:36Z</time></trkpt><trkpt lat="43.51361435923088" lon="18.612418010875636"><ele>649.0</ele><time>2026-05-03T14:34:37Z</time></trkpt><trkpt lat="43.51359687157116" lon="18.61230505051985"><ele>649.0</ele><time>2026-05-03T14:34:39Z</time></trkpt><trkpt lat="43.51352990827265" lon="18.612278010765923"><ele>649.0</ele><time>2026-05-03T14:34:41Z</time></trkpt><trkpt lat="43.51346725717377" lon="18.612288812110844"><ele>649.0</ele><time>2026-05-03T14:34:43Z</time></trkpt><trkpt lat="43.513383447657255" lon="18.612306943662414"><ele>648.9999999999999</ele><time>2026-05-03T14:34:45Z</time></trkpt><trkpt lat="43.51330386100249" lon="18.61231613699778"><ele>649.0</ele><time>2026-05-03T14:34:47Z</time></trkpt><trkpt lat="43.513230798870524" lon="18.612320286262687"><ele>649.0</ele><time>2026-05-03T14:34:49Z</time></trkpt><trkpt lat="43.51315207180351" lon="18.61232479880614"><ele>649.0</ele><time>2026-05-03T14:34:51Z</time></trkpt><trkpt lat="43.51306352472362" lon="18.612330036113278"><ele>649.0</ele><time>2026-05-03T14:34:53Z</time></trkpt><trkpt lat="43.51296871707501" lon="18.612335781703734"><ele>649.0</ele><time>2026-05-03T14:34:55Z</time></trkpt><trkpt lat="43.512884602962124" lon="18.612340253495262"><ele>649.0</ele><time>2026-05-03T14:34:57Z</time></trkpt><trkpt lat="43.51281234641513" lon="18.61235811965211"><ele>649.0</ele><time>2026-05-03T14:34:59Z</time></trkpt><trkpt lat="43.5127289055956" lon="18.612350486815142"><ele>651.0</ele><time>2026-05-03T14:35:01Z</time></trkpt><trkpt lat="43.512636790253204" lon="18.6123333876305"><ele>653.0</ele><time>2026-05-03T14:35:03Z</time></trkpt><trkpt lat="43.512529221075845" lon="18.612324133179786"><ele>655.0</ele><time>2026-05-03T14:35:05Z</time></trkpt><trkpt lat="43.512458789969635" lon="18.612309988675612"><ele>657.0</ele><time>2026-05-03T14:35:06Z</time></trkpt><trkpt lat="43.512376138204516" lon="18.612295122879985"><ele>659.0</ele><time>2026-05-03T14:35:07Z</time></trkpt><trkpt lat="43.51227172071207" lon="18.612278681802078"><ele>659.0</ele><time>2026-05-03T14:35:08Z</time></trkpt><trkpt lat="43.51216534148308" lon="18.612263836371472"><ele>659.0</ele><time>2026-05-03T14:35:09Z</time></trkpt><trkpt lat="43.51204047773825" lon="18.612242813758"><ele>659.0</ele><time>2026-05-03T14:35:10Z</time></trkpt><trkpt lat="43.5118999800147" lon="18.612224067149747"><ele>659.0</ele><time>2026-05-03T14:35:11Z</time></trkpt><trkpt lat="43.511781996946695" lon="18.612187365890225"><ele>660.0</ele><time>2026-05-03T14:35:12Z</time></trkpt><trkpt lat="43.51165287515359" lon="18.612218469224263"><ele>661.0</ele><time>2026-05-03T14:35:13Z</time></trkpt><trkpt lat="43.511547170505445" lon="18.61228862127699"><ele>662.0</ele><time>2026-05-03T14:35:14Z</time></trkpt><trkpt lat="43.51142911932796" lon="18.61234141887045"><ele>663.0</ele><time>2026-05-03T14:35:15Z</time></trkpt><trkpt lat="43.511323557080004" lon="18.612392693748596"><ele>663.8333333333334</ele><time>2026-05-03T14:35:16Z</time></trkpt><trkpt lat="43.511226612593646" lon="18.61242435862654"><ele>664.6666666666666</ele><time>2026-05-03T14:35:17Z</time></trkpt><trkpt lat="43.511147408593125" lon="18.612440078842766"><ele>665.5</ele><time>2026-05-03T14:35:18Z</time></trkpt><trkpt lat="43.51108067975901" lon="18.61239682932328"><ele>666.3333333333333</ele><time>2026-05-03T14:35:19Z</time></trkpt><trkpt lat="43.510960540081726" lon="18.612376411988116"><ele>667.1666666666666</ele><time>2026-05-03T14:35:21Z</time></trkpt><trkpt lat="43.51089602659171" lon="18.612332348682664"><ele>668.0</ele><time>2026-05-03T14:35:22Z</time></trkpt><trkpt lat="43.51082232009299" lon="18.612286716920053"><ele>668.0</ele><time>2026-05-03T14:35:23Z</time></trkpt><trkpt lat="43.510763761748954" lon="18.612217326057124"><ele>668.0</ele><time>2026-05-03T14:35:24Z</time></trkpt><trkpt lat="43.510699037500665" lon="18.612148889180215"><ele>668.0</ele><time>2026-05-03T14:35:25Z</time></trkpt><trkpt lat="43.51061621534959" lon="18.612101388286373"><ele>668.0</ele><time>2026-05-03T14:35:26Z</time></trkpt><trkpt lat="43.51050199474124" lon="18.61204418842717"><ele>668.0</ele><time>2026-05-03T14:35:27Z</time></trkpt><trkpt lat="43.510353199159944" lon="18.611988137967245"><ele>674.75</ele><time>2026-05-03T14:35:28Z</time></trkpt><trkpt lat="43.51020796586371" lon="18.611930847391427"><ele>681.5</ele><time>2026-05-03T14:35:29Z</time></trkpt><trkpt lat="43.5100911235239" lon="18.611901061032025"><ele>688.25</ele><time>2026-05-03T14:35:30Z</time></trkpt><trkpt lat="43.50999198205516" lon="18.61184018905011"><ele>695.0</ele><time>2026-05-03T14:35:31Z</time></trkpt><trkpt lat="43.509877501105684" lon="18.611782181007715"><ele>695.0</ele><time>2026-05-03T14:35:32Z</time></trkpt><trkpt lat="43.509742423236695" lon="18.61173734738883"><ele>695.0</ele><time>2026-05-03T14:35:33Z</time></trkpt><trkpt lat="43.509598104445686" lon="18.611658777022633"><ele>695.0</ele><time>2026-05-03T14:35:34Z</time></trkpt><trkpt lat="43.50944116058926" lon="18.6115512004501"><ele>693.0</ele><time>2026-05-03T14:35:35Z</time></trkpt><trkpt lat="43.509286223258734" lon="18.611461566412576"><ele>691.0</ele><time>2026-05-03T14:35:36Z</time></trkpt><trkpt lat="43.50914159826285" lon="18.611378062554383"><ele>689.0</ele><time>2026-05-03T14:35:37Z</time></trkpt><trkpt lat="43.50902704920557" lon="18.611312432242766"><ele>687.0</ele><time>2026-05-03T14:35:38Z</time></trkpt><trkpt lat="43.50891231089842" lon="18.611246214840765"><ele>687.0</ele><time>2026-05-03T14:35:39Z</time></trkpt><trkpt lat="43.5087909553524" lon="18.61117596012297"><ele>687.0</ele><time>2026-05-03T14:35:40Z</time></trkpt><trkpt lat="43.508678924887704" lon="18.61111130350913"><ele>687.0</ele><time>2026-05-03T14:35:41Z</time></trkpt><trkpt lat="43.50855947087286" lon="18.61104495518652"><ele>687.0</ele><time>2026-05-03T14:35:42Z</time></trkpt><trkpt lat="43.50844922056665" lon="18.61099897749605"><ele>690.75</ele><time>2026-05-03T14:35:43Z</time></trkpt><trkpt lat="43.508320618953235" lon="18.610904508460713"><ele>694.5</ele><time>2026-05-03T14:35:44Z</time></trkpt><trkpt lat="43.50816231294813" lon="18.61090163261987"><ele>698.25</ele><time>2026-05-03T14:35:45Z</time></trkpt><trkpt lat="43.508024322505044" lon="18.61085119181015"><ele>702.0</ele><time>2026-05-03T14:35:46Z</time></trkpt><trkpt lat="43.50789459563263" lon="18.610799281377748"><ele>702.0</ele><time>2026-05-03T14:35:47Z</time></trkpt><trkpt lat="43.507774445120155" lon="18.61073090888496"><ele>702.0</ele><time>2026-05-03T14:35:48Z</time></trkpt><trkpt lat="43.50765644727878" lon="18.610668572616245"><ele>702.0</ele><time>2026-05-03T14:35:49Z</time></trkpt><trkpt lat="43.50753458634185" lon="18.610601046839136"><ele>702.0</ele><time>2026-05-03T14:35:50Z</time></trkpt><trkpt lat="43.50741925580947" lon="18.610514650500146"><ele>702.0</ele><time>2026-05-03T14:35:51Z</time></trkpt><trkpt lat="43.50730451239487" lon="18.61040145014474"><ele>702.0</ele><time>2026-05-03T14:35:52Z</time></trkpt><trkpt lat="43.50719565500749" lon="18.61029135847286"><ele>702.0</ele><time>2026-05-03T14:35:53Z</time></trkpt><trkpt lat="43.507081706007206" lon="18.610192576786176"><ele>702.0</ele><time>2026-05-03T14:35:54Z</time></trkpt><trkpt lat="43.506962234845574" lon="18.610095367164185"><ele>705.4000000000001</ele><time>2026-05-03T14:35:55Z</time></trkpt><trkpt lat="43.506856723764756" lon="18.610023934760488"><ele>708.8000000000001</ele><time>2026-05-03T14:35:56Z</time></trkpt><trkpt lat="43.50676875355914" lon="18.60998785799033"><ele>712.2</ele><time>2026-05-03T14:35:57Z</time></trkpt><trkpt lat="43.50668356817216" lon="18.6099709450036"><ele>715.6</ele><time>2026-05-03T14:35:58Z</time></trkpt><trkpt lat="43.50658873628462" lon="18.609979428825408"><ele>719.0</ele><time>2026-05-03T14:35:59Z</time></trkpt><trkpt lat="43.506480907274344" lon="18.610015269576103"><ele>719.0</ele><time>2026-05-03T14:36:00Z</time></trkpt><trkpt lat="43.50636728458159" lon="18.610083274513798"><ele>719.0</ele><time>2026-05-03T14:36:01Z</time></trkpt><trkpt lat="43.50625367287277" lon="18.610172150565965"><ele>719.0</ele><time>2026-05-03T14:36:02Z</time></trkpt><trkpt lat="43.50614607146132" lon="18.610282727546828"><ele>719.0</ele><time>2026-05-03T14:36:03Z</time></trkpt><trkpt lat="43.50603882416471" lon="18.610388430278675"><ele>719.2</ele><time>2026-05-03T14:36:04Z</time></trkpt><trkpt lat="43.505941940324604" lon="18.610471579990264"><ele>719.4000000000001</ele><time>2026-05-03T14:36:05Z</time></trkpt><trkpt lat="43.505862537707024" lon="18.610516643943985"><ele>719.6</ele><time>2026-05-03T14:36:06Z</time></trkpt><trkpt lat="43.50579225168926" lon="18.610542491352877"><ele>719.8</ele><time>2026-05-03T14:36:07Z</time></trkpt><trkpt lat="43.50565943970109" lon="18.610540441247"><ele>720.0</ele><time>2026-05-03T14:36:09Z</time></trkpt><trkpt lat="43.505572350353866" lon="18.61055372409116"><ele>720.0</ele><time>2026-05-03T14:36:10Z</time></trkpt><trkpt lat="43.505495142582376" lon="18.610587653050423"><ele>720.0</ele><time>2026-05-03T14:36:11Z</time></trkpt><trkpt lat="43.50542246147405" lon="18.61063943543774"><ele>720.0</ele><time>2026-05-03T14:36:12Z</time></trkpt><trkpt lat="43.50533795714133" lon="18.61067025501009"><ele>720.0</ele><time>2026-05-03T14:36:13Z</time></trkpt><trkpt lat="43.50527058694484" lon="18.6106523497989"><ele>720.0</ele><time>2026-05-03T14:36:14Z</time></trkpt><trkpt lat="43.50518793830385" lon="18.610608164128507"><ele>720.0</ele><time>2026-05-03T14:36:15Z</time></trkpt><trkpt lat="43.50510336908443" lon="18.610592695969203"><ele>722.0</ele><time>2026-05-03T14:36:16Z</time></trkpt><trkpt lat="43.505011688614275" lon="18.61063099965997"><ele>724.0</ele><time>2026-05-03T14:36:17Z</time></trkpt><trkpt lat="43.5049418504055" lon="18.61069710717685"><ele>726.0</ele><time>2026-05-03T14:36:18Z</time></trkpt><trkpt lat="43.50488250667204" lon="18.610790629015888"><ele>728.0</ele><time>2026-05-03T14:36:19Z</time></trkpt><trkpt lat="43.50484931860868" lon="18.61089149079801"><ele>730.0</ele><time>2026-05-03T14:36:20Z</time></trkpt><trkpt lat="43.50479583914594" lon="18.61097500926011"><ele>732.0</ele><time>2026-05-03T14:36:21Z</time></trkpt><trkpt lat="43.50473004440398" lon="18.61107063582368"><ele>732.0</ele><time>2026-05-03T14:36:23Z</time></trkpt><trkpt lat="43.50462213439687" lon="18.61101963337441"><ele>732.0</ele><time>2026-05-03T14:36:25Z</time></trkpt><trkpt lat="43.50452531284405" lon="18.610966526759274"><ele>732.0</ele><time>2026-05-03T14:36:26Z</time></trkpt><trkpt lat="43.50442316626887" lon="18.61089882890035"><ele>732.0</ele><time>2026-05-03T14:36:27Z</time></trkpt><trkpt lat="43.50432392724948" lon="18.610865259575593"><ele>732.0</ele><time>2026-05-03T14:36:28Z</time></trkpt><trkpt lat="43.504226252326774" lon="18.610886292115367"><ele>731.8</ele><time>2026-05-03T14:36:29Z</time></trkpt><trkpt lat="43.504125589546376" lon="18.61092906895624"><ele>731.6</ele><time>2026-05-03T14:36:30Z</time></trkpt><trkpt lat="43.50401142196328" lon="18.610979734393375"><ele>731.4</ele><time>2026-05-03T14:36:31Z</time></trkpt><trkpt lat="43.50394401375383" lon="18.611024499166202"><ele>731.1999999999999</ele><time>2026-05-03T14:36:32Z</time></trkpt><trkpt lat="43.50387681748772" lon="18.61110461512404"><ele>731.0</ele><time>2026-05-03T14:36:33Z</time></trkpt><trkpt lat="43.503805253199204" lon="18.611208834359314"><ele>733.5</ele><time>2026-05-03T14:36:34Z</time></trkpt><trkpt lat="43.503737005924286" lon="18.61128133985601"><ele>736.0</ele><time>2026-05-03T14:36:35Z</time></trkpt><trkpt lat="43.50366418137632" lon="18.611304272914087"><ele>738.5</ele><time>2026-05-03T14:36:36Z</time></trkpt><trkpt lat="43.503573840916566" lon="18.611301900130822"><ele>741.0</ele><time>2026-05-03T14:36:37Z</time></trkpt><trkpt lat="43.503500650206526" lon="18.611266299447323"><ele>743.5</ele><time>2026-05-03T14:36:38Z</time></trkpt><trkpt lat="43.50342707783889" lon="18.611231324038272"><ele>746.0</ele><time>2026-05-03T14:36:39Z</time></trkpt><trkpt lat="43.50334243327308" lon="18.61116438896362"><ele>746.8</ele><time>2026-05-03T14:36:40Z</time></trkpt><trkpt lat="43.503243537219994" lon="18.6110807901996"><ele>747.5999999999999</ele><time>2026-05-03T14:36:41Z</time></trkpt><trkpt lat="43.50314780466736" lon="18.61099335503344"><ele>748.4</ele><time>2026-05-03T14:36:42Z</time></trkpt><trkpt lat="43.5030584588349" lon="18.61091315568329"><ele>749.2</ele><time>2026-05-03T14:36:43Z</time></trkpt><trkpt lat="43.50299647864284" lon="18.610841789588015"><ele>750.0</ele><time>2026-05-03T14:36:44Z</time></trkpt><trkpt lat="43.502942347752764" lon="18.61076613002285"><ele>750.0</ele><time>2026-05-03T14:36:45Z</time></trkpt><trkpt lat="43.50289212580197" lon="18.6106782847279"><ele>750.0</ele><time>2026-05-03T14:36:46Z</time></trkpt><trkpt lat="43.50285542770888" lon="18.610572996586583"><ele>750.0</ele><time>2026-05-03T14:36:47Z</time></trkpt><trkpt lat="43.502818199278565" lon="18.6104649717636"><ele>750.0</ele><time>2026-05-03T14:36:48Z</time></trkpt><trkpt lat="43.502778175849194" lon="18.610352786187253"><ele>750.0</ele><time>2026-05-03T14:36:49Z</time></trkpt><trkpt lat="43.502744961672164" lon="18.61024506158018"><ele>750.0</ele><time>2026-05-03T14:36:50Z</time></trkpt><trkpt lat="43.50270609417452" lon="18.61015845029104"><ele>749.3333333333334</ele><time>2026-05-03T14:36:51Z</time></trkpt><trkpt lat="43.502660344568774" lon="18.610092595831713"><ele>748.6666666666666</ele><time>2026-05-03T14:36:52Z</time></trkpt><trkpt lat="43.50258746284347" lon="18.609998454410263"><ele>748.0</ele><time>2026-05-03T14:36:54Z</time></trkpt><trkpt lat="43.502551402344345" lon="18.609900859182716"><ele>747.3333333333333</ele><time>2026-05-03T14:36:56Z</time></trkpt><trkpt lat="43.50253987880958" lon="18.60977767611225"><ele>746.6666666666666</ele><time>2026-05-03T14:36:58Z</time></trkpt><trkpt lat="43.50255707978732" lon="18.609644817395143"><ele>746.0</ele><time>2026-05-03T14:37:00Z</time></trkpt><trkpt lat="43.50259122760047" lon="18.609512308170153"><ele>747.3333333333333</ele><time>2026-05-03T14:37:02Z</time></trkpt><trkpt lat="43.502572867986544" lon="18.609398975798445"><ele>748.6666666666666</ele><time>2026-05-03T14:37:04Z</time></trkpt><trkpt lat="43.50250695024912" lon="18.609329598283956"><ele>750.0</ele><time>2026-05-03T14:37:06Z</time></trkpt><trkpt lat="43.5024488925356" lon="18.609262362163"><ele>751.3333333333334</ele><time>2026-05-03T14:37:08Z</time></trkpt><trkpt lat="43.50235985122523" lon="18.609206821095178"><ele>752.6666666666667</ele><time>2026-05-03T14:37:10Z</time></trkpt><trkpt lat="43.50226369080211" lon="18.609205662027442"><ele>754.0</ele><time>2026-05-03T14:37:12Z</time></trkpt><trkpt lat="43.50217284058153" lon="18.609207625825643"><ele>754.0</ele><time>2026-05-03T14:37:14Z</time></trkpt><trkpt lat="43.5020854780874" lon="18.60914644630828"><ele>754.0</ele><time>2026-05-03T14:37:16Z</time></trkpt><trkpt lat="43.502011057869" lon="18.609037055652543"><ele>754.0</ele><time>2026-05-03T14:37:18Z</time></trkpt><trkpt lat="43.50196806964521" lon="18.608918429687805"><ele>754.0</ele><time>2026-05-03T14:37:20Z</time></trkpt><trkpt lat="43.501945114816316" lon="18.60882751877851"><ele>754.0</ele><time>2026-05-03T14:37:42Z</time></trkpt><trkpt lat="43.5019208179574" lon="18.608713568631583"><ele>753.8000000000001</ele><time>2026-05-03T14:37:44Z</time></trkpt><trkpt lat="43.50183508354995" lon="18.60858939632362"><ele>753.6</ele><time>2026-05-03T14:37:46Z</time></trkpt><trkpt lat="43.501774561124364" lon="18.608520515317373"><ele>753.4</ele><time>2026-05-03T14:37:47Z</time></trkpt><trkpt lat="43.501722737995465" lon="18.60843139763137"><ele>753.2</ele><time>2026-05-03T14:37:48Z</time></trkpt><trkpt lat="43.50167235597397" lon="18.608317096987953"><ele>753.0</ele><time>2026-05-03T14:37:49Z</time></trkpt><trkpt lat="43.50163077045846" lon="18.608229225490362"><ele>753.0</ele><time>2026-05-03T14:37:50Z</time></trkpt><trkpt lat="43.50158608578694" lon="18.60815614116699"><ele>753.0</ele><time>2026-05-03T14:37:51Z</time></trkpt><trkpt lat="43.501519878610644" lon="18.6080405091495"><ele>753.0</ele><time>2026-05-03T14:37:52Z</time></trkpt><trkpt lat="43.50147580657111" lon="18.60793543258642"><ele>753.0</ele><time>2026-05-03T14:37:53Z</time></trkpt><trkpt lat="43.501452611155145" lon="18.607824284812022"><ele>753.0</ele><time>2026-05-03T14:37:54Z</time></trkpt><trkpt lat="43.50145661625044" lon="18.607731463702823"><ele>753.0</ele><time>2026-05-03T14:37:55Z</time></trkpt><trkpt lat="43.50149496933297" lon="18.607637642189143"><ele>753.75</ele><time>2026-05-03T14:37:56Z</time></trkpt><trkpt lat="43.501563310332415" lon="18.60752781583082"><ele>754.5</ele><time>2026-05-03T14:37:57Z</time></trkpt><trkpt lat="43.501650012889236" lon="18.607444876987408"><ele>755.25</ele><time>2026-05-03T14:37:58Z</time></trkpt><trkpt lat="43.501748640876116" lon="18.607374788262753"><ele>756.0</ele><time>2026-05-03T14:37:59Z</time></trkpt><trkpt lat="43.501881617839295" lon="18.607329886169108"><ele>756.0</ele><time>2026-05-03T14:38:00Z</time></trkpt><trkpt lat="43.50203378465077" lon="18.607273392835367"><ele>756.0</ele><time>2026-05-03T14:38:01Z</time></trkpt><trkpt lat="43.50218389997287" lon="18.607219584600603"><ele>756.0</ele><time>2026-05-03T14:38:02Z</time></trkpt><trkpt lat="43.50229876104395" lon="18.607151215562542"><ele>756.0</ele><time>2026-05-03T14:38:03Z</time></trkpt><trkpt lat="43.50241105241214" lon="18.607040764056727"><ele>758.75</ele><time>2026-05-03T14:38:04Z</time></trkpt><trkpt lat="43.50251257725785" lon="18.606922655006944"><ele>761.5</ele><time>2026-05-03T14:38:05Z</time></trkpt><trkpt lat="43.50259753910586" lon="18.606811431920594"><ele>764.25</ele><time>2026-05-03T14:38:06Z</time></trkpt><trkpt lat="43.50266556061409" lon="18.60670665337548"><ele>767.0</ele><time>2026-05-03T14:38:07Z</time></trkpt><trkpt lat="43.50271198493194" lon="18.60656768228785"><ele>767.0</ele><time>2026-05-03T14:38:08Z</time></trkpt><trkpt lat="43.50274271177383" lon="18.606453726081913"><ele>767.0</ele><time>2026-05-03T14:38:09Z</time></trkpt><trkpt lat="43.502771757734585" lon="18.606348669031846"><ele>767.0</ele><time>2026-05-03T14:38:10Z</time></trkpt><trkpt lat="43.502743623323596" lon="18.60618030362262"><ele>767.0</ele><time>2026-05-03T14:38:12Z</time></trkpt><trkpt lat="43.50268345378954" lon="18.606118426044745"><ele>767.0</ele><time>2026-05-03T14:38:13Z</time></trkpt><trkpt lat="43.502605803751095" lon="18.606065079757535"><ele>769.25</ele><time>2026-05-03T14:38:14Z</time></trkpt><trkpt lat="43.502509232312974" lon="18.60600762509032"><ele>771.5</ele><time>2026-05-03T14:38:15Z</time></trkpt><trkpt lat="43.50239185174835" lon="18.605903400291545"><ele>773.75</ele><time>2026-05-03T14:38:16Z</time></trkpt><trkpt lat="43.50227145763411" lon="18.60576117813834"><ele>776.0</ele><time>2026-05-03T14:38:17Z</time></trkpt><trkpt lat="43.50219010895481" lon="18.605633350877827"><ele>776.0</ele><time>2026-05-03T14:38:18Z</time></trkpt><trkpt lat="43.502141612937876" lon="18.605514418583912"><ele>776.0</ele><time>2026-05-03T14:38:19Z</time></trkpt><trkpt lat="43.50210856625546" lon="18.605417290846507"><ele>776.0</ele><time>2026-05-03T14:38:20Z</time></trkpt><trkpt lat="43.50210623720595" lon="18.605226651873156"><ele>776.0</ele><time>2026-05-03T14:38:22Z</time></trkpt><trkpt lat="43.50214557422975" lon="18.60513317627531"><ele>776.0</ele><time>2026-05-03T14:38:23Z</time></trkpt><trkpt lat="43.50220622714601" lon="18.60505512279605"><ele>775.8</ele><time>2026-05-03T14:38:24Z</time></trkpt><trkpt lat="43.50228966644064" lon="18.604995038413456"><ele>775.5999999999999</ele><time>2026-05-03T14:38:25Z</time></trkpt><trkpt lat="43.50236654605359" lon="18.604916866117144"><ele>775.4</ele><time>2026-05-03T14:38:26Z</time></trkpt><trkpt lat="43.50243061532237" lon="18.60481475874255"><ele>775.2</ele><time>2026-05-03T14:38:27Z</time></trkpt><trkpt lat="43.50251188099683" lon="18.604665546879122"><ele>775.0</ele><time>2026-05-03T14:38:28Z</time></trkpt><trkpt lat="43.5026157183964" lon="18.604474221776226"><ele>775.0</ele><time>2026-05-03T14:38:29Z</time></trkpt><trkpt lat="43.50265805869507" lon="18.604337026731503"><ele>775.0</ele><time>2026-05-03T14:38:30Z</time></trkpt><trkpt lat="43.502682760401896" lon="18.604194571596803"><ele>775.0</ele><time>2026-05-03T14:38:31Z</time></trkpt><trkpt lat="43.502690979596714" lon="18.60405644559502"><ele>775.0</ele><time>2026-05-03T14:38:32Z</time></trkpt><trkpt lat="43.5026911195276" lon="18.603923712115396"><ele>775.0</ele><time>2026-05-03T14:38:33Z</time></trkpt><trkpt lat="43.502679234722805" lon="18.603800161139514"><ele>774.9999999999999</ele><time>2026-05-03T14:38:34Z</time></trkpt><trkpt lat="43.502675898415106" lon="18.603706304162085"><ele>775.0</ele><time>2026-05-03T14:38:35Z</time></trkpt><trkpt lat="43.50268383190235" lon="18.603610928502295"><ele>775.0</ele><time>2026-05-03T14:38:36Z</time></trkpt><trkpt lat="43.50273854140257" lon="18.603448402295825"><ele>775.0</ele><time>2026-05-03T14:38:38Z</time></trkpt><trkpt lat="43.502785220317826" lon="18.603347178523066"><ele>774.9999999999999</ele><time>2026-05-03T14:38:39Z</time></trkpt><trkpt lat="43.50283335317503" lon="18.603252257329924"><ele>775.0</ele><time>2026-05-03T14:38:40Z</time></trkpt><trkpt lat="43.5028792355356" lon="18.603187083808262"><ele>777.4</ele><time>2026-05-03T14:38:41Z</time></trkpt><trkpt lat="43.502950208327945" lon="18.60311475683091"><ele>779.8</ele><time>2026-05-03T14:38:42Z</time></trkpt><trkpt lat="43.50302737492211" lon="18.603038728069745"><ele>782.2</ele><time>2026-05-03T14:38:43Z</time></trkpt><trkpt lat="43.503125002684705" lon="18.60295382944192"><ele>784.6</ele><time>2026-05-03T14:38:44Z</time></trkpt><trkpt lat="43.50324025926134" lon="18.602856997844047"><ele>787.0</ele><time>2026-05-03T14:38:45Z</time></trkpt><trkpt lat="43.50332505879136" lon="18.60276187596375"><ele>786.9999999999999</ele><time>2026-05-03T14:38:46Z</time></trkpt><trkpt lat="43.50339222593066" lon="18.602665961162987"><ele>787.0</ele><time>2026-05-03T14:38:47Z</time></trkpt><trkpt lat="43.503430864115444" lon="18.602562352388116"><ele>787.0</ele><time>2026-05-03T14:38:48Z</time></trkpt><trkpt lat="43.50346002071001" lon="18.60244276351424"><ele>787.0</ele><time>2026-05-03T14:38:49Z</time></trkpt><trkpt lat="43.5034636118896" lon="18.602325883126124"><ele>786.9999999999999</ele><time>2026-05-03T14:38:50Z</time></trkpt><trkpt lat="43.503458258123445" lon="18.60222507677362"><ele>787.0</ele><time>2026-05-03T14:38:51Z</time></trkpt><trkpt lat="43.50345735305808" lon="18.60212128574609"><ele>786.9999999999999</ele><time>2026-05-03T14:38:52Z</time></trkpt><trkpt lat="43.503472250283416" lon="18.6020178978833"><ele>787.0</ele><time>2026-05-03T14:38:53Z</time></trkpt><trkpt lat="43.503503117936056" lon="18.601914490898086"><ele>787.0</ele><time>2026-05-03T14:38:54Z</time></trkpt><trkpt lat="43.50354682774684" lon="18.60182600546537"><ele>787.0</ele><time>2026-05-03T14:38:55Z</time></trkpt><trkpt lat="43.50359667226033" lon="18.601724281626186"><ele>786.9999999999999</ele><time>2026-05-03T14:38:56Z</time></trkpt><trkpt lat="43.50362271171583" lon="18.601609065311226"><ele>787.0</ele><time>2026-05-03T14:38:57Z</time></trkpt><trkpt lat="43.503624469681434" lon="18.60148762324792"><ele>786.7142857142857</ele><time>2026-05-03T14:38:58Z</time></trkpt><trkpt lat="43.50360676187048" lon="18.60137795087105"><ele>786.4285714285713</ele><time>2026-05-03T14:38:59Z</time></trkpt><trkpt lat="43.50359715384817" lon="18.601285951657985"><ele>786.1428571428571</ele><time>2026-05-03T14:39:00Z</time></trkpt><trkpt lat="43.503614074374276" lon="18.601187562482238"><ele>785.8571428571429</ele><time>2026-05-03T14:39:01Z</time></trkpt><trkpt lat="43.503653063396186" lon="18.601094981741518"><ele>785.5714285714286</ele><time>2026-05-03T14:39:02Z</time></trkpt><trkpt lat="43.50369299207129" lon="18.601021993363414"><ele>785.2857142857143</ele><time>2026-05-03T14:39:03Z</time></trkpt><trkpt lat="43.50374433930683" lon="18.6009448745086"><ele>785.0</ele><time>2026-05-03T14:39:04Z</time></trkpt><trkpt lat="43.503801182307136" lon="18.60088728575623"><ele>788.6666666666667</ele><time>2026-05-03T14:39:05Z</time></trkpt><trkpt lat="43.50386902126027" lon="18.6008219593547"><ele>792.3333333333334</ele><time>2026-05-03T14:39:06Z</time></trkpt><trkpt lat="43.50394280369877" lon="18.600758139025604"><ele>796.0</ele><time>2026-05-03T14:39:07Z</time></trkpt><trkpt lat="43.50401535008932" lon="18.60068874906314"><ele>799.6666666666667</ele><time>2026-05-03T14:39:08Z</time></trkpt><trkpt lat="43.50406910920145" lon="18.600626032234747"><ele>803.3333333333334</ele><time>2026-05-03T14:39:09Z</time></trkpt><trkpt lat="43.504113905594814" lon="18.600535166834764"><ele>807.0</ele><time>2026-05-03T14:39:10Z</time></trkpt><trkpt lat="43.504178411997884" lon="18.60043871810717"><ele>807.0</ele><time>2026-05-03T14:39:11Z</time></trkpt><trkpt lat="43.504249817261176" lon="18.600336716578173"><ele>807.0</ele><time>2026-05-03T14:39:12Z</time></trkpt><trkpt lat="43.50433184560677" lon="18.600235364197122"><ele>807.0</ele><time>2026-05-03T14:39:13Z</time></trkpt><trkpt lat="43.50441721279743" lon="18.600143944007762"><ele>807.0</ele><time>2026-05-03T14:39:14Z</time></trkpt><trkpt lat="43.50451314881801" lon="18.60010010756652"><ele>807.0</ele><time>2026-05-03T14:39:15Z</time></trkpt><trkpt lat="43.504594939169756" lon="18.60004872203286"><ele>809.0</ele><time>2026-05-03T14:39:16Z</time></trkpt><trkpt lat="43.50464913633702" lon="18.599969034102735"><ele>811.0</ele><time>2026-05-03T14:39:17Z</time></trkpt><trkpt lat="43.5046825705435" lon="18.599844978551744"><ele>813.0</ele><time>2026-05-03T14:39:18Z</time></trkpt><trkpt lat="43.50471077917187" lon="18.59969492702959"><ele>815.0</ele><time>2026-05-03T14:39:19Z</time></trkpt><trkpt lat="43.50474688235625" lon="18.59953010858852"><ele>817.0</ele><time>2026-05-03T14:39:20Z</time></trkpt><trkpt lat="43.50480192337337" lon="18.599370100715834"><ele>817.0</ele><time>2026-05-03T14:39:21Z</time></trkpt><trkpt lat="43.50486112105398" lon="18.599224901723915"><ele>817.0</ele><time>2026-05-03T14:39:22Z</time></trkpt><trkpt lat="43.504901838336664" lon="18.59908605000036"><ele>817.0</ele><time>2026-05-03T14:39:23Z</time></trkpt><trkpt lat="43.50489916604041" lon="18.59891812099284"><ele>817.0</ele><time>2026-05-03T14:39:24Z</time></trkpt><trkpt lat="43.50489012845117" lon="18.598764586646336"><ele>818.75</ele><time>2026-05-03T14:39:25Z</time></trkpt><trkpt lat="43.50487997438063" lon="18.598585755549298"><ele>820.5</ele><time>2026-05-03T14:39:26Z</time></trkpt><trkpt lat="43.504881005376944" lon="18.598409409665464"><ele>822.25</ele><time>2026-05-03T14:39:27Z</time></trkpt><trkpt lat="43.5048799826127" lon="18.598246080105387"><ele>824.0</ele><time>2026-05-03T14:39:28Z</time></trkpt><trkpt lat="43.50486573149955" lon="18.598090662723166"><ele>824.0</ele><time>2026-05-03T14:39:29Z</time></trkpt><trkpt lat="43.50485715717321" lon="18.5979312694914"><ele>824.0</ele><time>2026-05-03T14:39:30Z</time></trkpt><trkpt lat="43.50487999729424" lon="18.597790483082726"><ele>824.0</ele><time>2026-05-03T14:39:31Z</time></trkpt><trkpt lat="43.50489539197036" lon="18.597655056952117"><ele>824.0</ele><time>2026-05-03T14:39:32Z</time></trkpt><trkpt lat="43.50487730463053" lon="18.597516022121425"><ele>824.0</ele><time>2026-05-03T14:39:33Z</time></trkpt><trkpt lat="43.50483170436951" lon="18.59738292488834"><ele>825.25</ele><time>2026-05-03T14:39:34Z</time></trkpt><trkpt lat="43.50478800252691" lon="18.597234997217814"><ele>826.5</ele><time>2026-05-03T14:39:35Z</time></trkpt><trkpt lat="43.50473714256011" lon="18.59704851397526"><ele>827.75</ele><time>2026-05-03T14:39:36Z</time></trkpt><trkpt lat="43.50467037021186" lon="18.596897412356242"><ele>829.0</ele><time>2026-05-03T14:39:37Z</time></trkpt><trkpt lat="43.50461766504494" lon="18.596738657113114"><ele>830.6</ele><time>2026-05-03T14:39:38Z</time></trkpt><trkpt lat="43.50460525284435" lon="18.596579093884728"><ele>832.2</ele><time>2026-05-03T14:39:39Z</time></trkpt><trkpt lat="43.50461619042506" lon="18.596457457106155"><ele>833.8000000000001</ele><time>2026-05-03T14:39:40Z</time></trkpt><trkpt lat="43.50465267867417" lon="18.596329913617584"><ele>835.4000000000001</ele><time>2026-05-03T14:39:41Z</time></trkpt><trkpt lat="43.50467017783862" lon="18.596186318934357"><ele>837.0</ele><time>2026-05-03T14:39:42Z</time></trkpt><trkpt lat="43.50468572862049" lon="18.59604580324987"><ele>838.4000000000001</ele><time>2026-05-03T14:39:43Z</time></trkpt><trkpt lat="43.50467092487419" lon="18.595905420191148"><ele>839.8000000000001</ele><time>2026-05-03T14:39:44Z</time></trkpt><trkpt lat="43.50465558810821" lon="18.595754146431492"><ele>841.2</ele><time>2026-05-03T14:39:45Z</time></trkpt><trkpt lat="43.50463836011987" lon="18.59560680806063"><ele>842.6</ele><time>2026-05-03T14:39:46Z</time></trkpt><trkpt lat="43.5046080369413" lon="18.595468076842835"><ele>844.0</ele><time>2026-05-03T14:39:47Z</time></trkpt><trkpt lat="43.504581865319594" lon="18.595327911448624"><ele>845.8000000000001</ele><time>2026-05-03T14:39:48Z</time></trkpt><trkpt lat="43.504570795073036" lon="18.595194264829246"><ele>847.6</ele><time>2026-05-03T14:39:49Z</time></trkpt><trkpt lat="43.504579627067756" lon="18.595066287926837"><ele>849.4</ele><time>2026-05-03T14:39:50Z</time></trkpt><trkpt lat="43.50461520254703" lon="18.59494227352556"><ele>851.2</ele><time>2026-05-03T14:39:51Z</time></trkpt><trkpt lat="43.50465604894022" lon="18.59480831834514"><ele>853.0</ele><time>2026-05-03T14:39:52Z</time></trkpt><trkpt lat="43.50468849552301" lon="18.594685734311657"><ele>853.0</ele><time>2026-05-03T14:39:53Z</time></trkpt><trkpt lat="43.50469305522779" lon="18.594543629051838"><ele>853.0</ele><time>2026-05-03T14:39:54Z</time></trkpt><trkpt lat="43.50467628480915" lon="18.594360610873807"><ele>853.0</ele><time>2026-05-03T14:39:55Z</time></trkpt><trkpt lat="43.50467383746857" lon="18.594153513729662"><ele>853.0</ele><time>2026-05-03T14:39:56Z</time></trkpt><trkpt lat="43.50466825739828" lon="18.593948292678693"><ele>855.6666666666666</ele><time>2026-05-03T14:39:57Z</time></trkpt><trkpt lat="43.50463954438655" lon="18.593738021557847"><ele>858.3333333333333</ele><time>2026-05-03T14:39:58Z</time></trkpt><trkpt lat="43.504611699032786" lon="18.593482916299568"><ele>861.0</ele><time>2026-05-03T14:39:59Z</time></trkpt><trkpt lat="43.504578095337685" lon="18.59321201854252"><ele>856.0</ele><time>2026-05-03T14:40:00Z</time></trkpt><trkpt lat="43.50456130954963" lon="18.592990046754004"><ele>851.0</ele><time>2026-05-03T14:40:01Z</time></trkpt><trkpt lat="43.504550805457136" lon="18.592822448171326"><ele>846.0</ele><time>2026-05-03T14:40:02Z</time></trkpt><trkpt lat="43.50453878162183" lon="18.592698154306227"><ele>841.0</ele><time>2026-05-03T14:40:03Z</time></trkpt><trkpt lat="43.504508889920814" lon="18.59256760268484"><ele>841.0</ele><time>2026-05-03T14:40:04Z</time></trkpt><trkpt lat="43.5044515284132" lon="18.592444820858017"><ele>841.0</ele><time>2026-05-03T14:40:05Z</time></trkpt><trkpt lat="43.504381521081825" lon="18.592307405905267"><ele>841.0</ele><time>2026-05-03T14:40:06Z</time></trkpt><trkpt lat="43.5043007216825" lon="18.5921390965231"><ele>841.0</ele><time>2026-05-03T14:40:07Z</time></trkpt><trkpt lat="43.504210177764115" lon="18.59194217844006"><ele>845.75</ele><time>2026-05-03T14:40:08Z</time></trkpt><trkpt lat="43.50413216273534" lon="18.591757579565922"><ele>850.5</ele><time>2026-05-03T14:40:09Z</time></trkpt><trkpt lat="43.50407922486139" lon="18.591600810572665"><ele>855.25</ele><time>2026-05-03T14:40:10Z</time></trkpt><trkpt lat="43.50401012804905" lon="18.591436680344348"><ele>860.0</ele><time>2026-05-03T14:40:11Z</time></trkpt><trkpt lat="43.50391594349578" lon="18.59126082799266"><ele>856.0</ele><time>2026-05-03T14:40:12Z</time></trkpt><trkpt lat="43.50382877583397" lon="18.591111407271768"><ele>852.0</ele><time>2026-05-03T14:40:13Z</time></trkpt><trkpt lat="43.503774697408524" lon="18.590953130340207"><ele>848.0</ele><time>2026-05-03T14:40:14Z</time></trkpt><trkpt lat="43.503722850532405" lon="18.590774009696933"><ele>844.0</ele><time>2026-05-03T14:40:15Z</time></trkpt><trkpt lat="43.50366333615074" lon="18.5905837345858"><ele>844.0</ele><time>2026-05-03T14:40:16Z</time></trkpt><trkpt lat="43.50361609034694" lon="18.590411321441703"><ele>844.0</ele><time>2026-05-03T14:40:17Z</time></trkpt><trkpt lat="43.503576087536146" lon="18.590208986023587"><ele>844.0</ele><time>2026-05-03T14:40:18Z</time></trkpt><trkpt lat="43.50352471798068" lon="18.590035275343034"><ele>844.0</ele><time>2026-05-03T14:40:19Z</time></trkpt><trkpt lat="43.503476333084336" lon="18.589903586400144"><ele>847.75</ele><time>2026-05-03T14:40:20Z</time></trkpt><trkpt lat="43.5034058961752" lon="18.589772394995748"><ele>851.5</ele><time>2026-05-03T14:40:21Z</time></trkpt><trkpt lat="43.503311858263395" lon="18.589635466838303"><ele>855.25</ele><time>2026-05-03T14:40:22Z</time></trkpt><trkpt lat="43.5032114019368" lon="18.589483675782883"><ele>859.0</ele><time>2026-05-03T14:40:23Z</time></trkpt><trkpt lat="43.50311168497205" lon="18.5893283555038"><ele>858.0</ele><time>2026-05-03T14:40:24Z</time></trkpt><trkpt lat="43.50300292777703" lon="18.589160793371946"><ele>857.0</ele><time>2026-05-03T14:40:25Z</time></trkpt><trkpt lat="43.502909745928584" lon="18.58900339670902"><ele>856.0</ele><time>2026-05-03T14:40:26Z</time></trkpt><trkpt lat="43.50283458796025" lon="18.588840034169074"><ele>856.0</ele><time>2026-05-03T14:40:27Z</time></trkpt><trkpt lat="43.50276453020811" lon="18.588694107715796"><ele>856.0</ele><time>2026-05-03T14:40:28Z</time></trkpt><trkpt lat="43.50268351174235" lon="18.588560032033204"><ele>856.0</ele><time>2026-05-03T14:40:29Z</time></trkpt><trkpt lat="43.50258773010117" lon="18.588450354571236"><ele>856.0</ele><time>2026-05-03T14:40:30Z</time></trkpt><trkpt lat="43.50249231410303" lon="18.588371169884894"><ele>858.0</ele><time>2026-05-03T14:40:31Z</time></trkpt><trkpt lat="43.502399323527456" lon="18.588314847159786"><ele>859.9999999999999</ele><time>2026-05-03T14:40:32Z</time></trkpt><trkpt lat="43.50229390868527" lon="18.58828856335505"><ele>861.9999999999999</ele><time>2026-05-03T14:40:33Z</time></trkpt><trkpt lat="43.502203762796015" lon="18.588270842384695"><ele>864.0</ele><time>2026-05-03T14:40:34Z</time></trkpt><trkpt lat="43.50212238831164" lon="18.58825357128239"><ele>866.0</ele><time>2026-05-03T14:40:35Z</time></trkpt><trkpt lat="43.502042547803455" lon="18.588232227479295"><ele>866.0</ele><time>2026-05-03T14:40:36Z</time></trkpt><trkpt lat="43.501987477472134" lon="18.58817779899466"><ele>865.9999999999999</ele><time>2026-05-03T14:40:37Z</time></trkpt><trkpt lat="43.501927267008526" lon="18.588033407294436"><ele>865.9999999999999</ele><time>2026-05-03T14:40:39Z</time></trkpt><trkpt lat="43.50193954050873" lon="18.587895527473975"><ele>866.0</ele><time>2026-05-03T14:40:41Z</time></trkpt><trkpt lat="43.501992841789594" lon="18.587733842304473"><ele>866.0</ele><time>2026-05-03T14:40:43Z</time></trkpt><trkpt lat="43.502029790342" lon="18.587641462193297"><ele>867.4285714285713</ele><time>2026-05-03T14:40:44Z</time></trkpt><trkpt lat="43.502042532179644" lon="18.587538157418273"><ele>868.8571428571429</ele><time>2026-05-03T14:40:45Z</time></trkpt><trkpt lat="43.502040474111716" lon="18.58744079028374"><ele>870.2857142857142</ele><time>2026-05-03T14:40:46Z</time></trkpt><trkpt lat="43.502032330405164" lon="18.587337351694"><ele>871.7142857142857</ele><time>2026-05-03T14:40:47Z</time></trkpt><trkpt lat="43.50201851161864" lon="18.587236655745336"><ele>873.1428571428571</ele><time>2026-05-03T14:40:48Z</time></trkpt><trkpt lat="43.50199880253955" lon="18.5871437163224"><ele>874.5714285714286</ele><time>2026-05-03T14:40:49Z</time></trkpt><trkpt lat="43.50198204068303" lon="18.58706002338219"><ele>876.0</ele><time>2026-05-03T14:40:50Z</time></trkpt><trkpt lat="43.50195711345964" lon="18.586977545125755"><ele>876.8333333333334</ele><time>2026-05-03T14:40:51Z</time></trkpt><trkpt lat="43.501901136198406" lon="18.586849028251173"><ele>877.6666666666667</ele><time>2026-05-03T14:40:53Z</time></trkpt><trkpt lat="43.50185092161909" lon="18.586769433413366"><ele>878.5</ele><time>2026-05-03T14:40:55Z</time></trkpt><trkpt lat="43.501797752055396" lon="18.586712121376863"><ele>879.3333333333334</ele><time>2026-05-03T14:40:58Z</time></trkpt><trkpt lat="43.50171479865297" lon="18.58665495087539"><ele>880.1666666666667</ele><time>2026-05-03T14:41:13Z</time></trkpt><trkpt lat="43.50163859275846" lon="18.586562103235906"><ele>881.0</ele><time>2026-05-03T14:41:15Z</time></trkpt><trkpt lat="43.501608604001994" lon="18.58641250187469"><ele>881.0</ele><time>2026-05-03T14:41:17Z</time></trkpt><trkpt lat="43.50158072369431" lon="18.58632623658054"><ele>880.9999999999999</ele><time>2026-05-03T14:41:18Z</time></trkpt><trkpt lat="43.50153822219553" lon="18.58625214662794"><ele>880.9999999999999</ele><time>2026-05-03T14:41:19Z</time></trkpt><trkpt lat="43.50143411009609" lon="18.586133622300046"><ele>881.0</ele><time>2026-05-03T14:41:21Z</time></trkpt><trkpt lat="43.501378119160954" lon="18.586040554118206"><ele>881.0</ele><time>2026-05-03T14:41:22Z</time></trkpt><trkpt lat="43.501333067244346" lon="18.58593112704997"><ele>880.8</ele><time>2026-05-03T14:41:23Z</time></trkpt><trkpt lat="43.50128821405677" lon="18.585806154503103"><ele>880.5999999999999</ele><time>2026-05-03T14:41:24Z</time></trkpt><trkpt lat="43.501232497217714" lon="18.585687602094403"><ele>880.4</ele><time>2026-05-03T14:41:25Z</time></trkpt><trkpt lat="43.50116068437576" lon="18.585585702266183"><ele>880.2</ele><time>2026-05-03T14:41:26Z</time></trkpt><trkpt lat="43.501073525894434" lon="18.585535380495184"><ele>880.0</ele><time>2026-05-03T14:41:27Z</time></trkpt><trkpt lat="43.50098410448437" lon="18.58550950365417"><ele>879.9999999999999</ele><time>2026-05-03T14:41:28Z</time></trkpt><trkpt lat="43.50090890560924" lon="18.585498291242303"><ele>880.0</ele><time>2026-05-03T14:41:29Z</time></trkpt><trkpt lat="43.50083766738009" lon="18.585483791794456"><ele>880.0</ele><time>2026-05-03T14:41:30Z</time></trkpt><trkpt lat="43.50078507924697" lon="18.585429894535213"><ele>880.0</ele><time>2026-05-03T14:41:31Z</time></trkpt><trkpt lat="43.500753273399184" lon="18.585327317316295"><ele>879.9999999999999</ele><time>2026-05-03T14:41:32Z</time></trkpt><trkpt lat="43.50075395995576" lon="18.585212363115375"><ele>880.0</ele><time>2026-05-03T14:41:33Z</time></trkpt><trkpt lat="43.50073072169606" lon="18.585102059771216"><ele>882.0</ele><time>2026-05-03T14:41:34Z</time></trkpt><trkpt lat="43.50068545022295" lon="18.585008820294373"><ele>884.0</ele><time>2026-05-03T14:41:35Z</time></trkpt><trkpt lat="43.50063843102038" lon="18.58493442187601"><ele>886.0</ele><time>2026-05-03T14:41:36Z</time></trkpt><trkpt lat="43.500614022509325" lon="18.584821134493428"><ele>888.0</ele><time>2026-05-03T14:41:37Z</time></trkpt><trkpt lat="43.50061015097494" lon="18.584676371045425"><ele>890.0</ele><time>2026-05-03T14:41:38Z</time></trkpt><trkpt lat="43.50060417218925" lon="18.584505760918947"><ele>891.6666666666667</ele><time>2026-05-03T14:41:39Z</time></trkpt><trkpt lat="43.50063453559711" lon="18.58442937109764"><ele>893.3333333333334</ele><time>2026-05-03T14:41:40Z</time></trkpt><trkpt lat="43.50064164173691" lon="18.584318348589026"><ele>895.0</ele><time>2026-05-03T14:41:41Z</time></trkpt><trkpt lat="43.50064886725007" lon="18.584194412276013"><ele>896.6666666666667</ele><time>2026-05-03T14:41:42Z</time></trkpt><trkpt lat="43.50065560556756" lon="18.584058615351676"><ele>898.3333333333334</ele><time>2026-05-03T14:41:43Z</time></trkpt><trkpt lat="43.500655631575746" lon="18.58393497827741"><ele>900.0</ele><time>2026-05-03T14:41:44Z</time></trkpt><trkpt lat="43.50064364705626" lon="18.583824593817603"><ele>900.0</ele><time>2026-05-03T14:41:45Z</time></trkpt><trkpt lat="43.500631741228645" lon="18.58373328234457"><ele>900.0</ele><time>2026-05-03T14:41:46Z</time></trkpt><trkpt lat="43.500601948874646" lon="18.58364960694109"><ele>900.0</ele><time>2026-05-03T14:41:47Z</time></trkpt><trkpt lat="43.50056721000347" lon="18.583531767520725"><ele>900.0</ele><time>2026-05-03T14:41:48Z</time></trkpt><trkpt lat="43.500516862336546" lon="18.58339530434877"><ele>900.0</ele><time>2026-05-03T14:41:49Z</time></trkpt><trkpt lat="43.500458488264854" lon="18.583245736125722"><ele>899.0</ele><time>2026-05-03T14:41:50Z</time></trkpt><trkpt lat="43.50039854675514" lon="18.583104582499484"><ele>898.0</ele><time>2026-05-03T14:41:51Z</time></trkpt><trkpt lat="43.500327014884085" lon="18.582983156747304"><ele>897.0</ele><time>2026-05-03T14:41:52Z</time></trkpt><trkpt lat="43.50024767349967" lon="18.582880737217064"><ele>896.0</ele><time>2026-05-03T14:41:53Z</time></trkpt><trkpt lat="43.50016447298906" lon="18.58281619667975"><ele>895.0</ele><time>2026-05-03T14:41:54Z</time></trkpt><trkpt lat="43.500100610099814" lon="18.58275546463694"><ele>895.0</ele><time>2026-05-03T14:41:55Z</time></trkpt><trkpt lat="43.500071344023894" lon="18.58267542467547"><ele>895.0</ele><time>2026-05-03T14:41:56Z</time></trkpt><trkpt lat="43.50005624555115" lon="18.58253969532692"><ele>895.0</ele><time>2026-05-03T14:41:57Z</time></trkpt><trkpt lat="43.500044769575695" lon="18.582370099152858"><ele>895.0</ele><time>2026-05-03T14:41:58Z</time></trkpt><trkpt lat="43.49999411182998" lon="18.582229197200622"><ele>895.0</ele><time>2026-05-03T14:41:59Z</time></trkpt><trkpt lat="43.499914986937895" lon="18.5821102878766"><ele>897.0</ele><time>2026-05-03T14:42:00Z</time></trkpt><trkpt lat="43.499852368628744" lon="18.581994977337278"><ele>899.0</ele><time>2026-05-03T14:42:01Z</time></trkpt><trkpt lat="43.49981085169087" lon="18.581860112176777"><ele>901.0</ele><time>2026-05-03T14:42:02Z</time></trkpt><trkpt lat="43.499794440971854" lon="18.581696244931454"><ele>903.0</ele><time>2026-05-03T14:42:03Z</time></trkpt><trkpt lat="43.49979128633797" lon="18.581521973036516"><ele>903.0</ele><time>2026-05-03T14:42:04Z</time></trkpt><trkpt lat="43.49978082628527" lon="18.58135367981279"><ele>903.0</ele><time>2026-05-03T14:42:05Z</time></trkpt><trkpt lat="43.49974211246834" lon="18.581205411153167"><ele>903.0</ele><time>2026-05-03T14:42:06Z</time></trkpt><trkpt lat="43.49967219841562" lon="18.581083903971358"><ele>903.0</ele><time>2026-05-03T14:42:07Z</time></trkpt><trkpt lat="43.499573975974116" lon="18.58098931993427"><ele>899.5999999999999</ele><time>2026-05-03T14:42:08Z</time></trkpt><trkpt lat="43.49947423634031" lon="18.580926462802633"><ele>896.1999999999999</ele><time>2026-05-03T14:42:09Z</time></trkpt><trkpt lat="43.49940225518483" lon="18.580858937872094"><ele>892.8</ele><time>2026-05-03T14:42:10Z</time></trkpt><trkpt lat="43.499348813264206" lon="18.580734858516617"><ele>889.4</ele><time>2026-05-03T14:42:11Z</time></trkpt><trkpt lat="43.49935368228531" lon="18.580602074592754"><ele>886.0</ele><time>2026-05-03T14:42:12Z</time></trkpt><trkpt lat="43.499396416103515" lon="18.580482484442363"><ele>886.0</ele><time>2026-05-03T14:42:13Z</time></trkpt><trkpt lat="43.49946343106577" lon="18.58035991414271"><ele>886.0</ele><time>2026-05-03T14:42:14Z</time></trkpt><trkpt lat="43.499549004062814" lon="18.58023251520646"><ele>886.0</ele><time>2026-05-03T14:42:15Z</time></trkpt><trkpt lat="43.49961693532115" lon="18.58011578936032"><ele>886.0</ele><time>2026-05-03T14:42:16Z</time></trkpt><trkpt lat="43.49961247882006" lon="18.579964763931454"><ele>887.25</ele><time>2026-05-03T14:42:17Z</time></trkpt><trkpt lat="43.49960592142051" lon="18.57982139203565"><ele>888.5</ele><time>2026-05-03T14:42:18Z</time></trkpt><trkpt lat="43.49957432901304" lon="18.57966922701182"><ele>889.75</ele><time>2026-05-03T14:42:19Z</time></trkpt><trkpt lat="43.4995230482249" lon="18.579514749140944"><ele>891.0</ele><time>2026-05-03T14:42:20Z</time></trkpt><trkpt lat="43.49945307493289" lon="18.579354203928045"><ele>893.0</ele><time>2026-05-03T14:42:21Z</time></trkpt><trkpt lat="43.49937314068287" lon="18.579201695349287"><ele>895.0</ele><time>2026-05-03T14:42:22Z</time></trkpt><trkpt lat="43.49930794983545" lon="18.5790548965894"><ele>897.0</ele><time>2026-05-03T14:42:23Z</time></trkpt><trkpt lat="43.499267170567464" lon="18.578899643321222"><ele>899.0</ele><time>2026-05-03T14:42:24Z</time></trkpt><trkpt lat="43.49924493839201" lon="18.578726462282983"><ele>901.4000000000001</ele><time>2026-05-03T14:42:25Z</time></trkpt><trkpt lat="43.49923411131715" lon="18.5785687356691"><ele>903.8000000000001</ele><time>2026-05-03T14:42:26Z</time></trkpt><trkpt lat="43.49922331698542" lon="18.578429610127912"><ele>906.1999999999999</ele><time>2026-05-03T14:42:27Z</time></trkpt><trkpt lat="43.499185566017246" lon="18.578333696633088"><ele>908.5999999999999</ele><time>2026-05-03T14:42:28Z</time></trkpt><trkpt lat="43.49911972870399" lon="18.578192455366175"><ele>911.0</ele><time>2026-05-03T14:42:29Z</time></trkpt><trkpt lat="43.49902736043841" lon="18.578103330155052"><ele>911.0</ele><time>2026-05-03T14:42:30Z</time></trkpt><trkpt lat="43.498945367739154" lon="18.578006338472864"><ele>910.9999999999999</ele><time>2026-05-03T14:42:31Z</time></trkpt><trkpt lat="43.49893389328567" lon="18.577888961599605"><ele>910.9999999999999</ele><time>2026-05-03T14:42:32Z</time></trkpt><trkpt lat="43.49891032170504" lon="18.577756799647535"><ele>911.0</ele><time>2026-05-03T14:42:33Z</time></trkpt><trkpt lat="43.498871975914994" lon="18.57759846756759"><ele>911.0</ele><time>2026-05-03T14:42:34Z</time></trkpt><trkpt lat="43.49887524807882" lon="18.577431533757387"><ele>913.25</ele><time>2026-05-03T14:42:35Z</time></trkpt><trkpt lat="43.498873276513976" lon="18.57727996535958"><ele>915.5</ele><time>2026-05-03T14:42:36Z</time></trkpt><trkpt lat="43.49882909461139" lon="18.57712319945879"><ele>917.75</ele><time>2026-05-03T14:42:37Z</time></trkpt><trkpt lat="43.498747661902435" lon="18.57694060224231"><ele>920.0</ele><time>2026-05-03T14:42:38Z</time></trkpt><trkpt lat="43.498659376304545" lon="18.57676054265471"><ele>917.5</ele><time>2026-05-03T14:42:39Z</time></trkpt><trkpt lat="43.49857484332488" lon="18.576602708273324"><ele>915.0</ele><time>2026-05-03T14:42:40Z</time></trkpt><trkpt lat="43.49851408472637" lon="18.576452273924616"><ele>912.5</ele><time>2026-05-03T14:42:41Z</time></trkpt><trkpt lat="43.498447967490605" lon="18.576292869448558"><ele>910.0</ele><time>2026-05-03T14:42:42Z</time></trkpt><trkpt lat="43.49837782731455" lon="18.576130792354963"><ele>910.0</ele><time>2026-05-03T14:42:43Z</time></trkpt><trkpt lat="43.4983254862731" lon="18.575949982776716"><ele>910.0</ele><time>2026-05-03T14:42:44Z</time></trkpt><trkpt lat="43.498281819007" lon="18.575771519826063"><ele>910.0</ele><time>2026-05-03T14:42:45Z</time></trkpt><trkpt lat="43.49821234942485" lon="18.575623838516805"><ele>910.0</ele><time>2026-05-03T14:42:46Z</time></trkpt><trkpt lat="43.498115404904084" lon="18.57549678554549"><ele>910.0</ele><time>2026-05-03T14:42:47Z</time></trkpt><trkpt lat="43.49800314998177" lon="18.575378251261046"><ele>910.0</ele><time>2026-05-03T14:42:48Z</time></trkpt><trkpt lat="43.49793574844366" lon="18.57522019770891"><ele>910.0</ele><time>2026-05-03T14:42:49Z</time></trkpt><trkpt lat="43.497870636792186" lon="18.575065078649924"><ele>910.0</ele><time>2026-05-03T14:42:50Z</time></trkpt><trkpt lat="43.497813540428666" lon="18.574925865923717"><ele>909.8</ele><time>2026-05-03T14:42:51Z</time></trkpt><trkpt lat="43.497764461143376" lon="18.574799827144325"><ele>909.6</ele><time>2026-05-03T14:42:52Z</time></trkpt><trkpt lat="43.49772531626418" lon="18.574690383153794"><ele>909.4000000000001</ele><time>2026-05-03T14:42:53Z</time></trkpt><trkpt lat="43.497712896549494" lon="18.57455887703247"><ele>909.2</ele><time>2026-05-03T14:42:54Z</time></trkpt><trkpt lat="43.49766771055725" lon="18.57442068334829"><ele>909.0</ele><time>2026-05-03T14:42:55Z</time></trkpt><trkpt lat="43.497598861350106" lon="18.574316544630715"><ele>909.0</ele><time>2026-05-03T14:42:56Z</time></trkpt><trkpt lat="43.49752040658785" lon="18.574225998580346"><ele>909.0000000000001</ele><time>2026-05-03T14:42:57Z</time></trkpt><trkpt lat="43.49744567762642" lon="18.574119199737996"><ele>909.0000000000001</ele><time>2026-05-03T14:42:58Z</time></trkpt><trkpt lat="43.497375869727904" lon="18.574008924207376"><ele>909.0</ele><time>2026-05-03T14:42:59Z</time></trkpt><trkpt lat="43.4973169685252" lon="18.573902545586314"><ele>909.0</ele><time>2026-05-03T14:43:00Z</time></trkpt><trkpt lat="43.49731982244518" lon="18.57379781928541"><ele>909.0</ele><time>2026-05-03T14:43:01Z</time></trkpt><trkpt lat="43.49730458025812" lon="18.573698158400564"><ele>909.0</ele><time>2026-05-03T14:43:02Z</time></trkpt><trkpt lat="43.497257505823" lon="18.57357855227946"><ele>909.0</ele><time>2026-05-03T14:43:03Z</time></trkpt><trkpt lat="43.497316530831526" lon="18.57347536805699"><ele>909.0</ele><time>2026-05-03T14:43:04Z</time></trkpt><trkpt lat="43.497353291160756" lon="18.57337025383026"><ele>909.0</ele><time>2026-05-03T14:43:05Z</time></trkpt><trkpt lat="43.49738757231009" lon="18.573268415927817"><ele>909.0</ele><time>2026-05-03T14:43:06Z</time></trkpt><trkpt lat="43.49740780504264" lon="18.57317092768151"><ele>909.6</ele><time>2026-05-03T14:43:07Z</time></trkpt><trkpt lat="43.49741274565532" lon="18.573044284585684"><ele>910.2</ele><time>2026-05-03T14:43:08Z</time></trkpt><trkpt lat="43.497431385221375" lon="18.57290111764727"><ele>910.8000000000001</ele><time>2026-05-03T14:43:09Z</time></trkpt><trkpt lat="43.497379720842865" lon="18.572788554236055"><ele>911.4000000000001</ele><time>2026-05-03T14:43:10Z</time></trkpt><trkpt lat="43.49733897080529" lon="18.572694214100178"><ele>912.0</ele><time>2026-05-03T14:43:11Z</time></trkpt><trkpt lat="43.497298261444286" lon="18.572598824699014"><ele>913.1666666666666</ele><time>2026-05-03T14:43:12Z</time></trkpt><trkpt lat="43.4972595332233" lon="18.57249874051031"><ele>914.3333333333333</ele><time>2026-05-03T14:43:13Z</time></trkpt><trkpt lat="43.49722591669312" lon="18.57241099976684"><ele>915.5</ele><time>2026-05-03T14:43:14Z</time></trkpt><trkpt lat="43.49721107530716" lon="18.572315402897523"><ele>916.6666666666666</ele><time>2026-05-03T14:43:15Z</time></trkpt><trkpt lat="43.49719277318094" lon="18.572176582997756"><ele>917.8333333333333</ele><time>2026-05-03T14:43:16Z</time></trkpt><trkpt lat="43.49719194754696" lon="18.572060507318096"><ele>919.0</ele><time>2026-05-03T14:43:17Z</time></trkpt><trkpt lat="43.49716350715212" lon="18.57193137833536"><ele>918.75</ele><time>2026-05-03T14:43:18Z</time></trkpt><trkpt lat="43.4971047033751" lon="18.571793416859972"><ele>918.5</ele><time>2026-05-03T14:43:19Z</time></trkpt><trkpt lat="43.49701154735105" lon="18.57167167441908"><ele>918.25</ele><time>2026-05-03T14:43:20Z</time></trkpt><trkpt lat="43.496921999475596" lon="18.57157351283477"><ele>918.0</ele><time>2026-05-03T14:43:21Z</time></trkpt><trkpt lat="43.49683025282725" lon="18.57150246526911"><ele>918.0</ele><time>2026-05-03T14:43:22Z</time></trkpt><trkpt lat="43.49675172411544" lon="18.57146409562303"><ele>918.0</ele><time>2026-05-03T14:43:23Z</time></trkpt><trkpt lat="43.49667412414964" lon="18.571406047500428"><ele>918.0</ele><time>2026-05-03T14:43:24Z</time></trkpt><trkpt lat="43.49661346684701" lon="18.57130341309259"><ele>918.0</ele><time>2026-05-03T14:43:25Z</time></trkpt><trkpt lat="43.49657038617479" lon="18.57119066515301"><ele>918.0</ele><time>2026-05-03T14:43:26Z</time></trkpt><trkpt lat="43.4965355341632" lon="18.571036080969858"><ele>922.75</ele><time>2026-05-03T14:43:27Z</time></trkpt><trkpt lat="43.49650225027005" lon="18.570879895067442"><ele>927.5</ele><time>2026-05-03T14:43:28Z</time></trkpt><trkpt lat="43.496471071888344" lon="18.570726227849743"><ele>932.25</ele><time>2026-05-03T14:43:29Z</time></trkpt><trkpt lat="43.4964196831872" lon="18.570582285790863"><ele>937.0</ele><time>2026-05-03T14:43:30Z</time></trkpt><trkpt lat="43.49634867848037" lon="18.57044797062034"><ele>934.0</ele><time>2026-05-03T14:43:31Z</time></trkpt><trkpt lat="43.49625417056094" lon="18.5703337819551"><ele>931.0</ele><time>2026-05-03T14:43:32Z</time></trkpt><trkpt lat="43.49616406159811" lon="18.57023253716796"><ele>928.0</ele><time>2026-05-03T14:43:33Z</time></trkpt><trkpt lat="43.49608524992383" lon="18.57010328834473"><ele>925.0</ele><time>2026-05-03T14:43:34Z</time></trkpt><trkpt lat="43.49605988920977" lon="18.569931910358985"><ele>925.0</ele><time>2026-05-03T14:43:35Z</time></trkpt><trkpt lat="43.49601518520508" lon="18.569793366152286"><ele>925.0</ele><time>2026-05-03T14:43:36Z</time></trkpt><trkpt lat="43.49595932489704" lon="18.569659865294067"><ele>925.0</ele><time>2026-05-03T14:43:37Z</time></trkpt><trkpt lat="43.49592255892274" lon="18.56951097974638"><ele>925.0</ele><time>2026-05-03T14:43:38Z</time></trkpt><trkpt lat="43.49589393313112" lon="18.569353984121705"><ele>928.0</ele><time>2026-05-03T14:43:39Z</time></trkpt><trkpt lat="43.4958385292696" lon="18.569219438593116"><ele>931.0</ele><time>2026-05-03T14:43:40Z</time></trkpt><trkpt lat="43.495808055362595" lon="18.569082078344966"><ele>934.0</ele><time>2026-05-03T14:43:41Z</time></trkpt><trkpt lat="43.49576395087352" lon="18.56894801049976"><ele>937.0</ele><time>2026-05-03T14:43:42Z</time></trkpt><trkpt lat="43.49569662010267" lon="18.568855083940715"><ele>940.0</ele><time>2026-05-03T14:43:43Z</time></trkpt><trkpt lat="43.495610852566266" lon="18.56877077111471"><ele>940.0</ele><time>2026-05-03T14:43:44Z</time></trkpt><trkpt lat="43.495515847524835" lon="18.568721217674753"><ele>940.0</ele><time>2026-05-03T14:43:45Z</time></trkpt><trkpt lat="43.495428753972845" lon="18.56870296764234"><ele>940.0</ele><time>2026-05-03T14:43:46Z</time></trkpt><trkpt lat="43.49535584884432" lon="18.568649129495636"><ele>940.0</ele><time>2026-05-03T14:43:47Z</time></trkpt><trkpt lat="43.49529958806855" lon="18.568536565211968"><ele>940.0</ele><time>2026-05-03T14:43:48Z</time></trkpt><trkpt lat="43.495296084406995" lon="18.568404756481993"><ele>939.6</ele><time>2026-05-03T14:43:49Z</time></trkpt><trkpt lat="43.49529343910568" lon="18.56826126330371"><ele>939.2</ele><time>2026-05-03T14:43:50Z</time></trkpt><trkpt lat="43.49529101482848" lon="18.568080497498297"><ele>938.8</ele><time>2026-05-03T14:43:51Z</time></trkpt><trkpt lat="43.49526043906079" lon="18.56793036846465"><ele>938.4</ele><time>2026-05-03T14:43:52Z</time></trkpt><trkpt lat="43.495228932651656" lon="18.567805942974143"><ele>938.0</ele><time>2026-05-03T14:43:53Z</time></trkpt><trkpt lat="43.4951776492778" lon="18.567711249798776"><ele>941.4</ele><time>2026-05-03T14:43:54Z</time></trkpt><trkpt lat="43.49511787923293" lon="18.567616990196903"><ele>944.8</ele><time>2026-05-03T14:43:55Z</time></trkpt><trkpt lat="43.495038362635654" lon="18.567529380145732"><ele>948.2</ele><time>2026-05-03T14:43:56Z</time></trkpt><trkpt lat="43.49497366995545" lon="18.56742642531308"><ele>951.6</ele><time>2026-05-03T14:43:57Z</time></trkpt><trkpt lat="43.494910801525634" lon="18.567353477656265"><ele>955.0</ele><time>2026-05-03T14:43:58Z</time></trkpt><trkpt lat="43.49485159336785" lon="18.56722963845922"><ele>955.0</ele><time>2026-05-03T14:43:59Z</time></trkpt><trkpt lat="43.494789438793696" lon="18.567105418287387"><ele>955.0</ele><time>2026-05-03T14:44:00Z</time></trkpt><trkpt lat="43.494716404483135" lon="18.56694050671234"><ele>955.0</ele><time>2026-05-03T14:44:01Z</time></trkpt><trkpt lat="43.49462579050356" lon="18.566719991867572"><ele>955.0</ele><time>2026-05-03T14:44:02Z</time></trkpt><trkpt lat="43.49455422500669" lon="18.56653161957578"><ele>953.9999999999999</ele><time>2026-05-03T14:44:03Z</time></trkpt><trkpt lat="43.49448733942397" lon="18.566399333238934"><ele>953.0</ele><time>2026-05-03T14:44:04Z</time></trkpt><trkpt lat="43.49441940414884" lon="18.56630117767562"><ele>952.0</ele><time>2026-05-03T14:44:05Z</time></trkpt><trkpt lat="43.49437664257378" lon="18.566235336258742"><ele>951.0</ele><time>2026-05-03T14:44:06Z</time></trkpt><trkpt lat="43.494366781609145" lon="18.566146506458818"><ele>949.9999999999999</ele><time>2026-05-03T14:44:08Z</time></trkpt><trkpt lat="43.49443924618083" lon="18.566110289138795"><ele>949.0</ele><time>2026-05-03T14:44:10Z</time></trkpt><trkpt lat="43.49459006206573" lon="18.566185489584832"><ele>952.8000000000001</ele><time>2026-05-03T14:44:12Z</time></trkpt><trkpt lat="43.494695399015654" lon="18.566267854203197"><ele>956.6000000000001</ele><time>2026-05-03T14:44:13Z</time></trkpt><trkpt lat="43.49477846024028" lon="18.56634982466997"><ele>960.4</ele><time>2026-05-03T14:44:14Z</time></trkpt><trkpt lat="43.4948636207095" lon="18.56637469939997"><ele>964.2</ele><time>2026-05-03T14:44:15Z</time></trkpt><trkpt lat="43.49495063285809" lon="18.56639389196373"><ele>968.0</ele><time>2026-05-03T14:44:16Z</time></trkpt><trkpt lat="43.495020445932035" lon="18.566396594517133"><ele>968.0000000000001</ele><time>2026-05-03T14:44:17Z</time></trkpt><trkpt lat="43.49508473791937" lon="18.56643650486168"><ele>968.0</ele><time>2026-05-03T14:44:18Z</time></trkpt><trkpt lat="43.4951269780928" lon="18.566519529881855"><ele>968.0</ele><time>2026-05-03T14:44:19Z</time></trkpt><trkpt lat="43.49515827434114" lon="18.56662273924795"><ele>968.0</ele><time>2026-05-03T14:44:20Z</time></trkpt><trkpt lat="43.49517184293337" lon="18.566710608270352"><ele>968.0000000000001</ele><time>2026-05-03T14:44:21Z</time></trkpt><trkpt lat="43.49524684223453" lon="18.56680579545989"><ele>968.0</ele><time>2026-05-03T14:44:23Z</time></trkpt><trkpt lat="43.49531951648026" lon="18.5667512006546"><ele>968.0</ele><time>2026-05-03T14:44:25Z</time></trkpt><trkpt lat="43.49531379903354" lon="18.566599150417254"><ele>968.0</ele><time>2026-05-03T14:44:27Z</time></trkpt><trkpt lat="43.49527598346102" lon="18.566510931194404"><ele>968.0</ele><time>2026-05-03T14:44:28Z</time></trkpt><trkpt lat="43.495214246048945" lon="18.566391985454356"><ele>968.0</ele><time>2026-05-03T14:44:29Z</time></trkpt><trkpt lat="43.495174151542905" lon="18.566247065671977"><ele>968.0</ele><time>2026-05-03T14:44:30Z</time></trkpt><trkpt lat="43.49515826744579" lon="18.56611703117568"><ele>972.0</ele><time>2026-05-03T14:44:31Z</time></trkpt><trkpt lat="43.495149371939384" lon="18.56600270429789"><ele>976.0</ele><time>2026-05-03T14:44:32Z</time></trkpt><trkpt lat="43.49510361716898" lon="18.565892714676448"><ele>980.0</ele><time>2026-05-03T14:44:33Z</time></trkpt><trkpt lat="43.495034273234644" lon="18.56581179986683"><ele>984.0</ele><time>2026-05-03T14:44:34Z</time></trkpt><trkpt lat="43.49494781165987" lon="18.565743747245676"><ele>988.0</ele><time>2026-05-03T14:44:35Z</time></trkpt><trkpt lat="43.494847644702745" lon="18.56567779582923"><ele>987.9999999999999</ele><time>2026-05-03T14:44:36Z</time></trkpt><trkpt lat="43.49475849626292" lon="18.56565070585278"><ele>988.0</ele><time>2026-05-03T14:44:37Z</time></trkpt><trkpt lat="43.494655741074524" lon="18.56564702545804"><ele>988.0</ele><time>2026-05-03T14:44:39Z</time></trkpt><trkpt lat="43.49459700185709" lon="18.565606759022604"><ele>988.0</ele><time>2026-05-03T14:44:40Z</time></trkpt><trkpt lat="43.49450589544831" lon="18.565541738027235"><ele>987.9999999999999</ele><time>2026-05-03T14:44:41Z</time></trkpt><trkpt lat="43.494444193698456" lon="18.56546075611305"><ele>988.0</ele><time>2026-05-03T14:44:42Z</time></trkpt><trkpt lat="43.49438905452529" lon="18.56536658260687"><ele>989.8</ele><time>2026-05-03T14:44:43Z</time></trkpt><trkpt lat="43.494332953897924" lon="18.56525079296458"><ele>991.5999999999999</ele><time>2026-05-03T14:44:44Z</time></trkpt><trkpt lat="43.494276316085866" lon="18.565138084711663"><ele>993.4000000000001</ele><time>2026-05-03T14:44:45Z</time></trkpt><trkpt lat="43.49420958832454" lon="18.564999892002373"><ele>995.2</ele><time>2026-05-03T14:44:46Z</time></trkpt><trkpt lat="43.494126865010635" lon="18.564891493775757"><ele>997.0</ele><time>2026-05-03T14:44:47Z</time></trkpt><trkpt lat="43.494070597603354" lon="18.564817394707752"><ele>997.0</ele><time>2026-05-03T14:44:48Z</time></trkpt><trkpt lat="43.49399244042569" lon="18.564744400568657"><ele>997.0</ele><time>2026-05-03T14:44:49Z</time></trkpt><trkpt lat="43.49390825294115" lon="18.56464996180218"><ele>997.0</ele><time>2026-05-03T14:44:50Z</time></trkpt><trkpt lat="43.493838393129195" lon="18.564551603205036"><ele>997.0</ele><time>2026-05-03T14:44:51Z</time></trkpt><trkpt lat="43.493769066897" lon="18.564452927854568"><ele>997.0</ele><time>2026-05-03T14:44:52Z</time></trkpt><trkpt lat="43.493723674478765" lon="18.564331748846907"><ele>998.8</ele><time>2026-05-03T14:44:53Z</time></trkpt><trkpt lat="43.49367238774401" lon="18.56421957016768"><ele>1000.6</ele><time>2026-05-03T14:44:54Z</time></trkpt><trkpt lat="43.493632346045246" lon="18.56411210160958"><ele>1002.3999999999999</ele><time>2026-05-03T14:44:55Z</time></trkpt><trkpt lat="43.49357863318959" lon="18.56397391976795"><ele>1004.1999999999999</ele><time>2026-05-03T14:44:56Z</time></trkpt><trkpt lat="43.493535187927584" lon="18.56382634798644"><ele>1006.0</ele><time>2026-05-03T14:44:57Z</time></trkpt><trkpt lat="43.493507918634" lon="18.563678622162538"><ele>1006.4</ele><time>2026-05-03T14:44:58Z</time></trkpt><trkpt lat="43.49348380234932" lon="18.563540004925667"><ele>1006.8</ele><time>2026-05-03T14:44:59Z</time></trkpt><trkpt lat="43.4934376173586" lon="18.56342301730274"><ele>1007.1999999999999</ele><time>2026-05-03T14:45:00Z</time></trkpt><trkpt lat="43.49335493959519" lon="18.563314371777842"><ele>1007.5999999999999</ele><time>2026-05-03T14:45:01Z</time></trkpt><trkpt lat="43.49326092496652" lon="18.563264293472905"><ele>1008.0</ele><time>2026-05-03T14:45:02Z</time></trkpt><trkpt lat="43.49316544416508" lon="18.563242039974572"><ele>1008.0</ele><time>2026-05-03T14:45:03Z</time></trkpt><trkpt lat="43.493068850931806" lon="18.563213733511297"><ele>1008.0</ele><time>2026-05-03T14:45:04Z</time></trkpt><trkpt lat="43.49300951902115" lon="18.563173287859787"><ele>1008.0</ele><time>2026-05-03T14:45:05Z</time></trkpt><trkpt lat="43.492946791299524" lon="18.56308309477158"><ele>1008.0</ele><time>2026-05-03T14:45:06Z</time></trkpt><trkpt lat="43.49288056226556" lon="18.56296044634097"><ele>1008.0</ele><time>2026-05-03T14:45:07Z</time></trkpt><trkpt lat="43.49281396929818" lon="18.562828268365507"><ele>1007.5999999999999</ele><time>2026-05-03T14:45:08Z</time></trkpt><trkpt lat="43.49275571175038" lon="18.56271598612074"><ele>1007.1999999999999</ele><time>2026-05-03T14:45:09Z</time></trkpt><trkpt lat="43.49268373540541" lon="18.562626584853074"><ele>1006.8</ele><time>2026-05-03T14:45:10Z</time></trkpt><trkpt lat="43.492601566361614" lon="18.56255893274953"><ele>1006.4</ele><time>2026-05-03T14:45:11Z</time></trkpt><trkpt lat="43.492505009213446" lon="18.56251735314863"><ele>1006.0</ele><time>2026-05-03T14:45:12Z</time></trkpt><trkpt lat="43.4924074742624" lon="18.562499453222713"><ele>1006.0</ele><time>2026-05-03T14:45:13Z</time></trkpt><trkpt lat="43.49231484163682" lon="18.562485958321876"><ele>1005.9999999999999</ele><time>2026-05-03T14:45:14Z</time></trkpt><trkpt lat="43.49222012347762" lon="18.562463270029504"><ele>1005.9999999999999</ele><time>2026-05-03T14:45:15Z</time></trkpt><trkpt lat="43.4921478912273" lon="18.562412396732835"><ele>1006.0</ele><time>2026-05-03T14:45:16Z</time></trkpt><trkpt lat="43.49208654479695" lon="18.562320275716164"><ele>1006.0</ele><time>2026-05-03T14:45:17Z</time></trkpt><trkpt lat="43.49204537308391" lon="18.562198714152206"><ele>1005.1999999999999</ele><time>2026-05-03T14:45:18Z</time></trkpt><trkpt lat="43.49201328217587" lon="18.562078652536847"><ele>1004.3999999999999</ele><time>2026-05-03T14:45:19Z</time></trkpt><trkpt lat="43.4920026861994" lon="18.561960876352575"><ele>1003.6</ele><time>2026-05-03T14:45:20Z</time></trkpt><trkpt lat="43.49198917839521" lon="18.561827073405063"><ele>1002.8</ele><time>2026-05-03T14:45:21Z</time></trkpt><trkpt lat="43.49196048050347" lon="18.561696353548655"><ele>1002.0</ele><time>2026-05-03T14:45:22Z</time></trkpt><trkpt lat="43.49190245402539" lon="18.56155843491203"><ele>1002.0</ele><time>2026-05-03T14:45:23Z</time></trkpt><trkpt lat="43.491834059516734" lon="18.561426209908902"><ele>1002.0</ele><time>2026-05-03T14:45:24Z</time></trkpt><trkpt lat="43.49173331091709" lon="18.561285805055157"><ele>1002.0</ele><time>2026-05-03T14:45:25Z</time></trkpt><trkpt lat="43.49162446843457" lon="18.561148011475805"><ele>1002.0</ele><time>2026-05-03T14:45:26Z</time></trkpt><trkpt lat="43.491518929604176" lon="18.561041228883624"><ele>1006.0</ele><time>2026-05-03T14:45:27Z</time></trkpt><trkpt lat="43.491437832518756" lon="18.560951881421374"><ele>1010.0</ele><time>2026-05-03T14:45:28Z</time></trkpt><trkpt lat="43.49136086785751" lon="18.560853786161733"><ele>1014.0</ele><time>2026-05-03T14:45:29Z</time></trkpt><trkpt lat="43.49130594022827" lon="18.56076257205533"><ele>1018.0</ele><time>2026-05-03T14:45:30Z</time></trkpt><trkpt lat="43.49127561346568" lon="18.560649687273326"><ele>1022.0</ele><time>2026-05-03T14:45:31Z</time></trkpt><trkpt lat="43.491263421403644" lon="18.560534125088672"><ele>1022.0</ele><time>2026-05-03T14:45:32Z</time></trkpt><trkpt lat="43.49127250566532" lon="18.560393797831164"><ele>1022.0</ele><time>2026-05-03T14:45:33Z</time></trkpt><trkpt lat="43.49132157687693" lon="18.56022187374678"><ele>1022.0</ele><time>2026-05-03T14:45:34Z</time></trkpt><trkpt lat="43.49131305406205" lon="18.560019481359557"><ele>1022.0</ele><time>2026-05-03T14:45:35Z</time></trkpt><trkpt lat="43.49127809620229" lon="18.55980328759205"><ele>1021.0</ele><time>2026-05-03T14:45:36Z</time></trkpt><trkpt lat="43.49124190091093" lon="18.5595913533771"><ele>1020.0</ele><time>2026-05-03T14:45:37Z</time></trkpt><trkpt lat="43.491210032536124" lon="18.5594068579645"><ele>1019.0</ele><time>2026-05-03T14:45:38Z</time></trkpt><trkpt lat="43.4911816151968" lon="18.55924003593411"><ele>1018.0</ele><time>2026-05-03T14:45:39Z</time></trkpt><trkpt lat="43.491155537930474" lon="18.559057660054172"><ele>1018.0</ele><time>2026-05-03T14:45:40Z</time></trkpt><trkpt lat="43.491132332130064" lon="18.55889172094443"><ele>1018.0</ele><time>2026-05-03T14:45:41Z</time></trkpt><trkpt lat="43.49110831890306" lon="18.55871862567797"><ele>1018.0</ele><time>2026-05-03T14:45:42Z</time></trkpt><trkpt lat="43.49108481430946" lon="18.558554055428345"><ele>1018.0</ele><time>2026-05-03T14:45:43Z</time></trkpt><trkpt lat="43.4910604880126" lon="18.558380628604482"><ele>1021.25</ele><time>2026-05-03T14:45:44Z</time></trkpt><trkpt lat="43.4910045593937" lon="18.55820673442129"><ele>1024.5</ele><time>2026-05-03T14:45:45Z</time></trkpt><trkpt lat="43.49089561212574" lon="18.558086270588834"><ele>1027.75</ele><time>2026-05-03T14:45:46Z</time></trkpt><trkpt lat="43.49082202085964" lon="18.55799575264458"><ele>1031.0</ele><time>2026-05-03T14:45:47Z</time></trkpt><trkpt lat="43.49076697934821" lon="18.55792025512797"><ele>1033.0</ele><time>2026-05-03T14:45:48Z</time></trkpt><trkpt lat="43.49071087696553" lon="18.55784458050285"><ele>1035.0</ele><time>2026-05-03T14:45:49Z</time></trkpt><trkpt lat="43.49071281306632" lon="18.5577407748906"><ele>1037.0</ele><time>2026-05-03T14:45:50Z</time></trkpt><trkpt lat="43.490687134299016" lon="18.557655040226695"><ele>1039.0</ele><time>2026-05-03T14:45:51Z</time></trkpt><trkpt lat="43.49070634531598" lon="18.557543703263278"><ele>1041.0</ele><time>2026-05-03T14:45:52Z</time></trkpt><trkpt lat="43.49072977160115" lon="18.557429151318104"><ele>1043.0</ele><time>2026-05-03T14:45:53Z</time></trkpt><trkpt lat="43.49074534142933" lon="18.557293311581883"><ele>1043.0</ele><time>2026-05-03T14:45:54Z</time></trkpt><trkpt lat="43.49075084152159" lon="18.557163878987375"><ele>1043.0</ele><time>2026-05-03T14:45:55Z</time></trkpt><trkpt lat="43.49073845914129" lon="18.557047836974384"><ele>1043.0</ele><time>2026-05-03T14:45:56Z</time></trkpt><trkpt lat="43.49070552578936" lon="18.556936636114372"><ele>1043.0</ele><time>2026-05-03T14:45:57Z</time></trkpt><trkpt lat="43.49068095456076" lon="18.556825299497337"><ele>1043.0</ele><time>2026-05-03T14:45:58Z</time></trkpt><trkpt lat="43.49066045172233" lon="18.55669592665514"><ele>1043.0</ele><time>2026-05-03T14:45:59Z</time></trkpt><trkpt lat="43.49064515794068" lon="18.55659530515156"><ele>1046.2</ele><time>2026-05-03T14:46:00Z</time></trkpt><trkpt lat="43.49056062328206" lon="18.55650098464305"><ele>1049.4</ele><time>2026-05-03T14:46:02Z</time></trkpt><trkpt lat="43.49048650380652" lon="18.556496668145876"><ele>1052.6000000000001</ele><time>2026-05-03T14:46:03Z</time></trkpt><trkpt lat="43.490410418131844" lon="18.556573533745762"><ele>1055.8</ele><time>2026-05-03T14:46:04Z</time></trkpt><trkpt lat="43.49036811223235" lon="18.556657465748508"><ele>1059.0</ele><time>2026-05-03T14:46:05Z</time></trkpt><trkpt lat="43.49026678119804" lon="18.5567728794294"><ele>1059.1666666666667</ele><time>2026-05-03T14:46:07Z</time></trkpt><trkpt lat="43.49020622808926" lon="18.556842466784474"><ele>1059.3333333333333</ele><time>2026-05-03T14:46:08Z</time></trkpt><trkpt lat="43.49013869355612" lon="18.556889851860724"><ele>1059.5</ele><time>2026-05-03T14:46:10Z</time></trkpt><trkpt lat="43.490071444767985" lon="18.556922770996092"><ele>1059.6666666666665</ele><time>2026-05-03T14:46:12Z</time></trkpt><trkpt lat="43.489987719264654" lon="18.556922049809224"><ele>1059.8333333333333</ele><time>2026-05-03T14:46:17Z</time></trkpt><trkpt lat="43.48990234383853" lon="18.556932428692612"><ele>1060.0</ele><time>2026-05-03T14:46:19Z</time></trkpt><trkpt lat="43.48981592495345" lon="18.5569263182341"><ele>1060.0</ele><time>2026-05-03T14:46:22Z</time></trkpt><trkpt lat="43.489752159418025" lon="18.556946187219356"><ele>1060.0</ele><time>2026-05-03T14:46:24Z</time></trkpt><trkpt lat="43.489625702665144" lon="18.556965656609787"><ele>1060.0</ele><time>2026-05-03T14:46:26Z</time></trkpt><trkpt lat="43.48951045179966" lon="18.556978927983167"><ele>1060.0</ele><time>2026-05-03T14:46:28Z</time></trkpt><trkpt lat="43.489437713145705" lon="18.556986838737807"><ele>1060.0</ele><time>2026-05-03T14:46:29Z</time></trkpt><trkpt lat="43.48935898758825" lon="18.556990673863698"><ele>1058.3333333333333</ele><time>2026-05-03T14:46:30Z</time></trkpt><trkpt lat="43.48928103130182" lon="18.556994568505655"><ele>1056.6666666666665</ele><time>2026-05-03T14:46:31Z</time></trkpt><trkpt lat="43.48919282603696" lon="18.556998811164235"><ele>1055.0</ele><time>2026-05-03T14:46:32Z</time></trkpt><trkpt lat="43.48912134387706" lon="18.557012205324042"><ele>1053.3333333333333</ele><time>2026-05-03T14:46:33Z</time></trkpt><trkpt lat="43.4889941979066" lon="18.557031002052735"><ele>1051.6666666666667</ele><time>2026-05-03T14:46:35Z</time></trkpt><trkpt lat="43.488920907239745" lon="18.557068891295255"><ele>1050.0</ele><time>2026-05-03T14:46:36Z</time></trkpt><trkpt lat="43.48884811441458" lon="18.557125179532143"><ele>1050.0</ele><time>2026-05-03T14:46:37Z</time></trkpt><trkpt lat="43.48877656251605" lon="18.55717768001491"><ele>1050.0</ele><time>2026-05-03T14:46:38Z</time></trkpt><trkpt lat="43.48870645614816" lon="18.557246198849167"><ele>1050.0</ele><time>2026-05-03T14:46:39Z</time></trkpt><trkpt lat="43.488635147970214" lon="18.55731586266648"><ele>1050.0</ele><time>2026-05-03T14:46:40Z</time></trkpt><trkpt lat="43.48857211505201" lon="18.557435059218324"><ele>1050.0</ele><time>2026-05-03T14:46:41Z</time></trkpt><trkpt lat="43.488521676308004" lon="18.557544316652706"><ele>1052.0</ele><time>2026-05-03T14:46:42Z</time></trkpt><trkpt lat="43.48847913330567" lon="18.55764470822681"><ele>1054.0</ele><time>2026-05-03T14:46:43Z</time></trkpt><trkpt lat="43.488458729891725" lon="18.55777510763382"><ele>1056.0</ele><time>2026-05-03T14:46:44Z</time></trkpt><trkpt lat="43.48837203224561" lon="18.557903226509467"><ele>1058.0</ele><time>2026-05-03T14:46:46Z</time></trkpt><trkpt lat="43.48824926911789" lon="18.557914442274125"><ele>1060.0</ele><time>2026-05-03T14:46:48Z</time></trkpt><trkpt lat="43.488181616442134" lon="18.55791089923799"><ele>1060.0</ele><time>2026-05-03T14:46:49Z</time></trkpt><trkpt lat="43.488095417547385" lon="18.55788750819097"><ele>1060.0</ele><time>2026-05-03T14:46:50Z</time></trkpt><trkpt lat="43.48801208074703" lon="18.557874340043952"><ele>1060.0</ele><time>2026-05-03T14:46:51Z</time></trkpt><trkpt lat="43.48793234321165" lon="18.557903952562448"><ele>1060.0</ele><time>2026-05-03T14:46:52Z</time></trkpt><trkpt lat="43.487849498328394" lon="18.557933600782768"><ele>1060.0</ele><time>2026-05-03T14:46:53Z</time></trkpt><trkpt lat="43.487774650689175" lon="18.557972861015283"><ele>1060.0</ele><time>2026-05-03T14:46:54Z</time></trkpt><trkpt lat="43.48769944655999" lon="18.558000292025426"><ele>1060.9999999999998</ele><time>2026-05-03T14:46:55Z</time></trkpt><trkpt lat="43.48763864565478" lon="18.55807840776805"><ele>1062.0</ele><time>2026-05-03T14:46:56Z</time></trkpt><trkpt lat="43.48758567466672" lon="18.55814420514908"><ele>1063.0</ele><time>2026-05-03T14:46:57Z</time></trkpt><trkpt lat="43.48752904441307" lon="18.55818592965257"><ele>1064.0</ele><time>2026-05-03T14:46:58Z</time></trkpt><trkpt lat="43.48746193060784" lon="18.558197076381756"><ele>1065.0</ele><time>2026-05-03T14:46:59Z</time></trkpt><trkpt lat="43.48738583587243" lon="18.558194039075936"><ele>1065.9999999999998</ele><time>2026-05-03T14:47:00Z</time></trkpt><trkpt lat="43.48731731295473" lon="18.55818522672914"><ele>1067.0</ele><time>2026-05-03T14:47:01Z</time></trkpt><trkpt lat="43.487254985218705" lon="18.55808945823756"><ele>1067.0</ele><time>2026-05-03T14:47:02Z</time></trkpt><trkpt lat="43.48717203639247" lon="18.558024966807174"><ele>1067.0</ele><time>2026-05-03T14:47:03Z</time></trkpt><trkpt lat="43.487095821248005" lon="18.557952024444194"><ele>1067.0</ele><time>2026-05-03T14:47:04Z</time></trkpt><trkpt lat="43.48701980071304" lon="18.55788269271466"><ele>1067.0</ele><time>2026-05-03T14:47:05Z</time></trkpt><trkpt lat="43.48694722853437" lon="18.55781650591838"><ele>1067.0</ele><time>2026-05-03T14:47:06Z</time></trkpt><trkpt lat="43.48687587808193" lon="18.557751832597795"><ele>1070.0</ele><time>2026-05-03T14:47:07Z</time></trkpt><trkpt lat="43.48682701959429" lon="18.557690038844505"><ele>1073.0</ele><time>2026-05-03T14:47:08Z</time></trkpt><trkpt lat="43.48676293915503" lon="18.557608117250158"><ele>1076.0</ele><time>2026-05-03T14:47:09Z</time></trkpt><trkpt lat="43.48669859752585" lon="18.55752586092369"><ele>1079.0</ele><time>2026-05-03T14:47:10Z</time></trkpt><trkpt lat="43.48661841666252" lon="18.557424238659852"><ele>1082.0</ele><time>2026-05-03T14:47:11Z</time></trkpt><trkpt lat="43.48652850895167" lon="18.557329383587234"><ele>1082.0</ele><time>2026-05-03T14:47:12Z</time></trkpt><trkpt lat="43.486462953938414" lon="18.557224183499983"><ele>1082.0</ele><time>2026-05-03T14:47:13Z</time></trkpt><trkpt lat="43.48639499539203" lon="18.557128971082847"><ele>1082.0</ele><time>2026-05-03T14:47:14Z</time></trkpt><trkpt lat="43.48632553874765" lon="18.557044990790246"><ele>1082.0</ele><time>2026-05-03T14:47:15Z</time></trkpt><trkpt lat="43.486263251747964" lon="18.556961725848474"><ele>1082.0</ele><time>2026-05-03T14:47:16Z</time></trkpt><trkpt lat="43.48619539693155" lon="18.556897742753442"><ele>1084.6</ele><time>2026-05-03T14:47:17Z</time></trkpt><trkpt lat="43.48612345993907" lon="18.556828712541723"><ele>1087.2</ele><time>2026-05-03T14:47:18Z</time></trkpt><trkpt lat="43.48603812462628" lon="18.55679179425461"><ele>1089.8</ele><time>2026-05-03T14:47:19Z</time></trkpt><trkpt lat="43.48594122864562" lon="18.556796034685558"><ele>1092.4</ele><time>2026-05-03T14:47:20Z</time></trkpt><trkpt lat="43.485848183547866" lon="18.556830427490727"><ele>1095.0</ele><time>2026-05-03T14:47:21Z</time></trkpt><trkpt lat="43.48576439255942" lon="18.556895050272495"><ele>1095.0</ele><time>2026-05-03T14:47:22Z</time></trkpt><trkpt lat="43.48568975775583" lon="18.55694138353026"><ele>1095.0</ele><time>2026-05-03T14:47:23Z</time></trkpt><trkpt lat="43.485620886209766" lon="18.556984138624273"><ele>1095.0</ele><time>2026-05-03T14:47:24Z</time></trkpt><trkpt lat="43.48548902180267" lon="18.55701519811909"><ele>1095.0</ele><time>2026-05-03T14:47:26Z</time></trkpt><trkpt lat="43.48537083661182" lon="18.556981873982853"><ele>1095.0</ele><time>2026-05-03T14:47:28Z</time></trkpt><trkpt lat="43.4852848832553" lon="18.556959148395457"><ele>1096.0</ele><time>2026-05-03T14:47:29Z</time></trkpt><trkpt lat="43.485197466540576" lon="18.556937864170916"><ele>1097.0</ele><time>2026-05-03T14:47:30Z</time></trkpt><trkpt lat="43.48509705985398" lon="18.5569132207961"><ele>1098.0</ele><time>2026-05-03T14:47:31Z</time></trkpt><trkpt lat="43.484990044371266" lon="18.556955309025135"><ele>1099.0</ele><time>2026-05-03T14:47:32Z</time></trkpt><trkpt lat="43.484870599405845" lon="18.556953379098584"><ele>1100.0</ele><time>2026-05-03T14:47:33Z</time></trkpt><trkpt lat="43.48476877035225" lon="18.556976412326645"><ele>1100.0</ele><time>2026-05-03T14:47:34Z</time></trkpt><trkpt lat="43.48467805312697" lon="18.556971734736575"><ele>1100.0</ele><time>2026-05-03T14:47:35Z</time></trkpt><trkpt lat="43.48460084839729" lon="18.556956627363505"><ele>1100.0</ele><time>2026-05-03T14:47:36Z</time></trkpt><trkpt lat="43.484529256266605" lon="18.556926969317452"><ele>1100.0</ele><time>2026-05-03T14:47:37Z</time></trkpt><trkpt lat="43.4844605889199" lon="18.556862317080547"><ele>1100.0</ele><time>2026-05-03T14:47:38Z</time></trkpt><trkpt lat="43.484390171097786" lon="18.55678227707345"><ele>1100.0</ele><time>2026-05-03T14:47:39Z</time></trkpt><trkpt lat="43.48431332559195" lon="18.556696874080107"><ele>1100.1666666666667</ele><time>2026-05-03T14:47:40Z</time></trkpt><trkpt lat="43.484241421935145" lon="18.556643735487096"><ele>1100.3333333333335</ele><time>2026-05-03T14:47:41Z</time></trkpt><trkpt lat="43.48417758441355" lon="18.556613533298062"><ele>1100.5</ele><time>2026-05-03T14:47:42Z</time></trkpt><trkpt lat="43.48410782001339" lon="18.5565350405613"><ele>1100.6666666666667</ele><time>2026-05-03T14:47:44Z</time></trkpt><trkpt lat="43.4841418459781" lon="18.55644137459954"><ele>1100.8333333333333</ele><time>2026-05-03T14:47:46Z</time></trkpt><trkpt lat="43.4842327264342" lon="18.55646948103545"><ele>1101.0</ele><time>2026-05-03T14:47:48Z</time></trkpt><trkpt lat="43.48427983177929" lon="18.55652729555216"><ele>1101.0</ele><time>2026-05-03T14:47:49Z</time></trkpt><trkpt lat="43.48434761383109" lon="18.556539272544654"><ele>1101.0</ele><time>2026-05-03T14:47:50Z</time></trkpt><trkpt lat="43.48442121746235" lon="18.556569284361"><ele>1101.0</ele><time>2026-05-03T14:47:51Z</time></trkpt><trkpt lat="43.48450344519353" lon="18.55660816713352"><ele>1101.0</ele><time>2026-05-03T14:47:52Z</time></trkpt><trkpt lat="43.48457048833634" lon="18.55660258073241"><ele>1101.0</ele><time>2026-05-03T14:47:53Z</time></trkpt><trkpt lat="43.48465281815072" lon="18.556581876027806"><ele>1101.0</ele><time>2026-05-03T14:47:54Z</time></trkpt><trkpt lat="43.48471513838713" lon="18.556516036033322"><ele>1100.8333333333333</ele><time>2026-05-03T14:47:55Z</time></trkpt><trkpt lat="43.48476127628676" lon="18.556417170212317"><ele>1100.6666666666667</ele><time>2026-05-03T14:47:56Z</time></trkpt><trkpt lat="43.4847939923851" lon="18.556321315952637"><ele>1100.5</ele><time>2026-05-03T14:47:57Z</time></trkpt><trkpt lat="43.48477472435103" lon="18.556208357229387"><ele>1100.3333333333335</ele><time>2026-05-03T14:47:58Z</time></trkpt><trkpt lat="43.48476076117433" lon="18.556099222493557"><ele>1100.1666666666667</ele><time>2026-05-03T14:47:59Z</time></trkpt><trkpt lat="43.48471740302397" lon="18.55598222799634"><ele>1100.0</ele><time>2026-05-03T14:48:00Z</time></trkpt><trkpt lat="43.48466370984024" lon="18.55586929014316"><ele>1102.1666666666667</ele><time>2026-05-03T14:48:01Z</time></trkpt><trkpt lat="43.48462394469662" lon="18.55577436912674"><ele>1104.3333333333335</ele><time>2026-05-03T14:48:02Z</time></trkpt><trkpt lat="43.48459490450736" lon="18.55568669070614"><ele>1106.5</ele><time>2026-05-03T14:48:03Z</time></trkpt><trkpt lat="43.484583745289626" lon="18.555585882577468"><ele>1108.6666666666667</ele><time>2026-05-03T14:48:04Z</time></trkpt><trkpt lat="43.484585781249976" lon="18.55547316884723"><ele>1110.8333333333333</ele><time>2026-05-03T14:48:05Z</time></trkpt><trkpt lat="43.484605359134434" lon="18.555366185412204"><ele>1113.0</ele><time>2026-05-03T14:48:06Z</time></trkpt><trkpt lat="43.48463913396856" lon="18.55525880092332"><ele>1117.0</ele><time>2026-05-03T14:48:07Z</time></trkpt><trkpt lat="43.484708123841266" lon="18.55519903403566"><ele>1121.0</ele><time>2026-05-03T14:48:08Z</time></trkpt><trkpt lat="43.484796565929365" lon="18.555233542300634"><ele>1125.0</ele><time>2026-05-03T14:48:09Z</time></trkpt><trkpt lat="43.48486818227863" lon="18.555247227533677"><ele>1129.0</ele><time>2026-05-03T14:48:10Z</time></trkpt><trkpt lat="43.48495891586323" lon="18.555239502345593"><ele>1133.0</ele><time>2026-05-03T14:48:11Z</time></trkpt><trkpt lat="43.485057330092" lon="18.55523140652486"><ele>1137.0</ele><time>2026-05-03T14:48:12Z</time></trkpt><trkpt lat="43.485145146188444" lon="18.555243442899094"><ele>1137.0</ele><time>2026-05-03T14:48:13Z</time></trkpt><trkpt lat="43.48524204341744" lon="18.55525834543395"><ele>1137.0</ele><time>2026-05-03T14:48:14Z</time></trkpt><trkpt lat="43.485331641711696" lon="18.555282931685667"><ele>1137.0</ele><time>2026-05-03T14:48:15Z</time></trkpt><trkpt lat="43.48541838339449" lon="18.55529771759753"><ele>1137.0</ele><time>2026-05-03T14:48:16Z</time></trkpt><trkpt lat="43.4855051367424" lon="18.55526378837416"><ele>1137.0</ele><time>2026-05-03T14:48:17Z</time></trkpt><trkpt lat="43.48560660325843" lon="18.55523959522024"><ele>1136.0</ele><time>2026-05-03T14:48:18Z</time></trkpt><trkpt lat="43.48567991436012" lon="18.555163747770745"><ele>1135.0</ele><time>2026-05-03T14:48:19Z</time></trkpt><trkpt lat="43.485759878565915" lon="18.55512933102035"><ele>1134.0</ele><time>2026-05-03T14:48:20Z</time></trkpt><trkpt lat="43.48583048419875" lon="18.555098856885138"><ele>1133.0</ele><time>2026-05-03T14:48:21Z</time></trkpt><trkpt lat="43.48589913313503" lon="18.555069227899622"><ele>1132.0</ele><time>2026-05-03T14:48:22Z</time></trkpt><trkpt lat="43.486027276010354" lon="18.555086488217324"><ele>1132.0</ele><time>2026-05-03T14:48:24Z</time></trkpt><trkpt lat="43.48614295393378" lon="18.55512261997181"><ele>1132.0</ele><time>2026-05-03T14:48:26Z</time></trkpt><trkpt lat="43.48626998435606" lon="18.55516824621873"><ele>1132.0</ele><time>2026-05-03T14:48:28Z</time></trkpt><trkpt lat="43.48634616213131" lon="18.555197733650157"><ele>1132.0</ele><time>2026-05-03T14:48:29Z</time></trkpt><trkpt lat="43.486442665916016" lon="18.555236532802624"><ele>1132.0</ele><time>2026-05-03T14:48:30Z</time></trkpt><trkpt lat="43.48652316058907" lon="18.555248942161953"><ele>1133.3333333333333</ele><time>2026-05-03T14:48:31Z</time></trkpt><trkpt lat="43.48661344583851" lon="18.55528443483756"><ele>1134.6666666666665</ele><time>2026-05-03T14:48:32Z</time></trkpt><trkpt lat="43.48669061894095" lon="18.555313944578057"><ele>1136.0</ele><time>2026-05-03T14:48:33Z</time></trkpt><trkpt lat="43.48675755491525" lon="18.55534489858265"><ele>1137.3333333333333</ele><time>2026-05-03T14:48:34Z</time></trkpt><trkpt lat="43.486822250671" lon="18.555297568860333"><ele>1138.6666666666667</ele><time>2026-05-03T14:48:35Z</time></trkpt><trkpt lat="43.48688026371891" lon="18.55524950109797"><ele>1140.0</ele><time>2026-05-03T14:48:36Z</time></trkpt><trkpt lat="43.48694058878955" lon="18.555171661001356"><ele>1140.0</ele><time>2026-05-03T14:48:37Z</time></trkpt><trkpt lat="43.486994530698" lon="18.555094553586787"><ele>1140.0</ele><time>2026-05-03T14:48:38Z</time></trkpt><trkpt lat="43.48703870706485" lon="18.55501634815691"><ele>1140.0</ele><time>2026-05-03T14:48:39Z</time></trkpt><trkpt lat="43.48707239471416" lon="18.55493039337674"><ele>1140.0</ele><time>2026-05-03T14:48:40Z</time></trkpt><trkpt lat="43.48710499514057" lon="18.55484518633923"><ele>1140.0</ele><time>2026-05-03T14:48:41Z</time></trkpt><trkpt lat="43.48713876733474" lon="18.55476677032136"><ele>1140.0</ele><time>2026-05-03T14:48:42Z</time></trkpt><trkpt lat="43.487172830881796" lon="18.554692801732045"><ele>1140.0</ele><time>2026-05-03T14:48:43Z</time></trkpt><trkpt lat="43.48720348118261" lon="18.554615239831637"><ele>1141.5714285714284</ele><time>2026-05-03T14:48:44Z</time></trkpt><trkpt lat="43.48723132780004" lon="18.554527889684017"><ele>1143.142857142857</ele><time>2026-05-03T14:48:45Z</time></trkpt><trkpt lat="43.48727742183852" lon="18.554448149480706"><ele>1144.7142857142858</ele><time>2026-05-03T14:48:46Z</time></trkpt><trkpt lat="43.48733327218758" lon="18.554386484798073"><ele>1146.2857142857142</ele><time>2026-05-03T14:48:47Z</time></trkpt><trkpt lat="43.48739011520367" lon="18.554308159807793"><ele>1147.857142857143</ele><time>2026-05-03T14:48:48Z</time></trkpt><trkpt lat="43.487448751423564" lon="18.55425638849114"><ele>1149.4285714285713</ele><time>2026-05-03T14:48:49Z</time></trkpt><trkpt lat="43.487503084574016" lon="18.554198075639242"><ele>1151.0</ele><time>2026-05-03T14:48:50Z</time></trkpt><trkpt lat="43.48756330905598" lon="18.554134440281462"><ele>1150.9999999999998</ele><time>2026-05-03T14:48:51Z</time></trkpt><trkpt lat="43.4876091003692" lon="18.554042876081624"><ele>1151.0</ele><time>2026-05-03T14:48:52Z</time></trkpt><trkpt lat="43.48766245375352" lon="18.553984685403776"><ele>1151.0</ele><time>2026-05-03T14:48:53Z</time></trkpt><trkpt lat="43.4877189254911" lon="18.55394147855618"><ele>1151.0</ele><time>2026-05-03T14:48:54Z</time></trkpt><trkpt lat="43.48778941949666" lon="18.553891192900455"><ele>1151.0</ele><time>2026-05-03T14:48:55Z</time></trkpt><trkpt lat="43.487854998631015" lon="18.553836039576346"><ele>1150.9999999999998</ele><time>2026-05-03T14:48:56Z</time></trkpt><trkpt lat="43.48788254657329" lon="18.553752036906925"><ele>1151.0</ele><time>2026-05-03T14:48:57Z</time></trkpt><trkpt lat="43.48792520458297" lon="18.553656870045383"><ele>1152.3999999999999</ele><time>2026-05-03T14:48:58Z</time></trkpt><trkpt lat="43.48796863119317" lon="18.553558792420535"><ele>1153.8</ele><time>2026-05-03T14:48:59Z</time></trkpt><trkpt lat="43.48803644018294" lon="18.55338561500641"><ele>1155.1999999999998</ele><time>2026-05-03T14:49:01Z</time></trkpt><trkpt lat="43.488099926446864" lon="18.553267410661757"><ele>1156.6</ele><time>2026-05-03T14:49:03Z</time></trkpt><trkpt lat="43.488157404104854" lon="18.553195134925346"><ele>1158.0</ele><time>2026-05-03T14:49:04Z</time></trkpt><trkpt lat="43.488223251022724" lon="18.553060342725992"><ele>1158.0</ele><time>2026-05-03T14:49:06Z</time></trkpt><trkpt lat="43.48826092960193" lon="18.55297668373408"><ele>1158.0</ele><time>2026-05-03T14:49:07Z</time></trkpt><trkpt lat="43.48836308598392" lon="18.552923303964004"><ele>1158.0</ele><time>2026-05-03T14:49:09Z</time></trkpt><trkpt lat="43.4884508863338" lon="18.55289417247794"><ele>1158.0</ele><time>2026-05-03T14:49:10Z</time></trkpt><trkpt lat="43.488546855387206" lon="18.55284995532024"><ele>1158.0</ele><time>2026-05-03T14:49:11Z</time></trkpt><trkpt lat="43.488657260003535" lon="18.552797662362913"><ele>1161.25</ele><time>2026-05-03T14:49:12Z</time></trkpt><trkpt lat="43.48878823787598" lon="18.552754406313163"><ele>1164.5</ele><time>2026-05-03T14:49:13Z</time></trkpt><trkpt lat="43.48890152608466" lon="18.552710137886088"><ele>1167.75</ele><time>2026-05-03T14:49:14Z</time></trkpt><trkpt lat="43.48900515168732" lon="18.55267717754022"><ele>1171.0</ele><time>2026-05-03T14:49:15Z</time></trkpt><trkpt lat="43.489087775798424" lon="18.55261816509726"><ele>1171.0</ele><time>2026-05-03T14:49:16Z</time></trkpt><trkpt lat="43.48916108918668" lon="18.55255749656186"><ele>1171.0</ele><time>2026-05-03T14:49:17Z</time></trkpt><trkpt lat="43.489237797977395" lon="18.552493602422135"><ele>1171.0</ele><time>2026-05-03T14:49:18Z</time></trkpt><trkpt lat="43.48929927363305" lon="18.55241172144933"><ele>1171.0</ele><time>2026-05-03T14:49:19Z</time></trkpt><trkpt lat="43.48934842001702" lon="18.55234528425438"><ele>1171.0</ele><time>2026-05-03T14:49:20Z</time></trkpt><trkpt lat="43.4894065255129" lon="18.55226789464563"><ele>1171.0</ele><time>2026-05-03T14:49:21Z</time></trkpt><trkpt lat="43.4894646940787" lon="18.552190051395026"><ele>1171.0</ele><time>2026-05-03T14:49:22Z</time></trkpt><trkpt lat="43.4895188908557" lon="18.552117227383285"><ele>1171.0</ele><time>2026-05-03T14:49:23Z</time></trkpt><trkpt lat="43.4895823015927" lon="18.552032271340266"><ele>1171.0</ele><time>2026-05-03T14:49:24Z</time></trkpt><trkpt lat="43.489648767605765" lon="18.551917169454956"><ele>1171.0</ele><time>2026-05-03T14:49:25Z</time></trkpt><trkpt lat="43.489720090861766" lon="18.551857452491994"><ele>1171.0</ele><time>2026-05-03T14:49:26Z</time></trkpt><trkpt lat="43.48980394432416" lon="18.55176644396469"><ele>1174.0</ele><time>2026-05-03T14:49:27Z</time></trkpt><trkpt lat="43.48989114859354" lon="18.551674141177536"><ele>1177.0</ele><time>2026-05-03T14:49:28Z</time></trkpt><trkpt lat="43.48998961190805" lon="18.551661812231753"><ele>1180.0</ele><time>2026-05-03T14:49:29Z</time></trkpt><trkpt lat="43.49008693423705" lon="18.551613137250655"><ele>1183.0</ele><time>2026-05-03T14:49:30Z</time></trkpt><trkpt lat="43.49021019693292" lon="18.551640758267247"><ele>1186.0</ele><time>2026-05-03T14:49:31Z</time></trkpt><trkpt lat="43.490340878853715" lon="18.551661651136016"><ele>1185.5</ele><time>2026-05-03T14:49:32Z</time></trkpt><trkpt lat="43.49047398732155" lon="18.55165705052204"><ele>1185.0</ele><time>2026-05-03T14:49:33Z</time></trkpt><trkpt lat="43.49060385857515" lon="18.55169673806909"><ele>1184.5</ele><time>2026-05-03T14:49:34Z</time></trkpt><trkpt lat="43.49074175943618" lon="18.55174269679929"><ele>1184.0</ele><time>2026-05-03T14:49:35Z</time></trkpt><trkpt lat="43.49087796355827" lon="18.551799131799047"><ele>1184.0</ele><time>2026-05-03T14:49:36Z</time></trkpt><trkpt lat="43.49101189495481" lon="18.551861066408424"><ele>1184.0</ele><time>2026-05-03T14:49:37Z</time></trkpt><trkpt lat="43.49114161450649" lon="18.55190674374991"><ele>1184.0</ele><time>2026-05-03T14:49:38Z</time></trkpt><trkpt lat="43.49124907942049" lon="18.551945471617778"><ele>1184.0</ele><time>2026-05-03T14:49:39Z</time></trkpt><trkpt lat="43.49133266120643" lon="18.55196986779646"><ele>1184.3333333333335</ele><time>2026-05-03T14:49:40Z</time></trkpt><trkpt lat="43.49142535441204" lon="18.551992539318952"><ele>1184.6666666666667</ele><time>2026-05-03T14:49:41Z</time></trkpt><trkpt lat="43.49151956377015" lon="18.551985066677833"><ele>1185.0</ele><time>2026-05-03T14:49:42Z</time></trkpt><trkpt lat="43.491592479131405" lon="18.551984333066127"><ele>1185.3333333333333</ele><time>2026-05-03T14:49:43Z</time></trkpt><trkpt lat="43.49165684047652" lon="18.55198390753948"><ele>1185.6666666666665</ele><time>2026-05-03T14:49:44Z</time></trkpt><trkpt lat="43.491721069231005" lon="18.55197529206359"><ele>1186.0</ele><time>2026-05-03T14:49:45Z</time></trkpt><trkpt lat="43.49182970139346" lon="18.551887898400704"><ele>1186.0</ele><time>2026-05-03T14:49:47Z</time></trkpt><trkpt lat="43.491876611221066" lon="18.551808621984684"><ele>1186.0</ele><time>2026-05-03T14:49:48Z</time></trkpt><trkpt lat="43.49190965599391" lon="18.551703942344975"><ele>1186.0</ele><time>2026-05-03T14:49:49Z</time></trkpt><trkpt lat="43.491920542058494" lon="18.55158196203517"><ele>1186.0</ele><time>2026-05-03T14:49:50Z</time></trkpt><trkpt lat="43.491917463921226" lon="18.551451978671107"><ele>1186.0</ele><time>2026-05-03T14:49:51Z</time></trkpt><trkpt lat="43.49191995266083" lon="18.5513165321648"><ele>1186.0</ele><time>2026-05-03T14:49:52Z</time></trkpt><trkpt lat="43.49193615345843" lon="18.551186600033247"><ele>1187.3999999999999</ele><time>2026-05-03T14:49:53Z</time></trkpt><trkpt lat="43.49197323319979" lon="18.551046071511735"><ele>1188.8</ele><time>2026-05-03T14:49:54Z</time></trkpt><trkpt lat="43.49202480172046" lon="18.5509200950679"><ele>1190.1999999999998</ele><time>2026-05-03T14:49:55Z</time></trkpt><trkpt lat="43.49207490048956" lon="18.55079289326136"><ele>1191.6</ele><time>2026-05-03T14:49:56Z</time></trkpt><trkpt lat="43.492119253084226" lon="18.550653025239278"><ele>1193.0</ele><time>2026-05-03T14:49:57Z</time></trkpt><trkpt lat="43.4921597070711" lon="18.550505435493402"><ele>1186.75</ele><time>2026-05-03T14:49:58Z</time></trkpt><trkpt lat="43.49218559467916" lon="18.550359490196968"><ele>1180.5</ele><time>2026-05-03T14:49:59Z</time></trkpt><trkpt lat="43.49221383308464" lon="18.550199910850278"><ele>1174.25</ele><time>2026-05-03T14:50:00Z</time></trkpt><trkpt lat="43.4922378880025" lon="18.550041116317598"><ele>1168.0</ele><time>2026-05-03T14:50:01Z</time></trkpt><trkpt lat="43.492271616583395" lon="18.549868381828794"><ele>1168.0</ele><time>2026-05-03T14:50:02Z</time></trkpt><trkpt lat="43.492297610018596" lon="18.549693931704503"><ele>1168.0</ele><time>2026-05-03T14:50:03Z</time></trkpt><trkpt lat="43.4923304149962" lon="18.54950989347032"><ele>1168.0</ele><time>2026-05-03T14:50:04Z</time></trkpt><trkpt lat="43.492347405550454" lon="18.54931922280879"><ele>1168.0</ele><time>2026-05-03T14:50:05Z</time></trkpt><trkpt lat="43.49236292102833" lon="18.549136517474718"><ele>1167.5</ele><time>2026-05-03T14:50:06Z</time></trkpt><trkpt lat="43.492407744221794" lon="18.548950400906836"><ele>1167.0</ele><time>2026-05-03T14:50:07Z</time></trkpt><trkpt lat="43.49244316728329" lon="18.548747131337787"><ele>1166.5</ele><time>2026-05-03T14:50:08Z</time></trkpt><trkpt lat="43.49248007375539" lon="18.548546628876196"><ele>1166.0</ele><time>2026-05-03T14:50:09Z</time></trkpt><trkpt lat="43.492508221578866" lon="18.548355362116535"><ele>1166.0</ele><time>2026-05-03T14:50:10Z</time></trkpt><trkpt lat="43.49253740537341" lon="18.5481654865908"><ele>1166.0</ele><time>2026-05-03T14:50:11Z</time></trkpt><trkpt lat="43.49258004098602" lon="18.547979164500557"><ele>1166.0</ele><time>2026-05-03T14:50:12Z</time></trkpt><trkpt lat="43.492625385816886" lon="18.547810405967088"><ele>1166.0</ele><time>2026-05-03T14:50:13Z</time></trkpt><trkpt lat="43.49266868789881" lon="18.54768648127746"><ele>1166.2</ele><time>2026-05-03T14:50:14Z</time></trkpt><trkpt lat="43.49268232736669" lon="18.547544214565523"><ele>1166.3999999999999</ele><time>2026-05-03T14:50:15Z</time></trkpt><trkpt lat="43.4926793475203" lon="18.54741056017998"><ele>1166.6</ele><time>2026-05-03T14:50:16Z</time></trkpt><trkpt lat="43.49266634529671" lon="18.547260573803666"><ele>1166.8</ele><time>2026-05-03T14:50:17Z</time></trkpt><trkpt lat="43.492642659762794" lon="18.547102708696922"><ele>1167.0</ele><time>2026-05-03T14:50:18Z</time></trkpt><trkpt lat="43.49262156332806" lon="18.546946177211943"><ele>1165.5</ele><time>2026-05-03T14:50:19Z</time></trkpt><trkpt lat="43.492599610837054" lon="18.54678304497293"><ele>1164.0</ele><time>2026-05-03T14:50:20Z</time></trkpt><trkpt lat="43.4925621064757" lon="18.546617964760618"><ele>1162.5</ele><time>2026-05-03T14:50:21Z</time></trkpt><trkpt lat="43.492505929304016" lon="18.546475236485456"><ele>1161.0</ele><time>2026-05-03T14:50:22Z</time></trkpt><trkpt lat="43.49241269786258" lon="18.54634632263461"><ele>1161.0</ele><time>2026-05-03T14:50:23Z</time></trkpt><trkpt lat="43.49233482914295" lon="18.546225063525075"><ele>1161.0</ele><time>2026-05-03T14:50:24Z</time></trkpt><trkpt lat="43.49222641394757" lon="18.546083475510272"><ele>1161.0</ele><time>2026-05-03T14:50:25Z</time></trkpt><trkpt lat="43.49211817704393" lon="18.545973232489413"><ele>1161.0</ele><time>2026-05-03T14:50:26Z</time></trkpt><trkpt lat="43.492008865874666" lon="18.545861697878824"><ele>1161.2</ele><time>2026-05-03T14:50:27Z</time></trkpt><trkpt lat="43.49190058943143" lon="18.54575068035567"><ele>1161.3999999999999</ele><time>2026-05-03T14:50:28Z</time></trkpt><trkpt lat="43.49180923685698" lon="18.545666761418463"><ele>1161.6</ele><time>2026-05-03T14:50:29Z</time></trkpt><trkpt lat="43.491728527425224" lon="18.545583197682976"><ele>1161.8</ele><time>2026-05-03T14:50:30Z</time></trkpt><trkpt lat="43.49165062390418" lon="18.5455052569337"><ele>1162.0</ele><time>2026-05-03T14:50:31Z</time></trkpt><trkpt lat="43.4915922263932" lon="18.545391768113863"><ele>1160.6666666666665</ele><time>2026-05-03T14:50:32Z</time></trkpt><trkpt lat="43.49153868315342" lon="18.54531444907495"><ele>1159.3333333333333</ele><time>2026-05-03T14:50:33Z</time></trkpt><trkpt lat="43.49148191417383" lon="18.545238455861885"><ele>1158.0</ele><time>2026-05-03T14:50:34Z</time></trkpt><trkpt lat="43.49144985632417" lon="18.5451275671587"><ele>1156.6666666666667</ele><time>2026-05-03T14:50:35Z</time></trkpt><trkpt lat="43.49142484820086" lon="18.545012524790078"><ele>1155.3333333333335</ele><time>2026-05-03T14:50:36Z</time></trkpt><trkpt lat="43.49141189746424" lon="18.544893471862885"><ele>1154.0</ele><time>2026-05-03T14:50:37Z</time></trkpt><trkpt lat="43.49138636216567" lon="18.544763847958475"><ele>1154.0</ele><time>2026-05-03T14:50:38Z</time></trkpt><trkpt lat="43.49136366340642" lon="18.544627364734144"><ele>1154.0</ele><time>2026-05-03T14:50:39Z</time></trkpt><trkpt lat="43.49134483640268" lon="18.54447883998628"><ele>1154.0</ele><time>2026-05-03T14:50:40Z</time></trkpt><trkpt lat="43.49133783094037" lon="18.544324927543762"><ele>1154.0</ele><time>2026-05-03T14:50:41Z</time></trkpt><trkpt lat="43.491347729705154" lon="18.544178185860837"><ele>1154.0</ele><time>2026-05-03T14:50:42Z</time></trkpt><trkpt lat="43.491382492460794" lon="18.544034839558254"><ele>1154.2</ele><time>2026-05-03T14:50:43Z</time></trkpt><trkpt lat="43.49142481797222" lon="18.543897191463643"><ele>1154.4</ele><time>2026-05-03T14:50:44Z</time></trkpt><trkpt lat="43.491479379315855" lon="18.54376525480082"><ele>1154.6</ele><time>2026-05-03T14:50:45Z</time></trkpt><trkpt lat="43.491551253306156" lon="18.543648385046943"><ele>1154.8</ele><time>2026-05-03T14:50:46Z</time></trkpt><trkpt lat="43.491630462613315" lon="18.543525677800556"><ele>1155.0</ele><time>2026-05-03T14:50:47Z</time></trkpt><trkpt lat="43.49171097570972" lon="18.543415227432778"><ele>1155.0</ele><time>2026-05-03T14:50:48Z</time></trkpt><trkpt lat="43.491781186058176" lon="18.54329036832244"><ele>1155.0</ele><time>2026-05-03T14:50:49Z</time></trkpt><trkpt lat="43.491845368987974" lon="18.543173334469582"><ele>1155.0</ele><time>2026-05-03T14:50:50Z</time></trkpt><trkpt lat="43.491893908216205" lon="18.543100275243713"><ele>1155.0</ele><time>2026-05-03T14:50:51Z</time></trkpt><trkpt lat="43.49197459131013" lon="18.543082632409135"><ele>1155.0</ele><time>2026-05-03T14:50:52Z</time></trkpt><trkpt lat="43.49206412000057" lon="18.543099574005563"><ele>1155.0</ele><time>2026-05-03T14:50:53Z</time></trkpt><trkpt lat="43.49215262006266" lon="18.543101035155132"><ele>1155.0</ele><time>2026-05-03T14:50:54Z</time></trkpt><trkpt lat="43.49221914315836" lon="18.543067531202787"><ele>1155.0</ele><time>2026-05-03T14:50:55Z</time></trkpt><trkpt lat="43.49228287615263" lon="18.542997759316673"><ele>1155.0</ele><time>2026-05-03T14:50:56Z</time></trkpt><trkpt lat="43.49234339999926" lon="18.54291445247752"><ele>1155.0</ele><time>2026-05-03T14:50:57Z</time></trkpt><trkpt lat="43.49240156087631" lon="18.542815319831636"><ele>1155.0</ele><time>2026-05-03T14:50:58Z</time></trkpt><trkpt lat="43.49245462443036" lon="18.542732619207225"><ele>1155.2</ele><time>2026-05-03T14:50:59Z</time></trkpt><trkpt lat="43.492518191323114" lon="18.542652095496575"><ele>1155.4</ele><time>2026-05-03T14:51:00Z</time></trkpt><trkpt lat="43.492581808490186" lon="18.542559314221727"><ele>1155.6</ele><time>2026-05-03T14:51:01Z</time></trkpt><trkpt lat="43.49263315985505" lon="18.542441576673426"><ele>1155.8</ele><time>2026-05-03T14:51:02Z</time></trkpt><trkpt lat="43.492662343194844" lon="18.542311798317606"><ele>1156.0</ele><time>2026-05-03T14:51:03Z</time></trkpt><trkpt lat="43.4926695657999" lon="18.54216272669283"><ele>1155.6</ele><time>2026-05-03T14:51:04Z</time></trkpt><trkpt lat="43.492691737973665" lon="18.54201376481934"><ele>1155.1999999999998</ele><time>2026-05-03T14:51:05Z</time></trkpt><trkpt lat="43.492732798768685" lon="18.54187671413091"><ele>1154.8000000000002</ele><time>2026-05-03T14:51:06Z</time></trkpt><trkpt lat="43.492795882765726" lon="18.54175083570164"><ele>1154.4</ele><time>2026-05-03T14:51:07Z</time></trkpt><trkpt lat="43.49285940562217" lon="18.54163104242714"><ele>1154.0</ele><time>2026-05-03T14:51:08Z</time></trkpt><trkpt lat="43.492898488675934" lon="18.541517117941552"><ele>1154.0</ele><time>2026-05-03T14:51:09Z</time></trkpt><trkpt lat="43.49290975508879" lon="18.541402417354877"><ele>1154.0</ele><time>2026-05-03T14:51:10Z</time></trkpt><trkpt lat="43.49291098998458" lon="18.541277424616258"><ele>1154.0</ele><time>2026-05-03T14:51:11Z</time></trkpt><trkpt lat="43.49290571162304" lon="18.541142056976767"><ele>1154.0</ele><time>2026-05-03T14:51:12Z</time></trkpt><trkpt lat="43.49290375964734" lon="18.541003998925223"><ele>1154.0</ele><time>2026-05-03T14:51:13Z</time></trkpt><trkpt lat="43.49289705747626" lon="18.54087249932307"><ele>1153.8333333333335</ele><time>2026-05-03T14:51:14Z</time></trkpt><trkpt lat="43.49291006601628" lon="18.54074355843259"><ele>1153.6666666666667</ele><time>2026-05-03T14:51:15Z</time></trkpt><trkpt lat="43.49292069376536" lon="18.540632313822965"><ele>1153.5</ele><time>2026-05-03T14:51:16Z</time></trkpt><trkpt lat="43.49293832380837" lon="18.54051556663455"><ele>1153.3333333333333</ele><time>2026-05-03T14:51:17Z</time></trkpt><trkpt lat="43.492955964525585" lon="18.54039667581397"><ele>1153.1666666666665</ele><time>2026-05-03T14:51:18Z</time></trkpt><trkpt lat="43.49299153306123" lon="18.540280674408624"><ele>1153.0</ele><time>2026-05-03T14:51:19Z</time></trkpt><trkpt lat="43.49303411699717" lon="18.54017896884422"><ele>1152.4</ele><time>2026-05-03T14:51:20Z</time></trkpt><trkpt lat="43.49308054879897" lon="18.54006027489066"><ele>1151.8</ele><time>2026-05-03T14:51:21Z</time></trkpt><trkpt lat="43.49313244532156" lon="18.539944021853774"><ele>1151.2</ele><time>2026-05-03T14:51:22Z</time></trkpt><trkpt lat="43.493190769140966" lon="18.539853534800397"><ele>1150.6</ele><time>2026-05-03T14:51:23Z</time></trkpt><trkpt lat="43.4932461784296" lon="18.53972676093208"><ele>1150.0</ele><time>2026-05-03T14:51:24Z</time></trkpt><trkpt lat="43.49330482198615" lon="18.539614443525974"><ele>1150.25</ele><time>2026-05-03T14:51:25Z</time></trkpt><trkpt lat="43.493365412260765" lon="18.539489809120848"><ele>1150.5</ele><time>2026-05-03T14:51:26Z</time></trkpt><trkpt lat="43.49342835420692" lon="18.539340904276877"><ele>1150.75</ele><time>2026-05-03T14:51:27Z</time></trkpt><trkpt lat="43.49349644632414" lon="18.539189502843502"><ele>1151.0</ele><time>2026-05-03T14:51:28Z</time></trkpt><trkpt lat="43.49356442473881" lon="18.539042270122586"><ele>1151.0</ele><time>2026-05-03T14:51:29Z</time></trkpt><trkpt lat="43.49364034951385" lon="18.53892478192807"><ele>1151.0</ele><time>2026-05-03T14:51:30Z</time></trkpt><trkpt lat="43.493719788808384" lon="18.538792917684873"><ele>1151.0</ele><time>2026-05-03T14:51:31Z</time></trkpt><trkpt lat="43.493788540502486" lon="18.538658564538583"><ele>1151.0</ele><time>2026-05-03T14:51:32Z</time></trkpt><trkpt lat="43.49384354043423" lon="18.538513776006067"><ele>1149.75</ele><time>2026-05-03T14:51:33Z</time></trkpt><trkpt lat="43.49389947555012" lon="18.538344700035907"><ele>1148.5</ele><time>2026-05-03T14:51:34Z</time></trkpt><trkpt lat="43.49397059439736" lon="18.538178081799042"><ele>1147.25</ele><time>2026-05-03T14:51:35Z</time></trkpt><trkpt lat="43.49400963648007" lon="18.53799627830454"><ele>1146.0</ele><time>2026-05-03T14:51:36Z</time></trkpt><trkpt lat="43.494048405173295" lon="18.53780724753888"><ele>1145.75</ele><time>2026-05-03T14:51:37Z</time></trkpt><trkpt lat="43.49408678850453" lon="18.537620525442627"><ele>1145.5</ele><time>2026-05-03T14:51:38Z</time></trkpt><trkpt lat="43.494145841277096" lon="18.5374541184677"><ele>1145.25</ele><time>2026-05-03T14:51:39Z</time></trkpt><trkpt lat="43.49419937511198" lon="18.53728638162053"><ele>1145.0</ele><time>2026-05-03T14:51:40Z</time></trkpt><trkpt lat="43.494257115153395" lon="18.53710194903159"><ele>1145.3333333333335</ele><time>2026-05-03T14:51:41Z</time></trkpt><trkpt lat="43.49431094001555" lon="18.536883069983997"><ele>1145.6666666666667</ele><time>2026-05-03T14:51:42Z</time></trkpt><trkpt lat="43.494372402328125" lon="18.53666403368221"><ele>1146.0</ele><time>2026-05-03T14:51:43Z</time></trkpt><trkpt lat="43.49442938190535" lon="18.53643610630057"><ele>1145.3333333333333</ele><time>2026-05-03T14:51:44Z</time></trkpt><trkpt lat="43.49448552923877" lon="18.53620611480764"><ele>1144.6666666666665</ele><time>2026-05-03T14:51:45Z</time></trkpt><trkpt lat="43.494545036390846" lon="18.535977305553086"><ele>1144.0</ele><time>2026-05-03T14:51:46Z</time></trkpt><trkpt lat="43.49461371523293" lon="18.53574814873271"><ele>1142.6666666666665</ele><time>2026-05-03T14:51:47Z</time></trkpt><trkpt lat="43.494683214742864" lon="18.535516524712556"><ele>1141.3333333333333</ele><time>2026-05-03T14:51:48Z</time></trkpt><trkpt lat="43.4947467578622" lon="18.535295879403566"><ele>1140.0</ele><time>2026-05-03T14:51:49Z</time></trkpt><trkpt lat="43.49480307843785" lon="18.53510661153586"><ele>1139.5</ele><time>2026-05-03T14:51:50Z</time></trkpt><trkpt lat="43.49484635699957" lon="18.53492583219226"><ele>1139.0</ele><time>2026-05-03T14:51:51Z</time></trkpt><trkpt lat="43.49488446220994" lon="18.53473313021993"><ele>1138.5</ele><time>2026-05-03T14:51:52Z</time></trkpt><trkpt lat="43.49493530179295" lon="18.534570950880205"><ele>1138.0</ele><time>2026-05-03T14:51:53Z</time></trkpt><trkpt lat="43.49497622262814" lon="18.53442437416733"><ele>1138.0</ele><time>2026-05-03T14:51:54Z</time></trkpt><trkpt lat="43.49500257865577" lon="18.534283460473645"><ele>1138.0</ele><time>2026-05-03T14:51:55Z</time></trkpt><trkpt lat="43.49501728380056" lon="18.53416146758107"><ele>1138.0</ele><time>2026-05-03T14:51:56Z</time></trkpt><trkpt lat="43.495013497201434" lon="18.534011380854476"><ele>1138.0</ele><time>2026-05-03T14:51:57Z</time></trkpt><trkpt lat="43.494984600795235" lon="18.533857137823272"><ele>1138.0</ele><time>2026-05-03T14:51:58Z</time></trkpt><trkpt lat="43.49493045289269" lon="18.533710417450855"><ele>1137.5</ele><time>2026-05-03T14:51:59Z</time></trkpt><trkpt lat="43.49486749354195" lon="18.53354730050663"><ele>1137.0</ele><time>2026-05-03T14:52:00Z</time></trkpt><trkpt lat="43.494808791446424" lon="18.533395502377612"><ele>1136.5</ele><time>2026-05-03T14:52:01Z</time></trkpt><trkpt lat="43.494745522484564" lon="18.533236067361702"><ele>1136.0</ele><time>2026-05-03T14:52:02Z</time></trkpt><trkpt lat="43.494700545785406" lon="18.533058294808733"><ele>1136.0</ele><time>2026-05-03T14:52:03Z</time></trkpt><trkpt lat="43.49468814992062" lon="18.532881260574722"><ele>1136.0</ele><time>2026-05-03T14:52:04Z</time></trkpt><trkpt lat="43.49467897990556" lon="18.532693714154696"><ele>1136.0</ele><time>2026-05-03T14:52:05Z</time></trkpt><trkpt lat="43.494656132167876" lon="18.53251258268591"><ele>1136.0</ele><time>2026-05-03T14:52:06Z</time></trkpt><trkpt lat="43.494644744482464" lon="18.532317838254276"><ele>1136.0</ele><time>2026-05-03T14:52:07Z</time></trkpt><trkpt lat="43.49461316042275" lon="18.53213770125364"><ele>1136.0</ele><time>2026-05-03T14:52:08Z</time></trkpt><trkpt lat="43.494594103014734" lon="18.531964659773"><ele>1136.0</ele><time>2026-05-03T14:52:09Z</time></trkpt><trkpt lat="43.49457273029472" lon="18.531806493782213"><ele>1136.0</ele><time>2026-05-03T14:52:10Z</time></trkpt><trkpt lat="43.49454787575536" lon="18.53164909470258"><ele>1136.6</ele><time>2026-05-03T14:52:11Z</time></trkpt><trkpt lat="43.49452984642032" lon="18.53150290355853"><ele>1137.1999999999998</ele><time>2026-05-03T14:52:12Z</time></trkpt><trkpt lat="43.494518856454114" lon="18.53134590555527"><ele>1137.8000000000002</ele><time>2026-05-03T14:52:13Z</time></trkpt><trkpt lat="43.49451186573442" lon="18.531185736633407"><ele>1138.4</ele><time>2026-05-03T14:52:14Z</time></trkpt><trkpt lat="43.494505331850036" lon="18.531043909615605"><ele>1139.0</ele><time>2026-05-03T14:52:15Z</time></trkpt><trkpt lat="43.49447189463559" lon="18.530880300536015"><ele>1139.0</ele><time>2026-05-03T14:52:16Z</time></trkpt><trkpt lat="43.49444781650665" lon="18.53074144672068"><ele>1139.0</ele><time>2026-05-03T14:52:17Z</time></trkpt><trkpt lat="43.494409363435786" lon="18.53058646122862"><ele>1139.0</ele><time>2026-05-03T14:52:18Z</time></trkpt><trkpt lat="43.4943737811956" lon="18.530453880155292"><ele>1139.0</ele><time>2026-05-03T14:52:19Z</time></trkpt><trkpt lat="43.49433106352773" lon="18.53031788493848"><ele>1139.0</ele><time>2026-05-03T14:52:20Z</time></trkpt><trkpt lat="43.49427401885585" lon="18.5301803920966"><ele>1138.6000000000001</ele><time>2026-05-03T14:52:21Z</time></trkpt><trkpt lat="43.494216381799" lon="18.530052687093942"><ele>1138.2</ele><time>2026-05-03T14:52:22Z</time></trkpt><trkpt lat="43.49415439487535" lon="18.529961761174746"><ele>1137.8000000000002</ele><time>2026-05-03T14:52:23Z</time></trkpt><trkpt lat="43.49408436687877" lon="18.529895930002066"><ele>1137.4</ele><time>2026-05-03T14:52:24Z</time></trkpt><trkpt lat="43.49400254103727" lon="18.52984384814422"><ele>1137.0</ele><time>2026-05-03T14:52:25Z</time></trkpt><trkpt lat="43.49390565812289" lon="18.529838234249176"><ele>1137.0</ele><time>2026-05-03T14:52:26Z</time></trkpt><trkpt lat="43.493801348835895" lon="18.529861232875646"><ele>1137.0</ele><time>2026-05-03T14:52:27Z</time></trkpt><trkpt lat="43.493707606641685" lon="18.529886400664235"><ele>1137.0</ele><time>2026-05-03T14:52:28Z</time></trkpt><trkpt lat="43.49361427419432" lon="18.529932640457282"><ele>1137.0</ele><time>2026-05-03T14:52:29Z</time></trkpt><trkpt lat="43.493526978300274" lon="18.529918292814425"><ele>1137.0</ele><time>2026-05-03T14:52:30Z</time></trkpt><trkpt lat="43.49344971841709" lon="18.529884846540167"><ele>1137.6</ele><time>2026-05-03T14:52:31Z</time></trkpt><trkpt lat="43.493384420559615" lon="18.529804502487345"><ele>1138.2</ele><time>2026-05-03T14:52:32Z</time></trkpt><trkpt lat="43.493342014322266" lon="18.52969582055289"><ele>1138.8</ele><time>2026-05-03T14:52:33Z</time></trkpt><trkpt lat="43.49331462432935" lon="18.529563449343314"><ele>1139.4</ele><time>2026-05-03T14:52:34Z</time></trkpt><trkpt lat="43.49331678969844" lon="18.52942534444782"><ele>1140.0</ele><time>2026-05-03T14:52:35Z</time></trkpt><trkpt lat="43.493346610840895" lon="18.529288648942217"><ele>1140.5</ele><time>2026-05-03T14:52:36Z</time></trkpt><trkpt lat="43.493405047120426" lon="18.529138771732573"><ele>1141.0</ele><time>2026-05-03T14:52:37Z</time></trkpt><trkpt lat="43.49346662994732" lon="18.529001440681814"><ele>1141.5</ele><time>2026-05-03T14:52:38Z</time></trkpt><trkpt lat="43.493523330461166" lon="18.528868428907682"><ele>1142.0</ele><time>2026-05-03T14:52:39Z</time></trkpt><trkpt lat="43.49358105958734" lon="18.528749898283998"><ele>1142.4</ele><time>2026-05-03T14:52:40Z</time></trkpt><trkpt lat="43.49364370648382" lon="18.5286258335797"><ele>1142.8000000000002</ele><time>2026-05-03T14:52:41Z</time></trkpt><trkpt lat="43.49370095123899" lon="18.528512187046775"><ele>1143.2</ele><time>2026-05-03T14:52:42Z</time></trkpt><trkpt lat="43.493757494091426" lon="18.528404769887054"><ele>1143.6000000000001</ele><time>2026-05-03T14:52:43Z</time></trkpt><trkpt lat="43.493825305927864" lon="18.528291570775693"><ele>1144.0</ele><time>2026-05-03T14:52:44Z</time></trkpt><trkpt lat="43.49390312209688" lon="18.528198702258223"><ele>1144.0</ele><time>2026-05-03T14:52:45Z</time></trkpt><trkpt lat="43.49396761541186" lon="18.52810125073091"><ele>1144.0</ele><time>2026-05-03T14:52:46Z</time></trkpt><trkpt lat="43.494031843825766" lon="18.528002890534953"><ele>1144.0</ele><time>2026-05-03T14:52:47Z</time></trkpt><trkpt lat="43.49408683846099" lon="18.52788996892118"><ele>1144.0</ele><time>2026-05-03T14:52:48Z</time></trkpt><trkpt lat="43.494133581447436" lon="18.527754687007295"><ele>1144.0</ele><time>2026-05-03T14:52:49Z</time></trkpt><trkpt lat="43.4941703018672" lon="18.52760721487431"><ele>1144.6000000000001</ele><time>2026-05-03T14:52:50Z</time></trkpt><trkpt lat="43.4941886877849" lon="18.527450904508164"><ele>1145.2</ele><time>2026-05-03T14:52:51Z</time></trkpt><trkpt lat="43.49419761027379" lon="18.527297273013055"><ele>1145.8000000000002</ele><time>2026-05-03T14:52:52Z</time></trkpt><trkpt lat="43.494185165038175" lon="18.52714350783229"><ele>1146.4</ele><time>2026-05-03T14:52:53Z</time></trkpt><trkpt lat="43.49416857132102" lon="18.52699936186015"><ele>1147.0</ele><time>2026-05-03T14:52:54Z</time></trkpt><trkpt lat="43.49418648690417" lon="18.52684322221228"><ele>1148.6</ele><time>2026-05-03T14:52:55Z</time></trkpt><trkpt lat="43.49424274999321" lon="18.526722480645716"><ele>1150.2</ele><time>2026-05-03T14:52:56Z</time></trkpt><trkpt lat="43.49430881675247" lon="18.526618359984578"><ele>1151.8</ele><time>2026-05-03T14:52:57Z</time></trkpt><trkpt lat="43.49439777651856" lon="18.52651911290085"><ele>1153.4</ele><time>2026-05-03T14:52:58Z</time></trkpt><trkpt lat="43.494468741566884" lon="18.526439267528648"><ele>1155.0</ele><time>2026-05-03T14:52:59Z</time></trkpt><trkpt lat="43.494515860743476" lon="18.52636660741684"><ele>1155.0</ele><time>2026-05-03T14:53:00Z</time></trkpt><trkpt lat="43.49450124314818" lon="18.526203911710603"><ele>1155.0</ele><time>2026-05-03T14:53:02Z</time></trkpt><trkpt lat="43.49445651329605" lon="18.526128775545057"><ele>1155.0</ele><time>2026-05-03T14:53:03Z</time></trkpt><trkpt lat="43.49439307957043" lon="18.526060124000846"><ele>1155.0</ele><time>2026-05-03T14:53:04Z</time></trkpt><trkpt lat="43.494316700931776" lon="18.526004030908062"><ele>1155.0</ele><time>2026-05-03T14:53:05Z</time></trkpt><trkpt lat="43.49423737232797" lon="18.525951546000943"><ele>1155.0</ele><time>2026-05-03T14:53:06Z</time></trkpt><trkpt lat="43.49414530929512" lon="18.525909638475287"><ele>1155.0</ele><time>2026-05-03T14:53:07Z</time></trkpt><trkpt lat="43.49405205671013" lon="18.525868442705008"><ele>1155.0</ele><time>2026-05-03T14:53:08Z</time></trkpt><trkpt lat="43.49395832637035" lon="18.525816073889555"><ele>1155.0</ele><time>2026-05-03T14:53:09Z</time></trkpt><trkpt lat="43.49388722652696" lon="18.525731737531153"><ele>1155.0</ele><time>2026-05-03T14:53:10Z</time></trkpt><trkpt lat="43.493836144278234" lon="18.525634486814393"><ele>1155.0</ele><time>2026-05-03T14:53:11Z</time></trkpt><trkpt lat="43.49379068304217" lon="18.525510688648247"><ele>1156.0</ele><time>2026-05-03T14:53:12Z</time></trkpt><trkpt lat="43.49376810702867" lon="18.525375076486995"><ele>1157.0</ele><time>2026-05-03T14:53:13Z</time></trkpt><trkpt lat="43.49376331380443" lon="18.525227190237015"><ele>1158.0</ele><time>2026-05-03T14:53:14Z</time></trkpt><trkpt lat="43.49376825486684" lon="18.525082664590407"><ele>1159.0</ele><time>2026-05-03T14:53:15Z</time></trkpt><trkpt lat="43.49376236030839" lon="18.524922214756078"><ele>1160.0</ele><time>2026-05-03T14:53:16Z</time></trkpt><trkpt lat="43.493760525140594" lon="18.524738294691023"><ele>1160.0</ele><time>2026-05-03T14:53:17Z</time></trkpt><trkpt lat="43.49376059779973" lon="18.524582925257082"><ele>1160.0</ele><time>2026-05-03T14:53:18Z</time></trkpt><trkpt lat="43.493760525774604" lon="18.52443061800109"><ele>1160.0</ele><time>2026-05-03T14:53:19Z</time></trkpt><trkpt lat="43.493752688133675" lon="18.52427468360058"><ele>1160.0</ele><time>2026-05-03T14:53:20Z</time></trkpt><trkpt lat="43.493755667507244" lon="18.524130832790835"><ele>1160.0</ele><time>2026-05-03T14:53:21Z</time></trkpt><trkpt lat="43.493764148561304" lon="18.524000058438993"><ele>1160.2</ele><time>2026-05-03T14:53:22Z</time></trkpt><trkpt lat="43.49376762230357" lon="18.523859692919498"><ele>1160.4</ele><time>2026-05-03T14:53:23Z</time></trkpt><trkpt lat="43.49376847314027" lon="18.523709854310383"><ele>1160.6</ele><time>2026-05-03T14:53:24Z</time></trkpt><trkpt lat="43.49374761251786" lon="18.52354876377899"><ele>1160.8</ele><time>2026-05-03T14:53:25Z</time></trkpt><trkpt lat="43.493730961297885" lon="18.523386560039498"><ele>1161.0</ele><time>2026-05-03T14:53:26Z</time></trkpt><trkpt lat="43.49370323111861" lon="18.523236303520267"><ele>1160.3999999999999</ele><time>2026-05-03T14:53:27Z</time></trkpt><trkpt lat="43.493677820752204" lon="18.523095675983583"><ele>1159.8</ele><time>2026-05-03T14:53:28Z</time></trkpt><trkpt lat="43.49365213453025" lon="18.522954509055477"><ele>1159.1999999999998</ele><time>2026-05-03T14:53:29Z</time></trkpt><trkpt lat="43.49362938512772" lon="18.522823539440918"><ele>1158.6</ele><time>2026-05-03T14:53:30Z</time></trkpt><trkpt lat="43.49364031898739" lon="18.522680501573277"><ele>1158.0</ele><time>2026-05-03T14:53:31Z</time></trkpt><trkpt lat="43.49365102494588" lon="18.522543662310994"><ele>1158.0</ele><time>2026-05-03T14:53:32Z</time></trkpt><trkpt lat="43.49367419716847" lon="18.522405160681146"><ele>1158.0</ele><time>2026-05-03T14:53:33Z</time></trkpt><trkpt lat="43.49373035363936" lon="18.5222834647338"><ele>1158.0</ele><time>2026-05-03T14:53:34Z</time></trkpt><trkpt lat="43.49376017252761" lon="18.52218816001301"><ele>1158.0</ele><time>2026-05-03T14:53:35Z</time></trkpt><trkpt lat="43.49379061966703" lon="18.522097855582718"><ele>1158.0</ele><time>2026-05-03T14:53:36Z</time></trkpt><trkpt lat="43.493820826963585" lon="18.522020312078325"><ele>1158.0</ele><time>2026-05-03T14:53:37Z</time></trkpt><trkpt lat="43.49385612078586" lon="18.52193919473874"><ele>1158.0</ele><time>2026-05-03T14:53:38Z</time></trkpt><trkpt lat="43.49389835164915" lon="18.52178120264567"><ele>1158.0</ele><time>2026-05-03T14:53:40Z</time></trkpt><trkpt lat="43.49390694581849" lon="18.521613079441376"><ele>1158.0</ele><time>2026-05-03T14:53:42Z</time></trkpt><trkpt lat="43.493904562594395" lon="18.521520303164017"><ele>1158.0</ele><time>2026-05-03T14:53:43Z</time></trkpt><trkpt lat="43.49389460805021" lon="18.521433516353078"><ele>1158.0</ele><time>2026-05-03T14:53:44Z</time></trkpt><trkpt lat="43.49385524421651" lon="18.521295733705465"><ele>1158.8333333333333</ele><time>2026-05-03T14:53:46Z</time></trkpt><trkpt lat="43.49384334936834" lon="18.521198149551434"><ele>1159.6666666666667</ele><time>2026-05-03T14:53:48Z</time></trkpt><trkpt lat="43.493847812389774" lon="18.521064824166128"><ele>1160.5</ele><time>2026-05-03T14:54:01Z</time></trkpt><trkpt lat="43.49384374811253" lon="18.520966868577176"><ele>1161.3333333333335</ele><time>2026-05-03T14:54:02Z</time></trkpt><trkpt lat="43.49384374662019" lon="18.520843329247676"><ele>1162.1666666666667</ele><time>2026-05-03T14:54:03Z</time></trkpt><trkpt lat="43.4938650454961" lon="18.52071457066551"><ele>1163.0</ele><time>2026-05-03T14:54:04Z</time></trkpt><trkpt lat="43.49388060250104" lon="18.52057869038395"><ele>1163.0</ele><time>2026-05-03T14:54:05Z</time></trkpt><trkpt lat="43.49389001553801" lon="18.5204372618339"><ele>1163.0</ele><time>2026-05-03T14:54:06Z</time></trkpt><trkpt lat="43.493902959036774" lon="18.52027789846391"><ele>1163.0</ele><time>2026-05-03T14:54:07Z</time></trkpt><trkpt lat="43.49389884377329" lon="18.520104304501487"><ele>1163.0</ele><time>2026-05-03T14:54:08Z</time></trkpt><trkpt lat="43.49387723655264" lon="18.519915490360876"><ele>1163.3333333333335</ele><time>2026-05-03T14:54:09Z</time></trkpt><trkpt lat="43.493849591291394" lon="18.51971933915355"><ele>1163.6666666666667</ele><time>2026-05-03T14:54:10Z</time></trkpt><trkpt lat="43.4938143059171" lon="18.519505357358177"><ele>1164.0</ele><time>2026-05-03T14:54:11Z</time></trkpt><trkpt lat="43.49377714445041" lon="18.51929843421131"><ele>1163.0</ele><time>2026-05-03T14:54:12Z</time></trkpt><trkpt lat="43.49374751608614" lon="18.51910045317752"><ele>1162.0</ele><time>2026-05-03T14:54:13Z</time></trkpt><trkpt lat="43.49372590503313" lon="18.518901070619666"><ele>1161.0</ele><time>2026-05-03T14:54:14Z</time></trkpt><trkpt lat="43.4937048987694" lon="18.51869050474827"><ele>1160.0</ele><time>2026-05-03T14:54:15Z</time></trkpt><trkpt lat="43.493695528638696" lon="18.5185250170386"><ele>1160.0</ele><time>2026-05-03T14:54:16Z</time></trkpt><trkpt lat="43.49367472362013" lon="18.518321943848715"><ele>1160.0</ele><time>2026-05-03T14:54:17Z</time></trkpt><trkpt lat="43.49366262028637" lon="18.518152955262305"><ele>1160.0</ele><time>2026-05-03T14:54:18Z</time></trkpt><trkpt lat="43.49364412190134" lon="18.51796804406201"><ele>1160.0</ele><time>2026-05-03T14:54:19Z</time></trkpt><trkpt lat="43.493645048301396" lon="18.51775291069967"><ele>1161.3333333333335</ele><time>2026-05-03T14:54:20Z</time></trkpt><trkpt lat="43.493646330107964" lon="18.51751996223323"><ele>1162.6666666666667</ele><time>2026-05-03T14:54:21Z</time></trkpt><trkpt lat="43.49364759672879" lon="18.51728125971195"><ele>1164.0</ele><time>2026-05-03T14:54:22Z</time></trkpt><trkpt lat="43.49363522896138" lon="18.517062534403554"><ele>1164.5</ele><time>2026-05-03T14:54:23Z</time></trkpt><trkpt lat="43.49362294133207" lon="18.516862735674096"><ele>1165.0</ele><time>2026-05-03T14:54:24Z</time></trkpt><trkpt lat="43.49359252381894" lon="18.51666362494555"><ele>1165.5</ele><time>2026-05-03T14:54:25Z</time></trkpt><trkpt lat="43.49355315664782" lon="18.51648892041481"><ele>1166.0</ele><time>2026-05-03T14:54:26Z</time></trkpt><trkpt lat="43.49349612154347" lon="18.5163324187945"><ele>1166.25</ele><time>2026-05-03T14:54:27Z</time></trkpt><trkpt lat="43.49340900308245" lon="18.51619443211942"><ele>1166.5</ele><time>2026-05-03T14:54:28Z</time></trkpt><trkpt lat="43.49331550417696" lon="18.51608571918309"><ele>1166.75</ele><time>2026-05-03T14:54:29Z</time></trkpt><trkpt lat="43.49320609098646" lon="18.515985188746658"><ele>1167.0</ele><time>2026-05-03T14:54:30Z</time></trkpt><trkpt lat="43.49308195386619" lon="18.515905488255196"><ele>1167.0</ele><time>2026-05-03T14:54:31Z</time></trkpt><trkpt lat="43.49296560097638" lon="18.515794587242333"><ele>1167.0</ele><time>2026-05-03T14:54:32Z</time></trkpt><trkpt lat="43.49284914922062" lon="18.515670344446388"><ele>1167.0</ele><time>2026-05-03T14:54:33Z</time></trkpt><trkpt lat="43.49272692000535" lon="18.515540666449795"><ele>1167.0</ele><time>2026-05-03T14:54:34Z</time></trkpt><trkpt lat="43.492605264247175" lon="18.515400629084013"><ele>1166.3333333333333</ele><time>2026-05-03T14:54:35Z</time></trkpt><trkpt lat="43.49248881421751" lon="18.51523797326864"><ele>1165.6666666666665</ele><time>2026-05-03T14:54:36Z</time></trkpt><trkpt lat="43.49235044126736" lon="18.515039221188502"><ele>1165.0</ele><time>2026-05-03T14:54:37Z</time></trkpt><trkpt lat="43.492208040068014" lon="18.514824128703708"><ele>1163.6666666666665</ele><time>2026-05-03T14:54:38Z</time></trkpt><trkpt lat="43.49208489239797" lon="18.514636867230546"><ele>1162.3333333333333</ele><time>2026-05-03T14:54:39Z</time></trkpt><trkpt lat="43.49196100750029" lon="18.514470461021975"><ele>1161.0</ele><time>2026-05-03T14:54:40Z</time></trkpt><trkpt lat="43.491845573850455" lon="18.51431253511112"><ele>1159.75</ele><time>2026-05-03T14:54:41Z</time></trkpt><trkpt lat="43.49174500945635" lon="18.514166112638208"><ele>1158.5</ele><time>2026-05-03T14:54:42Z</time></trkpt><trkpt lat="43.491650147720655" lon="18.514024027413633"><ele>1157.25</ele><time>2026-05-03T14:54:43Z</time></trkpt><trkpt lat="43.491565863021876" lon="18.513916208858603"><ele>1156.0</ele><time>2026-05-03T14:54:44Z</time></trkpt><trkpt lat="43.491493694871224" lon="18.51382234421195"><ele>1156.0</ele><time>2026-05-03T14:54:45Z</time></trkpt><trkpt lat="43.491423157229946" lon="18.513763440036612"><ele>1156.0</ele><time>2026-05-03T14:54:46Z</time></trkpt><trkpt lat="43.49134351004793" lon="18.513721350725838"><ele>1156.0</ele><time>2026-05-03T14:54:47Z</time></trkpt><trkpt lat="43.491251652220534" lon="18.513721158021408"><ele>1156.0</ele><time>2026-05-03T14:54:48Z</time></trkpt><trkpt lat="43.49115662091309" lon="18.51373429323767"><ele>1156.0</ele><time>2026-05-03T14:54:49Z</time></trkpt><trkpt lat="43.49106213839669" lon="18.513754010053557"><ele>1155.6666666666665</ele><time>2026-05-03T14:54:50Z</time></trkpt><trkpt lat="43.49096970885244" lon="18.513747327358928"><ele>1155.3333333333333</ele><time>2026-05-03T14:54:51Z</time></trkpt><trkpt lat="43.49089392747618" lon="18.513696076208124"><ele>1155.0</ele><time>2026-05-03T14:54:52Z</time></trkpt><trkpt lat="43.49083533915803" lon="18.513631280811605"><ele>1154.6666666666667</ele><time>2026-05-03T14:54:53Z</time></trkpt><trkpt lat="43.49079133105486" lon="18.513539689921377"><ele>1154.3333333333335</ele><time>2026-05-03T14:54:54Z</time></trkpt><trkpt lat="43.49076844800304" lon="18.51344267251971"><ele>1154.0</ele><time>2026-05-03T14:54:55Z</time></trkpt><trkpt lat="43.49075513985237" lon="18.513355894548432"><ele>1153.142857142857</ele><time>2026-05-03T14:54:56Z</time></trkpt><trkpt lat="43.49075019516945" lon="18.513263246371345"><ele>1152.2857142857142</ele><time>2026-05-03T14:54:57Z</time></trkpt><trkpt lat="43.490756038358185" lon="18.513113131636963"><ele>1151.4285714285716</ele><time>2026-05-03T14:54:59Z</time></trkpt><trkpt lat="43.490757088046784" lon="18.51302331883617"><ele>1150.5714285714284</ele><time>2026-05-03T14:55:00Z</time></trkpt><trkpt lat="43.490758362964854" lon="18.51293277296816"><ele>1149.7142857142858</ele><time>2026-05-03T14:55:01Z</time></trkpt><trkpt lat="43.49075394190674" lon="18.512842321026476"><ele>1148.857142857143</ele><time>2026-05-03T14:55:02Z</time></trkpt><trkpt lat="43.49073171753628" lon="18.512751452755072"><ele>1148.0</ele><time>2026-05-03T14:55:03Z</time></trkpt><trkpt lat="43.49067141521498" lon="18.512600010564288"><ele>1147.6</ele><time>2026-05-03T14:55:05Z</time></trkpt><trkpt lat="43.490588280840676" lon="18.512471629711573"><ele>1147.1999999999998</ele><time>2026-05-03T14:55:07Z</time></trkpt><trkpt lat="43.49053800680606" lon="18.512408896890896"><ele>1146.8</ele><time>2026-05-03T14:55:08Z</time></trkpt><trkpt lat="43.49044429223555" lon="18.512284415976183"><ele>1146.3999999999999</ele><time>2026-05-03T14:55:10Z</time></trkpt><trkpt lat="43.490381221904684" lon="18.512220937592204"><ele>1146.0</ele><time>2026-05-03T14:55:11Z</time></trkpt><trkpt lat="43.49032282439347" lon="18.512130235138454"><ele>1146.8333333333333</ele><time>2026-05-03T14:55:12Z</time></trkpt><trkpt lat="43.49026489986433" lon="18.512039057209662"><ele>1147.6666666666667</ele><time>2026-05-03T14:55:13Z</time></trkpt><trkpt lat="43.49021956214615" lon="18.511955246487894"><ele>1148.5</ele><time>2026-05-03T14:55:14Z</time></trkpt><trkpt lat="43.490178030300655" lon="18.511876703585912"><ele>1149.3333333333335</ele><time>2026-05-03T14:55:15Z</time></trkpt><trkpt lat="43.490089719491046" lon="18.511742450095944"><ele>1150.1666666666667</ele><time>2026-05-03T14:55:17Z</time></trkpt><trkpt lat="43.490035370660124" lon="18.51168860657793"><ele>1151.0</ele><time>2026-05-03T14:55:18Z</time></trkpt><trkpt lat="43.48992763510019" lon="18.511629377086702"><ele>1151.0</ele><time>2026-05-03T14:55:20Z</time></trkpt><trkpt lat="43.48986771210262" lon="18.511602513842107"><ele>1151.0</ele><time>2026-05-03T14:55:21Z</time></trkpt><trkpt lat="43.489798483593496" lon="18.511571479021494"><ele>1151.0</ele><time>2026-05-03T14:55:22Z</time></trkpt><trkpt lat="43.48971462821578" lon="18.511474199937297"><ele>1151.0</ele><time>2026-05-03T14:55:24Z</time></trkpt><trkpt lat="43.48966985600887" lon="18.51133141522867"><ele>1151.0</ele><time>2026-05-03T14:55:26Z</time></trkpt><trkpt lat="43.48967945040793" lon="18.511156876060255"><ele>1151.0</ele><time>2026-05-03T14:55:28Z</time></trkpt><trkpt lat="43.489687810789206" lon="18.51106987618613"><ele>1151.0</ele><time>2026-05-03T14:55:29Z</time></trkpt><trkpt lat="43.48968815581382" lon="18.51090096614899"><ele>1151.0</ele><time>2026-05-03T14:55:31Z</time></trkpt><trkpt lat="43.48967986310981" lon="18.51081248514139"><ele>1151.0</ele><time>2026-05-03T14:55:32Z</time></trkpt><trkpt lat="43.48964441344808" lon="18.510733332803163"><ele>1151.0</ele><time>2026-05-03T14:55:33Z</time></trkpt><trkpt lat="43.48958626419338" lon="18.510639355722045"><ele>1151.0</ele><time>2026-05-03T14:55:34Z</time></trkpt><trkpt lat="43.48951283434345" lon="18.510543960166633"><ele>1151.1666666666667</ele><time>2026-05-03T14:55:35Z</time></trkpt><trkpt lat="43.48944351811498" lon="18.510446845652236"><ele>1151.3333333333335</ele><time>2026-05-03T14:55:36Z</time></trkpt><trkpt lat="43.48938423582715" lon="18.51035998545383"><ele>1151.5</ele><time>2026-05-03T14:55:37Z</time></trkpt><trkpt lat="43.4893351189553" lon="18.510283111632795"><ele>1151.6666666666667</ele><time>2026-05-03T14:55:38Z</time></trkpt><trkpt lat="43.489295288437326" lon="18.51020534645047"><ele>1151.8333333333333</ele><time>2026-05-03T14:55:39Z</time></trkpt><trkpt lat="43.489255495769946" lon="18.51012575012402"><ele>1152.0</ele><time>2026-05-03T14:55:40Z</time></trkpt><trkpt lat="43.4892033725071" lon="18.509963693493244"><ele>1152.0</ele><time>2026-05-03T14:55:42Z</time></trkpt><trkpt lat="43.48917532157924" lon="18.509878522256503"><ele>1152.0</ele><time>2026-05-03T14:55:43Z</time></trkpt><trkpt lat="43.48916378098223" lon="18.509726123477034"><ele>1152.0</ele><time>2026-05-03T14:55:45Z</time></trkpt><trkpt lat="43.489173976169155" lon="18.509542905333205"><ele>1152.0</ele><time>2026-05-03T14:55:47Z</time></trkpt><trkpt lat="43.48919752491941" lon="18.50940685368163"><ele>1152.0</ele><time>2026-05-03T14:55:48Z</time></trkpt><trkpt lat="43.489243520661994" lon="18.509244618699164"><ele>1151.0</ele><time>2026-05-03T14:55:49Z</time></trkpt><trkpt lat="43.48928491048501" lon="18.509080984894933"><ele>1150.0</ele><time>2026-05-03T14:55:50Z</time></trkpt><trkpt lat="43.48932318752255" lon="18.50893363752908"><ele>1149.0</ele><time>2026-05-03T14:55:51Z</time></trkpt><trkpt lat="43.48933736842551" lon="18.50877570580594"><ele>1148.0</ele><time>2026-05-03T14:55:52Z</time></trkpt><trkpt lat="43.48936414439033" lon="18.508587731138107"><ele>1147.6666666666667</ele><time>2026-05-03T14:55:53Z</time></trkpt><trkpt lat="43.489383266972" lon="18.508386254380984"><ele>1147.3333333333333</ele><time>2026-05-03T14:55:54Z</time></trkpt><trkpt lat="43.48941232137196" lon="18.50817382927859"><ele>1147.0</ele><time>2026-05-03T14:55:55Z</time></trkpt><trkpt lat="43.489431975436865" lon="18.507933568381674"><ele>1147.3333333333333</ele><time>2026-05-03T14:55:56Z</time></trkpt><trkpt lat="43.48945257000843" lon="18.50771677780971"><ele>1147.6666666666667</ele><time>2026-05-03T14:55:57Z</time></trkpt><trkpt lat="43.48947594458522" lon="18.50751489612417"><ele>1148.0</ele><time>2026-05-03T14:55:58Z</time></trkpt><trkpt lat="43.489506785996475" lon="18.507315601423915"><ele>1148.0</ele><time>2026-05-03T14:55:59Z</time></trkpt><trkpt lat="43.48954622196134" lon="18.507121175457357"><ele>1148.0</ele><time>2026-05-03T14:56:00Z</time></trkpt><trkpt lat="43.489574182110445" lon="18.50691253235344"><ele>1148.0</ele><time>2026-05-03T14:56:01Z</time></trkpt><trkpt lat="43.48959656013416" lon="18.506699476325682"><ele>1146.75</ele><time>2026-05-03T14:56:02Z</time></trkpt><trkpt lat="43.48961482257878" lon="18.506483704811497"><ele>1145.5</ele><time>2026-05-03T14:56:03Z</time></trkpt><trkpt lat="43.48961745790611" lon="18.506288655032076"><ele>1144.25</ele><time>2026-05-03T14:56:04Z</time></trkpt><trkpt lat="43.489613574361194" lon="18.506102050282962"><ele>1143.0</ele><time>2026-05-03T14:56:05Z</time></trkpt><trkpt lat="43.48960415947152" lon="18.505925166918004"><ele>1143.0</ele><time>2026-05-03T14:56:06Z</time></trkpt><trkpt lat="43.48959267345673" lon="18.50577938298961"><ele>1143.0</ele><time>2026-05-03T14:56:07Z</time></trkpt><trkpt lat="43.489607751823506" lon="18.505634129802544"><ele>1143.0</ele><time>2026-05-03T14:56:08Z</time></trkpt><trkpt lat="43.48964362522631" lon="18.505501690905568"><ele>1143.0</ele><time>2026-05-03T14:56:09Z</time></trkpt><trkpt lat="43.48969996086311" lon="18.50538606978432"><ele>1143.0</ele><time>2026-05-03T14:56:10Z</time></trkpt><trkpt lat="43.48974641330341" lon="18.50528812994284"><ele>1143.0</ele><time>2026-05-03T14:56:11Z</time></trkpt><trkpt lat="43.489779134516446" lon="18.505208566091063"><ele>1143.0</ele><time>2026-05-03T14:56:12Z</time></trkpt><trkpt lat="43.48978350876614" lon="18.505111332057893"><ele>1143.0</ele><time>2026-05-03T14:56:13Z</time></trkpt><trkpt lat="43.48977344496134" lon="18.505010645491137"><ele>1143.0</ele><time>2026-05-03T14:56:14Z</time></trkpt><trkpt lat="43.48975098446735" lon="18.504914798024153"><ele>1143.0</ele><time>2026-05-03T14:56:15Z</time></trkpt><trkpt lat="43.489716420661324" lon="18.50480983634666"><ele>1143.0</ele><time>2026-05-03T14:56:16Z</time></trkpt><trkpt lat="43.48965792756795" lon="18.504678919436756"><ele>1143.0</ele><time>2026-05-03T14:56:17Z</time></trkpt><trkpt lat="43.48962220471976" lon="18.504525398014625"><ele>1143.0</ele><time>2026-05-03T14:56:18Z</time></trkpt><trkpt lat="43.489575157351474" lon="18.504369277256785"><ele>1143.0</ele><time>2026-05-03T14:56:19Z</time></trkpt><trkpt lat="43.489548931245" lon="18.50424875897594"><ele>1143.0</ele><time>2026-05-03T14:56:20Z</time></trkpt><trkpt lat="43.48952551184998" lon="18.50412945546559"><ele>1143.0</ele><time>2026-05-03T14:56:21Z</time></trkpt><trkpt lat="43.48949910889814" lon="18.503996026982563"><ele>1143.8</ele><time>2026-05-03T14:56:22Z</time></trkpt><trkpt lat="43.48948655124716" lon="18.503862464158523"><ele>1144.6</ele><time>2026-05-03T14:56:23Z</time></trkpt><trkpt lat="43.48947735492258" lon="18.503726358734053"><ele>1145.4</ele><time>2026-05-03T14:56:24Z</time></trkpt><trkpt lat="43.489476149719245" lon="18.503619566120893"><ele>1146.2</ele><time>2026-05-03T14:56:25Z</time></trkpt><trkpt lat="43.48947368413601" lon="18.50349671865825"><ele>1147.0</ele><time>2026-05-03T14:56:26Z</time></trkpt><trkpt lat="43.489471435394194" lon="18.503366719942395"><ele>1147.0</ele><time>2026-05-03T14:56:27Z</time></trkpt><trkpt lat="43.489502416719795" lon="18.503243606347844"><ele>1147.0</ele><time>2026-05-03T14:56:28Z</time></trkpt><trkpt lat="43.489526808637564" lon="18.50311461749513"><ele>1147.0</ele><time>2026-05-03T14:56:29Z</time></trkpt><trkpt lat="43.4895566740941" lon="18.50298472561739"><ele>1147.0</ele><time>2026-05-03T14:56:30Z</time></trkpt><trkpt lat="43.48957568900747" lon="18.502839357897862"><ele>1147.0</ele><time>2026-05-03T14:56:31Z</time></trkpt><trkpt lat="43.48960256208294" lon="18.502687943140316"><ele>1145.8</ele><time>2026-05-03T14:56:32Z</time></trkpt><trkpt lat="43.489623508432594" lon="18.502548175120445"><ele>1144.6</ele><time>2026-05-03T14:56:33Z</time></trkpt><trkpt lat="43.48963878602101" lon="18.502418236886108"><ele>1143.3999999999999</ele><time>2026-05-03T14:56:34Z</time></trkpt><trkpt lat="43.48965755858418" lon="18.502283380528873"><ele>1142.2</ele><time>2026-05-03T14:56:35Z</time></trkpt><trkpt lat="43.489684658552115" lon="18.502148163403895"><ele>1141.0</ele><time>2026-05-03T14:56:36Z</time></trkpt><trkpt lat="43.489713497308756" lon="18.502032104175004"><ele>1141.0</ele><time>2026-05-03T14:56:37Z</time></trkpt><trkpt lat="43.48976657230208" lon="18.501919291221892"><ele>1141.0</ele><time>2026-05-03T14:56:38Z</time></trkpt><trkpt lat="43.489821024525085" lon="18.50181172172219"><ele>1141.0</ele><time>2026-05-03T14:56:39Z</time></trkpt><trkpt lat="43.48987415288582" lon="18.501712794766462"><ele>1141.0</ele><time>2026-05-03T14:56:40Z</time></trkpt><trkpt lat="43.489934622914696" lon="18.501599730999487"><ele>1141.0</ele><time>2026-05-03T14:56:41Z</time></trkpt><trkpt lat="43.48999433329367" lon="18.50148795475798"><ele>1141.0</ele><time>2026-05-03T14:56:42Z</time></trkpt><trkpt lat="43.49005435489809" lon="18.501375595577084"><ele>1141.0</ele><time>2026-05-03T14:56:43Z</time></trkpt><trkpt lat="43.490118297456675" lon="18.50124279828959"><ele>1141.0</ele><time>2026-05-03T14:56:44Z</time></trkpt><trkpt lat="43.49017483587099" lon="18.50111904939619"><ele>1141.0</ele><time>2026-05-03T14:56:45Z</time></trkpt><trkpt lat="43.490201131766774" lon="18.500962159698926"><ele>1141.0</ele><time>2026-05-03T14:56:46Z</time></trkpt><trkpt lat="43.49023116118519" lon="18.500800247613313"><ele>1141.0</ele><time>2026-05-03T14:56:47Z</time></trkpt><trkpt lat="43.49027017408697" lon="18.50064435322749"><ele>1141.0</ele><time>2026-05-03T14:56:48Z</time></trkpt><trkpt lat="43.49029800086218" lon="18.50048371695905"><ele>1141.0</ele><time>2026-05-03T14:56:49Z</time></trkpt><trkpt lat="43.49033016931974" lon="18.50033250500694"><ele>1141.0</ele><time>2026-05-03T14:56:50Z</time></trkpt><trkpt lat="43.49036632133065" lon="18.50017934178356"><ele>1141.2</ele><time>2026-05-03T14:56:51Z</time></trkpt><trkpt lat="43.4903987874283" lon="18.50004571118508"><ele>1141.3999999999999</ele><time>2026-05-03T14:56:52Z</time></trkpt><trkpt lat="43.4904366133846" lon="18.49992186278844"><ele>1141.6</ele><time>2026-05-03T14:56:53Z</time></trkpt><trkpt lat="43.490482425362636" lon="18.499808522267216"><ele>1141.8</ele><time>2026-05-03T14:56:54Z</time></trkpt><trkpt lat="43.490540922646936" lon="18.49969332211415"><ele>1142.0</ele><time>2026-05-03T14:56:55Z</time></trkpt><trkpt lat="43.49061579901884" lon="18.49956848944437"><ele>1141.6</ele><time>2026-05-03T14:56:56Z</time></trkpt><trkpt lat="43.49067574090007" lon="18.499444586058253"><ele>1141.2</ele><time>2026-05-03T14:56:57Z</time></trkpt><trkpt lat="43.490715033733615" lon="18.49932846436962"><ele>1140.8</ele><time>2026-05-03T14:56:58Z</time></trkpt><trkpt lat="43.49074758367526" lon="18.499190921722228"><ele>1140.4</ele><time>2026-05-03T14:56:59Z</time></trkpt><trkpt lat="43.49080475011119" lon="18.499059559701365"><ele>1140.0</ele><time>2026-05-03T14:57:00Z</time></trkpt><trkpt lat="43.49084771578954" lon="18.498930592607767"><ele>1140.0</ele><time>2026-05-03T14:57:01Z</time></trkpt><trkpt lat="43.490892445258" lon="18.498794891655912"><ele>1140.0</ele><time>2026-05-03T14:57:02Z</time></trkpt><trkpt lat="43.490945202436556" lon="18.498635675931702"><ele>1140.0</ele><time>2026-05-03T14:57:03Z</time></trkpt><trkpt lat="43.490974629562906" lon="18.498453463424518"><ele>1140.0</ele><time>2026-05-03T14:57:04Z</time></trkpt><trkpt lat="43.49102096131075" lon="18.49828609104327"><ele>1139.5</ele><time>2026-05-03T14:57:05Z</time></trkpt><trkpt lat="43.4910685517531" lon="18.49812926464541"><ele>1139.0</ele><time>2026-05-03T14:57:06Z</time></trkpt><trkpt lat="43.49111288581263" lon="18.497974956574488"><ele>1138.5</ele><time>2026-05-03T14:57:07Z</time></trkpt><trkpt lat="43.491131652950365" lon="18.497817985962918"><ele>1138.0</ele><time>2026-05-03T14:57:08Z</time></trkpt><trkpt lat="43.49114025182451" lon="18.49766289884894"><ele>1137.8</ele><time>2026-05-03T14:57:09Z</time></trkpt><trkpt lat="43.491112989283714" lon="18.49751114192099"><ele>1137.6</ele><time>2026-05-03T14:57:10Z</time></trkpt><trkpt lat="43.49109751109511" lon="18.497367717789437"><ele>1137.4</ele><time>2026-05-03T14:57:11Z</time></trkpt><trkpt lat="43.49107375414524" lon="18.49722239089086"><ele>1137.2</ele><time>2026-05-03T14:57:12Z</time></trkpt><trkpt lat="43.491044595065375" lon="18.497092252360847"><ele>1137.0</ele><time>2026-05-03T14:57:13Z</time></trkpt><trkpt lat="43.491014870090204" lon="18.496974309546555"><ele>1137.0</ele><time>2026-05-03T14:57:14Z</time></trkpt><trkpt lat="43.490986398730584" lon="18.496860123685742"><ele>1137.0</ele><time>2026-05-03T14:57:15Z</time></trkpt><trkpt lat="43.490959825536066" lon="18.496756908032264"><ele>1137.0</ele><time>2026-05-03T14:57:16Z</time></trkpt><trkpt lat="43.49094320662226" lon="18.496650334413093"><ele>1137.0</ele><time>2026-05-03T14:57:17Z</time></trkpt><trkpt lat="43.49092496590048" lon="18.49653861847223"><ele>1137.0</ele><time>2026-05-03T14:57:18Z</time></trkpt><trkpt lat="43.49089555044371" lon="18.496423024992474"><ele>1137.0</ele><time>2026-05-03T14:57:19Z</time></trkpt><trkpt lat="43.49086084566997" lon="18.49631417653204"><ele>1136.6666666666667</ele><time>2026-05-03T14:57:20Z</time></trkpt><trkpt lat="43.49082270562459" lon="18.496206273276844"><ele>1136.3333333333333</ele><time>2026-05-03T14:57:21Z</time></trkpt><trkpt lat="43.49078521123156" lon="18.496130892967102"><ele>1136.0</ele><time>2026-05-03T14:57:22Z</time></trkpt><trkpt lat="43.49072207039917" lon="18.49601795537091"><ele>1135.6666666666665</ele><time>2026-05-03T14:57:24Z</time></trkpt><trkpt lat="43.49069079828368" lon="18.49593653484138"><ele>1135.3333333333333</ele><time>2026-05-03T14:57:26Z</time></trkpt><trkpt lat="43.490739153174566" lon="18.495845925361394"><ele>1135.0</ele><time>2026-05-03T14:57:28Z</time></trkpt><trkpt lat="43.49083064126356" lon="18.495836591475964"><ele>1135.0</ele><time>2026-05-03T14:57:30Z</time></trkpt><trkpt lat="43.49087119766898" lon="18.49590437144346"><ele>1135.0</ele><time>2026-05-03T14:57:31Z</time></trkpt><trkpt lat="43.49098111452145" lon="18.495966834842584"><ele>1135.0</ele><time>2026-05-03T14:57:33Z</time></trkpt><trkpt lat="43.491059194354996" lon="18.496080405748103"><ele>1135.0</ele><time>2026-05-03T14:57:35Z</time></trkpt><trkpt lat="43.49113956711623" lon="18.49619130403892"><ele>1135.0</ele><time>2026-05-03T14:57:37Z</time></trkpt><trkpt lat="43.491242768953875" lon="18.496275443918595"><ele>1134.4</ele><time>2026-05-03T14:57:39Z</time></trkpt><trkpt lat="43.49136811440702" lon="18.496317597310423"><ele>1133.8</ele><time>2026-05-03T14:57:41Z</time></trkpt><trkpt lat="43.49143227901989" lon="18.496352989755128"><ele>1133.2</ele><time>2026-05-03T14:57:42Z</time></trkpt><trkpt lat="43.49155638996007" lon="18.49637487099347"><ele>1132.6</ele><time>2026-05-03T14:57:44Z</time></trkpt><trkpt lat="43.491625331211836" lon="18.4963812667549"><ele>1132.0</ele><time>2026-05-03T14:57:45Z</time></trkpt><trkpt lat="43.491699167019135" lon="18.496387365660645"><ele>1132.0</ele><time>2026-05-03T14:57:46Z</time></trkpt><trkpt lat="43.491778096614716" lon="18.496373504309414"><ele>1132.0</ele><time>2026-05-03T14:57:47Z</time></trkpt><trkpt lat="43.49184373975169" lon="18.496373568497575"><ele>1132.0</ele><time>2026-05-03T14:57:48Z</time></trkpt><trkpt lat="43.4919068593562" lon="18.496383094851375"><ele>1132.0</ele><time>2026-05-03T14:57:49Z</time></trkpt><trkpt lat="43.49196985174772" lon="18.496334673213656"><ele>1132.0</ele><time>2026-05-03T14:57:50Z</time></trkpt><trkpt lat="43.49202942827816" lon="18.496263366733313"><ele>1132.0</ele><time>2026-05-03T14:57:51Z</time></trkpt><trkpt lat="43.4920765914617" lon="18.4961873011113"><ele>1132.0</ele><time>2026-05-03T14:57:52Z</time></trkpt><trkpt lat="43.49212245483504" lon="18.496113895452762"><ele>1131.0</ele><time>2026-05-03T14:57:53Z</time></trkpt><trkpt lat="43.49216173532869" lon="18.49601600707456"><ele>1130.0</ele><time>2026-05-03T14:57:54Z</time></trkpt><trkpt lat="43.49220155370431" lon="18.495923461772673"><ele>1129.0</ele><time>2026-05-03T14:57:55Z</time></trkpt><trkpt lat="43.49225009905607" lon="18.49581000717175"><ele>1128.0</ele><time>2026-05-03T14:57:56Z</time></trkpt><trkpt lat="43.49229420898272" lon="18.49568868616397"><ele>1127.0</ele><time>2026-05-03T14:57:57Z</time></trkpt><trkpt lat="43.49235939363318" lon="18.495636477833617"><ele>1126.0</ele><time>2026-05-03T14:57:58Z</time></trkpt><trkpt lat="43.4924476824973" lon="18.495591572541468"><ele>1126.0</ele><time>2026-05-03T14:57:59Z</time></trkpt><trkpt lat="43.492538540670644" lon="18.495587339650744"><ele>1126.0</ele><time>2026-05-03T14:58:00Z</time></trkpt><trkpt lat="43.492620829280675" lon="18.495558618638185"><ele>1126.0</ele><time>2026-05-03T14:58:01Z</time></trkpt><trkpt lat="43.4927066916313" lon="18.495542741933303"><ele>1126.0</ele><time>2026-05-03T14:58:02Z</time></trkpt><trkpt lat="43.49279576905557" lon="18.495539258861115"><ele>1126.0</ele><time>2026-05-03T14:58:03Z</time></trkpt><trkpt lat="43.49289018644114" lon="18.495525337432788"><ele>1126.0</ele><time>2026-05-03T14:58:04Z</time></trkpt><trkpt lat="43.49296852283845" lon="18.495492772472634"><ele>1126.6</ele><time>2026-05-03T14:58:05Z</time></trkpt><trkpt lat="43.49305884835426" lon="18.495457029575558"><ele>1127.1999999999998</ele><time>2026-05-03T14:58:06Z</time></trkpt><trkpt lat="43.49314799446098" lon="18.495456855699903"><ele>1127.8000000000002</ele><time>2026-05-03T14:58:07Z</time></trkpt><trkpt lat="43.493236882714335" lon="18.49542063296324"><ele>1128.4</ele><time>2026-05-03T14:58:08Z</time></trkpt><trkpt lat="43.49331968153872" lon="18.495386050787157"><ele>1129.0</ele><time>2026-05-03T14:58:09Z</time></trkpt><trkpt lat="43.49340329438839" lon="18.495336079449253"><ele>1129.3333333333333</ele><time>2026-05-03T14:58:10Z</time></trkpt><trkpt lat="43.49347492279195" lon="18.49528998250464"><ele>1129.6666666666665</ele><time>2026-05-03T14:58:11Z</time></trkpt><trkpt lat="43.493535263978295" lon="18.495251151531136"><ele>1130.0</ele><time>2026-05-03T14:58:12Z</time></trkpt><trkpt lat="43.49356356398423" lon="18.495122884265875"><ele>1130.3333333333333</ele><time>2026-05-03T14:58:13Z</time></trkpt><trkpt lat="43.49361469436018" lon="18.49505014161216"><ele>1130.6666666666667</ele><time>2026-05-03T14:58:14Z</time></trkpt><trkpt lat="43.493627566265594" lon="18.49492387183181"><ele>1131.0</ele><time>2026-05-03T14:58:15Z</time></trkpt><trkpt lat="43.49364253120313" lon="18.494819784101633"><ele>1131.0</ele><time>2026-05-03T14:58:16Z</time></trkpt><trkpt lat="43.49364993123814" lon="18.4947115599108"><ele>1131.0</ele><time>2026-05-03T14:58:17Z</time></trkpt><trkpt lat="43.49368230633547" lon="18.494592917156705"><ele>1131.0</ele><time>2026-05-03T14:58:18Z</time></trkpt><trkpt lat="43.493699181170356" lon="18.494487944299223"><ele>1131.0</ele><time>2026-05-03T14:58:19Z</time></trkpt><trkpt lat="43.493719101577724" lon="18.49437800436838"><ele>1131.0</ele><time>2026-05-03T14:58:20Z</time></trkpt><trkpt lat="43.4937671034708" lon="18.494264096093907"><ele>1131.0</ele><time>2026-05-03T14:58:21Z</time></trkpt><trkpt lat="43.49382953997723" lon="18.494145885632335"><ele>1129.5</ele><time>2026-05-03T14:58:22Z</time></trkpt><trkpt lat="43.493883004462255" lon="18.494034189190742"><ele>1128.0</ele><time>2026-05-03T14:58:23Z</time></trkpt><trkpt lat="43.493924142793375" lon="18.493924116557192"><ele>1126.5</ele><time>2026-05-03T14:58:24Z</time></trkpt><trkpt lat="43.49396117619271" lon="18.49382017084847"><ele>1125.0</ele><time>2026-05-03T14:58:25Z</time></trkpt><trkpt lat="43.49399427708225" lon="18.49372523021829"><ele>1123.5</ele><time>2026-05-03T14:58:26Z</time></trkpt><trkpt lat="43.49400757553472" lon="18.49362778844198"><ele>1122.0</ele><time>2026-05-03T14:58:27Z</time></trkpt><trkpt lat="43.49401873036427" lon="18.49352122352198"><ele>1121.1666666666667</ele><time>2026-05-03T14:58:28Z</time></trkpt><trkpt lat="43.494029469964616" lon="18.493421768748615"><ele>1120.3333333333333</ele><time>2026-05-03T14:58:29Z</time></trkpt><trkpt lat="43.494019399758066" lon="18.493315595812852"><ele>1119.5</ele><time>2026-05-03T14:58:30Z</time></trkpt><trkpt lat="43.49400863059666" lon="18.493189796712493"><ele>1118.6666666666665</ele><time>2026-05-03T14:58:31Z</time></trkpt><trkpt lat="43.49400234775792" lon="18.49306520021678"><ele>1117.8333333333333</ele><time>2026-05-03T14:58:32Z</time></trkpt><trkpt lat="43.493996358842104" lon="18.492959017126207"><ele>1117.0</ele><time>2026-05-03T14:58:33Z</time></trkpt><trkpt lat="43.493992862705305" lon="18.49285017803585"><ele>1116.0000000000002</ele><time>2026-05-03T14:58:34Z</time></trkpt><trkpt lat="43.493981719837954" lon="18.492753008963682"><ele>1115.0</ele><time>2026-05-03T14:58:35Z</time></trkpt><trkpt lat="43.49395264846862" lon="18.49264718540699"><ele>1114.0</ele><time>2026-05-03T14:58:36Z</time></trkpt><trkpt lat="43.493925070645105" lon="18.49254728596689"><ele>1113.0</ele><time>2026-05-03T14:58:37Z</time></trkpt><trkpt lat="43.49388963563973" lon="18.492463338754575"><ele>1112.0</ele><time>2026-05-03T14:58:38Z</time></trkpt><trkpt lat="43.493844353671314" lon="18.492381846284623"><ele>1111.0000000000002</ele><time>2026-05-03T14:58:39Z</time></trkpt><trkpt lat="43.4938150785668" lon="18.492292340177116"><ele>1110.0</ele><time>2026-05-03T14:58:40Z</time></trkpt><trkpt lat="43.49374462199711" lon="18.492237077251687"><ele>1110.0</ele><time>2026-05-03T14:58:41Z</time></trkpt><trkpt lat="43.493700994057136" lon="18.49217017762326"><ele>1110.0</ele><time>2026-05-03T14:58:42Z</time></trkpt><trkpt lat="43.49364423123531" lon="18.49211456347108"><ele>1110.0</ele><time>2026-05-03T14:58:43Z</time></trkpt><trkpt lat="43.49356552879388" lon="18.49213245903232"><ele>1110.0</ele><time>2026-05-03T14:58:44Z</time></trkpt><trkpt lat="43.49343522189013" lon="18.492142754794056"><ele>1110.0</ele><time>2026-05-03T14:58:46Z</time></trkpt><trkpt lat="43.4933530108252" lon="18.492163104159776"><ele>1110.0</ele><time>2026-05-03T14:58:47Z</time></trkpt><trkpt lat="43.49326413161377" lon="18.492190733105197"><ele>1110.0</ele><time>2026-05-03T14:58:48Z</time></trkpt><trkpt lat="43.49317382353301" lon="18.492193751622302"><ele>1110.0</ele><time>2026-05-03T14:58:49Z</time></trkpt><trkpt lat="43.49309896756154" lon="18.492257093374523"><ele>1110.0</ele><time>2026-05-03T14:58:50Z</time></trkpt><trkpt lat="43.493029301505324" lon="18.49229679410045"><ele>1110.0</ele><time>2026-05-03T14:58:51Z</time></trkpt><trkpt lat="43.492958378441585" lon="18.492329836706777"><ele>1110.0</ele><time>2026-05-03T14:58:52Z</time></trkpt><trkpt lat="43.492886939131616" lon="18.492297979988468"><ele>1110.0</ele><time>2026-05-03T14:58:53Z</time></trkpt><trkpt lat="43.492763677755306" lon="18.49226107201774"><ele>1110.1666666666667</ele><time>2026-05-03T14:58:55Z</time></trkpt><trkpt lat="43.49270100849111" lon="18.492243142269686"><ele>1110.3333333333333</ele><time>2026-05-03T14:58:56Z</time></trkpt><trkpt lat="43.49263786427139" lon="18.49220596989571"><ele>1110.5</ele><time>2026-05-03T14:58:57Z</time></trkpt><trkpt lat="43.49255575434" lon="18.492186774086118"><ele>1110.6666666666665</ele><time>2026-05-03T14:58:58Z</time></trkpt><trkpt lat="43.49246752822459" lon="18.492176027367996"><ele>1110.8333333333333</ele><time>2026-05-03T14:58:59Z</time></trkpt><trkpt lat="43.49238765103682" lon="18.492168424192737"><ele>1111.0</ele><time>2026-05-03T14:59:00Z</time></trkpt><trkpt lat="43.49231620210989" lon="18.492157848000694"><ele>1111.0</ele><time>2026-05-03T14:59:01Z</time></trkpt><trkpt lat="43.492234237326144" lon="18.49215185984116"><ele>1111.0</ele><time>2026-05-03T14:59:02Z</time></trkpt><trkpt lat="43.49215319585694" lon="18.49214483584904"><ele>1111.0</ele><time>2026-05-03T14:59:03Z</time></trkpt><trkpt lat="43.49208554686648" lon="18.492144083001765"><ele>1111.0</ele><time>2026-05-03T14:59:04Z</time></trkpt><trkpt lat="43.49197353924583" lon="18.492122706297867"><ele>1111.0</ele><time>2026-05-03T14:59:06Z</time></trkpt><trkpt lat="43.49190411717351" lon="18.49205277348275"><ele>1111.0</ele><time>2026-05-03T14:59:08Z</time></trkpt><trkpt lat="43.49190012621262" lon="18.491923961637223"><ele>1110.6</ele><time>2026-05-03T14:59:10Z</time></trkpt><trkpt lat="43.49193524082437" lon="18.491842183606764"><ele>1110.1999999999998</ele><time>2026-05-03T14:59:11Z</time></trkpt><trkpt lat="43.49199923362134" lon="18.491772248186525"><ele>1109.8000000000002</ele><time>2026-05-03T14:59:12Z</time></trkpt><trkpt lat="43.49209349965005" lon="18.491735557349855"><ele>1109.4</ele><time>2026-05-03T14:59:13Z</time></trkpt><trkpt lat="43.492208135694064" lon="18.49173181061054"><ele>1109.0</ele><time>2026-05-03T14:59:14Z</time></trkpt><trkpt lat="43.49233036355305" lon="18.491753012602764"><ele>1106.5</ele><time>2026-05-03T14:59:15Z</time></trkpt><trkpt lat="43.49246119818558" lon="18.491765496538378"><ele>1104.0</ele><time>2026-05-03T14:59:16Z</time></trkpt><trkpt lat="43.49257485970058" lon="18.491766143752017"><ele>1101.5</ele><time>2026-05-03T14:59:17Z</time></trkpt><trkpt lat="43.49269177638273" lon="18.49176960743208"><ele>1099.0</ele><time>2026-05-03T14:59:18Z</time></trkpt><trkpt lat="43.492811619675294" lon="18.491750734699675"><ele>1098.25</ele><time>2026-05-03T14:59:19Z</time></trkpt><trkpt lat="43.49292338587933" lon="18.49171401562075"><ele>1097.5</ele><time>2026-05-03T14:59:20Z</time></trkpt><trkpt lat="43.493032657556974" lon="18.49165833991373"><ele>1096.75</ele><time>2026-05-03T14:59:21Z</time></trkpt><trkpt lat="43.49314026455887" lon="18.4915953723304"><ele>1096.0</ele><time>2026-05-03T14:59:22Z</time></trkpt><trkpt lat="43.49323734360467" lon="18.491524434349234"><ele>1096.0</ele><time>2026-05-03T14:59:23Z</time></trkpt><trkpt lat="43.4933240307824" lon="18.49145264458978"><ele>1096.0</ele><time>2026-05-03T14:59:24Z</time></trkpt><trkpt lat="43.49340465986167" lon="18.4913872855028"><ele>1096.0</ele><time>2026-05-03T14:59:25Z</time></trkpt><trkpt lat="43.4934952363155" lon="18.49133541908732"><ele>1096.0</ele><time>2026-05-03T14:59:26Z</time></trkpt><trkpt lat="43.49358578583495" lon="18.491296824464946"><ele>1096.0</ele><time>2026-05-03T14:59:27Z</time></trkpt><trkpt lat="43.49368420827878" lon="18.4912687876845"><ele>1095.6</ele><time>2026-05-03T14:59:28Z</time></trkpt><trkpt lat="43.49378283039488" lon="18.491256268359948"><ele>1095.1999999999998</ele><time>2026-05-03T14:59:29Z</time></trkpt><trkpt lat="43.49387410453187" lon="18.49125664744907"><ele>1094.8000000000002</ele><time>2026-05-03T14:59:30Z</time></trkpt><trkpt lat="43.493973808047315" lon="18.491259918472572"><ele>1094.4</ele><time>2026-05-03T14:59:31Z</time></trkpt><trkpt lat="43.49407055717386" lon="18.49126342780906"><ele>1094.0</ele><time>2026-05-03T14:59:32Z</time></trkpt><trkpt lat="43.49416469478614" lon="18.49127232454939"><ele>1094.0</ele><time>2026-05-03T14:59:33Z</time></trkpt><trkpt lat="43.494249933520166" lon="18.491290481846757"><ele>1094.0</ele><time>2026-05-03T14:59:34Z</time></trkpt><trkpt lat="43.49432736747184" lon="18.491308247656654"><ele>1094.0</ele><time>2026-05-03T14:59:35Z</time></trkpt><trkpt lat="43.49440194422674" lon="18.491332472401382"><ele>1094.0</ele><time>2026-05-03T14:59:36Z</time></trkpt><trkpt lat="43.49446507778057" lon="18.491357657103997"><ele>1094.0</ele><time>2026-05-03T14:59:37Z</time></trkpt><trkpt lat="43.49457548866973" lon="18.491386615834205"><ele>1094.0</ele><time>2026-05-03T14:59:39Z</time></trkpt><trkpt lat="43.494675401859304" lon="18.49138696350337"><ele>1094.4</ele><time>2026-05-03T14:59:41Z</time></trkpt><trkpt lat="43.4947710065515" lon="18.491360883521843"><ele>1094.8000000000002</ele><time>2026-05-03T14:59:43Z</time></trkpt><trkpt lat="43.494869505170236" lon="18.491300734462914"><ele>1095.1999999999998</ele><time>2026-05-03T14:59:45Z</time></trkpt><trkpt lat="43.49496947849502" lon="18.491202721219466"><ele>1095.6</ele><time>2026-05-03T14:59:47Z</time></trkpt><trkpt lat="43.49501261134346" lon="18.49113490231541"><ele>1096.0</ele><time>2026-05-03T14:59:48Z</time></trkpt><trkpt lat="43.49505360076694" lon="18.491063648733732"><ele>1095.1666666666665</ele><time>2026-05-03T14:59:49Z</time></trkpt><trkpt lat="43.495084470827" lon="18.490979036580967"><ele>1094.3333333333333</ele><time>2026-05-03T14:59:50Z</time></trkpt><trkpt lat="43.49510343068412" lon="18.490880350601717"><ele>1093.5</ele><time>2026-05-03T14:59:51Z</time></trkpt><trkpt lat="43.495110847008604" lon="18.490786108374117"><ele>1092.6666666666667</ele><time>2026-05-03T14:59:52Z</time></trkpt><trkpt lat="43.49510863293098" lon="18.49069315775046"><ele>1091.8333333333335</ele><time>2026-05-03T14:59:53Z</time></trkpt><trkpt lat="43.495082623959384" lon="18.490539810006485"><ele>1091.0</ele><time>2026-05-03T14:59:55Z</time></trkpt><trkpt lat="43.49505573522927" lon="18.490412264325645"><ele>1090.3999999999999</ele><time>2026-05-03T14:59:57Z</time></trkpt><trkpt lat="43.49502637790706" lon="18.490288038697393"><ele>1089.8</ele><time>2026-05-03T14:59:59Z</time></trkpt><trkpt lat="43.495009001151864" lon="18.490160115560766"><ele>1089.1999999999998</ele><time>2026-05-03T15:00:01Z</time></trkpt><trkpt lat="43.49500488254576" lon="18.490072545870955"><ele>1088.6</ele><time>2026-05-03T15:00:02Z</time></trkpt><trkpt lat="43.4950525586081" lon="18.489894957218084"><ele>1088.0</ele><time>2026-05-03T15:00:04Z</time></trkpt><trkpt lat="43.495111332865065" lon="18.489811537498394"><ele>1088.0</ele><time>2026-05-03T15:00:05Z</time></trkpt><trkpt lat="43.495174032578646" lon="18.48972271341068"><ele>1088.0</ele><time>2026-05-03T15:00:06Z</time></trkpt><trkpt lat="43.49521016677328" lon="18.489607008642814"><ele>1088.0</ele><time>2026-05-03T15:00:07Z</time></trkpt><trkpt lat="43.495350081806734" lon="18.489530281903264"><ele>1088.0</ele><time>2026-05-03T15:00:08Z</time></trkpt><trkpt lat="43.4954035226162" lon="18.48939966776295"><ele>1088.0</ele><time>2026-05-03T15:00:09Z</time></trkpt><trkpt lat="43.49543613712876" lon="18.489262693013952"><ele>1087.8</ele><time>2026-05-03T15:00:10Z</time></trkpt><trkpt lat="43.495466042762" lon="18.489120230447007"><ele>1087.6</ele><time>2026-05-03T15:00:11Z</time></trkpt><trkpt lat="43.49549173650013" lon="18.48898552820382"><ele>1087.4</ele><time>2026-05-03T15:00:12Z</time></trkpt><trkpt lat="43.49551772912676" lon="18.488850887750832"><ele>1087.2</ele><time>2026-05-03T15:00:13Z</time></trkpt><trkpt lat="43.4955529935954" lon="18.48871121021943"><ele>1087.0</ele><time>2026-05-03T15:00:14Z</time></trkpt><trkpt lat="43.49560395974177" lon="18.48858278746778"><ele>1087.0</ele><time>2026-05-03T15:00:15Z</time></trkpt><trkpt lat="43.49566245914069" lon="18.488469883286328"><ele>1087.0</ele><time>2026-05-03T15:00:16Z</time></trkpt><trkpt lat="43.49573774709832" lon="18.488373117613712"><ele>1087.0</ele><time>2026-05-03T15:00:17Z</time></trkpt><trkpt lat="43.49582080566349" lon="18.48829176818673"><ele>1087.0</ele><time>2026-05-03T15:00:18Z</time></trkpt><trkpt lat="43.49590143968862" lon="18.488208949826433"><ele>1087.0</ele><time>2026-05-03T15:00:19Z</time></trkpt><trkpt lat="43.495979524285524" lon="18.488115938690306"><ele>1087.0</ele><time>2026-05-03T15:00:20Z</time></trkpt><trkpt lat="43.49604438369078" lon="18.488004719494075"><ele>1087.0</ele><time>2026-05-03T15:00:21Z</time></trkpt><trkpt lat="43.496099767641525" lon="18.487884488165264"><ele>1087.0</ele><time>2026-05-03T15:00:22Z</time></trkpt><trkpt lat="43.496149155205174" lon="18.487760830567247"><ele>1087.0</ele><time>2026-05-03T15:00:23Z</time></trkpt><trkpt lat="43.49619988056791" lon="18.48763830817549"><ele>1087.0</ele><time>2026-05-03T15:00:24Z</time></trkpt><trkpt lat="43.496250491624714" lon="18.487515525034805"><ele>1087.0</ele><time>2026-05-03T15:00:25Z</time></trkpt><trkpt lat="43.49630031045236" lon="18.487397975083084"><ele>1087.0</ele><time>2026-05-03T15:00:26Z</time></trkpt><trkpt lat="43.49634932527275" lon="18.487273119381264"><ele>1087.0</ele><time>2026-05-03T15:00:27Z</time></trkpt><trkpt lat="43.496392555159126" lon="18.48714088468693"><ele>1087.0</ele><time>2026-05-03T15:00:28Z</time></trkpt><trkpt lat="43.4964395017572" lon="18.48701341320036"><ele>1087.0</ele><time>2026-05-03T15:00:29Z</time></trkpt><trkpt lat="43.49650754609165" lon="18.486898292667103"><ele>1085.25</ele><time>2026-05-03T15:00:30Z</time></trkpt><trkpt lat="43.49660411998819" lon="18.48680508967883"><ele>1083.5</ele><time>2026-05-03T15:00:31Z</time></trkpt><trkpt lat="43.49671534200387" lon="18.486720858761654"><ele>1081.75</ele><time>2026-05-03T15:00:32Z</time></trkpt><trkpt lat="43.49682049996782" lon="18.48664496902129"><ele>1080.0</ele><time>2026-05-03T15:00:33Z</time></trkpt><trkpt lat="43.49692671790592" lon="18.486570485144913"><ele>1080.0</ele><time>2026-05-03T15:00:34Z</time></trkpt><trkpt lat="43.49703856586951" lon="18.48651531302704"><ele>1080.0</ele><time>2026-05-03T15:00:35Z</time></trkpt><trkpt lat="43.497154225278436" lon="18.486498621668392"><ele>1080.0</ele><time>2026-05-03T15:00:36Z</time></trkpt><trkpt lat="43.49726463451544" lon="18.486522992395123"><ele>1080.0</ele><time>2026-05-03T15:00:37Z</time></trkpt><trkpt lat="43.49737115352217" lon="18.48657350825346"><ele>1080.5</ele><time>2026-05-03T15:00:38Z</time></trkpt><trkpt lat="43.497485859571135" lon="18.486607211979372"><ele>1081.0</ele><time>2026-05-03T15:00:39Z</time></trkpt><trkpt lat="43.49760082310511" lon="18.48660288108628"><ele>1081.5</ele><time>2026-05-03T15:00:40Z</time></trkpt><trkpt lat="43.49771308395682" lon="18.486566016857857"><ele>1082.0</ele><time>2026-05-03T15:00:41Z</time></trkpt><trkpt lat="43.49783064076212" lon="18.486500394695145"><ele>1081.5</ele><time>2026-05-03T15:00:42Z</time></trkpt><trkpt lat="43.49795220491165" lon="18.486430466039263"><ele>1081.0</ele><time>2026-05-03T15:00:43Z</time></trkpt><trkpt lat="43.49808414202115" lon="18.486362798986914"><ele>1080.5</ele><time>2026-05-03T15:00:44Z</time></trkpt><trkpt lat="43.498218328805656" lon="18.486299552559714"><ele>1080.0</ele><time>2026-05-03T15:00:45Z</time></trkpt><trkpt lat="43.49835795209693" lon="18.486241372239842"><ele>1079.5</ele><time>2026-05-03T15:00:46Z</time></trkpt><trkpt lat="43.49850054239964" lon="18.486175769820925"><ele>1079.0</ele><time>2026-05-03T15:00:47Z</time></trkpt><trkpt lat="43.49863945300699" lon="18.48610179135678"><ele>1078.5</ele><time>2026-05-03T15:00:48Z</time></trkpt><trkpt lat="43.49875881634948" lon="18.485990182683686"><ele>1078.0</ele><time>2026-05-03T15:00:49Z</time></trkpt><trkpt lat="43.49885846175618" lon="18.48584575372968"><ele>1078.0</ele><time>2026-05-03T15:00:50Z</time></trkpt><trkpt lat="43.498941312375166" lon="18.485689517553"><ele>1078.0</ele><time>2026-05-03T15:00:51Z</time></trkpt><trkpt lat="43.49900345131488" lon="18.485500701304073"><ele>1078.0</ele><time>2026-05-03T15:00:52Z</time></trkpt><trkpt lat="43.4990555025473" lon="18.485300359429743"><ele>1078.0</ele><time>2026-05-03T15:00:53Z</time></trkpt><trkpt lat="43.49910662957538" lon="18.485087825265914"><ele>1077.5</ele><time>2026-05-03T15:00:54Z</time></trkpt><trkpt lat="43.49915461129973" lon="18.484893042923815"><ele>1077.0</ele><time>2026-05-03T15:00:55Z</time></trkpt><trkpt lat="43.49919872614261" lon="18.4847080382909"><ele>1076.5</ele><time>2026-05-03T15:00:56Z</time></trkpt><trkpt lat="43.49924660319808" lon="18.484519202594406"><ele>1076.0</ele><time>2026-05-03T15:00:57Z</time></trkpt><trkpt lat="43.499295049575046" lon="18.484333929525786"><ele>1075.6666666666667</ele><time>2026-05-03T15:00:58Z</time></trkpt><trkpt lat="43.49934191525905" lon="18.48414526536662"><ele>1075.3333333333333</ele><time>2026-05-03T15:00:59Z</time></trkpt><trkpt lat="43.499387612427725" lon="18.483944213860223"><ele>1075.0</ele><time>2026-05-03T15:01:00Z</time></trkpt><trkpt lat="43.499440028498356" lon="18.483742554059425"><ele>1075.0</ele><time>2026-05-03T15:01:01Z</time></trkpt><trkpt lat="43.4995015421093" lon="18.48354656364147"><ele>1075.0</ele><time>2026-05-03T15:01:02Z</time></trkpt><trkpt lat="43.4995664625418" lon="18.483355705440097"><ele>1075.0</ele><time>2026-05-03T15:01:03Z</time></trkpt><trkpt lat="43.49963339061909" lon="18.48316754071616"><ele>1074.3333333333333</ele><time>2026-05-03T15:01:04Z</time></trkpt><trkpt lat="43.49970338396168" lon="18.482977683154367"><ele>1073.6666666666667</ele><time>2026-05-03T15:01:05Z</time></trkpt><trkpt lat="43.499776298544056" lon="18.482790099695638"><ele>1073.0</ele><time>2026-05-03T15:01:06Z</time></trkpt><trkpt lat="43.49984954023277" lon="18.482609442028455"><ele>1071.3333333333335</ele><time>2026-05-03T15:01:07Z</time></trkpt><trkpt lat="43.49992649379153" lon="18.4824244001689"><ele>1069.6666666666667</ele><time>2026-05-03T15:01:08Z</time></trkpt><trkpt lat="43.50000599823803" lon="18.48224834603953"><ele>1068.0</ele><time>2026-05-03T15:01:09Z</time></trkpt><trkpt lat="43.50008765180715" lon="18.482079572047596"><ele>1067.5</ele><time>2026-05-03T15:01:10Z</time></trkpt><trkpt lat="43.5001697959588" lon="18.481927128377833"><ele>1067.0</ele><time>2026-05-03T15:01:11Z</time></trkpt><trkpt lat="43.50025824767239" lon="18.481784136956193"><ele>1066.5</ele><time>2026-05-03T15:01:12Z</time></trkpt><trkpt lat="43.500349917476356" lon="18.481658258976335"><ele>1066.0</ele><time>2026-05-03T15:01:13Z</time></trkpt><trkpt lat="43.50043850599656" lon="18.48154798681701"><ele>1065.3999999999999</ele><time>2026-05-03T15:01:14Z</time></trkpt><trkpt lat="43.50052937679076" lon="18.481440536423207"><ele>1064.8</ele><time>2026-05-03T15:01:15Z</time></trkpt><trkpt lat="43.50060884369529" lon="18.48134584693024"><ele>1064.1999999999998</ele><time>2026-05-03T15:01:16Z</time></trkpt><trkpt lat="43.500682210298464" lon="18.481258827332475"><ele>1063.6</ele><time>2026-05-03T15:01:17Z</time></trkpt><trkpt lat="43.50075528865346" lon="18.481173882215852"><ele>1063.0</ele><time>2026-05-03T15:01:18Z</time></trkpt><trkpt lat="43.50082586691655" lon="18.481096447475537"><ele>1062.6666666666665</ele><time>2026-05-03T15:01:19Z</time></trkpt><trkpt lat="43.50093275618488" lon="18.480979660850906"><ele>1062.3333333333333</ele><time>2026-05-03T15:01:21Z</time></trkpt><trkpt lat="43.501036080038176" lon="18.480842986551007"><ele>1062.0</ele><time>2026-05-03T15:01:22Z</time></trkpt><trkpt lat="43.501157442105225" lon="18.48067639289739"><ele>1061.25</ele><time>2026-05-03T15:01:23Z</time></trkpt><trkpt lat="43.501261764670986" lon="18.480545733078955"><ele>1060.5</ele><time>2026-05-03T15:01:24Z</time></trkpt><trkpt lat="43.50136108645502" lon="18.480438383180072"><ele>1059.75</ele><time>2026-05-03T15:01:25Z</time></trkpt><trkpt lat="43.50144584035221" lon="18.480325775622266"><ele>1059.0</ele><time>2026-05-03T15:01:26Z</time></trkpt><trkpt lat="43.50152871995479" lon="18.48020873761937"><ele>1059.0</ele><time>2026-05-03T15:01:27Z</time></trkpt><trkpt lat="43.50160476555028" lon="18.480090533987216"><ele>1059.0</ele><time>2026-05-03T15:01:28Z</time></trkpt><trkpt lat="43.501671623478614" lon="18.479978794923976"><ele>1059.0</ele><time>2026-05-03T15:01:29Z</time></trkpt><trkpt lat="43.50172200243635" lon="18.479858876039476"><ele>1059.0</ele><time>2026-05-03T15:01:30Z</time></trkpt><trkpt lat="43.5017677500137" lon="18.479727002397667"><ele>1059.0</ele><time>2026-05-03T15:01:31Z</time></trkpt><trkpt lat="43.50181455763373" lon="18.479577984672844"><ele>1059.0</ele><time>2026-05-03T15:01:32Z</time></trkpt><trkpt lat="43.50186056245448" lon="18.47943785606386"><ele>1059.0</ele><time>2026-05-03T15:01:33Z</time></trkpt><trkpt lat="43.5018997519909" lon="18.479291484632057"><ele>1059.0</ele><time>2026-05-03T15:01:34Z</time></trkpt><trkpt lat="43.501933345719486" lon="18.479157550693223"><ele>1059.0</ele><time>2026-05-03T15:01:35Z</time></trkpt><trkpt lat="43.50196494707973" lon="18.479021829234473"><ele>1059.0</ele><time>2026-05-03T15:01:36Z</time></trkpt><trkpt lat="43.50199774324493" lon="18.47887531908244"><ele>1058.75</ele><time>2026-05-03T15:01:37Z</time></trkpt><trkpt lat="43.502030567054994" lon="18.47871349569111"><ele>1058.5</ele><time>2026-05-03T15:01:38Z</time></trkpt><trkpt lat="43.502061741201096" lon="18.47853647046299"><ele>1058.25</ele><time>2026-05-03T15:01:39Z</time></trkpt><trkpt lat="43.502082409813795" lon="18.47835366670874"><ele>1058.0</ele><time>2026-05-03T15:01:40Z</time></trkpt><trkpt lat="43.50207831855152" lon="18.478181221871928"><ele>1058.0</ele><time>2026-05-03T15:01:41Z</time></trkpt><trkpt lat="43.50204722979553" lon="18.478002922679664"><ele>1058.0</ele><time>2026-05-03T15:01:42Z</time></trkpt><trkpt lat="43.50197905673775" lon="18.47781097004071"><ele>1058.0</ele><time>2026-05-03T15:01:43Z</time></trkpt><trkpt lat="43.501896381781414" lon="18.477598647236416"><ele>1058.3333333333335</ele><time>2026-05-03T15:01:44Z</time></trkpt><trkpt lat="43.50183090218588" lon="18.477368233256726"><ele>1058.6666666666667</ele><time>2026-05-03T15:01:45Z</time></trkpt><trkpt lat="43.50178165051467" lon="18.477123594662817"><ele>1059.0</ele><time>2026-05-03T15:01:46Z</time></trkpt><trkpt lat="43.50173311407613" lon="18.476883566199824"><ele>1058.3333333333333</ele><time>2026-05-03T15:01:47Z</time></trkpt><trkpt lat="43.50167941141151" lon="18.476669113580634"><ele>1057.6666666666665</ele><time>2026-05-03T15:01:48Z</time></trkpt><trkpt lat="43.50162017198012" lon="18.47645965269666"><ele>1057.0</ele><time>2026-05-03T15:01:49Z</time></trkpt><trkpt lat="43.50154987275875" lon="18.47627101192093"><ele>1058.25</ele><time>2026-05-03T15:01:50Z</time></trkpt><trkpt lat="43.50146571881179" lon="18.476097297322596"><ele>1059.5</ele><time>2026-05-03T15:01:51Z</time></trkpt><trkpt lat="43.50136234779718" lon="18.475946391952835"><ele>1060.75</ele><time>2026-05-03T15:01:52Z</time></trkpt><trkpt lat="43.501252639812414" lon="18.475819176884443"><ele>1062.0</ele><time>2026-05-03T15:01:53Z</time></trkpt><trkpt lat="43.50115723319057" lon="18.475675615416588"><ele>1062.0</ele><time>2026-05-03T15:01:54Z</time></trkpt><trkpt lat="43.501103674677815" lon="18.475512824891695"><ele>1062.0</ele><time>2026-05-03T15:01:55Z</time></trkpt><trkpt lat="43.50108493746379" lon="18.47533307594633"><ele>1062.0</ele><time>2026-05-03T15:01:56Z</time></trkpt><trkpt lat="43.50107951681323" lon="18.475160130279484"><ele>1062.0</ele><time>2026-05-03T15:01:57Z</time></trkpt><trkpt lat="43.50104338827427" lon="18.474989874623663"><ele>1060.75</ele><time>2026-05-03T15:01:58Z</time></trkpt><trkpt lat="43.500994516143685" lon="18.47480628879441"><ele>1059.5</ele><time>2026-05-03T15:01:59Z</time></trkpt><trkpt lat="43.50094894979489" lon="18.474621621873805"><ele>1058.25</ele><time>2026-05-03T15:02:00Z</time></trkpt><trkpt lat="43.50092331801596" lon="18.474441441454903"><ele>1057.0</ele><time>2026-05-03T15:02:01Z</time></trkpt><trkpt lat="43.50093045903287" lon="18.474266697754338"><ele>1057.0</ele><time>2026-05-03T15:02:02Z</time></trkpt><trkpt lat="43.50097999181828" lon="18.474092438619945"><ele>1057.0</ele><time>2026-05-03T15:02:03Z</time></trkpt><trkpt lat="43.501037058560506" lon="18.473924569779797"><ele>1057.0</ele><time>2026-05-03T15:02:04Z</time></trkpt><trkpt lat="43.501073024440814" lon="18.473762854077638"><ele>1057.0</ele><time>2026-05-03T15:02:05Z</time></trkpt><trkpt lat="43.50108603038413" lon="18.47360231986092"><ele>1057.0</ele><time>2026-05-03T15:02:06Z</time></trkpt><trkpt lat="43.50108342154846" lon="18.473455046312843"><ele>1057.0</ele><time>2026-05-03T15:02:07Z</time></trkpt><trkpt lat="43.5010804459148" lon="18.473317704859927"><ele>1057.0</ele><time>2026-05-03T15:02:08Z</time></trkpt><trkpt lat="43.50108955031073" lon="18.4731974583651"><ele>1057.0</ele><time>2026-05-03T15:02:09Z</time></trkpt><trkpt lat="43.5011216581796" lon="18.473111951220524"><ele>1057.0</ele><time>2026-05-03T15:02:10Z</time></trkpt><trkpt lat="43.50122771843508" lon="18.473064058604958"><ele>1058.6</ele><time>2026-05-03T15:02:12Z</time></trkpt><trkpt lat="43.501337216580545" lon="18.473140646716868"><ele>1060.2</ele><time>2026-05-03T15:02:14Z</time></trkpt><trkpt lat="43.50138459999076" lon="18.473228829469132"><ele>1061.8</ele><time>2026-05-03T15:02:15Z</time></trkpt><trkpt lat="43.50142664036645" lon="18.473350582296135"><ele>1063.4</ele><time>2026-05-03T15:02:16Z</time></trkpt><trkpt lat="43.50147403595643" lon="18.47349016489475"><ele>1065.0</ele><time>2026-05-03T15:02:17Z</time></trkpt><trkpt lat="43.5015190323053" lon="18.47364120830753"><ele>1063.4</ele><time>2026-05-03T15:02:18Z</time></trkpt><trkpt lat="43.501559902770964" lon="18.473808015827366"><ele>1061.8</ele><time>2026-05-03T15:02:19Z</time></trkpt><trkpt lat="43.50159586792245" lon="18.47397396046739"><ele>1060.2</ele><time>2026-05-03T15:02:20Z</time></trkpt><trkpt lat="43.501626772455246" lon="18.474113991206533"><ele>1058.6</ele><time>2026-05-03T15:02:21Z</time></trkpt><trkpt lat="43.501656608017626" lon="18.474222902944803"><ele>1057.0</ele><time>2026-05-03T15:02:22Z</time></trkpt><trkpt lat="43.50169333523246" lon="18.474321560636213"><ele>1057.0</ele><time>2026-05-03T15:02:23Z</time></trkpt><trkpt lat="43.501741480083915" lon="18.474408933870375"><ele>1057.0</ele><time>2026-05-03T15:02:24Z</time></trkpt><trkpt lat="43.50180192355494" lon="18.47450029423931"><ele>1057.0</ele><time>2026-05-03T15:02:25Z</time></trkpt><trkpt lat="43.50186154293229" lon="18.474608334821703"><ele>1057.0</ele><time>2026-05-03T15:02:26Z</time></trkpt><trkpt lat="43.50192167173311" lon="18.47473525739296"><ele>1057.0</ele><time>2026-05-03T15:02:27Z</time></trkpt><trkpt lat="43.50199461377664" lon="18.474862416021413"><ele>1057.25</ele><time>2026-05-03T15:02:28Z</time></trkpt><trkpt lat="43.50207879236183" lon="18.474969868503507"><ele>1057.5</ele><time>2026-05-03T15:02:29Z</time></trkpt><trkpt lat="43.50217286816135" lon="18.47506233862308"><ele>1057.75</ele><time>2026-05-03T15:02:30Z</time></trkpt><trkpt lat="43.5022807459463" lon="18.475136614342563"><ele>1058.0</ele><time>2026-05-03T15:02:31Z</time></trkpt><trkpt lat="43.50240831562531" lon="18.4752100611679"><ele>1058.0</ele><time>2026-05-03T15:02:32Z</time></trkpt><trkpt lat="43.5025493628778" lon="18.475281973000964"><ele>1058.0</ele><time>2026-05-03T15:02:33Z</time></trkpt><trkpt lat="43.502699375228055" lon="18.47535771508277"><ele>1058.0</ele><time>2026-05-03T15:02:34Z</time></trkpt><trkpt lat="43.50284556154676" lon="18.47542483151402"><ele>1055.6666666666667</ele><time>2026-05-03T15:02:35Z</time></trkpt><trkpt lat="43.50298551644181" lon="18.475493107098615"><ele>1053.3333333333333</ele><time>2026-05-03T15:02:36Z</time></trkpt><trkpt lat="43.50312363780335" lon="18.475581076986565"><ele>1051.0</ele><time>2026-05-03T15:02:37Z</time></trkpt><trkpt lat="43.50325009677164" lon="18.475704725937113"><ele>1051.0</ele><time>2026-05-03T15:02:38Z</time></trkpt><trkpt lat="43.503355081817794" lon="18.47586551843295"><ele>1051.0</ele><time>2026-05-03T15:02:39Z</time></trkpt><trkpt lat="43.503427485254704" lon="18.47606160081037"><ele>1051.0</ele><time>2026-05-03T15:02:40Z</time></trkpt><trkpt lat="43.50348233157672" lon="18.47626911014612"><ele>1051.0</ele><time>2026-05-03T15:02:41Z</time></trkpt><trkpt lat="43.50353092541948" lon="18.4764676602295"><ele>1051.0</ele><time>2026-05-03T15:02:42Z</time></trkpt><trkpt lat="43.503586737523975" lon="18.47664783517763"><ele>1051.0</ele><time>2026-05-03T15:02:43Z</time></trkpt><trkpt lat="43.503658296911624" lon="18.47680582263565"><ele>1051.0</ele><time>2026-05-03T15:02:44Z</time></trkpt><trkpt lat="43.50375066404088" lon="18.476940347709967"><ele>1051.0</ele><time>2026-05-03T15:02:45Z</time></trkpt><trkpt lat="43.50385668031914" lon="18.477054123958247"><ele>1051.0</ele><time>2026-05-03T15:02:46Z</time></trkpt><trkpt lat="43.50397980270308" lon="18.47713441466839"><ele>1051.0</ele><time>2026-05-03T15:02:47Z</time></trkpt><trkpt lat="43.50411700840089" lon="18.477179071406347"><ele>1051.0</ele><time>2026-05-03T15:02:48Z</time></trkpt><trkpt lat="43.50426675028228" lon="18.477195025002604"><ele>1051.0</ele><time>2026-05-03T15:02:49Z</time></trkpt><trkpt lat="43.50442044365208" lon="18.477202215684304"><ele>1051.0</ele><time>2026-05-03T15:02:50Z</time></trkpt><trkpt lat="43.5045765298532" lon="18.477211229008933"><ele>1051.0</ele><time>2026-05-03T15:02:51Z</time></trkpt><trkpt lat="43.50473125374401" lon="18.477219936469865"><ele>1051.6666666666665</ele><time>2026-05-03T15:02:52Z</time></trkpt><trkpt lat="43.50489420950882" lon="18.47723960305545"><ele>1052.3333333333333</ele><time>2026-05-03T15:02:53Z</time></trkpt><trkpt lat="43.505058940071926" lon="18.477271784214214"><ele>1053.0</ele><time>2026-05-03T15:02:54Z</time></trkpt><trkpt lat="43.505228122028456" lon="18.477315746180594"><ele>1053.0</ele><time>2026-05-03T15:02:55Z</time></trkpt><trkpt lat="43.505405587843654" lon="18.47738768105664"><ele>1053.0</ele><time>2026-05-03T15:02:56Z</time></trkpt><trkpt lat="43.50557735330279" lon="18.47748343616092"><ele>1053.0</ele><time>2026-05-03T15:02:57Z</time></trkpt><trkpt lat="43.50574624107032" lon="18.477587782317038"><ele>1053.3333333333333</ele><time>2026-05-03T15:02:58Z</time></trkpt><trkpt lat="43.50592048409556" lon="18.477686218031437"><ele>1053.6666666666665</ele><time>2026-05-03T15:02:59Z</time></trkpt><trkpt lat="43.50609071728094" lon="18.47774716338845"><ele>1054.0</ele><time>2026-05-03T15:03:00Z</time></trkpt><trkpt lat="43.50625624025994" lon="18.477766005840163"><ele>1054.0</ele><time>2026-05-03T15:03:01Z</time></trkpt><trkpt lat="43.5064336772131" lon="18.477750905044182"><ele>1054.0</ele><time>2026-05-03T15:03:02Z</time></trkpt><trkpt lat="43.50662887872383" lon="18.4777094328014"><ele>1054.0</ele><time>2026-05-03T15:03:03Z</time></trkpt><trkpt lat="43.506821447354675" lon="18.477670767971233"><ele>1054.0</ele><time>2026-05-03T15:03:04Z</time></trkpt><trkpt lat="43.50701399226692" lon="18.477659660578365"><ele>1054.0</ele><time>2026-05-03T15:03:05Z</time></trkpt><trkpt lat="43.50720535057469" lon="18.477659773626318"><ele>1054.0</ele><time>2026-05-03T15:03:06Z</time></trkpt><trkpt lat="43.50740075444091" lon="18.477637296209494"><ele>1054.6666666666665</ele><time>2026-05-03T15:03:07Z</time></trkpt><trkpt lat="43.50758286851778" lon="18.47759923825182"><ele>1055.3333333333333</ele><time>2026-05-03T15:03:08Z</time></trkpt><trkpt lat="43.507763111527815" lon="18.477549025166116"><ele>1056.0</ele><time>2026-05-03T15:03:09Z</time></trkpt><trkpt lat="43.507935692137515" lon="18.477489383413072"><ele>1056.0</ele><time>2026-05-03T15:03:10Z</time></trkpt><trkpt lat="43.508109350594985" lon="18.477422494102328"><ele>1056.0</ele><time>2026-05-03T15:03:11Z</time></trkpt><trkpt lat="43.50827996027623" lon="18.47734815982869"><ele>1056.0</ele><time>2026-05-03T15:03:12Z</time></trkpt><trkpt lat="43.50845370142309" lon="18.477257820998815"><ele>1056.0</ele><time>2026-05-03T15:03:13Z</time></trkpt><trkpt lat="43.5086242901947" lon="18.477155788027"><ele>1056.0</ele><time>2026-05-03T15:03:14Z</time></trkpt><trkpt lat="43.50880790759016" lon="18.477061142939704"><ele>1056.0</ele><time>2026-05-03T15:03:15Z</time></trkpt><trkpt lat="43.50900219277964" lon="18.476971557509398"><ele>1058.0</ele><time>2026-05-03T15:03:16Z</time></trkpt><trkpt lat="43.509206374865705" lon="18.476902988185234"><ele>1060.0</ele><time>2026-05-03T15:03:17Z</time></trkpt><trkpt lat="43.50942060899103" lon="18.476851784349265"><ele>1062.0</ele><time>2026-05-03T15:03:18Z</time></trkpt><trkpt lat="43.509650648117386" lon="18.476816118373616"><ele>1062.0</ele><time>2026-05-03T15:03:19Z</time></trkpt><trkpt lat="43.509891353849" lon="18.476797277318816"><ele>1062.0</ele><time>2026-05-03T15:03:20Z</time></trkpt><trkpt lat="43.510126771161204" lon="18.47677283312233"><ele>1062.0</ele><time>2026-05-03T15:03:21Z</time></trkpt><trkpt lat="43.51034072811396" lon="18.476717729653004"><ele>1062.0</ele><time>2026-05-03T15:03:22Z</time></trkpt><trkpt lat="43.510538647195446" lon="18.476644679188702"><ele>1062.0</ele><time>2026-05-03T15:03:23Z</time></trkpt><trkpt lat="43.51072188863353" lon="18.476576483421894"><ele>1062.6666666666667</ele><time>2026-05-03T15:03:24Z</time></trkpt><trkpt lat="43.51090212664935" lon="18.476555188334828"><ele>1063.3333333333335</ele><time>2026-05-03T15:03:25Z</time></trkpt><trkpt lat="43.51108170353865" lon="18.476598429246927"><ele>1064.0</ele><time>2026-05-03T15:03:26Z</time></trkpt><trkpt lat="43.511247680310134" lon="18.47669547979371"><ele>1065.3333333333335</ele><time>2026-05-03T15:03:27Z</time></trkpt><trkpt lat="43.51141882558014" lon="18.476761819679908"><ele>1066.6666666666667</ele><time>2026-05-03T15:03:28Z</time></trkpt><trkpt lat="43.51159769005208" lon="18.476754930244194"><ele>1068.0</ele><time>2026-05-03T15:03:29Z</time></trkpt><trkpt lat="43.5117699643958" lon="18.4767293591591"><ele>1068.0</ele><time>2026-05-03T15:03:30Z</time></trkpt><trkpt lat="43.511937030898956" lon="18.476728842591182"><ele>1068.0</ele><time>2026-05-03T15:03:31Z</time></trkpt><trkpt lat="43.5121029112961" lon="18.476792872208502"><ele>1068.0</ele><time>2026-05-03T15:03:32Z</time></trkpt><trkpt lat="43.51225315112164" lon="18.47691688388661"><ele>1067.6666666666667</ele><time>2026-05-03T15:03:33Z</time></trkpt><trkpt lat="43.51237990133505" lon="18.4770824959142"><ele>1067.3333333333335</ele><time>2026-05-03T15:03:34Z</time></trkpt><trkpt lat="43.512489670165955" lon="18.477264609119693"><ele>1067.0</ele><time>2026-05-03T15:03:35Z</time></trkpt><trkpt lat="43.51259350220547" lon="18.477436439283146"><ele>1067.0</ele><time>2026-05-03T15:03:36Z</time></trkpt><trkpt lat="43.51270093477789" lon="18.47759583317532"><ele>1067.0</ele><time>2026-05-03T15:03:37Z</time></trkpt><trkpt lat="43.51281574004834" lon="18.47773082512794"><ele>1067.0</ele><time>2026-05-03T15:03:38Z</time></trkpt><trkpt lat="43.51293654347407" lon="18.477818938832755"><ele>1067.0</ele><time>2026-05-03T15:03:39Z</time></trkpt><trkpt lat="43.513084997867665" lon="18.47786189448011"><ele>1069.6666666666667</ele><time>2026-05-03T15:03:40Z</time></trkpt><trkpt lat="43.51325262164823" lon="18.47786857303603"><ele>1072.3333333333333</ele><time>2026-05-03T15:03:41Z</time></trkpt><trkpt lat="43.51341574622857" lon="18.477881084971568"><ele>1075.0</ele><time>2026-05-03T15:03:42Z</time></trkpt><trkpt lat="43.51357325031535" lon="18.477925824422158"><ele>1073.6666666666665</ele><time>2026-05-03T15:03:43Z</time></trkpt><trkpt lat="43.51373033467367" lon="18.478004891784696"><ele>1072.3333333333333</ele><time>2026-05-03T15:03:44Z</time></trkpt><trkpt lat="43.51388928263588" lon="18.478084843662963"><ele>1071.0</ele><time>2026-05-03T15:03:45Z</time></trkpt><trkpt lat="43.51406196553053" lon="18.478133605145715"><ele>1071.0</ele><time>2026-05-03T15:03:46Z</time></trkpt><trkpt lat="43.51424745145645" lon="18.478145137040183"><ele>1071.0</ele><time>2026-05-03T15:03:47Z</time></trkpt><trkpt lat="43.51443323721669" lon="18.478130768356426"><ele>1071.0</ele><time>2026-05-03T15:03:48Z</time></trkpt><trkpt lat="43.51461579074226" lon="18.47811510871044"><ele>1070.0</ele><time>2026-05-03T15:03:49Z</time></trkpt><trkpt lat="43.51479568542365" lon="18.478111438267398"><ele>1069.0</ele><time>2026-05-03T15:03:50Z</time></trkpt><trkpt lat="43.51497652276772" lon="18.478151618851214"><ele>1068.0</ele><time>2026-05-03T15:03:51Z</time></trkpt><trkpt lat="43.51515067698703" lon="18.478233075202283"><ele>1068.0</ele><time>2026-05-03T15:03:52Z</time></trkpt><trkpt lat="43.51529559512106" lon="18.478389849535315"><ele>1068.0</ele><time>2026-05-03T15:03:53Z</time></trkpt><trkpt lat="43.51539587400181" lon="18.47859138404241"><ele>1068.0</ele><time>2026-05-03T15:03:54Z</time></trkpt><trkpt lat="43.51548360397276" lon="18.478808226435696"><ele>1072.6666666666667</ele><time>2026-05-03T15:03:55Z</time></trkpt><trkpt lat="43.51557349758742" lon="18.479021332669678"><ele>1077.3333333333335</ele><time>2026-05-03T15:03:56Z</time></trkpt><trkpt lat="43.51566481691948" lon="18.479223642509265"><ele>1082.0</ele><time>2026-05-03T15:03:57Z</time></trkpt><trkpt lat="43.51575064760373" lon="18.479426824594086"><ele>1080.3333333333335</ele><time>2026-05-03T15:03:58Z</time></trkpt><trkpt lat="43.51582918020128" lon="18.47963924970169"><ele>1078.6666666666667</ele><time>2026-05-03T15:03:59Z</time></trkpt><trkpt lat="43.51589076714876" lon="18.47988031519772"><ele>1077.0</ele><time>2026-05-03T15:04:00Z</time></trkpt><trkpt lat="43.51593325919963" lon="18.48015423908608"><ele>1077.0</ele><time>2026-05-03T15:04:01Z</time></trkpt><trkpt lat="43.51596653024935" lon="18.480413297083256"><ele>1077.0</ele><time>2026-05-03T15:04:02Z</time></trkpt><trkpt lat="43.515992935862485" lon="18.480629802916283"><ele>1077.0</ele><time>2026-05-03T15:04:03Z</time></trkpt><trkpt lat="43.51604262479028" lon="18.480807095981085"><ele>1077.25</ele><time>2026-05-03T15:04:04Z</time></trkpt><trkpt lat="43.516120546319534" lon="18.48095227028448"><ele>1077.5</ele><time>2026-05-03T15:04:05Z</time></trkpt><trkpt lat="43.51622311411905" lon="18.481042530809525"><ele>1077.75</ele><time>2026-05-03T15:04:06Z</time></trkpt><trkpt lat="43.51635794670006" lon="18.481088051179864"><ele>1078.0</ele><time>2026-05-03T15:04:07Z</time></trkpt><trkpt lat="43.51651983402031" lon="18.481110037854606"><ele>1077.0</ele><time>2026-05-03T15:04:08Z</time></trkpt><trkpt lat="43.5166759273123" lon="18.481161942451582"><ele>1076.0</ele><time>2026-05-03T15:04:09Z</time></trkpt><trkpt lat="43.51682620713999" lon="18.481283561188118"><ele>1075.0</ele><time>2026-05-03T15:04:10Z</time></trkpt><trkpt lat="43.51697110899058" lon="18.48148004395766"><ele>1077.5</ele><time>2026-05-03T15:04:11Z</time></trkpt><trkpt lat="43.51711780282028" lon="18.481737054005468"><ele>1080.0</ele><time>2026-05-03T15:04:12Z</time></trkpt><trkpt lat="43.51724732434857" lon="18.48204105062668"><ele>1079.5</ele><time>2026-05-03T15:04:13Z</time></trkpt><trkpt lat="43.51735667893627" lon="18.48234265704742"><ele>1079.0</ele><time>2026-05-03T15:04:14Z</time></trkpt><trkpt lat="43.51745932849009" lon="18.48261059002212"><ele>1079.0</ele><time>2026-05-03T15:04:15Z</time></trkpt><trkpt lat="43.517566913613734" lon="18.482843951354624"><ele>1079.0</ele><time>2026-05-03T15:04:16Z</time></trkpt><trkpt lat="43.517690659801566" lon="18.483045776353244"><ele>1079.0</ele><time>2026-05-03T15:04:17Z</time></trkpt><trkpt lat="43.51783490051317" lon="18.483220560364344"><ele>1080.6666666666667</ele><time>2026-05-03T15:04:18Z</time></trkpt><trkpt lat="43.517993756574775" lon="18.483401878979425"><ele>1082.3333333333333</ele><time>2026-05-03T15:04:19Z</time></trkpt><trkpt lat="43.51817316856261" lon="18.483585573697418"><ele>1084.0</ele><time>2026-05-03T15:04:20Z</time></trkpt><trkpt lat="43.518352966945066" lon="18.483760230560797"><ele>1083.6666666666665</ele><time>2026-05-03T15:04:21Z</time></trkpt><trkpt lat="43.51851229329558" lon="18.48391633260352"><ele>1083.3333333333333</ele><time>2026-05-03T15:04:22Z</time></trkpt><trkpt lat="43.518642161463426" lon="18.484042274988404"><ele>1083.0</ele><time>2026-05-03T15:04:23Z</time></trkpt><trkpt lat="43.51876223007808" lon="18.484130088878892"><ele>1083.0</ele><time>2026-05-03T15:04:24Z</time></trkpt><trkpt lat="43.51890126805901" lon="18.484173212802666"><ele>1083.0</ele><time>2026-05-03T15:04:25Z</time></trkpt><trkpt lat="43.519052281182624" lon="18.484164064868107"><ele>1083.0</ele><time>2026-05-03T15:04:26Z</time></trkpt><trkpt lat="43.51920801390282" lon="18.484113405741876"><ele>1083.0</ele><time>2026-05-03T15:04:27Z</time></trkpt><trkpt lat="43.51936132443452" lon="18.48402365046909"><ele>1083.0</ele><time>2026-05-03T15:04:28Z</time></trkpt><trkpt lat="43.51951342254574" lon="18.483912753181173"><ele>1083.0</ele><time>2026-05-03T15:04:29Z</time></trkpt><trkpt lat="43.51965672871935" lon="18.483785626198067"><ele>1085.3333333333333</ele><time>2026-05-03T15:04:30Z</time></trkpt><trkpt lat="43.5197824644205" lon="18.483612038547093"><ele>1087.6666666666665</ele><time>2026-05-03T15:04:31Z</time></trkpt><trkpt lat="43.51988486081916" lon="18.483407215007198"><ele>1090.0</ele><time>2026-05-03T15:04:32Z</time></trkpt><trkpt lat="43.5199690042102" lon="18.483185647347888"><ele>1090.0</ele><time>2026-05-03T15:04:33Z</time></trkpt><trkpt lat="43.52005181421472" lon="18.48296750625853"><ele>1090.0</ele><time>2026-05-03T15:04:34Z</time></trkpt><trkpt lat="43.52014560971835" lon="18.482747046923198"><ele>1090.0</ele><time>2026-05-03T15:04:35Z</time></trkpt><trkpt lat="43.52023899594741" lon="18.482533200766547"><ele>1090.5</ele><time>2026-05-03T15:04:36Z</time></trkpt><trkpt lat="43.520328836235976" lon="18.482364343500013"><ele>1091.0</ele><time>2026-05-03T15:04:37Z</time></trkpt><trkpt lat="43.520421905993665" lon="18.482244786748705"><ele>1091.5</ele><time>2026-05-03T15:04:38Z</time></trkpt><trkpt lat="43.5205193187753" lon="18.48217612727874"><ele>1092.0</ele><time>2026-05-03T15:04:39Z</time></trkpt><trkpt lat="43.52061707350395" lon="18.482174889513168"><ele>1093.0</ele><time>2026-05-03T15:04:40Z</time></trkpt><trkpt lat="43.52070158026804" lon="18.48221680671058"><ele>1093.0</ele><time>2026-05-03T15:04:41Z</time></trkpt><trkpt lat="43.520759359211866" lon="18.48227433526143"><ele>1093.0</ele><time>2026-05-03T15:04:42Z</time></trkpt><trkpt lat="43.520844791158986" lon="18.482317067337352"><ele>1093.0</ele><time>2026-05-03T15:04:44Z</time></trkpt></trkseg><trkseg><trkpt lat="43.520870215469216" lon="18.482537073060804"><ele>1093.0</ele><time>2026-05-03T15:20:40Z</time></trkpt><trkpt lat="43.520871306507665" lon="18.482653116679966"><ele>1093.0</ele><time>2026-05-03T15:20:41Z</time></trkpt><trkpt lat="43.5208702430475" lon="18.4827841275079"><ele>1093.0</ele><time>2026-05-03T15:20:42Z</time></trkpt><trkpt lat="43.52086289308953" lon="18.482933062908067"><ele>1093.0</ele><time>2026-05-03T15:20:43Z</time></trkpt><trkpt lat="43.52085483300715" lon="18.48309422879157"><ele>1093.0</ele><time>2026-05-03T15:20:44Z</time></trkpt><trkpt lat="43.520845588797194" lon="18.48326749247708"><ele>1093.25</ele><time>2026-05-03T15:20:45Z</time></trkpt><trkpt lat="43.52084223140116" lon="18.483455554924948"><ele>1093.5</ele><time>2026-05-03T15:20:46Z</time></trkpt><trkpt lat="43.520838633555165" lon="18.483656288474183"><ele>1093.75</ele><time>2026-05-03T15:20:47Z</time></trkpt><trkpt lat="43.52083930639958" lon="18.483863872121713"><ele>1094.0</ele><time>2026-05-03T15:20:48Z</time></trkpt><trkpt lat="43.52083273057687" lon="18.48408003826409"><ele>1094.6666666666667</ele><time>2026-05-03T15:20:49Z</time></trkpt><trkpt lat="43.52085237508756" lon="18.484291085365882"><ele>1095.3333333333333</ele><time>2026-05-03T15:20:50Z</time></trkpt><trkpt lat="43.52088459565067" lon="18.48450716368715"><ele>1096.0</ele><time>2026-05-03T15:20:51Z</time></trkpt><trkpt lat="43.52091704411494" lon="18.484715856184046"><ele>1096.3333333333333</ele><time>2026-05-03T15:20:52Z</time></trkpt><trkpt lat="43.520953543198885" lon="18.48491674598986"><ele>1096.6666666666667</ele><time>2026-05-03T15:20:53Z</time></trkpt><trkpt lat="43.521003481520175" lon="18.485115191686546"><ele>1097.0</ele><time>2026-05-03T15:20:54Z</time></trkpt><trkpt lat="43.52106810943659" lon="18.48530117723841"><ele>1096.5</ele><time>2026-05-03T15:20:55Z</time></trkpt><trkpt lat="43.52113584955935" lon="18.485472685383826"><ele>1096.0</ele><time>2026-05-03T15:20:56Z</time></trkpt><trkpt lat="43.52120388681822" lon="18.48563537244227"><ele>1095.5</ele><time>2026-05-03T15:20:57Z</time></trkpt><trkpt lat="43.52127527861194" lon="18.48580244948691"><ele>1095.0</ele><time>2026-05-03T15:20:58Z</time></trkpt><trkpt lat="43.521350307465994" lon="18.485969150568735"><ele>1099.6666666666667</ele><time>2026-05-03T15:20:59Z</time></trkpt><trkpt lat="43.52142773332375" lon="18.48614026097551"><ele>1104.3333333333335</ele><time>2026-05-03T15:21:00Z</time></trkpt><trkpt lat="43.52150801442667" lon="18.486318365322028"><ele>1109.0</ele><time>2026-05-03T15:21:01Z</time></trkpt><trkpt lat="43.52158594057175" lon="18.486501801115143"><ele>1109.0</ele><time>2026-05-03T15:21:02Z</time></trkpt><trkpt lat="43.52167204104462" lon="18.486702256094507"><ele>1109.0</ele><time>2026-05-03T15:21:03Z</time></trkpt><trkpt lat="43.521766334607406" lon="18.486920422159116"><ele>1109.0</ele><time>2026-05-03T15:21:04Z</time></trkpt><trkpt lat="43.521864445007836" lon="18.487147049220063"><ele>1108.0</ele><time>2026-05-03T15:21:05Z</time></trkpt><trkpt lat="43.521960725113686" lon="18.487367092914152"><ele>1107.0</ele><time>2026-05-03T15:21:06Z</time></trkpt><trkpt lat="43.52206484275904" lon="18.487566586031885"><ele>1106.0</ele><time>2026-05-03T15:21:07Z</time></trkpt><trkpt lat="43.522209173536204" lon="18.48773442546718"><ele>1108.3333333333335</ele><time>2026-05-03T15:21:08Z</time></trkpt><trkpt lat="43.52238410926537" lon="18.487854124165246"><ele>1110.6666666666667</ele><time>2026-05-03T15:21:09Z</time></trkpt><trkpt lat="43.52258969794197" lon="18.48795491182031"><ele>1113.0</ele><time>2026-05-03T15:21:10Z</time></trkpt><trkpt lat="43.52279358950072" lon="18.48805412892139"><ele>1119.0</ele><time>2026-05-03T15:21:11Z</time></trkpt><trkpt lat="43.52296946649826" lon="18.488152204232655"><ele>1125.0</ele><time>2026-05-03T15:21:12Z</time></trkpt><trkpt lat="43.52311134679756" lon="18.488274395310256"><ele>1131.0</ele><time>2026-05-03T15:21:13Z</time></trkpt><trkpt lat="43.52323099050526" lon="18.48843363553117"><ele>1131.0</ele><time>2026-05-03T15:21:14Z</time></trkpt><trkpt lat="43.52333777175814" lon="18.488647862557777"><ele>1131.0</ele><time>2026-05-03T15:21:15Z</time></trkpt><trkpt lat="43.523437691276285" lon="18.488851081904436"><ele>1131.0</ele><time>2026-05-03T15:21:16Z</time></trkpt><trkpt lat="43.52351881208344" lon="18.489026940977176"><ele>1131.25</ele><time>2026-05-03T15:21:17Z</time></trkpt><trkpt lat="43.52358984002952" lon="18.4892101745118"><ele>1131.5</ele><time>2026-05-03T15:21:18Z</time></trkpt><trkpt lat="43.5236390656119" lon="18.489384988132418"><ele>1131.75</ele><time>2026-05-03T15:21:19Z</time></trkpt><trkpt lat="43.52364774968416" lon="18.489551353080433"><ele>1132.0</ele><time>2026-05-03T15:21:20Z</time></trkpt><trkpt lat="43.52361994519797" lon="18.489723522090266"><ele>1132.0</ele><time>2026-05-03T15:21:21Z</time></trkpt><trkpt lat="43.523532323804794" lon="18.489860404369917"><ele>1132.0</ele><time>2026-05-03T15:21:22Z</time></trkpt><trkpt lat="43.52342769475889" lon="18.48996497656159"><ele>1132.0</ele><time>2026-05-03T15:21:23Z</time></trkpt><trkpt lat="43.52332499236807" lon="18.490049249668196"><ele>1132.0</ele><time>2026-05-03T15:21:24Z</time></trkpt><trkpt lat="43.52324391530778" lon="18.490158755715488"><ele>1132.0</ele><time>2026-05-03T15:21:25Z</time></trkpt><trkpt lat="43.523178172534976" lon="18.490293833150698"><ele>1132.0</ele><time>2026-05-03T15:21:26Z</time></trkpt><trkpt lat="43.52312860874121" lon="18.490437939576154"><ele>1132.0</ele><time>2026-05-03T15:21:27Z</time></trkpt><trkpt lat="43.523119496966125" lon="18.49060174884378"><ele>1132.0</ele><time>2026-05-03T15:21:28Z</time></trkpt><trkpt lat="43.52313246821884" lon="18.490753578039303"><ele>1132.8</ele><time>2026-05-03T15:21:29Z</time></trkpt><trkpt lat="43.52316536860942" lon="18.49089024833952"><ele>1133.6</ele><time>2026-05-03T15:21:30Z</time></trkpt><trkpt lat="43.52320573516597" lon="18.491014297648324"><ele>1134.3999999999999</ele><time>2026-05-03T15:21:31Z</time></trkpt><trkpt lat="43.52323877455463" lon="18.491138515741703"><ele>1135.2</ele><time>2026-05-03T15:21:32Z</time></trkpt><trkpt lat="43.52326431850681" lon="18.491266150679625"><ele>1136.0</ele><time>2026-05-03T15:21:33Z</time></trkpt><trkpt lat="43.523277224032846" lon="18.491413489910492"><ele>1136.0</ele><time>2026-05-03T15:21:34Z</time></trkpt><trkpt lat="43.52326830195212" lon="18.49157365181168"><ele>1136.0</ele><time>2026-05-03T15:21:35Z</time></trkpt><trkpt lat="43.523227527845044" lon="18.49174031195464"><ele>1136.0</ele><time>2026-05-03T15:21:36Z</time></trkpt><trkpt lat="43.52316318691835" lon="18.491900180887193"><ele>1136.0</ele><time>2026-05-03T15:21:37Z</time></trkpt><trkpt lat="43.52308947044946" lon="18.49207161166347"><ele>1135.6666666666667</ele><time>2026-05-03T15:21:38Z</time></trkpt><trkpt lat="43.523016598052315" lon="18.49225539432075"><ele>1135.3333333333333</ele><time>2026-05-03T15:21:39Z</time></trkpt><trkpt lat="43.52294271185781" lon="18.492451657430642"><ele>1135.0</ele><time>2026-05-03T15:21:40Z</time></trkpt><trkpt lat="43.52287508778796" lon="18.49264106796422"><ele>1135.0</ele><time>2026-05-03T15:21:41Z</time></trkpt><trkpt lat="43.52281294667944" lon="18.492816813400534"><ele>1135.0</ele><time>2026-05-03T15:21:42Z</time></trkpt><trkpt lat="43.52275692899605" lon="18.49298386297214"><ele>1135.0</ele><time>2026-05-03T15:21:43Z</time></trkpt><trkpt lat="43.522700278179265" lon="18.493155979647618"><ele>1135.0</ele><time>2026-05-03T15:21:44Z</time></trkpt><trkpt lat="43.52264601307495" lon="18.493323000697725"><ele>1135.25</ele><time>2026-05-03T15:21:45Z</time></trkpt><trkpt lat="43.52259379289575" lon="18.493495627042083"><ele>1135.5</ele><time>2026-05-03T15:21:46Z</time></trkpt><trkpt lat="43.52254665044934" lon="18.493670410294992"><ele>1135.75</ele><time>2026-05-03T15:21:47Z</time></trkpt><trkpt lat="43.522503975681" lon="18.493852687467"><ele>1136.0</ele><time>2026-05-03T15:21:48Z</time></trkpt><trkpt lat="43.52246185642968" lon="18.494030072618866"><ele>1134.75</ele><time>2026-05-03T15:21:49Z</time></trkpt><trkpt lat="43.52242272774039" lon="18.4942025960462"><ele>1133.5</ele><time>2026-05-03T15:21:50Z</time></trkpt><trkpt lat="43.52237957417349" lon="18.494367803581248"><ele>1132.25</ele><time>2026-05-03T15:21:51Z</time></trkpt><trkpt lat="43.522346470665916" lon="18.494537801977202"><ele>1131.0</ele><time>2026-05-03T15:21:52Z</time></trkpt><trkpt lat="43.52234826573632" lon="18.494719681159864"><ele>1130.5</ele><time>2026-05-03T15:21:53Z</time></trkpt><trkpt lat="43.52238526538886" lon="18.494896910719092"><ele>1130.0</ele><time>2026-05-03T15:21:54Z</time></trkpt><trkpt lat="43.52247033715379" lon="18.49505977043648"><ele>1129.5</ele><time>2026-05-03T15:21:55Z</time></trkpt><trkpt lat="43.52257528915918" lon="18.495199166647044"><ele>1129.0</ele><time>2026-05-03T15:21:56Z</time></trkpt><trkpt lat="43.52269842784522" lon="18.495319979732987"><ele>1129.0</ele><time>2026-05-03T15:21:57Z</time></trkpt><trkpt lat="43.52282307216648" lon="18.49545168804503"><ele>1129.0</ele><time>2026-05-03T15:21:58Z</time></trkpt><trkpt lat="43.522950132681125" lon="18.495599729699766"><ele>1129.0</ele><time>2026-05-03T15:21:59Z</time></trkpt><trkpt lat="43.523085200096766" lon="18.495756221693753"><ele>1129.0</ele><time>2026-05-03T15:22:00Z</time></trkpt><trkpt lat="43.523218173557005" lon="18.49591682561482"><ele>1129.0</ele><time>2026-05-03T15:22:01Z</time></trkpt><trkpt lat="43.52335118499181" lon="18.49608928563223"><ele>1129.0</ele><time>2026-05-03T15:22:02Z</time></trkpt><trkpt lat="43.52348846613339" lon="18.496284241349134"><ele>1130.5</ele><time>2026-05-03T15:22:03Z</time></trkpt><trkpt lat="43.52363379522719" lon="18.496504292100038"><ele>1132.0</ele><time>2026-05-03T15:22:04Z</time></trkpt><trkpt lat="43.52378241394195" lon="18.49675498563887"><ele>1132.0</ele><time>2026-05-03T15:22:05Z</time></trkpt><trkpt lat="43.52393388452177" lon="18.497029155901807"><ele>1132.0</ele><time>2026-05-03T15:22:06Z</time></trkpt><trkpt lat="43.52409978952566" lon="18.49732955025904"><ele>1134.0</ele><time>2026-05-03T15:22:07Z</time></trkpt><trkpt lat="43.524262801769524" lon="18.49762713845631"><ele>1136.0</ele><time>2026-05-03T15:22:08Z</time></trkpt><trkpt lat="43.524417032718134" lon="18.497906723055227"><ele>1137.0</ele><time>2026-05-03T15:22:09Z</time></trkpt><trkpt lat="43.52456728466807" lon="18.49819159365895"><ele>1138.0</ele><time>2026-05-03T15:22:10Z</time></trkpt><trkpt lat="43.52469495383955" lon="18.498451931714452"><ele>1138.0</ele><time>2026-05-03T15:22:11Z</time></trkpt><trkpt lat="43.52481392024563" lon="18.498709754959005"><ele>1138.0</ele><time>2026-05-03T15:22:12Z</time></trkpt><trkpt lat="43.52489649418586" lon="18.498960373607833"><ele>1138.0</ele><time>2026-05-03T15:22:13Z</time></trkpt><trkpt lat="43.52493731049465" lon="18.499163606760114"><ele>1139.0</ele><time>2026-05-03T15:22:14Z</time></trkpt><trkpt lat="43.52500193651488" lon="18.49932287174657"><ele>1140.0</ele><time>2026-05-03T15:22:15Z</time></trkpt><trkpt lat="43.52511605485676" lon="18.499441564014877"><ele>1141.0</ele><time>2026-05-03T15:22:16Z</time></trkpt><trkpt lat="43.52526475570396" lon="18.499541968184996"><ele>1142.0</ele><time>2026-05-03T15:22:17Z</time></trkpt><trkpt lat="43.5254088095833" lon="18.49964120825044"><ele>1144.0</ele><time>2026-05-03T15:22:18Z</time></trkpt><trkpt lat="43.525533632077455" lon="18.4997600976039"><ele>1146.0</ele><time>2026-05-03T15:22:19Z</time></trkpt><trkpt lat="43.52565405428069" lon="18.49991053112616"><ele>1148.0</ele><time>2026-05-03T15:22:20Z</time></trkpt><trkpt lat="43.52575919576947" lon="18.500081310319676"><ele>1148.0</ele><time>2026-05-03T15:22:21Z</time></trkpt><trkpt lat="43.52587123015265" lon="18.500255594686774"><ele>1148.0</ele><time>2026-05-03T15:22:22Z</time></trkpt><trkpt lat="43.526004394220855" lon="18.500409199373504"><ele>1148.0</ele><time>2026-05-03T15:22:23Z</time></trkpt><trkpt lat="43.52615074820546" lon="18.500523421252193"><ele>1150.6666666666667</ele><time>2026-05-03T15:22:24Z</time></trkpt><trkpt lat="43.52631029075876" lon="18.5006045006415"><ele>1153.3333333333333</ele><time>2026-05-03T15:22:25Z</time></trkpt><trkpt lat="43.526463420801" lon="18.50065649417207"><ele>1156.0</ele><time>2026-05-03T15:22:26Z</time></trkpt><trkpt lat="43.52661517443556" lon="18.500688854764785"><ele>1156.0</ele><time>2026-05-03T15:22:27Z</time></trkpt><trkpt lat="43.52676373585765" lon="18.50072118959447"><ele>1156.0</ele><time>2026-05-03T15:22:28Z</time></trkpt><trkpt lat="43.52691340719291" lon="18.500755267605573"><ele>1156.0</ele><time>2026-05-03T15:22:29Z</time></trkpt><trkpt lat="43.52706239611419" lon="18.500798699658528"><ele>1157.6666666666665</ele><time>2026-05-03T15:22:30Z</time></trkpt><trkpt lat="43.52721413199724" lon="18.500845996313483"><ele>1159.3333333333333</ele><time>2026-05-03T15:22:31Z</time></trkpt><trkpt lat="43.527360583320515" lon="18.500887230079854"><ele>1161.0</ele><time>2026-05-03T15:22:32Z</time></trkpt><trkpt lat="43.5275043274493" lon="18.500912607837556"><ele>1161.0</ele><time>2026-05-03T15:22:33Z</time></trkpt><trkpt lat="43.52763654426165" lon="18.50089847364955"><ele>1161.0</ele><time>2026-05-03T15:22:34Z</time></trkpt><trkpt lat="43.52774995681126" lon="18.50082844142147"><ele>1161.0</ele><time>2026-05-03T15:22:35Z</time></trkpt><trkpt lat="43.52782316531392" lon="18.50072591524731"><ele>1161.0</ele><time>2026-05-03T15:22:36Z</time></trkpt><trkpt lat="43.527864796522096" lon="18.500586794940286"><ele>1162.5</ele><time>2026-05-03T15:22:37Z</time></trkpt><trkpt lat="43.527903884860734" lon="18.500435530891156"><ele>1164.0</ele><time>2026-05-03T15:22:38Z</time></trkpt><trkpt lat="43.52794411584928" lon="18.500284714505575"><ele>1165.5</ele><time>2026-05-03T15:22:39Z</time></trkpt><trkpt lat="43.527987131605514" lon="18.50011553545852"><ele>1167.0</ele><time>2026-05-03T15:22:40Z</time></trkpt><trkpt lat="43.52803457017739" lon="18.499951426204735"><ele>1167.0</ele><time>2026-05-03T15:22:41Z</time></trkpt><trkpt lat="43.52809225239714" lon="18.49981431299078"><ele>1167.0</ele><time>2026-05-03T15:22:42Z</time></trkpt><trkpt lat="43.52816314568168" lon="18.499695543130507"><ele>1167.0</ele><time>2026-05-03T15:22:43Z</time></trkpt><trkpt lat="43.52826300307085" lon="18.49961875204709"><ele>1167.0</ele><time>2026-05-03T15:22:44Z</time></trkpt><trkpt lat="43.528377748221146" lon="18.499603801271242"><ele>1167.0</ele><time>2026-05-03T15:22:45Z</time></trkpt><trkpt lat="43.52848542356504" lon="18.499659813042467"><ele>1167.0</ele><time>2026-05-03T15:22:46Z</time></trkpt><trkpt lat="43.528581084178825" lon="18.49976444537618"><ele>1167.0</ele><time>2026-05-03T15:22:47Z</time></trkpt><trkpt lat="43.528683748361516" lon="18.499868240312637"><ele>1167.0</ele><time>2026-05-03T15:22:48Z</time></trkpt><trkpt lat="43.528794631141025" lon="18.499964138546257"><ele>1170.0</ele><time>2026-05-03T15:22:49Z</time></trkpt><trkpt lat="43.52891635492892" lon="18.50006191900182"><ele>1173.0</ele><time>2026-05-03T15:22:50Z</time></trkpt><trkpt lat="43.52902776018206" lon="18.500160907167118"><ele>1176.0</ele><time>2026-05-03T15:22:51Z</time></trkpt><trkpt lat="43.52910812850354" lon="18.50027460701185"><ele>1179.0</ele><time>2026-05-03T15:22:52Z</time></trkpt><trkpt lat="43.52915012162116" lon="18.500425931685832"><ele>1179.0</ele><time>2026-05-03T15:22:53Z</time></trkpt><trkpt lat="43.5291485352182" lon="18.500598546417294"><ele>1179.0</ele><time>2026-05-03T15:22:54Z</time></trkpt><trkpt lat="43.52910309210442" lon="18.50077598916189"><ele>1179.0</ele><time>2026-05-03T15:22:55Z</time></trkpt><trkpt lat="43.52904396707834" lon="18.500933970637536"><ele>1179.0</ele><time>2026-05-03T15:22:56Z</time></trkpt><trkpt lat="43.528993961204016" lon="18.501095751010695"><ele>1178.25</ele><time>2026-05-03T15:22:57Z</time></trkpt><trkpt lat="43.528965028499954" lon="18.501262994372848"><ele>1177.5</ele><time>2026-05-03T15:22:58Z</time></trkpt><trkpt lat="43.52896799247301" lon="18.50143861847096"><ele>1176.75</ele><time>2026-05-03T15:22:59Z</time></trkpt><trkpt lat="43.52901434172785" lon="18.50161906670304"><ele>1176.0</ele><time>2026-05-03T15:23:00Z</time></trkpt><trkpt lat="43.52908522315493" lon="18.501778949494867"><ele>1176.0</ele><time>2026-05-03T15:23:01Z</time></trkpt><trkpt lat="43.52920073881313" lon="18.50190211248128"><ele>1176.0</ele><time>2026-05-03T15:23:02Z</time></trkpt><trkpt lat="43.52933890800103" lon="18.50198834171599"><ele>1176.0</ele><time>2026-05-03T15:23:03Z</time></trkpt><trkpt lat="43.529495715726256" lon="18.502054704107863"><ele>1178.3333333333333</ele><time>2026-05-03T15:23:04Z</time></trkpt><trkpt lat="43.52966496849042" lon="18.50210818029363"><ele>1180.6666666666665</ele><time>2026-05-03T15:23:05Z</time></trkpt><trkpt lat="43.529831104441186" lon="18.502182276475462"><ele>1183.0</ele><time>2026-05-03T15:23:06Z</time></trkpt><trkpt lat="43.52999016851992" lon="18.50227452023952"><ele>1183.0</ele><time>2026-05-03T15:23:07Z</time></trkpt><trkpt lat="43.5301464666831" lon="18.502363476198916"><ele>1183.0</ele><time>2026-05-03T15:23:08Z</time></trkpt><trkpt lat="43.530311732082424" lon="18.502433916179072"><ele>1183.0</ele><time>2026-05-03T15:23:09Z</time></trkpt><trkpt lat="43.530480202532154" lon="18.5024815622286"><ele>1186.0</ele><time>2026-05-03T15:23:10Z</time></trkpt><trkpt lat="43.53063946399268" lon="18.502513194269735"><ele>1189.0</ele><time>2026-05-03T15:23:11Z</time></trkpt><trkpt lat="43.530794260150266" lon="18.502529598829277"><ele>1192.0</ele><time>2026-05-03T15:23:12Z</time></trkpt><trkpt lat="43.53093339779973" lon="18.502502615856287"><ele>1192.0</ele><time>2026-05-03T15:23:13Z</time></trkpt><trkpt lat="43.53107615433472" lon="18.502402293224407"><ele>1192.0</ele><time>2026-05-03T15:23:14Z</time></trkpt><trkpt lat="43.531223424484395" lon="18.50226598093555"><ele>1192.0</ele><time>2026-05-03T15:23:15Z</time></trkpt><trkpt lat="43.53138183219811" lon="18.50213593013699"><ele>1195.6666666666665</ele><time>2026-05-03T15:23:16Z</time></trkpt><trkpt lat="43.531557248113614" lon="18.502034611469398"><ele>1199.3333333333333</ele><time>2026-05-03T15:23:17Z</time></trkpt><trkpt lat="43.531744673182466" lon="18.501963395703953"><ele>1203.0</ele><time>2026-05-03T15:23:18Z</time></trkpt><trkpt lat="43.5319364986169" lon="18.501893849166784"><ele>1203.3333333333333</ele><time>2026-05-03T15:23:19Z</time></trkpt><trkpt lat="43.532137968076434" lon="18.50181580365979"><ele>1203.6666666666665</ele><time>2026-05-03T15:23:20Z</time></trkpt><trkpt lat="43.532344935617594" lon="18.501729393025876"><ele>1204.0</ele><time>2026-05-03T15:23:21Z</time></trkpt><trkpt lat="43.53255558331157" lon="18.5016420308129"><ele>1204.0</ele><time>2026-05-03T15:23:22Z</time></trkpt><trkpt lat="43.53275919975216" lon="18.501555449626935"><ele>1204.0</ele><time>2026-05-03T15:23:23Z</time></trkpt><trkpt lat="43.53295507469523" lon="18.501469303654094"><ele>1204.0</ele><time>2026-05-03T15:23:24Z</time></trkpt><trkpt lat="43.533153117871514" lon="18.501387002567288"><ele>1203.6666666666665</ele><time>2026-05-03T15:23:25Z</time></trkpt><trkpt lat="43.533336302298956" lon="18.50131434672954"><ele>1203.3333333333333</ele><time>2026-05-03T15:23:26Z</time></trkpt><trkpt lat="43.53350138036556" lon="18.501249250014975"><ele>1203.0</ele><time>2026-05-03T15:23:27Z</time></trkpt><trkpt lat="43.53365120723589" lon="18.501203383115147"><ele>1204.5</ele><time>2026-05-03T15:23:28Z</time></trkpt><trkpt lat="43.533779075844016" lon="18.501202970366727"><ele>1206.0</ele><time>2026-05-03T15:23:29Z</time></trkpt><trkpt lat="43.53390374827435" lon="18.50125158434794"><ele>1207.5</ele><time>2026-05-03T15:23:30Z</time></trkpt><trkpt lat="43.53402051214726" lon="18.50136395560188"><ele>1209.0</ele><time>2026-05-03T15:23:31Z</time></trkpt><trkpt lat="43.534115721771855" lon="18.501522471155678"><ele>1209.0</ele><time>2026-05-03T15:23:32Z</time></trkpt><trkpt lat="43.53421792667518" lon="18.50168610271239"><ele>1209.0</ele><time>2026-05-03T15:23:33Z</time></trkpt><trkpt lat="43.53434605260467" lon="18.501832079234713"><ele>1209.0</ele><time>2026-05-03T15:23:34Z</time></trkpt><trkpt lat="43.534498696510106" lon="18.501940741498608"><ele>1209.0</ele><time>2026-05-03T15:23:35Z</time></trkpt><trkpt lat="43.53466988401462" lon="18.502032166082472"><ele>1209.0</ele><time>2026-05-03T15:23:36Z</time></trkpt><trkpt lat="43.53484479373963" lon="18.502118062641003"><ele>1209.0</ele><time>2026-05-03T15:23:37Z</time></trkpt><trkpt lat="43.53501550080574" lon="18.50221191891758"><ele>1209.0</ele><time>2026-05-03T15:23:38Z</time></trkpt><trkpt lat="43.53517440939781" lon="18.502307156771515"><ele>1209.0</ele><time>2026-05-03T15:23:39Z</time></trkpt><trkpt lat="43.53532490742413" lon="18.502393947575122"><ele>1209.0</ele><time>2026-05-03T15:23:40Z</time></trkpt><trkpt lat="43.53547095627725" lon="18.50245583790312"><ele>1208.25</ele><time>2026-05-03T15:23:41Z</time></trkpt><trkpt lat="43.53561234744052" lon="18.502470450744152"><ele>1207.5</ele><time>2026-05-03T15:23:42Z</time></trkpt><trkpt lat="43.535738534589214" lon="18.50241977753708"><ele>1206.75</ele><time>2026-05-03T15:23:43Z</time></trkpt><trkpt lat="43.53584798246538" lon="18.502305644379117"><ele>1206.0</ele><time>2026-05-03T15:23:44Z</time></trkpt><trkpt lat="43.535945271870645" lon="18.502165909729722"><ele>1206.75</ele><time>2026-05-03T15:23:45Z</time></trkpt><trkpt lat="43.536041108252014" lon="18.502050759694757"><ele>1207.5</ele><time>2026-05-03T15:23:46Z</time></trkpt><trkpt lat="43.5361436297449" lon="18.50195065036568"><ele>1208.25</ele><time>2026-05-03T15:23:47Z</time></trkpt><trkpt lat="43.53624622668027" lon="18.501864332873033"><ele>1209.0</ele><time>2026-05-03T15:23:48Z</time></trkpt><trkpt lat="43.53635189632928" lon="18.50179801561568"><ele>1209.0</ele><time>2026-05-03T15:23:49Z</time></trkpt><trkpt lat="43.53646755941002" lon="18.501773183566215"><ele>1209.0</ele><time>2026-05-03T15:23:50Z</time></trkpt><trkpt lat="43.53659392171891" lon="18.501769749582408"><ele>1209.0</ele><time>2026-05-03T15:23:51Z</time></trkpt><trkpt lat="43.536725071510354" lon="18.50176489889589"><ele>1209.0</ele><time>2026-05-03T15:23:52Z</time></trkpt><trkpt lat="43.536870528490915" lon="18.50175485360106"><ele>1209.0</ele><time>2026-05-03T15:23:53Z</time></trkpt><trkpt lat="43.537029701069024" lon="18.50174984000309"><ele>1209.0</ele><time>2026-05-03T15:23:54Z</time></trkpt><trkpt lat="43.53720134283443" lon="18.501741908735948"><ele>1209.0</ele><time>2026-05-03T15:23:55Z</time></trkpt><trkpt lat="43.53738225688662" lon="18.50173689666122"><ele>1208.3333333333333</ele><time>2026-05-03T15:23:56Z</time></trkpt><trkpt lat="43.53756146732368" lon="18.501721685522664"><ele>1207.6666666666665</ele><time>2026-05-03T15:23:57Z</time></trkpt><trkpt lat="43.537750133865046" lon="18.501707682384236"><ele>1207.0</ele><time>2026-05-03T15:23:58Z</time></trkpt><trkpt lat="43.537913166836404" lon="18.50167823503824"><ele>1206.6666666666665</ele><time>2026-05-03T15:23:59Z</time></trkpt><trkpt lat="43.53806654505566" lon="18.501623154467055"><ele>1206.3333333333333</ele><time>2026-05-03T15:24:00Z</time></trkpt><trkpt lat="43.53822539603091" lon="18.501544170381777"><ele>1206.0</ele><time>2026-05-03T15:24:01Z</time></trkpt><trkpt lat="43.53838171464651" lon="18.501450354258658"><ele>1206.0</ele><time>2026-05-03T15:24:02Z</time></trkpt><trkpt lat="43.53854486711194" lon="18.50136327700192"><ele>1206.0</ele><time>2026-05-03T15:24:03Z</time></trkpt><trkpt lat="43.53871343858759" lon="18.501281123322144"><ele>1206.0</ele><time>2026-05-03T15:24:04Z</time></trkpt><trkpt lat="43.5388828575414" lon="18.501198430013552"><ele>1206.0</ele><time>2026-05-03T15:24:05Z</time></trkpt><trkpt lat="43.53904522173967" lon="18.501115414380614"><ele>1206.0</ele><time>2026-05-03T15:24:06Z</time></trkpt><trkpt lat="43.539208827112134" lon="18.50103983404514"><ele>1206.0</ele><time>2026-05-03T15:24:07Z</time></trkpt><trkpt lat="43.539365050535885" lon="18.5009994218153"><ele>1206.0</ele><time>2026-05-03T15:24:08Z</time></trkpt><trkpt lat="43.53951376376003" lon="18.501003671079033"><ele>1206.0</ele><time>2026-05-03T15:24:09Z</time></trkpt><trkpt lat="43.53965417201243" lon="18.501054207390407"><ele>1206.0</ele><time>2026-05-03T15:24:10Z</time></trkpt><trkpt lat="43.53977988505061" lon="18.50115647441071"><ele>1206.0</ele><time>2026-05-03T15:24:11Z</time></trkpt><trkpt lat="43.53989626689024" lon="18.501299536854802"><ele>1205.75</ele><time>2026-05-03T15:24:12Z</time></trkpt><trkpt lat="43.540012569640666" lon="18.50145652246637"><ele>1205.5</ele><time>2026-05-03T15:24:13Z</time></trkpt><trkpt lat="43.540126848565414" lon="18.5015844777893"><ele>1205.25</ele><time>2026-05-03T15:24:14Z</time></trkpt><trkpt lat="43.54024826004435" lon="18.501667765721397"><ele>1205.0</ele><time>2026-05-03T15:24:15Z</time></trkpt><trkpt lat="43.54037678092801" lon="18.501705993029738"><ele>1205.5</ele><time>2026-05-03T15:24:16Z</time></trkpt><trkpt lat="43.54050232260796" lon="18.50170169876077"><ele>1206.0</ele><time>2026-05-03T15:24:17Z</time></trkpt><trkpt lat="43.54061539963155" lon="18.50160957751341"><ele>1206.5</ele><time>2026-05-03T15:24:18Z</time></trkpt><trkpt lat="43.540715174294434" lon="18.501481794666844"><ele>1207.0</ele><time>2026-05-03T15:24:19Z</time></trkpt><trkpt lat="43.54077883586088" lon="18.501300327166714"><ele>1206.0</ele><time>2026-05-03T15:24:20Z</time></trkpt><trkpt lat="43.54081734573468" lon="18.501120875614706"><ele>1205.0</ele><time>2026-05-03T15:24:21Z</time></trkpt><trkpt lat="43.540840301877566" lon="18.500946188950856"><ele>1204.0</ele><time>2026-05-03T15:24:22Z</time></trkpt><trkpt lat="43.540887881441144" lon="18.50081662275942"><ele>1203.0</ele><time>2026-05-03T15:24:23Z</time></trkpt><trkpt lat="43.54097640192142" lon="18.50070998855285"><ele>1203.0</ele><time>2026-05-03T15:24:24Z</time></trkpt><trkpt lat="43.54109317013423" lon="18.50063161368704"><ele>1203.0</ele><time>2026-05-03T15:24:25Z</time></trkpt><trkpt lat="43.54122729273371" lon="18.500618140672017"><ele>1203.0</ele><time>2026-05-03T15:24:26Z</time></trkpt><trkpt lat="43.54135443693655" lon="18.500667837416334"><ele>1203.0</ele><time>2026-05-03T15:24:27Z</time></trkpt><trkpt lat="43.54146190026095" lon="18.500786927691482"><ele>1203.25</ele><time>2026-05-03T15:24:28Z</time></trkpt><trkpt lat="43.54152955174195" lon="18.500940016466906"><ele>1203.5</ele><time>2026-05-03T15:24:29Z</time></trkpt><trkpt lat="43.54156730243797" lon="18.5011185391836"><ele>1203.75</ele><time>2026-05-03T15:24:30Z</time></trkpt><trkpt lat="43.54158948616556" lon="18.50131568173333"><ele>1204.0</ele><time>2026-05-03T15:24:31Z</time></trkpt><trkpt lat="43.541602814200424" lon="18.50151597950093"><ele>1204.0</ele><time>2026-05-03T15:24:32Z</time></trkpt><trkpt lat="43.54162645744094" lon="18.501708646590103"><ele>1204.0</ele><time>2026-05-03T15:24:33Z</time></trkpt><trkpt lat="43.5416869610299" lon="18.501882157907353"><ele>1204.0</ele><time>2026-05-03T15:24:34Z</time></trkpt><trkpt lat="43.5417936817518" lon="18.50199349294464"><ele>1204.0</ele><time>2026-05-03T15:24:35Z</time></trkpt><trkpt lat="43.541927443819084" lon="18.502037534421216"><ele>1204.0</ele><time>2026-05-03T15:24:36Z</time></trkpt><trkpt lat="43.542072780508285" lon="18.502007824610292"><ele>1204.0</ele><time>2026-05-03T15:24:37Z</time></trkpt><trkpt lat="43.54221847288091" lon="18.501897300125005"><ele>1204.0</ele><time>2026-05-03T15:24:38Z</time></trkpt><trkpt lat="43.542371533052986" lon="18.501726327393104"><ele>1204.0</ele><time>2026-05-03T15:24:39Z</time></trkpt><trkpt lat="43.54253836218184" lon="18.501535700984718"><ele>1204.0</ele><time>2026-05-03T15:24:40Z</time></trkpt><trkpt lat="43.54271421641526" lon="18.50139297048573"><ele>1204.0</ele><time>2026-05-03T15:24:41Z</time></trkpt><trkpt lat="43.542906322197595" lon="18.50130099929652"><ele>1205.3333333333333</ele><time>2026-05-03T15:24:42Z</time></trkpt><trkpt lat="43.54310094929345" lon="18.50123998756779"><ele>1206.6666666666667</ele><time>2026-05-03T15:24:43Z</time></trkpt><trkpt lat="43.54327324264101" lon="18.501185534997624"><ele>1208.0</ele><time>2026-05-03T15:24:44Z</time></trkpt><trkpt lat="43.543422503011996" lon="18.501097969462318"><ele>1208.0</ele><time>2026-05-03T15:24:45Z</time></trkpt><trkpt lat="43.54353286246816" lon="18.500951176070302"><ele>1208.0</ele><time>2026-05-03T15:24:46Z</time></trkpt><trkpt lat="43.543612614887046" lon="18.500748003020416"><ele>1208.0</ele><time>2026-05-03T15:24:47Z</time></trkpt><trkpt lat="43.543644318425265" lon="18.500513848961194"><ele>1208.0</ele><time>2026-05-03T15:24:48Z</time></trkpt><trkpt lat="43.54366538476064" lon="18.50026168371994"><ele>1208.0</ele><time>2026-05-03T15:24:49Z</time></trkpt><trkpt lat="43.543700905300106" lon="18.500011436530798"><ele>1208.0</ele><time>2026-05-03T15:24:50Z</time></trkpt><trkpt lat="43.54375187985622" lon="18.499761598080024"><ele>1207.3333333333335</ele><time>2026-05-03T15:24:51Z</time></trkpt><trkpt lat="43.54380319327017" lon="18.499517253836366"><ele>1206.6666666666667</ele><time>2026-05-03T15:24:52Z</time></trkpt><trkpt lat="43.543853639904064" lon="18.49927053275897"><ele>1206.0</ele><time>2026-05-03T15:24:53Z</time></trkpt><trkpt lat="43.54391153720399" lon="18.49902880758974"><ele>1206.0</ele><time>2026-05-03T15:24:54Z</time></trkpt><trkpt lat="43.54398969568405" lon="18.49880446585253"><ele>1206.0</ele><time>2026-05-03T15:24:55Z</time></trkpt><trkpt lat="43.54409403202993" lon="18.498596676611818"><ele>1206.0</ele><time>2026-05-03T15:24:56Z</time></trkpt><trkpt lat="43.54422682452504" lon="18.498418419604"><ele>1206.3333333333333</ele><time>2026-05-03T15:24:57Z</time></trkpt><trkpt lat="43.544381588665495" lon="18.498264488539228"><ele>1206.6666666666665</ele><time>2026-05-03T15:24:58Z</time></trkpt><trkpt lat="43.54454232282663" lon="18.49812181960634"><ele>1207.0</ele><time>2026-05-03T15:24:59Z</time></trkpt><trkpt lat="43.54470504768355" lon="18.4979707167334"><ele>1207.6666666666665</ele><time>2026-05-03T15:25:00Z</time></trkpt><trkpt lat="43.54486107693234" lon="18.497808082838304"><ele>1208.3333333333333</ele><time>2026-05-03T15:25:01Z</time></trkpt><trkpt lat="43.5450144333992" lon="18.49764569927168"><ele>1209.0</ele><time>2026-05-03T15:25:02Z</time></trkpt><trkpt lat="43.545162595703935" lon="18.497488000677738"><ele>1209.0</ele><time>2026-05-03T15:25:03Z</time></trkpt><trkpt lat="43.545315725091605" lon="18.49733132582953"><ele>1209.0</ele><time>2026-05-03T15:25:04Z</time></trkpt><trkpt lat="43.54546154222855" lon="18.497190861951733"><ele>1209.0</ele><time>2026-05-03T15:25:05Z</time></trkpt><trkpt lat="43.5456062477402" lon="18.497069830415352"><ele>1210.0</ele><time>2026-05-03T15:25:06Z</time></trkpt><trkpt lat="43.54577608394719" lon="18.49697029536895"><ele>1211.0</ele><time>2026-05-03T15:25:07Z</time></trkpt><trkpt lat="43.54595460588386" lon="18.496929247171693"><ele>1212.0</ele><time>2026-05-03T15:25:08Z</time></trkpt><trkpt lat="43.546137086994676" lon="18.49693048784336"><ele>1212.6666666666667</ele><time>2026-05-03T15:25:09Z</time></trkpt><trkpt lat="43.54633347107284" lon="18.496962270722843"><ele>1213.3333333333335</ele><time>2026-05-03T15:25:10Z</time></trkpt><trkpt lat="43.546539401067385" lon="18.496978350112546"><ele>1214.0</ele><time>2026-05-03T15:25:11Z</time></trkpt><trkpt lat="43.5467428634526" lon="18.496968312134964"><ele>1214.0</ele><time>2026-05-03T15:25:12Z</time></trkpt><trkpt lat="43.54695418111905" lon="18.496928640765613"><ele>1214.0</ele><time>2026-05-03T15:25:13Z</time></trkpt><trkpt lat="43.54717571043714" lon="18.496849667640085"><ele>1214.0</ele><time>2026-05-03T15:25:14Z</time></trkpt><trkpt lat="43.547404631529496" lon="18.496735526030413"><ele>1211.5</ele><time>2026-05-03T15:25:15Z</time></trkpt><trkpt lat="43.54763267527047" lon="18.49662480793102"><ele>1209.0</ele><time>2026-05-03T15:25:16Z</time></trkpt><trkpt lat="43.547856313806044" lon="18.496513226455722"><ele>1206.5</ele><time>2026-05-03T15:25:17Z</time></trkpt><trkpt lat="43.54807455402483" lon="18.496388292744147"><ele>1204.0</ele><time>2026-05-03T15:25:18Z</time></trkpt><trkpt lat="43.54828288456187" lon="18.496260322981524"><ele>1203.6666666666665</ele><time>2026-05-03T15:25:19Z</time></trkpt><trkpt lat="43.54847690161028" lon="18.496135311402927"><ele>1203.3333333333333</ele><time>2026-05-03T15:25:20Z</time></trkpt><trkpt lat="43.54865586977961" lon="18.49602546662638"><ele>1203.0</ele><time>2026-05-03T15:25:21Z</time></trkpt><trkpt lat="43.54882721312879" lon="18.495941766816006"><ele>1203.0</ele><time>2026-05-03T15:25:22Z</time></trkpt><trkpt lat="43.54899422420866" lon="18.495905227870814"><ele>1203.0</ele><time>2026-05-03T15:25:23Z</time></trkpt><trkpt lat="43.549167336418535" lon="18.49594040173133"><ele>1203.0</ele><time>2026-05-03T15:25:24Z</time></trkpt><trkpt lat="43.549312870164094" lon="18.496020620630745"><ele>1203.0</ele><time>2026-05-03T15:25:25Z</time></trkpt><trkpt lat="43.549463799667926" lon="18.496105592501856"><ele>1203.0</ele><time>2026-05-03T15:25:26Z</time></trkpt><trkpt lat="43.54961717708215" lon="18.496145570219998"><ele>1203.0</ele><time>2026-05-03T15:25:27Z</time></trkpt><trkpt lat="43.549769867087704" lon="18.496128184089354"><ele>1202.6666666666667</ele><time>2026-05-03T15:25:28Z</time></trkpt><trkpt lat="43.549924074561716" lon="18.49605524218988"><ele>1202.3333333333335</ele><time>2026-05-03T15:25:29Z</time></trkpt><trkpt lat="43.55007902623134" lon="18.495944169365274"><ele>1202.0</ele><time>2026-05-03T15:25:30Z</time></trkpt><trkpt lat="43.55022701306138" lon="18.495817878058173"><ele>1200.0</ele><time>2026-05-03T15:25:31Z</time></trkpt><trkpt lat="43.55038487870461" lon="18.495720695044167"><ele>1198.0</ele><time>2026-05-03T15:25:32Z</time></trkpt><trkpt lat="43.550546702773" lon="18.49566504266434"><ele>1196.0</ele><time>2026-05-03T15:25:33Z</time></trkpt><trkpt lat="43.55070318017764" lon="18.4956288718666"><ele>1196.0</ele><time>2026-05-03T15:25:34Z</time></trkpt><trkpt lat="43.550837265551884" lon="18.495566490789088"><ele>1196.0</ele><time>2026-05-03T15:25:35Z</time></trkpt><trkpt lat="43.550928060627065" lon="18.49544486089027"><ele>1196.0</ele><time>2026-05-03T15:25:36Z</time></trkpt><trkpt lat="43.551004115073425" lon="18.4952986038748"><ele>1196.0</ele><time>2026-05-03T15:25:37Z</time></trkpt><trkpt lat="43.551090451919826" lon="18.495178968066348"><ele>1196.5</ele><time>2026-05-03T15:25:38Z</time></trkpt><trkpt lat="43.5511963052293" lon="18.495116903346585"><ele>1197.0</ele><time>2026-05-03T15:25:39Z</time></trkpt><trkpt lat="43.55131919844548" lon="18.49511669639454"><ele>1197.5</ele><time>2026-05-03T15:25:40Z</time></trkpt><trkpt lat="43.55143350782863" lon="18.49518174220384"><ele>1198.0</ele><time>2026-05-03T15:25:41Z</time></trkpt><trkpt lat="43.55153755308598" lon="18.495291707885535"><ele>1198.5</ele><time>2026-05-03T15:25:42Z</time></trkpt><trkpt lat="43.55164658460594" lon="18.495414282639228"><ele>1199.0</ele><time>2026-05-03T15:25:43Z</time></trkpt><trkpt lat="43.551760870438116" lon="18.495547784033445"><ele>1199.5</ele><time>2026-05-03T15:25:44Z</time></trkpt><trkpt lat="43.551874340097065" lon="18.49566914188196"><ele>1200.0</ele><time>2026-05-03T15:25:45Z</time></trkpt><trkpt lat="43.55199920457507" lon="18.495783323799387"><ele>1200.0</ele><time>2026-05-03T15:25:46Z</time></trkpt><trkpt lat="43.55212715319385" lon="18.495887095893032"><ele>1200.0</ele><time>2026-05-03T15:25:47Z</time></trkpt><trkpt lat="43.55226837962573" lon="18.495965934333526"><ele>1200.0</ele><time>2026-05-03T15:25:48Z</time></trkpt><trkpt lat="43.55241543667013" lon="18.496010163071627"><ele>1200.0</ele><time>2026-05-03T15:25:49Z</time></trkpt><trkpt lat="43.55257347475682" lon="18.495992441272833"><ele>1200.0</ele><time>2026-05-03T15:25:50Z</time></trkpt><trkpt lat="43.552726921766585" lon="18.49591774866631"><ele>1200.0</ele><time>2026-05-03T15:25:51Z</time></trkpt><trkpt lat="43.55286353843831" lon="18.49578706750285"><ele>1200.0</ele><time>2026-05-03T15:25:52Z</time></trkpt><trkpt lat="43.55297653477569" lon="18.495600773586347"><ele>1200.0</ele><time>2026-05-03T15:25:53Z</time></trkpt><trkpt lat="43.55305638703028" lon="18.495385302891126"><ele>1200.0</ele><time>2026-05-03T15:25:54Z</time></trkpt><trkpt lat="43.55312180084941" lon="18.495184696097237"><ele>1200.0</ele><time>2026-05-03T15:25:55Z</time></trkpt><trkpt lat="43.55319972527359" lon="18.4950319482592"><ele>1200.0</ele><time>2026-05-03T15:25:56Z</time></trkpt><trkpt lat="43.553305035049" lon="18.49491768378308"><ele>1200.0</ele><time>2026-05-03T15:25:57Z</time></trkpt><trkpt lat="43.55344094834725" lon="18.494855379470703"><ele>1200.0</ele><time>2026-05-03T15:25:58Z</time></trkpt><trkpt lat="43.55359131343601" lon="18.494852985324123"><ele>1200.0</ele><time>2026-05-03T15:25:59Z</time></trkpt><trkpt lat="43.55374841690449" lon="18.494851480943588"><ele>1200.0</ele><time>2026-05-03T15:26:00Z</time></trkpt><trkpt lat="43.553907685063294" lon="18.494809047558032"><ele>1200.0</ele><time>2026-05-03T15:26:01Z</time></trkpt><trkpt lat="43.554063861605435" lon="18.494728345220764"><ele>1200.0</ele><time>2026-05-03T15:26:02Z</time></trkpt><trkpt lat="43.55421482542943" lon="18.49460196795777"><ele>1200.0</ele><time>2026-05-03T15:26:03Z</time></trkpt><trkpt lat="43.55436118110445" lon="18.494474840765623"><ele>1200.0</ele><time>2026-05-03T15:26:04Z</time></trkpt><trkpt lat="43.554520719958425" lon="18.494367037180606"><ele>1201.3333333333333</ele><time>2026-05-03T15:26:05Z</time></trkpt><trkpt lat="43.55468453042324" lon="18.494298149523534"><ele>1202.6666666666665</ele><time>2026-05-03T15:26:06Z</time></trkpt><trkpt lat="43.55485771646338" lon="18.4942798178152"><ele>1204.0</ele><time>2026-05-03T15:26:07Z</time></trkpt><trkpt lat="43.55503380005476" lon="18.494286295754844"><ele>1204.0</ele><time>2026-05-03T15:26:08Z</time></trkpt><trkpt lat="43.555197443840726" lon="18.494300240082847"><ele>1204.0</ele><time>2026-05-03T15:26:09Z</time></trkpt><trkpt lat="43.55535808213118" lon="18.494312328172143"><ele>1204.0</ele><time>2026-05-03T15:26:10Z</time></trkpt><trkpt lat="43.555515731040806" lon="18.494331277735313"><ele>1203.6666666666665</ele><time>2026-05-03T15:26:11Z</time></trkpt><trkpt lat="43.55566519381831" lon="18.494373659156704"><ele>1203.3333333333333</ele><time>2026-05-03T15:26:12Z</time></trkpt><trkpt lat="43.555809867611174" lon="18.494444398866825"><ele>1203.0</ele><time>2026-05-03T15:26:13Z</time></trkpt><trkpt lat="43.55593929874588" lon="18.49456183697898"><ele>1202.3333333333333</ele><time>2026-05-03T15:26:14Z</time></trkpt><trkpt lat="43.55606996013561" lon="18.494712139181008"><ele>1201.6666666666665</ele><time>2026-05-03T15:26:15Z</time></trkpt><trkpt lat="43.55619873900799" lon="18.49488661304345"><ele>1201.0</ele><time>2026-05-03T15:26:16Z</time></trkpt><trkpt lat="43.556331117893485" lon="18.495061722843545"><ele>1200.3333333333333</ele><time>2026-05-03T15:26:17Z</time></trkpt><trkpt lat="43.55646336091557" lon="18.49523403293122"><ele>1199.6666666666667</ele><time>2026-05-03T15:26:18Z</time></trkpt><trkpt lat="43.55658784030107" lon="18.4953914273899"><ele>1199.0</ele><time>2026-05-03T15:26:19Z</time></trkpt><trkpt lat="43.556719379006935" lon="18.4955204958388"><ele>1198.6666666666667</ele><time>2026-05-03T15:26:20Z</time></trkpt><trkpt lat="43.55687917597238" lon="18.495597094468405"><ele>1198.3333333333333</ele><time>2026-05-03T15:26:21Z</time></trkpt><trkpt lat="43.557056572609326" lon="18.495601172632668"><ele>1198.0</ele><time>2026-05-03T15:26:22Z</time></trkpt><trkpt lat="43.55725242045415" lon="18.495555011587797"><ele>1198.0</ele><time>2026-05-03T15:26:23Z</time></trkpt><trkpt lat="43.55745275049947" lon="18.495507312644037"><ele>1198.0</ele><time>2026-05-03T15:26:24Z</time></trkpt><trkpt lat="43.557658287626275" lon="18.495472678189877"><ele>1198.0</ele><time>2026-05-03T15:26:25Z</time></trkpt><trkpt lat="43.557852541011705" lon="18.495444287959856"><ele>1196.6666666666665</ele><time>2026-05-03T15:26:26Z</time></trkpt><trkpt lat="43.55803737234196" lon="18.495420711876257"><ele>1195.3333333333333</ele><time>2026-05-03T15:26:27Z</time></trkpt><trkpt lat="43.55820721535227" lon="18.49538087144524"><ele>1194.0</ele><time>2026-05-03T15:26:28Z</time></trkpt><trkpt lat="43.55836602810823" lon="18.49530352122422"><ele>1194.0</ele><time>2026-05-03T15:26:29Z</time></trkpt><trkpt lat="43.558520094302565" lon="18.49517827250256"><ele>1194.0</ele><time>2026-05-03T15:26:30Z</time></trkpt><trkpt lat="43.55867128965382" lon="18.495014027397495"><ele>1194.0</ele><time>2026-05-03T15:26:31Z</time></trkpt><trkpt lat="43.55881572111329" lon="18.494849924459345"><ele>1192.3333333333333</ele><time>2026-05-03T15:26:32Z</time></trkpt><trkpt lat="43.55896397390727" lon="18.494699242814843"><ele>1190.6666666666665</ele><time>2026-05-03T15:26:33Z</time></trkpt><trkpt lat="43.559099954959656" lon="18.4945648732476"><ele>1189.0</ele><time>2026-05-03T15:26:34Z</time></trkpt><trkpt lat="43.559241768003844" lon="18.494472822891776"><ele>1189.0</ele><time>2026-05-03T15:26:35Z</time></trkpt><trkpt lat="43.559408784869824" lon="18.494451731245878"><ele>1189.0</ele><time>2026-05-03T15:26:36Z</time></trkpt><trkpt lat="43.55958047560884" lon="18.49449393960361"><ele>1189.0</ele><time>2026-05-03T15:26:37Z</time></trkpt><trkpt lat="43.55976069552643" lon="18.494547743798165"><ele>1188.0</ele><time>2026-05-03T15:26:38Z</time></trkpt><trkpt lat="43.55994736153344" lon="18.494591505509735"><ele>1187.0</ele><time>2026-05-03T15:26:39Z</time></trkpt><trkpt lat="43.56012652722172" lon="18.494626892848395"><ele>1186.0</ele><time>2026-05-03T15:26:40Z</time></trkpt><trkpt lat="43.560311099290224" lon="18.494661100417176"><ele>1185.3333333333333</ele><time>2026-05-03T15:26:41Z</time></trkpt><trkpt lat="43.56051286197292" lon="18.494693183746207"><ele>1184.6666666666667</ele><time>2026-05-03T15:26:42Z</time></trkpt><trkpt lat="43.560712076453235" lon="18.494732841053736"><ele>1184.0</ele><time>2026-05-03T15:26:43Z</time></trkpt><trkpt lat="43.56092231111074" lon="18.49478629049561"><ele>1184.0</ele><time>2026-05-03T15:26:44Z</time></trkpt><trkpt lat="43.5611320467815" lon="18.494848600496333"><ele>1184.0</ele><time>2026-05-03T15:26:45Z</time></trkpt><trkpt lat="43.56133807328386" lon="18.494925549714054"><ele>1184.0</ele><time>2026-05-03T15:26:46Z</time></trkpt><trkpt lat="43.5615410309577" lon="18.4950013656592"><ele>1184.3333333333335</ele><time>2026-05-03T15:26:47Z</time></trkpt><trkpt lat="43.56174033075106" lon="18.49507675277035"><ele>1184.6666666666667</ele><time>2026-05-03T15:26:48Z</time></trkpt><trkpt lat="43.561943341551" lon="18.49515544882801"><ele>1185.0</ele><time>2026-05-03T15:26:49Z</time></trkpt><trkpt lat="43.56215129822048" lon="18.495241039872425"><ele>1185.0</ele><time>2026-05-03T15:26:50Z</time></trkpt><trkpt lat="43.56235765790247" lon="18.495332548288516"><ele>1185.0</ele><time>2026-05-03T15:26:51Z</time></trkpt><trkpt lat="43.5625597489384" lon="18.495430910917904"><ele>1185.0</ele><time>2026-05-03T15:26:52Z</time></trkpt><trkpt lat="43.56276155188249" lon="18.495533396201996"><ele>1182.0</ele><time>2026-05-03T15:26:53Z</time></trkpt><trkpt lat="43.56296550478065" lon="18.495637739809787"><ele>1179.0</ele><time>2026-05-03T15:26:54Z</time></trkpt><trkpt lat="43.56316099471012" lon="18.495741696349157"><ele>1176.0</ele><time>2026-05-03T15:26:55Z</time></trkpt><trkpt lat="43.56335430772702" lon="18.495850921872165"><ele>1176.0</ele><time>2026-05-03T15:26:56Z</time></trkpt><trkpt lat="43.56354403953226" lon="18.495977866859363"><ele>1176.0</ele><time>2026-05-03T15:26:57Z</time></trkpt><trkpt lat="43.56371277132476" lon="18.49612342342646"><ele>1176.0</ele><time>2026-05-03T15:26:58Z</time></trkpt><trkpt lat="43.563880585879375" lon="18.49629216372402"><ele>1176.0</ele><time>2026-05-03T15:26:59Z</time></trkpt><trkpt lat="43.56404638168145" lon="18.49648313063137"><ele>1176.0</ele><time>2026-05-03T15:27:00Z</time></trkpt><trkpt lat="43.56421144394353" lon="18.496666437258664"><ele>1176.0</ele><time>2026-05-03T15:27:01Z</time></trkpt><trkpt lat="43.564370130827385" lon="18.496845535387"><ele>1176.0</ele><time>2026-05-03T15:27:02Z</time></trkpt><trkpt lat="43.56452731345172" lon="18.497017366730987"><ele>1176.0</ele><time>2026-05-03T15:27:03Z</time></trkpt><trkpt lat="43.56468514073587" lon="18.497196561123218"><ele>1176.0</ele><time>2026-05-03T15:27:04Z</time></trkpt><trkpt lat="43.56484375901834" lon="18.497384458250405"><ele>1175.6666666666667</ele><time>2026-05-03T15:27:05Z</time></trkpt><trkpt lat="43.56500434497704" lon="18.497563563962547"><ele>1175.3333333333335</ele><time>2026-05-03T15:27:06Z</time></trkpt><trkpt lat="43.56517167473325" lon="18.497722341156134"><ele>1175.0</ele><time>2026-05-03T15:27:07Z</time></trkpt><trkpt lat="43.565364265843584" lon="18.49784079080162"><ele>1175.0</ele><time>2026-05-03T15:27:08Z</time></trkpt><trkpt lat="43.56556431686114" lon="18.497903449205943"><ele>1175.0</ele><time>2026-05-03T15:27:09Z</time></trkpt><trkpt lat="43.56577404740013" lon="18.497947763086206"><ele>1175.0</ele><time>2026-05-03T15:27:10Z</time></trkpt><trkpt lat="43.56598399985767" lon="18.49800967900411"><ele>1175.0</ele><time>2026-05-03T15:27:11Z</time></trkpt><trkpt lat="43.56617795202726" lon="18.498080112668838"><ele>1175.0</ele><time>2026-05-03T15:27:12Z</time></trkpt><trkpt lat="43.566380464765025" lon="18.498158026192034"><ele>1175.0</ele><time>2026-05-03T15:27:13Z</time></trkpt><trkpt lat="43.56657939417853" lon="18.498257685438652"><ele>1175.0</ele><time>2026-05-03T15:27:14Z</time></trkpt><trkpt lat="43.566762937461526" lon="18.49839531405089"><ele>1175.0</ele><time>2026-05-03T15:27:15Z</time></trkpt><trkpt lat="43.56693275968593" lon="18.498560438785027"><ele>1175.0</ele><time>2026-05-03T15:27:16Z</time></trkpt><trkpt lat="43.56709892671818" lon="18.49872820133162"><ele>1176.3333333333335</ele><time>2026-05-03T15:27:17Z</time></trkpt><trkpt lat="43.567268858014344" lon="18.498902784941947"><ele>1177.6666666666667</ele><time>2026-05-03T15:27:18Z</time></trkpt><trkpt lat="43.56743547929698" lon="18.49908482123855"><ele>1179.0</ele><time>2026-05-03T15:27:19Z</time></trkpt><trkpt lat="43.56757605981611" lon="18.49928564644037"><ele>1179.0</ele><time>2026-05-03T15:27:20Z</time></trkpt><trkpt lat="43.56768297074121" lon="18.499522102197055"><ele>1179.0</ele><time>2026-05-03T15:27:21Z</time></trkpt><trkpt lat="43.56774855298043" lon="18.499785700012946"><ele>1179.0</ele><time>2026-05-03T15:27:22Z</time></trkpt><trkpt lat="43.56779531305166" lon="18.500071710725983"><ele>1178.3333333333333</ele><time>2026-05-03T15:27:23Z</time></trkpt><trkpt lat="43.5678298309437" lon="18.500362673737843"><ele>1177.6666666666665</ele><time>2026-05-03T15:27:24Z</time></trkpt><trkpt lat="43.56786968341285" lon="18.500640560124076"><ele>1177.0</ele><time>2026-05-03T15:27:25Z</time></trkpt><trkpt lat="43.56789383377409" lon="18.50087919943069"><ele>1178.0</ele><time>2026-05-03T15:27:26Z</time></trkpt><trkpt lat="43.567882731032164" lon="18.50111128354082"><ele>1179.0</ele><time>2026-05-03T15:27:27Z</time></trkpt><trkpt lat="43.56783442559504" lon="18.50134084570612"><ele>1180.0</ele><time>2026-05-03T15:27:28Z</time></trkpt><trkpt lat="43.5677576210642" lon="18.501578401121954"><ele>1180.0</ele><time>2026-05-03T15:27:29Z</time></trkpt><trkpt lat="43.567678873706456" lon="18.501821843913227"><ele>1180.0</ele><time>2026-05-03T15:27:30Z</time></trkpt><trkpt lat="43.567592093102945" lon="18.502067573023577"><ele>1180.0</ele><time>2026-05-03T15:27:31Z</time></trkpt><trkpt lat="43.56748378626613" lon="18.50229355716165"><ele>1182.3333333333333</ele><time>2026-05-03T15:27:32Z</time></trkpt><trkpt lat="43.567354274401616" lon="18.502500139261187"><ele>1184.6666666666667</ele><time>2026-05-03T15:27:33Z</time></trkpt><trkpt lat="43.56723249738" lon="18.502704734735705"><ele>1187.0</ele><time>2026-05-03T15:27:34Z</time></trkpt><trkpt lat="43.56711835846645" lon="18.50290962854179"><ele>1184.0</ele><time>2026-05-03T15:27:35Z</time></trkpt><trkpt lat="43.5670189276702" lon="18.503118295908184"><ele>1181.0</ele><time>2026-05-03T15:27:36Z</time></trkpt><trkpt lat="43.566962486681284" lon="18.50334258499577"><ele>1178.0</ele><time>2026-05-03T15:27:37Z</time></trkpt><trkpt lat="43.566954768476144" lon="18.50359334300158"><ele>1179.0</ele><time>2026-05-03T15:27:38Z</time></trkpt><trkpt lat="43.56696113222162" lon="18.503852396701493"><ele>1180.0</ele><time>2026-05-03T15:27:39Z</time></trkpt><trkpt lat="43.56696215273664" lon="18.504110980159748"><ele>1181.0</ele><time>2026-05-03T15:27:40Z</time></trkpt><trkpt lat="43.566928667504484" lon="18.504369638968303"><ele>1182.0</ele><time>2026-05-03T15:27:41Z</time></trkpt><trkpt lat="43.56686961915669" lon="18.504618968755818"><ele>1183.0</ele><time>2026-05-03T15:27:42Z</time></trkpt><trkpt lat="43.566813766462595" lon="18.50487012945558"><ele>1184.0</ele><time>2026-05-03T15:27:43Z</time></trkpt><trkpt lat="43.566769055699744" lon="18.505105635633146"><ele>1184.0</ele><time>2026-05-03T15:27:44Z</time></trkpt><trkpt lat="43.56673039356556" lon="18.505323660910015"><ele>1184.0</ele><time>2026-05-03T15:27:45Z</time></trkpt><trkpt lat="43.56670338389077" lon="18.505514352734473"><ele>1184.0</ele><time>2026-05-03T15:27:46Z</time></trkpt><trkpt lat="43.56669579427359" lon="18.505690725145147"><ele>1184.0</ele><time>2026-05-03T15:27:47Z</time></trkpt><trkpt lat="43.56671930850048" lon="18.505872650911883"><ele>1184.75</ele><time>2026-05-03T15:27:48Z</time></trkpt><trkpt lat="43.56676689796779" lon="18.506055867177746"><ele>1185.5</ele><time>2026-05-03T15:27:49Z</time></trkpt><trkpt lat="43.56682675987799" lon="18.50624352790813"><ele>1186.25</ele><time>2026-05-03T15:27:50Z</time></trkpt><trkpt lat="43.56688741148756" lon="18.50643177042463"><ele>1187.0</ele><time>2026-05-03T15:27:51Z</time></trkpt><trkpt lat="43.56695128562949" lon="18.50660041419991"><ele>1187.0</ele><time>2026-05-03T15:27:52Z</time></trkpt><trkpt lat="43.56702558595659" lon="18.5067358186275"><ele>1187.0</ele><time>2026-05-03T15:27:53Z</time></trkpt><trkpt lat="43.56712059669281" lon="18.506843973004326"><ele>1187.0</ele><time>2026-05-03T15:27:54Z</time></trkpt><trkpt lat="43.56723053353545" lon="18.5069156546248"><ele>1187.0</ele><time>2026-05-03T15:27:55Z</time></trkpt><trkpt lat="43.567321593476414" lon="18.506976228886582"><ele>1188.8</ele><time>2026-05-03T15:27:56Z</time></trkpt><trkpt lat="43.56737306789871" lon="18.507080413421605"><ele>1190.6</ele><time>2026-05-03T15:27:57Z</time></trkpt><trkpt lat="43.56737485885684" lon="18.507219237926105"><ele>1192.3999999999999</ele><time>2026-05-03T15:27:58Z</time></trkpt><trkpt lat="43.567332733447735" lon="18.507357850987734"><ele>1194.2</ele><time>2026-05-03T15:27:59Z</time></trkpt><trkpt lat="43.56724421558106" lon="18.507474117334453"><ele>1196.0</ele><time>2026-05-03T15:28:00Z</time></trkpt><trkpt lat="43.56715190916247" lon="18.50757331982045"><ele>1196.0</ele><time>2026-05-03T15:28:01Z</time></trkpt><trkpt lat="43.56707072162694" lon="18.50768052716218"><ele>1196.0</ele><time>2026-05-03T15:28:02Z</time></trkpt><trkpt lat="43.56700141258848" lon="18.50780416102485"><ele>1196.0</ele><time>2026-05-03T15:28:03Z</time></trkpt><trkpt lat="43.566944839777115" lon="18.507952432704933"><ele>1196.0</ele><time>2026-05-03T15:28:04Z</time></trkpt><trkpt lat="43.5668988461556" lon="18.508162352943426"><ele>1194.6666666666667</ele><time>2026-05-03T15:28:05Z</time></trkpt><trkpt lat="43.56686682364863" lon="18.50843244512143"><ele>1193.3333333333333</ele><time>2026-05-03T15:28:06Z</time></trkpt><trkpt lat="43.56681782626115" lon="18.508711099507387"><ele>1192.0</ele><time>2026-05-03T15:28:07Z</time></trkpt><trkpt lat="43.566736677964556" lon="18.508924988892158"><ele>1192.0</ele><time>2026-05-03T15:28:08Z</time></trkpt><trkpt lat="43.56662829918203" lon="18.50909824406074"><ele>1192.0</ele><time>2026-05-03T15:28:09Z</time></trkpt><trkpt lat="43.56652183458041" lon="18.50926028473374"><ele>1192.0</ele><time>2026-05-03T15:28:10Z</time></trkpt><trkpt lat="43.56644620622577" lon="18.509449646654616"><ele>1192.75</ele><time>2026-05-03T15:28:11Z</time></trkpt><trkpt lat="43.56639942824042" lon="18.50965620529631"><ele>1193.5</ele><time>2026-05-03T15:28:12Z</time></trkpt><trkpt lat="43.56636642628579" lon="18.50984806389335"><ele>1194.25</ele><time>2026-05-03T15:28:13Z</time></trkpt><trkpt lat="43.5663402567272" lon="18.51001697754918"><ele>1195.0</ele><time>2026-05-03T15:28:14Z</time></trkpt><trkpt lat="43.56634267603514" lon="18.51017170056354"><ele>1195.0</ele><time>2026-05-03T15:28:15Z</time></trkpt><trkpt lat="43.56638634850513" lon="18.510301188175866"><ele>1195.0</ele><time>2026-05-03T15:28:16Z</time></trkpt><trkpt lat="43.56646903005197" lon="18.510377319773944"><ele>1195.0</ele><time>2026-05-03T15:28:17Z</time></trkpt><trkpt lat="43.56656622077374" lon="18.510412692010522"><ele>1195.0</ele><time>2026-05-03T15:28:18Z</time></trkpt><trkpt lat="43.56666241651585" lon="18.510414843307384"><ele>1195.0</ele><time>2026-05-03T15:28:19Z</time></trkpt><trkpt lat="43.56676906765904" lon="18.51041096020008"><ele>1195.5</ele><time>2026-05-03T15:28:20Z</time></trkpt><trkpt lat="43.566885328854205" lon="18.510418516984508"><ele>1196.0</ele><time>2026-05-03T15:28:21Z</time></trkpt><trkpt lat="43.56700557134976" lon="18.510425496987832"><ele>1196.5</ele><time>2026-05-03T15:28:22Z</time></trkpt><trkpt lat="43.56714684401962" lon="18.510388238921415"><ele>1197.0</ele><time>2026-05-03T15:28:23Z</time></trkpt><trkpt lat="43.567304273741" lon="18.510303666300914"><ele>1197.0</ele><time>2026-05-03T15:28:24Z</time></trkpt><trkpt lat="43.56747888404292" lon="18.510190197587587"><ele>1197.0</ele><time>2026-05-03T15:28:25Z</time></trkpt><trkpt lat="43.56765491311748" lon="18.510072476499314"><ele>1197.0</ele><time>2026-05-03T15:28:26Z</time></trkpt><trkpt lat="43.56782183444639" lon="18.509959996415496"><ele>1197.3333333333333</ele><time>2026-05-03T15:28:27Z</time></trkpt><trkpt lat="43.567969305999206" lon="18.509861337134517"><ele>1197.6666666666665</ele><time>2026-05-03T15:28:28Z</time></trkpt><trkpt lat="43.56810980548952" lon="18.50977932127242"><ele>1198.0</ele><time>2026-05-03T15:28:29Z</time></trkpt><trkpt lat="43.568248707604845" lon="18.50970659822903"><ele>1198.0</ele><time>2026-05-03T15:28:30Z</time></trkpt><trkpt lat="43.5683874909065" lon="18.509644084367228"><ele>1198.0</ele><time>2026-05-03T15:28:31Z</time></trkpt><trkpt lat="43.56851506360762" lon="18.509594638439086"><ele>1198.0</ele><time>2026-05-03T15:28:32Z</time></trkpt><trkpt lat="43.56863761874812" lon="18.509547290849223"><ele>1198.0</ele><time>2026-05-03T15:28:33Z</time></trkpt><trkpt lat="43.568754060624975" lon="18.509501340599062"><ele>1198.25</ele><time>2026-05-03T15:28:34Z</time></trkpt><trkpt lat="43.56886421788547" lon="18.509413785000493"><ele>1198.5</ele><time>2026-05-03T15:28:35Z</time></trkpt><trkpt lat="43.56894839059119" lon="18.509285715085763"><ele>1198.75</ele><time>2026-05-03T15:28:36Z</time></trkpt><trkpt lat="43.569026364549686" lon="18.50916097482446"><ele>1199.0</ele><time>2026-05-03T15:28:37Z</time></trkpt><trkpt lat="43.56912715895901" lon="18.50907231711174"><ele>1199.0</ele><time>2026-05-03T15:28:38Z</time></trkpt><trkpt lat="43.569235147560576" lon="18.50900034983708"><ele>1199.0</ele><time>2026-05-03T15:28:39Z</time></trkpt><trkpt lat="43.56933732641314" lon="18.508929258936167"><ele>1199.0</ele><time>2026-05-03T15:28:40Z</time></trkpt><trkpt lat="43.56943921310335" lon="18.508853890030128"><ele>1199.0</ele><time>2026-05-03T15:28:41Z</time></trkpt><trkpt lat="43.569545396883655" lon="18.508784054762366"><ele>1198.5</ele><time>2026-05-03T15:28:42Z</time></trkpt><trkpt lat="43.56965408368298" lon="18.508742469016823"><ele>1198.0</ele><time>2026-05-03T15:28:43Z</time></trkpt><trkpt lat="43.569768802590296" lon="18.508731955163974"><ele>1197.5</ele><time>2026-05-03T15:28:44Z</time></trkpt><trkpt lat="43.569888417645636" lon="18.508751292543057"><ele>1197.0</ele><time>2026-05-03T15:28:45Z</time></trkpt><trkpt lat="43.57000497036538" lon="18.50879461629373"><ele>1197.0</ele><time>2026-05-03T15:28:46Z</time></trkpt><trkpt lat="43.57011950007419" lon="18.508811577601765"><ele>1197.0</ele><time>2026-05-03T15:28:47Z</time></trkpt><trkpt lat="43.570234738717154" lon="18.50876772643235"><ele>1197.0</ele><time>2026-05-03T15:28:48Z</time></trkpt><trkpt lat="43.57034550567234" lon="18.50865848242099"><ele>1197.0</ele><time>2026-05-03T15:28:49Z</time></trkpt><trkpt lat="43.57044920506056" lon="18.508544218389392"><ele>1194.0</ele><time>2026-05-03T15:28:50Z</time></trkpt><trkpt lat="43.57054414385271" lon="18.508436985692395"><ele>1191.0</ele><time>2026-05-03T15:28:51Z</time></trkpt><trkpt lat="43.570629980272635" lon="18.508325441872664"><ele>1188.0</ele><time>2026-05-03T15:28:52Z</time></trkpt><trkpt lat="43.57069229266147" lon="18.50819419322451"><ele>1185.0</ele><time>2026-05-03T15:28:53Z</time></trkpt><trkpt lat="43.57074484468497" lon="18.508054730017097"><ele>1185.0</ele><time>2026-05-03T15:28:54Z</time></trkpt><trkpt lat="43.5707978571138" lon="18.507920327834476"><ele>1185.0</ele><time>2026-05-03T15:28:55Z</time></trkpt><trkpt lat="43.57087744078025" lon="18.507826041656713"><ele>1185.0</ele><time>2026-05-03T15:28:56Z</time></trkpt><trkpt lat="43.57098435479174" lon="18.507750608263716"><ele>1185.0</ele><time>2026-05-03T15:28:57Z</time></trkpt><trkpt lat="43.57110088714355" lon="18.507689613470326"><ele>1184.0</ele><time>2026-05-03T15:28:58Z</time></trkpt><trkpt lat="43.57121246309882" lon="18.507609253308885"><ele>1183.0</ele><time>2026-05-03T15:28:59Z</time></trkpt><trkpt lat="43.57131898157012" lon="18.507521083726253"><ele>1182.0</ele><time>2026-05-03T15:29:00Z</time></trkpt><trkpt lat="43.5714236364028" lon="18.507445012683903"><ele>1181.0</ele><time>2026-05-03T15:29:01Z</time></trkpt><trkpt lat="43.57152984387331" lon="18.507379429744777"><ele>1181.0</ele><time>2026-05-03T15:29:02Z</time></trkpt><trkpt lat="43.57163215374498" lon="18.50732550428268"><ele>1181.0</ele><time>2026-05-03T15:29:03Z</time></trkpt><trkpt lat="43.57173946753613" lon="18.507296984163204"><ele>1181.0</ele><time>2026-05-03T15:29:04Z</time></trkpt><trkpt lat="43.571841313111804" lon="18.507327811315132"><ele>1181.0</ele><time>2026-05-03T15:29:05Z</time></trkpt><trkpt lat="43.57193363667624" lon="18.507412363537192"><ele>1181.0</ele><time>2026-05-03T15:29:06Z</time></trkpt><trkpt lat="43.57202457720655" lon="18.50749895089305"><ele>1180.25</ele><time>2026-05-03T15:29:07Z</time></trkpt><trkpt lat="43.57212592761829" lon="18.507552319787024"><ele>1179.5</ele><time>2026-05-03T15:29:08Z</time></trkpt><trkpt lat="43.572248070151474" lon="18.507570279160344"><ele>1178.75</ele><time>2026-05-03T15:29:09Z</time></trkpt><trkpt lat="43.572378632850494" lon="18.507555878867354"><ele>1178.0</ele><time>2026-05-03T15:29:10Z</time></trkpt><trkpt lat="43.57251645788649" lon="18.50750201693133"><ele>1178.0</ele><time>2026-05-03T15:29:11Z</time></trkpt><trkpt lat="43.57268856230126" lon="18.50740925565269"><ele>1178.0</ele><time>2026-05-03T15:29:12Z</time></trkpt><trkpt lat="43.57290483721905" lon="18.507288846877028"><ele>1178.0</ele><time>2026-05-03T15:29:13Z</time></trkpt><trkpt lat="43.57314504506486" lon="18.507157169938882"><ele>1178.6666666666667</ele><time>2026-05-03T15:29:14Z</time></trkpt><trkpt lat="43.57335732521659" lon="18.507032146786884"><ele>1179.3333333333333</ele><time>2026-05-03T15:29:15Z</time></trkpt><trkpt lat="43.573524972161216" lon="18.506937704253183"><ele>1180.0</ele><time>2026-05-03T15:29:16Z</time></trkpt><trkpt lat="43.57366554398958" lon="18.506868016058796"><ele>1179.0</ele><time>2026-05-03T15:29:17Z</time></trkpt><trkpt lat="43.5737765711893" lon="18.50686118066287"><ele>1178.0</ele><time>2026-05-03T15:29:18Z</time></trkpt><trkpt lat="43.57389714798031" lon="18.506906720136996"><ele>1177.0</ele><time>2026-05-03T15:29:19Z</time></trkpt><trkpt lat="43.57400495075253" lon="18.507004915329915"><ele>1176.0</ele><time>2026-05-03T15:29:20Z</time></trkpt><trkpt lat="43.574113692458596" lon="18.507079938653444"><ele>1176.0</ele><time>2026-05-03T15:29:21Z</time></trkpt><trkpt lat="43.57422986277706" lon="18.507097168853406"><ele>1176.0</ele><time>2026-05-03T15:29:22Z</time></trkpt><trkpt lat="43.574342235716124" lon="18.507075923099606"><ele>1176.0</ele><time>2026-05-03T15:29:23Z</time></trkpt><trkpt lat="43.574445732708874" lon="18.507046991143202"><ele>1176.0</ele><time>2026-05-03T15:29:24Z</time></trkpt><trkpt lat="43.57454612112988" lon="18.50703286762958"><ele>1176.0</ele><time>2026-05-03T15:29:25Z</time></trkpt><trkpt lat="43.57464457465024" lon="18.50703383384032"><ele>1174.6</ele><time>2026-05-03T15:29:26Z</time></trkpt><trkpt lat="43.57473864858491" lon="18.50706470107813"><ele>1173.1999999999998</ele><time>2026-05-03T15:29:27Z</time></trkpt><trkpt lat="43.57481744491446" lon="18.507142286489483"><ele>1171.8000000000002</ele><time>2026-05-03T15:29:28Z</time></trkpt><trkpt lat="43.574874212868586" lon="18.507266138019723"><ele>1170.4</ele><time>2026-05-03T15:29:29Z</time></trkpt><trkpt lat="43.574885805280644" lon="18.507413510889197"><ele>1169.0</ele><time>2026-05-03T15:29:30Z</time></trkpt><trkpt lat="43.574876916375786" lon="18.507565931348044"><ele>1167.6000000000001</ele><time>2026-05-03T15:29:31Z</time></trkpt><trkpt lat="43.57484160692421" lon="18.5077025351657"><ele>1166.2</ele><time>2026-05-03T15:29:32Z</time></trkpt><trkpt lat="43.57479446142654" lon="18.50782469996256"><ele>1164.8000000000002</ele><time>2026-05-03T15:29:33Z</time></trkpt><trkpt lat="43.57472572865091" lon="18.507915016795273"><ele>1163.4</ele><time>2026-05-03T15:29:34Z</time></trkpt><trkpt lat="43.57463255888123" lon="18.50796467619738"><ele>1162.0</ele><time>2026-05-03T15:29:35Z</time></trkpt><trkpt lat="43.57452822297373" lon="18.50798875014394"><ele>1161.8</ele><time>2026-05-03T15:29:36Z</time></trkpt><trkpt lat="43.574435128960054" lon="18.508031503942195"><ele>1161.6</ele><time>2026-05-03T15:29:37Z</time></trkpt><trkpt lat="43.5743667992253" lon="18.508116989051388"><ele>1161.3999999999999</ele><time>2026-05-03T15:29:38Z</time></trkpt><trkpt lat="43.574310677095355" lon="18.508223663165356"><ele>1161.2</ele><time>2026-05-03T15:29:39Z</time></trkpt><trkpt lat="43.57426011820561" lon="18.508345640034545"><ele>1161.0</ele><time>2026-05-03T15:29:40Z</time></trkpt><trkpt lat="43.57420543437753" lon="18.508471512087386"><ele>1161.0</ele><time>2026-05-03T15:29:41Z</time></trkpt><trkpt lat="43.57415424674873" lon="18.508601426398613"><ele>1161.0</ele><time>2026-05-03T15:29:42Z</time></trkpt><trkpt lat="43.57412066238813" lon="18.508724448912204"><ele>1161.0</ele><time>2026-05-03T15:29:43Z</time></trkpt><trkpt lat="43.57411533247429" lon="18.508856748296505"><ele>1161.0</ele><time>2026-05-03T15:29:44Z</time></trkpt><trkpt lat="43.57414164986686" lon="18.50899483351734"><ele>1161.0</ele><time>2026-05-03T15:29:45Z</time></trkpt><trkpt lat="43.574181826520544" lon="18.509135697442765"><ele>1160.0</ele><time>2026-05-03T15:29:46Z</time></trkpt><trkpt lat="43.57421916788294" lon="18.509285712029207"><ele>1159.0</ele><time>2026-05-03T15:29:47Z</time></trkpt><trkpt lat="43.5742538954066" lon="18.50944365365387"><ele>1158.0</ele><time>2026-05-03T15:29:48Z</time></trkpt><trkpt lat="43.5742856325496" lon="18.509610142714987"><ele>1157.0</ele><time>2026-05-03T15:29:49Z</time></trkpt><trkpt lat="43.574300040808524" lon="18.50977803163239"><ele>1157.0</ele><time>2026-05-03T15:29:50Z</time></trkpt><trkpt lat="43.574288643384406" lon="18.50993518481185"><ele>1157.0</ele><time>2026-05-03T15:29:51Z</time></trkpt><trkpt lat="43.574260815887" lon="18.51009041459179"><ele>1157.0</ele><time>2026-05-03T15:29:52Z</time></trkpt><trkpt lat="43.574256519864754" lon="18.51024995028484"><ele>1157.0</ele><time>2026-05-03T15:29:53Z</time></trkpt><trkpt lat="43.57429864532235" lon="18.51044855599004"><ele>1156.6666666666667</ele><time>2026-05-03T15:29:54Z</time></trkpt><trkpt lat="43.57436431862422" lon="18.510668012854268"><ele>1156.3333333333333</ele><time>2026-05-03T15:29:55Z</time></trkpt><trkpt lat="43.57444558424755" lon="18.51091737977482"><ele>1156.0</ele><time>2026-05-03T15:29:56Z</time></trkpt><trkpt lat="43.5745094614568" lon="18.51119538502602"><ele>1150.3333333333333</ele><time>2026-05-03T15:29:57Z</time></trkpt><trkpt lat="43.57455781514048" lon="18.511431114097473"><ele>1144.6666666666667</ele><time>2026-05-03T15:29:58Z</time></trkpt><trkpt lat="43.57460291519345" lon="18.51162777473765"><ele>1139.0</ele><time>2026-05-03T15:29:59Z</time></trkpt><trkpt lat="43.57465409007302" lon="18.51179811305638"><ele>1139.0</ele><time>2026-05-03T15:30:00Z</time></trkpt><trkpt lat="43.574714992566804" lon="18.511917058068978"><ele>1139.0</ele><time>2026-05-03T15:30:01Z</time></trkpt><trkpt lat="43.57479181298773" lon="18.51201347933113"><ele>1139.0</ele><time>2026-05-03T15:30:02Z</time></trkpt><trkpt lat="43.574894954838584" lon="18.51208163685775"><ele>1139.0</ele><time>2026-05-03T15:30:03Z</time></trkpt><trkpt lat="43.57500728554847" lon="18.512133216309667"><ele>1139.0</ele><time>2026-05-03T15:30:04Z</time></trkpt><trkpt lat="43.57512410052648" lon="18.512188499859583"><ele>1139.25</ele><time>2026-05-03T15:30:05Z</time></trkpt><trkpt lat="43.57523927776206" lon="18.51226220357035"><ele>1139.5</ele><time>2026-05-03T15:30:06Z</time></trkpt><trkpt lat="43.57536034898276" lon="18.512355025283043"><ele>1139.75</ele><time>2026-05-03T15:30:07Z</time></trkpt><trkpt lat="43.57548376334144" lon="18.51245549895212"><ele>1140.0</ele><time>2026-05-03T15:30:08Z</time></trkpt><trkpt lat="43.57561480263461" lon="18.51255047911582"><ele>1138.6666666666667</ele><time>2026-05-03T15:30:09Z</time></trkpt><trkpt lat="43.57577160596235" lon="18.512628373986157"><ele>1137.3333333333335</ele><time>2026-05-03T15:30:10Z</time></trkpt><trkpt lat="43.57596479974954" lon="18.512705087793545"><ele>1136.0</ele><time>2026-05-03T15:30:11Z</time></trkpt><trkpt lat="43.576164791120995" lon="18.512778202279108"><ele>1135.6666666666667</ele><time>2026-05-03T15:30:12Z</time></trkpt><trkpt lat="43.57634123549668" lon="18.51285568779095"><ele>1135.3333333333333</ele><time>2026-05-03T15:30:13Z</time></trkpt><trkpt lat="43.5764886035595" lon="18.512938696715313"><ele>1135.0</ele><time>2026-05-03T15:30:14Z</time></trkpt><trkpt lat="43.576614526580244" lon="18.51302682688664"><ele>1135.0</ele><time>2026-05-03T15:30:15Z</time></trkpt><trkpt lat="43.57672561903504" lon="18.51312236264321"><ele>1135.0</ele><time>2026-05-03T15:30:16Z</time></trkpt><trkpt lat="43.576831276990056" lon="18.513216357612038"><ele>1135.0</ele><time>2026-05-03T15:30:17Z</time></trkpt><trkpt lat="43.57693391035335" lon="18.513313429866617"><ele>1135.0</ele><time>2026-05-03T15:30:18Z</time></trkpt><trkpt lat="43.57704092239211" lon="18.513409424881985"><ele>1136.0</ele><time>2026-05-03T15:30:19Z</time></trkpt><trkpt lat="43.577148662641115" lon="18.513510635547863"><ele>1137.0</ele><time>2026-05-03T15:30:20Z</time></trkpt><trkpt lat="43.577256400632216" lon="18.51360831143184"><ele>1138.0</ele><time>2026-05-03T15:30:21Z</time></trkpt><trkpt lat="43.57736336098714" lon="18.513700707596648"><ele>1139.0</ele><time>2026-05-03T15:30:22Z</time></trkpt><trkpt lat="43.577467029698994" lon="18.51378971579362"><ele>1139.0</ele><time>2026-05-03T15:30:23Z</time></trkpt><trkpt lat="43.577578668986604" lon="18.513879105656873"><ele>1139.0</ele><time>2026-05-03T15:30:24Z</time></trkpt><trkpt lat="43.577690511110255" lon="18.513962528372858"><ele>1139.0</ele><time>2026-05-03T15:30:25Z</time></trkpt><trkpt lat="43.57779820349498" lon="18.514023815156143"><ele>1139.0</ele><time>2026-05-03T15:30:26Z</time></trkpt><trkpt lat="43.57790818900918" lon="18.51407305802632"><ele>1138.6000000000001</ele><time>2026-05-03T15:30:27Z</time></trkpt><trkpt lat="43.57801396434448" lon="18.51410762191849"><ele>1138.2</ele><time>2026-05-03T15:30:28Z</time></trkpt><trkpt lat="43.57812208563245" lon="18.514111613189552"><ele>1137.8000000000002</ele><time>2026-05-03T15:30:29Z</time></trkpt><trkpt lat="43.57822630518052" lon="18.514080646302332"><ele>1137.4</ele><time>2026-05-03T15:30:30Z</time></trkpt><trkpt lat="43.57832325265093" lon="18.514010538881966"><ele>1137.0</ele><time>2026-05-03T15:30:31Z</time></trkpt><trkpt lat="43.57841421895808" lon="18.51394117341717"><ele>1137.0</ele><time>2026-05-03T15:30:32Z</time></trkpt><trkpt lat="43.578514210745496" lon="18.513902512807103"><ele>1137.0</ele><time>2026-05-03T15:30:33Z</time></trkpt><trkpt lat="43.57862528490204" lon="18.513912744317725"><ele>1137.0</ele><time>2026-05-03T15:30:34Z</time></trkpt><trkpt lat="43.57872852541449" lon="18.513948673265528"><ele>1137.0</ele><time>2026-05-03T15:30:35Z</time></trkpt><trkpt lat="43.57882050769527" lon="18.51399392569209"><ele>1137.0</ele><time>2026-05-03T15:30:36Z</time></trkpt><trkpt lat="43.578901852654674" lon="18.51404900614302"><ele>1137.0</ele><time>2026-05-03T15:30:37Z</time></trkpt><trkpt lat="43.578951593615066" lon="18.51414424848748"><ele>1137.0</ele><time>2026-05-03T15:30:38Z</time></trkpt><trkpt lat="43.57896362791107" lon="18.51425483292067"><ele>1137.0</ele><time>2026-05-03T15:30:39Z</time></trkpt><trkpt lat="43.57894148297576" lon="18.514367304600466"><ele>1137.0</ele><time>2026-05-03T15:30:40Z</time></trkpt><trkpt lat="43.578880196909175" lon="18.514469859743418"><ele>1137.0</ele><time>2026-05-03T15:30:41Z</time></trkpt><trkpt lat="43.5788126481393" lon="18.514568929132455"><ele>1137.0</ele><time>2026-05-03T15:30:42Z</time></trkpt><trkpt lat="43.57874498689573" lon="18.514676324720476"><ele>1135.8</ele><time>2026-05-03T15:30:43Z</time></trkpt><trkpt lat="43.57867951256394" lon="18.51479221724756"><ele>1134.6</ele><time>2026-05-03T15:30:44Z</time></trkpt><trkpt lat="43.578633904019476" lon="18.514911629123212"><ele>1133.3999999999999</ele><time>2026-05-03T15:30:45Z</time></trkpt><trkpt lat="43.5786165345698" lon="18.515052035909708"><ele>1132.2</ele><time>2026-05-03T15:30:46Z</time></trkpt><trkpt lat="43.578625723863894" lon="18.515195013191377"><ele>1131.0</ele><time>2026-05-03T15:30:47Z</time></trkpt><trkpt lat="43.57865563549249" lon="18.515334762696178"><ele>1129.8</ele><time>2026-05-03T15:30:48Z</time></trkpt><trkpt lat="43.578689146632065" lon="18.515465688881758"><ele>1128.6</ele><time>2026-05-03T15:30:49Z</time></trkpt><trkpt lat="43.578732242152654" lon="18.515586329280126"><ele>1127.4</ele><time>2026-05-03T15:30:50Z</time></trkpt><trkpt lat="43.57878760108238" lon="18.5156833205354"><ele>1126.2</ele><time>2026-05-03T15:30:51Z</time></trkpt><trkpt lat="43.57885974780777" lon="18.515752130808576"><ele>1125.0</ele><time>2026-05-03T15:30:52Z</time></trkpt><trkpt lat="43.578946852574106" lon="18.515782783474577"><ele>1125.0</ele><time>2026-05-03T15:30:53Z</time></trkpt><trkpt lat="43.57904505791759" lon="18.515779530571862"><ele>1125.0</ele><time>2026-05-03T15:30:54Z</time></trkpt><trkpt lat="43.579143990623386" lon="18.515746713445477"><ele>1125.0</ele><time>2026-05-03T15:30:55Z</time></trkpt><trkpt lat="43.57924167691552" lon="18.515691456015404"><ele>1125.0</ele><time>2026-05-03T15:30:56Z</time></trkpt><trkpt lat="43.57933766119803" lon="18.515620887328907"><ele>1125.0</ele><time>2026-05-03T15:30:57Z</time></trkpt><trkpt lat="43.57943063445055" lon="18.51554730130773"><ele>1123.6</ele><time>2026-05-03T15:30:58Z</time></trkpt><trkpt lat="43.57952638648321" lon="18.515475367758604"><ele>1122.2</ele><time>2026-05-03T15:30:59Z</time></trkpt><trkpt lat="43.57961998775763" lon="18.515428845759896"><ele>1120.8</ele><time>2026-05-03T15:31:00Z</time></trkpt><trkpt lat="43.57971724062929" lon="18.515429805320842"><ele>1119.4</ele><time>2026-05-03T15:31:01Z</time></trkpt><trkpt lat="43.579806564283764" lon="18.515472519936253"><ele>1118.0</ele><time>2026-05-03T15:31:02Z</time></trkpt><trkpt lat="43.57989577275418" lon="18.51551181962827"><ele>1118.0</ele><time>2026-05-03T15:31:03Z</time></trkpt><trkpt lat="43.57999376869944" lon="18.51550984650609"><ele>1118.0</ele><time>2026-05-03T15:31:04Z</time></trkpt><trkpt lat="43.580090665314735" lon="18.51547194193208"><ele>1118.0</ele><time>2026-05-03T15:31:05Z</time></trkpt><trkpt lat="43.5801779660547" lon="18.51541323376462"><ele>1118.0</ele><time>2026-05-03T15:31:06Z</time></trkpt><trkpt lat="43.58026293362733" lon="18.51535277838638"><ele>1118.0</ele><time>2026-05-03T15:31:07Z</time></trkpt><trkpt lat="43.58034213173237" lon="18.515281347090237"><ele>1117.0</ele><time>2026-05-03T15:31:08Z</time></trkpt><trkpt lat="43.58041246281015" lon="18.5151783346339"><ele>1116.0</ele><time>2026-05-03T15:31:09Z</time></trkpt><trkpt lat="43.58048251975118" lon="18.515057685934163"><ele>1115.0</ele><time>2026-05-03T15:31:10Z</time></trkpt><trkpt lat="43.580543679503236" lon="18.514931153349227"><ele>1114.0</ele><time>2026-05-03T15:31:11Z</time></trkpt><trkpt lat="43.58060317951276" lon="18.514804448272663"><ele>1113.0</ele><time>2026-05-03T15:31:12Z</time></trkpt><trkpt lat="43.58065847608172" lon="18.514677510821276"><ele>1117.6</ele><time>2026-05-03T15:31:13Z</time></trkpt><trkpt lat="43.58071224180636" lon="18.514556040593867"><ele>1122.1999999999998</ele><time>2026-05-03T15:31:14Z</time></trkpt><trkpt lat="43.58076797074928" lon="18.514438693698068"><ele>1126.8</ele><time>2026-05-03T15:31:15Z</time></trkpt><trkpt lat="43.58083622701068" lon="18.51432733006258"><ele>1131.3999999999999</ele><time>2026-05-03T15:31:16Z</time></trkpt><trkpt lat="43.58092274766622" lon="18.514240737283515"><ele>1136.0</ele><time>2026-05-03T15:31:17Z</time></trkpt><trkpt lat="43.58103319599628" lon="18.514170026278457"><ele>1136.0</ele><time>2026-05-03T15:31:18Z</time></trkpt><trkpt lat="43.58114488808101" lon="18.5140878715471"><ele>1136.0</ele><time>2026-05-03T15:31:19Z</time></trkpt><trkpt lat="43.58126007305432" lon="18.514008142018042"><ele>1136.0</ele><time>2026-05-03T15:31:20Z</time></trkpt><trkpt lat="43.58137949765665" lon="18.51394158292813"><ele>1136.0</ele><time>2026-05-03T15:31:21Z</time></trkpt><trkpt lat="43.58150121344134" lon="18.51389253215884"><ele>1138.5</ele><time>2026-05-03T15:31:22Z</time></trkpt><trkpt lat="43.58162182077613" lon="18.513843256007604"><ele>1141.0</ele><time>2026-05-03T15:31:23Z</time></trkpt><trkpt lat="43.581735119218834" lon="18.513784729091924"><ele>1143.5</ele><time>2026-05-03T15:31:24Z</time></trkpt><trkpt lat="43.58183830622586" lon="18.51371333951411"><ele>1146.0</ele><time>2026-05-03T15:31:25Z</time></trkpt><trkpt lat="43.58192934824676" lon="18.51362930068276"><ele>1146.0</ele><time>2026-05-03T15:31:26Z</time></trkpt><trkpt lat="43.58200388693396" lon="18.513525477339776"><ele>1146.0</ele><time>2026-05-03T15:31:27Z</time></trkpt><trkpt lat="43.58207106032373" lon="18.51339563201498"><ele>1146.0</ele><time>2026-05-03T15:31:28Z</time></trkpt><trkpt lat="43.58212419798282" lon="18.513255237213478"><ele>1146.0</ele><time>2026-05-03T15:31:29Z</time></trkpt><trkpt lat="43.582169997745474" lon="18.51310818467623"><ele>1136.0</ele><time>2026-05-03T15:31:30Z</time></trkpt><trkpt lat="43.58221279160572" lon="18.512952326977917"><ele>1126.0</ele><time>2026-05-03T15:31:31Z</time></trkpt><trkpt lat="43.58224836737799" lon="18.51279502188529"><ele>1116.0</ele><time>2026-05-03T15:31:32Z</time></trkpt><trkpt lat="43.582271541466575" lon="18.512638512715505"><ele>1106.0</ele><time>2026-05-03T15:31:33Z</time></trkpt><trkpt lat="43.582277366205076" lon="18.51247855003401"><ele>1106.0</ele><time>2026-05-03T15:31:34Z</time></trkpt><trkpt lat="43.58226268493531" lon="18.51233101200311"><ele>1106.0</ele><time>2026-05-03T15:31:35Z</time></trkpt><trkpt lat="43.5822375681709" lon="18.51218134531543"><ele>1106.0</ele><time>2026-05-03T15:31:36Z</time></trkpt><trkpt lat="43.58220132295175" lon="18.512040375514527"><ele>1106.0</ele><time>2026-05-03T15:31:37Z</time></trkpt><trkpt lat="43.582152705674005" lon="18.51190532304138"><ele>1106.0</ele><time>2026-05-03T15:31:38Z</time></trkpt><trkpt lat="43.582094632814936" lon="18.51176528390831"><ele>1107.5</ele><time>2026-05-03T15:31:39Z</time></trkpt><trkpt lat="43.58203695884919" lon="18.511619822819018"><ele>1109.0</ele><time>2026-05-03T15:31:40Z</time></trkpt><trkpt lat="43.58198327646511" lon="18.511465513354302"><ele>1110.5</ele><time>2026-05-03T15:31:41Z</time></trkpt><trkpt lat="43.58193804689969" lon="18.511305338407738"><ele>1112.0</ele><time>2026-05-03T15:31:42Z</time></trkpt><trkpt lat="43.58188703410841" lon="18.511144682897807"><ele>1112.0</ele><time>2026-05-03T15:31:43Z</time></trkpt><trkpt lat="43.58181819399963" lon="18.51099624660829"><ele>1112.0</ele><time>2026-05-03T15:31:44Z</time></trkpt><trkpt lat="43.58174175822131" lon="18.510853301230224"><ele>1112.0</ele><time>2026-05-03T15:31:45Z</time></trkpt><trkpt lat="43.581664264347275" lon="18.510718203441616"><ele>1112.0</ele><time>2026-05-03T15:31:46Z</time></trkpt><trkpt lat="43.58158609909093" lon="18.510598687206123"><ele>1112.0</ele><time>2026-05-03T15:31:47Z</time></trkpt><trkpt lat="43.58151341837515" lon="18.510475702269975"><ele>1112.0</ele><time>2026-05-03T15:31:48Z</time></trkpt><trkpt lat="43.581432941913505" lon="18.510332835572004"><ele>1112.0</ele><time>2026-05-03T15:31:49Z</time></trkpt><trkpt lat="43.58135869169988" lon="18.51017256034401"><ele>1112.0</ele><time>2026-05-03T15:31:50Z</time></trkpt><trkpt lat="43.58130123277971" lon="18.510014453930737"><ele>1113.0</ele><time>2026-05-03T15:31:51Z</time></trkpt><trkpt lat="43.58124427850157" lon="18.50985941020608"><ele>1114.0</ele><time>2026-05-03T15:31:52Z</time></trkpt><trkpt lat="43.58118757907186" lon="18.509711665491384"><ele>1115.0</ele><time>2026-05-03T15:31:53Z</time></trkpt><trkpt lat="43.58113466188573" lon="18.50957363431803"><ele>1116.0</ele><time>2026-05-03T15:31:54Z</time></trkpt><trkpt lat="43.58109765192259" lon="18.509433235109032"><ele>1116.0</ele><time>2026-05-03T15:31:55Z</time></trkpt><trkpt lat="43.58108264448539" lon="18.50928582439753"><ele>1116.0</ele><time>2026-05-03T15:31:56Z</time></trkpt><trkpt lat="43.58107842136191" lon="18.50914501771656"><ele>1116.0</ele><time>2026-05-03T15:31:57Z</time></trkpt><trkpt lat="43.58106762618529" lon="18.50899609270088"><ele>1116.0</ele><time>2026-05-03T15:31:58Z</time></trkpt><trkpt lat="43.58104330881546" lon="18.508855951537104"><ele>1116.0</ele><time>2026-05-03T15:31:59Z</time></trkpt><trkpt lat="43.58099941732525" lon="18.508735910907788"><ele>1116.0</ele><time>2026-05-03T15:32:00Z</time></trkpt><trkpt lat="43.58095498619102" lon="18.508631639811117"><ele>1116.0</ele><time>2026-05-03T15:32:01Z</time></trkpt><trkpt lat="43.58091607061222" lon="18.50852701044791"><ele>1116.0</ele><time>2026-05-03T15:32:02Z</time></trkpt><trkpt lat="43.58090474855279" lon="18.508435453759184"><ele>1116.0</ele><time>2026-05-03T15:32:03Z</time></trkpt><trkpt lat="43.58095408139769" lon="18.50831884988034"><ele>1116.0</ele><time>2026-05-03T15:32:05Z</time></trkpt><trkpt lat="43.58107341724024" lon="18.508313444303138"><ele>1116.0</ele><time>2026-05-03T15:32:07Z</time></trkpt><trkpt lat="43.581153587655876" lon="18.508362233004206"><ele>1116.0</ele><time>2026-05-03T15:32:08Z</time></trkpt><trkpt lat="43.581286171843686" lon="18.508452745865355"><ele>1116.0</ele><time>2026-05-03T15:32:09Z</time></trkpt><trkpt lat="43.581451161645326" lon="18.50859287075828"><ele>1116.0</ele><time>2026-05-03T15:32:10Z</time></trkpt><trkpt lat="43.58165537003239" lon="18.5087604614395"><ele>1105.5</ele><time>2026-05-03T15:32:11Z</time></trkpt><trkpt lat="43.58187259716215" lon="18.50894569561819"><ele>1095.0</ele><time>2026-05-03T15:32:12Z</time></trkpt><trkpt lat="43.58206595833859" lon="18.509133243902845"><ele>1095.0</ele><time>2026-05-03T15:32:13Z</time></trkpt><trkpt lat="43.58223115800157" lon="18.509270839512368"><ele>1095.0</ele><time>2026-05-03T15:32:14Z</time></trkpt><trkpt lat="43.58239321885885" lon="18.5093402427539"><ele>1095.0</ele><time>2026-05-03T15:32:15Z</time></trkpt><trkpt lat="43.58255238319338" lon="18.50934681041021"><ele>1095.0</ele><time>2026-05-03T15:32:16Z</time></trkpt><trkpt lat="43.58270880703344" lon="18.50929542143978"><ele>1095.0</ele><time>2026-05-03T15:32:17Z</time></trkpt><trkpt lat="43.58285774838537" lon="18.509240078451114"><ele>1095.0</ele><time>2026-05-03T15:32:18Z</time></trkpt><trkpt lat="43.58301069105641" lon="18.509200017766837"><ele>1097.25</ele><time>2026-05-03T15:32:19Z</time></trkpt><trkpt lat="43.58313138142394" lon="18.50910424640553"><ele>1099.5</ele><time>2026-05-03T15:32:20Z</time></trkpt><trkpt lat="43.583217282354155" lon="18.508955929874144"><ele>1101.75</ele><time>2026-05-03T15:32:21Z</time></trkpt><trkpt lat="43.58327664508087" lon="18.508783737113173"><ele>1104.0</ele><time>2026-05-03T15:32:22Z</time></trkpt><trkpt lat="43.5833386591553" lon="18.50866205328081"><ele>1104.0</ele><time>2026-05-03T15:32:23Z</time></trkpt><trkpt lat="43.5834098859132" lon="18.508606901691177"><ele>1104.0</ele><time>2026-05-03T15:32:24Z</time></trkpt><trkpt lat="43.583492674671426" lon="18.508607301527714"><ele>1104.0</ele><time>2026-05-03T15:32:25Z</time></trkpt><trkpt lat="43.583577906390005" lon="18.508679463570314"><ele>1104.0</ele><time>2026-05-03T15:32:26Z</time></trkpt><trkpt lat="43.58365603679523" lon="18.508806037832777"><ele>1104.0</ele><time>2026-05-03T15:32:27Z</time></trkpt><trkpt lat="43.58373658827338" lon="18.50894649730391"><ele>1100.5</ele><time>2026-05-03T15:32:28Z</time></trkpt><trkpt lat="43.58380597878356" lon="18.509109721758882"><ele>1097.0</ele><time>2026-05-03T15:32:29Z</time></trkpt><trkpt lat="43.5838452283376" lon="18.509278035860582"><ele>1093.5</ele><time>2026-05-03T15:32:30Z</time></trkpt><trkpt lat="43.58386412507474" lon="18.50944400885916"><ele>1090.0</ele><time>2026-05-03T15:32:31Z</time></trkpt><trkpt lat="43.58390665728692" lon="18.509581246348702"><ele>1084.5</ele><time>2026-05-03T15:32:32Z</time></trkpt><trkpt lat="43.58399022922529" lon="18.509680090713246"><ele>1079.0</ele><time>2026-05-03T15:32:33Z</time></trkpt><trkpt lat="43.58410281170366" lon="18.50974310530551"><ele>1073.5</ele><time>2026-05-03T15:32:34Z</time></trkpt><trkpt lat="43.584228279184714" lon="18.509810452860815"><ele>1068.0</ele><time>2026-05-03T15:32:35Z</time></trkpt><trkpt lat="43.58434978570253" lon="18.50987577801209"><ele>1068.0</ele><time>2026-05-03T15:32:36Z</time></trkpt><trkpt lat="43.58446668738334" lon="18.509913121430017"><ele>1068.0</ele><time>2026-05-03T15:32:37Z</time></trkpt><trkpt lat="43.584572087019914" lon="18.50992021418955"><ele>1068.0</ele><time>2026-05-03T15:32:38Z</time></trkpt><trkpt lat="43.5846789477973" lon="18.509893428512342"><ele>1068.0</ele><time>2026-05-03T15:32:39Z</time></trkpt><trkpt lat="43.58479115744586" lon="18.509857088136425"><ele>1068.0</ele><time>2026-05-03T15:32:40Z</time></trkpt><trkpt lat="43.58489780532334" lon="18.509841546790643"><ele>1069.0</ele><time>2026-05-03T15:32:41Z</time></trkpt><trkpt lat="43.58500285147812" lon="18.50988469305412"><ele>1070.0</ele><time>2026-05-03T15:32:42Z</time></trkpt><trkpt lat="43.58509646561681" lon="18.509978235458775"><ele>1071.0</ele><time>2026-05-03T15:32:43Z</time></trkpt><trkpt lat="43.58515982700852" lon="18.510118185997527"><ele>1072.0</ele><time>2026-05-03T15:32:44Z</time></trkpt><trkpt lat="43.58522139538487" lon="18.510264788716274"><ele>1072.0</ele><time>2026-05-03T15:32:45Z</time></trkpt><trkpt lat="43.5853051401167" lon="18.510395478634905"><ele>1072.0</ele><time>2026-05-03T15:32:46Z</time></trkpt><trkpt lat="43.58540546311437" lon="18.51050039219091"><ele>1072.0</ele><time>2026-05-03T15:32:47Z</time></trkpt><trkpt lat="43.58551200877878" lon="18.510597608011324"><ele>1072.0</ele><time>2026-05-03T15:32:48Z</time></trkpt><trkpt lat="43.58562558502141" lon="18.51067522581612"><ele>1068.0</ele><time>2026-05-03T15:32:49Z</time></trkpt><trkpt lat="43.58574708895369" lon="18.510708779009978"><ele>1064.0</ele><time>2026-05-03T15:32:50Z</time></trkpt><trkpt lat="43.585869890948224" lon="18.510716458412446"><ele>1060.0</ele><time>2026-05-03T15:32:51Z</time></trkpt><trkpt lat="43.585993015512265" lon="18.51069256995045"><ele>1056.0</ele><time>2026-05-03T15:32:52Z</time></trkpt><trkpt lat="43.58612866428928" lon="18.510655011240317"><ele>1055.0</ele><time>2026-05-03T15:32:53Z</time></trkpt><trkpt lat="43.58626207205353" lon="18.510624852343117"><ele>1054.0</ele><time>2026-05-03T15:32:54Z</time></trkpt><trkpt lat="43.586386342154476" lon="18.510602964356362"><ele>1053.0</ele><time>2026-05-03T15:32:55Z</time></trkpt><trkpt lat="43.58650534592727" lon="18.51058113728324"><ele>1052.0</ele><time>2026-05-03T15:32:56Z</time></trkpt><trkpt lat="43.58663528148938" lon="18.510540574957385"><ele>1052.0</ele><time>2026-05-03T15:32:57Z</time></trkpt><trkpt lat="43.58675541388836" lon="18.510473759761503"><ele>1052.0</ele><time>2026-05-03T15:32:58Z</time></trkpt><trkpt lat="43.586866554165425" lon="18.510380610698466"><ele>1052.0</ele><time>2026-05-03T15:32:59Z</time></trkpt><trkpt lat="43.5869665978107" lon="18.51028134376436"><ele>1052.0</ele><time>2026-05-03T15:33:00Z</time></trkpt><trkpt lat="43.5870605109234" lon="18.510183897887067"><ele>1052.0</ele><time>2026-05-03T15:33:01Z</time></trkpt><trkpt lat="43.58715710408459" lon="18.510105072467475"><ele>1052.0</ele><time>2026-05-03T15:33:02Z</time></trkpt><trkpt lat="43.58724849633264" lon="18.51003387783061"><ele>1052.0</ele><time>2026-05-03T15:33:03Z</time></trkpt><trkpt lat="43.58734369174088" lon="18.509978106016383"><ele>1052.0</ele><time>2026-05-03T15:33:04Z</time></trkpt><trkpt lat="43.5874381867838" lon="18.509936717133044"><ele>1052.0</ele><time>2026-05-03T15:33:05Z</time></trkpt><trkpt lat="43.58753156220859" lon="18.509917439101557"><ele>1052.0</ele><time>2026-05-03T15:33:06Z</time></trkpt><trkpt lat="43.58762732761589" lon="18.509929127434475"><ele>1052.0</ele><time>2026-05-03T15:33:07Z</time></trkpt><trkpt lat="43.587734774325725" lon="18.509961994972624"><ele>1052.0</ele><time>2026-05-03T15:33:08Z</time></trkpt><trkpt lat="43.58783906479662" lon="18.50999373402312"><ele>1052.0</ele><time>2026-05-03T15:33:09Z</time></trkpt><trkpt lat="43.587960002708094" lon="18.509996058981777"><ele>1052.0</ele><time>2026-05-03T15:33:10Z</time></trkpt><trkpt lat="43.588066657888994" lon="18.50994248737625"><ele>1050.5</ele><time>2026-05-03T15:33:11Z</time></trkpt><trkpt lat="43.58817226473239" lon="18.509843590102268"><ele>1049.0</ele><time>2026-05-03T15:33:12Z</time></trkpt><trkpt lat="43.588260054654015" lon="18.509707744153012"><ele>1047.5</ele><time>2026-05-03T15:33:13Z</time></trkpt><trkpt lat="43.588335508509545" lon="18.5095540699214"><ele>1046.0</ele><time>2026-05-03T15:33:14Z</time></trkpt><trkpt lat="43.588411907621605" lon="18.509394253379842"><ele>1046.0</ele><time>2026-05-03T15:33:15Z</time></trkpt><trkpt lat="43.58848836650703" lon="18.509234305101472"><ele>1046.0</ele><time>2026-05-03T15:33:16Z</time></trkpt><trkpt lat="43.58856923669224" lon="18.509076657493985"><ele>1046.0</ele><time>2026-05-03T15:33:17Z</time></trkpt><trkpt lat="43.588661354764" lon="18.50890585963493"><ele>1046.0</ele><time>2026-05-03T15:33:18Z</time></trkpt><trkpt lat="43.588762408111336" lon="18.508721551409586"><ele>1043.3333333333335</ele><time>2026-05-03T15:33:19Z</time></trkpt><trkpt lat="43.588880815375646" lon="18.508525518148584"><ele>1040.6666666666667</ele><time>2026-05-03T15:33:20Z</time></trkpt><trkpt lat="43.5890252656465" lon="18.508329629076467"><ele>1038.0</ele><time>2026-05-03T15:33:21Z</time></trkpt><trkpt lat="43.589183427420565" lon="18.508138856324834"><ele>1038.0</ele><time>2026-05-03T15:33:22Z</time></trkpt><trkpt lat="43.589351623358844" lon="18.507945002216463"><ele>1038.0</ele><time>2026-05-03T15:33:23Z</time></trkpt><trkpt lat="43.58952340495902" lon="18.50776520647337"><ele>1038.0</ele><time>2026-05-03T15:33:24Z</time></trkpt><trkpt lat="43.58969604312292" lon="18.507561660958093"><ele>1036.0</ele><time>2026-05-03T15:33:25Z</time></trkpt><trkpt lat="43.58987912601916" lon="18.507359791928806"><ele>1034.0</ele><time>2026-05-03T15:33:26Z</time></trkpt><trkpt lat="43.59004254365584" lon="18.5071741847316"><ele>1032.0</ele><time>2026-05-03T15:33:27Z</time></trkpt><trkpt lat="43.59019434282023" lon="18.507003315237455"><ele>1030.75</ele><time>2026-05-03T15:33:28Z</time></trkpt><trkpt lat="43.5903187676216" lon="18.506851427557113"><ele>1029.5</ele><time>2026-05-03T15:33:29Z</time></trkpt><trkpt lat="43.590426273704956" lon="18.50674949516415"><ele>1028.25</ele><time>2026-05-03T15:33:30Z</time></trkpt><trkpt lat="43.59054293085037" lon="18.506688679174076"><ele>1027.0</ele><time>2026-05-03T15:33:31Z</time></trkpt><trkpt lat="43.59067725214352" lon="18.506692187786573"><ele>1027.0</ele><time>2026-05-03T15:33:32Z</time></trkpt><trkpt lat="43.59081230985431" lon="18.50671707965265"><ele>1027.0</ele><time>2026-05-03T15:33:33Z</time></trkpt><trkpt lat="43.59095826418765" lon="18.506704313008775"><ele>1027.0</ele><time>2026-05-03T15:33:34Z</time></trkpt><trkpt lat="43.59110849846711" lon="18.506618969172813"><ele>1027.0</ele><time>2026-05-03T15:33:35Z</time></trkpt><trkpt lat="43.5912324142931" lon="18.50649654075682"><ele>1025.75</ele><time>2026-05-03T15:33:36Z</time></trkpt><trkpt lat="43.591337135266315" lon="18.506370606113634"><ele>1024.5</ele><time>2026-05-03T15:33:37Z</time></trkpt><trkpt lat="43.59144949518745" lon="18.50624361489914"><ele>1023.25</ele><time>2026-05-03T15:33:38Z</time></trkpt><trkpt lat="43.591567532416505" lon="18.50612214179555"><ele>1022.0</ele><time>2026-05-03T15:33:39Z</time></trkpt><trkpt lat="43.59168014063739" lon="18.50603140601237"><ele>1022.0</ele><time>2026-05-03T15:33:40Z</time></trkpt><trkpt lat="43.59177174356071" lon="18.505901685644787"><ele>1022.0</ele><time>2026-05-03T15:33:41Z</time></trkpt><trkpt lat="43.59183759767023" lon="18.505773132204432"><ele>1022.0</ele><time>2026-05-03T15:33:42Z</time></trkpt><trkpt lat="43.59186590068032" lon="18.505626045905355"><ele>1022.0</ele><time>2026-05-03T15:33:43Z</time></trkpt><trkpt lat="43.59185471865964" lon="18.50546768096438"><ele>1020.75</ele><time>2026-05-03T15:33:44Z</time></trkpt><trkpt lat="43.59181352872561" lon="18.505312806757004"><ele>1019.5</ele><time>2026-05-03T15:33:45Z</time></trkpt><trkpt lat="43.59173965714379" lon="18.505166196402865"><ele>1018.25</ele><time>2026-05-03T15:33:46Z</time></trkpt><trkpt lat="43.591654951871355" lon="18.50501119369712"><ele>1017.0</ele><time>2026-05-03T15:33:47Z</time></trkpt><trkpt lat="43.591552656444264" lon="18.504849292135983"><ele>1017.0</ele><time>2026-05-03T15:33:48Z</time></trkpt><trkpt lat="43.59145530494575" lon="18.50469757312172"><ele>1017.0</ele><time>2026-05-03T15:33:49Z</time></trkpt><trkpt lat="43.59135450035272" lon="18.504543912237047"><ele>1017.0</ele><time>2026-05-03T15:33:50Z</time></trkpt><trkpt lat="43.59124165638517" lon="18.504412119539747"><ele>1017.0</ele><time>2026-05-03T15:33:51Z</time></trkpt><trkpt lat="43.591128816173594" lon="18.50428974923907"><ele>1018.5</ele><time>2026-05-03T15:33:52Z</time></trkpt><trkpt lat="43.59101053218601" lon="18.50418650633104"><ele>1020.0</ele><time>2026-05-03T15:33:53Z</time></trkpt><trkpt lat="43.59090273593307" lon="18.504096598357535"><ele>1021.5</ele><time>2026-05-03T15:33:54Z</time></trkpt><trkpt lat="43.59079790262706" lon="18.5039947540356"><ele>1023.0</ele><time>2026-05-03T15:33:55Z</time></trkpt><trkpt lat="43.59071535774082" lon="18.503900134946544"><ele>1023.0</ele><time>2026-05-03T15:33:56Z</time></trkpt><trkpt lat="43.59065393297904" lon="18.503812335596443"><ele>1023.0</ele><time>2026-05-03T15:33:57Z</time></trkpt><trkpt lat="43.5906341847588" lon="18.503720192917257"><ele>1023.0</ele><time>2026-05-03T15:33:58Z</time></trkpt><trkpt lat="43.59064933399552" lon="18.503627176570372"><ele>1023.0</ele><time>2026-05-03T15:33:59Z</time></trkpt><trkpt lat="43.59070360223813" lon="18.503538826762547"><ele>1023.0</ele><time>2026-05-03T15:34:00Z</time></trkpt><trkpt lat="43.59078958676864" lon="18.50345492121668"><ele>1023.0</ele><time>2026-05-03T15:34:01Z</time></trkpt><trkpt lat="43.590888940246025" lon="18.503390104280097"><ele>1022.5</ele><time>2026-05-03T15:34:02Z</time></trkpt><trkpt lat="43.591000866364425" lon="18.503375370264127"><ele>1022.0</ele><time>2026-05-03T15:34:03Z</time></trkpt><trkpt lat="43.5911245766708" lon="18.503436580976864"><ele>1021.5</ele><time>2026-05-03T15:34:04Z</time></trkpt><trkpt lat="43.59124872456011" lon="18.503554977113808"><ele>1021.0</ele><time>2026-05-03T15:34:05Z</time></trkpt><trkpt lat="43.59137609860679" lon="18.503649387283627"><ele>1022.6666666666666</ele><time>2026-05-03T15:34:06Z</time></trkpt><trkpt lat="43.59153269001736" lon="18.50373856528372"><ele>1024.3333333333333</ele><time>2026-05-03T15:34:07Z</time></trkpt><trkpt lat="43.59168287768702" lon="18.503815276703758"><ele>1026.0</ele><time>2026-05-03T15:34:08Z</time></trkpt><trkpt lat="43.59181356086179" lon="18.503895865072018"><ele>1022.25</ele><time>2026-05-03T15:34:09Z</time></trkpt><trkpt lat="43.59193997510314" lon="18.503971758891915"><ele>1018.5</ele><time>2026-05-03T15:34:10Z</time></trkpt><trkpt lat="43.59206207948252" lon="18.50401346346619"><ele>1014.75</ele><time>2026-05-03T15:34:11Z</time></trkpt><trkpt lat="43.59220765151459" lon="18.504012820482078"><ele>1011.0</ele><time>2026-05-03T15:34:12Z</time></trkpt><trkpt lat="43.59233991895351" lon="18.50397521482712"><ele>1008.25</ele><time>2026-05-03T15:34:13Z</time></trkpt><trkpt lat="43.59247621245744" lon="18.503962119203102"><ele>1005.5</ele><time>2026-05-03T15:34:14Z</time></trkpt><trkpt lat="43.59259484667115" lon="18.503994369116253"><ele>1002.75</ele><time>2026-05-03T15:34:15Z</time></trkpt><trkpt lat="43.592701297611654" lon="18.504064899695262"><ele>1000.0</ele><time>2026-05-03T15:34:16Z</time></trkpt><trkpt lat="43.592819504170244" lon="18.50408919064998"><ele>997.5</ele><time>2026-05-03T15:34:17Z</time></trkpt><trkpt lat="43.592933400285546" lon="18.50404308622958"><ele>995.0</ele><time>2026-05-03T15:34:18Z</time></trkpt><trkpt lat="43.593035177683795" lon="18.503928544021782"><ele>992.5</ele><time>2026-05-03T15:34:19Z</time></trkpt><trkpt lat="43.59312615164213" lon="18.503774436503065"><ele>990.0</ele><time>2026-05-03T15:34:20Z</time></trkpt><trkpt lat="43.59319644675631" lon="18.50358562146056"><ele>990.0</ele><time>2026-05-03T15:34:21Z</time></trkpt><trkpt lat="43.59326463145453" lon="18.50338676174428"><ele>990.0</ele><time>2026-05-03T15:34:22Z</time></trkpt><trkpt lat="43.59332105335023" lon="18.503171273830922"><ele>990.0</ele><time>2026-05-03T15:34:23Z</time></trkpt><trkpt lat="43.593363632060374" lon="18.5029498693694"><ele>994.0</ele><time>2026-05-03T15:34:24Z</time></trkpt><trkpt lat="43.593401011431176" lon="18.502719089668908"><ele>998.0</ele><time>2026-05-03T15:34:25Z</time></trkpt><trkpt lat="43.593435739706855" lon="18.5024858444037"><ele>1002.0</ele><time>2026-05-03T15:34:26Z</time></trkpt><trkpt lat="43.59347891588437" lon="18.502259289791706"><ele>1003.3333333333333</ele><time>2026-05-03T15:34:27Z</time></trkpt><trkpt lat="43.59352774513309" lon="18.502038130950112"><ele>1004.6666666666666</ele><time>2026-05-03T15:34:28Z</time></trkpt><trkpt lat="43.59355395231888" lon="18.501802515195113"><ele>1006.0</ele><time>2026-05-03T15:34:29Z</time></trkpt><trkpt lat="43.59357851493424" lon="18.501567216138447"><ele>1006.0</ele><time>2026-05-03T15:34:30Z</time></trkpt><trkpt lat="43.5935681001697" lon="18.501318414012317"><ele>1006.0</ele><time>2026-05-03T15:34:31Z</time></trkpt><trkpt lat="43.59353804341522" lon="18.50108313255158"><ele>1006.0</ele><time>2026-05-03T15:34:32Z</time></trkpt><trkpt lat="43.59349260826388" lon="18.500871495046805"><ele>1005.75</ele><time>2026-05-03T15:34:33Z</time></trkpt><trkpt lat="43.593447772238996" lon="18.500673838313357"><ele>1005.5</ele><time>2026-05-03T15:34:34Z</time></trkpt><trkpt lat="43.59344342804341" lon="18.5004788789057"><ele>1005.25</ele><time>2026-05-03T15:34:35Z</time></trkpt><trkpt lat="43.593477623551834" lon="18.500277819783363"><ele>1005.0</ele><time>2026-05-03T15:34:36Z</time></trkpt><trkpt lat="43.593568816380255" lon="18.50009743026833"><ele>993.3333333333333</ele><time>2026-05-03T15:34:37Z</time></trkpt><trkpt lat="43.593695113716755" lon="18.49993431426161"><ele>981.6666666666666</ele><time>2026-05-03T15:34:38Z</time></trkpt><trkpt lat="43.59384198795692" lon="18.499787037930048"><ele>970.0</ele><time>2026-05-03T15:34:39Z</time></trkpt><trkpt lat="43.5939986474518" lon="18.499666688596015"><ele>970.0</ele><time>2026-05-03T15:34:40Z</time></trkpt><trkpt lat="43.594147832126254" lon="18.499596354808766"><ele>970.0</ele><time>2026-05-03T15:34:41Z</time></trkpt><trkpt lat="43.59428684574151" lon="18.499554513297408"><ele>970.0</ele><time>2026-05-03T15:34:42Z</time></trkpt><trkpt lat="43.59439626301579" lon="18.499495953833648"><ele>970.0</ele><time>2026-05-03T15:34:43Z</time></trkpt><trkpt lat="43.59446043238293" lon="18.49937349390196"><ele>972.3333333333333</ele><time>2026-05-03T15:34:44Z</time></trkpt><trkpt lat="43.59448844123885" lon="18.499179547075205"><ele>974.6666666666667</ele><time>2026-05-03T15:34:45Z</time></trkpt><trkpt lat="43.594478928281966" lon="18.498952730420893"><ele>977.0</ele><time>2026-05-03T15:34:46Z</time></trkpt><trkpt lat="43.59446365659589" lon="18.498706261602653"><ele>977.6666666666667</ele><time>2026-05-03T15:34:47Z</time></trkpt><trkpt lat="43.5944869163615" lon="18.498456029899813"><ele>978.3333333333333</ele><time>2026-05-03T15:34:48Z</time></trkpt><trkpt lat="43.59454250097219" lon="18.498214001023143"><ele>979.0</ele><time>2026-05-03T15:34:49Z</time></trkpt><trkpt lat="43.59459481150403" lon="18.49797711091874"><ele>972.3333333333333</ele><time>2026-05-03T15:34:50Z</time></trkpt><trkpt lat="43.594624837362225" lon="18.497747528850688"><ele>965.6666666666667</ele><time>2026-05-03T15:34:51Z</time></trkpt><trkpt lat="43.59463691368282" lon="18.497520274388403"><ele>959.0</ele><time>2026-05-03T15:34:52Z</time></trkpt><trkpt lat="43.59463774854277" lon="18.497298471829374"><ele>959.5</ele><time>2026-05-03T15:34:53Z</time></trkpt><trkpt lat="43.59464059386896" lon="18.497082316806576"><ele>960.0</ele><time>2026-05-03T15:34:54Z</time></trkpt><trkpt lat="43.59468635680746" lon="18.496900485216372"><ele>960.5</ele><time>2026-05-03T15:34:55Z</time></trkpt><trkpt lat="43.59476821023965" lon="18.496753938836413"><ele>961.0</ele><time>2026-05-03T15:34:56Z</time></trkpt><trkpt lat="43.59488091880063" lon="18.4966842823261"><ele>961.0</ele><time>2026-05-03T15:34:57Z</time></trkpt><trkpt lat="43.5949995217837" lon="18.49669140347395"><ele>961.0</ele><time>2026-05-03T15:34:58Z</time></trkpt><trkpt lat="43.59512916441663" lon="18.49675383366978"><ele>961.0</ele><time>2026-05-03T15:34:59Z</time></trkpt><trkpt lat="43.59525551319403" lon="18.496845154542008"><ele>961.0</ele><time>2026-05-03T15:35:00Z</time></trkpt><trkpt lat="43.59537488336911" lon="18.496937863363865"><ele>961.0</ele><time>2026-05-03T15:35:01Z</time></trkpt><trkpt lat="43.59548629471368" lon="18.497012368639933"><ele>960.9999999999999</ele><time>2026-05-03T15:35:02Z</time></trkpt><trkpt lat="43.5955903848979" lon="18.497078315892068"><ele>960.9999999999999</ele><time>2026-05-03T15:35:03Z</time></trkpt><trkpt lat="43.59568296839951" lon="18.49713323626017"><ele>961.0</ele><time>2026-05-03T15:35:04Z</time></trkpt><trkpt lat="43.595758158572295" lon="18.497173510479744"><ele>961.0</ele><time>2026-05-03T15:35:05Z</time></trkpt><trkpt lat="43.595833870676984" lon="18.497196404397332"><ele>961.0</ele><time>2026-05-03T15:35:07Z</time></trkpt><trkpt lat="43.59593670292062" lon="18.49712720463851"><ele>960.9999999999999</ele><time>2026-05-03T15:35:10Z</time></trkpt><trkpt lat="43.59597172233042" lon="18.49703323134543"><ele>960.9999999999999</ele><time>2026-05-03T15:35:11Z</time></trkpt><trkpt lat="43.596010031673764" lon="18.496932830722283"><ele>961.0</ele><time>2026-05-03T15:35:12Z</time></trkpt><trkpt lat="43.59606314614375" lon="18.496835869380412"><ele>961.0</ele><time>2026-05-03T15:35:13Z</time></trkpt><trkpt lat="43.596138262803315" lon="18.496727496615144"><ele>961.25</ele><time>2026-05-03T15:35:14Z</time></trkpt><trkpt lat="43.59623214162582" lon="18.496617386117453"><ele>961.5</ele><time>2026-05-03T15:35:15Z</time></trkpt><trkpt lat="43.59634467574008" lon="18.496500328774115"><ele>961.75</ele><time>2026-05-03T15:35:16Z</time></trkpt><trkpt lat="43.596479862087776" lon="18.49637697414282"><ele>962.0</ele><time>2026-05-03T15:35:17Z</time></trkpt><trkpt lat="43.59664008943323" lon="18.496248499498325"><ele>962.0</ele><time>2026-05-03T15:35:18Z</time></trkpt><trkpt lat="43.596827118134044" lon="18.496115820864063"><ele>962.0</ele><time>2026-05-03T15:35:19Z</time></trkpt><trkpt lat="43.59704227120307" lon="18.495969833402096"><ele>969.0</ele><time>2026-05-03T15:35:20Z</time></trkpt><trkpt lat="43.597280329886544" lon="18.495792688256184"><ele>976.0</ele><time>2026-05-03T15:35:21Z</time></trkpt><trkpt lat="43.597534006044036" lon="18.49557467570746"><ele>980.0</ele><time>2026-05-03T15:35:22Z</time></trkpt><trkpt lat="43.597789753046506" lon="18.495331074648576"><ele>984.0</ele><time>2026-05-03T15:35:23Z</time></trkpt><trkpt lat="43.598061295608176" lon="18.49507160186452"><ele>984.0</ele><time>2026-05-03T15:35:24Z</time></trkpt><trkpt lat="43.598319487023204" lon="18.494816523463964"><ele>984.0</ele><time>2026-05-03T15:35:25Z</time></trkpt><trkpt lat="43.59855843116853" lon="18.49456018160405"><ele>986.0</ele><time>2026-05-03T15:35:26Z</time></trkpt><trkpt lat="43.59877901829159" lon="18.49430208499175"><ele>988.0</ele><time>2026-05-03T15:35:27Z</time></trkpt><trkpt lat="43.59898693513081" lon="18.494040416258564"><ele>988.0</ele><time>2026-05-03T15:35:28Z</time></trkpt><trkpt lat="43.599179427898726" lon="18.493775347216275"><ele>988.0</ele><time>2026-05-03T15:35:29Z</time></trkpt><trkpt lat="43.59935967523988" lon="18.49350401350893"><ele>995.5</ele><time>2026-05-03T15:35:30Z</time></trkpt><trkpt lat="43.59952814550946" lon="18.49322908915452"><ele>1003.0</ele><time>2026-05-03T15:35:31Z</time></trkpt><trkpt lat="43.599707864235185" lon="18.492942924239735"><ele>992.0</ele><time>2026-05-03T15:35:32Z</time></trkpt><trkpt lat="43.599887602269824" lon="18.492664811805227"><ele>981.0</ele><time>2026-05-03T15:35:33Z</time></trkpt><trkpt lat="43.60007315432976" lon="18.492381950632797"><ele>986.0</ele><time>2026-05-03T15:35:34Z</time></trkpt><trkpt lat="43.60026028377608" lon="18.492089491712854"><ele>991.0</ele><time>2026-05-03T15:35:35Z</time></trkpt><trkpt lat="43.600440745733245" lon="18.49179066490866"><ele>991.0</ele><time>2026-05-03T15:35:36Z</time></trkpt><trkpt lat="43.600618959173374" lon="18.491476699984972"><ele>991.0</ele><time>2026-05-03T15:35:37Z</time></trkpt><trkpt lat="43.60079524684683" lon="18.4911657413503"><ele>983.5</ele><time>2026-05-03T15:35:38Z</time></trkpt><trkpt lat="43.600971948154815" lon="18.490855459382658"><ele>976.0</ele><time>2026-05-03T15:35:39Z</time></trkpt><trkpt lat="43.60114929831656" lon="18.490557222006274"><ele>981.0</ele><time>2026-05-03T15:35:40Z</time></trkpt><trkpt lat="43.60133288499887" lon="18.49027748886277"><ele>986.0</ele><time>2026-05-03T15:35:41Z</time></trkpt><trkpt lat="43.60146571912535" lon="18.489959086052057"><ele>986.0</ele><time>2026-05-03T15:35:42Z</time></trkpt><trkpt lat="43.60159062253807" lon="18.48964402362796"><ele>986.0</ele><time>2026-05-03T15:35:43Z</time></trkpt><trkpt lat="43.601691551880876" lon="18.489322427537804"><ele>984.0</ele><time>2026-05-03T15:35:44Z</time></trkpt><trkpt lat="43.60177198944076" lon="18.488994956134633"><ele>982.0</ele><time>2026-05-03T15:35:45Z</time></trkpt><trkpt lat="43.601893864469474" lon="18.4887264295925"><ele>989.0</ele><time>2026-05-03T15:35:46Z</time></trkpt><trkpt lat="43.60203828885826" lon="18.488472493054953"><ele>996.0</ele><time>2026-05-03T15:35:47Z</time></trkpt><trkpt lat="43.602203842396676" lon="18.48823349234402"><ele>996.0</ele><time>2026-05-03T15:35:48Z</time></trkpt><trkpt lat="43.60237820957442" lon="18.48798109972101"><ele>996.0</ele><time>2026-05-03T15:35:49Z</time></trkpt><trkpt lat="43.602547886846814" lon="18.487735548447464"><ele>1002.5</ele><time>2026-05-03T15:35:50Z</time></trkpt><trkpt lat="43.602696037949016" lon="18.487490110998046"><ele>1009.0</ele><time>2026-05-03T15:35:51Z</time></trkpt><trkpt lat="43.60285307338716" lon="18.48724985527708"><ele>1001.0</ele><time>2026-05-03T15:35:52Z</time></trkpt><trkpt lat="43.602996581369965" lon="18.486990320705303"><ele>993.0</ele><time>2026-05-03T15:35:53Z</time></trkpt><trkpt lat="43.60312270130657" lon="18.486714104576272"><ele>993.0</ele><time>2026-05-03T15:35:54Z</time></trkpt><trkpt lat="43.603225592344884" lon="18.48642562870884"><ele>993.0</ele><time>2026-05-03T15:35:55Z</time></trkpt><trkpt lat="43.60331458794067" lon="18.48610348672863"><ele>986.0</ele><time>2026-05-03T15:35:56Z</time></trkpt><trkpt lat="43.603401297145915" lon="18.4857640722859"><ele>979.0</ele><time>2026-05-03T15:35:57Z</time></trkpt><trkpt lat="43.60350057597144" lon="18.485408607383864"><ele>977.0</ele><time>2026-05-03T15:35:58Z</time></trkpt><trkpt lat="43.60359427803398" lon="18.485046221836765"><ele>975.0</ele><time>2026-05-03T15:35:59Z</time></trkpt><trkpt lat="43.60369453525421" lon="18.484664965981242"><ele>986.5</ele><time>2026-05-03T15:36:00Z</time></trkpt><trkpt lat="43.603803182657636" lon="18.48425191589197"><ele>998.0</ele><time>2026-05-03T15:36:01Z</time></trkpt><trkpt lat="43.60391633313613" lon="18.48382148244252"><ele>998.5</ele><time>2026-05-03T15:36:02Z</time></trkpt><trkpt lat="43.60402590018785" lon="18.48340047555442"><ele>999.0</ele><time>2026-05-03T15:36:03Z</time></trkpt><trkpt lat="43.60412401092264" lon="18.48300659579767"><ele>996.5</ele><time>2026-05-03T15:36:04Z</time></trkpt><trkpt lat="43.60420360314307" lon="18.48263903074328"><ele>994.0</ele><time>2026-05-03T15:36:05Z</time></trkpt><trkpt lat="43.60426217251361" lon="18.482281434084673"><ele>994.5</ele><time>2026-05-03T15:36:06Z</time></trkpt><trkpt lat="43.60430630792284" lon="18.48193109971806"><ele>995.0</ele><time>2026-05-03T15:36:07Z</time></trkpt><trkpt lat="43.604330125100454" lon="18.48157332429212"><ele>994.3333333333334</ele><time>2026-05-03T15:36:08Z</time></trkpt><trkpt lat="43.60432154856011" lon="18.48123943047549"><ele>993.6666666666667</ele><time>2026-05-03T15:36:09Z</time></trkpt><trkpt lat="43.60432866633591" lon="18.48097250165757"><ele>993.0</ele><time>2026-05-03T15:36:10Z</time></trkpt><trkpt lat="43.60434309867796" lon="18.480751484220036"><ele>993.0</ele><time>2026-05-03T15:36:11Z</time></trkpt><trkpt lat="43.60438098674222" lon="18.480575566758056"><ele>993.0</ele><time>2026-05-03T15:36:12Z</time></trkpt><trkpt lat="43.60444266640641" lon="18.480430156182"><ele>993.0</ele><time>2026-05-03T15:36:13Z</time></trkpt><trkpt lat="43.6045389317909" lon="18.480323746949608"><ele>993.0</ele><time>2026-05-03T15:36:14Z</time></trkpt><trkpt lat="43.60465662109588" lon="18.48025819743396"><ele>995.3333333333333</ele><time>2026-05-03T15:36:15Z</time></trkpt><trkpt lat="43.60479562192857" lon="18.48024114558654"><ele>997.6666666666666</ele><time>2026-05-03T15:36:16Z</time></trkpt><trkpt lat="43.60494918368584" lon="18.480249638690957"><ele>1000.0</ele><time>2026-05-03T15:36:17Z</time></trkpt><trkpt lat="43.605133148448374" lon="18.48027258956107"><ele>1002.6666666666666</ele><time>2026-05-03T15:36:18Z</time></trkpt><trkpt lat="43.60533152300485" lon="18.4803034927331"><ele>1005.3333333333333</ele><time>2026-05-03T15:36:19Z</time></trkpt><trkpt lat="43.60552505199081" lon="18.48039625250865"><ele>1008.0</ele><time>2026-05-03T15:36:20Z</time></trkpt><trkpt lat="43.60571532933404" lon="18.480464781522723"><ele>1016.0</ele><time>2026-05-03T15:36:21Z</time></trkpt><trkpt lat="43.6058922765497" lon="18.480511898075534"><ele>1024.0</ele><time>2026-05-03T15:36:22Z</time></trkpt><trkpt lat="43.60606126190676" lon="18.480539029082088"><ele>1032.0</ele><time>2026-05-03T15:36:23Z</time></trkpt><trkpt lat="43.60624100755831" lon="18.480498195883985"><ele>1034.0</ele><time>2026-05-03T15:36:24Z</time></trkpt><trkpt lat="43.60647137779039" lon="18.48044719983783"><ele>1036.0</ele><time>2026-05-03T15:36:25Z</time></trkpt><trkpt lat="43.60671456129361" lon="18.480383443244655"><ele>1029.0</ele><time>2026-05-03T15:36:26Z</time></trkpt><trkpt lat="43.60696074076459" lon="18.480317242938902"><ele>1022.0</ele><time>2026-05-03T15:36:27Z</time></trkpt><trkpt lat="43.60719233817996" lon="18.480258514517157"><ele>1022.0</ele><time>2026-05-03T15:36:28Z</time></trkpt><trkpt lat="43.60739918863947" lon="18.48020508146188"><ele>1022.0</ele><time>2026-05-03T15:36:29Z</time></trkpt><trkpt lat="43.607594196800974" lon="18.480151724210078"><ele>1022.0</ele><time>2026-05-03T15:36:30Z</time></trkpt><trkpt lat="43.60777845737216" lon="18.480111602509993"><ele>1022.6666666666667</ele><time>2026-05-03T15:36:31Z</time></trkpt><trkpt lat="43.60796744788988" lon="18.48008487094378"><ele>1023.3333333333333</ele><time>2026-05-03T15:36:32Z</time></trkpt><trkpt lat="43.60813461488915" lon="18.48010563920649"><ele>1024.0</ele><time>2026-05-03T15:36:33Z</time></trkpt><trkpt lat="43.60826966178192" lon="18.480166019510676"><ele>1024.0</ele><time>2026-05-03T15:36:34Z</time></trkpt><trkpt lat="43.6084048143601" lon="18.480258375436627"><ele>1024.0</ele><time>2026-05-03T15:36:35Z</time></trkpt><trkpt lat="43.60853499957551" lon="18.480384599264635"><ele>1024.0</ele><time>2026-05-03T15:36:36Z</time></trkpt><trkpt lat="43.608632328980576" lon="18.480568337768496"><ele>1029.6666666666665</ele><time>2026-05-03T15:36:37Z</time></trkpt><trkpt lat="43.608707862616036" lon="18.480766410907563"><ele>1035.3333333333333</ele><time>2026-05-03T15:36:38Z</time></trkpt><trkpt lat="43.6087540281395" lon="18.481005041818015"><ele>1041.0</ele><time>2026-05-03T15:36:39Z</time></trkpt><trkpt lat="43.608809915101844" lon="18.481216829953347"><ele>1043.5</ele><time>2026-05-03T15:36:40Z</time></trkpt><trkpt lat="43.60886882882388" lon="18.48141138655314"><ele>1046.0</ele><time>2026-05-03T15:36:41Z</time></trkpt><trkpt lat="43.608945257219" lon="18.481539932892808"><ele>1048.5</ele><time>2026-05-03T15:36:42Z</time></trkpt><trkpt lat="43.609030572999906" lon="18.481614816174694"><ele>1051.0</ele><time>2026-05-03T15:36:43Z</time></trkpt><trkpt lat="43.609135923971046" lon="18.481626763250198"><ele>1051.0</ele><time>2026-05-03T15:36:44Z</time></trkpt><trkpt lat="43.60923076145709" lon="18.48157158199878"><ele>1051.0</ele><time>2026-05-03T15:36:45Z</time></trkpt><trkpt lat="43.60930769478953" lon="18.481477314420626"><ele>1051.0</ele><time>2026-05-03T15:36:46Z</time></trkpt><trkpt lat="43.60933032113269" lon="18.481286020323655"><ele>1051.0</ele><time>2026-05-03T15:36:47Z</time></trkpt><trkpt lat="43.60932179077416" lon="18.481067592858984"><ele>1047.6666666666665</ele><time>2026-05-03T15:36:48Z</time></trkpt><trkpt lat="43.60931105889794" lon="18.48084112324899"><ele>1044.3333333333333</ele><time>2026-05-03T15:36:49Z</time></trkpt><trkpt lat="43.60930961865868" lon="18.480609110871313"><ele>1041.0</ele><time>2026-05-03T15:36:50Z</time></trkpt><trkpt lat="43.60932739219756" lon="18.480410619079166"><ele>1039.25</ele><time>2026-05-03T15:36:51Z</time></trkpt><trkpt lat="43.60937353728005" lon="18.480244894489886"><ele>1037.5</ele><time>2026-05-03T15:36:52Z</time></trkpt><trkpt lat="43.60947214433863" lon="18.48015408990632"><ele>1035.75</ele><time>2026-05-03T15:36:53Z</time></trkpt><trkpt lat="43.60957672068687" lon="18.48008066102061"><ele>1034.0</ele><time>2026-05-03T15:36:54Z</time></trkpt><trkpt lat="43.609708968900925" lon="18.480020660189506"><ele>1040.6666666666667</ele><time>2026-05-03T15:36:55Z</time></trkpt><trkpt lat="43.60987745608554" lon="18.479964402050165"><ele>1047.3333333333333</ele><time>2026-05-03T15:36:56Z</time></trkpt><trkpt lat="43.61006713498592" lon="18.479897913643715"><ele>1054.0</ele><time>2026-05-03T15:36:57Z</time></trkpt><trkpt lat="43.610247738053786" lon="18.479843314741625"><ele>1055.6666666666665</ele><time>2026-05-03T15:36:58Z</time></trkpt><trkpt lat="43.610431151461434" lon="18.47982601130493"><ele>1057.3333333333333</ele><time>2026-05-03T15:36:59Z</time></trkpt><trkpt lat="43.61061925654129" lon="18.479863603809882"><ele>1059.0</ele><time>2026-05-03T15:37:00Z</time></trkpt><trkpt lat="43.61082116301708" lon="18.479944638146044"><ele>1059.0</ele><time>2026-05-03T15:37:01Z</time></trkpt><trkpt lat="43.61100280429914" lon="18.480035559585552"><ele>1059.0</ele><time>2026-05-03T15:37:02Z</time></trkpt><trkpt lat="43.61113821742209" lon="18.480159420431775"><ele>1059.0</ele><time>2026-05-03T15:37:03Z</time></trkpt><trkpt lat="43.61125471875967" lon="18.48033010720567"><ele>1062.3333333333333</ele><time>2026-05-03T15:37:04Z</time></trkpt><trkpt lat="43.61138745710383" lon="18.48050469578987"><ele>1065.6666666666665</ele><time>2026-05-03T15:37:05Z</time></trkpt><trkpt lat="43.61155024253796" lon="18.48064139080919"><ele>1069.0</ele><time>2026-05-03T15:37:06Z</time></trkpt><trkpt lat="43.61175227380592" lon="18.480760893718852"><ele>1069.0</ele><time>2026-05-03T15:37:07Z</time></trkpt><trkpt lat="43.61198837678027" lon="18.480876800720807"><ele>1069.0</ele><time>2026-05-03T15:37:08Z</time></trkpt><trkpt lat="43.61219143982926" lon="18.481028069921532"><ele>1070.6666666666665</ele><time>2026-05-03T15:37:09Z</time></trkpt><trkpt lat="43.61236917485986" lon="18.481177052336704"><ele>1072.3333333333333</ele><time>2026-05-03T15:37:10Z</time></trkpt><trkpt lat="43.61252420383354" lon="18.481315877926548"><ele>1074.0</ele><time>2026-05-03T15:37:11Z</time></trkpt><trkpt lat="43.61266071836113" lon="18.481527092455927"><ele>1074.0</ele><time>2026-05-03T15:37:12Z</time></trkpt><trkpt lat="43.61281703945536" lon="18.481760721457718"><ele>1074.0</ele><time>2026-05-03T15:37:13Z</time></trkpt><trkpt lat="43.612988269044955" lon="18.482009761010403"><ele>1078.0</ele><time>2026-05-03T15:37:14Z</time></trkpt><trkpt lat="43.613164909371584" lon="18.482255905825607"><ele>1082.0</ele><time>2026-05-03T15:37:15Z</time></trkpt><trkpt lat="43.61333162542546" lon="18.482481491186938"><ele>1082.0</ele><time>2026-05-03T15:37:16Z</time></trkpt><trkpt lat="43.61347909461657" lon="18.482673470222387"><ele>1082.0</ele><time>2026-05-03T15:37:17Z</time></trkpt><trkpt lat="43.61361389337293" lon="18.48280468764121"><ele>1082.0</ele><time>2026-05-03T15:37:18Z</time></trkpt><trkpt lat="43.613751469682214" lon="18.48287090803497"><ele>1083.5</ele><time>2026-05-03T15:37:19Z</time></trkpt><trkpt lat="43.613911268667295" lon="18.482919934256014"><ele>1085.0</ele><time>2026-05-03T15:37:20Z</time></trkpt><trkpt lat="43.61404149784236" lon="18.482941993234252"><ele>1086.5</ele><time>2026-05-03T15:37:21Z</time></trkpt><trkpt lat="43.614149092714925" lon="18.48295921658949"><ele>1088.0</ele><time>2026-05-03T15:37:22Z</time></trkpt><trkpt lat="43.61423895896539" lon="18.482949501227587"><ele>1088.0</ele><time>2026-05-03T15:37:23Z</time></trkpt><trkpt lat="43.61430955264155" lon="18.4828629200318"><ele>1088.0</ele><time>2026-05-03T15:37:24Z</time></trkpt><trkpt lat="43.61435205128709" lon="18.482731182904946"><ele>1088.0</ele><time>2026-05-03T15:37:25Z</time></trkpt><trkpt lat="43.6143550579321" lon="18.482590761367792"><ele>1088.0</ele><time>2026-05-03T15:37:26Z</time></trkpt><trkpt lat="43.614314992544806" lon="18.48246441850627"><ele>1088.0</ele><time>2026-05-03T15:37:27Z</time></trkpt><trkpt lat="43.61422556129669" lon="18.48235920573805"><ele>1088.0</ele><time>2026-05-03T15:37:28Z</time></trkpt><trkpt lat="43.614117232060586" lon="18.482265357993015"><ele>1088.0</ele><time>2026-05-03T15:37:29Z</time></trkpt><trkpt lat="43.61402198881647" lon="18.482159899615834"><ele>1088.0</ele><time>2026-05-03T15:37:30Z</time></trkpt><trkpt lat="43.613931970393004" lon="18.482036390518594"><ele>1088.0</ele><time>2026-05-03T15:37:31Z</time></trkpt><trkpt lat="43.61385455459017" lon="18.481894475221033"><ele>1089.25</ele><time>2026-05-03T15:37:32Z</time></trkpt><trkpt lat="43.613798083882024" lon="18.481741972211115"><ele>1090.5</ele><time>2026-05-03T15:37:33Z</time></trkpt><trkpt lat="43.613782612571235" lon="18.48157002573029"><ele>1091.75</ele><time>2026-05-03T15:37:34Z</time></trkpt><trkpt lat="43.61381278265953" lon="18.481417128875126"><ele>1093.0</ele><time>2026-05-03T15:37:35Z</time></trkpt><trkpt lat="43.61385933544405" lon="18.48127465298948"><ele>1094.4</ele><time>2026-05-03T15:37:36Z</time></trkpt><trkpt lat="43.613933128030475" lon="18.481154530883178"><ele>1095.8</ele><time>2026-05-03T15:37:37Z</time></trkpt><trkpt lat="43.61401010512579" lon="18.481036113296106"><ele>1097.2</ele><time>2026-05-03T15:37:38Z</time></trkpt><trkpt lat="43.61405944918022" lon="18.480907152121475"><ele>1098.6</ele><time>2026-05-03T15:37:39Z</time></trkpt><trkpt lat="43.61406846666788" lon="18.480769837973146"><ele>1100.0</ele><time>2026-05-03T15:37:40Z</time></trkpt><trkpt lat="43.614026753764826" lon="18.480648721439728"><ele>1100.0</ele><time>2026-05-03T15:37:41Z</time></trkpt><trkpt lat="43.61395642585666" lon="18.480554032209785"><ele>1100.0</ele><time>2026-05-03T15:37:42Z</time></trkpt><trkpt lat="43.61385644843638" lon="18.48049738796546"><ele>1100.0</ele><time>2026-05-03T15:37:43Z</time></trkpt><trkpt lat="43.6137563381555" lon="18.480463231871436"><ele>1100.0</ele><time>2026-05-03T15:37:44Z</time></trkpt><trkpt lat="43.61366342242617" lon="18.480410218547245"><ele>1100.0</ele><time>2026-05-03T15:37:45Z</time></trkpt><trkpt lat="43.613591781633495" lon="18.480302667031104"><ele>1095.75</ele><time>2026-05-03T15:37:46Z</time></trkpt><trkpt lat="43.61355521649661" lon="18.4801560900201"><ele>1091.5</ele><time>2026-05-03T15:37:47Z</time></trkpt><trkpt lat="43.6135591878895" lon="18.479997955247075"><ele>1087.25</ele><time>2026-05-03T15:37:48Z</time></trkpt><trkpt lat="43.613585513657355" lon="18.479836389775326"><ele>1083.0</ele><time>2026-05-03T15:37:49Z</time></trkpt><trkpt lat="43.613648191246355" lon="18.47966930755682"><ele>1091.0</ele><time>2026-05-03T15:37:50Z</time></trkpt><trkpt lat="43.61371854849363" lon="18.47950745300487"><ele>1099.0</ele><time>2026-05-03T15:37:51Z</time></trkpt><trkpt lat="43.613790151307754" lon="18.47933646148039"><ele>1107.0</ele><time>2026-05-03T15:37:52Z</time></trkpt><trkpt lat="43.61386346797563" lon="18.479161162765216"><ele>1115.0</ele><time>2026-05-03T15:37:53Z</time></trkpt><trkpt lat="43.613936985249104" lon="18.47897584200726"><ele>1115.0</ele><time>2026-05-03T15:37:54Z</time></trkpt><trkpt lat="43.61399898195705" lon="18.478783809446913"><ele>1115.0</ele><time>2026-05-03T15:37:55Z</time></trkpt><trkpt lat="43.61403770481493" lon="18.478579130030177"><ele>1115.0</ele><time>2026-05-03T15:37:56Z</time></trkpt><trkpt lat="43.61404942586766" lon="18.47836917387858"><ele>1116.25</ele><time>2026-05-03T15:37:57Z</time></trkpt><trkpt lat="43.61402906390903" lon="18.478156611197026"><ele>1117.5</ele><time>2026-05-03T15:37:58Z</time></trkpt><trkpt lat="43.613990842648015" lon="18.477963801321227"><ele>1118.75</ele><time>2026-05-03T15:37:59Z</time></trkpt><trkpt lat="43.61391201613984" lon="18.47780998775193"><ele>1120.0</ele><time>2026-05-03T15:38:00Z</time></trkpt><trkpt lat="43.613809063746245" lon="18.477698192532046"><ele>1121.0</ele><time>2026-05-03T15:38:01Z</time></trkpt><trkpt lat="43.613689099210255" lon="18.477649638964476"><ele>1122.0</ele><time>2026-05-03T15:38:02Z</time></trkpt><trkpt lat="43.613558399840784" lon="18.477654534025753"><ele>1123.0</ele><time>2026-05-03T15:38:03Z</time></trkpt><trkpt lat="43.613415731748916" lon="18.47771659295697"><ele>1124.0</ele><time>2026-05-03T15:38:04Z</time></trkpt><trkpt lat="43.61327578261425" lon="18.47781414366208"><ele>1124.0</ele><time>2026-05-03T15:38:05Z</time></trkpt><trkpt lat="43.61313292400366" lon="18.47791199562314"><ele>1124.0</ele><time>2026-05-03T15:38:06Z</time></trkpt><trkpt lat="43.612988669269924" lon="18.477988932401956"><ele>1124.0</ele><time>2026-05-03T15:38:07Z</time></trkpt><trkpt lat="43.61283106570523" lon="18.478027975011198"><ele>1117.0</ele><time>2026-05-03T15:38:08Z</time></trkpt><trkpt lat="43.61266310365821" lon="18.478033984331613"><ele>1110.0</ele><time>2026-05-03T15:38:09Z</time></trkpt><trkpt lat="43.612494948311365" lon="18.47799536398353"><ele>1103.0</ele><time>2026-05-03T15:38:10Z</time></trkpt><trkpt lat="43.61235448339622" lon="18.477938321407525"><ele>1109.0</ele><time>2026-05-03T15:38:11Z</time></trkpt><trkpt lat="43.612239783239986" lon="18.477836969578092"><ele>1115.0</ele><time>2026-05-03T15:38:12Z</time></trkpt><trkpt lat="43.61215982292828" lon="18.4776964449895"><ele>1121.0</ele><time>2026-05-03T15:38:13Z</time></trkpt><trkpt lat="43.61212098622683" lon="18.477531888939797"><ele>1127.0</ele><time>2026-05-03T15:38:14Z</time></trkpt><trkpt lat="43.61213434942491" lon="18.477383531408197"><ele>1127.0</ele><time>2026-05-03T15:38:15Z</time></trkpt><trkpt lat="43.612163093331425" lon="18.477236244217426"><ele>1127.0</ele><time>2026-05-03T15:38:16Z</time></trkpt><trkpt lat="43.612187709260105" lon="18.477085103149133"><ele>1127.0</ele><time>2026-05-03T15:38:17Z</time></trkpt><trkpt lat="43.61219884179748" lon="18.47691755311936"><ele>1127.0</ele><time>2026-05-03T15:38:18Z</time></trkpt><trkpt lat="43.61217854884556" lon="18.47674292135886"><ele>1127.5</ele><time>2026-05-03T15:38:19Z</time></trkpt><trkpt lat="43.612121668838206" lon="18.476585426555864"><ele>1128.0</ele><time>2026-05-03T15:38:20Z</time></trkpt><trkpt lat="43.6120335766147" lon="18.476452276403805"><ele>1128.5</ele><time>2026-05-03T15:38:21Z</time></trkpt><trkpt lat="43.61192111605596" lon="18.476344842908585"><ele>1129.0</ele><time>2026-05-03T15:38:22Z</time></trkpt><trkpt lat="43.6118005156857" lon="18.47625196240023"><ele>1129.0</ele><time>2026-05-03T15:38:23Z</time></trkpt><trkpt lat="43.61168200362939" lon="18.476174391807284"><ele>1129.0</ele><time>2026-05-03T15:38:24Z</time></trkpt><trkpt lat="43.61159311034654" lon="18.476090275528144"><ele>1129.0</ele><time>2026-05-03T15:38:25Z</time></trkpt><trkpt lat="43.61153440662034" lon="18.47599136755645"><ele>1129.0</ele><time>2026-05-03T15:38:26Z</time></trkpt><trkpt lat="43.611512260960346" lon="18.47587679865266"><ele>1129.0</ele><time>2026-05-03T15:38:27Z</time></trkpt><trkpt lat="43.61153288097882" lon="18.4757567958914"><ele>1129.0</ele><time>2026-05-03T15:38:28Z</time></trkpt><trkpt lat="43.611595930918774" lon="18.47566157176796"><ele>1129.0</ele><time>2026-05-03T15:38:29Z</time></trkpt><trkpt lat="43.61169963951256" lon="18.47559700707422"><ele>1129.0</ele><time>2026-05-03T15:38:30Z</time></trkpt><trkpt lat="43.611834399993235" lon="18.475568100723024"><ele>1129.0</ele><time>2026-05-03T15:38:31Z</time></trkpt><trkpt lat="43.61198295279478" lon="18.475563874538963"><ele>1131.6666666666665</ele><time>2026-05-03T15:38:32Z</time></trkpt><trkpt lat="43.612150864816684" lon="18.475553989865574"><ele>1134.3333333333333</ele><time>2026-05-03T15:38:33Z</time></trkpt><trkpt lat="43.612335623862386" lon="18.475526943917195"><ele>1137.0</ele><time>2026-05-03T15:38:34Z</time></trkpt><trkpt lat="43.61252710594265" lon="18.475496346806267"><ele>1137.0</ele><time>2026-05-03T15:38:35Z</time></trkpt><trkpt lat="43.612722869702004" lon="18.475469198116382"><ele>1137.0</ele><time>2026-05-03T15:38:36Z</time></trkpt><trkpt lat="43.61292980613644" lon="18.475441535612234"><ele>1137.0</ele><time>2026-05-03T15:38:37Z</time></trkpt><trkpt lat="43.61314975092777" lon="18.47540581924654"><ele>1135.3333333333333</ele><time>2026-05-03T15:38:38Z</time></trkpt><trkpt lat="43.61337141332044" lon="18.47538357763364"><ele>1133.6666666666665</ele><time>2026-05-03T15:38:39Z</time></trkpt><trkpt lat="43.61358670975752" lon="18.47539773189223"><ele>1132.0</ele><time>2026-05-03T15:38:40Z</time></trkpt><trkpt lat="43.61379823776438" lon="18.475446063098033"><ele>1138.0</ele><time>2026-05-03T15:38:41Z</time></trkpt><trkpt lat="43.613999935614075" lon="18.475515948543425"><ele>1144.0</ele><time>2026-05-03T15:38:42Z</time></trkpt><trkpt lat="43.61418746367717" lon="18.475573635907352"><ele>1150.0</ele><time>2026-05-03T15:38:43Z</time></trkpt><trkpt lat="43.614357849975576" lon="18.47561603573026"><ele>1151.75</ele><time>2026-05-03T15:38:44Z</time></trkpt><trkpt lat="43.61451088880424" lon="18.475625627037772"><ele>1153.5</ele><time>2026-05-03T15:38:45Z</time></trkpt><trkpt lat="43.61463757244118" lon="18.475587230226996"><ele>1155.25</ele><time>2026-05-03T15:38:46Z</time></trkpt><trkpt lat="43.61473757281482" lon="18.475499141590515"><ele>1157.0</ele><time>2026-05-03T15:38:47Z</time></trkpt><trkpt lat="43.61480503624299" lon="18.47536450200278"><ele>1157.0</ele><time>2026-05-03T15:38:48Z</time></trkpt><trkpt lat="43.61486013811357" lon="18.47520185973799"><ele>1157.0</ele><time>2026-05-03T15:38:49Z</time></trkpt><trkpt lat="43.61488001303808" lon="18.475000689016944"><ele>1157.0</ele><time>2026-05-03T15:38:50Z</time></trkpt><trkpt lat="43.614904919571664" lon="18.47480717371506"><ele>1157.0</ele><time>2026-05-03T15:38:51Z</time></trkpt><trkpt lat="43.61495570890216" lon="18.474638413709492"><ele>1155.25</ele><time>2026-05-03T15:38:52Z</time></trkpt><trkpt lat="43.615035501460426" lon="18.474499061476294"><ele>1153.5</ele><time>2026-05-03T15:38:53Z</time></trkpt><trkpt lat="43.615144747649914" lon="18.47441379559606"><ele>1151.75</ele><time>2026-05-03T15:38:54Z</time></trkpt><trkpt lat="43.615265936718004" lon="18.474376101076263"><ele>1150.0</ele><time>2026-05-03T15:38:55Z</time></trkpt><trkpt lat="43.61539757789512" lon="18.474377818790376"><ele>1150.0</ele><time>2026-05-03T15:38:56Z</time></trkpt><trkpt lat="43.61552767373988" lon="18.47441304371625"><ele>1150.0</ele><time>2026-05-03T15:38:57Z</time></trkpt><trkpt lat="43.61565815167053" lon="18.474463729532125"><ele>1150.0</ele><time>2026-05-03T15:38:58Z</time></trkpt><trkpt lat="43.61579944370973" lon="18.474515689940308"><ele>1150.0</ele><time>2026-05-03T15:38:59Z</time></trkpt><trkpt lat="43.61593258962899" lon="18.474523006330948"><ele>1150.0</ele><time>2026-05-03T15:39:00Z</time></trkpt><trkpt lat="43.616056812211276" lon="18.474534542560882"><ele>1150.0</ele><time>2026-05-03T15:39:01Z</time></trkpt><trkpt lat="43.61618455879148" lon="18.47443825409325"><ele>1150.0</ele><time>2026-05-03T15:39:02Z</time></trkpt><trkpt lat="43.61630671949752" lon="18.4742934933218"><ele>1150.0</ele><time>2026-05-03T15:39:03Z</time></trkpt><trkpt lat="43.61643222500419" lon="18.47411772659617"><ele>1151.3333333333333</ele><time>2026-05-03T15:39:04Z</time></trkpt><trkpt lat="43.616565246716576" lon="18.47391772376244"><ele>1152.6666666666667</ele><time>2026-05-03T15:39:05Z</time></trkpt><trkpt lat="43.61671717589802" lon="18.473694202479745"><ele>1154.0</ele><time>2026-05-03T15:39:06Z</time></trkpt><trkpt lat="43.61690730200541" lon="18.473466358045332"><ele>1162.5</ele><time>2026-05-03T15:39:07Z</time></trkpt><trkpt lat="43.617110968786335" lon="18.47323106181177"><ele>1171.0</ele><time>2026-05-03T15:39:08Z</time></trkpt><trkpt lat="43.61730330323309" lon="18.473008071814032"><ele>1169.3333333333333</ele><time>2026-05-03T15:39:09Z</time></trkpt><trkpt lat="43.617470844496346" lon="18.472799836496858"><ele>1167.6666666666667</ele><time>2026-05-03T15:39:10Z</time></trkpt><trkpt lat="43.61761902416286" lon="18.472601294626017"><ele>1166.0</ele><time>2026-05-03T15:39:11Z</time></trkpt><trkpt lat="43.617742913883035" lon="18.47241366763991"><ele>1166.0</ele><time>2026-05-03T15:39:12Z</time></trkpt><trkpt lat="43.617851068012726" lon="18.47222228267546"><ele>1166.0</ele><time>2026-05-03T15:39:13Z</time></trkpt><trkpt lat="43.61793403767481" lon="18.472016732701693"><ele>1166.0</ele><time>2026-05-03T15:39:14Z</time></trkpt><trkpt lat="43.61799756694309" lon="18.47183516005095"><ele>1165.75</ele><time>2026-05-03T15:39:15Z</time></trkpt><trkpt lat="43.618048701331006" lon="18.471656979059464"><ele>1165.5</ele><time>2026-05-03T15:39:16Z</time></trkpt><trkpt lat="43.61809545124987" lon="18.471474640943036"><ele>1165.25</ele><time>2026-05-03T15:39:17Z</time></trkpt><trkpt lat="43.618139985777766" lon="18.471301641221743"><ele>1165.0</ele><time>2026-05-03T15:39:18Z</time></trkpt><trkpt lat="43.61818827869497" lon="18.471146704579976"><ele>1165.0</ele><time>2026-05-03T15:39:19Z</time></trkpt><trkpt lat="43.61824240096836" lon="18.47100808809164"><ele>1165.0</ele><time>2026-05-03T15:39:20Z</time></trkpt><trkpt lat="43.618310054772614" lon="18.47088172919626"><ele>1165.0</ele><time>2026-05-03T15:39:21Z</time></trkpt><trkpt lat="43.61837916393663" lon="18.470778815743923"><ele>1165.0</ele><time>2026-05-03T15:39:22Z</time></trkpt><trkpt lat="43.61845035881617" lon="18.47067993332464"><ele>1165.0</ele><time>2026-05-03T15:39:23Z</time></trkpt><trkpt lat="43.61852297163174" lon="18.47059288754876"><ele>1165.0</ele><time>2026-05-03T15:39:24Z</time></trkpt><trkpt lat="43.61860738139361" lon="18.470519153532354"><ele>1165.0</ele><time>2026-05-03T15:39:25Z</time></trkpt><trkpt lat="43.61869704115937" lon="18.470448210403312"><ele>1165.0</ele><time>2026-05-03T15:39:26Z</time></trkpt><trkpt lat="43.61879668705306" lon="18.470379611595526"><ele>1165.0</ele><time>2026-05-03T15:39:27Z</time></trkpt><trkpt lat="43.61890272254963" lon="18.47032262653446"><ele>1165.0</ele><time>2026-05-03T15:39:28Z</time></trkpt><trkpt lat="43.61901517508843" lon="18.470286365503636"><ele>1165.75</ele><time>2026-05-03T15:39:29Z</time></trkpt><trkpt lat="43.61913849552869" lon="18.470256643140527"><ele>1166.5</ele><time>2026-05-03T15:39:30Z</time></trkpt><trkpt lat="43.61927240349992" lon="18.47023134320987"><ele>1167.25</ele><time>2026-05-03T15:39:31Z</time></trkpt><trkpt lat="43.61941771430533" lon="18.470213482907525"><ele>1168.0</ele><time>2026-05-03T15:39:32Z</time></trkpt><trkpt lat="43.61957695536309" lon="18.470194175998138"><ele>1164.3333333333333</ele><time>2026-05-03T15:39:33Z</time></trkpt><trkpt lat="43.61974339904376" lon="18.470174221596995"><ele>1160.6666666666667</ele><time>2026-05-03T15:39:34Z</time></trkpt><trkpt lat="43.61991945114785" lon="18.47015211167926"><ele>1157.0</ele><time>2026-05-03T15:39:35Z</time></trkpt><trkpt lat="43.620094083973825" lon="18.47012560136784"><ele>1157.0</ele><time>2026-05-03T15:39:36Z</time></trkpt><trkpt lat="43.620274886913634" lon="18.470098771466553"><ele>1157.0</ele><time>2026-05-03T15:39:37Z</time></trkpt><trkpt lat="43.62046117530614" lon="18.470071127751023"><ele>1157.0</ele><time>2026-05-03T15:39:38Z</time></trkpt><trkpt lat="43.62065242868351" lon="18.470042747265484"><ele>1154.6666666666667</ele><time>2026-05-03T15:39:39Z</time></trkpt><trkpt lat="43.62083884728192" lon="18.469985051948626"><ele>1152.3333333333333</ele><time>2026-05-03T15:39:40Z</time></trkpt><trkpt lat="43.62100529698936" lon="18.469956487496553"><ele>1150.0</ele><time>2026-05-03T15:39:41Z</time></trkpt><trkpt lat="43.62114790880679" lon="18.46991724069094"><ele>1148.0</ele><time>2026-05-03T15:39:42Z</time></trkpt><trkpt lat="43.621262213504835" lon="18.46987916274104"><ele>1146.0</ele><time>2026-05-03T15:39:43Z</time></trkpt><trkpt lat="43.62134109768317" lon="18.46980652815499"><ele>1144.0</ele><time>2026-05-03T15:39:44Z</time></trkpt><trkpt lat="43.62140136996729" lon="18.469696691700296"><ele>1142.0</ele><time>2026-05-03T15:39:45Z</time></trkpt><trkpt lat="43.621446323417345" lon="18.469561968824568"><ele>1140.0</ele><time>2026-05-03T15:39:46Z</time></trkpt><trkpt lat="43.621451834112314" lon="18.469412020871967"><ele>1140.0</ele><time>2026-05-03T15:39:47Z</time></trkpt><trkpt lat="43.62141751455727" lon="18.469273575757445"><ele>1140.0</ele><time>2026-05-03T15:39:48Z</time></trkpt><trkpt lat="43.62135857408834" lon="18.469141412951025"><ele>1140.0</ele><time>2026-05-03T15:39:49Z</time></trkpt><trkpt lat="43.621256984628786" lon="18.46903944360566"><ele>1140.0</ele><time>2026-05-03T15:39:50Z</time></trkpt><trkpt lat="43.62115149238358" lon="18.46896014691213"><ele>1141.4</ele><time>2026-05-03T15:39:51Z</time></trkpt><trkpt lat="43.621038113839795" lon="18.46889759483527"><ele>1142.8</ele><time>2026-05-03T15:39:52Z</time></trkpt><trkpt lat="43.62093868537766" lon="18.46883182618018"><ele>1144.2</ele><time>2026-05-03T15:39:53Z</time></trkpt><trkpt lat="43.62086134296116" lon="18.46876052028757"><ele>1145.6</ele><time>2026-05-03T15:39:54Z</time></trkpt><trkpt lat="43.62082066278576" lon="18.468680024473883"><ele>1147.0</ele><time>2026-05-03T15:39:55Z</time></trkpt><trkpt lat="43.62083248529185" lon="18.468499686393823"><ele>1147.0</ele><time>2026-05-03T15:39:57Z</time></trkpt><trkpt lat="43.62089118826297" lon="18.468405277301557"><ele>1147.0</ele><time>2026-05-03T15:39:58Z</time></trkpt><trkpt lat="43.62098443359607" lon="18.468334983138245"><ele>1147.0</ele><time>2026-05-03T15:39:59Z</time></trkpt><trkpt lat="43.62110389761733" lon="18.468284178062337"><ele>1147.0</ele><time>2026-05-03T15:40:00Z</time></trkpt><trkpt lat="43.6212475388264" lon="18.468264981145843"><ele>1143.75</ele><time>2026-05-03T15:40:01Z</time></trkpt><trkpt lat="43.621388470506574" lon="18.468246438113564"><ele>1140.5</ele><time>2026-05-03T15:40:02Z</time></trkpt><trkpt lat="43.62151935052516" lon="18.46820768870153"><ele>1137.25</ele><time>2026-05-03T15:40:03Z</time></trkpt><trkpt lat="43.62164254849315" lon="18.46814565465644"><ele>1134.0</ele><time>2026-05-03T15:40:04Z</time></trkpt><trkpt lat="43.62174751952839" lon="18.468054956136733"><ele>1135.75</ele><time>2026-05-03T15:40:05Z</time></trkpt><trkpt lat="43.6218314849008" lon="18.467930917364562"><ele>1137.5</ele><time>2026-05-03T15:40:06Z</time></trkpt><trkpt lat="43.621880389449444" lon="18.467780425269023"><ele>1139.25</ele><time>2026-05-03T15:40:07Z</time></trkpt><trkpt lat="43.62189527647693" lon="18.467614222024245"><ele>1141.0</ele><time>2026-05-03T15:40:08Z</time></trkpt><trkpt lat="43.621891553265854" lon="18.467427089824643"><ele>1141.0</ele><time>2026-05-03T15:40:09Z</time></trkpt><trkpt lat="43.62187583411655" lon="18.467226715870673"><ele>1141.0</ele><time>2026-05-03T15:40:10Z</time></trkpt><trkpt lat="43.62186597420202" lon="18.467044888533167"><ele>1141.0</ele><time>2026-05-03T15:40:11Z</time></trkpt><trkpt lat="43.62187154390913" lon="18.4668749007119"><ele>1141.0</ele><time>2026-05-03T15:40:12Z</time></trkpt><trkpt lat="43.62189270780259" lon="18.46673800414912"><ele>1140.3999999999999</ele><time>2026-05-03T15:40:13Z</time></trkpt><trkpt lat="43.62192898695354" lon="18.466651276071712"><ele>1139.8</ele><time>2026-05-03T15:40:14Z</time></trkpt><trkpt lat="43.62198787759946" lon="18.46659843784483"><ele>1139.1999999999998</ele><time>2026-05-03T15:40:15Z</time></trkpt><trkpt lat="43.622074128012855" lon="18.466598749891578"><ele>1138.6</ele><time>2026-05-03T15:40:16Z</time></trkpt><trkpt lat="43.622183615428504" lon="18.466655228198363"><ele>1138.0</ele><time>2026-05-03T15:40:17Z</time></trkpt><trkpt lat="43.62227557213691" lon="18.46676021768109"><ele>1138.0</ele><time>2026-05-03T15:40:18Z</time></trkpt><trkpt lat="43.622354897387936" lon="18.466902044978312"><ele>1138.0</ele><time>2026-05-03T15:40:19Z</time></trkpt><trkpt lat="43.62243501805047" lon="18.46705927121478"><ele>1138.0</ele><time>2026-05-03T15:40:20Z</time></trkpt><trkpt lat="43.6225333813202" lon="18.467203823045594"><ele>1138.0</ele><time>2026-05-03T15:40:21Z</time></trkpt><trkpt lat="43.62264794969911" lon="18.467304561929147"><ele>1133.5</ele><time>2026-05-03T15:40:22Z</time></trkpt><trkpt lat="43.622772464470714" lon="18.4673702795592"><ele>1129.0</ele><time>2026-05-03T15:40:23Z</time></trkpt><trkpt lat="43.6229037780084" lon="18.4673672950132"><ele>1124.5</ele><time>2026-05-03T15:40:24Z</time></trkpt><trkpt lat="43.62303781068605" lon="18.46731978922158"><ele>1120.0</ele><time>2026-05-03T15:40:25Z</time></trkpt><trkpt lat="43.623148306900276" lon="18.467223317451726"><ele>1121.25</ele><time>2026-05-03T15:40:26Z</time></trkpt><trkpt lat="43.62323087695625" lon="18.467069484365688"><ele>1122.5</ele><time>2026-05-03T15:40:27Z</time></trkpt><trkpt lat="43.6232884832899" lon="18.46690543481059"><ele>1123.75</ele><time>2026-05-03T15:40:28Z</time></trkpt><trkpt lat="43.62332127122269" lon="18.466741305843417"><ele>1125.0</ele><time>2026-05-03T15:40:29Z</time></trkpt><trkpt lat="43.623345169571785" lon="18.46659004199905"><ele>1125.0</ele><time>2026-05-03T15:40:30Z</time></trkpt><trkpt lat="43.623390909330496" lon="18.466470391202833"><ele>1125.0</ele><time>2026-05-03T15:40:31Z</time></trkpt><trkpt lat="43.623456569260156" lon="18.46640617626082"><ele>1125.0</ele><time>2026-05-03T15:40:32Z</time></trkpt><trkpt lat="43.623551682514666" lon="18.466400545079555"><ele>1125.0</ele><time>2026-05-03T15:40:33Z</time></trkpt><trkpt lat="43.62368202772329" lon="18.46648377368084"><ele>1125.0</ele><time>2026-05-03T15:40:34Z</time></trkpt><trkpt lat="43.62376483766742" lon="18.466495701302826"><ele>1122.6666666666667</ele><time>2026-05-03T15:40:35Z</time></trkpt><trkpt lat="43.62388007421007" lon="18.46661324699509"><ele>1120.3333333333335</ele><time>2026-05-03T15:40:36Z</time></trkpt><trkpt lat="43.62400738408485" lon="18.46674945461981"><ele>1118.0</ele><time>2026-05-03T15:40:37Z</time></trkpt><trkpt lat="43.62415478039172" lon="18.466887037737685"><ele>1118.0</ele><time>2026-05-03T15:40:38Z</time></trkpt><trkpt lat="43.62430929729781" lon="18.467033217854897"><ele>1118.0</ele><time>2026-05-03T15:40:39Z</time></trkpt><trkpt lat="43.62448097900529" lon="18.467158661191885"><ele>1118.0</ele><time>2026-05-03T15:40:40Z</time></trkpt><trkpt lat="43.624678180290864" lon="18.467254731668177"><ele>1106.5</ele><time>2026-05-03T15:40:41Z</time></trkpt><trkpt lat="43.624892348722305" lon="18.46732532358557"><ele>1095.0</ele><time>2026-05-03T15:40:42Z</time></trkpt><trkpt lat="43.625124784022844" lon="18.46737153415769"><ele>1096.5</ele><time>2026-05-03T15:40:43Z</time></trkpt><trkpt lat="43.625352651205795" lon="18.46742574313984"><ele>1098.0</ele><time>2026-05-03T15:40:44Z</time></trkpt><trkpt lat="43.62557821302449" lon="18.467484810658448"><ele>1098.0</ele><time>2026-05-03T15:40:45Z</time></trkpt><trkpt lat="43.62580745768078" lon="18.46755171325244"><ele>1098.0</ele><time>2026-05-03T15:40:46Z</time></trkpt><trkpt lat="43.62604052017791" lon="18.467620300714277"><ele>1095.6666666666667</ele><time>2026-05-03T15:40:47Z</time></trkpt><trkpt lat="43.626259159467786" lon="18.467666260803494"><ele>1093.3333333333335</ele><time>2026-05-03T15:40:48Z</time></trkpt><trkpt lat="43.626468905835644" lon="18.467675176250538"><ele>1091.0</ele><time>2026-05-03T15:40:49Z</time></trkpt><trkpt lat="43.62666511718598" lon="18.467630420030474"><ele>1091.0</ele><time>2026-05-03T15:40:50Z</time></trkpt><trkpt lat="43.62685940287887" lon="18.46753887916091"><ele>1091.0</ele><time>2026-05-03T15:40:51Z</time></trkpt><trkpt lat="43.627032914495786" lon="18.467404027158377"><ele>1091.0</ele><time>2026-05-03T15:40:52Z</time></trkpt><trkpt lat="43.62719240849904" lon="18.467227400115814"><ele>1092.0</ele><time>2026-05-03T15:40:53Z</time></trkpt><trkpt lat="43.62734264325797" lon="18.46702601616419"><ele>1093.0</ele><time>2026-05-03T15:40:54Z</time></trkpt><trkpt lat="43.62749010074053" lon="18.466838376581936"><ele>1094.0</ele><time>2026-05-03T15:40:55Z</time></trkpt><trkpt lat="43.62764727753097" lon="18.46669849845008"><ele>1087.0</ele><time>2026-05-03T15:40:56Z</time></trkpt><trkpt lat="43.62783083926897" lon="18.466615607736657"><ele>1080.0</ele><time>2026-05-03T15:40:57Z</time></trkpt><trkpt lat="43.62803015034038" lon="18.466566417711103"><ele>1073.0</ele><time>2026-05-03T15:40:58Z</time></trkpt><trkpt lat="43.628222016326774" lon="18.466534079146026"><ele>1073.0</ele><time>2026-05-03T15:40:59Z</time></trkpt><trkpt lat="43.628396715610094" lon="18.46648336521729"><ele>1073.0</ele><time>2026-05-03T15:41:00Z</time></trkpt><trkpt lat="43.62855394151904" lon="18.46641919253431"><ele>1073.0</ele><time>2026-05-03T15:41:01Z</time></trkpt><trkpt lat="43.628700646431604" lon="18.466347600254608"><ele>1072.25</ele><time>2026-05-03T15:41:02Z</time></trkpt><trkpt lat="43.62882905273193" lon="18.466271821889023"><ele>1071.5</ele><time>2026-05-03T15:41:03Z</time></trkpt><trkpt lat="43.62893385566194" lon="18.466216450501868"><ele>1070.75</ele><time>2026-05-03T15:41:04Z</time></trkpt><trkpt lat="43.62900820508389" lon="18.466135459409475"><ele>1070.0</ele><time>2026-05-03T15:41:05Z</time></trkpt><trkpt lat="43.62905114636995" lon="18.46600471830478"><ele>1070.0</ele><time>2026-05-03T15:41:06Z</time></trkpt><trkpt lat="43.629041104527595" lon="18.465840985834408"><ele>1070.0</ele><time>2026-05-03T15:41:07Z</time></trkpt><trkpt lat="43.628993924976086" lon="18.465686547034913"><ele>1070.0</ele><time>2026-05-03T15:41:08Z</time></trkpt><trkpt lat="43.62895450354559" lon="18.465555826510066"><ele>1070.0</ele><time>2026-05-03T15:41:09Z</time></trkpt><trkpt lat="43.62896087860301" lon="18.465423936649206"><ele>1070.0</ele><time>2026-05-03T15:41:10Z</time></trkpt><trkpt lat="43.62901470245479" lon="18.46534512882532"><ele>1070.0</ele><time>2026-05-03T15:41:11Z</time></trkpt><trkpt lat="43.6290946131087" lon="18.465335373679956"><ele>1070.0</ele><time>2026-05-03T15:41:12Z</time></trkpt><trkpt lat="43.62917998445802" lon="18.465395697443743"><ele>1070.0</ele><time>2026-05-03T15:41:13Z</time></trkpt><trkpt lat="43.629260162689576" lon="18.465512987339633"><ele>1070.0</ele><time>2026-05-03T15:41:14Z</time></trkpt><trkpt lat="43.62931386062686" lon="18.465665226769527"><ele>1070.0</ele><time>2026-05-03T15:41:15Z</time></trkpt><trkpt lat="43.62934047435483" lon="18.46582709742538"><ele>1070.0</ele><time>2026-05-03T15:41:16Z</time></trkpt><trkpt lat="43.629339969528075" lon="18.465980587739907"><ele>1070.0</ele><time>2026-05-03T15:41:17Z</time></trkpt><trkpt lat="43.62931167416856" lon="18.466120738769064"><ele>1070.0</ele><time>2026-05-03T15:41:18Z</time></trkpt><trkpt lat="43.629246044498835" lon="18.46623976654295"><ele>1070.0</ele><time>2026-05-03T15:41:19Z</time></trkpt><trkpt lat="43.629101773680844" lon="18.46633611081841"><ele>1070.75</ele><time>2026-05-03T15:41:20Z</time></trkpt><trkpt lat="43.62898038386359" lon="18.46640609538458"><ele>1071.5</ele><time>2026-05-03T15:41:21Z</time></trkpt><trkpt lat="43.628851409604415" lon="18.466498335074462"><ele>1072.25</ele><time>2026-05-03T15:41:22Z</time></trkpt><trkpt lat="43.62871004777196" lon="18.466603546240275"><ele>1073.0</ele><time>2026-05-03T15:41:23Z</time></trkpt><trkpt lat="43.62855651016846" lon="18.46671162901102"><ele>1073.0</ele><time>2026-05-03T15:41:24Z</time></trkpt><trkpt lat="43.62839596567285" lon="18.466829994227776"><ele>1073.0</ele><time>2026-05-03T15:41:25Z</time></trkpt><trkpt lat="43.6282337926399" lon="18.466954702753288"><ele>1073.0</ele><time>2026-05-03T15:41:26Z</time></trkpt><trkpt lat="43.62806544422872" lon="18.46708606026484"><ele>1071.6666666666667</ele><time>2026-05-03T15:41:27Z</time></trkpt><trkpt lat="43.62791673672281" lon="18.467229570146017"><ele>1070.3333333333333</ele><time>2026-05-03T15:41:28Z</time></trkpt><trkpt lat="43.62778490145825" lon="18.467427214758853"><ele>1069.0</ele><time>2026-05-03T15:41:29Z</time></trkpt><trkpt lat="43.62767685500911" lon="18.467657500615914"><ele>1069.0</ele><time>2026-05-03T15:41:30Z</time></trkpt><trkpt lat="43.62758471963141" lon="18.467904660655005"><ele>1069.0</ele><time>2026-05-03T15:41:31Z</time></trkpt><trkpt lat="43.627462121419235" lon="18.468137497131515"><ele>1069.0</ele><time>2026-05-03T15:41:32Z</time></trkpt><trkpt lat="43.62731403885216" lon="18.4683187177906"><ele>1064.0</ele><time>2026-05-03T15:41:33Z</time></trkpt><trkpt lat="43.62715452132456" lon="18.468470646941718"><ele>1059.0</ele><time>2026-05-03T15:41:34Z</time></trkpt><trkpt lat="43.62701630175543" lon="18.468646117202457"><ele>1054.0</ele><time>2026-05-03T15:41:35Z</time></trkpt><trkpt lat="43.626904573202424" lon="18.46884828400021"><ele>1054.0</ele><time>2026-05-03T15:41:36Z</time></trkpt><trkpt lat="43.62681698016431" lon="18.469072411461507"><ele>1054.0</ele><time>2026-05-03T15:41:37Z</time></trkpt><trkpt lat="43.62674937741805" lon="18.469286610923948"><ele>1054.0</ele><time>2026-05-03T15:41:38Z</time></trkpt><trkpt lat="43.626666895782236" lon="18.46947803073071"><ele>1050.25</ele><time>2026-05-03T15:41:39Z</time></trkpt><trkpt lat="43.62655564732696" lon="18.46962590472913"><ele>1046.5</ele><time>2026-05-03T15:41:40Z</time></trkpt><trkpt lat="43.62643653524822" lon="18.46971747960594"><ele>1042.75</ele><time>2026-05-03T15:41:41Z</time></trkpt><trkpt lat="43.62632630664654" lon="18.4697687603813"><ele>1039.0</ele><time>2026-05-03T15:41:42Z</time></trkpt><trkpt lat="43.62623381300039" lon="18.46982700485724"><ele>1039.0</ele><time>2026-05-03T15:41:43Z</time></trkpt><trkpt lat="43.62617795058807" lon="18.469923926606604"><ele>1039.0</ele><time>2026-05-03T15:41:44Z</time></trkpt><trkpt lat="43.62616352018329" lon="18.470051717202477"><ele>1039.0</ele><time>2026-05-03T15:41:45Z</time></trkpt><trkpt lat="43.62621573381003" lon="18.470159085173332"><ele>1039.0</ele><time>2026-05-03T15:41:46Z</time></trkpt><trkpt lat="43.62629197533866" lon="18.470226133538908"><ele>1039.0</ele><time>2026-05-03T15:41:47Z</time></trkpt><trkpt lat="43.62638683591066" lon="18.47024057638471"><ele>1039.0</ele><time>2026-05-03T15:41:48Z</time></trkpt><trkpt lat="43.62647422821124" lon="18.470182849336513"><ele>1039.0</ele><time>2026-05-03T15:41:49Z</time></trkpt><trkpt lat="43.62655171171413" lon="18.470070332008138"><ele>1039.0</ele><time>2026-05-03T15:41:50Z</time></trkpt><trkpt lat="43.62661983299162" lon="18.469945568966196"><ele>1039.0</ele><time>2026-05-03T15:41:51Z</time></trkpt><trkpt lat="43.626697139843394" lon="18.469807177274053"><ele>1039.0</ele><time>2026-05-03T15:41:52Z</time></trkpt><trkpt lat="43.62677401441424" lon="18.469663321343976"><ele>1036.5</ele><time>2026-05-03T15:41:53Z</time></trkpt><trkpt lat="43.62685506195994" lon="18.4695109204783"><ele>1034.0</ele><time>2026-05-03T15:41:54Z</time></trkpt><trkpt lat="43.62694241057552" lon="18.469354582219847"><ele>1031.5</ele><time>2026-05-03T15:41:55Z</time></trkpt><trkpt lat="43.62703862482715" lon="18.469186921818668"><ele>1029.0</ele><time>2026-05-03T15:41:56Z</time></trkpt><trkpt lat="43.62714358080021" lon="18.46900656467198"><ele>1029.0</ele><time>2026-05-03T15:41:57Z</time></trkpt><trkpt lat="43.62725942884818" lon="18.46884855578096"><ele>1029.0</ele><time>2026-05-03T15:41:58Z</time></trkpt><trkpt lat="43.627390085087946" lon="18.468708258184243"><ele>1029.0</ele><time>2026-05-03T15:41:59Z</time></trkpt><trkpt lat="43.62754878454293" lon="18.46859488037916"><ele>1029.6666666666667</ele><time>2026-05-03T15:42:00Z</time></trkpt><trkpt lat="43.62771600646131" lon="18.468487004781895"><ele>1030.3333333333335</ele><time>2026-05-03T15:42:01Z</time></trkpt><trkpt lat="43.627882204450636" lon="18.4683884322013"><ele>1031.0</ele><time>2026-05-03T15:42:02Z</time></trkpt><trkpt lat="43.628050330258944" lon="18.46827588469978"><ele>1031.0</ele><time>2026-05-03T15:42:03Z</time></trkpt><trkpt lat="43.62821940308418" lon="18.4681556497283"><ele>1031.0</ele><time>2026-05-03T15:42:04Z</time></trkpt><trkpt lat="43.628382580992074" lon="18.468020370351063"><ele>1031.0</ele><time>2026-05-03T15:42:05Z</time></trkpt><trkpt lat="43.62853905329103" lon="18.46787532518985"><ele>1029.3333333333335</ele><time>2026-05-03T15:42:06Z</time></trkpt><trkpt lat="43.62866958825646" lon="18.46772337498775"><ele>1027.6666666666667</ele><time>2026-05-03T15:42:07Z</time></trkpt><trkpt lat="43.62879759184767" lon="18.467573928501267"><ele>1026.0</ele><time>2026-05-03T15:42:08Z</time></trkpt><trkpt lat="43.628927276387316" lon="18.467441521481515"><ele>1026.0</ele><time>2026-05-03T15:42:09Z</time></trkpt><trkpt lat="43.62907422333803" lon="18.467370736749302"><ele>1026.0</ele><time>2026-05-03T15:42:10Z</time></trkpt><trkpt lat="43.629232266773485" lon="18.467354470560693"><ele>1026.0</ele><time>2026-05-03T15:42:11Z</time></trkpt><trkpt lat="43.629393124300094" lon="18.46737140909071"><ele>1022.0</ele><time>2026-05-03T15:42:12Z</time></trkpt><trkpt lat="43.62955772542653" lon="18.467398274366097"><ele>1018.0</ele><time>2026-05-03T15:42:13Z</time></trkpt><trkpt lat="43.629736062718926" lon="18.467397865333407"><ele>1014.0</ele><time>2026-05-03T15:42:14Z</time></trkpt><trkpt lat="43.629907739222475" lon="18.467358892903434"><ele>1014.0</ele><time>2026-05-03T15:42:15Z</time></trkpt><trkpt lat="43.63007285188474" lon="18.467280840399646"><ele>1014.0</ele><time>2026-05-03T15:42:16Z</time></trkpt><trkpt lat="43.63021969086336" lon="18.467158449339"><ele>1014.0</ele><time>2026-05-03T15:42:17Z</time></trkpt><trkpt lat="43.630354230753696" lon="18.46700131509357"><ele>1011.6666666666667</ele><time>2026-05-03T15:42:18Z</time></trkpt><trkpt lat="43.630473354192205" lon="18.466806859688187"><ele>1009.3333333333334</ele><time>2026-05-03T15:42:19Z</time></trkpt><trkpt lat="43.630568886950684" lon="18.46658528555463"><ele>1007.0</ele><time>2026-05-03T15:42:20Z</time></trkpt><trkpt lat="43.63062956765897" lon="18.466351499754474"><ele>1006.0</ele><time>2026-05-03T15:42:21Z</time></trkpt><trkpt lat="43.63065813150838" lon="18.46610828586371"><ele>1005.0</ele><time>2026-05-03T15:42:22Z</time></trkpt><trkpt lat="43.63065140742737" lon="18.465854650085415"><ele>1004.0</ele><time>2026-05-03T15:42:23Z</time></trkpt><trkpt lat="43.63062213403278" lon="18.465595479669712"><ele>1003.3333333333334</ele><time>2026-05-03T15:42:24Z</time></trkpt><trkpt lat="43.630595709919156" lon="18.46534509675989"><ele>1002.6666666666667</ele><time>2026-05-03T15:42:25Z</time></trkpt><trkpt lat="43.63056976249071" lon="18.465091662013744"><ele>1002.0</ele><time>2026-05-03T15:42:26Z</time></trkpt><trkpt lat="43.63052291126198" lon="18.46483262494207"><ele>998.0</ele><time>2026-05-03T15:42:27Z</time></trkpt><trkpt lat="43.6304571002469" lon="18.46457695776444"><ele>994.0</ele><time>2026-05-03T15:42:28Z</time></trkpt><trkpt lat="43.63037321378813" lon="18.46433894725532"><ele>990.0</ele><time>2026-05-03T15:42:29Z</time></trkpt><trkpt lat="43.630262615688196" lon="18.464113393863858"><ele>991.0</ele><time>2026-05-03T15:42:30Z</time></trkpt><trkpt lat="43.6301495987513" lon="18.463911716562762"><ele>992.0</ele><time>2026-05-03T15:42:31Z</time></trkpt><trkpt lat="43.63002102767584" lon="18.46372559471041"><ele>993.0</ele><time>2026-05-03T15:42:32Z</time></trkpt><trkpt lat="43.62988730401831" lon="18.463562601257266"><ele>993.0</ele><time>2026-05-03T15:42:33Z</time></trkpt><trkpt lat="43.629760436784345" lon="18.463407448723235"><ele>993.0</ele><time>2026-05-03T15:42:34Z</time></trkpt><trkpt lat="43.62963487217046" lon="18.463262072099894"><ele>993.0</ele><time>2026-05-03T15:42:35Z</time></trkpt><trkpt lat="43.62951746404512" lon="18.463119945186314"><ele>994.0</ele><time>2026-05-03T15:42:36Z</time></trkpt><trkpt lat="43.62941438123784" lon="18.462969248731643"><ele>995.0</ele><time>2026-05-03T15:42:37Z</time></trkpt><trkpt lat="43.6293481528576" lon="18.462806754329097"><ele>996.0</ele><time>2026-05-03T15:42:38Z</time></trkpt><trkpt lat="43.62931923345263" lon="18.462631707907548"><ele>997.0</ele><time>2026-05-03T15:42:39Z</time></trkpt><trkpt lat="43.62933144098114" lon="18.462457607606915"><ele>997.0</ele><time>2026-05-03T15:42:40Z</time></trkpt><trkpt lat="43.62938954544792" lon="18.462297182751843"><ele>997.0</ele><time>2026-05-03T15:42:41Z</time></trkpt><trkpt lat="43.629469979499476" lon="18.462157381199205"><ele>997.0</ele><time>2026-05-03T15:42:42Z</time></trkpt><trkpt lat="43.62958906333575" lon="18.462040411481226"><ele>997.0</ele><time>2026-05-03T15:42:43Z</time></trkpt><trkpt lat="43.62973351962818" lon="18.4619571061632"><ele>992.3333333333333</ele><time>2026-05-03T15:42:44Z</time></trkpt><trkpt lat="43.629879968939214" lon="18.461888377978948"><ele>987.6666666666667</ele><time>2026-05-03T15:42:45Z</time></trkpt><trkpt lat="43.63000583596224" lon="18.46177255751047"><ele>983.0</ele><time>2026-05-03T15:42:46Z</time></trkpt><trkpt lat="43.630109656114136" lon="18.461603348114334"><ele>983.0</ele><time>2026-05-03T15:42:47Z</time></trkpt><trkpt lat="43.63018557358245" lon="18.4613971856288"><ele>983.0</ele><time>2026-05-03T15:42:48Z</time></trkpt><trkpt lat="43.6302482494588" lon="18.46117538649842"><ele>983.0</ele><time>2026-05-03T15:42:49Z</time></trkpt><trkpt lat="43.63031575924369" lon="18.460978267846684"><ele>980.0</ele><time>2026-05-03T15:42:50Z</time></trkpt><trkpt lat="43.63040468216679" lon="18.460811472013447"><ele>977.0</ele><time>2026-05-03T15:42:51Z</time></trkpt><trkpt lat="43.63053091438354" lon="18.46067616622873"><ele>974.0</ele><time>2026-05-03T15:42:52Z</time></trkpt><trkpt lat="43.63067713401164" lon="18.46057270301477"><ele>974.0</ele><time>2026-05-03T15:42:53Z</time></trkpt><trkpt lat="43.630828270632826" lon="18.460520079191028"><ele>974.0</ele><time>2026-05-03T15:42:54Z</time></trkpt><trkpt lat="43.63098989395319" lon="18.460512517589322"><ele>974.0</ele><time>2026-05-03T15:42:55Z</time></trkpt><trkpt lat="43.631151225331806" lon="18.460536287358394"><ele>971.6666666666667</ele><time>2026-05-03T15:42:56Z</time></trkpt><trkpt lat="43.63130997724325" lon="18.460573274824203"><ele>969.3333333333333</ele><time>2026-05-03T15:42:57Z</time></trkpt><trkpt lat="43.63146723434562" lon="18.460614512348524"><ele>967.0</ele><time>2026-05-03T15:42:58Z</time></trkpt><trkpt lat="43.631627475523814" lon="18.460650132851146"><ele>967.0</ele><time>2026-05-03T15:42:59Z</time></trkpt><trkpt lat="43.63178959021176" lon="18.460649109520354"><ele>967.0</ele><time>2026-05-03T15:43:00Z</time></trkpt><trkpt lat="43.63194838882511" lon="18.460596606841705"><ele>967.0</ele><time>2026-05-03T15:43:01Z</time></trkpt><trkpt lat="43.632090684790725" lon="18.46047890298551"><ele>966.0</ele><time>2026-05-03T15:43:02Z</time></trkpt><trkpt lat="43.632200671138904" lon="18.460313717356897"><ele>965.0</ele><time>2026-05-03T15:43:03Z</time></trkpt><trkpt lat="43.63228489480015" lon="18.460107388339306"><ele>964.0</ele><time>2026-05-03T15:43:04Z</time></trkpt><trkpt lat="43.632371805073596" lon="18.45990724523488"><ele>964.0</ele><time>2026-05-03T15:43:05Z</time></trkpt><trkpt lat="43.632485908629704" lon="18.45974398465643"><ele>964.0</ele><time>2026-05-03T15:43:06Z</time></trkpt><trkpt lat="43.63262106253449" lon="18.45963150923578"><ele>964.0</ele><time>2026-05-03T15:43:07Z</time></trkpt><trkpt lat="43.63277313770869" lon="18.459586761394107"><ele>965.3333333333333</ele><time>2026-05-03T15:43:08Z</time></trkpt><trkpt lat="43.63293719412931" lon="18.45960645271321"><ele>966.6666666666667</ele><time>2026-05-03T15:43:09Z</time></trkpt><trkpt lat="43.633095611151845" lon="18.459649915203432"><ele>968.0</ele><time>2026-05-03T15:43:10Z</time></trkpt><trkpt lat="43.63325664153606" lon="18.45968691636157"><ele>960.3333333333334</ele><time>2026-05-03T15:43:11Z</time></trkpt><trkpt lat="43.633421010156056" lon="18.459693452020886"><ele>952.6666666666667</ele><time>2026-05-03T15:43:12Z</time></trkpt><trkpt lat="43.63358211285541" lon="18.45962124402023"><ele>945.0</ele><time>2026-05-03T15:43:13Z</time></trkpt><trkpt lat="43.63372358997438" lon="18.459455643961928"><ele>944.0</ele><time>2026-05-03T15:43:14Z</time></trkpt><trkpt lat="43.6338418190332" lon="18.45923412247372"><ele>943.0</ele><time>2026-05-03T15:43:15Z</time></trkpt><trkpt lat="43.63393960741567" lon="18.45898398273683"><ele>942.0</ele><time>2026-05-03T15:43:16Z</time></trkpt><trkpt lat="43.63402395458139" lon="18.458745015362876"><ele>945.0</ele><time>2026-05-03T15:43:17Z</time></trkpt><trkpt lat="43.63411083238938" lon="18.45851451773835"><ele>948.0</ele><time>2026-05-03T15:43:18Z</time></trkpt><trkpt lat="43.634195082648446" lon="18.458316896199214"><ele>951.0</ele><time>2026-05-03T15:43:19Z</time></trkpt><trkpt lat="43.63427523615762" lon="18.458121718292627"><ele>949.6666666666667</ele><time>2026-05-03T15:43:20Z</time></trkpt><trkpt lat="43.63433086433915" lon="18.45792656458331"><ele>948.3333333333334</ele><time>2026-05-03T15:43:21Z</time></trkpt><trkpt lat="43.63435494364" lon="18.457727156760754"><ele>947.0</ele><time>2026-05-03T15:43:22Z</time></trkpt><trkpt lat="43.63433672726132" lon="18.4575178439286"><ele>947.0</ele><time>2026-05-03T15:43:23Z</time></trkpt><trkpt lat="43.6342700513532" lon="18.45733330726274"><ele>947.0</ele><time>2026-05-03T15:43:24Z</time></trkpt><trkpt lat="43.63416844657207" lon="18.457183845311295"><ele>947.0</ele><time>2026-05-03T15:43:25Z</time></trkpt><trkpt lat="43.63404637310618" lon="18.45707765909988"><ele>947.0</ele><time>2026-05-03T15:43:26Z</time></trkpt><trkpt lat="43.633910402017904" lon="18.45701267267894"><ele>944.75</ele><time>2026-05-03T15:43:27Z</time></trkpt><trkpt lat="43.63375690200419" lon="18.456991574784787"><ele>942.5</ele><time>2026-05-03T15:43:28Z</time></trkpt><trkpt lat="43.633603955460636" lon="18.457009257674343"><ele>940.25</ele><time>2026-05-03T15:43:29Z</time></trkpt><trkpt lat="43.63346332376674" lon="18.457033702568378"><ele>938.0</ele><time>2026-05-03T15:43:30Z</time></trkpt><trkpt lat="43.63335371492062" lon="18.45697397660646"><ele>938.0</ele><time>2026-05-03T15:43:31Z</time></trkpt><trkpt lat="43.63327558312207" lon="18.456903751473646"><ele>938.0</ele><time>2026-05-03T15:43:32Z</time></trkpt><trkpt lat="43.63321310849516" lon="18.456798177485126"><ele>938.0</ele><time>2026-05-03T15:43:33Z</time></trkpt><trkpt lat="43.6331865657937" lon="18.456673808961014"><ele>938.0</ele><time>2026-05-03T15:43:34Z</time></trkpt><trkpt lat="43.633201385294576" lon="18.4565433137918"><ele>938.0</ele><time>2026-05-03T15:43:35Z</time></trkpt><trkpt lat="43.63325814705229" lon="18.456434012568202"><ele>938.0</ele><time>2026-05-03T15:43:36Z</time></trkpt><trkpt lat="43.633343224777455" lon="18.45635085729431"><ele>938.0</ele><time>2026-05-03T15:43:37Z</time></trkpt><trkpt lat="43.63345542192199" lon="18.45630006905139"><ele>938.0</ele><time>2026-05-03T15:43:38Z</time></trkpt><trkpt lat="43.63359034336659" lon="18.456256807449332"><ele>938.0</ele><time>2026-05-03T15:43:39Z</time></trkpt><trkpt lat="43.633756629920796" lon="18.456198632304712"><ele>939.3333333333334</ele><time>2026-05-03T15:43:40Z</time></trkpt><trkpt lat="43.633934084532655" lon="18.456159321751958"><ele>940.6666666666667</ele><time>2026-05-03T15:43:41Z</time></trkpt><trkpt lat="43.634128785954964" lon="18.45611753762659"><ele>942.0</ele><time>2026-05-03T15:43:42Z</time></trkpt><trkpt lat="43.63432353680943" lon="18.45609146831705"><ele>942.6666666666667</ele><time>2026-05-03T15:43:43Z</time></trkpt><trkpt lat="43.63450290353193" lon="18.456098050015385"><ele>943.3333333333334</ele><time>2026-05-03T15:43:44Z</time></trkpt><trkpt lat="43.6346732896624" lon="18.45614770548789"><ele>944.0</ele><time>2026-05-03T15:43:45Z</time></trkpt><trkpt lat="43.6348576109738" lon="18.456229569038097"><ele>933.5</ele><time>2026-05-03T15:43:46Z</time></trkpt><trkpt lat="43.63505698568335" lon="18.456370338411357"><ele>923.0</ele><time>2026-05-03T15:43:47Z</time></trkpt><trkpt lat="43.635254758748" lon="18.456535208157774"><ele>924.0</ele><time>2026-05-03T15:43:48Z</time></trkpt><trkpt lat="43.635456761373945" lon="18.456715605454335"><ele>925.0</ele><time>2026-05-03T15:43:49Z</time></trkpt><trkpt lat="43.635641284309365" lon="18.456876968575752"><ele>925.0</ele><time>2026-05-03T15:43:50Z</time></trkpt><trkpt lat="43.63582307318231" lon="18.457022953457447"><ele>925.0</ele><time>2026-05-03T15:43:51Z</time></trkpt><trkpt lat="43.635990903035" lon="18.457160113167276"><ele>925.0</ele><time>2026-05-03T15:43:52Z</time></trkpt><trkpt lat="43.63614607749309" lon="18.457277797717616"><ele>916.3333333333333</ele><time>2026-05-03T15:43:53Z</time></trkpt><trkpt lat="43.636293046395785" lon="18.45736087447045"><ele>907.6666666666667</ele><time>2026-05-03T15:43:54Z</time></trkpt><trkpt lat="43.6364418797501" lon="18.457385584337732"><ele>899.0</ele><time>2026-05-03T15:43:55Z</time></trkpt><trkpt lat="43.6365954618455" lon="18.457369516312202"><ele>899.0</ele><time>2026-05-03T15:43:56Z</time></trkpt><trkpt lat="43.636737120643524" lon="18.45730714441111"><ele>899.0</ele><time>2026-05-03T15:43:57Z</time></trkpt><trkpt lat="43.63686850451261" lon="18.45718445661051"><ele>899.0</ele><time>2026-05-03T15:43:58Z</time></trkpt><trkpt lat="43.63699461379955" lon="18.45703386540776"><ele>897.6666666666667</ele><time>2026-05-03T15:43:59Z</time></trkpt><trkpt lat="43.63712138667505" lon="18.456869557435557"><ele>896.3333333333333</ele><time>2026-05-03T15:44:00Z</time></trkpt><trkpt lat="43.63725633117544" lon="18.45670482276578"><ele>895.0</ele><time>2026-05-03T15:44:01Z</time></trkpt><trkpt lat="43.63737752451457" lon="18.45656125233152"><ele>895.0</ele><time>2026-05-03T15:44:02Z</time></trkpt><trkpt lat="43.63749301563606" lon="18.45643140848885"><ele>895.0</ele><time>2026-05-03T15:44:03Z</time></trkpt><trkpt lat="43.63759765749318" lon="18.456305000578435"><ele>895.0</ele><time>2026-05-03T15:44:04Z</time></trkpt><trkpt lat="43.637696090070115" lon="18.456170154917885"><ele>895.0</ele><time>2026-05-03T15:44:05Z</time></trkpt><trkpt lat="43.63778273465787" lon="18.456036814707105"><ele>891.25</ele><time>2026-05-03T15:44:06Z</time></trkpt><trkpt lat="43.63786053363516" lon="18.45589536014584"><ele>887.5</ele><time>2026-05-03T15:44:07Z</time></trkpt><trkpt lat="43.63792956211163" lon="18.455753374278785"><ele>883.75</ele><time>2026-05-03T15:44:08Z</time></trkpt><trkpt lat="43.63800034672618" lon="18.455625189882543"><ele>880.0</ele><time>2026-05-03T15:44:09Z</time></trkpt><trkpt lat="43.63803822245227" lon="18.45547050495611"><ele>882.0</ele><time>2026-05-03T15:44:10Z</time></trkpt><trkpt lat="43.6380904385878" lon="18.455312557382268"><ele>884.0</ele><time>2026-05-03T15:44:11Z</time></trkpt><trkpt lat="43.63813587505231" lon="18.455146599704538"><ele>886.0</ele><time>2026-05-03T15:44:12Z</time></trkpt><trkpt lat="43.638181006466034" lon="18.454978952389776"><ele>888.0</ele><time>2026-05-03T15:44:13Z</time></trkpt><trkpt lat="43.63821299147765" lon="18.454811883006293"><ele>888.0</ele><time>2026-05-03T15:44:14Z</time></trkpt><trkpt lat="43.63824208459616" lon="18.45464916252626"><ele>888.0</ele><time>2026-05-03T15:44:15Z</time></trkpt><trkpt lat="43.63827087733094" lon="18.45448304698541"><ele>888.0</ele><time>2026-05-03T15:44:16Z</time></trkpt><trkpt lat="43.638299353350114" lon="18.454319298093594"><ele>888.0</ele><time>2026-05-03T15:44:17Z</time></trkpt><trkpt lat="43.63833433448943" lon="18.454164630877926"><ele>888.25</ele><time>2026-05-03T15:44:18Z</time></trkpt><trkpt lat="43.63836837852939" lon="18.454002793601205"><ele>888.5</ele><time>2026-05-03T15:44:19Z</time></trkpt><trkpt lat="43.63838363941153" lon="18.45383451536572"><ele>888.75</ele><time>2026-05-03T15:44:20Z</time></trkpt><trkpt lat="43.63837929271057" lon="18.45366614476132"><ele>889.0</ele><time>2026-05-03T15:44:21Z</time></trkpt><trkpt lat="43.63835133557722" lon="18.45350132864838"><ele>889.0</ele><time>2026-05-03T15:44:22Z</time></trkpt><trkpt lat="43.6382997881965" lon="18.453345328491206"><ele>889.0</ele><time>2026-05-03T15:44:23Z</time></trkpt><trkpt lat="43.63824498674681" lon="18.4531935811048"><ele>889.0</ele><time>2026-05-03T15:44:24Z</time></trkpt><trkpt lat="43.63819763148772" lon="18.453038251488717"><ele>889.0</ele><time>2026-05-03T15:44:25Z</time></trkpt><trkpt lat="43.63815371552853" lon="18.45287810867829"><ele>886.5</ele><time>2026-05-03T15:44:26Z</time></trkpt><trkpt lat="43.638120358810895" lon="18.452716813304924"><ele>884.0</ele><time>2026-05-03T15:44:27Z</time></trkpt><trkpt lat="43.63811203318628" lon="18.452546661868073"><ele>881.5</ele><time>2026-05-03T15:44:28Z</time></trkpt><trkpt lat="43.63816387061697" lon="18.452390722494656"><ele>879.0</ele><time>2026-05-03T15:44:29Z</time></trkpt><trkpt lat="43.638233929575115" lon="18.452250737011035"><ele>879.0</ele><time>2026-05-03T15:44:30Z</time></trkpt><trkpt lat="43.63834085341665" lon="18.452172116427587"><ele>879.0</ele><time>2026-05-03T15:44:31Z</time></trkpt><trkpt lat="43.63845504345829" lon="18.452137706861635"><ele>879.0</ele><time>2026-05-03T15:44:32Z</time></trkpt><trkpt lat="43.638575678977666" lon="18.45213885990764"><ele>879.0</ele><time>2026-05-03T15:44:33Z</time></trkpt><trkpt lat="43.63869743255705" lon="18.452132043711025"><ele>876.25</ele><time>2026-05-03T15:44:34Z</time></trkpt><trkpt lat="43.638817262926615" lon="18.452162289196732"><ele>873.5</ele><time>2026-05-03T15:44:35Z</time></trkpt><trkpt lat="43.638939407247484" lon="18.452180631464447"><ele>870.75</ele><time>2026-05-03T15:44:36Z</time></trkpt><trkpt lat="43.639057652338884" lon="18.45217938704643"><ele>868.0</ele><time>2026-05-03T15:44:37Z</time></trkpt><trkpt lat="43.639179984965516" lon="18.452151239772697"><ele>867.5</ele><time>2026-05-03T15:44:38Z</time></trkpt><trkpt lat="43.639305197611584" lon="18.45209709360417"><ele>867.0</ele><time>2026-05-03T15:44:39Z</time></trkpt><trkpt lat="43.63943781875194" lon="18.45202493431555"><ele>866.5</ele><time>2026-05-03T15:44:40Z</time></trkpt><trkpt lat="43.63957878346238" lon="18.45193006001004"><ele>866.0</ele><time>2026-05-03T15:44:41Z</time></trkpt><trkpt lat="43.63972445504996" lon="18.45181641452031"><ele>866.0</ele><time>2026-05-03T15:44:42Z</time></trkpt><trkpt lat="43.63988033120678" lon="18.451702379416783"><ele>866.0</ele><time>2026-05-03T15:44:43Z</time></trkpt><trkpt lat="43.64003871183654" lon="18.45157683698659"><ele>866.0</ele><time>2026-05-03T15:44:44Z</time></trkpt><trkpt lat="43.640207483388316" lon="18.451448218278436"><ele>865.6666666666667</ele><time>2026-05-03T15:44:45Z</time></trkpt><trkpt lat="43.640378818162255" lon="18.451319429068704"><ele>865.3333333333333</ele><time>2026-05-03T15:44:46Z</time></trkpt><trkpt lat="43.64054872134567" lon="18.451200337691205"><ele>865.0</ele><time>2026-05-03T15:44:47Z</time></trkpt><trkpt lat="43.640729042295305" lon="18.451102846477404"><ele>864.3333333333333</ele><time>2026-05-03T15:44:48Z</time></trkpt><trkpt lat="43.64092257966347" lon="18.451025094727683"><ele>863.6666666666667</ele><time>2026-05-03T15:44:49Z</time></trkpt><trkpt lat="43.64112336112898" lon="18.450974136561832"><ele>863.0</ele><time>2026-05-03T15:44:50Z</time></trkpt><trkpt lat="43.64132532100966" lon="18.45092773897852"><ele>863.0</ele><time>2026-05-03T15:44:51Z</time></trkpt><trkpt lat="43.64151803761138" lon="18.450872541488543"><ele>863.0</ele><time>2026-05-03T15:44:52Z</time></trkpt><trkpt lat="43.64169800151598" lon="18.450792325700277"><ele>863.0</ele><time>2026-05-03T15:44:53Z</time></trkpt><trkpt lat="43.64188408771642" lon="18.45068726058698"><ele>862.3333333333334</ele><time>2026-05-03T15:44:54Z</time></trkpt><trkpt lat="43.64206172831014" lon="18.450566972147055"><ele>861.6666666666667</ele><time>2026-05-03T15:44:55Z</time></trkpt><trkpt lat="43.642240035150074" lon="18.45046398187115"><ele>861.0</ele><time>2026-05-03T15:44:56Z</time></trkpt><trkpt lat="43.64240420308988" lon="18.45029945260236"><ele>861.0</ele><time>2026-05-03T15:44:57Z</time></trkpt><trkpt lat="43.642571207890505" lon="18.450144527561065"><ele>861.0</ele><time>2026-05-03T15:44:58Z</time></trkpt><trkpt lat="43.642727697359824" lon="18.449976234673052"><ele>861.0</ele><time>2026-05-03T15:44:59Z</time></trkpt><trkpt lat="43.64288707657382" lon="18.44979242840795"><ele>858.6666666666667</ele><time>2026-05-03T15:45:00Z</time></trkpt><trkpt lat="43.64305390872533" lon="18.449631677639324"><ele>856.3333333333334</ele><time>2026-05-03T15:45:01Z</time></trkpt><trkpt lat="43.64320765660085" lon="18.44945873932304"><ele>854.0</ele><time>2026-05-03T15:45:02Z</time></trkpt><trkpt lat="43.643369295766696" lon="18.449297850393688"><ele>853.6666666666667</ele><time>2026-05-03T15:45:03Z</time></trkpt><trkpt lat="43.643526758391715" lon="18.449128322803343"><ele>853.3333333333333</ele><time>2026-05-03T15:45:04Z</time></trkpt><trkpt lat="43.64369879276996" lon="18.448987741401556"><ele>853.0</ele><time>2026-05-03T15:45:05Z</time></trkpt><trkpt lat="43.643876140298396" lon="18.44885853707418"><ele>852.6666666666666</ele><time>2026-05-03T15:45:06Z</time></trkpt><trkpt lat="43.6440522646288" lon="18.44872609322211"><ele>852.3333333333333</ele><time>2026-05-03T15:45:07Z</time></trkpt><trkpt lat="43.64423828290253" lon="18.448611860889702"><ele>852.0</ele><time>2026-05-03T15:45:08Z</time></trkpt><trkpt lat="43.644430356232974" lon="18.448513994681008"><ele>852.0</ele><time>2026-05-03T15:45:09Z</time></trkpt><trkpt lat="43.644626524306496" lon="18.448418835168837"><ele>852.0</ele><time>2026-05-03T15:45:10Z</time></trkpt><trkpt lat="43.64482454390578" lon="18.44832348694512"><ele>852.0</ele><time>2026-05-03T15:45:11Z</time></trkpt><trkpt lat="43.645018477983434" lon="18.44822989964153"><ele>852.0</ele><time>2026-05-03T15:45:12Z</time></trkpt><trkpt lat="43.645219435324805" lon="18.448130174434482"><ele>852.0</ele><time>2026-05-03T15:45:13Z</time></trkpt><trkpt lat="43.64541598065398" lon="18.44803329745211"><ele>852.0</ele><time>2026-05-03T15:45:14Z</time></trkpt><trkpt lat="43.64561617543988" lon="18.447929057043822"><ele>849.3333333333333</ele><time>2026-05-03T15:45:15Z</time></trkpt><trkpt lat="43.64581224791005" lon="18.44783165363692"><ele>846.6666666666666</ele><time>2026-05-03T15:45:16Z</time></trkpt><trkpt lat="43.646009996375135" lon="18.447732703378563"><ele>844.0</ele><time>2026-05-03T15:45:17Z</time></trkpt><trkpt lat="43.646213240369356" lon="18.44763093289069"><ele>843.6666666666666</ele><time>2026-05-03T15:45:18Z</time></trkpt><trkpt lat="43.646409704097806" lon="18.447535579376602"><ele>843.3333333333333</ele><time>2026-05-03T15:45:19Z</time></trkpt><trkpt lat="43.64661200681446" lon="18.44743953332522"><ele>843.0</ele><time>2026-05-03T15:45:20Z</time></trkpt><trkpt lat="43.646813622887294" lon="18.447342061391872"><ele>843.0</ele><time>2026-05-03T15:45:21Z</time></trkpt><trkpt lat="43.64701967095771" lon="18.4472379410452"><ele>843.0</ele><time>2026-05-03T15:45:22Z</time></trkpt><trkpt lat="43.64722375364947" lon="18.44713487736598"><ele>843.0</ele><time>2026-05-03T15:45:23Z</time></trkpt><trkpt lat="43.647440161016334" lon="18.447041002820463"><ele>842.5</ele><time>2026-05-03T15:45:24Z</time></trkpt><trkpt lat="43.647664652590315" lon="18.446976983412707"><ele>842.0</ele><time>2026-05-03T15:45:25Z</time></trkpt><trkpt lat="43.64791056796061" lon="18.44695089721552"><ele>841.5</ele><time>2026-05-03T15:45:26Z</time></trkpt><trkpt lat="43.64816923997098" lon="18.446952379702754"><ele>841.0</ele><time>2026-05-03T15:45:27Z</time></trkpt><trkpt lat="43.64843306472093" lon="18.44698412234243"><ele>843.0</ele><time>2026-05-03T15:45:28Z</time></trkpt><trkpt lat="43.64871063900268" lon="18.44702133550859"><ele>845.0</ele><time>2026-05-03T15:45:29Z</time></trkpt><trkpt lat="43.648990460258446" lon="18.44706075988712"><ele>845.0</ele><time>2026-05-03T15:45:30Z</time></trkpt><trkpt lat="43.64927355086858" lon="18.44706574329464"><ele>845.0</ele><time>2026-05-03T15:45:31Z</time></trkpt><trkpt lat="43.649586267576105" lon="18.447023887222688"><ele>843.5</ele><time>2026-05-03T15:45:32Z</time></trkpt><trkpt lat="43.64989743727011" lon="18.44692569229833"><ele>842.0</ele><time>2026-05-03T15:45:33Z</time></trkpt><trkpt lat="43.65018999918403" lon="18.446793750061083"><ele>840.0</ele><time>2026-05-03T15:45:34Z</time></trkpt><trkpt lat="43.65049783122892" lon="18.44664800190445"><ele>838.0</ele><time>2026-05-03T15:45:35Z</time></trkpt><trkpt lat="43.65079538627919" lon="18.446510401018518"><ele>838.0</ele><time>2026-05-03T15:45:36Z</time></trkpt><trkpt lat="43.65108456493494" lon="18.44638491516212"><ele>838.0</ele><time>2026-05-03T15:45:37Z</time></trkpt><trkpt lat="43.651347436249466" lon="18.44627252820549"><ele>839.6666666666666</ele><time>2026-05-03T15:45:38Z</time></trkpt><trkpt lat="43.65157100383154" lon="18.446177167567523"><ele>841.3333333333333</ele><time>2026-05-03T15:45:39Z</time></trkpt><trkpt lat="43.65173614686507" lon="18.44610629211192"><ele>843.0</ele><time>2026-05-03T15:45:40Z</time></trkpt><trkpt lat="43.65189009450698" lon="18.446034360336146"><ele>844.0</ele><time>2026-05-03T15:45:41Z</time></trkpt><trkpt lat="43.652024599697356" lon="18.445962301742085"><ele>845.0</ele><time>2026-05-03T15:45:42Z</time></trkpt><trkpt lat="43.65215414588362" lon="18.445887883953954"><ele>846.0</ele><time>2026-05-03T15:45:43Z</time></trkpt><trkpt lat="43.652266148338235" lon="18.4458221249147"><ele>847.0</ele><time>2026-05-03T15:45:44Z</time></trkpt><trkpt lat="43.65238165373506" lon="18.4457516567919"><ele>847.0</ele><time>2026-05-03T15:45:45Z</time></trkpt><trkpt lat="43.65250251149678" lon="18.445675041298625"><ele>847.0</ele><time>2026-05-03T15:45:46Z</time></trkpt><trkpt lat="43.65262617477884" lon="18.44559106727047"><ele>847.0</ele><time>2026-05-03T15:45:47Z</time></trkpt><trkpt lat="43.65274725153952" lon="18.445511110078723"><ele>847.0</ele><time>2026-05-03T15:45:48Z</time></trkpt><trkpt lat="43.65286691836951" lon="18.445426015212853"><ele>846.25</ele><time>2026-05-03T15:45:49Z</time></trkpt><trkpt lat="43.65298543174076" lon="18.44533545674035"><ele>845.5</ele><time>2026-05-03T15:45:50Z</time></trkpt><trkpt lat="43.65310432013972" lon="18.44524172364301"><ele>844.75</ele><time>2026-05-03T15:45:51Z</time></trkpt><trkpt lat="43.65322298902275" lon="18.445144201149365"><ele>844.0</ele><time>2026-05-03T15:45:52Z</time></trkpt><trkpt lat="43.65334381187884" lon="18.445045480491313"><ele>844.0</ele><time>2026-05-03T15:45:53Z</time></trkpt><trkpt lat="43.653466286894904" lon="18.44494863191714"><ele>844.0</ele><time>2026-05-03T15:45:54Z</time></trkpt><trkpt lat="43.65358509518251" lon="18.444852431513567"><ele>844.0</ele><time>2026-05-03T15:45:55Z</time></trkpt><trkpt lat="43.65370135979344" lon="18.444755546686174"><ele>844.0</ele><time>2026-05-03T15:45:56Z</time></trkpt><trkpt lat="43.65382486145854" lon="18.444651605419335"><ele>844.0</ele><time>2026-05-03T15:45:57Z</time></trkpt><trkpt lat="43.653941581880424" lon="18.444561997153652"><ele>844.0</ele><time>2026-05-03T15:45:58Z</time></trkpt><trkpt lat="43.65406216719206" lon="18.444463020885642"><ele>844.0</ele><time>2026-05-03T15:45:59Z</time></trkpt><trkpt lat="43.65418570476452" lon="18.444362815571537"><ele>844.0</ele><time>2026-05-03T15:46:00Z</time></trkpt><trkpt lat="43.65430892334987" lon="18.4442666319721"><ele>844.0</ele><time>2026-05-03T15:46:01Z</time></trkpt><trkpt lat="43.65443155397212" lon="18.444176231335984"><ele>844.0</ele><time>2026-05-03T15:46:02Z</time></trkpt><trkpt lat="43.65456068198132" lon="18.444089161243678"><ele>844.0</ele><time>2026-05-03T15:46:03Z</time></trkpt><trkpt lat="43.65469856172452" lon="18.444013743358557"><ele>844.0</ele><time>2026-05-03T15:46:04Z</time></trkpt><trkpt lat="43.6548266227296" lon="18.443947673622763"><ele>843.5</ele><time>2026-05-03T15:46:05Z</time></trkpt><trkpt lat="43.654965367867334" lon="18.443892533369457"><ele>843.0</ele><time>2026-05-03T15:46:06Z</time></trkpt><trkpt lat="43.65509850347826" lon="18.443859389737224"><ele>842.5</ele><time>2026-05-03T15:46:07Z</time></trkpt><trkpt lat="43.655227101310615" lon="18.443833429205224"><ele>842.0</ele><time>2026-05-03T15:46:08Z</time></trkpt><trkpt lat="43.655349311489815" lon="18.443821343364444"><ele>841.0</ele><time>2026-05-03T15:46:09Z</time></trkpt><trkpt lat="43.65547269985847" lon="18.443806940866455"><ele>840.0</ele><time>2026-05-03T15:46:10Z</time></trkpt><trkpt lat="43.65559416863995" lon="18.443801555162572"><ele>839.0</ele><time>2026-05-03T15:46:11Z</time></trkpt><trkpt lat="43.65571791625649" lon="18.443792798538386"><ele>838.0</ele><time>2026-05-03T15:46:12Z</time></trkpt><trkpt lat="43.65584367137732" lon="18.443783008541846"><ele>837.25</ele><time>2026-05-03T15:46:13Z</time></trkpt><trkpt lat="43.65596773269761" lon="18.443773726277673"><ele>836.5</ele><time>2026-05-03T15:46:14Z</time></trkpt><trkpt lat="43.6560959873238" lon="18.4437635197321"><ele>835.75</ele><time>2026-05-03T15:46:15Z</time></trkpt><trkpt lat="43.656233679561176" lon="18.443757483905088"><ele>835.0</ele><time>2026-05-03T15:46:16Z</time></trkpt><trkpt lat="43.656377451436995" lon="18.443752680862723"><ele>834.3333333333333</ele><time>2026-05-03T15:46:17Z</time></trkpt><trkpt lat="43.65653305076141" lon="18.44374078784779"><ele>833.6666666666667</ele><time>2026-05-03T15:46:18Z</time></trkpt><trkpt lat="43.656689223431215" lon="18.443733868724074"><ele>833.0</ele><time>2026-05-03T15:46:19Z</time></trkpt><trkpt lat="43.656851646251916" lon="18.44372503134788"><ele>832.0</ele><time>2026-05-03T15:46:20Z</time></trkpt><trkpt lat="43.657018676752" lon="18.443726680620816"><ele>831.0</ele><time>2026-05-03T15:46:21Z</time></trkpt><trkpt lat="43.657186804416" lon="18.44374020837464"><ele>830.0</ele><time>2026-05-03T15:46:22Z</time></trkpt><trkpt lat="43.65735936814285" lon="18.443769500048838"><ele>829.3333333333334</ele><time>2026-05-03T15:46:23Z</time></trkpt><trkpt lat="43.65755920816641" lon="18.44382549639084"><ele>828.6666666666667</ele><time>2026-05-03T15:46:24Z</time></trkpt><trkpt lat="43.65778502750368" lon="18.443915905446087"><ele>828.0</ele><time>2026-05-03T15:46:25Z</time></trkpt><trkpt lat="43.65802304581149" lon="18.44404023878742"><ele>828.0</ele><time>2026-05-03T15:46:26Z</time></trkpt><trkpt lat="43.65824546726995" lon="18.444174518942734"><ele>828.0</ele><time>2026-05-03T15:46:27Z</time></trkpt><trkpt lat="43.65846834912812" lon="18.444315130332186"><ele>825.0</ele><time>2026-05-03T15:46:28Z</time></trkpt><trkpt lat="43.65869031667769" lon="18.44442697719443"><ele>822.0</ele><time>2026-05-03T15:46:29Z</time></trkpt><trkpt lat="43.6589079607222" lon="18.444487477702992"><ele>822.0</ele><time>2026-05-03T15:46:30Z</time></trkpt><trkpt lat="43.65911735151234" lon="18.44452197556028"><ele>822.0</ele><time>2026-05-03T15:46:31Z</time></trkpt><trkpt lat="43.65931316134801" lon="18.44452680525042"><ele>822.0</ele><time>2026-05-03T15:46:32Z</time></trkpt><trkpt lat="43.659496207877574" lon="18.444504364696993"><ele>823.6666666666667</ele><time>2026-05-03T15:46:33Z</time></trkpt><trkpt lat="43.65967641915786" lon="18.444471778012655"><ele>825.3333333333334</ele><time>2026-05-03T15:46:34Z</time></trkpt><trkpt lat="43.65985684566601" lon="18.44442349100819"><ele>827.0</ele><time>2026-05-03T15:46:35Z</time></trkpt><trkpt lat="43.66002813832398" lon="18.444360145342177"><ele>827.0</ele><time>2026-05-03T15:46:36Z</time></trkpt><trkpt lat="43.66020281084892" lon="18.44428020473911"><ele>827.0</ele><time>2026-05-03T15:46:37Z</time></trkpt><trkpt lat="43.6603656729288" lon="18.444209883558496"><ele>827.0</ele><time>2026-05-03T15:46:38Z</time></trkpt><trkpt lat="43.66051444720931" lon="18.44414782593522"><ele>826.75</ele><time>2026-05-03T15:46:39Z</time></trkpt><trkpt lat="43.660652832175266" lon="18.444093615658918"><ele>826.5</ele><time>2026-05-03T15:46:40Z</time></trkpt><trkpt lat="43.66079200658266" lon="18.444041520669884"><ele>826.25</ele><time>2026-05-03T15:46:41Z</time></trkpt><trkpt lat="43.660930654309205" lon="18.443998826010343"><ele>826.0</ele><time>2026-05-03T15:46:42Z</time></trkpt><trkpt lat="43.661060613389374" lon="18.443986594338813"><ele>826.25</ele><time>2026-05-03T15:46:43Z</time></trkpt><trkpt lat="43.661192398913755" lon="18.444014893961796"><ele>826.5</ele><time>2026-05-03T15:46:44Z</time></trkpt><trkpt lat="43.66132103479322" lon="18.4440768989861"><ele>826.75</ele><time>2026-05-03T15:46:45Z</time></trkpt><trkpt lat="43.66144573001703" lon="18.44416575922363"><ele>827.0</ele><time>2026-05-03T15:46:46Z</time></trkpt><trkpt lat="43.66156158158832" lon="18.4442726848136"><ele>827.0</ele><time>2026-05-03T15:46:47Z</time></trkpt><trkpt lat="43.66167724522542" lon="18.44438492461836"><ele>827.0</ele><time>2026-05-03T15:46:48Z</time></trkpt><trkpt lat="43.66180152698572" lon="18.4445003051471"><ele>827.0</ele><time>2026-05-03T15:46:49Z</time></trkpt><trkpt lat="43.66192788293594" lon="18.44460085738698"><ele>827.0</ele><time>2026-05-03T15:46:50Z</time></trkpt><trkpt lat="43.66206402827065" lon="18.44468042129934"><ele>826.5</ele><time>2026-05-03T15:46:51Z</time></trkpt><trkpt lat="43.66219453893464" lon="18.444751843379567"><ele>826.0</ele><time>2026-05-03T15:46:52Z</time></trkpt><trkpt lat="43.66233863857864" lon="18.44481985276591"><ele>825.5</ele><time>2026-05-03T15:46:53Z</time></trkpt><trkpt lat="43.66247893052985" lon="18.444890063407524"><ele>825.0</ele><time>2026-05-03T15:46:54Z</time></trkpt><trkpt lat="43.66261927961717" lon="18.444960730630015"><ele>825.0</ele><time>2026-05-03T15:46:55Z</time></trkpt><trkpt lat="43.6627624226839" lon="18.44502362585955"><ele>825.0</ele><time>2026-05-03T15:46:56Z</time></trkpt><trkpt lat="43.66290195375449" lon="18.445082629492756"><ele>825.0</ele><time>2026-05-03T15:46:57Z</time></trkpt><trkpt lat="43.66303901233221" lon="18.44511987586921"><ele>825.0</ele><time>2026-05-03T15:46:58Z</time></trkpt><trkpt lat="43.663167595426884" lon="18.445156785708992"><ele>824.25</ele><time>2026-05-03T15:46:59Z</time></trkpt><trkpt lat="43.66328851482659" lon="18.445193806852416"><ele>823.5</ele><time>2026-05-03T15:47:00Z</time></trkpt><trkpt lat="43.66340440166204" lon="18.44522314216453"><ele>822.75</ele><time>2026-05-03T15:47:01Z</time></trkpt><trkpt lat="43.66352121493112" lon="18.445267945461183"><ele>822.0</ele><time>2026-05-03T15:47:02Z</time></trkpt><trkpt lat="43.663639125313495" lon="18.445321916623307"><ele>821.75</ele><time>2026-05-03T15:47:03Z</time></trkpt><trkpt lat="43.66376638269933" lon="18.445393152206815"><ele>821.5</ele><time>2026-05-03T15:47:04Z</time></trkpt><trkpt lat="43.66389579604376" lon="18.445478634764275"><ele>821.25</ele><time>2026-05-03T15:47:05Z</time></trkpt><trkpt lat="43.664029303012896" lon="18.4455775978607"><ele>821.0</ele><time>2026-05-03T15:47:06Z</time></trkpt><trkpt lat="43.66416981788075" lon="18.445675819143926"><ele>821.0</ele><time>2026-05-03T15:47:07Z</time></trkpt><trkpt lat="43.6642994983167" lon="18.4457822503844"><ele>821.0</ele><time>2026-05-03T15:47:08Z</time></trkpt><trkpt lat="43.66443139843171" lon="18.445874228826902"><ele>821.0</ele><time>2026-05-03T15:47:09Z</time></trkpt><trkpt lat="43.66457058736085" lon="18.445965570562187"><ele>820.3333333333334</ele><time>2026-05-03T15:47:10Z</time></trkpt><trkpt lat="43.66471814046493" lon="18.446045788204888"><ele>819.6666666666667</ele><time>2026-05-03T15:47:11Z</time></trkpt><trkpt lat="43.66486211521387" lon="18.446130670331215"><ele>819.0</ele><time>2026-05-03T15:47:12Z</time></trkpt><trkpt lat="43.6649962247052" lon="18.44621627135482"><ele>819.0</ele><time>2026-05-03T15:47:13Z</time></trkpt><trkpt lat="43.66513099474137" lon="18.446292978047516"><ele>819.0</ele><time>2026-05-03T15:47:14Z</time></trkpt><trkpt lat="43.66526191087718" lon="18.446363858013665"><ele>819.0</ele><time>2026-05-03T15:47:15Z</time></trkpt><trkpt lat="43.66539194922738" lon="18.446430425129655"><ele>819.0</ele><time>2026-05-03T15:47:16Z</time></trkpt><trkpt lat="43.6655217501171" lon="18.44648917325192"><ele>818.75</ele><time>2026-05-03T15:47:17Z</time></trkpt><trkpt lat="43.66565025449566" lon="18.446549573810632"><ele>818.5</ele><time>2026-05-03T15:47:18Z</time></trkpt><trkpt lat="43.66577565723275" lon="18.446605894585158"><ele>818.25</ele><time>2026-05-03T15:47:19Z</time></trkpt><trkpt lat="43.66590406662372" lon="18.446652526813992"><ele>818.0</ele><time>2026-05-03T15:47:20Z</time></trkpt><trkpt lat="43.66602615126349" lon="18.446696960857498"><ele>817.5</ele><time>2026-05-03T15:47:21Z</time></trkpt><trkpt lat="43.66615234457927" lon="18.44675404423597"><ele>817.0</ele><time>2026-05-03T15:47:22Z</time></trkpt><trkpt lat="43.66627270009135" lon="18.446812489178946"><ele>816.5</ele><time>2026-05-03T15:47:23Z</time></trkpt><trkpt lat="43.66637908292351" lon="18.44688468492469"><ele>816.0</ele><time>2026-05-03T15:47:24Z</time></trkpt><trkpt lat="43.66649542941274" lon="18.446973718516553"><ele>816.0</ele><time>2026-05-03T15:47:25Z</time></trkpt><trkpt lat="43.66660597598639" lon="18.447066560379344"><ele>816.0</ele><time>2026-05-03T15:47:26Z</time></trkpt><trkpt lat="43.6667133012464" lon="18.447158691052856"><ele>816.0</ele><time>2026-05-03T15:47:27Z</time></trkpt><trkpt lat="43.6668243685049" lon="18.447252696998902"><ele>816.0</ele><time>2026-05-03T15:47:28Z</time></trkpt><trkpt lat="43.666941920097734" lon="18.447349836695356"><ele>815.5</ele><time>2026-05-03T15:47:29Z</time></trkpt><trkpt lat="43.66705912651219" lon="18.447427709066783"><ele>815.0</ele><time>2026-05-03T15:47:30Z</time></trkpt><trkpt lat="43.66717153137484" lon="18.447504052333073"><ele>814.5</ele><time>2026-05-03T15:47:31Z</time></trkpt><trkpt lat="43.66728911138265" lon="18.447586792084532"><ele>814.0</ele><time>2026-05-03T15:47:32Z</time></trkpt><trkpt lat="43.66741016734476" lon="18.44765866555859"><ele>814.0</ele><time>2026-05-03T15:47:33Z</time></trkpt><trkpt lat="43.66752707319581" lon="18.4477253254585"><ele>814.0</ele><time>2026-05-03T15:47:34Z</time></trkpt><trkpt lat="43.6676359143648" lon="18.44778352573799"><ele>814.0</ele><time>2026-05-03T15:47:35Z</time></trkpt><trkpt lat="43.66774534101915" lon="18.447843059620965"><ele>814.0</ele><time>2026-05-03T15:47:36Z</time></trkpt><trkpt lat="43.667849892374946" lon="18.447901910726817"><ele>813.8333333333333</ele><time>2026-05-03T15:47:37Z</time></trkpt><trkpt lat="43.66794332245924" lon="18.44795381374705"><ele>813.6666666666666</ele><time>2026-05-03T15:47:38Z</time></trkpt><trkpt lat="43.66802142769147" lon="18.448003144365273"><ele>813.5</ele><time>2026-05-03T15:47:39Z</time></trkpt><trkpt lat="43.66808913211047" lon="18.448045735962086"><ele>813.3333333333333</ele><time>2026-05-03T15:47:40Z</time></trkpt><trkpt lat="43.668152487136005" lon="18.448088473617297"><ele>813.1666666666666</ele><time>2026-05-03T15:47:41Z</time></trkpt><trkpt lat="43.66822848929316" lon="18.448130609433655"><ele>813.0</ele><time>2026-05-03T15:47:42Z</time></trkpt><trkpt lat="43.66831675969268" lon="18.44817548375478"><ele>812.8</ele><time>2026-05-03T15:47:43Z</time></trkpt><trkpt lat="43.668408764252895" lon="18.44820989762534"><ele>812.5999999999999</ele><time>2026-05-03T15:47:44Z</time></trkpt><trkpt lat="43.66850993115797" lon="18.448256254241727"><ele>812.4000000000001</ele><time>2026-05-03T15:47:45Z</time></trkpt><trkpt lat="43.66860774209003" lon="18.448300549752837"><ele>812.2</ele><time>2026-05-03T15:47:46Z</time></trkpt><trkpt lat="43.66870692625982" lon="18.448340731843327"><ele>812.0</ele><time>2026-05-03T15:47:47Z</time></trkpt><trkpt lat="43.66881335597836" lon="18.448381226240965"><ele>811.5</ele><time>2026-05-03T15:47:48Z</time></trkpt><trkpt lat="43.66893211916232" lon="18.44842314356164"><ele>811.0</ele><time>2026-05-03T15:47:49Z</time></trkpt><trkpt lat="43.669055323150964" lon="18.448463137660948"><ele>810.5</ele><time>2026-05-03T15:47:50Z</time></trkpt><trkpt lat="43.66917980406686" lon="18.448502510361926"><ele>810.0</ele><time>2026-05-03T15:47:51Z</time></trkpt><trkpt lat="43.66930879422963" lon="18.44854394953327"><ele>810.0</ele><time>2026-05-03T15:47:52Z</time></trkpt><trkpt lat="43.669438430967816" lon="18.448582135409254"><ele>810.0</ele><time>2026-05-03T15:47:53Z</time></trkpt><trkpt lat="43.669576146722754" lon="18.448611460980022"><ele>810.0</ele><time>2026-05-03T15:47:54Z</time></trkpt><trkpt lat="43.66970993705847" lon="18.448635764235064"><ele>810.0</ele><time>2026-05-03T15:47:55Z</time></trkpt><trkpt lat="43.6698417345679" lon="18.448663255430997"><ele>809.75</ele><time>2026-05-03T15:47:56Z</time></trkpt><trkpt lat="43.66997486349803" lon="18.44868164456035"><ele>809.5</ele><time>2026-05-03T15:47:57Z</time></trkpt><trkpt lat="43.67010838021745" lon="18.448705942825832"><ele>809.25</ele><time>2026-05-03T15:47:58Z</time></trkpt><trkpt lat="43.67022182667795" lon="18.448722568077216"><ele>809.0</ele><time>2026-05-03T15:47:59Z</time></trkpt><trkpt lat="43.67033706977764" lon="18.448727150679957"><ele>808.5</ele><time>2026-05-03T15:48:00Z</time></trkpt><trkpt lat="43.67046788735691" lon="18.448733567206894"><ele>808.0</ele><time>2026-05-03T15:48:01Z</time></trkpt><trkpt lat="43.67059988315775" lon="18.448739236775943"><ele>807.5</ele><time>2026-05-03T15:48:02Z</time></trkpt><trkpt lat="43.67073876204646" lon="18.448744672873968"><ele>807.0</ele><time>2026-05-03T15:48:03Z</time></trkpt><trkpt lat="43.67088645331352" lon="18.44874849931127"><ele>807.0</ele><time>2026-05-03T15:48:04Z</time></trkpt><trkpt lat="43.67103631012519" lon="18.448748847589446"><ele>807.0</ele><time>2026-05-03T15:48:05Z</time></trkpt><trkpt lat="43.67118572641898" lon="18.448748354571524"><ele>807.0</ele><time>2026-05-03T15:48:06Z</time></trkpt><trkpt lat="43.6713426542588" lon="18.448752119724464"><ele>806.3333333333333</ele><time>2026-05-03T15:48:07Z</time></trkpt><trkpt lat="43.67149522480367" lon="18.44875875439767"><ele>805.6666666666666</ele><time>2026-05-03T15:48:08Z</time></trkpt><trkpt lat="43.67165114062842" lon="18.448762363962818"><ele>805.0</ele><time>2026-05-03T15:48:09Z</time></trkpt><trkpt lat="43.67181315500675" lon="18.448763526095508"><ele>804.6666666666666</ele><time>2026-05-03T15:48:10Z</time></trkpt><trkpt lat="43.67197317621904" lon="18.448759071499918"><ele>804.3333333333333</ele><time>2026-05-03T15:48:11Z</time></trkpt><trkpt lat="43.67213361449093" lon="18.448745436812075"><ele>804.0</ele><time>2026-05-03T15:48:12Z</time></trkpt><trkpt lat="43.67230293368555" lon="18.44871817360178"><ele>804.0</ele><time>2026-05-03T15:48:13Z</time></trkpt><trkpt lat="43.67246892884767" lon="18.448677779696744"><ele>804.0</ele><time>2026-05-03T15:48:14Z</time></trkpt><trkpt lat="43.67264386527384" lon="18.44862348671845"><ele>804.0</ele><time>2026-05-03T15:48:15Z</time></trkpt><trkpt lat="43.67282289458166" lon="18.448575232644398"><ele>804.3333333333333</ele><time>2026-05-03T15:48:16Z</time></trkpt><trkpt lat="43.67300865958657" lon="18.448523450316998"><ele>804.6666666666666</ele><time>2026-05-03T15:48:17Z</time></trkpt><trkpt lat="43.673203008569956" lon="18.448482884913965"><ele>805.0</ele><time>2026-05-03T15:48:18Z</time></trkpt><trkpt lat="43.67340202201396" lon="18.448485408074546"><ele>804.6666666666666</ele><time>2026-05-03T15:48:19Z</time></trkpt><trkpt lat="43.67360768826391" lon="18.448523330344273"><ele>804.3333333333333</ele><time>2026-05-03T15:48:20Z</time></trkpt><trkpt lat="43.67381185231099" lon="18.448557486634922"><ele>804.0</ele><time>2026-05-03T15:48:21Z</time></trkpt><trkpt lat="43.67401611298617" lon="18.448577058099787"><ele>804.0</ele><time>2026-05-03T15:48:22Z</time></trkpt><trkpt lat="43.67421554981963" lon="18.448574924705756"><ele>804.0</ele><time>2026-05-03T15:48:23Z</time></trkpt><trkpt lat="43.67442156350946" lon="18.448555490073236"><ele>804.0</ele><time>2026-05-03T15:48:24Z</time></trkpt><trkpt lat="43.67461968688881" lon="18.44853091226182"><ele>804.6666666666667</ele><time>2026-05-03T15:48:25Z</time></trkpt><trkpt lat="43.67481357858061" lon="18.448535992719318"><ele>805.3333333333334</ele><time>2026-05-03T15:48:26Z</time></trkpt><trkpt lat="43.675008473055165" lon="18.448585332071143"><ele>806.0</ele><time>2026-05-03T15:48:27Z</time></trkpt><trkpt lat="43.67519555637206" lon="18.448677847263745"><ele>804.3333333333334</ele><time>2026-05-03T15:48:28Z</time></trkpt><trkpt lat="43.675371402548365" lon="18.44878746656994"><ele>802.6666666666667</ele><time>2026-05-03T15:48:29Z</time></trkpt><trkpt lat="43.67553566743589" lon="18.448874247522284"><ele>801.0</ele><time>2026-05-03T15:48:30Z</time></trkpt><trkpt lat="43.675704434818066" lon="18.44890655995468"><ele>801.0</ele><time>2026-05-03T15:48:31Z</time></trkpt><trkpt lat="43.67588127312447" lon="18.448884763118237"><ele>801.0</ele><time>2026-05-03T15:48:32Z</time></trkpt><trkpt lat="43.67607160773739" lon="18.448810240281585"><ele>801.0</ele><time>2026-05-03T15:48:33Z</time></trkpt><trkpt lat="43.67626829099977" lon="18.448712619737996"><ele>801.6666666666667</ele><time>2026-05-03T15:48:34Z</time></trkpt><trkpt lat="43.67647321472014" lon="18.44859636912648"><ele>802.3333333333334</ele><time>2026-05-03T15:48:35Z</time></trkpt><trkpt lat="43.6766735462191" lon="18.44849301261488"><ele>803.0</ele><time>2026-05-03T15:48:36Z</time></trkpt><trkpt lat="43.67685543045393" lon="18.448395140292522"><ele>804.6666666666667</ele><time>2026-05-03T15:48:37Z</time></trkpt><trkpt lat="43.677017136939895" lon="18.44830041898167"><ele>806.3333333333333</ele><time>2026-05-03T15:48:38Z</time></trkpt><trkpt lat="43.67716271987314" lon="18.44818505584339"><ele>808.0</ele><time>2026-05-03T15:48:39Z</time></trkpt><trkpt lat="43.67729319638802" lon="18.448044775346954"><ele>804.3333333333333</ele><time>2026-05-03T15:48:40Z</time></trkpt><trkpt lat="43.677407392846256" lon="18.447865509410722"><ele>800.6666666666667</ele><time>2026-05-03T15:48:41Z</time></trkpt><trkpt lat="43.677513602309205" lon="18.447683448481605"><ele>797.0</ele><time>2026-05-03T15:48:42Z</time></trkpt><trkpt lat="43.67761003760634" lon="18.44749041261849"><ele>797.0</ele><time>2026-05-03T15:48:43Z</time></trkpt><trkpt lat="43.677705799104395" lon="18.447299885512436"><ele>797.0</ele><time>2026-05-03T15:48:44Z</time></trkpt><trkpt lat="43.677796027333" lon="18.447105822678175"><ele>797.0</ele><time>2026-05-03T15:48:45Z</time></trkpt><trkpt lat="43.67789617972339" lon="18.446930539192362"><ele>795.25</ele><time>2026-05-03T15:48:46Z</time></trkpt><trkpt lat="43.677989213857494" lon="18.44675686485097"><ele>793.5</ele><time>2026-05-03T15:48:47Z</time></trkpt><trkpt lat="43.678075865660624" lon="18.44659972913679"><ele>791.75</ele><time>2026-05-03T15:48:48Z</time></trkpt><trkpt lat="43.678160517268" lon="18.446456676208538"><ele>790.0</ele><time>2026-05-03T15:48:49Z</time></trkpt><trkpt lat="43.67824479066146" lon="18.44632895826401"><ele>790.25</ele><time>2026-05-03T15:48:50Z</time></trkpt><trkpt lat="43.67834044646816" lon="18.446212843642776"><ele>790.5</ele><time>2026-05-03T15:48:51Z</time></trkpt><trkpt lat="43.67844982561729" lon="18.446099016914776"><ele>790.75</ele><time>2026-05-03T15:48:52Z</time></trkpt><trkpt lat="43.67857063590732" lon="18.445992263612712"><ele>791.0</ele><time>2026-05-03T15:48:53Z</time></trkpt><trkpt lat="43.678706263675004" lon="18.44589388478153"><ele>790.3333333333334</ele><time>2026-05-03T15:48:54Z</time></trkpt><trkpt lat="43.67884936594612" lon="18.44581158754152"><ele>789.6666666666667</ele><time>2026-05-03T15:48:55Z</time></trkpt><trkpt lat="43.67901165206057" lon="18.44574411193738"><ele>789.0</ele><time>2026-05-03T15:48:56Z</time></trkpt><trkpt lat="43.67918066108131" lon="18.445694486196288"><ele>789.0</ele><time>2026-05-03T15:48:57Z</time></trkpt><trkpt lat="43.67935750922182" lon="18.44565544394591"><ele>789.0</ele><time>2026-05-03T15:48:58Z</time></trkpt><trkpt lat="43.67954176430498" lon="18.445625998590398"><ele>789.0</ele><time>2026-05-03T15:48:59Z</time></trkpt><trkpt lat="43.679723869421686" lon="18.445597776314404"><ele>789.3333333333333</ele><time>2026-05-03T15:49:00Z</time></trkpt><trkpt lat="43.67989568941967" lon="18.44556657867829"><ele>789.6666666666666</ele><time>2026-05-03T15:49:01Z</time></trkpt><trkpt lat="43.68006462984808" lon="18.44552703306873"><ele>790.0</ele><time>2026-05-03T15:49:02Z</time></trkpt><trkpt lat="43.68022931794583" lon="18.445476279944202"><ele>790.0</ele><time>2026-05-03T15:49:03Z</time></trkpt><trkpt lat="43.68039036886976" lon="18.44541595294791"><ele>790.0</ele><time>2026-05-03T15:49:04Z</time></trkpt><trkpt lat="43.68053882591774" lon="18.445337072172265"><ele>790.0</ele><time>2026-05-03T15:49:05Z</time></trkpt><trkpt lat="43.68067240542325" lon="18.445248762785237"><ele>790.0</ele><time>2026-05-03T15:49:06Z</time></trkpt><trkpt lat="43.68079175330998" lon="18.445144606290945"><ele>790.0</ele><time>2026-05-03T15:49:07Z</time></trkpt><trkpt lat="43.68090384439646" lon="18.44504760384253"><ele>790.0</ele><time>2026-05-03T15:49:08Z</time></trkpt><trkpt lat="43.68100736003926" lon="18.44496447533706"><ele>790.0</ele><time>2026-05-03T15:49:09Z</time></trkpt><trkpt lat="43.68110867037602" lon="18.444893992140415"><ele>791.0</ele><time>2026-05-03T15:49:10Z</time></trkpt><trkpt lat="43.68120753206282" lon="18.44483822613018"><ele>792.0</ele><time>2026-05-03T15:49:11Z</time></trkpt><trkpt lat="43.68129836627292" lon="18.444803794884734"><ele>793.0</ele><time>2026-05-03T15:49:12Z</time></trkpt><trkpt lat="43.68136925550559" lon="18.44478541733439"><ele>794.0</ele><time>2026-05-03T15:49:13Z</time></trkpt><trkpt lat="43.68141926298667" lon="18.444687665486548"><ele>795.0</ele><time>2026-05-03T15:49:15Z</time></trkpt><trkpt lat="43.68135820811939" lon="18.444588130031704"><ele>795.0</ele><time>2026-05-03T15:49:17Z</time></trkpt><trkpt lat="43.68132051082397" lon="18.44451417166388"><ele>795.0</ele><time>2026-05-03T15:49:18Z</time></trkpt><trkpt lat="43.68125873974046" lon="18.444402360443352"><ele>795.0</ele><time>2026-05-03T15:49:19Z</time></trkpt><trkpt lat="43.68122058476313" lon="18.444283007996642"><ele>795.0</ele><time>2026-05-03T15:49:20Z</time></trkpt><trkpt lat="43.68119008920714" lon="18.444107506075827"><ele>795.0</ele><time>2026-05-03T15:49:21Z</time></trkpt><trkpt lat="43.681153591213274" lon="18.443896529566516"><ele>794.0</ele><time>2026-05-03T15:49:22Z</time></trkpt><trkpt lat="43.681096858929045" lon="18.443676179705854"><ele>793.0</ele><time>2026-05-03T15:49:23Z</time></trkpt><trkpt lat="43.681026453466316" lon="18.443449853395016"><ele>792.0</ele><time>2026-05-03T15:49:24Z</time></trkpt><trkpt lat="43.680964022445835" lon="18.443215493353634"><ele>792.0</ele><time>2026-05-03T15:49:25Z</time></trkpt><trkpt lat="43.680908199173984" lon="18.442986670385544"><ele>792.0</ele><time>2026-05-03T15:49:26Z</time></trkpt><trkpt lat="43.68085723568166" lon="18.44276301686167"><ele>792.0</ele><time>2026-05-03T15:49:27Z</time></trkpt><trkpt lat="43.68080031431914" lon="18.442551034365273"><ele>792.0</ele><time>2026-05-03T15:49:28Z</time></trkpt><trkpt lat="43.680724999713156" lon="18.442361404187647"><ele>792.0</ele><time>2026-05-03T15:49:29Z</time></trkpt><trkpt lat="43.68062066899321" lon="18.4422129481708"><ele>792.0</ele><time>2026-05-03T15:49:30Z</time></trkpt><trkpt lat="43.68050118036923" lon="18.442088425050738"><ele>791.75</ele><time>2026-05-03T15:49:31Z</time></trkpt><trkpt lat="43.68038314511736" lon="18.441970668227803"><ele>791.5</ele><time>2026-05-03T15:49:32Z</time></trkpt><trkpt lat="43.68028481574044" lon="18.44183038875182"><ele>791.25</ele><time>2026-05-03T15:49:33Z</time></trkpt><trkpt lat="43.68022819926431" lon="18.441647644157133"><ele>791.0</ele><time>2026-05-03T15:49:34Z</time></trkpt><trkpt lat="43.68019604565835" lon="18.441453598674133"><ele>792.0</ele><time>2026-05-03T15:49:35Z</time></trkpt><trkpt lat="43.68016428616537" lon="18.441264784104323"><ele>793.0</ele><time>2026-05-03T15:49:36Z</time></trkpt><trkpt lat="43.68013294107453" lon="18.441087525387307"><ele>794.0</ele><time>2026-05-03T15:49:37Z</time></trkpt><trkpt lat="43.68010722141283" lon="18.44090290788821"><ele>795.0</ele><time>2026-05-03T15:49:38Z</time></trkpt><trkpt lat="43.68009655873829" lon="18.44071478793477"><ele>795.0</ele><time>2026-05-03T15:49:39Z</time></trkpt><trkpt lat="43.68006419520876" lon="18.440528421120764"><ele>795.0</ele><time>2026-05-03T15:49:40Z</time></trkpt><trkpt lat="43.67998748970554" lon="18.440345330748276"><ele>795.0</ele><time>2026-05-03T15:49:41Z</time></trkpt><trkpt lat="43.67988200688847" lon="18.44017828316752"><ele>795.3333333333333</ele><time>2026-05-03T15:49:42Z</time></trkpt><trkpt lat="43.679759909657726" lon="18.440002157092565"><ele>795.6666666666666</ele><time>2026-05-03T15:49:43Z</time></trkpt><trkpt lat="43.679654991129894" lon="18.439806180646205"><ele>796.0</ele><time>2026-05-03T15:49:44Z</time></trkpt><trkpt lat="43.67959744274986" lon="18.439598401247704"><ele>797.6666666666666</ele><time>2026-05-03T15:49:45Z</time></trkpt><trkpt lat="43.679600459400035" lon="18.439382080241348"><ele>799.3333333333333</ele><time>2026-05-03T15:49:46Z</time></trkpt><trkpt lat="43.67964679385495" lon="18.439178675060926"><ele>801.0</ele><time>2026-05-03T15:49:47Z</time></trkpt><trkpt lat="43.67966852070354" lon="18.43897014693339"><ele>801.0</ele><time>2026-05-03T15:49:48Z</time></trkpt><trkpt lat="43.67961434961588" lon="18.4387627187978"><ele>801.0</ele><time>2026-05-03T15:49:49Z</time></trkpt><trkpt lat="43.679502149921944" lon="18.438597150333983"><ele>801.0</ele><time>2026-05-03T15:49:50Z</time></trkpt><trkpt lat="43.67938582313691" lon="18.438475027031078"><ele>801.0</ele><time>2026-05-03T15:49:51Z</time></trkpt><trkpt lat="43.67931280707584" lon="18.43834671274269"><ele>801.0</ele><time>2026-05-03T15:49:52Z</time></trkpt><trkpt lat="43.67927884889805" lon="18.438201229690197"><ele>801.0</ele><time>2026-05-03T15:49:53Z</time></trkpt><trkpt lat="43.679238733751696" lon="18.438064828197454"><ele>801.0</ele><time>2026-05-03T15:49:54Z</time></trkpt><trkpt lat="43.67913096938938" lon="18.437987659578134"><ele>805.75</ele><time>2026-05-03T15:49:55Z</time></trkpt><trkpt lat="43.67900215908293" lon="18.43791401281045"><ele>810.5</ele><time>2026-05-03T15:49:56Z</time></trkpt><trkpt lat="43.678884669110474" lon="18.437802855098095"><ele>815.25</ele><time>2026-05-03T15:49:57Z</time></trkpt><trkpt lat="43.67875714627266" lon="18.437661037913056"><ele>820.0</ele><time>2026-05-03T15:49:58Z</time></trkpt><trkpt lat="43.678619255259946" lon="18.437513292225912"><ele>819.6666666666666</ele><time>2026-05-03T15:49:59Z</time></trkpt><trkpt lat="43.67848246409045" lon="18.437366173965287"><ele>819.3333333333333</ele><time>2026-05-03T15:50:00Z</time></trkpt><trkpt lat="43.67836748548105" lon="18.43722952080391"><ele>819.0</ele><time>2026-05-03T15:50:01Z</time></trkpt><trkpt lat="43.67826365148917" lon="18.437100040603916"><ele>819.0</ele><time>2026-05-03T15:50:02Z</time></trkpt><trkpt lat="43.67815200948324" lon="18.436974332451552"><ele>819.0</ele><time>2026-05-03T15:50:03Z</time></trkpt><trkpt lat="43.67800943519343" lon="18.43686612080358"><ele>819.0</ele><time>2026-05-03T15:50:04Z</time></trkpt><trkpt lat="43.67785872356232" lon="18.436780546848187"><ele>816.25</ele><time>2026-05-03T15:50:05Z</time></trkpt><trkpt lat="43.677720498949256" lon="18.436716165135866"><ele>813.5</ele><time>2026-05-03T15:50:06Z</time></trkpt><trkpt lat="43.67760241292278" lon="18.43665273581656"><ele>810.75</ele><time>2026-05-03T15:50:07Z</time></trkpt><trkpt lat="43.67750862163495" lon="18.436580321887018"><ele>808.0</ele><time>2026-05-03T15:50:08Z</time></trkpt><trkpt lat="43.67744597591083" lon="18.43647548593877"><ele>808.0</ele><time>2026-05-03T15:50:09Z</time></trkpt><trkpt lat="43.6774085337018" lon="18.436335128270137"><ele>808.0</ele><time>2026-05-03T15:50:10Z</time></trkpt><trkpt lat="43.67734191882088" lon="18.43621061509583"><ele>808.0</ele><time>2026-05-03T15:50:11Z</time></trkpt><trkpt lat="43.67724256425305" lon="18.43612094103549"><ele>808.0</ele><time>2026-05-03T15:50:12Z</time></trkpt><trkpt lat="43.67712327118648" lon="18.436044825677964"><ele>807.75</ele><time>2026-05-03T15:50:13Z</time></trkpt><trkpt lat="43.677025392642925" lon="18.435956017853876"><ele>807.5</ele><time>2026-05-03T15:50:14Z</time></trkpt><trkpt lat="43.6769556192178" lon="18.435830860681207"><ele>807.25</ele><time>2026-05-03T15:50:15Z</time></trkpt><trkpt lat="43.67690381487126" lon="18.435672609873077"><ele>807.0</ele><time>2026-05-03T15:50:16Z</time></trkpt><trkpt lat="43.67686260846627" lon="18.435489861493544"><ele>807.0</ele><time>2026-05-03T15:50:17Z</time></trkpt><trkpt lat="43.67682242137523" lon="18.435266950044007"><ele>807.0</ele><time>2026-05-03T15:50:18Z</time></trkpt><trkpt lat="43.6767924536915" lon="18.435003436097322"><ele>807.0</ele><time>2026-05-03T15:50:19Z</time></trkpt><trkpt lat="43.67677888897269" lon="18.434731210762695"><ele>808.0</ele><time>2026-05-03T15:50:20Z</time></trkpt><trkpt lat="43.67678274629227" lon="18.434452902108877"><ele>809.0</ele><time>2026-05-03T15:50:21Z</time></trkpt><trkpt lat="43.676813207972984" lon="18.434152811562804"><ele>810.0</ele><time>2026-05-03T15:50:22Z</time></trkpt><trkpt lat="43.67686680062393" lon="18.433824793648007"><ele>812.5</ele><time>2026-05-03T15:50:23Z</time></trkpt><trkpt lat="43.67692813923254" lon="18.433513037151577"><ele>815.0</ele><time>2026-05-03T15:50:24Z</time></trkpt><trkpt lat="43.676997068539194" lon="18.43321626360135"><ele>818.6666666666667</ele><time>2026-05-03T15:50:25Z</time></trkpt><trkpt lat="43.67707037720302" lon="18.43293442562357"><ele>822.3333333333333</ele><time>2026-05-03T15:50:26Z</time></trkpt><trkpt lat="43.67715384934928" lon="18.432655807909192"><ele>826.0</ele><time>2026-05-03T15:50:27Z</time></trkpt><trkpt lat="43.67727355371957" lon="18.432391059354572"><ele>832.0</ele><time>2026-05-03T15:50:28Z</time></trkpt><trkpt lat="43.67740075564693" lon="18.432115797395888"><ele>838.0</ele><time>2026-05-03T15:50:29Z</time></trkpt><trkpt lat="43.67751820938672" lon="18.431833365366725"><ele>838.0</ele><time>2026-05-03T15:50:30Z</time></trkpt><trkpt lat="43.67761546172364" lon="18.43153509789658"><ele>838.0</ele><time>2026-05-03T15:50:31Z</time></trkpt><trkpt lat="43.677711482618804" lon="18.431247492227754"><ele>836.0</ele><time>2026-05-03T15:50:32Z</time></trkpt><trkpt lat="43.67781790485747" lon="18.430985228029748"><ele>834.0</ele><time>2026-05-03T15:50:33Z</time></trkpt><trkpt lat="43.67793347840187" lon="18.430730905938457"><ele>832.0</ele><time>2026-05-03T15:50:34Z</time></trkpt><trkpt lat="43.67805176047638" lon="18.43049117197132"><ele>834.6666666666666</ele><time>2026-05-03T15:50:35Z</time></trkpt><trkpt lat="43.67817733951444" lon="18.43027620106015"><ele>837.3333333333333</ele><time>2026-05-03T15:50:36Z</time></trkpt><trkpt lat="43.67829753490449" lon="18.430063348305577"><ele>840.0</ele><time>2026-05-03T15:50:37Z</time></trkpt><trkpt lat="43.678408215452095" lon="18.429852896489002"><ele>841.3333333333333</ele><time>2026-05-03T15:50:38Z</time></trkpt><trkpt lat="43.678506896365306" lon="18.429637012022784"><ele>842.6666666666666</ele><time>2026-05-03T15:50:39Z</time></trkpt><trkpt lat="43.678595171185485" lon="18.429429616458656"><ele>844.0</ele><time>2026-05-03T15:50:40Z</time></trkpt><trkpt lat="43.678679940281704" lon="18.42922913240306"><ele>844.0</ele><time>2026-05-03T15:50:41Z</time></trkpt><trkpt lat="43.67877770401185" lon="18.429055957562078"><ele>844.0</ele><time>2026-05-03T15:50:42Z</time></trkpt><trkpt lat="43.67888899393319" lon="18.428945386399032"><ele>844.0</ele><time>2026-05-03T15:50:43Z</time></trkpt><trkpt lat="43.67900022811089" lon="18.428892376726402"><ele>844.0</ele><time>2026-05-03T15:50:44Z</time></trkpt><trkpt lat="43.67908791287397" lon="18.428853764303057"><ele>847.1666666666666</ele><time>2026-05-03T15:50:45Z</time></trkpt><trkpt lat="43.67915238159693" lon="18.428796482033384"><ele>850.3333333333333</ele><time>2026-05-03T15:50:46Z</time></trkpt><trkpt lat="43.679180621587435" lon="18.42871847063838"><ele>853.5</ele><time>2026-05-03T15:50:47Z</time></trkpt><trkpt lat="43.679165359205406" lon="18.42862327791707"><ele>856.6666666666667</ele><time>2026-05-03T15:50:48Z</time></trkpt><trkpt lat="43.67910526544429" lon="18.428553325213866"><ele>859.8333333333334</ele><time>2026-05-03T15:50:49Z</time></trkpt><trkpt lat="43.679016832087314" lon="18.42854566107361"><ele>863.0</ele><time>2026-05-03T15:50:50Z</time></trkpt><trkpt lat="43.67892776495857" lon="18.428583505949575"><ele>863.0</ele><time>2026-05-03T15:50:51Z</time></trkpt><trkpt lat="43.67882920261726" lon="18.428638827514582"><ele>863.0</ele><time>2026-05-03T15:50:52Z</time></trkpt><trkpt lat="43.67871470729806" lon="18.428696127672673"><ele>863.0</ele><time>2026-05-03T15:50:53Z</time></trkpt><trkpt lat="43.67858952614801" lon="18.428738453442673"><ele>863.0</ele><time>2026-05-03T15:50:54Z</time></trkpt><trkpt lat="43.67847990130798" lon="18.428775418046758"><ele>862.5000000000001</ele><time>2026-05-03T15:50:55Z</time></trkpt><trkpt lat="43.67839388129387" lon="18.42882811027297"><ele>862.0</ele><time>2026-05-03T15:50:56Z</time></trkpt><trkpt lat="43.67832750576341" lon="18.428876006987714"><ele>861.5</ele><time>2026-05-03T15:50:57Z</time></trkpt><trkpt lat="43.67826521862725" lon="18.428898835635547"><ele>861.0</ele><time>2026-05-03T15:50:58Z</time></trkpt><trkpt lat="43.67819401691616" lon="18.428771281805606"><ele>860.5000000000001</ele><time>2026-05-03T15:51:00Z</time></trkpt><trkpt lat="43.67821821566808" lon="18.42866450913228"><ele>860.0</ele><time>2026-05-03T15:51:01Z</time></trkpt><trkpt lat="43.67826513854493" lon="18.42856874269151"><ele>863.5</ele><time>2026-05-03T15:51:02Z</time></trkpt><trkpt lat="43.67832748995593" lon="18.4284263695041"><ele>867.0</ele><time>2026-05-03T15:51:03Z</time></trkpt><trkpt lat="43.678389568551424" lon="18.42823540374625"><ele>870.5</ele><time>2026-05-03T15:51:04Z</time></trkpt><trkpt lat="43.67843201677327" lon="18.428044007776194"><ele>874.0</ele><time>2026-05-03T15:51:05Z</time></trkpt><trkpt lat="43.67845782476279" lon="18.427886640554167"><ele>875.8000000000001</ele><time>2026-05-03T15:51:06Z</time></trkpt><trkpt lat="43.67851215631415" lon="18.42775923049779"><ele>877.6000000000001</ele><time>2026-05-03T15:51:07Z</time></trkpt><trkpt lat="43.678603784747295" lon="18.427707253734216"><ele>879.4</ele><time>2026-05-03T15:51:08Z</time></trkpt><trkpt lat="43.6787167431048" lon="18.42771545829549"><ele>881.2</ele><time>2026-05-03T15:51:09Z</time></trkpt><trkpt lat="43.67883082368421" lon="18.42776974401024"><ele>883.0</ele><time>2026-05-03T15:51:10Z</time></trkpt><trkpt lat="43.67896571273726" lon="18.42776474129939"><ele>883.0</ele><time>2026-05-03T15:51:11Z</time></trkpt><trkpt lat="43.67909091629093" lon="18.427677572172502"><ele>883.0</ele><time>2026-05-03T15:51:12Z</time></trkpt><trkpt lat="43.6792109496545" lon="18.427527366296054"><ele>883.0</ele><time>2026-05-03T15:51:13Z</time></trkpt><trkpt lat="43.67931413631834" lon="18.427356326999252"><ele>883.0</ele><time>2026-05-03T15:51:14Z</time></trkpt><trkpt lat="43.67940925134666" lon="18.427151972642807"><ele>883.0</ele><time>2026-05-03T15:51:15Z</time></trkpt><trkpt lat="43.679475751039135" lon="18.42689924633818"><ele>883.0</ele><time>2026-05-03T15:51:16Z</time></trkpt><trkpt lat="43.679550708508394" lon="18.426635765706827"><ele>884.3333333333333</ele><time>2026-05-03T15:51:17Z</time></trkpt><trkpt lat="43.67965472190801" lon="18.426410158658307"><ele>885.6666666666667</ele><time>2026-05-03T15:51:18Z</time></trkpt><trkpt lat="43.67977708872809" lon="18.426273401721556"><ele>887.0</ele><time>2026-05-03T15:51:19Z</time></trkpt><trkpt lat="43.679845052867854" lon="18.42611070407175"><ele>887.0</ele><time>2026-05-03T15:51:20Z</time></trkpt><trkpt lat="43.67986132291245" lon="18.425968538785764"><ele>887.0</ele><time>2026-05-03T15:51:21Z</time></trkpt><trkpt lat="43.67981510903103" lon="18.42583703119976"><ele>887.0</ele><time>2026-05-03T15:51:22Z</time></trkpt><trkpt lat="43.679727142231854" lon="18.425764728165255"><ele>887.0</ele><time>2026-05-03T15:51:23Z</time></trkpt><trkpt lat="43.679616047339444" lon="18.42574231799496"><ele>887.0</ele><time>2026-05-03T15:51:24Z</time></trkpt><trkpt lat="43.67949659530783" lon="18.425792901447867"><ele>893.0</ele><time>2026-05-03T15:51:25Z</time></trkpt><trkpt lat="43.679371340285996" lon="18.425919985926154"><ele>899.0</ele><time>2026-05-03T15:51:26Z</time></trkpt><trkpt lat="43.67923927074252" lon="18.426065365661184"><ele>905.0</ele><time>2026-05-03T15:51:27Z</time></trkpt><trkpt lat="43.67910727521824" lon="18.42623104395098"><ele>901.6666666666667</ele><time>2026-05-03T15:51:28Z</time></trkpt><trkpt lat="43.67898479324485" lon="18.42637706476901"><ele>898.3333333333333</ele><time>2026-05-03T15:51:29Z</time></trkpt><trkpt lat="43.67885702926504" lon="18.42650034831647"><ele>895.0</ele><time>2026-05-03T15:51:30Z</time></trkpt><trkpt lat="43.67870550728068" lon="18.426562695251427"><ele>897.6666666666666</ele><time>2026-05-03T15:51:31Z</time></trkpt><trkpt lat="43.67854257246439" lon="18.426562628487932"><ele>900.3333333333333</ele><time>2026-05-03T15:51:32Z</time></trkpt><trkpt lat="43.678380070525215" lon="18.426524264236978"><ele>903.0</ele><time>2026-05-03T15:51:33Z</time></trkpt><trkpt lat="43.67822357641656" lon="18.426394154564896"><ele>906.3333333333333</ele><time>2026-05-03T15:51:34Z</time></trkpt><trkpt lat="43.67805053308643" lon="18.42623744784847"><ele>909.6666666666666</ele><time>2026-05-03T15:51:35Z</time></trkpt><trkpt lat="43.67789099615541" lon="18.42609420696295"><ele>913.0</ele><time>2026-05-03T15:51:36Z</time></trkpt><trkpt lat="43.67774928471916" lon="18.425922656377626"><ele>913.0</ele><time>2026-05-03T15:51:37Z</time></trkpt><trkpt lat="43.67763879699207" lon="18.425721362700976"><ele>913.0</ele><time>2026-05-03T15:51:38Z</time></trkpt><trkpt lat="43.67755753526489" lon="18.425506469357888"><ele>913.0</ele><time>2026-05-03T15:51:39Z</time></trkpt><trkpt lat="43.67753589791643" lon="18.42529164351737"><ele>915.3333333333333</ele><time>2026-05-03T15:51:40Z</time></trkpt><trkpt lat="43.67755586981091" lon="18.425069378411145"><ele>917.6666666666667</ele><time>2026-05-03T15:51:41Z</time></trkpt><trkpt lat="43.67760646376659" lon="18.424843070636165"><ele>920.0</ele><time>2026-05-03T15:51:42Z</time></trkpt><trkpt lat="43.67767375814223" lon="18.424592677016406"><ele>920.3333333333334</ele><time>2026-05-03T15:51:43Z</time></trkpt><trkpt lat="43.677756959809535" lon="18.42432569369328"><ele>920.6666666666667</ele><time>2026-05-03T15:51:44Z</time></trkpt><trkpt lat="43.67782404754075" lon="18.424035782808918"><ele>921.0</ele><time>2026-05-03T15:51:45Z</time></trkpt><trkpt lat="43.67788959544001" lon="18.423722676721194"><ele>927.0</ele><time>2026-05-03T15:51:46Z</time></trkpt><trkpt lat="43.67795838172721" lon="18.42339388712818"><ele>933.0</ele><time>2026-05-03T15:51:47Z</time></trkpt><trkpt lat="43.678032830026375" lon="18.423061370070663"><ele>933.0</ele><time>2026-05-03T15:51:48Z</time></trkpt><trkpt lat="43.678095494486996" lon="18.422725540349322"><ele>933.0</ele><time>2026-05-03T15:51:49Z</time></trkpt><trkpt lat="43.67817544963636" lon="18.422422411280106"><ele>934.0</ele><time>2026-05-03T15:51:50Z</time></trkpt><trkpt lat="43.67824051275793" lon="18.422119970735345"><ele>935.0</ele><time>2026-05-03T15:51:51Z</time></trkpt><trkpt lat="43.67830962641784" lon="18.421828549720274"><ele>935.0</ele><time>2026-05-03T15:51:52Z</time></trkpt><trkpt lat="43.67838422043824" lon="18.421558432510192"><ele>935.0</ele><time>2026-05-03T15:51:53Z</time></trkpt><trkpt lat="43.67847235427837" lon="18.421307876465317"><ele>935.0</ele><time>2026-05-03T15:51:54Z</time></trkpt><trkpt lat="43.678599029529984" lon="18.42108504323535"><ele>936.0</ele><time>2026-05-03T15:51:55Z</time></trkpt><trkpt lat="43.678732792496625" lon="18.420863132569817"><ele>937.0</ele><time>2026-05-03T15:51:56Z</time></trkpt><trkpt lat="43.67885419528371" lon="18.42064883594907"><ele>938.0</ele><time>2026-05-03T15:51:57Z</time></trkpt><trkpt lat="43.67894574795116" lon="18.420409819586535"><ele>938.0</ele><time>2026-05-03T15:51:58Z</time></trkpt><trkpt lat="43.67903126105346" lon="18.420180398661532"><ele>938.0</ele><time>2026-05-03T15:51:59Z</time></trkpt><trkpt lat="43.6791306914585" lon="18.419976984572703"><ele>938.0</ele><time>2026-05-03T15:52:00Z</time></trkpt><trkpt lat="43.679269024590646" lon="18.41979813467713"><ele>936.6666666666667</ele><time>2026-05-03T15:52:01Z</time></trkpt><trkpt lat="43.67940987020329" lon="18.419648976938472"><ele>935.3333333333333</ele><time>2026-05-03T15:52:02Z</time></trkpt><trkpt lat="43.67958394905177" lon="18.419495123620102"><ele>934.0</ele><time>2026-05-03T15:52:03Z</time></trkpt><trkpt lat="43.679735056702555" lon="18.419333597229404"><ele>934.0</ele><time>2026-05-03T15:52:04Z</time></trkpt><trkpt lat="43.679847334521945" lon="18.419122861619343"><ele>934.0</ele><time>2026-05-03T15:52:05Z</time></trkpt><trkpt lat="43.67991676033818" lon="18.418866023903977"><ele>934.0</ele><time>2026-05-03T15:52:06Z</time></trkpt><trkpt lat="43.679965747911425" lon="18.418600688977204"><ele>934.0</ele><time>2026-05-03T15:52:07Z</time></trkpt><trkpt lat="43.680027545357675" lon="18.418352531086402"><ele>934.0</ele><time>2026-05-03T15:52:08Z</time></trkpt><trkpt lat="43.68011270485124" lon="18.41811855371745"><ele>934.0</ele><time>2026-05-03T15:52:09Z</time></trkpt><trkpt lat="43.680221764545436" lon="18.41790084113789"><ele>934.3333333333333</ele><time>2026-05-03T15:52:10Z</time></trkpt><trkpt lat="43.680333857592586" lon="18.417709516350172"><ele>934.6666666666667</ele><time>2026-05-03T15:52:11Z</time></trkpt><trkpt lat="43.68044226846897" lon="18.417529192960505"><ele>935.0</ele><time>2026-05-03T15:52:12Z</time></trkpt><trkpt lat="43.68056224706381" lon="18.417350784211745"><ele>935.0</ele><time>2026-05-03T15:52:13Z</time></trkpt><trkpt lat="43.68068941673911" lon="18.417180442377685"><ele>935.0</ele><time>2026-05-03T15:52:14Z</time></trkpt><trkpt lat="43.68081562108668" lon="18.417017054767108"><ele>935.0</ele><time>2026-05-03T15:52:15Z</time></trkpt><trkpt lat="43.680944629200006" lon="18.416854843750023"><ele>933.6666666666667</ele><time>2026-05-03T15:52:16Z</time></trkpt><trkpt lat="43.681071856500004" lon="18.416681819787325"><ele>932.3333333333333</ele><time>2026-05-03T15:52:17Z</time></trkpt><trkpt lat="43.6811887237683" lon="18.416498764545228"><ele>931.0</ele><time>2026-05-03T15:52:18Z</time></trkpt><trkpt lat="43.68129225286109" lon="18.416306279434345"><ele>931.0</ele><time>2026-05-03T15:52:19Z</time></trkpt><trkpt lat="43.68138299993722" lon="18.416110881085014"><ele>931.0</ele><time>2026-05-03T15:52:20Z</time></trkpt><trkpt lat="43.681477307443714" lon="18.415911313856245"><ele>931.0</ele><time>2026-05-03T15:52:21Z</time></trkpt><trkpt lat="43.68157440862428" lon="18.415731469393833"><ele>931.0</ele><time>2026-05-03T15:52:22Z</time></trkpt><trkpt lat="43.68167534242686" lon="18.415564599995236"><ele>931.0</ele><time>2026-05-03T15:52:23Z</time></trkpt><trkpt lat="43.68178950445467" lon="18.415421277342436"><ele>931.0</ele><time>2026-05-03T15:52:24Z</time></trkpt><trkpt lat="43.681897278038235" lon="18.41529870191473"><ele>931.25</ele><time>2026-05-03T15:52:25Z</time></trkpt><trkpt lat="43.682004723456004" lon="18.415183773506484"><ele>931.5</ele><time>2026-05-03T15:52:26Z</time></trkpt><trkpt lat="43.6821024057508" lon="18.41506845483021"><ele>931.75</ele><time>2026-05-03T15:52:27Z</time></trkpt><trkpt lat="43.6821807035916" lon="18.41493301643505"><ele>932.0</ele><time>2026-05-03T15:52:28Z</time></trkpt><trkpt lat="43.68220903410568" lon="18.414768954952354"><ele>932.75</ele><time>2026-05-03T15:52:29Z</time></trkpt><trkpt lat="43.68219650397978" lon="18.4145913805307"><ele>933.5</ele><time>2026-05-03T15:52:30Z</time></trkpt><trkpt lat="43.68215989308605" lon="18.41438792251333"><ele>934.25</ele><time>2026-05-03T15:52:31Z</time></trkpt><trkpt lat="43.68213083292296" lon="18.41419045423682"><ele>935.0</ele><time>2026-05-03T15:52:32Z</time></trkpt><trkpt lat="43.68213080852933" lon="18.414000948249356"><ele>936.5</ele><time>2026-05-03T15:52:33Z</time></trkpt><trkpt lat="43.68216845820988" lon="18.413815991079993"><ele>938.0</ele><time>2026-05-03T15:52:34Z</time></trkpt><trkpt lat="43.68223957945333" lon="18.413638598989543"><ele>939.5</ele><time>2026-05-03T15:52:35Z</time></trkpt><trkpt lat="43.6823190927878" lon="18.413471375573113"><ele>941.0</ele><time>2026-05-03T15:52:36Z</time></trkpt><trkpt lat="43.6823737270341" lon="18.41326063752342"><ele>941.0</ele><time>2026-05-03T15:52:37Z</time></trkpt><trkpt lat="43.682384068853075" lon="18.413040250462963"><ele>941.0</ele><time>2026-05-03T15:52:38Z</time></trkpt><trkpt lat="43.68237788316652" lon="18.412815470915334"><ele>941.0</ele><time>2026-05-03T15:52:39Z</time></trkpt><trkpt lat="43.68238182643501" lon="18.412603443316314"><ele>943.0</ele><time>2026-05-03T15:52:40Z</time></trkpt><trkpt lat="43.68239659775565" lon="18.412399461700748"><ele>945.0</ele><time>2026-05-03T15:52:41Z</time></trkpt><trkpt lat="43.682419263734715" lon="18.412200349651425"><ele>947.0</ele><time>2026-05-03T15:52:42Z</time></trkpt><trkpt lat="43.68245507172021" lon="18.411994231363735"><ele>949.0</ele><time>2026-05-03T15:52:43Z</time></trkpt><trkpt lat="43.68250879823184" lon="18.411807897191576"><ele>950.5</ele><time>2026-05-03T15:52:44Z</time></trkpt><trkpt lat="43.682577026256034" lon="18.411645170086636"><ele>952.0</ele><time>2026-05-03T15:52:45Z</time></trkpt><trkpt lat="43.68263450817581" lon="18.411492200877"><ele>953.5</ele><time>2026-05-03T15:52:46Z</time></trkpt><trkpt lat="43.68265348744066" lon="18.41130916400405"><ele>955.0</ele><time>2026-05-03T15:52:47Z</time></trkpt><trkpt lat="43.68263256357269" lon="18.411120933077598"><ele>956.3333333333333</ele><time>2026-05-03T15:52:48Z</time></trkpt><trkpt lat="43.68258616136642" lon="18.410934514064934"><ele>957.6666666666667</ele><time>2026-05-03T15:52:49Z</time></trkpt><trkpt lat="43.682511988664146" lon="18.410751195064652"><ele>959.0</ele><time>2026-05-03T15:52:50Z</time></trkpt><trkpt lat="43.682410717145125" lon="18.41058384719269"><ele>959.5</ele><time>2026-05-03T15:52:51Z</time></trkpt><trkpt lat="43.68230276776208" lon="18.41042974838544"><ele>960.0</ele><time>2026-05-03T15:52:52Z</time></trkpt><trkpt lat="43.682222437288694" lon="18.41028059637817"><ele>960.5</ele><time>2026-05-03T15:52:53Z</time></trkpt><trkpt lat="43.68219226748479" lon="18.41009884457418"><ele>961.0</ele><time>2026-05-03T15:52:54Z</time></trkpt><trkpt lat="43.68219823887485" lon="18.409911069492534"><ele>961.0</ele><time>2026-05-03T15:52:55Z</time></trkpt><trkpt lat="43.68221575147175" lon="18.40973758903073"><ele>961.0</ele><time>2026-05-03T15:52:56Z</time></trkpt><trkpt lat="43.682253758473145" lon="18.409604679766755"><ele>961.0</ele><time>2026-05-03T15:52:57Z</time></trkpt><trkpt lat="43.68231925523431" lon="18.40949774664239"><ele>961.0</ele><time>2026-05-03T15:52:58Z</time></trkpt><trkpt lat="43.68242908659016" lon="18.40941686328651"><ele>960.25</ele><time>2026-05-03T15:52:59Z</time></trkpt><trkpt lat="43.682550147881074" lon="18.40932875308679"><ele>959.5</ele><time>2026-05-03T15:53:00Z</time></trkpt><trkpt lat="43.682665186764375" lon="18.409209372346105"><ele>958.75</ele><time>2026-05-03T15:53:01Z</time></trkpt><trkpt lat="43.682750418143286" lon="18.409045927804435"><ele>958.0</ele><time>2026-05-03T15:53:02Z</time></trkpt><trkpt lat="43.68280015624875" lon="18.4088416449794"><ele>958.6666666666666</ele><time>2026-05-03T15:53:03Z</time></trkpt><trkpt lat="43.682814248660776" lon="18.408637796028653"><ele>959.3333333333333</ele><time>2026-05-03T15:53:04Z</time></trkpt><trkpt lat="43.68278923115226" lon="18.408427817184275"><ele>960.0</ele><time>2026-05-03T15:53:05Z</time></trkpt><trkpt lat="43.68274300779609" lon="18.408214811083834"><ele>964.6666666666667</ele><time>2026-05-03T15:53:06Z</time></trkpt><trkpt lat="43.682695577266074" lon="18.408005702068422"><ele>969.3333333333334</ele><time>2026-05-03T15:53:07Z</time></trkpt><trkpt lat="43.682633703259526" lon="18.407803364895603"><ele>974.0</ele><time>2026-05-03T15:53:08Z</time></trkpt><trkpt lat="43.6825421292243" lon="18.407613815843654"><ele>974.0</ele><time>2026-05-03T15:53:09Z</time></trkpt><trkpt lat="43.6824348860442" lon="18.40743360688458"><ele>974.0</ele><time>2026-05-03T15:53:10Z</time></trkpt><trkpt lat="43.68232796234404" lon="18.407271658980246"><ele>974.0</ele><time>2026-05-03T15:53:11Z</time></trkpt><trkpt lat="43.68222662515452" lon="18.4071280570477"><ele>973.0</ele><time>2026-05-03T15:53:12Z</time></trkpt><trkpt lat="43.682160445029375" lon="18.406983342692318"><ele>972.0</ele><time>2026-05-03T15:53:13Z</time></trkpt><trkpt lat="43.68217610812845" lon="18.406841995409458"><ele>971.0</ele><time>2026-05-03T15:53:14Z</time></trkpt><trkpt lat="43.68222805600437" lon="18.4067023982835"><ele>970.0</ele><time>2026-05-03T15:53:15Z</time></trkpt><trkpt lat="43.682259232629676" lon="18.406555924159182"><ele>970.0</ele><time>2026-05-03T15:53:16Z</time></trkpt><trkpt lat="43.68223332555372" lon="18.40639022213003"><ele>970.0</ele><time>2026-05-03T15:53:17Z</time></trkpt><trkpt lat="43.68217939335307" lon="18.406214345570998"><ele>970.0</ele><time>2026-05-03T15:53:18Z</time></trkpt><trkpt lat="43.68212924348507" lon="18.40602685585455"><ele>970.0</ele><time>2026-05-03T15:53:19Z</time></trkpt><trkpt lat="43.68207664007429" lon="18.405839680223263"><ele>970.8</ele><time>2026-05-03T15:53:20Z</time></trkpt><trkpt lat="43.68202278743854" lon="18.405696058486996"><ele>971.6</ele><time>2026-05-03T15:53:21Z</time></trkpt><trkpt lat="43.68197002970275" lon="18.405593149297484"><ele>972.4000000000001</ele><time>2026-05-03T15:53:22Z</time></trkpt><trkpt lat="43.68191381068475" lon="18.405496824306454"><ele>973.2</ele><time>2026-05-03T15:53:23Z</time></trkpt><trkpt lat="43.681860826950526" lon="18.4053817586077"><ele>974.0</ele><time>2026-05-03T15:53:24Z</time></trkpt><trkpt lat="43.681817649022456" lon="18.405236695648227"><ele>975.75</ele><time>2026-05-03T15:53:25Z</time></trkpt><trkpt lat="43.681773205173194" lon="18.405070505256898"><ele>977.5</ele><time>2026-05-03T15:53:26Z</time></trkpt><trkpt lat="43.68171472442727" lon="18.404895793621403"><ele>979.25</ele><time>2026-05-03T15:53:27Z</time></trkpt><trkpt lat="43.681637559363345" lon="18.404715502596712"><ele>981.0</ele><time>2026-05-03T15:53:28Z</time></trkpt><trkpt lat="43.681540994758016" lon="18.404562791532058"><ele>983.0</ele><time>2026-05-03T15:53:29Z</time></trkpt><trkpt lat="43.68145191503068" lon="18.4044098429272"><ele>985.0</ele><time>2026-05-03T15:53:30Z</time></trkpt><trkpt lat="43.68139346906136" lon="18.404212374662684"><ele>987.0</ele><time>2026-05-03T15:53:31Z</time></trkpt><trkpt lat="43.68136683393652" lon="18.40399527354256"><ele>992.0</ele><time>2026-05-03T15:53:32Z</time></trkpt><trkpt lat="43.68133242269669" lon="18.403801010868275"><ele>997.0</ele><time>2026-05-03T15:53:33Z</time></trkpt><trkpt lat="43.68124904400572" lon="18.403622055495045"><ele>1002.0</ele><time>2026-05-03T15:53:34Z</time></trkpt><trkpt lat="43.68112395165797" lon="18.40346837335125"><ele>993.6666666666667</ele><time>2026-05-03T15:53:35Z</time></trkpt><trkpt lat="43.680959796410306" lon="18.403340285839814"><ele>985.3333333333334</ele><time>2026-05-03T15:53:36Z</time></trkpt><trkpt lat="43.68079215658902" lon="18.403225400618705"><ele>977.0</ele><time>2026-05-03T15:53:37Z</time></trkpt><trkpt lat="43.68063264838073" lon="18.40309865572303"><ele>982.0</ele><time>2026-05-03T15:53:38Z</time></trkpt><trkpt lat="43.68050581032343" lon="18.40294462613457"><ele>987.0</ele><time>2026-05-03T15:53:39Z</time></trkpt><trkpt lat="43.680411435989534" lon="18.40274281775527"><ele>992.0</ele><time>2026-05-03T15:53:40Z</time></trkpt><trkpt lat="43.680323817819065" lon="18.40250588668323"><ele>987.3333333333334</ele><time>2026-05-03T15:53:41Z</time></trkpt><trkpt lat="43.68021558471784" lon="18.402264387964188"><ele>982.6666666666667</ele><time>2026-05-03T15:53:42Z</time></trkpt><trkpt lat="43.68008511196816" lon="18.402030296308308"><ele>978.0</ele><time>2026-05-03T15:53:43Z</time></trkpt><trkpt lat="43.679933251286606" lon="18.401802675285353"><ele>978.0</ele><time>2026-05-03T15:53:44Z</time></trkpt><trkpt lat="43.679790901910614" lon="18.401562505028917"><ele>978.0</ele><time>2026-05-03T15:53:45Z</time></trkpt><trkpt lat="43.67967831463552" lon="18.40128993206413"><ele>982.0</ele><time>2026-05-03T15:53:46Z</time></trkpt><trkpt lat="43.67958737383183" lon="18.40101848779809"><ele>986.0</ele><time>2026-05-03T15:53:47Z</time></trkpt><trkpt lat="43.6795184047068" lon="18.4007663151926"><ele>990.0</ele><time>2026-05-03T15:53:48Z</time></trkpt><trkpt lat="43.67945673676833" lon="18.400501246950906"><ele>983.3333333333333</ele><time>2026-05-03T15:53:49Z</time></trkpt><trkpt lat="43.67943068948537" lon="18.40023758540892"><ele>976.6666666666666</ele><time>2026-05-03T15:53:50Z</time></trkpt><trkpt lat="43.67943275278621" lon="18.399990018775082"><ele>970.0</ele><time>2026-05-03T15:53:51Z</time></trkpt><trkpt lat="43.67942868478045" lon="18.399760025560347"><ele>970.6666666666666</ele><time>2026-05-03T15:53:52Z</time></trkpt><trkpt lat="43.67937109240277" lon="18.399547746998856"><ele>971.3333333333333</ele><time>2026-05-03T15:53:53Z</time></trkpt><trkpt lat="43.679274240372486" lon="18.399323968277805"><ele>972.0</ele><time>2026-05-03T15:53:54Z</time></trkpt><trkpt lat="43.67917996291315" lon="18.399106723310993"><ele>972.0</ele><time>2026-05-03T15:53:55Z</time></trkpt><trkpt lat="43.679134715774765" lon="18.398858693205177"><ele>972.0</ele><time>2026-05-03T15:53:56Z</time></trkpt><trkpt lat="43.679127978715606" lon="18.39858197333804"><ele>972.0</ele><time>2026-05-03T15:53:57Z</time></trkpt><trkpt lat="43.67912374471073" lon="18.3983083666248"><ele>973.3333333333333</ele><time>2026-05-03T15:53:58Z</time></trkpt><trkpt lat="43.6791037336051" lon="18.398055966468405"><ele>974.6666666666666</ele><time>2026-05-03T15:53:59Z</time></trkpt><trkpt lat="43.67906930674555" lon="18.39782327162208"><ele>976.0</ele><time>2026-05-03T15:54:00Z</time></trkpt><trkpt lat="43.67901842719017" lon="18.397620749919135"><ele>976.25</ele><time>2026-05-03T15:54:01Z</time></trkpt><trkpt lat="43.67894699065967" lon="18.39744515862102"><ele>976.5</ele><time>2026-05-03T15:54:02Z</time></trkpt><trkpt lat="43.67888808972472" lon="18.397294199976045"><ele>976.75</ele><time>2026-05-03T15:54:03Z</time></trkpt><trkpt lat="43.678886529794994" lon="18.397132072663616"><ele>977.0</ele><time>2026-05-03T15:54:04Z</time></trkpt><trkpt lat="43.67893051163025" lon="18.396958687163597"><ele>977.5</ele><time>2026-05-03T15:54:05Z</time></trkpt><trkpt lat="43.67894992405919" lon="18.396780624710562"><ele>978.0</ele><time>2026-05-03T15:54:06Z</time></trkpt><trkpt lat="43.67890125932599" lon="18.396608644619715"><ele>978.5</ele><time>2026-05-03T15:54:07Z</time></trkpt><trkpt lat="43.67879196506465" lon="18.396446122852506"><ele>979.0</ele><time>2026-05-03T15:54:08Z</time></trkpt><trkpt lat="43.67866659993272" lon="18.39629750165248"><ele>975.6666666666666</ele><time>2026-05-03T15:54:09Z</time></trkpt><trkpt lat="43.67851742751064" lon="18.39616140172575"><ele>972.3333333333333</ele><time>2026-05-03T15:54:10Z</time></trkpt><trkpt lat="43.67835708272697" lon="18.396079087400818"><ele>969.0</ele><time>2026-05-03T15:54:11Z</time></trkpt><trkpt lat="43.67819496721283" lon="18.396064526099458"><ele>969.0</ele><time>2026-05-03T15:54:12Z</time></trkpt><trkpt lat="43.678052244295976" lon="18.396030788061193"><ele>969.0</ele><time>2026-05-03T15:54:13Z</time></trkpt><trkpt lat="43.67792812510789" lon="18.395927042528218"><ele>969.0</ele><time>2026-05-03T15:54:14Z</time></trkpt><trkpt lat="43.6778406159297" lon="18.395760006655742"><ele>969.0</ele><time>2026-05-03T15:54:15Z</time></trkpt><trkpt lat="43.67776711537265" lon="18.39554721284899"><ele>967.6666666666667</ele><time>2026-05-03T15:54:16Z</time></trkpt><trkpt lat="43.67768252911987" lon="18.395331550747887"><ele>966.3333333333334</ele><time>2026-05-03T15:54:17Z</time></trkpt><trkpt lat="43.677589931317414" lon="18.395110639920514"><ele>965.0</ele><time>2026-05-03T15:54:18Z</time></trkpt><trkpt lat="43.67749273053304" lon="18.394883411086223"><ele>965.0</ele><time>2026-05-03T15:54:19Z</time></trkpt><trkpt lat="43.677398371797196" lon="18.394673672738165"><ele>965.0</ele><time>2026-05-03T15:54:20Z</time></trkpt><trkpt lat="43.677289310324035" lon="18.394504995165722"><ele>965.0</ele><time>2026-05-03T15:54:21Z</time></trkpt><trkpt lat="43.67714670986679" lon="18.394388012495927"><ele>964.0</ele><time>2026-05-03T15:54:22Z</time></trkpt><trkpt lat="43.67701094380161" lon="18.39429702729932"><ele>963.0</ele><time>2026-05-03T15:54:23Z</time></trkpt><trkpt lat="43.676901251083876" lon="18.39417204144608"><ele>962.0</ele><time>2026-05-03T15:54:24Z</time></trkpt><trkpt lat="43.67680544400003" lon="18.39399735122711"><ele>965.0</ele><time>2026-05-03T15:54:25Z</time></trkpt><trkpt lat="43.67671346138076" lon="18.393816522279465"><ele>968.0</ele><time>2026-05-03T15:54:26Z</time></trkpt><trkpt lat="43.676632523224015" lon="18.393619123482257"><ele>971.0</ele><time>2026-05-03T15:54:27Z</time></trkpt><trkpt lat="43.67657190005048" lon="18.39340670853516"><ele>971.0</ele><time>2026-05-03T15:54:28Z</time></trkpt><trkpt lat="43.67653498930413" lon="18.393195992274403"><ele>971.0</ele><time>2026-05-03T15:54:29Z</time></trkpt><trkpt lat="43.67649321030361" lon="18.393010741900596"><ele>971.0</ele><time>2026-05-03T15:54:30Z</time></trkpt><trkpt lat="43.67644885628623" lon="18.39286015071042"><ele>971.0</ele><time>2026-05-03T15:54:31Z</time></trkpt><trkpt lat="43.67640438254747" lon="18.39270218316183"><ele>971.75</ele><time>2026-05-03T15:54:32Z</time></trkpt><trkpt lat="43.67634473657794" lon="18.39254160803525"><ele>972.5</ele><time>2026-05-03T15:54:33Z</time></trkpt><trkpt lat="43.67626369117212" lon="18.392403733662288"><ele>973.25</ele><time>2026-05-03T15:54:34Z</time></trkpt><trkpt lat="43.676140049255594" lon="18.392298902621395"><ele>974.0</ele><time>2026-05-03T15:54:35Z</time></trkpt><trkpt lat="43.67599932544255" lon="18.392230119320512"><ele>970.0</ele><time>2026-05-03T15:54:36Z</time></trkpt><trkpt lat="43.675845485502535" lon="18.392174419763403"><ele>966.0</ele><time>2026-05-03T15:54:37Z</time></trkpt><trkpt lat="43.675690774054914" lon="18.39211489718389"><ele>962.0</ele><time>2026-05-03T15:54:38Z</time></trkpt><trkpt lat="43.67552726626153" lon="18.392055909817298"><ele>961.0</ele><time>2026-05-03T15:54:39Z</time></trkpt><trkpt lat="43.675362873820895" lon="18.39199864568034"><ele>960.0</ele><time>2026-05-03T15:54:40Z</time></trkpt><trkpt lat="43.67519100594166" lon="18.39194312020262"><ele>959.0</ele><time>2026-05-03T15:54:41Z</time></trkpt><trkpt lat="43.67502125768966" lon="18.391896730721516"><ele>962.3333333333334</ele><time>2026-05-03T15:54:42Z</time></trkpt><trkpt lat="43.674843084110826" lon="18.3918551977879"><ele>965.6666666666667</ele><time>2026-05-03T15:54:43Z</time></trkpt><trkpt lat="43.674663542162634" lon="18.39182599195484"><ele>969.0</ele><time>2026-05-03T15:54:44Z</time></trkpt><trkpt lat="43.67448429660786" lon="18.39181707693299"><ele>972.0</ele><time>2026-05-03T15:54:45Z</time></trkpt><trkpt lat="43.67430236014594" lon="18.391845314816845"><ele>975.0</ele><time>2026-05-03T15:54:46Z</time></trkpt><trkpt lat="43.67412670443691" lon="18.391902099734356"><ele>978.0</ele><time>2026-05-03T15:54:47Z</time></trkpt><trkpt lat="43.673954088471156" lon="18.391958708108167"><ele>978.0</ele><time>2026-05-03T15:54:48Z</time></trkpt><trkpt lat="43.673794798741994" lon="18.391978955627447"><ele>978.0</ele><time>2026-05-03T15:54:49Z</time></trkpt><trkpt lat="43.6736459195474" lon="18.39193341873668"><ele>978.0</ele><time>2026-05-03T15:54:50Z</time></trkpt><trkpt lat="43.67349794843296" lon="18.39183694854443"><ele>980.3333333333333</ele><time>2026-05-03T15:54:51Z</time></trkpt><trkpt lat="43.67337331284653" lon="18.391692319738986"><ele>982.6666666666666</ele><time>2026-05-03T15:54:52Z</time></trkpt><trkpt lat="43.67327056662668" lon="18.391528378043635"><ele>985.0</ele><time>2026-05-03T15:54:53Z</time></trkpt><trkpt lat="43.67316592869107" lon="18.39137889939808"><ele>986.75</ele><time>2026-05-03T15:54:54Z</time></trkpt><trkpt lat="43.673061271011775" lon="18.391294550644822"><ele>988.5</ele><time>2026-05-03T15:54:55Z</time></trkpt><trkpt lat="43.672948121748895" lon="18.391272497959125"><ele>990.25</ele><time>2026-05-03T15:54:56Z</time></trkpt><trkpt lat="43.67281691152424" lon="18.391333639980154"><ele>992.0</ele><time>2026-05-03T15:54:57Z</time></trkpt><trkpt lat="43.672690630776565" lon="18.39144144401224"><ele>992.0</ele><time>2026-05-03T15:54:58Z</time></trkpt><trkpt lat="43.6725690253515" lon="18.391535496926753"><ele>992.0</ele><time>2026-05-03T15:54:59Z</time></trkpt><trkpt lat="43.67243407727272" lon="18.391574413323188"><ele>992.0</ele><time>2026-05-03T15:55:00Z</time></trkpt><trkpt lat="43.6722782425449" lon="18.391553267588574"><ele>992.0</ele><time>2026-05-03T15:55:01Z</time></trkpt><trkpt lat="43.672093557185605" lon="18.391490061330977"><ele>994.5</ele><time>2026-05-03T15:55:02Z</time></trkpt><trkpt lat="43.67187673608796" lon="18.391415733370355"><ele>997.0</ele><time>2026-05-03T15:55:03Z</time></trkpt><trkpt lat="43.67163172960275" lon="18.391345751625817"><ele>1002.0</ele><time>2026-05-03T15:55:04Z</time></trkpt><trkpt lat="43.6713910750435" lon="18.391286880931563"><ele>1007.0</ele><time>2026-05-03T15:55:05Z</time></trkpt><trkpt lat="43.671177996795805" lon="18.391236371417847"><ele>1004.3333333333334</ele><time>2026-05-03T15:55:06Z</time></trkpt><trkpt lat="43.67097349937991" lon="18.39117783731532"><ele>1001.6666666666667</ele><time>2026-05-03T15:55:07Z</time></trkpt><trkpt lat="43.67075739341052" lon="18.391108169897404"><ele>999.0</ele><time>2026-05-03T15:55:08Z</time></trkpt><trkpt lat="43.67052533217504" lon="18.391026990595"><ele>999.0</ele><time>2026-05-03T15:55:09Z</time></trkpt><trkpt lat="43.67028004964276" lon="18.390942604246288"><ele>999.0</ele><time>2026-05-03T15:55:10Z</time></trkpt><trkpt lat="43.67002718729187" lon="18.390865437126905"><ele>999.5</ele><time>2026-05-03T15:55:11Z</time></trkpt><trkpt lat="43.669774543339145" lon="18.390794381029437"><ele>1000.0</ele><time>2026-05-03T15:55:12Z</time></trkpt><trkpt lat="43.669536930733955" lon="18.390720971927475"><ele>1000.6666666666666</ele><time>2026-05-03T15:55:13Z</time></trkpt><trkpt lat="43.66931975358021" lon="18.390650022854473"><ele>1001.3333333333333</ele><time>2026-05-03T15:55:14Z</time></trkpt><trkpt lat="43.66911273267426" lon="18.39057717763935"><ele>1002.0</ele><time>2026-05-03T15:55:15Z</time></trkpt><trkpt lat="43.668920399383225" lon="18.390505392634978"><ele>1000.6666666666667</ele><time>2026-05-03T15:55:16Z</time></trkpt><trkpt lat="43.668736919899125" lon="18.390435997000214"><ele>999.3333333333334</ele><time>2026-05-03T15:55:17Z</time></trkpt><trkpt lat="43.66856576097083" lon="18.39037601643723"><ele>998.0</ele><time>2026-05-03T15:55:18Z</time></trkpt><trkpt lat="43.66840353507289" lon="18.39032606085151"><ele>998.0</ele><time>2026-05-03T15:55:19Z</time></trkpt><trkpt lat="43.66824996929273" lon="18.39028985254219"><ele>998.0</ele><time>2026-05-03T15:55:20Z</time></trkpt><trkpt lat="43.6680934831812" lon="18.390279774769052"><ele>998.0</ele><time>2026-05-03T15:55:21Z</time></trkpt><trkpt lat="43.6679371742538" lon="18.390317030919313"><ele>998.0</ele><time>2026-05-03T15:55:22Z</time></trkpt><trkpt lat="43.66778344059885" lon="18.39040662709991"><ele>998.0</ele><time>2026-05-03T15:55:23Z</time></trkpt><trkpt lat="43.66762521350976" lon="18.390529006592992"><ele>998.0</ele><time>2026-05-03T15:55:24Z</time></trkpt><trkpt lat="43.667461632400745" lon="18.39065696538457"><ele>997.3333333333334</ele><time>2026-05-03T15:55:25Z</time></trkpt><trkpt lat="43.667289955931246" lon="18.390784631216928"><ele>996.6666666666667</ele><time>2026-05-03T15:55:26Z</time></trkpt><trkpt lat="43.66711375347915" lon="18.390921851321878"><ele>996.0</ele><time>2026-05-03T15:55:27Z</time></trkpt><trkpt lat="43.66693915972735" lon="18.39105451468069"><ele>996.0</ele><time>2026-05-03T15:55:28Z</time></trkpt><trkpt lat="43.66675073255133" lon="18.391185157963417"><ele>996.0</ele><time>2026-05-03T15:55:29Z</time></trkpt><trkpt lat="43.66656810036883" lon="18.391315141213575"><ele>996.0</ele><time>2026-05-03T15:55:30Z</time></trkpt><trkpt lat="43.66637831402131" lon="18.391455419536907"><ele>999.3333333333333</ele><time>2026-05-03T15:55:31Z</time></trkpt><trkpt lat="43.66619290434686" lon="18.391599431960064"><ele>1002.6666666666666</ele><time>2026-05-03T15:55:32Z</time></trkpt><trkpt lat="43.666009121459616" lon="18.39174173283548"><ele>1006.0</ele><time>2026-05-03T15:55:33Z</time></trkpt><trkpt lat="43.66582629707701" lon="18.39187556371939"><ele>1006.3333333333333</ele><time>2026-05-03T15:55:34Z</time></trkpt><trkpt lat="43.66565053120996" lon="18.39199843649901"><ele>1006.6666666666667</ele><time>2026-05-03T15:55:35Z</time></trkpt><trkpt lat="43.66548097915304" lon="18.39210991735138"><ele>1007.0</ele><time>2026-05-03T15:55:36Z</time></trkpt><trkpt lat="43.665313165749474" lon="18.392214286048276"><ele>1010.0</ele><time>2026-05-03T15:55:37Z</time></trkpt><trkpt lat="43.6651367953786" lon="18.392309656627077"><ele>1013.0</ele><time>2026-05-03T15:55:38Z</time></trkpt><trkpt lat="43.6649558398086" lon="18.392382510301346"><ele>1016.0</ele><time>2026-05-03T15:55:39Z</time></trkpt><trkpt lat="43.66476602697096" lon="18.392413939707744"><ele>1016.0</ele><time>2026-05-03T15:55:40Z</time></trkpt><trkpt lat="43.66456899342534" lon="18.392399943177576"><ele>1016.0</ele><time>2026-05-03T15:55:41Z</time></trkpt><trkpt lat="43.664367841684225" lon="18.392352267672372"><ele>1016.0</ele><time>2026-05-03T15:55:42Z</time></trkpt><trkpt lat="43.6641683498404" lon="18.392284774977572"><ele>1016.6666666666667</ele><time>2026-05-03T15:55:43Z</time></trkpt><trkpt lat="43.66396979650016" lon="18.39220305296619"><ele>1017.3333333333333</ele><time>2026-05-03T15:55:44Z</time></trkpt><trkpt lat="43.66377684482193" lon="18.392110216844195"><ele>1018.0</ele><time>2026-05-03T15:55:45Z</time></trkpt><trkpt lat="43.66358240603088" lon="18.39201552773913"><ele>1019.0</ele><time>2026-05-03T15:55:46Z</time></trkpt><trkpt lat="43.66338523378302" lon="18.391930874122654"><ele>1020.0</ele><time>2026-05-03T15:55:47Z</time></trkpt><trkpt lat="43.663185771433305" lon="18.391861236255203"><ele>1021.0</ele><time>2026-05-03T15:55:48Z</time></trkpt><trkpt lat="43.66297523755711" lon="18.391798446141884"><ele>1021.6666666666666</ele><time>2026-05-03T15:55:49Z</time></trkpt><trkpt lat="43.66275774719512" lon="18.39173876235224"><ele>1022.3333333333333</ele><time>2026-05-03T15:55:50Z</time></trkpt><trkpt lat="43.66254036356343" lon="18.391664937775396"><ele>1023.0</ele><time>2026-05-03T15:55:51Z</time></trkpt><trkpt lat="43.66231498498214" lon="18.391580379534616"><ele>1023.0</ele><time>2026-05-03T15:55:52Z</time></trkpt><trkpt lat="43.66208754421437" lon="18.39148655246626"><ele>1023.0</ele><time>2026-05-03T15:55:53Z</time></trkpt><trkpt lat="43.66186301234581" lon="18.391388197672306"><ele>1021.3333333333333</ele><time>2026-05-03T15:55:54Z</time></trkpt><trkpt lat="43.66164791047885" lon="18.39128953151503"><ele>1019.6666666666666</ele><time>2026-05-03T15:55:55Z</time></trkpt><trkpt lat="43.66143781590836" lon="18.391192868678445"><ele>1018.0</ele><time>2026-05-03T15:55:56Z</time></trkpt><trkpt lat="43.66124027002007" lon="18.39109346850415"><ele>1019.3333333333333</ele><time>2026-05-03T15:55:57Z</time></trkpt><trkpt lat="43.66105912101251" lon="18.39097416110631"><ele>1020.6666666666667</ele><time>2026-05-03T15:55:58Z</time></trkpt><trkpt lat="43.66088777870952" lon="18.390835551634105"><ele>1022.0</ele><time>2026-05-03T15:55:59Z</time></trkpt><trkpt lat="43.66073241585417" lon="18.390691771679663"><ele>1022.0</ele><time>2026-05-03T15:56:00Z</time></trkpt><trkpt lat="43.66059188455299" lon="18.390545152160477"><ele>1022.0</ele><time>2026-05-03T15:56:01Z</time></trkpt><trkpt lat="43.66046385373524" lon="18.390403326398523"><ele>1022.0</ele><time>2026-05-03T15:56:02Z</time></trkpt><trkpt lat="43.66034583403454" lon="18.390277944907808"><ele>1023.8</ele><time>2026-05-03T15:56:03Z</time></trkpt><trkpt lat="43.66023851075834" lon="18.390180132074924"><ele>1025.6</ele><time>2026-05-03T15:56:04Z</time></trkpt><trkpt lat="43.66013677486585" lon="18.390117851304684"><ele>1027.3999999999999</ele><time>2026-05-03T15:56:05Z</time></trkpt><trkpt lat="43.66005017352278" lon="18.390066618899482"><ele>1029.2</ele><time>2026-05-03T15:56:06Z</time></trkpt><trkpt lat="43.65998330084288" lon="18.390016129813617"><ele>1031.0</ele><time>2026-05-03T15:56:07Z</time></trkpt><trkpt lat="43.659935186891936" lon="18.38987594123941"><ele>1031.0</ele><time>2026-05-03T15:56:09Z</time></trkpt><trkpt lat="43.65995276610288" lon="18.38976975371262"><ele>1031.0</ele><time>2026-05-03T15:56:10Z</time></trkpt><trkpt lat="43.66001833123633" lon="18.389645848282928"><ele>1031.0</ele><time>2026-05-03T15:56:11Z</time></trkpt><trkpt lat="43.6601063276065" lon="18.389530476136038"><ele>1031.0</ele><time>2026-05-03T15:56:12Z</time></trkpt><trkpt lat="43.66021076208785" lon="18.389380333419016"><ele>1031.0</ele><time>2026-05-03T15:56:13Z</time></trkpt><trkpt lat="43.66031981854968" lon="18.389216938355634"><ele>1031.0</ele><time>2026-05-03T15:56:14Z</time></trkpt><trkpt lat="43.660411171150585" lon="18.3890292673894"><ele>1031.0</ele><time>2026-05-03T15:56:15Z</time></trkpt><trkpt lat="43.660483555765204" lon="18.388814220213884"><ele>1038.3333333333335</ele><time>2026-05-03T15:56:16Z</time></trkpt><trkpt lat="43.66055265988085" lon="18.38860599269612"><ele>1045.6666666666667</ele><time>2026-05-03T15:56:17Z</time></trkpt><trkpt lat="43.66065712683412" lon="18.388446927272916"><ele>1053.0</ele><time>2026-05-03T15:56:18Z</time></trkpt><trkpt lat="43.66079381060652" lon="18.38833767334647"><ele>1053.0</ele><time>2026-05-03T15:56:19Z</time></trkpt><trkpt lat="43.660920203499124" lon="18.388228203088406"><ele>1053.0</ele><time>2026-05-03T15:56:20Z</time></trkpt><trkpt lat="43.661009838576916" lon="18.388067939875643"><ele>1053.0</ele><time>2026-05-03T15:56:21Z</time></trkpt><trkpt lat="43.661070089537844" lon="18.38786720027178"><ele>1048.0</ele><time>2026-05-03T15:56:22Z</time></trkpt><trkpt lat="43.661120189754556" lon="18.387641036687942"><ele>1043.0</ele><time>2026-05-03T15:56:23Z</time></trkpt><trkpt lat="43.66118051850002" lon="18.387430181300903"><ele>1038.0</ele><time>2026-05-03T15:56:24Z</time></trkpt><trkpt lat="43.661249068516" lon="18.38724937527212"><ele>1042.0</ele><time>2026-05-03T15:56:25Z</time></trkpt><trkpt lat="43.661301007349294" lon="18.38706236156104"><ele>1046.0</ele><time>2026-05-03T15:56:26Z</time></trkpt><trkpt lat="43.6613285184098" lon="18.386897507580734"><ele>1050.0</ele><time>2026-05-03T15:56:27Z</time></trkpt><trkpt lat="43.66132427276156" lon="18.38672618681474"><ele>1054.0</ele><time>2026-05-03T15:56:28Z</time></trkpt><trkpt lat="43.66129634205716" lon="18.38654740668454"><ele>1054.0</ele><time>2026-05-03T15:56:29Z</time></trkpt><trkpt lat="43.66123118581573" lon="18.386370629386064"><ele>1054.0</ele><time>2026-05-03T15:56:30Z</time></trkpt><trkpt lat="43.66113486604565" lon="18.386214021171178"><ele>1054.0</ele><time>2026-05-03T15:56:31Z</time></trkpt><trkpt lat="43.661012487207934" lon="18.386065408315794"><ele>1055.6666666666665</ele><time>2026-05-03T15:56:32Z</time></trkpt><trkpt lat="43.660887926888975" lon="18.385916920043975"><ele>1057.3333333333333</ele><time>2026-05-03T15:56:33Z</time></trkpt><trkpt lat="43.66077093049963" lon="18.385753094284443"><ele>1059.0</ele><time>2026-05-03T15:56:34Z</time></trkpt><trkpt lat="43.660673099162096" lon="18.385580226519895"><ele>1058.3333333333333</ele><time>2026-05-03T15:56:35Z</time></trkpt><trkpt lat="43.6605880901767" lon="18.38540453518341"><ele>1057.6666666666665</ele><time>2026-05-03T15:56:36Z</time></trkpt><trkpt lat="43.66051187822154" lon="18.385209260048494"><ele>1057.0</ele><time>2026-05-03T15:56:37Z</time></trkpt><trkpt lat="43.66044864851857" lon="18.38499440866713"><ele>1057.0</ele><time>2026-05-03T15:56:38Z</time></trkpt><trkpt lat="43.660393435272766" lon="18.384764676239527"><ele>1057.0</ele><time>2026-05-03T15:56:39Z</time></trkpt><trkpt lat="43.660337601083256" lon="18.384538451232373"><ele>1057.0</ele><time>2026-05-03T15:56:40Z</time></trkpt><trkpt lat="43.66027740742508" lon="18.384311700778476"><ele>1060.0</ele><time>2026-05-03T15:56:41Z</time></trkpt><trkpt lat="43.66021142497709" lon="18.384079085048295"><ele>1063.0</ele><time>2026-05-03T15:56:42Z</time></trkpt><trkpt lat="43.66014928295963" lon="18.383850860868623"><ele>1066.0</ele><time>2026-05-03T15:56:43Z</time></trkpt><trkpt lat="43.66011128750102" lon="18.383641517923518"><ele>1066.3333333333333</ele><time>2026-05-03T15:56:44Z</time></trkpt><trkpt lat="43.660110482937014" lon="18.38342211931695"><ele>1066.6666666666667</ele><time>2026-05-03T15:56:45Z</time></trkpt><trkpt lat="43.66014882611805" lon="18.38318823401363"><ele>1067.0</ele><time>2026-05-03T15:56:46Z</time></trkpt><trkpt lat="43.66020525975362" lon="18.382950609730884"><ele>1069.6666666666667</ele><time>2026-05-03T15:56:47Z</time></trkpt><trkpt lat="43.66027756231053" lon="18.382711138834892"><ele>1072.3333333333333</ele><time>2026-05-03T15:56:48Z</time></trkpt><trkpt lat="43.66035823574605" lon="18.382479775862187"><ele>1075.0</ele><time>2026-05-03T15:56:49Z</time></trkpt><trkpt lat="43.66044461932157" lon="18.382258637002092"><ele>1065.0</ele><time>2026-05-03T15:56:50Z</time></trkpt><trkpt lat="43.66051997989428" lon="18.382024021007382"><ele>1055.0</ele><time>2026-05-03T15:56:51Z</time></trkpt><trkpt lat="43.660575807399546" lon="18.381786654861852"><ele>1045.0</ele><time>2026-05-03T15:56:52Z</time></trkpt><trkpt lat="43.660612676071736" lon="18.381556889977645"><ele>1047.0</ele><time>2026-05-03T15:56:53Z</time></trkpt><trkpt lat="43.660625673057574" lon="18.381344858663116"><ele>1049.0</ele><time>2026-05-03T15:56:54Z</time></trkpt><trkpt lat="43.66064395836424" lon="18.381143141689538"><ele>1051.0</ele><time>2026-05-03T15:56:55Z</time></trkpt><trkpt lat="43.660709727626674" lon="18.38097591688663"><ele>1053.0</ele><time>2026-05-03T15:56:56Z</time></trkpt><trkpt lat="43.66082049109383" lon="18.380834835344686"><ele>1053.0</ele><time>2026-05-03T15:56:57Z</time></trkpt><trkpt lat="43.6608958518774" lon="18.380648411528533"><ele>1053.0</ele><time>2026-05-03T15:56:58Z</time></trkpt><trkpt lat="43.66092751481942" lon="18.380422031507905"><ele>1053.0</ele><time>2026-05-03T15:56:59Z</time></trkpt><trkpt lat="43.66090125337375" lon="18.380157452626477"><ele>1052.6666666666667</ele><time>2026-05-03T15:57:00Z</time></trkpt><trkpt lat="43.660857427550944" lon="18.379896098628386"><ele>1052.3333333333335</ele><time>2026-05-03T15:57:01Z</time></trkpt><trkpt lat="43.66081392240304" lon="18.379639557382866"><ele>1052.0</ele><time>2026-05-03T15:57:02Z</time></trkpt><trkpt lat="43.66080858512789" lon="18.379415052158294"><ele>1052.0</ele><time>2026-05-03T15:57:03Z</time></trkpt><trkpt lat="43.660804448476604" lon="18.379192770607176"><ele>1052.0</ele><time>2026-05-03T15:57:04Z</time></trkpt><trkpt lat="43.66075236369755" lon="18.378961860899103"><ele>1052.0</ele><time>2026-05-03T15:57:05Z</time></trkpt><trkpt lat="43.660644147136566" lon="18.378759781099095"><ele>1047.0</ele><time>2026-05-03T15:57:06Z</time></trkpt><trkpt lat="43.66049798678307" lon="18.378596432531552"><ele>1042.0</ele><time>2026-05-03T15:57:07Z</time></trkpt><trkpt lat="43.6603430017666" lon="18.37845844130687"><ele>1037.0</ele><time>2026-05-03T15:57:08Z</time></trkpt><trkpt lat="43.66020927506056" lon="18.37829202259381"><ele>1043.6666666666667</ele><time>2026-05-03T15:57:09Z</time></trkpt><trkpt lat="43.66011057921733" lon="18.378098234676816"><ele>1050.3333333333333</ele><time>2026-05-03T15:57:10Z</time></trkpt><trkpt lat="43.659997601089145" lon="18.377943806078143"><ele>1057.0</ele><time>2026-05-03T15:57:11Z</time></trkpt><trkpt lat="43.65987447438847" lon="18.37785608574407"><ele>1057.0</ele><time>2026-05-03T15:57:12Z</time></trkpt><trkpt lat="43.65976832828034" lon="18.377778915247948"><ele>1057.0</ele><time>2026-05-03T15:57:13Z</time></trkpt><trkpt lat="43.659706602178844" lon="18.377682443816546"><ele>1057.0</ele><time>2026-05-03T15:57:14Z</time></trkpt><trkpt lat="43.65969912650795" lon="18.377557223054204"><ele>1057.0</ele><time>2026-05-03T15:57:15Z</time></trkpt><trkpt lat="43.65974546486563" lon="18.377427206191772"><ele>1057.0</ele><time>2026-05-03T15:57:16Z</time></trkpt><trkpt lat="43.65982453797213" lon="18.377306167806545"><ele>1057.0</ele><time>2026-05-03T15:57:17Z</time></trkpt><trkpt lat="43.65993175926763" lon="18.37719829976504"><ele>1057.0</ele><time>2026-05-03T15:57:18Z</time></trkpt><trkpt lat="43.660050680906515" lon="18.377058601723785"><ele>1057.0</ele><time>2026-05-03T15:57:19Z</time></trkpt><trkpt lat="43.66018076156641" lon="18.376909023915886"><ele>1055.75</ele><time>2026-05-03T15:57:20Z</time></trkpt><trkpt lat="43.660286659005415" lon="18.376750097423507"><ele>1054.5</ele><time>2026-05-03T15:57:21Z</time></trkpt><trkpt lat="43.66038658230541" lon="18.376614637207055"><ele>1053.25</ele><time>2026-05-03T15:57:22Z</time></trkpt><trkpt lat="43.6605146840003" lon="18.376561373261225"><ele>1052.0</ele><time>2026-05-03T15:57:23Z</time></trkpt><trkpt lat="43.66066514762305" lon="18.376543430407377"><ele>1052.0</ele><time>2026-05-03T15:57:24Z</time></trkpt><trkpt lat="43.66082686236949" lon="18.376570439846375"><ele>1052.0</ele><time>2026-05-03T15:57:25Z</time></trkpt><trkpt lat="43.660991692589405" lon="18.37656105444286"><ele>1052.0</ele><time>2026-05-03T15:57:26Z</time></trkpt><trkpt lat="43.6611327110295" lon="18.37650629133972"><ele>1053.25</ele><time>2026-05-03T15:57:27Z</time></trkpt><trkpt lat="43.66124917483462" lon="18.37642013798197"><ele>1054.5</ele><time>2026-05-03T15:57:28Z</time></trkpt><trkpt lat="43.66132769354542" lon="18.376296695342752"><ele>1055.75</ele><time>2026-05-03T15:57:29Z</time></trkpt><trkpt lat="43.66136790327211" lon="18.37613914542328"><ele>1057.0</ele><time>2026-05-03T15:57:30Z</time></trkpt><trkpt lat="43.66142965517012" lon="18.375979881734285"><ele>1057.0</ele><time>2026-05-03T15:57:31Z</time></trkpt><trkpt lat="43.66151654205028" lon="18.375863815297496"><ele>1057.0</ele><time>2026-05-03T15:57:32Z</time></trkpt><trkpt lat="43.66163313504939" lon="18.37582883823423"><ele>1057.0</ele><time>2026-05-03T15:57:33Z</time></trkpt><trkpt lat="43.66175687569972" lon="18.375825158133846"><ele>1057.0</ele><time>2026-05-03T15:57:34Z</time></trkpt><trkpt lat="43.661881010526166" lon="18.375830450520425"><ele>1053.75</ele><time>2026-05-03T15:57:35Z</time></trkpt><trkpt lat="43.66200490977224" lon="18.375844341983885"><ele>1050.5</ele><time>2026-05-03T15:57:36Z</time></trkpt><trkpt lat="43.66211662606666" lon="18.375798933013904"><ele>1047.25</ele><time>2026-05-03T15:57:37Z</time></trkpt><trkpt lat="43.662190994014324" lon="18.375698476578247"><ele>1044.0</ele><time>2026-05-03T15:57:38Z</time></trkpt><trkpt lat="43.66222108058884" lon="18.375554456307"><ele>1045.75</ele><time>2026-05-03T15:57:39Z</time></trkpt><trkpt lat="43.662214018165706" lon="18.375376229354128"><ele>1047.5</ele><time>2026-05-03T15:57:40Z</time></trkpt><trkpt lat="43.66220761064488" lon="18.375179933580473"><ele>1049.25</ele><time>2026-05-03T15:57:41Z</time></trkpt><trkpt lat="43.66221587990517" lon="18.37496933671288"><ele>1051.0</ele><time>2026-05-03T15:57:42Z</time></trkpt><trkpt lat="43.66223678685466" lon="18.37476717464867"><ele>1052.0</ele><time>2026-05-03T15:57:43Z</time></trkpt><trkpt lat="43.66225020617524" lon="18.374568365040563"><ele>1053.0</ele><time>2026-05-03T15:57:44Z</time></trkpt><trkpt lat="43.662276975489135" lon="18.374365716511885"><ele>1054.0</ele><time>2026-05-03T15:57:45Z</time></trkpt><trkpt lat="43.66227655481815" lon="18.37418362165715"><ele>1055.0</ele><time>2026-05-03T15:57:46Z</time></trkpt><trkpt lat="43.66229805693941" lon="18.374023300691466"><ele>1055.0</ele><time>2026-05-03T15:57:47Z</time></trkpt><trkpt lat="43.66241429424733" lon="18.373937702014086"><ele>1055.0</ele><time>2026-05-03T15:57:48Z</time></trkpt><trkpt lat="43.66249124328763" lon="18.37380900687404"><ele>1055.0</ele><time>2026-05-03T15:57:49Z</time></trkpt><trkpt lat="43.66257823238431" lon="18.37370401435686"><ele>1055.0</ele><time>2026-05-03T15:57:50Z</time></trkpt><trkpt lat="43.66261267341681" lon="18.373539205968406"><ele>1055.75</ele><time>2026-05-03T15:57:51Z</time></trkpt><trkpt lat="43.66262596251799" lon="18.373345083900293"><ele>1056.5</ele><time>2026-05-03T15:57:52Z</time></trkpt><trkpt lat="43.662681527779185" lon="18.37315464661995"><ele>1057.25</ele><time>2026-05-03T15:57:53Z</time></trkpt><trkpt lat="43.66275423423471" lon="18.372978464066"><ele>1058.0</ele><time>2026-05-03T15:57:54Z</time></trkpt><trkpt lat="43.66283868061615" lon="18.372799039670294"><ele>1055.5</ele><time>2026-05-03T15:57:55Z</time></trkpt><trkpt lat="43.66291056676195" lon="18.372611984160045"><ele>1053.0</ele><time>2026-05-03T15:57:56Z</time></trkpt><trkpt lat="43.662989678659876" lon="18.37245852414575"><ele>1050.5</ele><time>2026-05-03T15:57:57Z</time></trkpt><trkpt lat="43.66302564948244" lon="18.372282644006134"><ele>1048.0</ele><time>2026-05-03T15:57:58Z</time></trkpt><trkpt lat="43.66300894568149" lon="18.372091505555947"><ele>1047.75</ele><time>2026-05-03T15:57:59Z</time></trkpt><trkpt lat="43.66295222224765" lon="18.371919828942218"><ele>1047.5</ele><time>2026-05-03T15:58:00Z</time></trkpt><trkpt lat="43.66286317687298" lon="18.37177048650544"><ele>1047.25</ele><time>2026-05-03T15:58:01Z</time></trkpt><trkpt lat="43.6627448910132" lon="18.37168984025437"><ele>1047.0</ele><time>2026-05-03T15:58:02Z</time></trkpt><trkpt lat="43.66261265595606" lon="18.371662321367733"><ele>1048.6666666666667</ele><time>2026-05-03T15:58:03Z</time></trkpt><trkpt lat="43.662463536570456" lon="18.371668287741024"><ele>1050.3333333333335</ele><time>2026-05-03T15:58:04Z</time></trkpt><trkpt lat="43.66230263131372" lon="18.371691141311103"><ele>1052.0</ele><time>2026-05-03T15:58:05Z</time></trkpt><trkpt lat="43.66213343603776" lon="18.37169193468955"><ele>1052.0</ele><time>2026-05-03T15:58:06Z</time></trkpt><trkpt lat="43.66196748044721" lon="18.37166880085306"><ele>1052.0</ele><time>2026-05-03T15:58:07Z</time></trkpt><trkpt lat="43.661816611450455" lon="18.37161484515794"><ele>1052.0</ele><time>2026-05-03T15:58:08Z</time></trkpt><trkpt lat="43.661693263840235" lon="18.371509533414635"><ele>1052.75</ele><time>2026-05-03T15:58:09Z</time></trkpt><trkpt lat="43.66157531126055" lon="18.37142266524824"><ele>1053.5</ele><time>2026-05-03T15:58:10Z</time></trkpt><trkpt lat="43.66150573298858" lon="18.371276095962447"><ele>1054.25</ele><time>2026-05-03T15:58:11Z</time></trkpt><trkpt lat="43.66146167350388" lon="18.371105406289608"><ele>1055.0</ele><time>2026-05-03T15:58:12Z</time></trkpt><trkpt lat="43.6614449666952" lon="18.370900793971412"><ele>1052.6666666666667</ele><time>2026-05-03T15:58:13Z</time></trkpt><trkpt lat="43.661485933016955" lon="18.37069576941077"><ele>1050.3333333333333</ele><time>2026-05-03T15:58:14Z</time></trkpt><trkpt lat="43.661532900506735" lon="18.370481426833067"><ele>1048.0</ele><time>2026-05-03T15:58:15Z</time></trkpt><trkpt lat="43.66158240532585" lon="18.37025907254508"><ele>1046.25</ele><time>2026-05-03T15:58:16Z</time></trkpt><trkpt lat="43.661698213576514" lon="18.370120445588945"><ele>1044.5</ele><time>2026-05-03T15:58:17Z</time></trkpt><trkpt lat="43.66181173316467" lon="18.369993509015913"><ele>1042.75</ele><time>2026-05-03T15:58:18Z</time></trkpt><trkpt lat="43.66194142296309" lon="18.36990757789789"><ele>1041.0</ele><time>2026-05-03T15:58:19Z</time></trkpt><trkpt lat="43.66208087853699" lon="18.369841314286834"><ele>1040.0</ele><time>2026-05-03T15:58:20Z</time></trkpt><trkpt lat="43.66223317663486" lon="18.36984890977818"><ele>1039.0</ele><time>2026-05-03T15:58:21Z</time></trkpt><trkpt lat="43.662381200091666" lon="18.369877025382927"><ele>1038.0</ele><time>2026-05-03T15:58:22Z</time></trkpt><trkpt lat="43.6625115223694" lon="18.36995241834768"><ele>1037.0</ele><time>2026-05-03T15:58:23Z</time></trkpt><trkpt lat="43.66262150561304" lon="18.37002034499099"><ele>1037.0</ele><time>2026-05-03T15:58:24Z</time></trkpt><trkpt lat="43.66271040401619" lon="18.370094320563474"><ele>1037.0</ele><time>2026-05-03T15:58:25Z</time></trkpt><trkpt lat="43.66279683291206" lon="18.3700990243547"><ele>1037.0</ele><time>2026-05-03T15:58:26Z</time></trkpt><trkpt lat="43.66286644194918" lon="18.370018648213453"><ele>1037.0</ele><time>2026-05-03T15:58:27Z</time></trkpt><trkpt lat="43.66289105153888" lon="18.369879113028595"><ele>1037.0</ele><time>2026-05-03T15:58:28Z</time></trkpt><trkpt lat="43.66287478177253" lon="18.369714126202357"><ele>1035.3333333333335</ele><time>2026-05-03T15:58:29Z</time></trkpt><trkpt lat="43.662809569384315" lon="18.369532096293177"><ele>1033.6666666666667</ele><time>2026-05-03T15:58:30Z</time></trkpt><trkpt lat="43.66277710501123" lon="18.36933062605135"><ele>1032.0</ele><time>2026-05-03T15:58:31Z</time></trkpt><trkpt lat="43.66272669437517" lon="18.369125873682503"><ele>1032.0</ele><time>2026-05-03T15:58:32Z</time></trkpt><trkpt lat="43.66267037795182" lon="18.368904491551667"><ele>1032.0</ele><time>2026-05-03T15:58:33Z</time></trkpt><trkpt lat="43.662613904158334" lon="18.368682490792693"><ele>1032.0</ele><time>2026-05-03T15:58:34Z</time></trkpt><trkpt lat="43.66255551071579" lon="18.368452943820472"><ele>1029.6666666666667</ele><time>2026-05-03T15:58:35Z</time></trkpt><trkpt lat="43.66240674755004" lon="18.36827744469979"><ele>1027.3333333333335</ele><time>2026-05-03T15:58:36Z</time></trkpt><trkpt lat="43.6623112236266" lon="18.36809304172814"><ele>1025.0</ele><time>2026-05-03T15:58:37Z</time></trkpt><trkpt lat="43.66221271728382" lon="18.367938124604557"><ele>1023.75</ele><time>2026-05-03T15:58:38Z</time></trkpt><trkpt lat="43.662105559475" lon="18.36779526835381"><ele>1022.5</ele><time>2026-05-03T15:58:39Z</time></trkpt><trkpt lat="43.6619985384282" lon="18.367677791871838"><ele>1021.25</ele><time>2026-05-03T15:58:40Z</time></trkpt><trkpt lat="43.66189920370406" lon="18.367595620110723"><ele>1020.0</ele><time>2026-05-03T15:58:41Z</time></trkpt><trkpt lat="43.661832584883285" lon="18.367524397136343"><ele>1020.0</ele><time>2026-05-03T15:58:42Z</time></trkpt><trkpt lat="43.6618222248504" lon="18.367422267037682"><ele>1020.0</ele><time>2026-05-03T15:58:43Z</time></trkpt><trkpt lat="43.6618749076011" lon="18.3673196345186"><ele>1020.0</ele><time>2026-05-03T15:58:44Z</time></trkpt><trkpt lat="43.66198345835748" lon="18.367282907398373"><ele>1020.0</ele><time>2026-05-03T15:58:45Z</time></trkpt><trkpt lat="43.66210534113347" lon="18.367309209600318"><ele>1020.0</ele><time>2026-05-03T15:58:46Z</time></trkpt><trkpt lat="43.662255784259656" lon="18.36737727729331"><ele>1020.0</ele><time>2026-05-03T15:58:47Z</time></trkpt><trkpt lat="43.66241551734914" lon="18.367417914898994"><ele>1020.0</ele><time>2026-05-03T15:58:48Z</time></trkpt><trkpt lat="43.66258747633229" lon="18.36741670421298"><ele>1020.0</ele><time>2026-05-03T15:58:49Z</time></trkpt><trkpt lat="43.662752614931726" lon="18.367388161430675"><ele>1018.0</ele><time>2026-05-03T15:58:50Z</time></trkpt><trkpt lat="43.66290728713398" lon="18.36736575735234"><ele>1016.0</ele><time>2026-05-03T15:58:51Z</time></trkpt><trkpt lat="43.663055332909146" lon="18.367364571387565"><ele>1014.0</ele><time>2026-05-03T15:58:52Z</time></trkpt><trkpt lat="43.66319569255407" lon="18.36739390603166"><ele>1012.0</ele><time>2026-05-03T15:58:53Z</time></trkpt><trkpt lat="43.66332575505515" lon="18.367453539140683"><ele>1012.0</ele><time>2026-05-03T15:58:54Z</time></trkpt><trkpt lat="43.663434122226775" lon="18.367530480011048"><ele>1012.0</ele><time>2026-05-03T15:58:55Z</time></trkpt><trkpt lat="43.663534896462345" lon="18.367570635143355"><ele>1012.0</ele><time>2026-05-03T15:58:56Z</time></trkpt><trkpt lat="43.66363075131004" lon="18.367527269277794"><ele>1012.0</ele><time>2026-05-03T15:58:57Z</time></trkpt><trkpt lat="43.66368573726492" lon="18.36739830009562"><ele>1012.0</ele><time>2026-05-03T15:58:58Z</time></trkpt><trkpt lat="43.663680612059245" lon="18.367244209475174"><ele>1011.0</ele><time>2026-05-03T15:58:59Z</time></trkpt><trkpt lat="43.663611081300246" lon="18.367098415398196"><ele>1010.0</ele><time>2026-05-03T15:59:00Z</time></trkpt><trkpt lat="43.66349460997509" lon="18.366972572895037"><ele>1009.0</ele><time>2026-05-03T15:59:01Z</time></trkpt><trkpt lat="43.663372068456994" lon="18.36684968701798"><ele>1008.0</ele><time>2026-05-03T15:59:02Z</time></trkpt><trkpt lat="43.66325772617976" lon="18.366693762256634"><ele>1008.0</ele><time>2026-05-03T15:59:03Z</time></trkpt><trkpt lat="43.66314851535529" lon="18.36650618469855"><ele>1008.0</ele><time>2026-05-03T15:59:04Z</time></trkpt><trkpt lat="43.66304780273244" lon="18.36629688624818"><ele>1008.0</ele><time>2026-05-03T15:59:05Z</time></trkpt><trkpt lat="43.662954630135445" lon="18.3660798685147"><ele>1004.3333333333333</ele><time>2026-05-03T15:59:06Z</time></trkpt><trkpt lat="43.66285317478133" lon="18.365855968483032"><ele>1000.6666666666666</ele><time>2026-05-03T15:59:07Z</time></trkpt><trkpt lat="43.66274998584657" lon="18.365637182469378"><ele>997.0</ele><time>2026-05-03T15:59:08Z</time></trkpt><trkpt lat="43.662645985958655" lon="18.365425220119636"><ele>995.0</ele><time>2026-05-03T15:59:09Z</time></trkpt><trkpt lat="43.66253944986314" lon="18.365215285013452"><ele>993.0</ele><time>2026-05-03T15:59:10Z</time></trkpt><trkpt lat="43.662440707471454" lon="18.36502062195994"><ele>991.0</ele><time>2026-05-03T15:59:11Z</time></trkpt><trkpt lat="43.66236354082529" lon="18.364831494497327"><ele>991.6666666666666</ele><time>2026-05-03T15:59:12Z</time></trkpt><trkpt lat="43.66231808563083" lon="18.36462528051592"><ele>992.3333333333333</ele><time>2026-05-03T15:59:13Z</time></trkpt><trkpt lat="43.6623100781958" lon="18.36440900384927"><ele>993.0</ele><time>2026-05-03T15:59:14Z</time></trkpt><trkpt lat="43.662328018399414" lon="18.364183167743413"><ele>993.0</ele><time>2026-05-03T15:59:15Z</time></trkpt><trkpt lat="43.662308311353534" lon="18.363979638383046"><ele>993.0</ele><time>2026-05-03T15:59:16Z</time></trkpt><trkpt lat="43.66223286753069" lon="18.36380840559924"><ele>993.0</ele><time>2026-05-03T15:59:17Z</time></trkpt><trkpt lat="43.66211027901764" lon="18.363665889255433"><ele>992.6666666666667</ele><time>2026-05-03T15:59:18Z</time></trkpt><trkpt lat="43.66195217875253" lon="18.36354906225089"><ele>992.3333333333334</ele><time>2026-05-03T15:59:19Z</time></trkpt><trkpt lat="43.66178927534969" lon="18.363447232309802"><ele>992.0</ele><time>2026-05-03T15:59:20Z</time></trkpt><trkpt lat="43.66162576473585" lon="18.363333071319158"><ele>990.6666666666667</ele><time>2026-05-03T15:59:21Z</time></trkpt><trkpt lat="43.66147983063087" lon="18.36320100214388"><ele>989.3333333333333</ele><time>2026-05-03T15:59:22Z</time></trkpt><trkpt lat="43.66134171189084" lon="18.363052544567648"><ele>988.0</ele><time>2026-05-03T15:59:23Z</time></trkpt><trkpt lat="43.66121387671552" lon="18.36288562690427"><ele>983.3333333333333</ele><time>2026-05-03T15:59:24Z</time></trkpt><trkpt lat="43.661088493484236" lon="18.36270344190038"><ele>978.6666666666667</ele><time>2026-05-03T15:59:25Z</time></trkpt><trkpt lat="43.660975064521466" lon="18.362532099209883"><ele>974.0</ele><time>2026-05-03T15:59:26Z</time></trkpt><trkpt lat="43.66087082836732" lon="18.362368076384747"><ele>974.0</ele><time>2026-05-03T15:59:27Z</time></trkpt><trkpt lat="43.66080148921204" lon="18.362225638708185"><ele>974.0000000000001</ele><time>2026-05-03T15:59:28Z</time></trkpt><trkpt lat="43.660761030462226" lon="18.362103946313344"><ele>974.0000000000001</ele><time>2026-05-03T15:59:29Z</time></trkpt><trkpt lat="43.66075194056707" lon="18.361982683031393"><ele>974.0</ele><time>2026-05-03T15:59:30Z</time></trkpt><trkpt lat="43.66076301482949" lon="18.36186026509555"><ele>974.0</ele><time>2026-05-03T15:59:31Z</time></trkpt><trkpt lat="43.6608067125403" lon="18.361754323878422"><ele>973.75</ele><time>2026-05-03T15:59:32Z</time></trkpt><trkpt lat="43.66088710752882" lon="18.361656570833095"><ele>973.5</ele><time>2026-05-03T15:59:33Z</time></trkpt><trkpt lat="43.66100197534484" lon="18.361585272143323"><ele>973.25</ele><time>2026-05-03T15:59:34Z</time></trkpt><trkpt lat="43.66112947986542" lon="18.361549234473916"><ele>973.0</ele><time>2026-05-03T15:59:35Z</time></trkpt><trkpt lat="43.66127677773049" lon="18.361547702021955"><ele>974.0</ele><time>2026-05-03T15:59:36Z</time></trkpt><trkpt lat="43.66142860840323" lon="18.36157580964802"><ele>975.0</ele><time>2026-05-03T15:59:37Z</time></trkpt><trkpt lat="43.66158162715992" lon="18.361613462418703"><ele>976.0</ele><time>2026-05-03T15:59:38Z</time></trkpt><trkpt lat="43.66173654119371" lon="18.361637687239472"><ele>976.0</ele><time>2026-05-03T15:59:39Z</time></trkpt><trkpt lat="43.66188855059857" lon="18.361628685858502"><ele>976.0</ele><time>2026-05-03T15:59:40Z</time></trkpt><trkpt lat="43.66204114477882" lon="18.36157220559236"><ele>976.0</ele><time>2026-05-03T15:59:41Z</time></trkpt><trkpt lat="43.66217303695421" lon="18.36147320441403"><ele>974.0</ele><time>2026-05-03T15:59:42Z</time></trkpt><trkpt lat="43.662299812256585" lon="18.361366963650717"><ele>972.0</ele><time>2026-05-03T15:59:43Z</time></trkpt><trkpt lat="43.662428646756226" lon="18.36129943316555"><ele>970.0</ele><time>2026-05-03T15:59:44Z</time></trkpt><trkpt lat="43.6625652786185" lon="18.361277399350843"><ele>968.0</ele><time>2026-05-03T15:59:45Z</time></trkpt><trkpt lat="43.66267694410971" lon="18.361289627590256"><ele>965.5999999999999</ele><time>2026-05-03T15:59:46Z</time></trkpt><trkpt lat="43.66276341775886" lon="18.361260284794607"><ele>963.1999999999999</ele><time>2026-05-03T15:59:47Z</time></trkpt><trkpt lat="43.66281497912688" lon="18.361160799188674"><ele>960.8</ele><time>2026-05-03T15:59:48Z</time></trkpt><trkpt lat="43.662806741694865" lon="18.36103150814239"><ele>958.4</ele><time>2026-05-03T15:59:49Z</time></trkpt><trkpt lat="43.662748052304394" lon="18.36092166589341"><ele>956.0</ele><time>2026-05-03T15:59:50Z</time></trkpt><trkpt lat="43.662646019080206" lon="18.360870289870633"><ele>956.0</ele><time>2026-05-03T15:59:51Z</time></trkpt><trkpt lat="43.662529322194295" lon="18.360888284251505"><ele>956.0</ele><time>2026-05-03T15:59:52Z</time></trkpt><trkpt lat="43.662404164307304" lon="18.360948650311705"><ele>956.0</ele><time>2026-05-03T15:59:53Z</time></trkpt><trkpt lat="43.66227148408441" lon="18.361026049861064"><ele>956.0</ele><time>2026-05-03T15:59:54Z</time></trkpt><trkpt lat="43.66213343134032" lon="18.36111352689032"><ele>956.0</ele><time>2026-05-03T15:59:55Z</time></trkpt><trkpt lat="43.66200411036315" lon="18.361194619361328"><ele>956.0</ele><time>2026-05-03T15:59:56Z</time></trkpt><trkpt lat="43.661883315549495" lon="18.36126060271156"><ele>956.0</ele><time>2026-05-03T15:59:57Z</time></trkpt><trkpt lat="43.66175856272587" lon="18.36127887036757"><ele>956.0</ele><time>2026-05-03T15:59:58Z</time></trkpt><trkpt lat="43.66163290426558" lon="18.361219464171572"><ele>955.5</ele><time>2026-05-03T15:59:59Z</time></trkpt><trkpt lat="43.661531993471236" lon="18.361077175035977"><ele>955.0</ele><time>2026-05-03T16:00:00Z</time></trkpt><trkpt lat="43.66143436723569" lon="18.360932449113452"><ele>954.5</ele><time>2026-05-03T16:00:01Z</time></trkpt><trkpt lat="43.66130793485636" lon="18.360836007062208"><ele>954.0</ele><time>2026-05-03T16:00:02Z</time></trkpt><trkpt lat="43.66114834531231" lon="18.36080020606809"><ele>954.0</ele><time>2026-05-03T16:00:03Z</time></trkpt><trkpt lat="43.66098615945473" lon="18.360815929748618"><ele>954.0</ele><time>2026-05-03T16:00:04Z</time></trkpt><trkpt lat="43.66082789371297" lon="18.360813732618116"><ele>954.0</ele><time>2026-05-03T16:00:05Z</time></trkpt><trkpt lat="43.66068904477679" lon="18.36076128056676"><ele>954.0</ele><time>2026-05-03T16:00:06Z</time></trkpt><trkpt lat="43.66056482344975" lon="18.36066865949881"><ele>954.0</ele><time>2026-05-03T16:00:07Z</time></trkpt><trkpt lat="43.66043647405585" lon="18.360615247501098"><ele>954.0</ele><time>2026-05-03T16:00:08Z</time></trkpt><trkpt lat="43.66030199679154" lon="18.360631857396374"><ele>954.0</ele><time>2026-05-03T16:00:09Z</time></trkpt><trkpt lat="43.66016795366971" lon="18.360717799932"><ele>948.3333333333333</ele><time>2026-05-03T16:00:10Z</time></trkpt><trkpt lat="43.66005425146319" lon="18.360864641189945"><ele>942.6666666666666</ele><time>2026-05-03T16:00:11Z</time></trkpt><trkpt lat="43.6599575415287" lon="18.361050822004064"><ele>937.0</ele><time>2026-05-03T16:00:12Z</time></trkpt><trkpt lat="43.6598721598116" lon="18.361235683302933"><ele>940.0</ele><time>2026-05-03T16:00:13Z</time></trkpt><trkpt lat="43.659790797714564" lon="18.361418903636775"><ele>943.0</ele><time>2026-05-03T16:00:14Z</time></trkpt><trkpt lat="43.65974299577302" lon="18.361615764052786"><ele>946.0</ele><time>2026-05-03T16:00:15Z</time></trkpt><trkpt lat="43.6597325293415" lon="18.361827431179982"><ele>946.0</ele><time>2026-05-03T16:00:16Z</time></trkpt><trkpt lat="43.659762434691324" lon="18.362019790756452"><ele>945.9999999999999</ele><time>2026-05-03T16:00:17Z</time></trkpt><trkpt lat="43.659816614495845" lon="18.36217103388669"><ele>945.9999999999999</ele><time>2026-05-03T16:00:18Z</time></trkpt><trkpt lat="43.659859436930184" lon="18.36228275363725"><ele>946.0</ele><time>2026-05-03T16:00:19Z</time></trkpt><trkpt lat="43.65985346867164" lon="18.362378894413514"><ele>946.0</ele><time>2026-05-03T16:00:20Z</time></trkpt><trkpt lat="43.65980481616534" lon="18.36245696087725"><ele>946.0</ele><time>2026-05-03T16:00:21Z</time></trkpt><trkpt lat="43.65972109518579" lon="18.36246457595977"><ele>945.9999999999999</ele><time>2026-05-03T16:00:22Z</time></trkpt><trkpt lat="43.659653585680914" lon="18.36239463776403"><ele>945.9999999999999</ele><time>2026-05-03T16:00:23Z</time></trkpt><trkpt lat="43.65962080152107" lon="18.362259277834358"><ele>946.0</ele><time>2026-05-03T16:00:24Z</time></trkpt><trkpt lat="43.65961157200233" lon="18.362082806481894"><ele>946.0</ele><time>2026-05-03T16:00:25Z</time></trkpt><trkpt lat="43.65959636848875" lon="18.361899702799263"><ele>946.0</ele><time>2026-05-03T16:00:26Z</time></trkpt><trkpt lat="43.659574538494084" lon="18.36169775577839"><ele>946.0</ele><time>2026-05-03T16:00:27Z</time></trkpt><trkpt lat="43.659581282882634" lon="18.36149973836863"><ele>946.0</ele><time>2026-05-03T16:00:28Z</time></trkpt><trkpt lat="43.65961890128607" lon="18.361286595696"><ele>943.0</ele><time>2026-05-03T16:00:29Z</time></trkpt><trkpt lat="43.659681295964766" lon="18.361073388978806"><ele>940.0</ele><time>2026-05-03T16:00:30Z</time></trkpt><trkpt lat="43.659758710038844" lon="18.360859333383257"><ele>937.0</ele><time>2026-05-03T16:00:31Z</time></trkpt><trkpt lat="43.65984752928807" lon="18.360639716864107"><ele>933.3333333333333</ele><time>2026-05-03T16:00:32Z</time></trkpt><trkpt lat="43.65994859768511" lon="18.360421884228206"><ele>929.6666666666667</ele><time>2026-05-03T16:00:33Z</time></trkpt><trkpt lat="43.660059830873536" lon="18.36020675591396"><ele>926.0</ele><time>2026-05-03T16:00:34Z</time></trkpt><trkpt lat="43.66017638046075" lon="18.36000259061096"><ele>927.6666666666667</ele><time>2026-05-03T16:00:35Z</time></trkpt><trkpt lat="43.66031125121776" lon="18.35981891683723"><ele>929.3333333333333</ele><time>2026-05-03T16:00:36Z</time></trkpt><trkpt lat="43.66047850128043" lon="18.359674117416386"><ele>931.0</ele><time>2026-05-03T16:00:37Z</time></trkpt><trkpt lat="43.66068030860363" lon="18.35957667736051"><ele>927.0</ele><time>2026-05-03T16:00:38Z</time></trkpt><trkpt lat="43.66089645891793" lon="18.359470749687723"><ele>923.0</ele><time>2026-05-03T16:00:39Z</time></trkpt><trkpt lat="43.66112252235697" lon="18.359355783805533"><ele>923.0</ele><time>2026-05-03T16:00:40Z</time></trkpt><trkpt lat="43.66135992712521" lon="18.359223863428966"><ele>923.0</ele><time>2026-05-03T16:00:41Z</time></trkpt><trkpt lat="43.661588519477164" lon="18.3590714885241"><ele>923.0</ele><time>2026-05-03T16:00:42Z</time></trkpt><trkpt lat="43.66181836448627" lon="18.35891032080134"><ele>923.0</ele><time>2026-05-03T16:00:43Z</time></trkpt><trkpt lat="43.662031987867266" lon="18.358757943105374"><ele>920.6666666666667</ele><time>2026-05-03T16:00:44Z</time></trkpt><trkpt lat="43.662227100346165" lon="18.358621365574738"><ele>918.3333333333333</ele><time>2026-05-03T16:00:45Z</time></trkpt><trkpt lat="43.662423252965205" lon="18.358491327008622"><ele>916.0</ele><time>2026-05-03T16:00:46Z</time></trkpt><trkpt lat="43.662616080696075" lon="18.358348559248288"><ele>916.5</ele><time>2026-05-03T16:00:47Z</time></trkpt><trkpt lat="43.66281868013803" lon="18.358204153344992"><ele>917.0</ele><time>2026-05-03T16:00:48Z</time></trkpt><trkpt lat="43.66302295096773" lon="18.358044463123107"><ele>913.0</ele><time>2026-05-03T16:00:49Z</time></trkpt><trkpt lat="43.6632068265809" lon="18.35788557509008"><ele>909.0</ele><time>2026-05-03T16:00:50Z</time></trkpt><trkpt lat="43.66338440486639" lon="18.357742519084592"><ele>905.0</ele><time>2026-05-03T16:00:51Z</time></trkpt><trkpt lat="43.66357006943635" lon="18.357632193511442"><ele>905.0</ele><time>2026-05-03T16:00:52Z</time></trkpt><trkpt lat="43.663776950081285" lon="18.357569495622617"><ele>905.0</ele><time>2026-05-03T16:00:53Z</time></trkpt><trkpt lat="43.6640001054257" lon="18.357526102592736"><ele>905.0</ele><time>2026-05-03T16:00:54Z</time></trkpt><trkpt lat="43.6642216187186" lon="18.357473677428285"><ele>905.0</ele><time>2026-05-03T16:00:55Z</time></trkpt><trkpt lat="43.66442791058668" lon="18.357401649266386"><ele>905.0</ele><time>2026-05-03T16:00:56Z</time></trkpt><trkpt lat="43.66461543930042" lon="18.357333010991315"><ele>905.0</ele><time>2026-05-03T16:00:57Z</time></trkpt><trkpt lat="43.66480883163714" lon="18.357294885135335"><ele>904.3333333333334</ele><time>2026-05-03T16:00:58Z</time></trkpt><trkpt lat="43.66498847404735" lon="18.35732727216193"><ele>903.6666666666667</ele><time>2026-05-03T16:00:59Z</time></trkpt><trkpt lat="43.66514101187646" lon="18.357416099380956"><ele>903.0</ele><time>2026-05-03T16:01:00Z</time></trkpt><trkpt lat="43.665277229229396" lon="18.35750053382483"><ele>903.6666666666667</ele><time>2026-05-03T16:01:01Z</time></trkpt><trkpt lat="43.665412014298994" lon="18.357522191629542"><ele>904.3333333333334</ele><time>2026-05-03T16:01:02Z</time></trkpt><trkpt lat="43.66554512843259" lon="18.35744265720095"><ele>905.0</ele><time>2026-05-03T16:01:03Z</time></trkpt><trkpt lat="43.665671857704695" lon="18.357288352243344"><ele>902.3333333333334</ele><time>2026-05-03T16:01:04Z</time></trkpt><trkpt lat="43.665797676289316" lon="18.357134447185704"><ele>899.6666666666667</ele><time>2026-05-03T16:01:05Z</time></trkpt><trkpt lat="43.66595534659625" lon="18.357012970475964"><ele>897.0</ele><time>2026-05-03T16:01:06Z</time></trkpt><trkpt lat="43.66613790862231" lon="18.356957316848693"><ele>897.0</ele><time>2026-05-03T16:01:07Z</time></trkpt><trkpt lat="43.66631256638825" lon="18.356962733121602"><ele>897.0</ele><time>2026-05-03T16:01:08Z</time></trkpt><trkpt lat="43.6664793143026" lon="18.356981756623036"><ele>897.0</ele><time>2026-05-03T16:01:09Z</time></trkpt><trkpt lat="43.666635796077266" lon="18.356963463233175"><ele>897.0</ele><time>2026-05-03T16:01:10Z</time></trkpt><trkpt lat="43.66678632829" lon="18.3568730631629"><ele>897.0</ele><time>2026-05-03T16:01:11Z</time></trkpt><trkpt lat="43.666912810710556" lon="18.356714127252438"><ele>897.0</ele><time>2026-05-03T16:01:12Z</time></trkpt><trkpt lat="43.666999418165645" lon="18.35649524941144"><ele>900.3333333333333</ele><time>2026-05-03T16:01:13Z</time></trkpt><trkpt lat="43.66708963910609" lon="18.356259727628903"><ele>903.6666666666666</ele><time>2026-05-03T16:01:14Z</time></trkpt><trkpt lat="43.667195756732625" lon="18.356025502584146"><ele>907.0</ele><time>2026-05-03T16:01:15Z</time></trkpt><trkpt lat="43.6673242473388" lon="18.355809525523547"><ele>907.0</ele><time>2026-05-03T16:01:16Z</time></trkpt><trkpt lat="43.66745706327259" lon="18.355600982018824"><ele>907.0</ele><time>2026-05-03T16:01:17Z</time></trkpt><trkpt lat="43.66757899581681" lon="18.355385265980207"><ele>907.0</ele><time>2026-05-03T16:01:18Z</time></trkpt><trkpt lat="43.667676382247016" lon="18.355157087238055"><ele>906.0</ele><time>2026-05-03T16:01:19Z</time></trkpt><trkpt lat="43.66774521350735" lon="18.35491178808252"><ele>905.0</ele><time>2026-05-03T16:01:20Z</time></trkpt><trkpt lat="43.667811571551404" lon="18.354660722564944"><ele>904.0</ele><time>2026-05-03T16:01:21Z</time></trkpt><trkpt lat="43.667903745637005" lon="18.354435676994154"><ele>904.0</ele><time>2026-05-03T16:01:22Z</time></trkpt><trkpt lat="43.668004971104274" lon="18.354203934269695"><ele>904.0</ele><time>2026-05-03T16:01:23Z</time></trkpt><trkpt lat="43.66810455278172" lon="18.353964692311433"><ele>904.0</ele><time>2026-05-03T16:01:24Z</time></trkpt><trkpt lat="43.66820463774088" lon="18.35373079220935"><ele>900.0</ele><time>2026-05-03T16:01:25Z</time></trkpt><trkpt lat="43.668322689310294" lon="18.35352346715932"><ele>896.0</ele><time>2026-05-03T16:01:26Z</time></trkpt><trkpt lat="43.66846344645593" lon="18.35333447612485"><ele>892.0</ele><time>2026-05-03T16:01:27Z</time></trkpt><trkpt lat="43.66860460582478" lon="18.353170810444688"><ele>892.0</ele><time>2026-05-03T16:01:28Z</time></trkpt><trkpt lat="43.6687502134288" lon="18.353011195159652"><ele>892.0</ele><time>2026-05-03T16:01:29Z</time></trkpt><trkpt lat="43.66891746554255" lon="18.35287893388694"><ele>892.0</ele><time>2026-05-03T16:01:30Z</time></trkpt><trkpt lat="43.66910354392728" lon="18.352763086043407"><ele>892.0</ele><time>2026-05-03T16:01:31Z</time></trkpt><trkpt lat="43.669286856812754" lon="18.352634463799713"><ele>892.0</ele><time>2026-05-03T16:01:32Z</time></trkpt><trkpt lat="43.669446903960655" lon="18.35245620723921"><ele>892.0</ele><time>2026-05-03T16:01:33Z</time></trkpt><trkpt lat="43.66958723176671" lon="18.352243842299966"><ele>891.0</ele><time>2026-05-03T16:01:34Z</time></trkpt><trkpt lat="43.66971530499097" lon="18.35205332854944"><ele>890.0</ele><time>2026-05-03T16:01:35Z</time></trkpt><trkpt lat="43.669860698941406" lon="18.351899578425375"><ele>889.0</ele><time>2026-05-03T16:01:36Z</time></trkpt><trkpt lat="43.67003435116316" lon="18.35177526193357"><ele>889.0</ele><time>2026-05-03T16:01:37Z</time></trkpt><trkpt lat="43.670224706362305" lon="18.351658186777584"><ele>889.0</ele><time>2026-05-03T16:01:38Z</time></trkpt><trkpt lat="43.67042300894965" lon="18.351527910653683"><ele>889.0</ele><time>2026-05-03T16:01:39Z</time></trkpt><trkpt lat="43.67060985868352" lon="18.35138267683603"><ele>887.3333333333333</ele><time>2026-05-03T16:01:40Z</time></trkpt><trkpt lat="43.67078147473916" lon="18.351237376613373"><ele>885.6666666666667</ele><time>2026-05-03T16:01:41Z</time></trkpt><trkpt lat="43.67094456049714" lon="18.35112570458315"><ele>884.0</ele><time>2026-05-03T16:01:42Z</time></trkpt><trkpt lat="43.67113134051166" lon="18.351055787018904"><ele>884.0</ele><time>2026-05-03T16:01:43Z</time></trkpt><trkpt lat="43.67133396653905" lon="18.351001689561507"><ele>884.0</ele><time>2026-05-03T16:01:44Z</time></trkpt><trkpt lat="43.6715371402381" lon="18.350939744836836"><ele>884.0</ele><time>2026-05-03T16:01:45Z</time></trkpt><trkpt lat="43.67174533719286" lon="18.350879225907132"><ele>884.3333333333334</ele><time>2026-05-03T16:01:46Z</time></trkpt><trkpt lat="43.6719433451507" lon="18.350813184181362"><ele>884.6666666666667</ele><time>2026-05-03T16:01:47Z</time></trkpt><trkpt lat="43.672139885074465" lon="18.350750421010414"><ele>885.0</ele><time>2026-05-03T16:01:48Z</time></trkpt><trkpt lat="43.67232372795469" lon="18.35068430803584"><ele>885.0</ele><time>2026-05-03T16:01:49Z</time></trkpt><trkpt lat="43.672501804314514" lon="18.35059173679898"><ele>885.0</ele><time>2026-05-03T16:01:50Z</time></trkpt><trkpt lat="43.67266805308975" lon="18.350461656725695"><ele>885.0</ele><time>2026-05-03T16:01:51Z</time></trkpt><trkpt lat="43.672822590606174" lon="18.35031331537333"><ele>883.6666666666667</ele><time>2026-05-03T16:01:52Z</time></trkpt><trkpt lat="43.67299573755553" lon="18.350178650818854"><ele>882.3333333333334</ele><time>2026-05-03T16:01:53Z</time></trkpt><trkpt lat="43.67318646582765" lon="18.350087325054663"><ele>881.0</ele><time>2026-05-03T16:01:54Z</time></trkpt><trkpt lat="43.67339118488461" lon="18.35003452308239"><ele>881.0</ele><time>2026-05-03T16:01:55Z</time></trkpt><trkpt lat="43.67359358182516" lon="18.349961219990313"><ele>881.0</ele><time>2026-05-03T16:01:56Z</time></trkpt><trkpt lat="43.67378603288333" lon="18.34984488989234"><ele>881.0</ele><time>2026-05-03T16:01:57Z</time></trkpt><trkpt lat="43.673958500409384" lon="18.349709074144595"><ele>880.0</ele><time>2026-05-03T16:01:58Z</time></trkpt><trkpt lat="43.67413903192668" lon="18.349573849532234"><ele>879.0</ele><time>2026-05-03T16:01:59Z</time></trkpt><trkpt lat="43.674315295957705" lon="18.34946939742369"><ele>878.0</ele><time>2026-05-03T16:02:00Z</time></trkpt><trkpt lat="43.67448030704298" lon="18.349404437165234"><ele>876.0</ele><time>2026-05-03T16:02:01Z</time></trkpt><trkpt lat="43.67464922005075" lon="18.34938445491975"><ele>874.0</ele><time>2026-05-03T16:02:02Z</time></trkpt><trkpt lat="43.67482950897548" lon="18.349377518783825"><ele>872.0</ele><time>2026-05-03T16:02:03Z</time></trkpt><trkpt lat="43.6750065482494" lon="18.34938038931429"><ele>872.0</ele><time>2026-05-03T16:02:04Z</time></trkpt><trkpt lat="43.675184777900526" lon="18.349388814719806"><ele>872.0</ele><time>2026-05-03T16:02:05Z</time></trkpt><trkpt lat="43.67535617698541" lon="18.349409485973812"><ele>872.0</ele><time>2026-05-03T16:02:06Z</time></trkpt><trkpt lat="43.675528772501714" lon="18.349447535109732"><ele>871.6666666666667</ele><time>2026-05-03T16:02:07Z</time></trkpt><trkpt lat="43.67569670238242" lon="18.34952057266543"><ele>871.3333333333333</ele><time>2026-05-03T16:02:08Z</time></trkpt><trkpt lat="43.675856030378625" lon="18.349641967316543"><ele>871.0</ele><time>2026-05-03T16:02:09Z</time></trkpt><trkpt lat="43.67599566396451" lon="18.349786955142072"><ele>871.0</ele><time>2026-05-03T16:02:10Z</time></trkpt><trkpt lat="43.67614143358907" lon="18.349915393993484"><ele>871.0</ele><time>2026-05-03T16:02:11Z</time></trkpt><trkpt lat="43.676290041093445" lon="18.34998871892502"><ele>871.0</ele><time>2026-05-03T16:02:12Z</time></trkpt><trkpt lat="43.67642678197858" lon="18.349988805643733"><ele>871.0</ele><time>2026-05-03T16:02:13Z</time></trkpt><trkpt lat="43.676536820090995" lon="18.349911169440656"><ele>871.0</ele><time>2026-05-03T16:02:14Z</time></trkpt><trkpt lat="43.676626931843174" lon="18.349795616296472"><ele>871.0</ele><time>2026-05-03T16:02:15Z</time></trkpt><trkpt lat="43.67672205405824" lon="18.34970225274236"><ele>871.0</ele><time>2026-05-03T16:02:16Z</time></trkpt><trkpt lat="43.67682641646284" lon="18.34965620510324"><ele>870.75</ele><time>2026-05-03T16:02:17Z</time></trkpt><trkpt lat="43.6769221157199" lon="18.349703840623285"><ele>870.5</ele><time>2026-05-03T16:02:18Z</time></trkpt><trkpt lat="43.67701161518229" lon="18.34980313833604"><ele>870.25</ele><time>2026-05-03T16:02:19Z</time></trkpt><trkpt lat="43.67710236756044" lon="18.34993408344244"><ele>870.0</ele><time>2026-05-03T16:02:20Z</time></trkpt><trkpt lat="43.67721202762404" lon="18.35005664434325"><ele>870.0</ele><time>2026-05-03T16:02:21Z</time></trkpt><trkpt lat="43.67734506494292" lon="18.350152642577967"><ele>870.0</ele><time>2026-05-03T16:02:22Z</time></trkpt><trkpt lat="43.67748411290917" lon="18.350249320072436"><ele>870.0</ele><time>2026-05-03T16:02:23Z</time></trkpt><trkpt lat="43.67762629590632" lon="18.3503655245178"><ele>870.0</ele><time>2026-05-03T16:02:24Z</time></trkpt><trkpt lat="43.67775648193318" lon="18.35050008280543"><ele>870.0</ele><time>2026-05-03T16:02:25Z</time></trkpt><trkpt lat="43.677882863637194" lon="18.350636722276658"><ele>870.0</ele><time>2026-05-03T16:02:26Z</time></trkpt><trkpt lat="43.67801633086586" lon="18.35075688109212"><ele>870.6666666666667</ele><time>2026-05-03T16:02:27Z</time></trkpt><trkpt lat="43.67815545903786" lon="18.350871833172995"><ele>871.3333333333334</ele><time>2026-05-03T16:02:28Z</time></trkpt><trkpt lat="43.6782896967872" lon="18.350994638414928"><ele>872.0</ele><time>2026-05-03T16:02:29Z</time></trkpt><trkpt lat="43.67840175884519" lon="18.351131401475136"><ele>872.0</ele><time>2026-05-03T16:02:30Z</time></trkpt><trkpt lat="43.678496902481754" lon="18.351283229201755"><ele>872.0</ele><time>2026-05-03T16:02:31Z</time></trkpt><trkpt lat="43.67859372750094" lon="18.351431638569707"><ele>872.0</ele><time>2026-05-03T16:02:32Z</time></trkpt><trkpt lat="43.678699827753135" lon="18.351554843741397"><ele>872.0</ele><time>2026-05-03T16:02:33Z</time></trkpt><trkpt lat="43.67881604285858" lon="18.35162360880784"><ele>871.8</ele><time>2026-05-03T16:02:34Z</time></trkpt><trkpt lat="43.67893060472316" lon="18.35164003415959"><ele>871.6</ele><time>2026-05-03T16:02:35Z</time></trkpt><trkpt lat="43.67902543651397" lon="18.351586688604343"><ele>871.3999999999999</ele><time>2026-05-03T16:02:36Z</time></trkpt><trkpt lat="43.679078379999844" lon="18.351483082691352"><ele>871.1999999999999</ele><time>2026-05-03T16:02:37Z</time></trkpt><trkpt lat="43.67908191959064" lon="18.351360874204598"><ele>871.0</ele><time>2026-05-03T16:02:38Z</time></trkpt><trkpt lat="43.67904423904185" lon="18.35124195836903"><ele>872.3333333333333</ele><time>2026-05-03T16:02:39Z</time></trkpt><trkpt lat="43.6789704344862" lon="18.3511489019502"><ele>873.6666666666666</ele><time>2026-05-03T16:02:40Z</time></trkpt><trkpt lat="43.678889462764246" lon="18.351093823305327"><ele>875.0</ele><time>2026-05-03T16:02:41Z</time></trkpt><trkpt lat="43.67881614630925" lon="18.351042353224436"><ele>876.3333333333333</ele><time>2026-05-03T16:02:42Z</time></trkpt><trkpt lat="43.67874905831479" lon="18.35097396360962"><ele>877.6666666666666</ele><time>2026-05-03T16:02:43Z</time></trkpt><trkpt lat="43.678686642504644" lon="18.35088084520152"><ele>879.0</ele><time>2026-05-03T16:02:44Z</time></trkpt><trkpt lat="43.67863545287611" lon="18.350761921057657"><ele>878.6</ele><time>2026-05-03T16:02:45Z</time></trkpt><trkpt lat="43.67859182816967" lon="18.350629410299685"><ele>878.2</ele><time>2026-05-03T16:02:46Z</time></trkpt><trkpt lat="43.678549811088196" lon="18.3504885434443"><ele>877.8000000000001</ele><time>2026-05-03T16:02:47Z</time></trkpt><trkpt lat="43.67851951840215" lon="18.35034586388883"><ele>877.4000000000001</ele><time>2026-05-03T16:02:48Z</time></trkpt><trkpt lat="43.67850190284385" lon="18.350198226989622"><ele>877.0</ele><time>2026-05-03T16:02:49Z</time></trkpt><trkpt lat="43.678499022220294" lon="18.350043130575617"><ele>877.0</ele><time>2026-05-03T16:02:50Z</time></trkpt><trkpt lat="43.678517210749575" lon="18.34988611443049"><ele>877.0</ele><time>2026-05-03T16:02:51Z</time></trkpt><trkpt lat="43.678563927856345" lon="18.349733871925572"><ele>877.0</ele><time>2026-05-03T16:02:52Z</time></trkpt><trkpt lat="43.67862362575628" lon="18.349583078433955"><ele>877.0</ele><time>2026-05-03T16:02:53Z</time></trkpt><trkpt lat="43.67870187112807" lon="18.349444775751895"><ele>881.25</ele><time>2026-05-03T16:02:54Z</time></trkpt><trkpt lat="43.67879006449918" lon="18.34932032128616"><ele>885.5</ele><time>2026-05-03T16:02:55Z</time></trkpt><trkpt lat="43.67889113466164" lon="18.34920806101986"><ele>889.75</ele><time>2026-05-03T16:02:56Z</time></trkpt><trkpt lat="43.678988896450925" lon="18.349098614033217"><ele>894.0</ele><time>2026-05-03T16:02:57Z</time></trkpt><trkpt lat="43.679092143786654" lon="18.348984972985953"><ele>895.5</ele><time>2026-05-03T16:02:58Z</time></trkpt><trkpt lat="43.679192102205334" lon="18.348872455953092"><ele>897.0</ele><time>2026-05-03T16:02:59Z</time></trkpt><trkpt lat="43.67929362748708" lon="18.348758703339453"><ele>898.5</ele><time>2026-05-03T16:03:00Z</time></trkpt><trkpt lat="43.67940184402019" lon="18.348636081272044"><ele>900.0</ele><time>2026-05-03T16:03:01Z</time></trkpt><trkpt lat="43.67951038963525" lon="18.348500890489653"><ele>900.0</ele><time>2026-05-03T16:03:02Z</time></trkpt><trkpt lat="43.6796035531537" lon="18.348355694550175"><ele>900.0</ele><time>2026-05-03T16:03:03Z</time></trkpt><trkpt lat="43.679667055382225" lon="18.348179097917882"><ele>900.0</ele><time>2026-05-03T16:03:04Z</time></trkpt><trkpt lat="43.679739573488305" lon="18.347964065420697"><ele>899.3333333333333</ele><time>2026-05-03T16:03:05Z</time></trkpt><trkpt lat="43.679831955120484" lon="18.34773228479713"><ele>898.6666666666666</ele><time>2026-05-03T16:03:06Z</time></trkpt><trkpt lat="43.67992526082314" lon="18.347494617704836"><ele>898.0</ele><time>2026-05-03T16:03:07Z</time></trkpt><trkpt lat="43.68000125652132" lon="18.347264842896145"><ele>897.6666666666666</ele><time>2026-05-03T16:03:08Z</time></trkpt><trkpt lat="43.680064754030205" lon="18.346996719324302"><ele>897.3333333333333</ele><time>2026-05-03T16:03:09Z</time></trkpt><trkpt lat="43.68013040435147" lon="18.346696790506698"><ele>897.0</ele><time>2026-05-03T16:03:10Z</time></trkpt><trkpt lat="43.68021491432596" lon="18.346392928046942"><ele>904.5</ele><time>2026-05-03T16:03:11Z</time></trkpt><trkpt lat="43.68031808109237" lon="18.346080030373145"><ele>912.0</ele><time>2026-05-03T16:03:12Z</time></trkpt><trkpt lat="43.6804352101862" lon="18.34573751976668"><ele>911.0</ele><time>2026-05-03T16:03:13Z</time></trkpt><trkpt lat="43.680544643428235" lon="18.34541429504328"><ele>910.0</ele><time>2026-05-03T16:03:14Z</time></trkpt><trkpt lat="43.68064381512163" lon="18.345104019641873"><ele>910.0</ele><time>2026-05-03T16:03:15Z</time></trkpt><trkpt lat="43.68074239897357" lon="18.344821923842844"><ele>910.0</ele><time>2026-05-03T16:03:16Z</time></trkpt><trkpt lat="43.68085758434672" lon="18.34456139035733"><ele>910.0</ele><time>2026-05-03T16:03:17Z</time></trkpt><trkpt lat="43.681002927489864" lon="18.344318998189568"><ele>914.5</ele><time>2026-05-03T16:03:18Z</time></trkpt><trkpt lat="43.68117578767825" lon="18.34409899572441"><ele>919.0</ele><time>2026-05-03T16:03:19Z</time></trkpt><trkpt lat="43.68133064723859" lon="18.34387451555415"><ele>919.0</ele><time>2026-05-03T16:03:20Z</time></trkpt><trkpt lat="43.68143227407476" lon="18.34358883581853"><ele>919.0</ele><time>2026-05-03T16:03:21Z</time></trkpt><trkpt lat="43.681504835605345" lon="18.343295548082843"><ele>919.0</ele><time>2026-05-03T16:03:22Z</time></trkpt><trkpt lat="43.68161714843372" lon="18.343062574284442"><ele>919.0</ele><time>2026-05-03T16:03:23Z</time></trkpt><trkpt lat="43.68176613982188" lon="18.342873913367587"><ele>919.0</ele><time>2026-05-03T16:03:24Z</time></trkpt><trkpt lat="43.681952525071644" lon="18.34272281858176"><ele>924.5</ele><time>2026-05-03T16:03:25Z</time></trkpt><trkpt lat="43.682152792867896" lon="18.3425755249501"><ele>930.0</ele><time>2026-05-03T16:03:26Z</time></trkpt><trkpt lat="43.68234181743251" lon="18.34240367672052"><ele>930.6666666666667</ele><time>2026-05-03T16:03:27Z</time></trkpt><trkpt lat="43.68249988773267" lon="18.342180808884166"><ele>931.3333333333334</ele><time>2026-05-03T16:03:28Z</time></trkpt><trkpt lat="43.6826276272188" lon="18.341948476854487"><ele>932.0</ele><time>2026-05-03T16:03:29Z</time></trkpt><trkpt lat="43.68277182155367" lon="18.341744481203936"><ele>932.0</ele><time>2026-05-03T16:03:30Z</time></trkpt><trkpt lat="43.682948638992876" lon="18.341585103590926"><ele>932.0</ele><time>2026-05-03T16:03:31Z</time></trkpt><trkpt lat="43.683140033366094" lon="18.341450182354645"><ele>932.0</ele><time>2026-05-03T16:03:32Z</time></trkpt><trkpt lat="43.68333893421637" lon="18.34135681770603"><ele>929.6666666666667</ele><time>2026-05-03T16:03:33Z</time></trkpt><trkpt lat="43.68354042965469" lon="18.34131207516351"><ele>927.3333333333333</ele><time>2026-05-03T16:03:34Z</time></trkpt><trkpt lat="43.683762246176975" lon="18.34129828741648"><ele>925.0</ele><time>2026-05-03T16:03:35Z</time></trkpt><trkpt lat="43.68399023918479" lon="18.341304812617434"><ele>925.0</ele><time>2026-05-03T16:03:36Z</time></trkpt><trkpt lat="43.68420258399919" lon="18.341280340146096"><ele>925.0</ele><time>2026-05-03T16:03:37Z</time></trkpt><trkpt lat="43.68440540294367" lon="18.341220473493767"><ele>925.0</ele><time>2026-05-03T16:03:38Z</time></trkpt><trkpt lat="43.68458250185479" lon="18.34110507455773"><ele>928.3333333333333</ele><time>2026-05-03T16:03:39Z</time></trkpt><trkpt lat="43.68473660331513" lon="18.340951378683414"><ele>931.6666666666667</ele><time>2026-05-03T16:03:40Z</time></trkpt><trkpt lat="43.68485714842232" lon="18.34073629367822"><ele>935.0</ele><time>2026-05-03T16:03:41Z</time></trkpt><trkpt lat="43.68496186519836" lon="18.34050385373473"><ele>935.0</ele><time>2026-05-03T16:03:42Z</time></trkpt><trkpt lat="43.685065899731725" lon="18.340291545586307"><ele>935.0</ele><time>2026-05-03T16:03:43Z</time></trkpt><trkpt lat="43.68517196916107" lon="18.34009030066594"><ele>935.0</ele><time>2026-05-03T16:03:44Z</time></trkpt><trkpt lat="43.68526981498508" lon="18.339895991660836"><ele>938.0</ele><time>2026-05-03T16:03:45Z</time></trkpt><trkpt lat="43.68535790566503" lon="18.339687617815283"><ele>941.0</ele><time>2026-05-03T16:03:46Z</time></trkpt><trkpt lat="43.68543824038275" lon="18.33946538630547"><ele>944.0</ele><time>2026-05-03T16:03:47Z</time></trkpt><trkpt lat="43.685516206179585" lon="18.339239851160464"><ele>944.0</ele><time>2026-05-03T16:03:48Z</time></trkpt><trkpt lat="43.685593916927324" lon="18.339014894340348"><ele>944.0</ele><time>2026-05-03T16:03:49Z</time></trkpt><trkpt lat="43.685665510427114" lon="18.338782432670165"><ele>944.0</ele><time>2026-05-03T16:03:50Z</time></trkpt><trkpt lat="43.685734914926336" lon="18.338546292080743"><ele>943.6666666666667</ele><time>2026-05-03T16:03:51Z</time></trkpt><trkpt lat="43.68581114125475" lon="18.338312182737656"><ele>943.3333333333333</ele><time>2026-05-03T16:03:52Z</time></trkpt><trkpt lat="43.68590160652806" lon="18.33808131018466"><ele>943.0</ele><time>2026-05-03T16:03:53Z</time></trkpt><trkpt lat="43.686001937129674" lon="18.337879750028307"><ele>945.0</ele><time>2026-05-03T16:03:54Z</time></trkpt><trkpt lat="43.686117718951685" lon="18.337702201327456"><ele>947.0</ele><time>2026-05-03T16:03:55Z</time></trkpt><trkpt lat="43.68625995833669" lon="18.337547354180135"><ele>949.0</ele><time>2026-05-03T16:03:56Z</time></trkpt><trkpt lat="43.68642422479153" lon="18.337439401646307"><ele>949.0</ele><time>2026-05-03T16:03:57Z</time></trkpt><trkpt lat="43.686604047516056" lon="18.337393538003003"><ele>949.0</ele><time>2026-05-03T16:03:58Z</time></trkpt><trkpt lat="43.68677356209599" lon="18.33742038143111"><ele>949.0</ele><time>2026-05-03T16:03:59Z</time></trkpt><trkpt lat="43.68693390988916" lon="18.33751154177816"><ele>951.6666666666666</ele><time>2026-05-03T16:04:00Z</time></trkpt><trkpt lat="43.68708768160986" lon="18.337649564727432"><ele>954.3333333333333</ele><time>2026-05-03T16:04:01Z</time></trkpt><trkpt lat="43.68723765404205" lon="18.33779583489817"><ele>957.0</ele><time>2026-05-03T16:04:02Z</time></trkpt><trkpt lat="43.68739921802008" lon="18.3379238157596"><ele>957.0</ele><time>2026-05-03T16:04:03Z</time></trkpt><trkpt lat="43.687566749332426" lon="18.33803921161663"><ele>957.0</ele><time>2026-05-03T16:04:04Z</time></trkpt><trkpt lat="43.68773254122544" lon="18.338151148447153"><ele>957.0</ele><time>2026-05-03T16:04:05Z</time></trkpt><trkpt lat="43.68789457985621" lon="18.33823089809774"><ele>957.0</ele><time>2026-05-03T16:04:06Z</time></trkpt><trkpt lat="43.68805474624089" lon="18.338259328402884"><ele>957.0</ele><time>2026-05-03T16:04:07Z</time></trkpt><trkpt lat="43.68821846017307" lon="18.338254124078798"><ele>957.0</ele><time>2026-05-03T16:04:08Z</time></trkpt><trkpt lat="43.68838623541545" lon="18.338221536302818"><ele>957.0</ele><time>2026-05-03T16:04:09Z</time></trkpt><trkpt lat="43.688548137014806" lon="18.338188753523664"><ele>957.0</ele><time>2026-05-03T16:04:10Z</time></trkpt><trkpt lat="43.68870239758262" lon="18.338197557723834"><ele>957.0</ele><time>2026-05-03T16:04:11Z</time></trkpt><trkpt lat="43.68884650773583" lon="18.33828420898562"><ele>959.75</ele><time>2026-05-03T16:04:12Z</time></trkpt><trkpt lat="43.688974297912615" lon="18.33840730272307"><ele>962.5</ele><time>2026-05-03T16:04:13Z</time></trkpt><trkpt lat="43.68908507791834" lon="18.33852076866295"><ele>965.25</ele><time>2026-05-03T16:04:14Z</time></trkpt><trkpt lat="43.68920066175895" lon="18.338594513165866"><ele>968.0</ele><time>2026-05-03T16:04:15Z</time></trkpt><trkpt lat="43.68931797956255" lon="18.3386326566194"><ele>968.5</ele><time>2026-05-03T16:04:16Z</time></trkpt><trkpt lat="43.689431600154286" lon="18.338649983478383"><ele>969.0</ele><time>2026-05-03T16:04:17Z</time></trkpt><trkpt lat="43.68954874407982" lon="18.33864397644468"><ele>969.5</ele><time>2026-05-03T16:04:18Z</time></trkpt><trkpt lat="43.68967283516545" lon="18.338587013106068"><ele>970.0</ele><time>2026-05-03T16:04:19Z</time></trkpt><trkpt lat="43.68978321010718" lon="18.338498140702026"><ele>970.0</ele><time>2026-05-03T16:04:20Z</time></trkpt><trkpt lat="43.689902192240595" lon="18.338396785133394"><ele>970.0</ele><time>2026-05-03T16:04:21Z</time></trkpt><trkpt lat="43.69002562177623" lon="18.338294859733395"><ele>970.0</ele><time>2026-05-03T16:04:22Z</time></trkpt><trkpt lat="43.69014546788471" lon="18.33818964279485"><ele>970.0</ele><time>2026-05-03T16:04:23Z</time></trkpt><trkpt lat="43.690270074205635" lon="18.338086483034314"><ele>973.6666666666666</ele><time>2026-05-03T16:04:24Z</time></trkpt><trkpt lat="43.69039759889834" lon="18.337981286647892"><ele>977.3333333333333</ele><time>2026-05-03T16:04:25Z</time></trkpt><trkpt lat="43.69053028803245" lon="18.337881045725233"><ele>981.0</ele><time>2026-05-03T16:04:26Z</time></trkpt><trkpt lat="43.69066377368805" lon="18.33776599115125"><ele>981.0</ele><time>2026-05-03T16:04:27Z</time></trkpt><trkpt lat="43.69078891871781" lon="18.33762932777435"><ele>981.0</ele><time>2026-05-03T16:04:28Z</time></trkpt><trkpt lat="43.690895951945784" lon="18.337470084557566"><ele>981.0</ele><time>2026-05-03T16:04:29Z</time></trkpt><trkpt lat="43.690992361921076" lon="18.337295146637114"><ele>983.0</ele><time>2026-05-03T16:04:30Z</time></trkpt><trkpt lat="43.69109380808868" lon="18.33711983529501"><ele>985.0</ele><time>2026-05-03T16:04:31Z</time></trkpt><trkpt lat="43.69119682235127" lon="18.33695810800187"><ele>987.0</ele><time>2026-05-03T16:04:32Z</time></trkpt><trkpt lat="43.69130778732906" lon="18.336802604712275"><ele>987.0</ele><time>2026-05-03T16:04:33Z</time></trkpt><trkpt lat="43.69143405071854" lon="18.336683978101068"><ele>987.0</ele><time>2026-05-03T16:04:34Z</time></trkpt><trkpt lat="43.69158662671733" lon="18.336594838070273"><ele>987.0</ele><time>2026-05-03T16:04:35Z</time></trkpt><trkpt lat="43.691735349209864" lon="18.336504696256092"><ele>986.3333333333333</ele><time>2026-05-03T16:04:36Z</time></trkpt><trkpt lat="43.691864206245135" lon="18.336376950698643"><ele>985.6666666666666</ele><time>2026-05-03T16:04:37Z</time></trkpt><trkpt lat="43.69198284945739" lon="18.336228871569023"><ele>985.0</ele><time>2026-05-03T16:04:38Z</time></trkpt><trkpt lat="43.692105743246636" lon="18.33609835236868"><ele>985.0</ele><time>2026-05-03T16:04:39Z</time></trkpt><trkpt lat="43.692221200970884" lon="18.33598066036533"><ele>985.0</ele><time>2026-05-03T16:04:40Z</time></trkpt><trkpt lat="43.692304901503434" lon="18.335863520752323"><ele>985.0</ele><time>2026-05-03T16:04:41Z</time></trkpt><trkpt lat="43.69235349811309" lon="18.335723931810097"><ele>985.0</ele><time>2026-05-03T16:04:42Z</time></trkpt><trkpt lat="43.69235260405897" lon="18.335565790529937"><ele>988.0</ele><time>2026-05-03T16:04:43Z</time></trkpt><trkpt lat="43.69232520796858" lon="18.335402473852977"><ele>991.0</ele><time>2026-05-03T16:04:44Z</time></trkpt><trkpt lat="43.69228204951891" lon="18.335248136337192"><ele>994.0</ele><time>2026-05-03T16:04:45Z</time></trkpt><trkpt lat="43.69230561634059" lon="18.335100646167867"><ele>997.0</ele><time>2026-05-03T16:04:46Z</time></trkpt><trkpt lat="43.69237394364971" lon="18.334951671207893"><ele>997.0</ele><time>2026-05-03T16:04:47Z</time></trkpt><trkpt lat="43.692470247394354" lon="18.334793684762197"><ele>997.0</ele><time>2026-05-03T16:04:48Z</time></trkpt><trkpt lat="43.69257934304531" lon="18.33462248146597"><ele>997.0</ele><time>2026-05-03T16:04:49Z</time></trkpt><trkpt lat="43.69268818633302" lon="18.334436622535275"><ele>996.5</ele><time>2026-05-03T16:04:50Z</time></trkpt><trkpt lat="43.69278164877287" lon="18.334273049361634"><ele>996.0</ele><time>2026-05-03T16:04:51Z</time></trkpt><trkpt lat="43.692859979996314" lon="18.33411908976819"><ele>995.5</ele><time>2026-05-03T16:04:52Z</time></trkpt><trkpt lat="43.692871227313574" lon="18.33397468128319"><ele>995.0</ele><time>2026-05-03T16:04:53Z</time></trkpt><trkpt lat="43.69285225747618" lon="18.333826322597663"><ele>998.6</ele><time>2026-05-03T16:04:54Z</time></trkpt><trkpt lat="43.692803154472415" lon="18.333677526094714"><ele>1002.2</ele><time>2026-05-03T16:04:55Z</time></trkpt><trkpt lat="43.69277035078247" lon="18.333547411740263"><ele>1005.8</ele><time>2026-05-03T16:04:56Z</time></trkpt><trkpt lat="43.692765791008505" lon="18.33343582488868"><ele>1009.4</ele><time>2026-05-03T16:04:57Z</time></trkpt><trkpt lat="43.69279816857502" lon="18.33333201754354"><ele>1013.0</ele><time>2026-05-03T16:04:58Z</time></trkpt><trkpt lat="43.692864901038675" lon="18.333260094514355"><ele>1013.0</ele><time>2026-05-03T16:04:59Z</time></trkpt><trkpt lat="43.6929505583924" lon="18.33322448415972"><ele>1013.0</ele><time>2026-05-03T16:05:00Z</time></trkpt><trkpt lat="43.69304799449788" lon="18.333218525845403"><ele>1013.0</ele><time>2026-05-03T16:05:01Z</time></trkpt><trkpt lat="43.69315649873785" lon="18.333237878226562"><ele>1013.0</ele><time>2026-05-03T16:05:02Z</time></trkpt><trkpt lat="43.69325876495999" lon="18.33329650041472"><ele>1013.0</ele><time>2026-05-03T16:05:03Z</time></trkpt><trkpt lat="43.69334342941156" lon="18.333371549653638"><ele>1013.0</ele><time>2026-05-03T16:05:04Z</time></trkpt><trkpt lat="43.69343045099749" lon="18.33345814419309"><ele>1013.0</ele><time>2026-05-03T16:05:05Z</time></trkpt><trkpt lat="43.69351704573428" lon="18.333547808422214"><ele>1013.0</ele><time>2026-05-03T16:05:06Z</time></trkpt><trkpt lat="43.69360956948723" lon="18.333620542119586"><ele>1013.0</ele><time>2026-05-03T16:05:07Z</time></trkpt><trkpt lat="43.69370295289792" lon="18.333658944053873"><ele>1013.0</ele><time>2026-05-03T16:05:08Z</time></trkpt><trkpt lat="43.69379943067874" lon="18.333654879428934"><ele>1015.0</ele><time>2026-05-03T16:05:09Z</time></trkpt><trkpt lat="43.69388710631471" lon="18.33361032001984"><ele>1017.0</ele><time>2026-05-03T16:05:10Z</time></trkpt><trkpt lat="43.69395705615603" lon="18.333525347976302"><ele>1019.0</ele><time>2026-05-03T16:05:11Z</time></trkpt><trkpt lat="43.69403573603165" lon="18.33343485350804"><ele>1021.0</ele><time>2026-05-03T16:05:12Z</time></trkpt><trkpt lat="43.69412670542496" lon="18.3333725615971"><ele>1023.0</ele><time>2026-05-03T16:05:13Z</time></trkpt><trkpt lat="43.694225510847204" lon="18.33336009952695"><ele>1023.0</ele><time>2026-05-03T16:05:14Z</time></trkpt><trkpt lat="43.694329114363065" lon="18.33338502422449"><ele>1023.0</ele><time>2026-05-03T16:05:15Z</time></trkpt><trkpt lat="43.694429424637" lon="18.33344782813629"><ele>1023.0</ele><time>2026-05-03T16:05:16Z</time></trkpt><trkpt lat="43.69450776949704" lon="18.333561153274285"><ele>1023.0</ele><time>2026-05-03T16:05:17Z</time></trkpt><trkpt lat="43.69455431076435" lon="18.3337030776815"><ele>1023.0</ele><time>2026-05-03T16:05:18Z</time></trkpt><trkpt lat="43.69460040339881" lon="18.333828636685993"><ele>1021.8333333333334</ele><time>2026-05-03T16:05:19Z</time></trkpt><trkpt lat="43.69464690227297" lon="18.33393147251098"><ele>1020.6666666666667</ele><time>2026-05-03T16:05:20Z</time></trkpt><trkpt lat="43.69470404716776" lon="18.33400957967003"><ele>1019.5</ele><time>2026-05-03T16:05:21Z</time></trkpt><trkpt lat="43.694779309428164" lon="18.334054283371767"><ele>1018.3333333333334</ele><time>2026-05-03T16:05:22Z</time></trkpt><trkpt lat="43.694868363601636" lon="18.33403549117337"><ele>1017.1666666666667</ele><time>2026-05-03T16:05:23Z</time></trkpt><trkpt lat="43.6949463710886" lon="18.333971982398285"><ele>1016.0</ele><time>2026-05-03T16:05:24Z</time></trkpt><trkpt lat="43.695012279345576" lon="18.333873241941568"><ele>1020.1999999999999</ele><time>2026-05-03T16:05:25Z</time></trkpt><trkpt lat="43.69506690490662" lon="18.33376465771842"><ele>1024.3999999999999</ele><time>2026-05-03T16:05:26Z</time></trkpt><trkpt lat="43.69512498915206" lon="18.333653973699633"><ele>1028.6</ele><time>2026-05-03T16:05:27Z</time></trkpt><trkpt lat="43.6951907007867" lon="18.333549378359496"><ele>1032.8</ele><time>2026-05-03T16:05:28Z</time></trkpt><trkpt lat="43.695258278584305" lon="18.333466369813824"><ele>1037.0</ele><time>2026-05-03T16:05:29Z</time></trkpt><trkpt lat="43.695338799676264" lon="18.33340798938686"><ele>1037.4</ele><time>2026-05-03T16:05:30Z</time></trkpt><trkpt lat="43.695432298203094" lon="18.333399820914185"><ele>1037.8000000000002</ele><time>2026-05-03T16:05:31Z</time></trkpt><trkpt lat="43.6955267951527" lon="18.333401954645744"><ele>1038.2</ele><time>2026-05-03T16:05:32Z</time></trkpt><trkpt lat="43.695623070971415" lon="18.33343758258168"><ele>1038.6000000000001</ele><time>2026-05-03T16:05:33Z</time></trkpt><trkpt lat="43.69569890616008" lon="18.333507827697336"><ele>1039.0</ele><time>2026-05-03T16:05:34Z</time></trkpt><trkpt lat="43.69574634598828" lon="18.33361477289371"><ele>1039.0</ele><time>2026-05-03T16:05:35Z</time></trkpt><trkpt lat="43.695761160372804" lon="18.333748521894172"><ele>1039.0</ele><time>2026-05-03T16:05:36Z</time></trkpt><trkpt lat="43.69575175908131" lon="18.33387898934655"><ele>1039.0</ele><time>2026-05-03T16:05:37Z</time></trkpt><trkpt lat="43.69574108089788" lon="18.33401261656089"><ele>1039.0</ele><time>2026-05-03T16:05:38Z</time></trkpt><trkpt lat="43.69575363431061" lon="18.33414121918137"><ele>1039.0</ele><time>2026-05-03T16:05:39Z</time></trkpt><trkpt lat="43.69579268637821" lon="18.334268328676767"><ele>1040.0</ele><time>2026-05-03T16:05:40Z</time></trkpt><trkpt lat="43.69586498495633" lon="18.3343807934133"><ele>1041.0</ele><time>2026-05-03T16:05:41Z</time></trkpt><trkpt lat="43.69595058498337" lon="18.334484107227535"><ele>1042.0</ele><time>2026-05-03T16:05:42Z</time></trkpt><trkpt lat="43.696052253113756" lon="18.334569026181786"><ele>1043.0</ele><time>2026-05-03T16:05:43Z</time></trkpt><trkpt lat="43.69616474778216" lon="18.334629871507587"><ele>1043.0</ele><time>2026-05-03T16:05:44Z</time></trkpt><trkpt lat="43.69628108324731" lon="18.33465732334886"><ele>1043.0</ele><time>2026-05-03T16:05:45Z</time></trkpt><trkpt lat="43.69640654275107" lon="18.334662398313412"><ele>1043.0</ele><time>2026-05-03T16:05:46Z</time></trkpt><trkpt lat="43.696575059322804" lon="18.334643607162548"><ele>1043.0</ele><time>2026-05-03T16:05:47Z</time></trkpt><trkpt lat="43.69678696708366" lon="18.33460752603279"><ele>1044.0</ele><time>2026-05-03T16:05:48Z</time></trkpt><trkpt lat="43.697005528070164" lon="18.334546731404266"><ele>1045.0</ele><time>2026-05-03T16:05:49Z</time></trkpt><trkpt lat="43.69720663263715" lon="18.334492656067535"><ele>1046.0</ele><time>2026-05-03T16:05:50Z</time></trkpt><trkpt lat="43.69739713545882" lon="18.334492862532752"><ele>1046.0</ele><time>2026-05-03T16:05:51Z</time></trkpt><trkpt lat="43.69755867779865" lon="18.33456070812741"><ele>1046.0</ele><time>2026-05-03T16:05:52Z</time></trkpt><trkpt lat="43.69769460490673" lon="18.334677896663127"><ele>1046.0</ele><time>2026-05-03T16:05:53Z</time></trkpt><trkpt lat="43.697811452757485" lon="18.33484106233163"><ele>1043.6666666666667</ele><time>2026-05-03T16:05:54Z</time></trkpt><trkpt lat="43.6979203268936" lon="18.335045071923247"><ele>1041.3333333333333</ele><time>2026-05-03T16:05:55Z</time></trkpt><trkpt lat="43.698031505386716" lon="18.33528901156396"><ele>1039.0</ele><time>2026-05-03T16:05:56Z</time></trkpt><trkpt lat="43.698151118431454" lon="18.335546873756577"><ele>1036.5</ele><time>2026-05-03T16:05:57Z</time></trkpt><trkpt lat="43.69827876028097" lon="18.33580994713124"><ele>1034.0</ele><time>2026-05-03T16:05:58Z</time></trkpt><trkpt lat="43.698404307074775" lon="18.336069045062214"><ele>1034.0</ele><time>2026-05-03T16:05:59Z</time></trkpt><trkpt lat="43.69852603122883" lon="18.33631791207278"><ele>1034.0</ele><time>2026-05-03T16:06:00Z</time></trkpt><trkpt lat="43.698645457082236" lon="18.336540714006222"><ele>1034.0</ele><time>2026-05-03T16:06:01Z</time></trkpt><trkpt lat="43.69876113830725" lon="18.336734612942692"><ele>1035.0</ele><time>2026-05-03T16:06:02Z</time></trkpt><trkpt lat="43.698875166726076" lon="18.336895241092968"><ele>1036.0</ele><time>2026-05-03T16:06:03Z</time></trkpt><trkpt lat="43.698991172406814" lon="18.337014273398783"><ele>1037.0</ele><time>2026-05-03T16:06:04Z</time></trkpt><trkpt lat="43.69910570443411" lon="18.337080414696853"><ele>1038.0</ele><time>2026-05-03T16:06:05Z</time></trkpt><trkpt lat="43.69922727745057" lon="18.33708434847365"><ele>1038.0</ele><time>2026-05-03T16:06:06Z</time></trkpt><trkpt lat="43.699331839022356" lon="18.337041751079568"><ele>1038.0</ele><time>2026-05-03T16:06:07Z</time></trkpt><trkpt lat="43.69941719196524" lon="18.336990449013076"><ele>1038.0</ele><time>2026-05-03T16:06:08Z</time></trkpt><trkpt lat="43.699480743924" lon="18.33692471877821"><ele>1038.0</ele><time>2026-05-03T16:06:09Z</time></trkpt><trkpt lat="43.69953783208392" lon="18.336852928258736"><ele>1038.0</ele><time>2026-05-03T16:06:10Z</time></trkpt><trkpt lat="43.69958424918131" lon="18.33676220715795"><ele>1038.0</ele><time>2026-05-03T16:06:11Z</time></trkpt><trkpt lat="43.699615595453196" lon="18.33665459410094"><ele>1035.6</ele><time>2026-05-03T16:06:12Z</time></trkpt><trkpt lat="43.69962920731732" lon="18.336538818476885"><ele>1033.1999999999998</ele><time>2026-05-03T16:06:13Z</time></trkpt><trkpt lat="43.69963733841303" lon="18.336413389678373"><ele>1030.8</ele><time>2026-05-03T16:06:14Z</time></trkpt><trkpt lat="43.699632485644706" lon="18.336276125978284"><ele>1028.3999999999999</ele><time>2026-05-03T16:06:15Z</time></trkpt><trkpt lat="43.699617213507835" lon="18.33614503911327"><ele>1026.0</ele><time>2026-05-03T16:06:16Z</time></trkpt><trkpt lat="43.69957152967037" lon="18.336007367077134"><ele>1027.3333333333333</ele><time>2026-05-03T16:06:17Z</time></trkpt><trkpt lat="43.69947443153948" lon="18.335848537849692"><ele>1028.6666666666665</ele><time>2026-05-03T16:06:18Z</time></trkpt><trkpt lat="43.699359216473674" lon="18.335657096095783"><ele>1030.0</ele><time>2026-05-03T16:06:19Z</time></trkpt><trkpt lat="43.69923004781414" lon="18.335418056846585"><ele>1030.0</ele><time>2026-05-03T16:06:20Z</time></trkpt><trkpt lat="43.699114517897826" lon="18.335140821939184"><ele>1030.0</ele><time>2026-05-03T16:06:21Z</time></trkpt><trkpt lat="43.699020639513286" lon="18.334848493567385"><ele>1028.6666666666665</ele><time>2026-05-03T16:06:22Z</time></trkpt><trkpt lat="43.69892498304203" lon="18.334561188146743"><ele>1027.3333333333333</ele><time>2026-05-03T16:06:23Z</time></trkpt><trkpt lat="43.69884000520699" lon="18.334312254151754"><ele>1026.0</ele><time>2026-05-03T16:06:24Z</time></trkpt><trkpt lat="43.69877608445181" lon="18.334042238583095"><ele>1025.0</ele><time>2026-05-03T16:06:25Z</time></trkpt><trkpt lat="43.69873485787633" lon="18.33375111847248"><ele>1024.0</ele><time>2026-05-03T16:06:26Z</time></trkpt><trkpt lat="43.69872264545608" lon="18.33346290222814"><ele>1023.0</ele><time>2026-05-03T16:06:27Z</time></trkpt><trkpt lat="43.69872634039069" lon="18.33318263310949"><ele>1022.3333333333333</ele><time>2026-05-03T16:06:28Z</time></trkpt><trkpt lat="43.69875435445401" lon="18.332910072590565"><ele>1021.6666666666666</ele><time>2026-05-03T16:06:29Z</time></trkpt><trkpt lat="43.69881331640144" lon="18.33261124208924"><ele>1021.0</ele><time>2026-05-03T16:06:30Z</time></trkpt><trkpt lat="43.6988935588382" lon="18.33231887563054"><ele>1020.0</ele><time>2026-05-03T16:06:31Z</time></trkpt><trkpt lat="43.69899829440836" lon="18.332025999175194"><ele>1019.0</ele><time>2026-05-03T16:06:32Z</time></trkpt><trkpt lat="43.69913848487429" lon="18.331735833709757"><ele>1019.0</ele><time>2026-05-03T16:06:33Z</time></trkpt><trkpt lat="43.69930454091589" lon="18.331466477013887"><ele>1019.0</ele><time>2026-05-03T16:06:34Z</time></trkpt><trkpt lat="43.699487475446" lon="18.33121818384316"><ele>1014.5</ele><time>2026-05-03T16:06:35Z</time></trkpt><trkpt lat="43.69967469695576" lon="18.330977882266975"><ele>1010.0</ele><time>2026-05-03T16:06:36Z</time></trkpt><trkpt lat="43.69986457024059" lon="18.330744135739668"><ele>1010.5</ele><time>2026-05-03T16:06:37Z</time></trkpt><trkpt lat="43.70005468702237" lon="18.33052053763696"><ele>1011.0</ele><time>2026-05-03T16:06:38Z</time></trkpt><trkpt lat="43.70025782827701" lon="18.330319260571454"><ele>1007.0</ele><time>2026-05-03T16:06:39Z</time></trkpt><trkpt lat="43.700477229871126" lon="18.330150746828057"><ele>1003.0</ele><time>2026-05-03T16:06:40Z</time></trkpt><trkpt lat="43.70071408837669" lon="18.330011308228976"><ele>1003.0</ele><time>2026-05-03T16:06:41Z</time></trkpt><trkpt lat="43.70096164664817" lon="18.329894346937795"><ele>1003.0</ele><time>2026-05-03T16:06:42Z</time></trkpt><trkpt lat="43.70121139711101" lon="18.329815123511434"><ele>1004.5</ele><time>2026-05-03T16:06:43Z</time></trkpt><trkpt lat="43.70144842030426" lon="18.329769341847776"><ele>1006.0</ele><time>2026-05-03T16:06:44Z</time></trkpt><trkpt lat="43.70167643769497" lon="18.329757364675462"><ele>1006.0</ele><time>2026-05-03T16:06:45Z</time></trkpt><trkpt lat="43.70189245252914" lon="18.329769464056255"><ele>1006.0</ele><time>2026-05-03T16:06:46Z</time></trkpt><trkpt lat="43.702104623047425" lon="18.32979580476863"><ele>1006.0</ele><time>2026-05-03T16:06:47Z</time></trkpt><trkpt lat="43.70232990490165" lon="18.32984656597916"><ele>1006.0</ele><time>2026-05-03T16:06:48Z</time></trkpt><trkpt lat="43.70257112626408" lon="18.329902095624345"><ele>1006.0</ele><time>2026-05-03T16:06:49Z</time></trkpt><trkpt lat="43.70280442075044" lon="18.329958653656497"><ele>1006.0</ele><time>2026-05-03T16:06:50Z</time></trkpt><trkpt lat="43.70303583164012" lon="18.330007439905007"><ele>1006.0</ele><time>2026-05-03T16:06:51Z</time></trkpt><trkpt lat="43.703267316148725" lon="18.330049822430688"><ele>1006.0</ele><time>2026-05-03T16:06:52Z</time></trkpt><trkpt lat="43.70350018006085" lon="18.33007685720249"><ele>1006.0</ele><time>2026-05-03T16:06:53Z</time></trkpt><trkpt lat="43.703721050250955" lon="18.330090569714134"><ele>1003.5</ele><time>2026-05-03T16:06:54Z</time></trkpt><trkpt lat="43.70394809610432" lon="18.330092265713898"><ele>1001.0</ele><time>2026-05-03T16:06:55Z</time></trkpt><trkpt lat="43.704219121490965" lon="18.330081540643477"><ele>999.0</ele><time>2026-05-03T16:06:56Z</time></trkpt><trkpt lat="43.70449003754715" lon="18.33008190775328"><ele>997.0</ele><time>2026-05-03T16:06:57Z</time></trkpt><trkpt lat="43.704765331019296" lon="18.330089435755426"><ele>997.0</ele><time>2026-05-03T16:06:58Z</time></trkpt><trkpt lat="43.70504835253312" lon="18.330081081811493"><ele>997.0</ele><time>2026-05-03T16:06:59Z</time></trkpt><trkpt lat="43.7053343353134" lon="18.330054067211133"><ele>998.0</ele><time>2026-05-03T16:07:00Z</time></trkpt><trkpt lat="43.70561528728494" lon="18.33001518287976"><ele>999.0</ele><time>2026-05-03T16:07:01Z</time></trkpt><trkpt lat="43.705878243095405" lon="18.32997814523117"><ele>999.5</ele><time>2026-05-03T16:07:02Z</time></trkpt><trkpt lat="43.70613740775196" lon="18.3299454595558"><ele>1000.0</ele><time>2026-05-03T16:07:03Z</time></trkpt><trkpt lat="43.706388114139436" lon="18.329913487862317"><ele>1000.0</ele><time>2026-05-03T16:07:04Z</time></trkpt><trkpt lat="43.70662274952728" lon="18.32988796456802"><ele>1000.0</ele><time>2026-05-03T16:07:05Z</time></trkpt><trkpt lat="43.70685388387253" lon="18.329861241014566"><ele>1000.0</ele><time>2026-05-03T16:07:06Z</time></trkpt><trkpt lat="43.70708657304236" lon="18.329826806154518"><ele>1000.0</ele><time>2026-05-03T16:07:07Z</time></trkpt><trkpt lat="43.707288467088816" lon="18.32978419092096"><ele>1000.0</ele><time>2026-05-03T16:07:08Z</time></trkpt><trkpt lat="43.707458791803724" lon="18.329720828992116"><ele>998.6666666666666</ele><time>2026-05-03T16:07:09Z</time></trkpt><trkpt lat="43.70760678419888" lon="18.329628430251585"><ele>997.3333333333333</ele><time>2026-05-03T16:07:10Z</time></trkpt><trkpt lat="43.70773084795746" lon="18.329487181807284"><ele>996.0</ele><time>2026-05-03T16:07:11Z</time></trkpt><trkpt lat="43.70784200883389" lon="18.32930486964742"><ele>996.0</ele><time>2026-05-03T16:07:12Z</time></trkpt><trkpt lat="43.70794107168416" lon="18.3290999156145"><ele>996.0</ele><time>2026-05-03T16:07:13Z</time></trkpt><trkpt lat="43.708044343344504" lon="18.328890738435998"><ele>996.0</ele><time>2026-05-03T16:07:14Z</time></trkpt><trkpt lat="43.708164534358595" lon="18.328695632578654"><ele>1001.0</ele><time>2026-05-03T16:07:15Z</time></trkpt><trkpt lat="43.70830432628861" lon="18.328526402306583"><ele>1006.0</ele><time>2026-05-03T16:07:16Z</time></trkpt><trkpt lat="43.70844852301899" lon="18.32839205574616"><ele>1011.0</ele><time>2026-05-03T16:07:17Z</time></trkpt><trkpt lat="43.708581097065434" lon="18.328266419324788"><ele>1004.3333333333333</ele><time>2026-05-03T16:07:18Z</time></trkpt><trkpt lat="43.708683902759574" lon="18.328115062972838"><ele>997.6666666666666</ele><time>2026-05-03T16:07:19Z</time></trkpt><trkpt lat="43.70874240156681" lon="18.327917507517714"><ele>991.0</ele><time>2026-05-03T16:07:20Z</time></trkpt><trkpt lat="43.70873868576722" lon="18.327691471038868"><ele>991.0</ele><time>2026-05-03T16:07:21Z</time></trkpt><trkpt lat="43.7087143371204" lon="18.327469082556664"><ele>991.0</ele><time>2026-05-03T16:07:22Z</time></trkpt><trkpt lat="43.70868580637513" lon="18.32724342500138"><ele>991.0</ele><time>2026-05-03T16:07:23Z</time></trkpt><trkpt lat="43.708686649509694" lon="18.327014671714377"><ele>1000.6666666666666</ele><time>2026-05-03T16:07:24Z</time></trkpt><trkpt lat="43.7087546680185" lon="18.32680142592442"><ele>1010.3333333333333</ele><time>2026-05-03T16:07:25Z</time></trkpt><trkpt lat="43.70887686915509" lon="18.32661613958218"><ele>1020.0</ele><time>2026-05-03T16:07:26Z</time></trkpt><trkpt lat="43.70903668485997" lon="18.32645693938534"><ele>1023.0</ele><time>2026-05-03T16:07:27Z</time></trkpt><trkpt lat="43.709212153346584" lon="18.326319483347664"><ele>1026.0</ele><time>2026-05-03T16:07:28Z</time></trkpt><trkpt lat="43.70936352899489" lon="18.32617652313132"><ele>1029.0</ele><time>2026-05-03T16:07:29Z</time></trkpt><trkpt lat="43.709512243857155" lon="18.326027669419894"><ele>1029.0</ele><time>2026-05-03T16:07:30Z</time></trkpt><trkpt lat="43.709670124960006" lon="18.32587208267407"><ele>1029.0</ele><time>2026-05-03T16:07:31Z</time></trkpt><trkpt lat="43.709827786226576" lon="18.32572783933364"><ele>1029.0</ele><time>2026-05-03T16:07:32Z</time></trkpt><trkpt lat="43.70998736839707" lon="18.325644740509773"><ele>1029.0</ele><time>2026-05-03T16:07:33Z</time></trkpt><trkpt lat="43.710166962566774" lon="18.325645397087058"><ele>1029.0</ele><time>2026-05-03T16:07:34Z</time></trkpt><trkpt lat="43.71034688189469" lon="18.325734670472745"><ele>1029.0</ele><time>2026-05-03T16:07:35Z</time></trkpt><trkpt lat="43.710496530406715" lon="18.325813436192345"><ele>1027.6666666666667</ele><time>2026-05-03T16:07:36Z</time></trkpt><trkpt lat="43.71065217774591" lon="18.325825506625026"><ele>1026.3333333333335</ele><time>2026-05-03T16:07:37Z</time></trkpt><trkpt lat="43.71080057024501" lon="18.325752663123435"><ele>1025.0</ele><time>2026-05-03T16:07:38Z</time></trkpt><trkpt lat="43.71095369027983" lon="18.32560588376118"><ele>1026.0</ele><time>2026-05-03T16:07:39Z</time></trkpt><trkpt lat="43.71110698810387" lon="18.325403745179674"><ele>1027.0</ele><time>2026-05-03T16:07:40Z</time></trkpt><trkpt lat="43.711284868627644" lon="18.32515407564949"><ele>1027.0</ele><time>2026-05-03T16:07:41Z</time></trkpt><trkpt lat="43.71147150698033" lon="18.324874707943813"><ele>1027.0</ele><time>2026-05-03T16:07:42Z</time></trkpt><trkpt lat="43.71167545357523" lon="18.324587752164696"><ele>1028.0</ele><time>2026-05-03T16:07:43Z</time></trkpt><trkpt lat="43.71189861331479" lon="18.324308428858263"><ele>1029.0</ele><time>2026-05-03T16:07:44Z</time></trkpt><trkpt lat="43.71213970096892" lon="18.324075866827382"><ele>1042.5</ele><time>2026-05-03T16:07:45Z</time></trkpt><trkpt lat="43.71237271816239" lon="18.323868811210247"><ele>1056.0</ele><time>2026-05-03T16:07:46Z</time></trkpt><trkpt lat="43.71255912336461" lon="18.323663048640544"><ele>1056.0</ele><time>2026-05-03T16:07:47Z</time></trkpt><trkpt lat="43.71271090145256" lon="18.323437701247276"><ele>1056.0</ele><time>2026-05-03T16:07:48Z</time></trkpt><trkpt lat="43.712835077419435" lon="18.32318401557432"><ele>1056.0</ele><time>2026-05-03T16:07:49Z</time></trkpt><trkpt lat="43.71293659926482" lon="18.322903942116763"><ele>1048.3333333333333</ele><time>2026-05-03T16:07:50Z</time></trkpt><trkpt lat="43.71299563408737" lon="18.322618926125127"><ele>1040.6666666666665</ele><time>2026-05-03T16:07:51Z</time></trkpt><trkpt lat="43.71303276634252" lon="18.322335166211005"><ele>1033.0</ele><time>2026-05-03T16:07:52Z</time></trkpt><trkpt lat="43.713033575902514" lon="18.322050284320497"><ele>1033.0</ele><time>2026-05-03T16:07:53Z</time></trkpt><trkpt lat="43.71301311118189" lon="18.321754889348995"><ele>1033.0</ele><time>2026-05-03T16:07:54Z</time></trkpt><trkpt lat="43.71295809941447" lon="18.321452092174184"><ele>1033.0</ele><time>2026-05-03T16:07:55Z</time></trkpt><trkpt lat="43.712885134578045" lon="18.32114821090687"><ele>1032.3333333333333</ele><time>2026-05-03T16:07:56Z</time></trkpt><trkpt lat="43.7128067860211" lon="18.320881023216153"><ele>1031.6666666666667</ele><time>2026-05-03T16:07:57Z</time></trkpt><trkpt lat="43.71271492380964" lon="18.320650621563136"><ele>1031.0</ele><time>2026-05-03T16:07:58Z</time></trkpt><trkpt lat="43.71258872300313" lon="18.320423438136384"><ele>1037.0</ele><time>2026-05-03T16:07:59Z</time></trkpt><trkpt lat="43.7124215661902" lon="18.320210670054706"><ele>1043.0</ele><time>2026-05-03T16:08:00Z</time></trkpt><trkpt lat="43.712222691157535" lon="18.319990901258407"><ele>1043.0</ele><time>2026-05-03T16:08:01Z</time></trkpt><trkpt lat="43.71200782327923" lon="18.31977909601613"><ele>1043.0</ele><time>2026-05-03T16:08:02Z</time></trkpt><trkpt lat="43.71179505277111" lon="18.319582418560564"><ele>1046.0</ele><time>2026-05-03T16:08:03Z</time></trkpt><trkpt lat="43.71157667717459" lon="18.319384551549255"><ele>1049.0</ele><time>2026-05-03T16:08:04Z</time></trkpt><trkpt lat="43.71136570460811" lon="18.319184102408943"><ele>1049.0</ele><time>2026-05-03T16:08:05Z</time></trkpt><trkpt lat="43.711157262971554" lon="18.318979700800977"><ele>1049.0</ele><time>2026-05-03T16:08:06Z</time></trkpt><trkpt lat="43.71094523779106" lon="18.318773447299083"><ele>1054.0</ele><time>2026-05-03T16:08:07Z</time></trkpt><trkpt lat="43.71073497361948" lon="18.318563757162966"><ele>1059.0</ele><time>2026-05-03T16:08:08Z</time></trkpt><trkpt lat="43.710527931799554" lon="18.318353677441614"><ele>1059.0</ele><time>2026-05-03T16:08:09Z</time></trkpt><trkpt lat="43.71034514079188" lon="18.31815700206175"><ele>1059.0</ele><time>2026-05-03T16:08:10Z</time></trkpt><trkpt lat="43.71017860411188" lon="18.317955129586363"><ele>1060.6666666666667</ele><time>2026-05-03T16:08:11Z</time></trkpt><trkpt lat="43.710041968865234" lon="18.317743725834617"><ele>1062.3333333333335</ele><time>2026-05-03T16:08:12Z</time></trkpt><trkpt lat="43.709933247236776" lon="18.31751861978121"><ele>1064.0</ele><time>2026-05-03T16:08:13Z</time></trkpt><trkpt lat="43.709842719467034" lon="18.31728282150801"><ele>1063.6666666666667</ele><time>2026-05-03T16:08:14Z</time></trkpt><trkpt lat="43.70976701729132" lon="18.317030296762162"><ele>1063.3333333333333</ele><time>2026-05-03T16:08:15Z</time></trkpt><trkpt lat="43.709712579758666" lon="18.316766039186316"><ele>1063.0</ele><time>2026-05-03T16:08:16Z</time></trkpt><trkpt lat="43.7096680180691" lon="18.31649980164364"><ele>1062.6666666666665</ele><time>2026-05-03T16:08:17Z</time></trkpt><trkpt lat="43.709638865468015" lon="18.31622834101187"><ele>1062.3333333333333</ele><time>2026-05-03T16:08:18Z</time></trkpt><trkpt lat="43.709634202534076" lon="18.31595210452192"><ele>1062.0</ele><time>2026-05-03T16:08:19Z</time></trkpt><trkpt lat="43.709655380122356" lon="18.315664466237095"><ele>1067.0</ele><time>2026-05-03T16:08:20Z</time></trkpt><trkpt lat="43.709705850279924" lon="18.315374241733938"><ele>1072.0</ele><time>2026-05-03T16:08:21Z</time></trkpt><trkpt lat="43.709782883618146" lon="18.315061415857592"><ele>1072.0</ele><time>2026-05-03T16:08:22Z</time></trkpt><trkpt lat="43.70987909526987" lon="18.3147622542129"><ele>1072.0</ele><time>2026-05-03T16:08:23Z</time></trkpt><trkpt lat="43.70999402087873" lon="18.31447124651308"><ele>1082.5</ele><time>2026-05-03T16:08:24Z</time></trkpt><trkpt lat="43.71011164511661" lon="18.314193096957492"><ele>1093.0</ele><time>2026-05-03T16:08:25Z</time></trkpt><trkpt lat="43.71022215268261" lon="18.31392725807708"><ele>1085.0</ele><time>2026-05-03T16:08:26Z</time></trkpt><trkpt lat="43.71031970077357" lon="18.313647131305856"><ele>1077.0</ele><time>2026-05-03T16:08:27Z</time></trkpt><trkpt lat="43.7104016585827" lon="18.313347637245194"><ele>1086.0</ele><time>2026-05-03T16:08:28Z</time></trkpt><trkpt lat="43.71051344546799" lon="18.31301000720778"><ele>1095.0</ele><time>2026-05-03T16:08:29Z</time></trkpt><trkpt lat="43.71063223615237" lon="18.312704476888474"><ele>1095.0</ele><time>2026-05-03T16:08:30Z</time></trkpt><trkpt lat="43.710753501027106" lon="18.312426774434336"><ele>1095.0</ele><time>2026-05-03T16:08:31Z</time></trkpt><trkpt lat="43.71086008185646" lon="18.312188524354152"><ele>1095.0</ele><time>2026-05-03T16:08:32Z</time></trkpt><trkpt lat="43.7109519378438" lon="18.31197310694978"><ele>1095.6666666666667</ele><time>2026-05-03T16:08:33Z</time></trkpt><trkpt lat="43.711046212587526" lon="18.31175119203117"><ele>1096.3333333333335</ele><time>2026-05-03T16:08:34Z</time></trkpt><trkpt lat="43.71113206492575" lon="18.311561227076474"><ele>1097.0</ele><time>2026-05-03T16:08:35Z</time></trkpt><trkpt lat="43.71123504617374" lon="18.31138163390144"><ele>1099.6666666666667</ele><time>2026-05-03T16:08:36Z</time></trkpt><trkpt lat="43.71134975717137" lon="18.311214025014728"><ele>1102.3333333333333</ele><time>2026-05-03T16:08:37Z</time></trkpt><trkpt lat="43.711483947510516" lon="18.31108055219691"><ele>1105.0</ele><time>2026-05-03T16:08:38Z</time></trkpt><trkpt lat="43.711636284105396" lon="18.310997118126668"><ele>1105.0</ele><time>2026-05-03T16:08:39Z</time></trkpt><trkpt lat="43.711803584711575" lon="18.310946332862958"><ele>1105.0</ele><time>2026-05-03T16:08:40Z</time></trkpt><trkpt lat="43.71199544819568" lon="18.310950663080277"><ele>1105.0</ele><time>2026-05-03T16:08:41Z</time></trkpt><trkpt lat="43.712196995048416" lon="18.31101439220027"><ele>1105.0</ele><time>2026-05-03T16:08:42Z</time></trkpt><trkpt lat="43.71240307656717" lon="18.311111926801342"><ele>1105.0</ele><time>2026-05-03T16:08:43Z</time></trkpt><trkpt lat="43.712608521544105" lon="18.311195597647053"><ele>1105.0</ele><time>2026-05-03T16:08:44Z</time></trkpt><trkpt lat="43.712812004975994" lon="18.31123502220357"><ele>1105.0</ele><time>2026-05-03T16:08:45Z</time></trkpt><trkpt lat="43.71298672905497" lon="18.31122569058835"><ele>1105.0</ele><time>2026-05-03T16:08:46Z</time></trkpt><trkpt lat="43.71311884395838" lon="18.311182387085545"><ele>1105.0</ele><time>2026-05-03T16:08:47Z</time></trkpt><trkpt lat="43.7131950724788" lon="18.311089199283373"><ele>1105.0</ele><time>2026-05-03T16:08:48Z</time></trkpt><trkpt lat="43.71326703196473" lon="18.310956635071896"><ele>1105.0</ele><time>2026-05-03T16:08:49Z</time></trkpt><trkpt lat="43.713315675613465" lon="18.31076241020162"><ele>1105.0</ele><time>2026-05-03T16:08:50Z</time></trkpt><trkpt lat="43.713353314298004" lon="18.310523405705002"><ele>1105.0</ele><time>2026-05-03T16:08:51Z</time></trkpt><trkpt lat="43.713383083505384" lon="18.310271186490656"><ele>1105.6666666666665</ele><time>2026-05-03T16:08:52Z</time></trkpt><trkpt lat="43.713414955993855" lon="18.31003922951847"><ele>1106.3333333333333</ele><time>2026-05-03T16:08:53Z</time></trkpt><trkpt lat="43.71347287639027" lon="18.309818501374064"><ele>1107.0</ele><time>2026-05-03T16:08:54Z</time></trkpt><trkpt lat="43.71357945908061" lon="18.309583627500988"><ele>1107.0</ele><time>2026-05-03T16:08:55Z</time></trkpt><trkpt lat="43.713724581878694" lon="18.309357445622666"><ele>1107.0</ele><time>2026-05-03T16:08:56Z</time></trkpt><trkpt lat="43.713894343387736" lon="18.309160849217974"><ele>1107.0</ele><time>2026-05-03T16:08:57Z</time></trkpt><trkpt lat="43.71407896367542" lon="18.308991795263324"><ele>1110.3333333333333</ele><time>2026-05-03T16:08:58Z</time></trkpt><trkpt lat="43.71426754795246" lon="18.308843550804546"><ele>1113.6666666666665</ele><time>2026-05-03T16:08:59Z</time></trkpt><trkpt lat="43.71444359676377" lon="18.308724825636624"><ele>1117.0</ele><time>2026-05-03T16:09:00Z</time></trkpt><trkpt lat="43.7146102587148" lon="18.308603701865398"><ele>1117.0</ele><time>2026-05-03T16:09:01Z</time></trkpt><trkpt lat="43.71477363248771" lon="18.30845911926002"><ele>1117.0</ele><time>2026-05-03T16:09:02Z</time></trkpt><trkpt lat="43.71490814604838" lon="18.308275082903197"><ele>1117.0</ele><time>2026-05-03T16:09:03Z</time></trkpt><trkpt lat="43.71502537956642" lon="18.308053319450682"><ele>1117.6666666666665</ele><time>2026-05-03T16:09:04Z</time></trkpt><trkpt lat="43.71511721099448" lon="18.30781357005331"><ele>1118.3333333333333</ele><time>2026-05-03T16:09:05Z</time></trkpt><trkpt lat="43.71519316304243" lon="18.307551540281"><ele>1119.0</ele><time>2026-05-03T16:09:06Z</time></trkpt><trkpt lat="43.715247314703994" lon="18.307261328481303"><ele>1124.3333333333333</ele><time>2026-05-03T16:09:07Z</time></trkpt><trkpt lat="43.715275565433025" lon="18.306961645668526"><ele>1129.6666666666665</ele><time>2026-05-03T16:09:08Z</time></trkpt><trkpt lat="43.71527566964976" lon="18.306647874014356"><ele>1135.0</ele><time>2026-05-03T16:09:09Z</time></trkpt><trkpt lat="43.7152580387923" lon="18.306333854446887"><ele>1137.0</ele><time>2026-05-03T16:09:10Z</time></trkpt><trkpt lat="43.71523570625146" lon="18.306011149051418"><ele>1139.0</ele><time>2026-05-03T16:09:11Z</time></trkpt><trkpt lat="43.71522592663854" lon="18.30569910690293"><ele>1140.0</ele><time>2026-05-03T16:09:12Z</time></trkpt><trkpt lat="43.715236457354735" lon="18.30539901096817"><ele>1141.0</ele><time>2026-05-03T16:09:13Z</time></trkpt><trkpt lat="43.71526888074084" lon="18.305139403151887"><ele>1142.0</ele><time>2026-05-03T16:09:14Z</time></trkpt><trkpt lat="43.71531285722047" lon="18.3048977928526"><ele>1141.0</ele><time>2026-05-03T16:09:15Z</time></trkpt><trkpt lat="43.71538785295517" lon="18.30470270829202"><ele>1140.0</ele><time>2026-05-03T16:09:16Z</time></trkpt><trkpt lat="43.715477458685086" lon="18.30450619224532"><ele>1139.0</ele><time>2026-05-03T16:09:17Z</time></trkpt><trkpt lat="43.715551543874405" lon="18.304285924515813"><ele>1139.0</ele><time>2026-05-03T16:09:18Z</time></trkpt><trkpt lat="43.71557368240327" lon="18.304029910022496"><ele>1139.0</ele><time>2026-05-03T16:09:19Z</time></trkpt><trkpt lat="43.71557057202853" lon="18.30373748874808"><ele>1139.0</ele><time>2026-05-03T16:09:20Z</time></trkpt><trkpt lat="43.71552927891429" lon="18.30343354882394"><ele>1136.5</ele><time>2026-05-03T16:09:21Z</time></trkpt><trkpt lat="43.715460993708554" lon="18.303115699439164"><ele>1134.0</ele><time>2026-05-03T16:09:22Z</time></trkpt><trkpt lat="43.715392123763834" lon="18.302815940904765"><ele>1134.0</ele><time>2026-05-03T16:09:23Z</time></trkpt><trkpt lat="43.715334253765434" lon="18.302528380886987"><ele>1134.0</ele><time>2026-05-03T16:09:24Z</time></trkpt><trkpt lat="43.71527405527709" lon="18.302240994006322"><ele>1134.0</ele><time>2026-05-03T16:09:25Z</time></trkpt><trkpt lat="43.715225878808546" lon="18.301953597645593"><ele>1139.0</ele><time>2026-05-03T16:09:26Z</time></trkpt><trkpt lat="43.71520681797804" lon="18.30165105979312"><ele>1144.0</ele><time>2026-05-03T16:09:27Z</time></trkpt><trkpt lat="43.715213670334656" lon="18.30132925652342"><ele>1138.5</ele><time>2026-05-03T16:09:28Z</time></trkpt><trkpt lat="43.71526677627199" lon="18.300981978588762"><ele>1133.0</ele><time>2026-05-03T16:09:29Z</time></trkpt><trkpt lat="43.71536456957029" lon="18.300619563257953"><ele>1135.5</ele><time>2026-05-03T16:09:30Z</time></trkpt><trkpt lat="43.715475138194314" lon="18.300237115153195"><ele>1138.0</ele><time>2026-05-03T16:09:31Z</time></trkpt><trkpt lat="43.71558707946099" lon="18.29983408185029"><ele>1141.0</ele><time>2026-05-03T16:09:32Z</time></trkpt><trkpt lat="43.715702686741814" lon="18.29943967345367"><ele>1144.0</ele><time>2026-05-03T16:09:33Z</time></trkpt><trkpt lat="43.71581453223759" lon="18.299060939744635"><ele>1145.5</ele><time>2026-05-03T16:09:34Z</time></trkpt><trkpt lat="43.71593223136683" lon="18.2986946714857"><ele>1147.0</ele><time>2026-05-03T16:09:35Z</time></trkpt><trkpt lat="43.71603858160215" lon="18.298351655737815"><ele>1148.0</ele><time>2026-05-03T16:09:36Z</time></trkpt><trkpt lat="43.716135343323614" lon="18.29803827474932"><ele>1149.0</ele><time>2026-05-03T16:09:37Z</time></trkpt><trkpt lat="43.71623757959688" lon="18.297732823309843"><ele>1149.0</ele><time>2026-05-03T16:09:38Z</time></trkpt><trkpt lat="43.716354851711586" lon="18.297440085900373"><ele>1149.0</ele><time>2026-05-03T16:09:39Z</time></trkpt><trkpt lat="43.71648640180931" lon="18.297162293532207"><ele>1150.5</ele><time>2026-05-03T16:09:40Z</time></trkpt><trkpt lat="43.71664463383535" lon="18.296913280863055"><ele>1152.0</ele><time>2026-05-03T16:09:41Z</time></trkpt><trkpt lat="43.71682835961487" lon="18.296707582967645"><ele>1154.0</ele><time>2026-05-03T16:09:42Z</time></trkpt><trkpt lat="43.71705032184019" lon="18.2965375637954"><ele>1156.0</ele><time>2026-05-03T16:09:43Z</time></trkpt><trkpt lat="43.71730504312091" lon="18.296406845106574"><ele>1156.0</ele><time>2026-05-03T16:09:44Z</time></trkpt><trkpt lat="43.71754955335496" lon="18.296282790560067"><ele>1156.0</ele><time>2026-05-03T16:09:45Z</time></trkpt><trkpt lat="43.71776133578059" lon="18.296162785474696"><ele>1156.3333333333333</ele><time>2026-05-03T16:09:46Z</time></trkpt><trkpt lat="43.71794276176412" lon="18.296017336355966"><ele>1156.6666666666667</ele><time>2026-05-03T16:09:47Z</time></trkpt><trkpt lat="43.71813912112472" lon="18.29583825074869"><ele>1157.0</ele><time>2026-05-03T16:09:48Z</time></trkpt><trkpt lat="43.71833441687313" lon="18.295653718958363"><ele>1158.0</ele><time>2026-05-03T16:09:49Z</time></trkpt><trkpt lat="43.71851334245552" lon="18.295471337080148"><ele>1159.0</ele><time>2026-05-03T16:09:50Z</time></trkpt><trkpt lat="43.718667555845336" lon="18.295294571804227"><ele>1160.0</ele><time>2026-05-03T16:09:51Z</time></trkpt><trkpt lat="43.7188133105457" lon="18.295132203580767"><ele>1158.0</ele><time>2026-05-03T16:09:52Z</time></trkpt><trkpt lat="43.718958850809805" lon="18.294974080848146"><ele>1156.0</ele><time>2026-05-03T16:09:53Z</time></trkpt><trkpt lat="43.71910646808448" lon="18.294839656280516"><ele>1154.0</ele><time>2026-05-03T16:09:54Z</time></trkpt><trkpt lat="43.719249639312864" lon="18.294730234277832"><ele>1159.0</ele><time>2026-05-03T16:09:55Z</time></trkpt><trkpt lat="43.719390542755086" lon="18.29465056286114"><ele>1164.0</ele><time>2026-05-03T16:09:56Z</time></trkpt><trkpt lat="43.71954582162168" lon="18.29460116185241"><ele>1169.0</ele><time>2026-05-03T16:09:57Z</time></trkpt><trkpt lat="43.719713729886635" lon="18.29455074249064"><ele>1169.0</ele><time>2026-05-03T16:09:58Z</time></trkpt><trkpt lat="43.719887301124814" lon="18.29449378793524"><ele>1169.0</ele><time>2026-05-03T16:09:59Z</time></trkpt><trkpt lat="43.72004549672532" lon="18.294437165389336"><ele>1169.0</ele><time>2026-05-03T16:10:00Z</time></trkpt><trkpt lat="43.720196779033664" lon="18.294378926887294"><ele>1166.6666666666667</ele><time>2026-05-03T16:10:01Z</time></trkpt><trkpt lat="43.72034870151104" lon="18.294327019496375"><ele>1164.3333333333333</ele><time>2026-05-03T16:10:02Z</time></trkpt><trkpt lat="43.72050248052649" lon="18.294284156775202"><ele>1162.0</ele><time>2026-05-03T16:10:03Z</time></trkpt><trkpt lat="43.72065818083113" lon="18.29424014721885"><ele>1162.0</ele><time>2026-05-03T16:10:04Z</time></trkpt><trkpt lat="43.72081213653136" lon="18.294188210749624"><ele>1162.0</ele><time>2026-05-03T16:10:05Z</time></trkpt><trkpt lat="43.72097349153146" lon="18.294129555922467"><ele>1162.0</ele><time>2026-05-03T16:10:06Z</time></trkpt><trkpt lat="43.72113872664172" lon="18.29408149690255"><ele>1162.6666666666665</ele><time>2026-05-03T16:10:07Z</time></trkpt><trkpt lat="43.72130153520943" lon="18.29404576426926"><ele>1163.3333333333333</ele><time>2026-05-03T16:10:08Z</time></trkpt><trkpt lat="43.72146427572098" lon="18.294022380121774"><ele>1164.0</ele><time>2026-05-03T16:10:09Z</time></trkpt><trkpt lat="43.72162596771368" lon="18.29401634622531"><ele>1164.0</ele><time>2026-05-03T16:10:10Z</time></trkpt><trkpt lat="43.72178726087027" lon="18.294013997507083"><ele>1164.0</ele><time>2026-05-03T16:10:11Z</time></trkpt><trkpt lat="43.72194401743263" lon="18.29400699836381"><ele>1164.0</ele><time>2026-05-03T16:10:12Z</time></trkpt><trkpt lat="43.72209979807356" lon="18.294008233626304"><ele>1166.6666666666667</ele><time>2026-05-03T16:10:13Z</time></trkpt><trkpt lat="43.722253107136765" lon="18.294025450839513"><ele>1169.3333333333335</ele><time>2026-05-03T16:10:14Z</time></trkpt><trkpt lat="43.72240637193893" lon="18.294049583032795"><ele>1172.0</ele><time>2026-05-03T16:10:15Z</time></trkpt><trkpt lat="43.72256656818982" lon="18.29406520768494"><ele>1172.0</ele><time>2026-05-03T16:10:16Z</time></trkpt><trkpt lat="43.722729510043365" lon="18.29406838916501"><ele>1172.0</ele><time>2026-05-03T16:10:17Z</time></trkpt><trkpt lat="43.72289683145997" lon="18.2940586340108"><ele>1172.0</ele><time>2026-05-03T16:10:18Z</time></trkpt><trkpt lat="43.72306677333239" lon="18.294049029832838"><ele>1173.6666666666667</ele><time>2026-05-03T16:10:19Z</time></trkpt><trkpt lat="43.72322867713013" lon="18.294057298821176"><ele>1175.3333333333333</ele><time>2026-05-03T16:10:20Z</time></trkpt><trkpt lat="43.723393422209696" lon="18.294104901214205"><ele>1177.0</ele><time>2026-05-03T16:10:21Z</time></trkpt><trkpt lat="43.72355048530085" lon="18.29417840437881"><ele>1180.3333333333333</ele><time>2026-05-03T16:10:22Z</time></trkpt><trkpt lat="43.723698975476964" lon="18.294264309947543"><ele>1183.6666666666667</ele><time>2026-05-03T16:10:23Z</time></trkpt><trkpt lat="43.72385132083939" lon="18.29435382774347"><ele>1187.0</ele><time>2026-05-03T16:10:24Z</time></trkpt><trkpt lat="43.7240051391149" lon="18.29443003005748"><ele>1187.0</ele><time>2026-05-03T16:10:25Z</time></trkpt><trkpt lat="43.72414686574925" lon="18.29447855407523"><ele>1187.0</ele><time>2026-05-03T16:10:26Z</time></trkpt><trkpt lat="43.72428794987375" lon="18.294520361896637"><ele>1187.0</ele><time>2026-05-03T16:10:27Z</time></trkpt><trkpt lat="43.72442641359574" lon="18.294568933120217"><ele>1187.0</ele><time>2026-05-03T16:10:28Z</time></trkpt><trkpt lat="43.72456399652029" lon="18.294618149538724"><ele>1187.5</ele><time>2026-05-03T16:10:29Z</time></trkpt><trkpt lat="43.72469612631847" lon="18.294673684246447"><ele>1188.0</ele><time>2026-05-03T16:10:30Z</time></trkpt><trkpt lat="43.72484117132778" lon="18.294721950387686"><ele>1188.5</ele><time>2026-05-03T16:10:31Z</time></trkpt><trkpt lat="43.72500078824032" lon="18.29474880146492"><ele>1189.0</ele><time>2026-05-03T16:10:32Z</time></trkpt><trkpt lat="43.72517104923007" lon="18.294755773500018"><ele>1187.0</ele><time>2026-05-03T16:10:33Z</time></trkpt><trkpt lat="43.72535320896308" lon="18.294744483180253"><ele>1185.0</ele><time>2026-05-03T16:10:34Z</time></trkpt><trkpt lat="43.72553143722105" lon="18.294726045748067"><ele>1183.0</ele><time>2026-05-03T16:10:35Z</time></trkpt><trkpt lat="43.7257089177892" lon="18.29469117863434"><ele>1183.0</ele><time>2026-05-03T16:10:36Z</time></trkpt><trkpt lat="43.72587755038194" lon="18.29462801924047"><ele>1183.0</ele><time>2026-05-03T16:10:37Z</time></trkpt><trkpt lat="43.726048430649755" lon="18.294544281046743"><ele>1183.0</ele><time>2026-05-03T16:10:38Z</time></trkpt><trkpt lat="43.726204408297036" lon="18.294447817375204"><ele>1180.6666666666665</ele><time>2026-05-03T16:10:39Z</time></trkpt><trkpt lat="43.726360015059655" lon="18.294343522321544"><ele>1178.3333333333333</ele><time>2026-05-03T16:10:40Z</time></trkpt><trkpt lat="43.7265132088576" lon="18.294244443046107"><ele>1176.0</ele><time>2026-05-03T16:10:41Z</time></trkpt><trkpt lat="43.72666600250689" lon="18.294130983066946"><ele>1176.0</ele><time>2026-05-03T16:10:42Z</time></trkpt><trkpt lat="43.726822506969754" lon="18.293972117385604"><ele>1176.0</ele><time>2026-05-03T16:10:43Z</time></trkpt><trkpt lat="43.726979462079555" lon="18.293753060128182"><ele>1176.0</ele><time>2026-05-03T16:10:44Z</time></trkpt><trkpt lat="43.72716014299444" lon="18.293472088243185"><ele>1175.0</ele><time>2026-05-03T16:10:45Z</time></trkpt><trkpt lat="43.72737006465442" lon="18.29316785470949"><ele>1174.0</ele><time>2026-05-03T16:10:46Z</time></trkpt><trkpt lat="43.72759824215497" lon="18.292838261361034"><ele>1173.0</ele><time>2026-05-03T16:10:47Z</time></trkpt><trkpt lat="43.72784082244394" lon="18.29247888660851"><ele>1172.0</ele><time>2026-05-03T16:10:48Z</time></trkpt><trkpt lat="43.72809046151507" lon="18.292108838810307"><ele>1174.0</ele><time>2026-05-03T16:10:49Z</time></trkpt><trkpt lat="43.72833618697709" lon="18.291746034980537"><ele>1176.0</ele><time>2026-05-03T16:10:50Z</time></trkpt><trkpt lat="43.728573806805684" lon="18.29140645675028"><ele>1176.0</ele><time>2026-05-03T16:10:51Z</time></trkpt><trkpt lat="43.72880599348386" lon="18.291059557502297"><ele>1176.0</ele><time>2026-05-03T16:10:52Z</time></trkpt><trkpt lat="43.72904822900339" lon="18.290697176192825"><ele>1176.5</ele><time>2026-05-03T16:10:53Z</time></trkpt><trkpt lat="43.72929477975614" lon="18.290319092370286"><ele>1177.0</ele><time>2026-05-03T16:10:54Z</time></trkpt><trkpt lat="43.72952794314198" lon="18.289956590380076"><ele>1178.0</ele><time>2026-05-03T16:10:55Z</time></trkpt><trkpt lat="43.72974366329524" lon="18.289627767305532"><ele>1179.0</ele><time>2026-05-03T16:10:56Z</time></trkpt><trkpt lat="43.72994691185062" lon="18.289316993572726"><ele>1179.0</ele><time>2026-05-03T16:10:57Z</time></trkpt><trkpt lat="43.730148692974495" lon="18.289003851030937"><ele>1179.0</ele><time>2026-05-03T16:10:58Z</time></trkpt><trkpt lat="43.73034291651833" lon="18.288702927849652"><ele>1173.0</ele><time>2026-05-03T16:10:59Z</time></trkpt><trkpt lat="43.73053893286205" lon="18.28841333660151"><ele>1167.0</ele><time>2026-05-03T16:11:00Z</time></trkpt><trkpt lat="43.730749332758585" lon="18.288147300923935"><ele>1167.0</ele><time>2026-05-03T16:11:01Z</time></trkpt><trkpt lat="43.7309773148994" lon="18.287920844691993"><ele>1167.0</ele><time>2026-05-03T16:11:02Z</time></trkpt><trkpt lat="43.73119936650589" lon="18.28773124087957"><ele>1166.5</ele><time>2026-05-03T16:11:03Z</time></trkpt><trkpt lat="43.73141057377555" lon="18.287568076943312"><ele>1166.0</ele><time>2026-05-03T16:11:04Z</time></trkpt><trkpt lat="43.73160703737788" lon="18.287382454894548"><ele>1167.0</ele><time>2026-05-03T16:11:05Z</time></trkpt><trkpt lat="43.73178414841308" lon="18.28715991292201"><ele>1168.0</ele><time>2026-05-03T16:11:06Z</time></trkpt><trkpt lat="43.7319483675505" lon="18.28690391332681"><ele>1168.0</ele><time>2026-05-03T16:11:07Z</time></trkpt><trkpt lat="43.7320744145284" lon="18.28661209650274"><ele>1168.0</ele><time>2026-05-03T16:11:08Z</time></trkpt><trkpt lat="43.73218455780858" lon="18.28635065883052"><ele>1168.0</ele><time>2026-05-03T16:11:09Z</time></trkpt><trkpt lat="43.73229396369153" lon="18.28613205379812"><ele>1168.0</ele><time>2026-05-03T16:11:10Z</time></trkpt><trkpt lat="43.732415652400405" lon="18.285960799575317"><ele>1168.0</ele><time>2026-05-03T16:11:11Z</time></trkpt><trkpt lat="43.73256129904808" lon="18.285844136983716"><ele>1168.0</ele><time>2026-05-03T16:11:12Z</time></trkpt><trkpt lat="43.73270776795886" lon="18.28579501585902"><ele>1168.0</ele><time>2026-05-03T16:11:13Z</time></trkpt><trkpt lat="43.73285001482092" lon="18.285829164640308"><ele>1168.0</ele><time>2026-05-03T16:11:14Z</time></trkpt><trkpt lat="43.732978551942956" lon="18.28589207258702"><ele>1168.0</ele><time>2026-05-03T16:11:15Z</time></trkpt><trkpt lat="43.73308708257501" lon="18.28598591518746"><ele>1169.0</ele><time>2026-05-03T16:11:16Z</time></trkpt><trkpt lat="43.733175143314895" lon="18.28610972876692"><ele>1170.0</ele><time>2026-05-03T16:11:17Z</time></trkpt><trkpt lat="43.733238036353505" lon="18.286269506297717"><ele>1171.0</ele><time>2026-05-03T16:11:18Z</time></trkpt><trkpt lat="43.733280163099074" lon="18.286437015970318"><ele>1172.0</ele><time>2026-05-03T16:11:19Z</time></trkpt><trkpt lat="43.73329263803612" lon="18.286625937344606"><ele>1173.3333333333335</ele><time>2026-05-03T16:11:20Z</time></trkpt><trkpt lat="43.733270752419656" lon="18.286818186094866"><ele>1174.6666666666667</ele><time>2026-05-03T16:11:21Z</time></trkpt><trkpt lat="43.7332209969411" lon="18.287014084190545"><ele>1176.0</ele><time>2026-05-03T16:11:22Z</time></trkpt><trkpt lat="43.73313593649986" lon="18.28723688242863"><ele>1178.6666666666667</ele><time>2026-05-03T16:11:23Z</time></trkpt><trkpt lat="43.73302921714524" lon="18.28748579424931"><ele>1181.3333333333335</ele><time>2026-05-03T16:11:24Z</time></trkpt><trkpt lat="43.732915876072624" lon="18.28776651959479"><ele>1184.0</ele><time>2026-05-03T16:11:25Z</time></trkpt><trkpt lat="43.73281293360783" lon="18.28808578621921"><ele>1188.0</ele><time>2026-05-03T16:11:26Z</time></trkpt><trkpt lat="43.732735300173076" lon="18.28844221427256"><ele>1192.0</ele><time>2026-05-03T16:11:27Z</time></trkpt><trkpt lat="43.73267088600912" lon="18.288828064807987"><ele>1180.5</ele><time>2026-05-03T16:11:28Z</time></trkpt><trkpt lat="43.73262643409605" lon="18.289202181463878"><ele>1169.0</ele><time>2026-05-03T16:11:29Z</time></trkpt><trkpt lat="43.732575818036345" lon="18.28954465367613"><ele>1174.0</ele><time>2026-05-03T16:11:30Z</time></trkpt><trkpt lat="43.732486061379284" lon="18.28984877493158"><ele>1179.0</ele><time>2026-05-03T16:11:31Z</time></trkpt><trkpt lat="43.73234349106667" lon="18.290148403944308"><ele>1179.0</ele><time>2026-05-03T16:11:32Z</time></trkpt><trkpt lat="43.73217840359364" lon="18.290446190427012"><ele>1179.0</ele><time>2026-05-03T16:11:33Z</time></trkpt><trkpt lat="43.73202984793967" lon="18.290725087657492"><ele>1175.6666666666667</ele><time>2026-05-03T16:11:34Z</time></trkpt><trkpt lat="43.73189857490027" lon="18.290978877988678"><ele>1172.3333333333335</ele><time>2026-05-03T16:11:35Z</time></trkpt><trkpt lat="43.731776895993896" lon="18.29120589263255"><ele>1169.0</ele><time>2026-05-03T16:11:36Z</time></trkpt><trkpt lat="43.73164990038401" lon="18.29139647371382"><ele>1174.6666666666667</ele><time>2026-05-03T16:11:37Z</time></trkpt><trkpt lat="43.7315144912706" lon="18.29153572308833"><ele>1180.3333333333333</ele><time>2026-05-03T16:11:38Z</time></trkpt><trkpt lat="43.731359910415364" lon="18.29163065973904"><ele>1186.0</ele><time>2026-05-03T16:11:39Z</time></trkpt><trkpt lat="43.73118406034487" lon="18.291695400760375"><ele>1181.3333333333333</ele><time>2026-05-03T16:11:40Z</time></trkpt><trkpt lat="43.73100555401093" lon="18.29175059573091"><ele>1176.6666666666667</ele><time>2026-05-03T16:11:41Z</time></trkpt><trkpt lat="43.730853600591985" lon="18.291807745330836"><ele>1172.0</ele><time>2026-05-03T16:11:42Z</time></trkpt><trkpt lat="43.73072411265081" lon="18.291899288749153"><ele>1172.0</ele><time>2026-05-03T16:11:43Z</time></trkpt><trkpt lat="43.73064031611277" lon="18.29204849657961"><ele>1172.0</ele><time>2026-05-03T16:11:44Z</time></trkpt><trkpt lat="43.730606574145845" lon="18.29224839504366"><ele>1172.0</ele><time>2026-05-03T16:11:45Z</time></trkpt><trkpt lat="43.7306075275788" lon="18.292464990264794"><ele>1172.0</ele><time>2026-05-03T16:11:46Z</time></trkpt><trkpt lat="43.730659138423626" lon="18.292683887937017"><ele>1173.6666666666667</ele><time>2026-05-03T16:11:47Z</time></trkpt><trkpt lat="43.73074350658422" lon="18.292909809589517"><ele>1175.3333333333333</ele><time>2026-05-03T16:11:48Z</time></trkpt><trkpt lat="43.730834558597316" lon="18.29311128022107"><ele>1177.0</ele><time>2026-05-03T16:11:49Z</time></trkpt><trkpt lat="43.730912966849296" lon="18.293280680155103"><ele>1177.6666666666665</ele><time>2026-05-03T16:11:50Z</time></trkpt><trkpt lat="43.73099036462472" lon="18.29341033904774"><ele>1178.3333333333333</ele><time>2026-05-03T16:11:51Z</time></trkpt><trkpt lat="43.73106690922013" lon="18.29348876628788"><ele>1179.0</ele><time>2026-05-03T16:11:52Z</time></trkpt><trkpt lat="43.73112791223516" lon="18.293527416192696"><ele>1179.6666666666667</ele><time>2026-05-03T16:11:53Z</time></trkpt><trkpt lat="43.73119803050218" lon="18.293613328773443"><ele>1180.3333333333335</ele><time>2026-05-03T16:11:55Z</time></trkpt><trkpt lat="43.731206376045506" lon="18.293703955416504"><ele>1181.0</ele><time>2026-05-03T16:11:56Z</time></trkpt><trkpt lat="43.731180243436526" lon="18.293832834470884"><ele>1180.6666666666667</ele><time>2026-05-03T16:11:57Z</time></trkpt><trkpt lat="43.731110658030026" lon="18.293985234699655"><ele>1180.3333333333333</ele><time>2026-05-03T16:11:58Z</time></trkpt><trkpt lat="43.7310338177418" lon="18.29417014036329"><ele>1180.0</ele><time>2026-05-03T16:11:59Z</time></trkpt><trkpt lat="43.73092309298917" lon="18.29444050085281"><ele>1180.0</ele><time>2026-05-03T16:12:00Z</time></trkpt><trkpt lat="43.730860779444676" lon="18.294697608142027"><ele>1180.0</ele><time>2026-05-03T16:12:01Z</time></trkpt><trkpt lat="43.73079108162086" lon="18.294995294700886"><ele>1180.0</ele><time>2026-05-03T16:12:02Z</time></trkpt><trkpt lat="43.730748840265136" lon="18.29531035742784"><ele>1180.3333333333333</ele><time>2026-05-03T16:12:03Z</time></trkpt><trkpt lat="43.730736546463184" lon="18.295607198715032"><ele>1180.6666666666667</ele><time>2026-05-03T16:12:04Z</time></trkpt><trkpt lat="43.73073328936932" lon="18.295892334149826"><ele>1181.0</ele><time>2026-05-03T16:12:05Z</time></trkpt><trkpt lat="43.73072449036194" lon="18.296167311290162"><ele>1182.6666666666667</ele><time>2026-05-03T16:12:06Z</time></trkpt><trkpt lat="43.7307011279421" lon="18.296423087321756"><ele>1184.3333333333333</ele><time>2026-05-03T16:12:07Z</time></trkpt><trkpt lat="43.73065413541679" lon="18.296688120405477"><ele>1186.0</ele><time>2026-05-03T16:12:08Z</time></trkpt><trkpt lat="43.73057099433631" lon="18.29691421444641"><ele>1186.0</ele><time>2026-05-03T16:12:09Z</time></trkpt><trkpt lat="43.730483185212236" lon="18.297178362293945"><ele>1186.0</ele><time>2026-05-03T16:12:10Z</time></trkpt><trkpt lat="43.730409242175526" lon="18.29745099123907"><ele>1186.0</ele><time>2026-05-03T16:12:11Z</time></trkpt><trkpt lat="43.73036106340883" lon="18.297734187713985"><ele>1189.0</ele><time>2026-05-03T16:12:12Z</time></trkpt><trkpt lat="43.73034621964998" lon="18.298042677407203"><ele>1192.0</ele><time>2026-05-03T16:12:13Z</time></trkpt><trkpt lat="43.73037208537808" lon="18.298385525937565"><ele>1192.0</ele><time>2026-05-03T16:12:14Z</time></trkpt><trkpt lat="43.730407680433466" lon="18.298798443369076"><ele>1192.0</ele><time>2026-05-03T16:12:15Z</time></trkpt><trkpt lat="43.73042306606822" lon="18.29923942301202"><ele>1189.5</ele><time>2026-05-03T16:12:16Z</time></trkpt><trkpt lat="43.730429279924344" lon="18.299684607411766"><ele>1187.0</ele><time>2026-05-03T16:12:17Z</time></trkpt><trkpt lat="43.73047448948729" lon="18.30013288176923"><ele>1184.0</ele><time>2026-05-03T16:12:18Z</time></trkpt><trkpt lat="43.73057221270942" lon="18.300542832492503"><ele>1181.0</ele><time>2026-05-03T16:12:19Z</time></trkpt><trkpt lat="43.73069438786616" lon="18.300931297072186"><ele>1177.0</ele><time>2026-05-03T16:12:20Z</time></trkpt><trkpt lat="43.73080317491739" lon="18.301318884461953"><ele>1173.0</ele><time>2026-05-03T16:12:21Z</time></trkpt><trkpt lat="43.730859356258776" lon="18.30172685448759"><ele>1167.5</ele><time>2026-05-03T16:12:22Z</time></trkpt><trkpt lat="43.73089853858276" lon="18.302131094819106"><ele>1162.0</ele><time>2026-05-03T16:12:23Z</time></trkpt><trkpt lat="43.7309654435279" lon="18.302510779397647"><ele>1168.5</ele><time>2026-05-03T16:12:24Z</time></trkpt><trkpt lat="43.73105849430804" lon="18.302842972807827"><ele>1175.0</ele><time>2026-05-03T16:12:25Z</time></trkpt><trkpt lat="43.7311546045755" lon="18.303131015302284"><ele>1175.0</ele><time>2026-05-03T16:12:26Z</time></trkpt><trkpt lat="43.73123359660148" lon="18.303389865772182"><ele>1175.0</ele><time>2026-05-03T16:12:27Z</time></trkpt><trkpt lat="43.73128222913791" lon="18.30363897240844"><ele>1175.0</ele><time>2026-05-03T16:12:28Z</time></trkpt><trkpt lat="43.731298009545775" lon="18.303885468548696"><ele>1172.3333333333335</ele><time>2026-05-03T16:12:29Z</time></trkpt><trkpt lat="43.73126163653521" lon="18.30413005887499"><ele>1169.6666666666667</ele><time>2026-05-03T16:12:30Z</time></trkpt><trkpt lat="43.73118092177369" lon="18.304355763543352"><ele>1167.0</ele><time>2026-05-03T16:12:31Z</time></trkpt><trkpt lat="43.73110018969399" lon="18.30455914465019"><ele>1151.6666666666667</ele><time>2026-05-03T16:12:32Z</time></trkpt><trkpt lat="43.73104373643495" lon="18.304776152402233"><ele>1136.3333333333335</ele><time>2026-05-03T16:12:33Z</time></trkpt><trkpt lat="43.73102420140483" lon="18.305012975905587"><ele>1121.0</ele><time>2026-05-03T16:12:34Z</time></trkpt><trkpt lat="43.731032274709456" lon="18.305281894942382"><ele>1119.6666666666667</ele><time>2026-05-03T16:12:35Z</time></trkpt><trkpt lat="43.73105310180724" lon="18.30558071604399"><ele>1118.3333333333333</ele><time>2026-05-03T16:12:36Z</time></trkpt><trkpt lat="43.73106846246231" lon="18.305893628557516"><ele>1117.0</ele><time>2026-05-03T16:12:37Z</time></trkpt><trkpt lat="43.73108557911046" lon="18.306214209905725"><ele>1137.0</ele><time>2026-05-03T16:12:38Z</time></trkpt><trkpt lat="43.7310972734044" lon="18.30653446167528"><ele>1157.0</ele><time>2026-05-03T16:12:39Z</time></trkpt><trkpt lat="43.731109016941225" lon="18.306848152456674"><ele>1157.0</ele><time>2026-05-03T16:12:40Z</time></trkpt><trkpt lat="43.73112080864951" lon="18.307145741444174"><ele>1157.0</ele><time>2026-05-03T16:12:41Z</time></trkpt><trkpt lat="43.73113709129651" lon="18.307435200194554"><ele>1157.0</ele><time>2026-05-03T16:12:42Z</time></trkpt><trkpt lat="43.73115625756816" lon="18.30770733274767"><ele>1153.0</ele><time>2026-05-03T16:12:43Z</time></trkpt><trkpt lat="43.731184138871235" lon="18.307993503978604"><ele>1149.0</ele><time>2026-05-03T16:12:44Z</time></trkpt><trkpt lat="43.73122945531475" lon="18.308292891975487"><ele>1145.0</ele><time>2026-05-03T16:12:45Z</time></trkpt><trkpt lat="43.731301035235546" lon="18.308587292397934"><ele>1140.0</ele><time>2026-05-03T16:12:46Z</time></trkpt><trkpt lat="43.73140077275117" lon="18.308885794543272"><ele>1135.0</ele><time>2026-05-03T16:12:47Z</time></trkpt><trkpt lat="43.731508541532236" lon="18.30917595392862"><ele>1127.5</ele><time>2026-05-03T16:12:48Z</time></trkpt><trkpt lat="43.73161215374644" lon="18.30947613685172"><ele>1120.0</ele><time>2026-05-03T16:12:49Z</time></trkpt><trkpt lat="43.73170331486084" lon="18.30976092877458"><ele>1115.6666666666665</ele><time>2026-05-03T16:12:50Z</time></trkpt><trkpt lat="43.73179005450531" lon="18.310037016899525"><ele>1111.3333333333333</ele><time>2026-05-03T16:12:51Z</time></trkpt><trkpt lat="43.73188662289079" lon="18.31027719555323"><ele>1107.0</ele><time>2026-05-03T16:12:52Z</time></trkpt><trkpt lat="43.73201382453799" lon="18.310487615741277"><ele>1109.6666666666667</ele><time>2026-05-03T16:12:53Z</time></trkpt><trkpt lat="43.732170152796726" lon="18.310631162420187"><ele>1112.3333333333335</ele><time>2026-05-03T16:12:54Z</time></trkpt><trkpt lat="43.73232036747714" lon="18.310738136947595"><ele>1115.0</ele><time>2026-05-03T16:12:55Z</time></trkpt><trkpt lat="43.732443126463544" lon="18.310889410413683"><ele>1115.0</ele><time>2026-05-03T16:12:56Z</time></trkpt><trkpt lat="43.732513523825354" lon="18.31110091540223"><ele>1115.0</ele><time>2026-05-03T16:12:57Z</time></trkpt><trkpt lat="43.73255694730425" lon="18.311346652177978"><ele>1115.0</ele><time>2026-05-03T16:12:58Z</time></trkpt><trkpt lat="43.73256883696334" lon="18.311646841900277"><ele>1110.5</ele><time>2026-05-03T16:12:59Z</time></trkpt><trkpt lat="43.73255452151789" lon="18.311994486459483"><ele>1106.0</ele><time>2026-05-03T16:13:00Z</time></trkpt><trkpt lat="43.73252152947136" lon="18.312349936539597"><ele>1103.5</ele><time>2026-05-03T16:13:01Z</time></trkpt><trkpt lat="43.73250569581616" lon="18.312713901926887"><ele>1101.0</ele><time>2026-05-03T16:13:02Z</time></trkpt><trkpt lat="43.73250617923051" lon="18.3130641052365"><ele>1098.0</ele><time>2026-05-03T16:13:03Z</time></trkpt><trkpt lat="43.732508143516895" lon="18.313409498028733"><ele>1095.0</ele><time>2026-05-03T16:13:04Z</time></trkpt><trkpt lat="43.732512259428916" lon="18.31373932420136"><ele>1092.6666666666667</ele><time>2026-05-03T16:13:05Z</time></trkpt><trkpt lat="43.73251477031725" lon="18.31405506033129"><ele>1090.3333333333335</ele><time>2026-05-03T16:13:06Z</time></trkpt><trkpt lat="43.73251406986799" lon="18.31435877669133"><ele>1088.0</ele><time>2026-05-03T16:13:07Z</time></trkpt><trkpt lat="43.73251458780184" lon="18.314634482478702"><ele>1086.0</ele><time>2026-05-03T16:13:08Z</time></trkpt><trkpt lat="43.73251861541371" lon="18.314885131602633"><ele>1084.0</ele><time>2026-05-03T16:13:09Z</time></trkpt><trkpt lat="43.73252499296203" lon="18.315100682858443"><ele>1082.0</ele><time>2026-05-03T16:13:10Z</time></trkpt><trkpt lat="43.732534263082215" lon="18.315316578262898"><ele>1082.0</ele><time>2026-05-03T16:13:11Z</time></trkpt><trkpt lat="43.73255516538798" lon="18.31553145268061"><ele>1082.0</ele><time>2026-05-03T16:13:12Z</time></trkpt><trkpt lat="43.73258564084214" lon="18.315756806848317"><ele>1082.0</ele><time>2026-05-03T16:13:13Z</time></trkpt><trkpt lat="43.732618245101264" lon="18.31597074543085"><ele>1079.6666666666667</ele><time>2026-05-03T16:13:14Z</time></trkpt><trkpt lat="43.73265288526722" lon="18.316191764919253"><ele>1077.3333333333333</ele><time>2026-05-03T16:13:15Z</time></trkpt><trkpt lat="43.73268409854526" lon="18.316408488626966"><ele>1075.0</ele><time>2026-05-03T16:13:16Z</time></trkpt><trkpt lat="43.73271485909963" lon="18.316595557289507"><ele>1080.0</ele><time>2026-05-03T16:13:17Z</time></trkpt><trkpt lat="43.73275357966352" lon="18.31675659091504"><ele>1085.0</ele><time>2026-05-03T16:13:18Z</time></trkpt><trkpt lat="43.73278766702048" lon="18.316892897481264"><ele>1090.0</ele><time>2026-05-03T16:13:19Z</time></trkpt><trkpt lat="43.732828608227095" lon="18.317038901097003"><ele>1095.0</ele><time>2026-05-03T16:13:20Z</time></trkpt><trkpt lat="43.73289286106949" lon="18.317250170619875"><ele>1095.0</ele><time>2026-05-03T16:13:21Z</time></trkpt><trkpt lat="43.73296991811802" lon="18.317501452970365"><ele>1095.0</ele><time>2026-05-03T16:13:22Z</time></trkpt><trkpt lat="43.73305722994871" lon="18.317753879360342"><ele>1095.0</ele><time>2026-05-03T16:13:23Z</time></trkpt><trkpt lat="43.733149099839544" lon="18.317995250861678"><ele>1087.6666666666667</ele><time>2026-05-03T16:13:24Z</time></trkpt><trkpt lat="43.733232907560286" lon="18.318210774886158"><ele>1080.3333333333335</ele><time>2026-05-03T16:13:25Z</time></trkpt><trkpt lat="43.73332454698551" lon="18.31842434181468"><ele>1073.0</ele><time>2026-05-03T16:13:26Z</time></trkpt><trkpt lat="43.733432309734106" lon="18.318669881324677"><ele>1085.5</ele><time>2026-05-03T16:13:27Z</time></trkpt><trkpt lat="43.733556063398495" lon="18.318957288563524"><ele>1098.0</ele><time>2026-05-03T16:13:28Z</time></trkpt><trkpt lat="43.733695765539615" lon="18.31929429771458"><ele>1098.0</ele><time>2026-05-03T16:13:29Z</time></trkpt><trkpt lat="43.733834215599906" lon="18.319662145513277"><ele>1098.0</ele><time>2026-05-03T16:13:30Z</time></trkpt><trkpt lat="43.73396762096007" lon="18.32005528605706"><ele>1088.5</ele><time>2026-05-03T16:13:31Z</time></trkpt><trkpt lat="43.734088263662095" lon="18.320432700576415"><ele>1079.0</ele><time>2026-05-03T16:13:32Z</time></trkpt><trkpt lat="43.734191951411496" lon="18.32079592267152"><ele>1068.5</ele><time>2026-05-03T16:13:33Z</time></trkpt><trkpt lat="43.73428183051798" lon="18.321140541942434"><ele>1058.0</ele><time>2026-05-03T16:13:34Z</time></trkpt><trkpt lat="43.7343805100472" lon="18.321473424330208"><ele>1068.0</ele><time>2026-05-03T16:13:35Z</time></trkpt><trkpt lat="43.73449276529406" lon="18.321787090217605"><ele>1078.0</ele><time>2026-05-03T16:13:36Z</time></trkpt><trkpt lat="43.734626046089325" lon="18.32209624144036"><ele>1066.0</ele><time>2026-05-03T16:13:37Z</time></trkpt><trkpt lat="43.734772859517506" lon="18.322405313646183"><ele>1054.0</ele><time>2026-05-03T16:13:38Z</time></trkpt><trkpt lat="43.73493801040891" lon="18.322718348543052"><ele>1054.0</ele><time>2026-05-03T16:13:39Z</time></trkpt><trkpt lat="43.735117045748524" lon="18.323036853801543"><ele>1054.0</ele><time>2026-05-03T16:13:40Z</time></trkpt><trkpt lat="43.7353028476497" lon="18.323351336435067"><ele>1058.5</ele><time>2026-05-03T16:13:41Z</time></trkpt><trkpt lat="43.73548682206778" lon="18.323675881761122"><ele>1063.0</ele><time>2026-05-03T16:13:42Z</time></trkpt><trkpt lat="43.73566273518469" lon="18.32398822934836"><ele>1050.5</ele><time>2026-05-03T16:13:43Z</time></trkpt><trkpt lat="43.735843026851924" lon="18.324288219185412"><ele>1038.0</ele><time>2026-05-03T16:13:44Z</time></trkpt><trkpt lat="43.73603131494853" lon="18.32456301866146"><ele>1038.5</ele><time>2026-05-03T16:13:45Z</time></trkpt><trkpt lat="43.73622321452373" lon="18.32482430387799"><ele>1039.0</ele><time>2026-05-03T16:13:46Z</time></trkpt><trkpt lat="43.73641467051889" lon="18.32508729844586"><ele>1039.0</ele><time>2026-05-03T16:13:47Z</time></trkpt><trkpt lat="43.73661121975643" lon="18.3253628707896"><ele>1039.0</ele><time>2026-05-03T16:13:48Z</time></trkpt><trkpt lat="43.73681355254621" lon="18.325642428473582"><ele>1041.0</ele><time>2026-05-03T16:13:49Z</time></trkpt><trkpt lat="43.73700890238142" lon="18.325916775509338"><ele>1043.0</ele><time>2026-05-03T16:13:50Z</time></trkpt><trkpt lat="43.737205096311904" lon="18.32619182795643"><ele>1031.0</ele><time>2026-05-03T16:13:51Z</time></trkpt><trkpt lat="43.73739218344385" lon="18.32645207932417"><ele>1019.0</ele><time>2026-05-03T16:13:52Z</time></trkpt><trkpt lat="43.73757386838605" lon="18.32670671423875"><ele>1033.0</ele><time>2026-05-03T16:13:53Z</time></trkpt><trkpt lat="43.737749687727316" lon="18.326951879606543"><ele>1047.0</ele><time>2026-05-03T16:13:54Z</time></trkpt><trkpt lat="43.737914716400766" lon="18.327181378282315"><ele>1038.6666666666667</ele><time>2026-05-03T16:13:55Z</time></trkpt><trkpt lat="43.73807101861298" lon="18.327402511289222"><ele>1030.3333333333335</ele><time>2026-05-03T16:13:56Z</time></trkpt><trkpt lat="43.73822029814128" lon="18.327614878306214"><ele>1022.0</ele><time>2026-05-03T16:13:57Z</time></trkpt><trkpt lat="43.73836603887771" lon="18.327825633598387"><ele>1022.0</ele><time>2026-05-03T16:13:58Z</time></trkpt><trkpt lat="43.73850877394972" lon="18.328039996560832"><ele>1022.0</ele><time>2026-05-03T16:13:59Z</time></trkpt><trkpt lat="43.73865636898376" lon="18.328254818926634"><ele>1022.0</ele><time>2026-05-03T16:14:00Z</time></trkpt><trkpt lat="43.73880934697572" lon="18.328462143778896"><ele>1022.3333333333334</ele><time>2026-05-03T16:14:01Z</time></trkpt><trkpt lat="43.738973667416076" lon="18.3286503933516"><ele>1022.6666666666667</ele><time>2026-05-03T16:14:02Z</time></trkpt><trkpt lat="43.739149310474026" lon="18.328819136199222"><ele>1023.0</ele><time>2026-05-03T16:14:03Z</time></trkpt><trkpt lat="43.73932831798067" lon="18.328968955121486"><ele>1019.0</ele><time>2026-05-03T16:14:04Z</time></trkpt><trkpt lat="43.739513544823865" lon="18.32909652753186"><ele>1015.0</ele><time>2026-05-03T16:14:05Z</time></trkpt><trkpt lat="43.73970327780074" lon="18.329207637153292"><ele>1011.0</ele><time>2026-05-03T16:14:06Z</time></trkpt><trkpt lat="43.7399080502536" lon="18.32930054324752"><ele>1011.0</ele><time>2026-05-03T16:14:07Z</time></trkpt><trkpt lat="43.74014399089209" lon="18.329375940604"><ele>1011.0</ele><time>2026-05-03T16:14:08Z</time></trkpt><trkpt lat="43.74040498423521" lon="18.329427744211095"><ele>1011.5</ele><time>2026-05-03T16:14:09Z</time></trkpt><trkpt lat="43.7406747842503" lon="18.329496299630904"><ele>1012.0</ele><time>2026-05-03T16:14:10Z</time></trkpt><trkpt lat="43.74095582263285" lon="18.329593678946434"><ele>1011.5</ele><time>2026-05-03T16:14:11Z</time></trkpt><trkpt lat="43.741249211480515" lon="18.329702166345257"><ele>1011.0</ele><time>2026-05-03T16:14:12Z</time></trkpt><trkpt lat="43.74156563905226" lon="18.329816505212598"><ele>1000.0</ele><time>2026-05-03T16:14:13Z</time></trkpt><trkpt lat="43.74187872476938" lon="18.329924053591615"><ele>989.0</ele><time>2026-05-03T16:14:14Z</time></trkpt><trkpt lat="43.74216777703165" lon="18.330020401457915"><ele>989.0</ele><time>2026-05-03T16:14:15Z</time></trkpt><trkpt lat="43.74245127674694" lon="18.330109470641105"><ele>989.0</ele><time>2026-05-03T16:14:16Z</time></trkpt><trkpt lat="43.74273542905371" lon="18.330192634462044"><ele>990.0</ele><time>2026-05-03T16:14:17Z</time></trkpt><trkpt lat="43.74302599988732" lon="18.330258519755265"><ele>991.0</ele><time>2026-05-03T16:14:18Z</time></trkpt><trkpt lat="43.7433108606552" lon="18.3303082093492"><ele>990.0</ele><time>2026-05-03T16:14:19Z</time></trkpt><trkpt lat="43.743595195494166" lon="18.33034405612679"><ele>989.0</ele><time>2026-05-03T16:14:20Z</time></trkpt><trkpt lat="43.74387030836624" lon="18.330364949254726"><ele>989.0</ele><time>2026-05-03T16:14:21Z</time></trkpt><trkpt lat="43.744140193034156" lon="18.33035851928688"><ele>989.0</ele><time>2026-05-03T16:14:22Z</time></trkpt><trkpt lat="43.744399705934626" lon="18.330329311986677"><ele>982.0</ele><time>2026-05-03T16:14:23Z</time></trkpt><trkpt lat="43.74465057174229" lon="18.330275022988438"><ele>975.0</ele><time>2026-05-03T16:14:24Z</time></trkpt><trkpt lat="43.74489679756897" lon="18.33021707628635"><ele>975.0</ele><time>2026-05-03T16:14:25Z</time></trkpt><trkpt lat="43.74515717894712" lon="18.33015561111286"><ele>975.0</ele><time>2026-05-03T16:14:26Z</time></trkpt><trkpt lat="43.745416627223015" lon="18.330126660011867"><ele>970.5</ele><time>2026-05-03T16:14:27Z</time></trkpt><trkpt lat="43.74568703225455" lon="18.33012296523426"><ele>966.0</ele><time>2026-05-03T16:14:28Z</time></trkpt><trkpt lat="43.74595507285865" lon="18.330102086409074"><ele>960.0</ele><time>2026-05-03T16:14:29Z</time></trkpt><trkpt lat="43.74621898979052" lon="18.33006548972917"><ele>954.0</ele><time>2026-05-03T16:14:30Z</time></trkpt><trkpt lat="43.746468722515225" lon="18.33001704952119"><ele>954.0</ele><time>2026-05-03T16:14:31Z</time></trkpt><trkpt lat="43.746709672508544" lon="18.32998151469447"><ele>954.0</ele><time>2026-05-03T16:14:32Z</time></trkpt><trkpt lat="43.746957731634254" lon="18.32999112618945"><ele>959.0</ele><time>2026-05-03T16:14:33Z</time></trkpt><trkpt lat="43.74721039392879" lon="18.33007605053466"><ele>964.0</ele><time>2026-05-03T16:14:34Z</time></trkpt><trkpt lat="43.74746482432317" lon="18.330234673123147"><ele>972.5</ele><time>2026-05-03T16:14:35Z</time></trkpt><trkpt lat="43.74772251482732" lon="18.33042169731574"><ele>981.0</ele><time>2026-05-03T16:14:36Z</time></trkpt><trkpt lat="43.747977029197344" lon="18.330591522844948"><ele>960.5</ele><time>2026-05-03T16:14:37Z</time></trkpt><trkpt lat="43.74822710465281" lon="18.33074898906949"><ele>940.0</ele><time>2026-05-03T16:14:38Z</time></trkpt><trkpt lat="43.74847855152714" lon="18.33090194695215"><ele>948.0</ele><time>2026-05-03T16:14:39Z</time></trkpt><trkpt lat="43.74873074129715" lon="18.33105599397199"><ele>956.0</ele><time>2026-05-03T16:14:40Z</time></trkpt><trkpt lat="43.748984746425634" lon="18.331211832384973"><ele>956.0</ele><time>2026-05-03T16:14:41Z</time></trkpt><trkpt lat="43.749229969694376" lon="18.331362043319267"><ele>956.0</ele><time>2026-05-03T16:14:42Z</time></trkpt><trkpt lat="43.74946123612524" lon="18.33150663469063"><ele>945.0</ele><time>2026-05-03T16:14:43Z</time></trkpt><trkpt lat="43.74967670349145" lon="18.331638113450175"><ele>934.0</ele><time>2026-05-03T16:14:44Z</time></trkpt><trkpt lat="43.749891722074196" lon="18.331753453687405"><ele>934.0</ele><time>2026-05-03T16:14:45Z</time></trkpt><trkpt lat="43.75012119518837" lon="18.331850656137632"><ele>934.0</ele><time>2026-05-03T16:14:46Z</time></trkpt><trkpt lat="43.750358836584645" lon="18.33191600092303"><ele>934.0</ele><time>2026-05-03T16:14:47Z</time></trkpt><trkpt lat="43.75058540393287" lon="18.331955291278895"><ele>934.0</ele><time>2026-05-03T16:14:48Z</time></trkpt><trkpt lat="43.750800413468426" lon="18.331991528282586"><ele>934.0</ele><time>2026-05-03T16:14:49Z</time></trkpt><trkpt lat="43.75099293796978" lon="18.332035193374296"><ele>934.3333333333333</ele><time>2026-05-03T16:14:50Z</time></trkpt><trkpt lat="43.75117480110636" lon="18.332079264231194"><ele>934.6666666666667</ele><time>2026-05-03T16:14:51Z</time></trkpt><trkpt lat="43.75133884796537" lon="18.33214448129488"><ele>935.0</ele><time>2026-05-03T16:14:52Z</time></trkpt><trkpt lat="43.75148521296356" lon="18.33224757419112"><ele>930.0</ele><time>2026-05-03T16:14:53Z</time></trkpt><trkpt lat="43.75161034541099" lon="18.332407970862505"><ele>925.0</ele><time>2026-05-03T16:14:54Z</time></trkpt><trkpt lat="43.75170852288658" lon="18.3326126580981"><ele>920.0</ele><time>2026-05-03T16:14:55Z</time></trkpt><trkpt lat="43.75178107385" lon="18.332839328097073"><ele>921.3333333333334</ele><time>2026-05-03T16:14:56Z</time></trkpt><trkpt lat="43.75184811355302" lon="18.33308533634482"><ele>922.6666666666667</ele><time>2026-05-03T16:14:57Z</time></trkpt><trkpt lat="43.75191482098237" lon="18.333323939113978"><ele>924.0</ele><time>2026-05-03T16:14:58Z</time></trkpt><trkpt lat="43.75198651342412" lon="18.33354562401718"><ele>924.0</ele><time>2026-05-03T16:14:59Z</time></trkpt><trkpt lat="43.75205689369449" lon="18.333764737042653"><ele>924.0</ele><time>2026-05-03T16:15:00Z</time></trkpt><trkpt lat="43.752131267051496" lon="18.33398619516879"><ele>924.0</ele><time>2026-05-03T16:15:01Z</time></trkpt><trkpt lat="43.75222477558591" lon="18.334201208065075"><ele>919.0</ele><time>2026-05-03T16:15:02Z</time></trkpt><trkpt lat="43.75235580407894" lon="18.334405939432624"><ele>914.0</ele><time>2026-05-03T16:15:03Z</time></trkpt><trkpt lat="43.75249819467435" lon="18.33459058322467"><ele>909.0</ele><time>2026-05-03T16:15:04Z</time></trkpt><trkpt lat="43.752657102132154" lon="18.33474965559126"><ele>907.6666666666667</ele><time>2026-05-03T16:15:05Z</time></trkpt><trkpt lat="43.75282579636859" lon="18.334881400273403"><ele>906.3333333333334</ele><time>2026-05-03T16:15:06Z</time></trkpt><trkpt lat="43.75300722701317" lon="18.33498956925326"><ele>905.0</ele><time>2026-05-03T16:15:07Z</time></trkpt><trkpt lat="43.75318107500394" lon="18.335075723490966"><ele>905.0</ele><time>2026-05-03T16:15:08Z</time></trkpt><trkpt lat="43.75334545844305" lon="18.33516640853962"><ele>905.0</ele><time>2026-05-03T16:15:09Z</time></trkpt><trkpt lat="43.75350180937253" lon="18.335257342849673"><ele>905.0</ele><time>2026-05-03T16:15:10Z</time></trkpt><trkpt lat="43.753642595405196" lon="18.335346004351756"><ele>903.6666666666667</ele><time>2026-05-03T16:15:11Z</time></trkpt><trkpt lat="43.753767829060756" lon="18.33547410266653"><ele>902.3333333333333</ele><time>2026-05-03T16:15:12Z</time></trkpt><trkpt lat="43.75385516005606" lon="18.3356573117028"><ele>901.0</ele><time>2026-05-03T16:15:13Z</time></trkpt><trkpt lat="43.753918900216746" lon="18.33588154371575"><ele>901.0</ele><time>2026-05-03T16:15:14Z</time></trkpt><trkpt lat="43.75397902595673" lon="18.33612778953674"><ele>901.0</ele><time>2026-05-03T16:15:15Z</time></trkpt><trkpt lat="43.75404229784926" lon="18.336370739936314"><ele>901.0</ele><time>2026-05-03T16:15:16Z</time></trkpt><trkpt lat="43.754113941981636" lon="18.336609062601735"><ele>897.0</ele><time>2026-05-03T16:15:17Z</time></trkpt><trkpt lat="43.754198381319945" lon="18.33684619258455"><ele>893.0</ele><time>2026-05-03T16:15:18Z</time></trkpt><trkpt lat="43.75429875116984" lon="18.33708546723527"><ele>889.0</ele><time>2026-05-03T16:15:19Z</time></trkpt><trkpt lat="43.754429428267564" lon="18.337327682054962"><ele>889.0</ele><time>2026-05-03T16:15:20Z</time></trkpt><trkpt lat="43.75458550581664" lon="18.337564871802908"><ele>889.0</ele><time>2026-05-03T16:15:21Z</time></trkpt><trkpt lat="43.754729566864555" lon="18.337771074261582"><ele>889.0</ele><time>2026-05-03T16:15:22Z</time></trkpt><trkpt lat="43.75485639186759" lon="18.337959361079765"><ele>890.3333333333333</ele><time>2026-05-03T16:15:23Z</time></trkpt><trkpt lat="43.75497717965584" lon="18.33813795244438"><ele>891.6666666666667</ele><time>2026-05-03T16:15:24Z</time></trkpt><trkpt lat="43.75509404083701" lon="18.338313665744575"><ele>893.0</ele><time>2026-05-03T16:15:25Z</time></trkpt><trkpt lat="43.75521213529121" lon="18.338491480327168"><ele>893.0</ele><time>2026-05-03T16:15:26Z</time></trkpt><trkpt lat="43.75533681266741" lon="18.338676578129796"><ele>893.0</ele><time>2026-05-03T16:15:27Z</time></trkpt><trkpt lat="43.75545556159502" lon="18.33885940045254"><ele>893.0</ele><time>2026-05-03T16:15:28Z</time></trkpt><trkpt lat="43.75557370002135" lon="18.339030757738527"><ele>885.3333333333334</ele><time>2026-05-03T16:15:29Z</time></trkpt><trkpt lat="43.75569171219228" lon="18.339200815062803"><ele>877.6666666666667</ele><time>2026-05-03T16:15:30Z</time></trkpt><trkpt lat="43.75580779077428" lon="18.339379299814816"><ele>870.0</ele><time>2026-05-03T16:15:31Z</time></trkpt><trkpt lat="43.75592858789935" lon="18.339562842185465"><ele>869.6666666666667</ele><time>2026-05-03T16:15:32Z</time></trkpt><trkpt lat="43.756054111566314" lon="18.339753766641355"><ele>869.3333333333334</ele><time>2026-05-03T16:15:33Z</time></trkpt><trkpt lat="43.75618472075636" lon="18.33995055294173"><ele>869.0</ele><time>2026-05-03T16:15:34Z</time></trkpt><trkpt lat="43.756311093603095" lon="18.340140221973414"><ele>869.0</ele><time>2026-05-03T16:15:35Z</time></trkpt><trkpt lat="43.75643368938539" lon="18.340320914012906"><ele>869.0</ele><time>2026-05-03T16:15:36Z</time></trkpt><trkpt lat="43.75655133919807" lon="18.34049854741509"><ele>869.0</ele><time>2026-05-03T16:15:37Z</time></trkpt><trkpt lat="43.75666856211799" lon="18.34068066521348"><ele>867.3333333333334</ele><time>2026-05-03T16:15:38Z</time></trkpt><trkpt lat="43.75678800316677" lon="18.340861598168036"><ele>865.6666666666667</ele><time>2026-05-03T16:15:39Z</time></trkpt><trkpt lat="43.75690040320632" lon="18.341032124749404"><ele>864.0</ele><time>2026-05-03T16:15:40Z</time></trkpt><trkpt lat="43.75700928948228" lon="18.341201788673466"><ele>864.0</ele><time>2026-05-03T16:15:41Z</time></trkpt><trkpt lat="43.75711111486719" lon="18.341360776438187"><ele>864.0</ele><time>2026-05-03T16:15:42Z</time></trkpt><trkpt lat="43.75721273656467" lon="18.341516999102392"><ele>864.0</ele><time>2026-05-03T16:15:43Z</time></trkpt><trkpt lat="43.75731250239739" lon="18.3416665950599"><ele>860.75</ele><time>2026-05-03T16:15:44Z</time></trkpt><trkpt lat="43.75740963373073" lon="18.34181308735692"><ele>857.5</ele><time>2026-05-03T16:15:45Z</time></trkpt><trkpt lat="43.75750440842654" lon="18.341952274104347"><ele>854.25</ele><time>2026-05-03T16:15:46Z</time></trkpt><trkpt lat="43.75760345909124" lon="18.34208487879322"><ele>851.0</ele><time>2026-05-03T16:15:47Z</time></trkpt><trkpt lat="43.75771622034022" lon="18.34222230276251"><ele>844.3333333333334</ele><time>2026-05-03T16:15:48Z</time></trkpt><trkpt lat="43.75785643108756" lon="18.3423583751869"><ele>837.6666666666667</ele><time>2026-05-03T16:15:49Z</time></trkpt><trkpt lat="43.758014280906856" lon="18.342471261213998"><ele>831.0</ele><time>2026-05-03T16:15:50Z</time></trkpt><trkpt lat="43.75818454160162" lon="18.342570356806796"><ele>831.0</ele><time>2026-05-03T16:15:51Z</time></trkpt><trkpt lat="43.7583619943804" lon="18.34266777784308"><ele>831.0</ele><time>2026-05-03T16:15:52Z</time></trkpt><trkpt lat="43.75854961240353" lon="18.342742121048925"><ele>831.0</ele><time>2026-05-03T16:15:53Z</time></trkpt><trkpt lat="43.7587409177177" lon="18.342797751106115"><ele>832.0</ele><time>2026-05-03T16:15:54Z</time></trkpt><trkpt lat="43.75893022523035" lon="18.342821568463055"><ele>833.0</ele><time>2026-05-03T16:15:55Z</time></trkpt><trkpt lat="43.75911610323395" lon="18.342809730991014"><ele>834.0</ele><time>2026-05-03T16:15:56Z</time></trkpt><trkpt lat="43.759292273501885" lon="18.342761992923247"><ele>830.0</ele><time>2026-05-03T16:15:57Z</time></trkpt><trkpt lat="43.75945712758736" lon="18.342696903199926"><ele>826.0</ele><time>2026-05-03T16:15:58Z</time></trkpt><trkpt lat="43.759609000936905" lon="18.34261697386244"><ele>822.0</ele><time>2026-05-03T16:15:59Z</time></trkpt><trkpt lat="43.75975411296645" lon="18.342509642861057"><ele>822.0</ele><time>2026-05-03T16:16:00Z</time></trkpt><trkpt lat="43.759891220724114" lon="18.34237901006652"><ele>822.0</ele><time>2026-05-03T16:16:01Z</time></trkpt><trkpt lat="43.76001084133166" lon="18.34222939416081"><ele>822.0</ele><time>2026-05-03T16:16:02Z</time></trkpt><trkpt lat="43.760132445841975" lon="18.34206539035093"><ele>822.0</ele><time>2026-05-03T16:16:03Z</time></trkpt><trkpt lat="43.76024622588159" lon="18.34190067205115"><ele>822.0</ele><time>2026-05-03T16:16:04Z</time></trkpt><trkpt lat="43.760363231681765" lon="18.341743816842225"><ele>822.0</ele><time>2026-05-03T16:16:05Z</time></trkpt><trkpt lat="43.76048313025853" lon="18.341607887688134"><ele>822.0</ele><time>2026-05-03T16:16:06Z</time></trkpt><trkpt lat="43.76061266378651" lon="18.341505561147212"><ele>822.0</ele><time>2026-05-03T16:16:07Z</time></trkpt><trkpt lat="43.76075250779614" lon="18.34143886591073"><ele>822.0</ele><time>2026-05-03T16:16:08Z</time></trkpt><trkpt lat="43.760895158539" lon="18.341430647969347"><ele>822.0</ele><time>2026-05-03T16:16:09Z</time></trkpt><trkpt lat="43.76102773694207" lon="18.341515631871204"><ele>819.75</ele><time>2026-05-03T16:16:10Z</time></trkpt><trkpt lat="43.76113289472294" lon="18.341649560786607"><ele>817.5</ele><time>2026-05-03T16:16:11Z</time></trkpt><trkpt lat="43.76119844706035" lon="18.341798343698738"><ele>815.25</ele><time>2026-05-03T16:16:12Z</time></trkpt><trkpt lat="43.76123303815523" lon="18.34196427906534"><ele>813.0</ele><time>2026-05-03T16:16:13Z</time></trkpt><trkpt lat="43.7612375823293" lon="18.342135796215537"><ele>811.5</ele><time>2026-05-03T16:16:14Z</time></trkpt><trkpt lat="43.76120858584202" lon="18.342303901178706"><ele>810.0</ele><time>2026-05-03T16:16:15Z</time></trkpt><trkpt lat="43.76114836095181" lon="18.342458366747135"><ele>808.5</ele><time>2026-05-03T16:16:16Z</time></trkpt><trkpt lat="43.76105936806436" lon="18.34258994551992"><ele>807.0</ele><time>2026-05-03T16:16:17Z</time></trkpt><trkpt lat="43.76094549443806" lon="18.342705890024828"><ele>807.0</ele><time>2026-05-03T16:16:18Z</time></trkpt><trkpt lat="43.76081902459813" lon="18.34283235414275"><ele>807.0</ele><time>2026-05-03T16:16:19Z</time></trkpt><trkpt lat="43.760689960907285" lon="18.34296920656382"><ele>807.0</ele><time>2026-05-03T16:16:20Z</time></trkpt><trkpt lat="43.76055785772799" lon="18.343111953897353"><ele>807.6666666666667</ele><time>2026-05-03T16:16:21Z</time></trkpt><trkpt lat="43.760409551959846" lon="18.343264904084254"><ele>808.3333333333334</ele><time>2026-05-03T16:16:22Z</time></trkpt><trkpt lat="43.7602471122953" lon="18.343424191477258"><ele>809.0</ele><time>2026-05-03T16:16:23Z</time></trkpt><trkpt lat="43.76007503326888" lon="18.343582248708607"><ele>809.0</ele><time>2026-05-03T16:16:24Z</time></trkpt><trkpt lat="43.759915547945226" lon="18.34372934751366"><ele>809.0</ele><time>2026-05-03T16:16:25Z</time></trkpt><trkpt lat="43.759753687047315" lon="18.343860966954846"><ele>809.0</ele><time>2026-05-03T16:16:26Z</time></trkpt><trkpt lat="43.75959271943307" lon="18.343966889123617"><ele>803.6666666666667</ele><time>2026-05-03T16:16:27Z</time></trkpt><trkpt lat="43.75943051853788" lon="18.344047692372495"><ele>798.3333333333333</ele><time>2026-05-03T16:16:28Z</time></trkpt><trkpt lat="43.75927519868354" lon="18.344113415499308"><ele>793.0</ele><time>2026-05-03T16:16:29Z</time></trkpt><trkpt lat="43.759128305991645" lon="18.344168121649258"><ele>792.75</ele><time>2026-05-03T16:16:30Z</time></trkpt><trkpt lat="43.75898564412292" lon="18.344211795784414"><ele>792.5</ele><time>2026-05-03T16:16:31Z</time></trkpt><trkpt lat="43.75884010000766" lon="18.344255317293328"><ele>792.25</ele><time>2026-05-03T16:16:32Z</time></trkpt><trkpt lat="43.758693658533154" lon="18.344286222053405"><ele>792.0</ele><time>2026-05-03T16:16:33Z</time></trkpt><trkpt lat="43.758554160383426" lon="18.344299397241596"><ele>791.0</ele><time>2026-05-03T16:16:34Z</time></trkpt><trkpt lat="43.758431068993644" lon="18.344303026242482"><ele>790.0</ele><time>2026-05-03T16:16:35Z</time></trkpt><trkpt lat="43.758320708405165" lon="18.344296912879063"><ele>789.0</ele><time>2026-05-03T16:16:36Z</time></trkpt><trkpt lat="43.758223965297546" lon="18.344290375159787"><ele>788.0</ele><time>2026-05-03T16:16:37Z</time></trkpt><trkpt lat="43.75814078999045" lon="18.34427667426127"><ele>787.0</ele><time>2026-05-03T16:16:38Z</time></trkpt><trkpt lat="43.758057393583584" lon="18.344268395868266"><ele>787.0</ele><time>2026-05-03T16:16:39Z</time></trkpt><trkpt lat="43.757970312764144" lon="18.34425340777164"><ele>787.0</ele><time>2026-05-03T16:16:40Z</time></trkpt><trkpt lat="43.75788693934931" lon="18.344231383241663"><ele>787.0</ele><time>2026-05-03T16:16:41Z</time></trkpt><trkpt lat="43.75779079542895" lon="18.34419750372787"><ele>787.0</ele><time>2026-05-03T16:16:42Z</time></trkpt><trkpt lat="43.75769367820538" lon="18.344160870540467"><ele>787.0</ele><time>2026-05-03T16:16:43Z</time></trkpt><trkpt lat="43.75760033646785" lon="18.34412141551351"><ele>784.8</ele><time>2026-05-03T16:16:44Z</time></trkpt><trkpt lat="43.75751435175064" lon="18.34407968611953"><ele>782.6</ele><time>2026-05-03T16:16:45Z</time></trkpt><trkpt lat="43.75743602608955" lon="18.34403457781716"><ele>780.4</ele><time>2026-05-03T16:16:46Z</time></trkpt><trkpt lat="43.7573466246967" lon="18.343975714596166"><ele>778.1999999999999</ele><time>2026-05-03T16:16:47Z</time></trkpt><trkpt lat="43.75725565887515" lon="18.343917455421224"><ele>776.0</ele><time>2026-05-03T16:16:48Z</time></trkpt><trkpt lat="43.75714746100558" lon="18.34384919969848"><ele>778.5</ele><time>2026-05-03T16:16:49Z</time></trkpt><trkpt lat="43.75701291498982" lon="18.343765010843956"><ele>781.0</ele><time>2026-05-03T16:16:50Z</time></trkpt><trkpt lat="43.75687842450357" lon="18.343676267085538"><ele>783.5</ele><time>2026-05-03T16:16:51Z</time></trkpt><trkpt lat="43.75676020685438" lon="18.34359225894788"><ele>786.0</ele><time>2026-05-03T16:16:52Z</time></trkpt><trkpt lat="43.756645616752" lon="18.343512611515347"><ele>786.0</ele><time>2026-05-03T16:16:53Z</time></trkpt><trkpt lat="43.75652965072778" lon="18.343425412076325"><ele>786.0</ele><time>2026-05-03T16:16:54Z</time></trkpt><trkpt lat="43.756411282751536" lon="18.34333167995752"><ele>786.0</ele><time>2026-05-03T16:16:55Z</time></trkpt><trkpt lat="43.75629665881707" lon="18.343242935701458"><ele>786.0</ele><time>2026-05-03T16:16:56Z</time></trkpt><trkpt lat="43.75619394892275" lon="18.343155107333587"><ele>786.0</ele><time>2026-05-03T16:16:57Z</time></trkpt><trkpt lat="43.756100516755346" lon="18.343071498301263"><ele>786.0</ele><time>2026-05-03T16:16:58Z</time></trkpt><trkpt lat="43.756019250080584" lon="18.342982133427036"><ele>786.0</ele><time>2026-05-03T16:16:59Z</time></trkpt><trkpt lat="43.75593343329355" lon="18.34289080162679"><ele>786.0</ele><time>2026-05-03T16:17:00Z</time></trkpt><trkpt lat="43.755842719551346" lon="18.342809044985785"><ele>786.0</ele><time>2026-05-03T16:17:01Z</time></trkpt><trkpt lat="43.75575471080056" lon="18.342726212440212"><ele>785.8</ele><time>2026-05-03T16:17:02Z</time></trkpt><trkpt lat="43.75566486753751" lon="18.34264946558457"><ele>785.5999999999999</ele><time>2026-05-03T16:17:03Z</time></trkpt><trkpt lat="43.755568462391096" lon="18.342590702558127"><ele>785.4</ele><time>2026-05-03T16:17:04Z</time></trkpt><trkpt lat="43.75545886961518" lon="18.34254929065196"><ele>785.2</ele><time>2026-05-03T16:17:05Z</time></trkpt><trkpt lat="43.75534523467489" lon="18.3425472383262"><ele>785.0</ele><time>2026-05-03T16:17:06Z</time></trkpt><trkpt lat="43.75523042342239" lon="18.342566904998858"><ele>782.4</ele><time>2026-05-03T16:17:07Z</time></trkpt><trkpt lat="43.75512561684522" lon="18.342596628918642"><ele>779.8</ele><time>2026-05-03T16:17:08Z</time></trkpt><trkpt lat="43.75502937591291" lon="18.342636554621514"><ele>777.2</ele><time>2026-05-03T16:17:09Z</time></trkpt><trkpt lat="43.75492803215543" lon="18.342663742138566"><ele>774.6</ele><time>2026-05-03T16:17:10Z</time></trkpt><trkpt lat="43.75482039803582" lon="18.342684299281878"><ele>772.0</ele><time>2026-05-03T16:17:11Z</time></trkpt><trkpt lat="43.75470975193849" lon="18.342666070538286"><ele>772.0</ele><time>2026-05-03T16:17:12Z</time></trkpt><trkpt lat="43.75459471418753" lon="18.342624803927283"><ele>772.0</ele><time>2026-05-03T16:17:13Z</time></trkpt><trkpt lat="43.75448272739659" lon="18.342555870488614"><ele>772.0</ele><time>2026-05-03T16:17:14Z</time></trkpt><trkpt lat="43.75438191703814" lon="18.342475639878153"><ele>772.0</ele><time>2026-05-03T16:17:15Z</time></trkpt><trkpt lat="43.75428773268116" lon="18.342400095985088"><ele>770.8</ele><time>2026-05-03T16:17:16Z</time></trkpt><trkpt lat="43.7541819857318" lon="18.34234748536079"><ele>769.6</ele><time>2026-05-03T16:17:17Z</time></trkpt><trkpt lat="43.75408490978566" lon="18.342331403691666"><ele>768.4</ele><time>2026-05-03T16:17:18Z</time></trkpt><trkpt lat="43.75398599341574" lon="18.342348519018195"><ele>767.1999999999999</ele><time>2026-05-03T16:17:19Z</time></trkpt><trkpt lat="43.75389226404651" lon="18.342396252186212"><ele>766.0</ele><time>2026-05-03T16:17:20Z</time></trkpt><trkpt lat="43.75382827783175" lon="18.342484975388345"><ele>766.0</ele><time>2026-05-03T16:17:21Z</time></trkpt><trkpt lat="43.75380022875127" lon="18.3426030265832"><ele>766.0</ele><time>2026-05-03T16:17:22Z</time></trkpt><trkpt lat="43.75381466201897" lon="18.34272707005559"><ele>766.0</ele><time>2026-05-03T16:17:23Z</time></trkpt><trkpt lat="43.75384248549904" lon="18.342839552581477"><ele>766.0</ele><time>2026-05-03T16:17:24Z</time></trkpt><trkpt lat="43.75390543309917" lon="18.342937256196905"><ele>766.0</ele><time>2026-05-03T16:17:25Z</time></trkpt><trkpt lat="43.75399355443777" lon="18.34300687752291"><ele>763.5</ele><time>2026-05-03T16:17:26Z</time></trkpt><trkpt lat="43.754094016196575" lon="18.34307047501436"><ele>761.0</ele><time>2026-05-03T16:17:27Z</time></trkpt><trkpt lat="43.75420400220364" lon="18.34312827133227"><ele>758.5</ele><time>2026-05-03T16:17:28Z</time></trkpt><trkpt lat="43.75432089259624" lon="18.343174187411265"><ele>756.0</ele><time>2026-05-03T16:17:29Z</time></trkpt><trkpt lat="43.75444028392812" lon="18.343218134728904"><ele>756.0</ele><time>2026-05-03T16:17:30Z</time></trkpt><trkpt lat="43.7545566184667" lon="18.343256875319252"><ele>756.0</ele><time>2026-05-03T16:17:31Z</time></trkpt><trkpt lat="43.7546753255094" lon="18.343293070365274"><ele>756.0</ele><time>2026-05-03T16:17:32Z</time></trkpt><trkpt lat="43.75479105854847" lon="18.343311050917308"><ele>756.0</ele><time>2026-05-03T16:17:33Z</time></trkpt><trkpt lat="43.75490898509282" lon="18.34335283476844"><ele>756.0</ele><time>2026-05-03T16:17:34Z</time></trkpt><trkpt lat="43.75502402326471" lon="18.3433980708216"><ele>756.0</ele><time>2026-05-03T16:17:35Z</time></trkpt><trkpt lat="43.755154137086535" lon="18.343442868902986"><ele>756.0</ele><time>2026-05-03T16:17:36Z</time></trkpt><trkpt lat="43.75527862690463" lon="18.343504612591744"><ele>756.0</ele><time>2026-05-03T16:17:37Z</time></trkpt><trkpt lat="43.75540028820418" lon="18.343572448432653"><ele>757.25</ele><time>2026-05-03T16:17:38Z</time></trkpt><trkpt lat="43.755515148825694" lon="18.343649384719722"><ele>758.5</ele><time>2026-05-03T16:17:39Z</time></trkpt><trkpt lat="43.75563451756903" lon="18.343740441677735"><ele>759.75</ele><time>2026-05-03T16:17:40Z</time></trkpt><trkpt lat="43.75574295595517" lon="18.34384253116122"><ele>761.0</ele><time>2026-05-03T16:17:41Z</time></trkpt><trkpt lat="43.75584974618272" lon="18.343958560014972"><ele>759.75</ele><time>2026-05-03T16:17:42Z</time></trkpt><trkpt lat="43.755953761169195" lon="18.344076650999263"><ele>758.5</ele><time>2026-05-03T16:17:43Z</time></trkpt><trkpt lat="43.75605578419668" lon="18.34419689801569"><ele>757.25</ele><time>2026-05-03T16:17:44Z</time></trkpt><trkpt lat="43.75615670385318" lon="18.34431172788856"><ele>756.0</ele><time>2026-05-03T16:17:45Z</time></trkpt><trkpt lat="43.756250412777746" lon="18.3444154783977"><ele>756.0</ele><time>2026-05-03T16:17:46Z</time></trkpt><trkpt lat="43.7563437950444" lon="18.344514047513336"><ele>756.0</ele><time>2026-05-03T16:17:47Z</time></trkpt><trkpt lat="43.75643710991203" lon="18.34460310397962"><ele>756.0</ele><time>2026-05-03T16:17:48Z</time></trkpt><trkpt lat="43.756522694210176" lon="18.344697826699914"><ele>756.0</ele><time>2026-05-03T16:17:49Z</time></trkpt><trkpt lat="43.75661446169171" lon="18.344786646126238"><ele>752.25</ele><time>2026-05-03T16:17:50Z</time></trkpt><trkpt lat="43.756708926321124" lon="18.34486753926515"><ele>748.5</ele><time>2026-05-03T16:17:51Z</time></trkpt><trkpt lat="43.756808576046105" lon="18.344964882253684"><ele>744.75</ele><time>2026-05-03T16:17:52Z</time></trkpt><trkpt lat="43.756911777906595" lon="18.34505675980236"><ele>741.0</ele><time>2026-05-03T16:17:53Z</time></trkpt><trkpt lat="43.75702092058036" lon="18.345138885232156"><ele>741.0</ele><time>2026-05-03T16:17:54Z</time></trkpt><trkpt lat="43.7571440315457" lon="18.345219369491073"><ele>741.0</ele><time>2026-05-03T16:17:55Z</time></trkpt><trkpt lat="43.75726827747516" lon="18.34531469255096"><ele>741.0</ele><time>2026-05-03T16:17:56Z</time></trkpt><trkpt lat="43.757377026175206" lon="18.345441381825527"><ele>741.0</ele><time>2026-05-03T16:17:57Z</time></trkpt><trkpt lat="43.757474813449996" lon="18.345596957237294"><ele>738.6666666666666</ele><time>2026-05-03T16:17:58Z</time></trkpt><trkpt lat="43.75757819397988" lon="18.345765759944324"><ele>736.3333333333333</ele><time>2026-05-03T16:17:59Z</time></trkpt><trkpt lat="43.75769849190034" lon="18.345912125551024"><ele>734.0</ele><time>2026-05-03T16:18:00Z</time></trkpt><trkpt lat="43.7578268473956" lon="18.346040498026024"><ele>734.0</ele><time>2026-05-03T16:18:01Z</time></trkpt><trkpt lat="43.75796173664713" lon="18.346166808389828"><ele>734.0</ele><time>2026-05-03T16:18:02Z</time></trkpt><trkpt lat="43.75809595662416" lon="18.346293212313217"><ele>734.0</ele><time>2026-05-03T16:18:03Z</time></trkpt><trkpt lat="43.75822693484957" lon="18.34640946891439"><ele>728.3333333333333</ele><time>2026-05-03T16:18:04Z</time></trkpt><trkpt lat="43.75836406765878" lon="18.3465103207941"><ele>722.6666666666666</ele><time>2026-05-03T16:18:05Z</time></trkpt><trkpt lat="43.75851452742728" lon="18.346592987497626"><ele>717.0</ele><time>2026-05-03T16:18:06Z</time></trkpt><trkpt lat="43.75866373407853" lon="18.346664711229757"><ele>717.0</ele><time>2026-05-03T16:18:07Z</time></trkpt><trkpt lat="43.758803550748276" lon="18.346734130308672"><ele>717.0</ele><time>2026-05-03T16:18:08Z</time></trkpt><trkpt lat="43.75895219469316" lon="18.346810208987893"><ele>717.0</ele><time>2026-05-03T16:18:09Z</time></trkpt><trkpt lat="43.75910094832735" lon="18.34688654231175"><ele>717.0</ele><time>2026-05-03T16:18:10Z</time></trkpt><trkpt lat="43.759255362289174" lon="18.346966171731147"><ele>717.0</ele><time>2026-05-03T16:18:11Z</time></trkpt><trkpt lat="43.75940422736861" lon="18.34704324021795"><ele>717.0</ele><time>2026-05-03T16:18:12Z</time></trkpt><trkpt lat="43.75955372452778" lon="18.34711935972554"><ele>719.0</ele><time>2026-05-03T16:18:13Z</time></trkpt><trkpt lat="43.759705668949046" lon="18.347196733070213"><ele>721.0</ele><time>2026-05-03T16:18:14Z</time></trkpt><trkpt lat="43.759850288942296" lon="18.347269482109635"><ele>723.0</ele><time>2026-05-03T16:18:15Z</time></trkpt><trkpt lat="43.75999337582808" lon="18.347340590240638"><ele>716.0</ele><time>2026-05-03T16:18:16Z</time></trkpt><trkpt lat="43.7601351105986" lon="18.347416942525378"><ele>709.0</ele><time>2026-05-03T16:18:17Z</time></trkpt><trkpt lat="43.76027935684936" lon="18.34749851614101"><ele>702.0</ele><time>2026-05-03T16:18:18Z</time></trkpt><trkpt lat="43.76042449738145" lon="18.347577398847484"><ele>702.0</ele><time>2026-05-03T16:18:19Z</time></trkpt><trkpt lat="43.760573000403554" lon="18.347673945736936"><ele>702.0</ele><time>2026-05-03T16:18:20Z</time></trkpt><trkpt lat="43.76071835040497" lon="18.34778248576218"><ele>702.0</ele><time>2026-05-03T16:18:21Z</time></trkpt><trkpt lat="43.760867764644104" lon="18.347905019515885"><ele>698.0</ele><time>2026-05-03T16:18:22Z</time></trkpt><trkpt lat="43.761026282896665" lon="18.34804825967196"><ele>694.0</ele><time>2026-05-03T16:18:23Z</time></trkpt><trkpt lat="43.76118710084029" lon="18.348202963343287"><ele>690.0</ele><time>2026-05-03T16:18:24Z</time></trkpt><trkpt lat="43.76134587824597" lon="18.348362399066563"><ele>690.0</ele><time>2026-05-03T16:18:25Z</time></trkpt><trkpt lat="43.761488164551686" lon="18.348507171505606"><ele>690.0</ele><time>2026-05-03T16:18:26Z</time></trkpt><trkpt lat="43.76162080221096" lon="18.348638878780587"><ele>690.0</ele><time>2026-05-03T16:18:27Z</time></trkpt><trkpt lat="43.76173910675838" lon="18.348756312072727"><ele>690.0</ele><time>2026-05-03T16:18:28Z</time></trkpt><trkpt lat="43.761848108008216" lon="18.348861716319153"><ele>690.0</ele><time>2026-05-03T16:18:29Z</time></trkpt><trkpt lat="43.761959591363606" lon="18.34896578405102"><ele>690.0</ele><time>2026-05-03T16:18:30Z</time></trkpt><trkpt lat="43.76207363237989" lon="18.3490666122058"><ele>690.0</ele><time>2026-05-03T16:18:31Z</time></trkpt><trkpt lat="43.76219445761304" lon="18.349172761645764"><ele>687.25</ele><time>2026-05-03T16:18:32Z</time></trkpt><trkpt lat="43.76231612847136" lon="18.34927385207667"><ele>684.5</ele><time>2026-05-03T16:18:33Z</time></trkpt><trkpt lat="43.762441761809846" lon="18.349365692547835"><ele>681.75</ele><time>2026-05-03T16:18:34Z</time></trkpt><trkpt lat="43.76257614615953" lon="18.349453113519647"><ele>679.0</ele><time>2026-05-03T16:18:35Z</time></trkpt><trkpt lat="43.76272590138731" lon="18.34953842311166"><ele>679.0</ele><time>2026-05-03T16:18:36Z</time></trkpt><trkpt lat="43.7629014734044" lon="18.349610620934996"><ele>679.0</ele><time>2026-05-03T16:18:37Z</time></trkpt><trkpt lat="43.76310732890636" lon="18.34968234361264"><ele>679.0</ele><time>2026-05-03T16:18:38Z</time></trkpt><trkpt lat="43.76334822996524" lon="18.349761285476642"><ele>670.0</ele><time>2026-05-03T16:18:39Z</time></trkpt><trkpt lat="43.763581749217195" lon="18.349834474723068"><ele>661.0</ele><time>2026-05-03T16:18:40Z</time></trkpt><trkpt lat="43.763785519690884" lon="18.349905566332843"><ele>661.0</ele><time>2026-05-03T16:18:41Z</time></trkpt><trkpt lat="43.76396303173858" lon="18.349967630836815"><ele>661.0</ele><time>2026-05-03T16:18:42Z</time></trkpt><trkpt lat="43.764112048274626" lon="18.350019916572503"><ele>661.0</ele><time>2026-05-03T16:18:43Z</time></trkpt><trkpt lat="43.76425422305382" lon="18.350063700009418"><ele>663.75</ele><time>2026-05-03T16:18:44Z</time></trkpt><trkpt lat="43.764381231989844" lon="18.350110266534013"><ele>666.5</ele><time>2026-05-03T16:18:45Z</time></trkpt><trkpt lat="43.764503102100534" lon="18.350167907689414"><ele>669.25</ele><time>2026-05-03T16:18:46Z</time></trkpt><trkpt lat="43.76462417782632" lon="18.350245701884162"><ele>672.0</ele><time>2026-05-03T16:18:47Z</time></trkpt><trkpt lat="43.7647313971758" lon="18.350345158283716"><ele>672.0</ele><time>2026-05-03T16:18:48Z</time></trkpt><trkpt lat="43.764824303516185" lon="18.35047574344315"><ele>672.0</ele><time>2026-05-03T16:18:49Z</time></trkpt><trkpt lat="43.76490643216984" lon="18.350627391140417"><ele>672.0</ele><time>2026-05-03T16:18:50Z</time></trkpt><trkpt lat="43.76498519337556" lon="18.350793757513227"><ele>672.0</ele><time>2026-05-03T16:18:51Z</time></trkpt><trkpt lat="43.76504765096814" lon="18.35098400256752"><ele>669.3333333333334</ele><time>2026-05-03T16:18:52Z</time></trkpt><trkpt lat="43.76510631398767" lon="18.351185362184914"><ele>666.6666666666667</ele><time>2026-05-03T16:18:53Z</time></trkpt><trkpt lat="43.76515872849766" lon="18.351383471829813"><ele>664.0</ele><time>2026-05-03T16:18:54Z</time></trkpt><trkpt lat="43.76521481232469" lon="18.351583729979513"><ele>664.0</ele><time>2026-05-03T16:18:55Z</time></trkpt><trkpt lat="43.76526752880557" lon="18.351830466991633"><ele>664.0</ele><time>2026-05-03T16:18:56Z</time></trkpt><trkpt lat="43.76531084265691" lon="18.352076370365612"><ele>664.0</ele><time>2026-05-03T16:18:57Z</time></trkpt><trkpt lat="43.76534628375843" lon="18.35228282668926"><ele>661.25</ele><time>2026-05-03T16:18:58Z</time></trkpt><trkpt lat="43.76538538331709" lon="18.352450135743034"><ele>658.5</ele><time>2026-05-03T16:18:59Z</time></trkpt><trkpt lat="43.76544248556326" lon="18.352610205982163"><ele>655.75</ele><time>2026-05-03T16:19:00Z</time></trkpt><trkpt lat="43.765516834484075" lon="18.35277509384959"><ele>653.0</ele><time>2026-05-03T16:19:01Z</time></trkpt><trkpt lat="43.765591916101116" lon="18.35294141179832"><ele>646.3333333333333</ele><time>2026-05-03T16:19:02Z</time></trkpt><trkpt lat="43.7656893016546" lon="18.353117366535308"><ele>639.6666666666666</ele><time>2026-05-03T16:19:03Z</time></trkpt><trkpt lat="43.76582840162761" lon="18.353330492049345"><ele>633.0</ele><time>2026-05-03T16:19:04Z</time></trkpt><trkpt lat="43.76599923867712" lon="18.353590964325754"><ele>635.5</ele><time>2026-05-03T16:19:05Z</time></trkpt><trkpt lat="43.76619418033706" lon="18.35391678007215"><ele>638.0</ele><time>2026-05-03T16:19:06Z</time></trkpt><trkpt lat="43.766400762951285" lon="18.354273441618034"><ele>638.0</ele><time>2026-05-03T16:19:07Z</time></trkpt><trkpt lat="43.766629087509216" lon="18.35463611674517"><ele>638.0</ele><time>2026-05-03T16:19:08Z</time></trkpt><trkpt lat="43.76687913360664" lon="18.355001874344953"><ele>640.0</ele><time>2026-05-03T16:19:09Z</time></trkpt><trkpt lat="43.76713672779988" lon="18.355382292146313"><ele>642.0</ele><time>2026-05-03T16:19:10Z</time></trkpt><trkpt lat="43.767403993433454" lon="18.355773103302226"><ele>629.0</ele><time>2026-05-03T16:19:11Z</time></trkpt><trkpt lat="43.767686903539236" lon="18.35617466114747"><ele>616.0</ele><time>2026-05-03T16:19:12Z</time></trkpt><trkpt lat="43.767976184454525" lon="18.356576176145392"><ele>614.5</ele><time>2026-05-03T16:19:13Z</time></trkpt><trkpt lat="43.76824713472166" lon="18.356938071438016"><ele>613.0</ele><time>2026-05-03T16:19:14Z</time></trkpt><trkpt lat="43.76848806407781" lon="18.357262523909167"><ele>610.5</ele><time>2026-05-03T16:19:15Z</time></trkpt><trkpt lat="43.768725458065546" lon="18.3575810932052"><ele>608.0</ele><time>2026-05-03T16:19:16Z</time></trkpt><trkpt lat="43.76896139884263" lon="18.35790490870532"><ele>605.0</ele><time>2026-05-03T16:19:17Z</time></trkpt><trkpt lat="43.769185580112634" lon="18.35821370526789"><ele>602.0</ele><time>2026-05-03T16:19:18Z</time></trkpt><trkpt lat="43.76939491262595" lon="18.358496385722443"><ele>602.0</ele><time>2026-05-03T16:19:19Z</time></trkpt><trkpt lat="43.76960294986882" lon="18.358777688375007"><ele>602.0</ele><time>2026-05-03T16:19:20Z</time></trkpt><trkpt lat="43.76980775131959" lon="18.35904888183439"><ele>595.0</ele><time>2026-05-03T16:19:21Z</time></trkpt><trkpt lat="43.770003018790305" lon="18.35931000353453"><ele>588.0</ele><time>2026-05-03T16:19:22Z</time></trkpt><trkpt lat="43.77018032267647" lon="18.359552883482213"><ele>584.5</ele><time>2026-05-03T16:19:23Z</time></trkpt><trkpt lat="43.77033849728368" lon="18.359805091687733"><ele>581.0</ele><time>2026-05-03T16:19:24Z</time></trkpt><trkpt lat="43.770472053367705" lon="18.360059279952907"><ele>581.0</ele><time>2026-05-03T16:19:25Z</time></trkpt><trkpt lat="43.77058043801951" lon="18.360318189548476"><ele>581.0</ele><time>2026-05-03T16:19:26Z</time></trkpt><trkpt lat="43.770657694448964" lon="18.360607392505248"><ele>581.0</ele><time>2026-05-03T16:19:27Z</time></trkpt><trkpt lat="43.77070424431711" lon="18.36089497190968"><ele>577.0</ele><time>2026-05-03T16:19:28Z</time></trkpt><trkpt lat="43.77072955421108" lon="18.361186850375965"><ele>573.0</ele><time>2026-05-03T16:19:29Z</time></trkpt><trkpt lat="43.770761643009024" lon="18.361486988356457"><ele>569.0</ele><time>2026-05-03T16:19:30Z</time></trkpt><trkpt lat="43.77080263044791" lon="18.361759773158223"><ele>565.6666666666666</ele><time>2026-05-03T16:19:31Z</time></trkpt><trkpt lat="43.77086350984278" lon="18.362017393517622"><ele>562.3333333333334</ele><time>2026-05-03T16:19:32Z</time></trkpt><trkpt lat="43.770941869896134" lon="18.362264545718734"><ele>559.0</ele><time>2026-05-03T16:19:33Z</time></trkpt><trkpt lat="43.77104389065426" lon="18.362495596987678"><ele>555.6666666666667</ele><time>2026-05-03T16:19:34Z</time></trkpt><trkpt lat="43.77115776285639" lon="18.362711846609194"><ele>552.3333333333334</ele><time>2026-05-03T16:19:35Z</time></trkpt><trkpt lat="43.771292997551406" lon="18.362912474944753"><ele>549.0</ele><time>2026-05-03T16:19:36Z</time></trkpt><trkpt lat="43.771456492855506" lon="18.363091908595425"><ele>548.0</ele><time>2026-05-03T16:19:37Z</time></trkpt><trkpt lat="43.77163536704051" lon="18.36323629786961"><ele>547.0</ele><time>2026-05-03T16:19:38Z</time></trkpt><trkpt lat="43.77182553189206" lon="18.36335262185374"><ele>546.0</ele><time>2026-05-03T16:19:39Z</time></trkpt><trkpt lat="43.77202771985449" lon="18.36343632638111"><ele>543.3333333333334</ele><time>2026-05-03T16:19:40Z</time></trkpt><trkpt lat="43.77222847953745" lon="18.363488975641527"><ele>540.6666666666667</ele><time>2026-05-03T16:19:41Z</time></trkpt><trkpt lat="43.772436505600616" lon="18.363498670086898"><ele>538.0</ele><time>2026-05-03T16:19:42Z</time></trkpt><trkpt lat="43.772644721434986" lon="18.36347555783207"><ele>539.3333333333334</ele><time>2026-05-03T16:19:43Z</time></trkpt><trkpt lat="43.77284954287972" lon="18.36341951750299"><ele>540.6666666666666</ele><time>2026-05-03T16:19:44Z</time></trkpt><trkpt lat="43.773050679082694" lon="18.36334059402314"><ele>542.0</ele><time>2026-05-03T16:19:45Z</time></trkpt><trkpt lat="43.7732514675757" lon="18.363248620898542"><ele>542.0</ele><time>2026-05-03T16:19:46Z</time></trkpt><trkpt lat="43.773476515412426" lon="18.36314469017322"><ele>542.0</ele><time>2026-05-03T16:19:47Z</time></trkpt><trkpt lat="43.7737125927625" lon="18.363052073134785"><ele>543.5</ele><time>2026-05-03T16:19:48Z</time></trkpt><trkpt lat="43.77394494924376" lon="18.362976526998413"><ele>545.0</ele><time>2026-05-03T16:19:49Z</time></trkpt><trkpt lat="43.77417944376568" lon="18.362919234163467"><ele>545.0</ele><time>2026-05-03T16:19:50Z</time></trkpt><trkpt lat="43.774419171926" lon="18.36287749939384"><ele>545.0</ele><time>2026-05-03T16:19:51Z</time></trkpt><trkpt lat="43.77464729579625" lon="18.36285047318719"><ele>545.0</ele><time>2026-05-03T16:19:52Z</time></trkpt><trkpt lat="43.7748721646557" lon="18.362827790911414"><ele>545.0</ele><time>2026-05-03T16:19:53Z</time></trkpt><trkpt lat="43.775087326740866" lon="18.362809544745"><ele>545.0</ele><time>2026-05-03T16:19:54Z</time></trkpt><trkpt lat="43.77529451195303" lon="18.362791075466866"><ele>541.6666666666666</ele><time>2026-05-03T16:19:55Z</time></trkpt><trkpt lat="43.775492279057616" lon="18.362773931103437"><ele>538.3333333333334</ele><time>2026-05-03T16:19:56Z</time></trkpt><trkpt lat="43.77568451166267" lon="18.362758648884512"><ele>535.0</ele><time>2026-05-03T16:19:57Z</time></trkpt><trkpt lat="43.77584666079399" lon="18.362748212239097"><ele>535.0</ele><time>2026-05-03T16:19:58Z</time></trkpt><trkpt lat="43.77599966499567" lon="18.36273802663833"><ele>535.0</ele><time>2026-05-03T16:19:59Z</time></trkpt><trkpt lat="43.776148089357136" lon="18.362727507499912"><ele>535.0</ele><time>2026-05-03T16:20:00Z</time></trkpt><trkpt lat="43.77629871489712" lon="18.362716180330327"><ele>534.75</ele><time>2026-05-03T16:20:01Z</time></trkpt><trkpt lat="43.77645633620209" lon="18.362701016195363"><ele>534.5</ele><time>2026-05-03T16:20:02Z</time></trkpt><trkpt lat="43.77660474364712" lon="18.36269219917401"><ele>534.25</ele><time>2026-05-03T16:20:03Z</time></trkpt><trkpt lat="43.7767395253375" lon="18.362679376201072"><ele>534.0</ele><time>2026-05-03T16:20:04Z</time></trkpt><trkpt lat="43.77686017379287" lon="18.362670135882702"><ele>534.0</ele><time>2026-05-03T16:20:05Z</time></trkpt><trkpt lat="43.77696486518239" lon="18.36265921977596"><ele>534.0</ele><time>2026-05-03T16:20:06Z</time></trkpt><trkpt lat="43.77705401568713" lon="18.362652355355845"><ele>534.0</ele><time>2026-05-03T16:20:07Z</time></trkpt><trkpt lat="43.777133552812344" lon="18.362649669575504"><ele>534.0</ele><time>2026-05-03T16:20:08Z</time></trkpt><trkpt lat="43.7772397268104" lon="18.362646984383016"><ele>534.0</ele><time>2026-05-03T16:20:10Z</time></trkpt><trkpt lat="43.77735261885432" lon="18.362661972314605"><ele>534.0</ele><time>2026-05-03T16:20:12Z</time></trkpt><trkpt lat="43.77741960885026" lon="18.36265954146281"><ele>534.0</ele><time>2026-05-03T16:20:14Z</time></trkpt><trkpt lat="43.77750610874363" lon="18.362640643502235"><ele>534.0</ele><time>2026-05-03T16:20:32Z</time></trkpt><trkpt lat="43.77755730635796" lon="18.362494211262934"><ele>534.0</ele><time>2026-05-03T16:20:34Z</time></trkpt><trkpt lat="43.777565283583286" lon="18.362353657581238"><ele>534.0</ele><time>2026-05-03T16:20:35Z</time></trkpt><trkpt lat="43.77758175390664" lon="18.362201336718595"><ele>534.0</ele><time>2026-05-03T16:20:36Z</time></trkpt><trkpt lat="43.777603599084166" lon="18.362020623191306"><ele>534.0</ele><time>2026-05-03T16:20:37Z</time></trkpt><trkpt lat="43.77764103067243" lon="18.361822135074174"><ele>534.0</ele><time>2026-05-03T16:20:38Z</time></trkpt><trkpt lat="43.777693097822414" lon="18.361621019189858"><ele>534.0</ele><time>2026-05-03T16:20:39Z</time></trkpt><trkpt lat="43.777753966962706" lon="18.361452245315757"><ele>533.5</ele><time>2026-05-03T16:20:40Z</time></trkpt><trkpt lat="43.77782902520796" lon="18.36128360058985"><ele>533.0</ele><time>2026-05-03T16:20:41Z</time></trkpt><trkpt lat="43.777919135072565" lon="18.361114685484885"><ele>532.5</ele><time>2026-05-03T16:20:42Z</time></trkpt><trkpt lat="43.778019510854826" lon="18.360959145249137"><ele>532.0</ele><time>2026-05-03T16:20:43Z</time></trkpt><trkpt lat="43.77811979205164" lon="18.360833532984614"><ele>532.0</ele><time>2026-05-03T16:20:44Z</time></trkpt><trkpt lat="43.7782187075976" lon="18.360726029119917"><ele>532.0</ele><time>2026-05-03T16:20:45Z</time></trkpt><trkpt lat="43.77831746307633" lon="18.36064282362503"><ele>532.0</ele><time>2026-05-03T16:20:46Z</time></trkpt><trkpt lat="43.778418688828104" lon="18.360568071010384"><ele>532.0</ele><time>2026-05-03T16:20:47Z</time></trkpt><trkpt lat="43.7785391304242" lon="18.360493294296642"><ele>531.75</ele><time>2026-05-03T16:20:48Z</time></trkpt><trkpt lat="43.7786621045637" lon="18.360431342766034"><ele>531.5</ele><time>2026-05-03T16:20:49Z</time></trkpt><trkpt lat="43.77878969418525" lon="18.360381421969475"><ele>531.25</ele><time>2026-05-03T16:20:50Z</time></trkpt><trkpt lat="43.77891640499504" lon="18.360346083792447"><ele>531.0</ele><time>2026-05-03T16:20:51Z</time></trkpt><trkpt lat="43.77904849166286" lon="18.360326833768312"><ele>531.0</ele><time>2026-05-03T16:20:52Z</time></trkpt><trkpt lat="43.7791956648398" lon="18.360319022863877"><ele>531.0</ele><time>2026-05-03T16:20:53Z</time></trkpt><trkpt lat="43.77935501186412" lon="18.360324798798207"><ele>531.0</ele><time>2026-05-03T16:20:54Z</time></trkpt><trkpt lat="43.77951374196832" lon="18.360334436019524"><ele>531.25</ele><time>2026-05-03T16:20:55Z</time></trkpt><trkpt lat="43.77967256211268" lon="18.360353892160273"><ele>531.5</ele><time>2026-05-03T16:20:56Z</time></trkpt><trkpt lat="43.77981241576122" lon="18.360380674020394"><ele>531.75</ele><time>2026-05-03T16:20:57Z</time></trkpt><trkpt lat="43.779940900838184" lon="18.360406029472916"><ele>532.0</ele><time>2026-05-03T16:20:58Z</time></trkpt><trkpt lat="43.78006113884476" lon="18.36042111908624"><ele>532.0</ele><time>2026-05-03T16:20:59Z</time></trkpt><trkpt lat="43.78018131779033" lon="18.360431679033415"><ele>532.0</ele><time>2026-05-03T16:21:00Z</time></trkpt><trkpt lat="43.7803052496691" lon="18.36043654320171"><ele>532.0</ele><time>2026-05-03T16:21:01Z</time></trkpt><trkpt lat="43.780432078050126" lon="18.3604443908419"><ele>532.0</ele><time>2026-05-03T16:21:02Z</time></trkpt><trkpt lat="43.780568571948734" lon="18.360455516068626"><ele>531.75</ele><time>2026-05-03T16:21:03Z</time></trkpt><trkpt lat="43.7807084438328" lon="18.36046858303649"><ele>531.5</ele><time>2026-05-03T16:21:04Z</time></trkpt><trkpt lat="43.7808569282586" lon="18.360480288854504"><ele>531.25</ele><time>2026-05-03T16:21:05Z</time></trkpt><trkpt lat="43.78100624587639" lon="18.36049110071753"><ele>531.0</ele><time>2026-05-03T16:21:06Z</time></trkpt><trkpt lat="43.781162979514576" lon="18.36049738346546"><ele>531.0</ele><time>2026-05-03T16:21:07Z</time></trkpt><trkpt lat="43.78132034696231" lon="18.36050294228716"><ele>531.0</ele><time>2026-05-03T16:21:08Z</time></trkpt><trkpt lat="43.78148620777567" lon="18.36050572104382"><ele>531.0</ele><time>2026-05-03T16:21:09Z</time></trkpt><trkpt lat="43.781661225089366" lon="18.360506003925813"><ele>531.0</ele><time>2026-05-03T16:21:10Z</time></trkpt><trkpt lat="43.781836399537596" lon="18.360507012793352"><ele>531.0</ele><time>2026-05-03T16:21:11Z</time></trkpt><trkpt lat="43.78202162339247" lon="18.360507208159508"><ele>531.0</ele><time>2026-05-03T16:21:12Z</time></trkpt><trkpt lat="43.782211027913995" lon="18.36051021226175"><ele>531.0</ele><time>2026-05-03T16:21:13Z</time></trkpt><trkpt lat="43.782406950604454" lon="18.360509441656436"><ele>531.0</ele><time>2026-05-03T16:21:14Z</time></trkpt><trkpt lat="43.782608770578605" lon="18.360511353719794"><ele>531.0</ele><time>2026-05-03T16:21:15Z</time></trkpt><trkpt lat="43.78281275915561" lon="18.36051400659817"><ele>530.3333333333334</ele><time>2026-05-03T16:21:16Z</time></trkpt><trkpt lat="43.78299934530961" lon="18.36051707394705"><ele>529.6666666666667</ele><time>2026-05-03T16:21:17Z</time></trkpt><trkpt lat="43.78317878504925" lon="18.360521574526317"><ele>529.0</ele><time>2026-05-03T16:21:18Z</time></trkpt><trkpt lat="43.78336244222554" lon="18.360524261129203"><ele>528.6666666666667</ele><time>2026-05-03T16:21:19Z</time></trkpt><trkpt lat="43.78354290839439" lon="18.360528220795306"><ele>528.3333333333334</ele><time>2026-05-03T16:21:20Z</time></trkpt><trkpt lat="43.78372649168418" lon="18.360536008548028"><ele>528.0</ele><time>2026-05-03T16:21:21Z</time></trkpt><trkpt lat="43.78390915583722" lon="18.360543537673664"><ele>531.6666666666666</ele><time>2026-05-03T16:21:22Z</time></trkpt><trkpt lat="43.7840909850523" lon="18.360554657597234"><ele>535.3333333333333</ele><time>2026-05-03T16:21:23Z</time></trkpt><trkpt lat="43.784262963984204" lon="18.360569422541303"><ele>539.0</ele><time>2026-05-03T16:21:24Z</time></trkpt><trkpt lat="43.78442475306082" lon="18.36058844347432"><ele>539.0</ele><time>2026-05-03T16:21:25Z</time></trkpt><trkpt lat="43.784581415716595" lon="18.360606257642768"><ele>539.0</ele><time>2026-05-03T16:21:26Z</time></trkpt><trkpt lat="43.784746306819926" lon="18.360622225954646"><ele>539.0</ele><time>2026-05-03T16:21:27Z</time></trkpt><trkpt lat="43.784901610924045" lon="18.360644236143873"><ele>539.0</ele><time>2026-05-03T16:21:28Z</time></trkpt><trkpt lat="43.78506311583127" lon="18.360672241691546"><ele>539.0</ele><time>2026-05-03T16:21:29Z</time></trkpt><trkpt lat="43.78521431319086" lon="18.360705734133692"><ele>539.0</ele><time>2026-05-03T16:21:30Z</time></trkpt><trkpt lat="43.785371025115964" lon="18.360745687926876"><ele>538.0</ele><time>2026-05-03T16:21:31Z</time></trkpt><trkpt lat="43.785518024166564" lon="18.36077878779091"><ele>537.0</ele><time>2026-05-03T16:21:32Z</time></trkpt><trkpt lat="43.78567014208628" lon="18.360822017234163"><ele>536.0</ele><time>2026-05-03T16:21:33Z</time></trkpt><trkpt lat="43.78583368399758" lon="18.36086354549649"><ele>536.0</ele><time>2026-05-03T16:21:34Z</time></trkpt><trkpt lat="43.78600311169231" lon="18.3609113340177"><ele>536.0</ele><time>2026-05-03T16:21:35Z</time></trkpt><trkpt lat="43.78616855199217" lon="18.36096471172118"><ele>536.0</ele><time>2026-05-03T16:21:36Z</time></trkpt><trkpt lat="43.7863243049108" lon="18.361013977805342"><ele>536.3333333333333</ele><time>2026-05-03T16:21:37Z</time></trkpt><trkpt lat="43.78647587312346" lon="18.361070723005916"><ele>536.6666666666666</ele><time>2026-05-03T16:21:38Z</time></trkpt><trkpt lat="43.78662267279809" lon="18.361117881004805"><ele>537.0</ele><time>2026-05-03T16:21:39Z</time></trkpt><trkpt lat="43.78676755621446" lon="18.361160895065844"><ele>536.6666666666666</ele><time>2026-05-03T16:21:40Z</time></trkpt><trkpt lat="43.78692257640514" lon="18.36120409736123"><ele>536.3333333333333</ele><time>2026-05-03T16:21:41Z</time></trkpt><trkpt lat="43.78706794904862" lon="18.361242448138274"><ele>536.0</ele><time>2026-05-03T16:21:42Z</time></trkpt><trkpt lat="43.787217705353086" lon="18.36127913823026"><ele>536.0</ele><time>2026-05-03T16:21:43Z</time></trkpt><trkpt lat="43.787373180790816" lon="18.361310749294685"><ele>536.0</ele><time>2026-05-03T16:21:44Z</time></trkpt><trkpt lat="43.787533082460996" lon="18.361334409890986"><ele>536.0</ele><time>2026-05-03T16:21:45Z</time></trkpt><trkpt lat="43.78768843803413" lon="18.361347740632713"><ele>535.0</ele><time>2026-05-03T16:21:46Z</time></trkpt><trkpt lat="43.78784526700631" lon="18.361348127837637"><ele>534.0</ele><time>2026-05-03T16:21:47Z</time></trkpt><trkpt lat="43.78800346547426" lon="18.361344728582807"><ele>533.0</ele><time>2026-05-03T16:21:48Z</time></trkpt><trkpt lat="43.7881615796368" lon="18.361329140360784"><ele>533.0</ele><time>2026-05-03T16:21:49Z</time></trkpt><trkpt lat="43.78832407667783" lon="18.361307014917013"><ele>533.0</ele><time>2026-05-03T16:21:50Z</time></trkpt><trkpt lat="43.78848499604728" lon="18.361279260465416"><ele>533.0</ele><time>2026-05-03T16:21:51Z</time></trkpt><trkpt lat="43.788645564851045" lon="18.36123838513893"><ele>532.75</ele><time>2026-05-03T16:21:52Z</time></trkpt><trkpt lat="43.78879041573455" lon="18.36119966730703"><ele>532.5</ele><time>2026-05-03T16:21:53Z</time></trkpt><trkpt lat="43.78892084649179" lon="18.36116558011341"><ele>532.25</ele><time>2026-05-03T16:21:54Z</time></trkpt><trkpt lat="43.7890474461927" lon="18.361132468191084"><ele>532.0</ele><time>2026-05-03T16:21:55Z</time></trkpt><trkpt lat="43.789166150609276" lon="18.361093570146167"><ele>532.0</ele><time>2026-05-03T16:21:56Z</time></trkpt><trkpt lat="43.789283373185064" lon="18.3610569820405"><ele>532.0</ele><time>2026-05-03T16:21:57Z</time></trkpt><trkpt lat="43.78941532176122" lon="18.361007763574783"><ele>532.0</ele><time>2026-05-03T16:21:58Z</time></trkpt><trkpt lat="43.78955549464539" lon="18.36095757799201"><ele>532.0</ele><time>2026-05-03T16:21:59Z</time></trkpt><trkpt lat="43.78970184787834" lon="18.36092060040676"><ele>532.0</ele><time>2026-05-03T16:22:00Z</time></trkpt><trkpt lat="43.78984398138455" lon="18.36089195500579"><ele>532.0</ele><time>2026-05-03T16:22:01Z</time></trkpt><trkpt lat="43.789996199034114" lon="18.360866826912417"><ele>532.0</ele><time>2026-05-03T16:22:02Z</time></trkpt><trkpt lat="43.790149714021354" lon="18.360846244250027"><ele>532.0</ele><time>2026-05-03T16:22:03Z</time></trkpt><trkpt lat="43.79030312176175" lon="18.360835306683867"><ele>532.0</ele><time>2026-05-03T16:22:04Z</time></trkpt><trkpt lat="43.790460344966704" lon="18.360825227628577"><ele>532.0</ele><time>2026-05-03T16:22:05Z</time></trkpt><trkpt lat="43.790614398289975" lon="18.36082123495956"><ele>532.0</ele><time>2026-05-03T16:22:06Z</time></trkpt><trkpt lat="43.79076158086058" lon="18.360818905627465"><ele>532.0</ele><time>2026-05-03T16:22:07Z</time></trkpt><trkpt lat="43.79090216160145" lon="18.360819618855135"><ele>532.0</ele><time>2026-05-03T16:22:08Z</time></trkpt><trkpt lat="43.79104549855541" lon="18.360827987146383"><ele>532.0</ele><time>2026-05-03T16:22:09Z</time></trkpt><trkpt lat="43.791196322610325" lon="18.360850235182685"><ele>531.3333333333334</ele><time>2026-05-03T16:22:10Z</time></trkpt><trkpt lat="43.79139108847798" lon="18.360870552859385"><ele>530.6666666666666</ele><time>2026-05-03T16:22:11Z</time></trkpt><trkpt lat="43.79162499375523" lon="18.360892199372515"><ele>530.0</ele><time>2026-05-03T16:22:12Z</time></trkpt><trkpt lat="43.791841559084425" lon="18.360921290805692"><ele>529.0</ele><time>2026-05-03T16:22:13Z</time></trkpt><trkpt lat="43.79206248822244" lon="18.36095824827424"><ele>528.0</ele><time>2026-05-03T16:22:14Z</time></trkpt><trkpt lat="43.79226460195548" lon="18.360986786417822"><ele>527.0</ele><time>2026-05-03T16:22:15Z</time></trkpt><trkpt lat="43.79244630934918" lon="18.360997989703222"><ele>527.0</ele><time>2026-05-03T16:22:16Z</time></trkpt><trkpt lat="43.792617392662436" lon="18.360986728792493"><ele>527.0</ele><time>2026-05-03T16:22:17Z</time></trkpt><trkpt lat="43.792775957091905" lon="18.360957197430597"><ele>527.0</ele><time>2026-05-03T16:22:18Z</time></trkpt><trkpt lat="43.79294564369098" lon="18.360916221903995"><ele>527.3333333333333</ele><time>2026-05-03T16:22:19Z</time></trkpt><trkpt lat="43.79311782286423" lon="18.360855388922474"><ele>527.6666666666666</ele><time>2026-05-03T16:22:20Z</time></trkpt><trkpt lat="43.79329027503185" lon="18.360784998323258"><ele>528.0</ele><time>2026-05-03T16:22:21Z</time></trkpt><trkpt lat="43.79345927954825" lon="18.360694262393515"><ele>528.3333333333334</ele><time>2026-05-03T16:22:22Z</time></trkpt><trkpt lat="43.79363758410927" lon="18.36056196146711"><ele>528.6666666666667</ele><time>2026-05-03T16:22:23Z</time></trkpt><trkpt lat="43.79384488736304" lon="18.36038711435878"><ele>529.0</ele><time>2026-05-03T16:22:24Z</time></trkpt><trkpt lat="43.79407004354808" lon="18.360170215364118"><ele>529.0</ele><time>2026-05-03T16:22:25Z</time></trkpt><trkpt lat="43.79430306710962" lon="18.359915382956657"><ele>529.0</ele><time>2026-05-03T16:22:26Z</time></trkpt><trkpt lat="43.79454985193818" lon="18.359635989241976"><ele>529.5</ele><time>2026-05-03T16:22:27Z</time></trkpt><trkpt lat="43.79479100562069" lon="18.359357528527354"><ele>530.0</ele><time>2026-05-03T16:22:28Z</time></trkpt><trkpt lat="43.79501377124195" lon="18.35911829485318"><ele>531.0</ele><time>2026-05-03T16:22:29Z</time></trkpt><trkpt lat="43.7952202084496" lon="18.358928328729107"><ele>532.0</ele><time>2026-05-03T16:22:30Z</time></trkpt><trkpt lat="43.7953892678567" lon="18.3587636593868"><ele>532.0</ele><time>2026-05-03T16:22:31Z</time></trkpt><trkpt lat="43.79554260378636" lon="18.358619863927455"><ele>532.0</ele><time>2026-05-03T16:22:32Z</time></trkpt><trkpt lat="43.7956932079763" lon="18.358471471551397"><ele>532.0</ele><time>2026-05-03T16:22:33Z</time></trkpt><trkpt lat="43.795853724629765" lon="18.358298723845618"><ele>528.5</ele><time>2026-05-03T16:22:34Z</time></trkpt><trkpt lat="43.796036184833596" lon="18.358115410163066"><ele>525.0</ele><time>2026-05-03T16:22:35Z</time></trkpt><trkpt lat="43.79624339770884" lon="18.35794290250051"><ele>525.0</ele><time>2026-05-03T16:22:36Z</time></trkpt><trkpt lat="43.79646366434263" lon="18.357783993042883"><ele>525.0</ele><time>2026-05-03T16:22:37Z</time></trkpt><trkpt lat="43.79664509956884" lon="18.357653353117705"><ele>525.0</ele><time>2026-05-03T16:22:38Z</time></trkpt><trkpt lat="43.79679345516611" lon="18.35753415635902"><ele>525.0</ele><time>2026-05-03T16:22:39Z</time></trkpt><trkpt lat="43.79693464894354" lon="18.357423124431154"><ele>525.0</ele><time>2026-05-03T16:22:40Z</time></trkpt><trkpt lat="43.79706008813357" lon="18.357329818223214"><ele>524.6666666666666</ele><time>2026-05-03T16:22:41Z</time></trkpt><trkpt lat="43.797189852401594" lon="18.357229743109176"><ele>524.3333333333333</ele><time>2026-05-03T16:22:42Z</time></trkpt><trkpt lat="43.79734372733998" lon="18.357103209783368"><ele>524.0</ele><time>2026-05-03T16:22:43Z</time></trkpt><trkpt lat="43.79752236590248" lon="18.356950178785247"><ele>528.0</ele><time>2026-05-03T16:22:44Z</time></trkpt><trkpt lat="43.79771384457209" lon="18.356806661051333"><ele>532.0</ele><time>2026-05-03T16:22:45Z</time></trkpt><trkpt lat="43.79790957846564" lon="18.35666911410982"><ele>536.0</ele><time>2026-05-03T16:22:46Z</time></trkpt><trkpt lat="43.79806056079969" lon="18.356527834294507"><ele>536.0</ele><time>2026-05-03T16:22:47Z</time></trkpt><trkpt lat="43.798181484257555" lon="18.356388063644857"><ele>536.0</ele><time>2026-05-03T16:22:48Z</time></trkpt><trkpt lat="43.798285884788484" lon="18.35624348266609"><ele>536.0</ele><time>2026-05-03T16:22:49Z</time></trkpt><trkpt lat="43.7983870987276" lon="18.356084563943483"><ele>535.0</ele><time>2026-05-03T16:22:50Z</time></trkpt><trkpt lat="43.79848129154766" lon="18.35591021302283"><ele>534.0</ele><time>2026-05-03T16:22:51Z</time></trkpt><trkpt lat="43.7985696022827" lon="18.355725484672153"><ele>533.0</ele><time>2026-05-03T16:22:52Z</time></trkpt><trkpt lat="43.79864842678109" lon="18.355527964541924"><ele>533.0</ele><time>2026-05-03T16:22:53Z</time></trkpt><trkpt lat="43.79871218673549" lon="18.355336214027993"><ele>533.0</ele><time>2026-05-03T16:22:54Z</time></trkpt><trkpt lat="43.79875875542402" lon="18.355152744408777"><ele>533.0</ele><time>2026-05-03T16:22:55Z</time></trkpt><trkpt lat="43.79878653698855" lon="18.35497311508052"><ele>533.0</ele><time>2026-05-03T16:22:56Z</time></trkpt><trkpt lat="43.7988117034855" lon="18.35480544577408"><ele>531.75</ele><time>2026-05-03T16:22:57Z</time></trkpt><trkpt lat="43.7988375323795" lon="18.354639105176094"><ele>530.5</ele><time>2026-05-03T16:22:58Z</time></trkpt><trkpt lat="43.798867380598885" lon="18.354479089757294"><ele>529.25</ele><time>2026-05-03T16:22:59Z</time></trkpt><trkpt lat="43.79890664152008" lon="18.354315175979565"><ele>528.0</ele><time>2026-05-03T16:23:00Z</time></trkpt><trkpt lat="43.79894097313696" lon="18.35415242525541"><ele>528.0</ele><time>2026-05-03T16:23:01Z</time></trkpt><trkpt lat="43.79897093096267" lon="18.353985469050986"><ele>528.0</ele><time>2026-05-03T16:23:02Z</time></trkpt><trkpt lat="43.79900893211589" lon="18.353811607096997"><ele>528.0</ele><time>2026-05-03T16:23:03Z</time></trkpt><trkpt lat="43.799050349818316" lon="18.353628778741726"><ele>528.0</ele><time>2026-05-03T16:23:04Z</time></trkpt><trkpt lat="43.799102270516904" lon="18.353432117110085"><ele>526.3333333333334</ele><time>2026-05-03T16:23:05Z</time></trkpt><trkpt lat="43.79916270791712" lon="18.353225448371074"><ele>524.6666666666667</ele><time>2026-05-03T16:23:06Z</time></trkpt><trkpt lat="43.79923094198605" lon="18.35301282644539"><ele>523.0</ele><time>2026-05-03T16:23:07Z</time></trkpt><trkpt lat="43.79930662561434" lon="18.35278764912684"><ele>523.3333333333334</ele><time>2026-05-03T16:23:08Z</time></trkpt><trkpt lat="43.799387803341276" lon="18.352560663720407"><ele>523.6666666666666</ele><time>2026-05-03T16:23:09Z</time></trkpt><trkpt lat="43.79948683322818" lon="18.352321643035953"><ele>524.0</ele><time>2026-05-03T16:23:10Z</time></trkpt><trkpt lat="43.79959879599203" lon="18.35209875194863"><ele>523.3333333333333</ele><time>2026-05-03T16:23:11Z</time></trkpt><trkpt lat="43.79971299596195" lon="18.35188196009927"><ele>522.6666666666666</ele><time>2026-05-03T16:23:12Z</time></trkpt><trkpt lat="43.79983046776885" lon="18.351661827939544"><ele>522.0</ele><time>2026-05-03T16:23:13Z</time></trkpt><trkpt lat="43.79995290968531" lon="18.35146191855437"><ele>521.6666666666666</ele><time>2026-05-03T16:23:14Z</time></trkpt><trkpt lat="43.80006777863716" lon="18.351304820421316"><ele>521.3333333333333</ele><time>2026-05-03T16:23:15Z</time></trkpt><trkpt lat="43.800191576576594" lon="18.351138975232022"><ele>521.0</ele><time>2026-05-03T16:23:16Z</time></trkpt><trkpt lat="43.800325192134004" lon="18.350966702010027"><ele>521.0</ele><time>2026-05-03T16:23:17Z</time></trkpt><trkpt lat="43.800477385507975" lon="18.350792939119607"><ele>521.0</ele><time>2026-05-03T16:23:18Z</time></trkpt><trkpt lat="43.80063914538508" lon="18.350639210563372"><ele>521.0</ele><time>2026-05-03T16:23:19Z</time></trkpt><trkpt lat="43.80079009822065" lon="18.3505024396273"><ele>521.0</ele><time>2026-05-03T16:23:20Z</time></trkpt><trkpt lat="43.80092228412836" lon="18.350382594147593"><ele>521.0</ele><time>2026-05-03T16:23:21Z</time></trkpt><trkpt lat="43.80107723808437" lon="18.350229915496882"><ele>521.0</ele><time>2026-05-03T16:23:22Z</time></trkpt><trkpt lat="43.801270421160226" lon="18.3500314402156"><ele>521.0</ele><time>2026-05-03T16:23:23Z</time></trkpt><trkpt lat="43.80148662449133" lon="18.349857726248846"><ele>521.0</ele><time>2026-05-03T16:23:24Z</time></trkpt><trkpt lat="43.80166661403236" lon="18.349698556466784"><ele>521.0</ele><time>2026-05-03T16:23:25Z</time></trkpt><trkpt lat="43.801821817823495" lon="18.349551638576404"><ele>521.0</ele><time>2026-05-03T16:23:26Z</time></trkpt><trkpt lat="43.8019776085373" lon="18.349400999100205"><ele>521.0</ele><time>2026-05-03T16:23:27Z</time></trkpt><trkpt lat="43.80212362549894" lon="18.34926996614514"><ele>521.0</ele><time>2026-05-03T16:23:28Z</time></trkpt><trkpt lat="43.802272657549075" lon="18.349169305425892"><ele>521.0</ele><time>2026-05-03T16:23:29Z</time></trkpt><trkpt lat="43.802428405789215" lon="18.34910648524056"><ele>521.0</ele><time>2026-05-03T16:23:30Z</time></trkpt><trkpt lat="43.80258537376228" lon="18.349069482583275"><ele>521.3333333333333</ele><time>2026-05-03T16:23:31Z</time></trkpt><trkpt lat="43.80274401052316" lon="18.349028318077565"><ele>521.6666666666666</ele><time>2026-05-03T16:23:32Z</time></trkpt><trkpt lat="43.80289147105425" lon="18.348959744379748"><ele>522.0</ele><time>2026-05-03T16:23:33Z</time></trkpt><trkpt lat="43.80303284385778" lon="18.3488541542422"><ele>522.0</ele><time>2026-05-03T16:23:34Z</time></trkpt><trkpt lat="43.80315678799542" lon="18.348706729616918"><ele>522.0</ele><time>2026-05-03T16:23:35Z</time></trkpt><trkpt lat="43.803269357224266" lon="18.348533212689777"><ele>522.0</ele><time>2026-05-03T16:23:36Z</time></trkpt><trkpt lat="43.8033743978384" lon="18.348298163512585"><ele>522.0</ele><time>2026-05-03T16:23:37Z</time></trkpt><trkpt lat="43.80349144264669" lon="18.347997906834372"><ele>522.0</ele><time>2026-05-03T16:23:38Z</time></trkpt><trkpt lat="43.8036250203256" lon="18.34770806274158"><ele>522.0</ele><time>2026-05-03T16:23:39Z</time></trkpt><trkpt lat="43.80375053991445" lon="18.347460253789386"><ele>522.0</ele><time>2026-05-03T16:23:40Z</time></trkpt><trkpt lat="43.803859608199865" lon="18.347246002726298"><ele>522.0</ele><time>2026-05-03T16:23:41Z</time></trkpt><trkpt lat="43.80396197300922" lon="18.347058338061597"><ele>521.5</ele><time>2026-05-03T16:23:42Z</time></trkpt><trkpt lat="43.804068568322805" lon="18.34689828453111"><ele>521.0</ele><time>2026-05-03T16:23:43Z</time></trkpt><trkpt lat="43.804179505962225" lon="18.34677030662263"><ele>520.5</ele><time>2026-05-03T16:23:44Z</time></trkpt><trkpt lat="43.80429870502392" lon="18.34667546424949"><ele>520.0</ele><time>2026-05-03T16:23:45Z</time></trkpt><trkpt lat="43.80442837307307" lon="18.346602086369124"><ele>521.0</ele><time>2026-05-03T16:23:46Z</time></trkpt><trkpt lat="43.80456720706654" lon="18.346535541664192"><ele>522.0</ele><time>2026-05-03T16:23:47Z</time></trkpt><trkpt lat="43.80470243383136" lon="18.34647141952221"><ele>523.0</ele><time>2026-05-03T16:23:48Z</time></trkpt><trkpt lat="43.804837091571734" lon="18.346406920201208"><ele>524.0</ele><time>2026-05-03T16:23:49Z</time></trkpt><trkpt lat="43.80496795538186" lon="18.34633738009632"><ele>524.0</ele><time>2026-05-03T16:23:50Z</time></trkpt><trkpt lat="43.80509865620852" lon="18.34626641876199"><ele>524.0</ele><time>2026-05-03T16:23:51Z</time></trkpt><trkpt lat="43.805223047798876" lon="18.34619647035288"><ele>524.0</ele><time>2026-05-03T16:23:52Z</time></trkpt><trkpt lat="43.805338588925174" lon="18.346138890440695"><ele>524.0</ele><time>2026-05-03T16:23:53Z</time></trkpt><trkpt lat="43.805452528361045" lon="18.346081169281348"><ele>523.75</ele><time>2026-05-03T16:23:54Z</time></trkpt><trkpt lat="43.80556761461399" lon="18.34602363694604"><ele>523.5</ele><time>2026-05-03T16:23:55Z</time></trkpt><trkpt lat="43.805683086064924" lon="18.34596326267746"><ele>523.25</ele><time>2026-05-03T16:23:56Z</time></trkpt><trkpt lat="43.80580292900405" lon="18.34589970464302"><ele>523.0</ele><time>2026-05-03T16:23:57Z</time></trkpt><trkpt lat="43.80590500996404" lon="18.34584101796303"><ele>523.0</ele><time>2026-05-03T16:23:58Z</time></trkpt><trkpt lat="43.80599236371429" lon="18.345792383064197"><ele>523.0</ele><time>2026-05-03T16:23:59Z</time></trkpt><trkpt lat="43.80608085201677" lon="18.34574145977441"><ele>523.0</ele><time>2026-05-03T16:24:00Z</time></trkpt><trkpt lat="43.80618182551234" lon="18.345682296156824"><ele>523.0</ele><time>2026-05-03T16:24:01Z</time></trkpt><trkpt lat="43.80628569735982" lon="18.345619591743112"><ele>523.0</ele><time>2026-05-03T16:24:02Z</time></trkpt><trkpt lat="43.806382978667195" lon="18.345553480950205"><ele>522.6</ele><time>2026-05-03T16:24:03Z</time></trkpt><trkpt lat="43.806480946595826" lon="18.345488316007422"><ele>522.1999999999999</ele><time>2026-05-03T16:24:04Z</time></trkpt><trkpt lat="43.80657783515998" lon="18.345428492803503"><ele>521.8</ele><time>2026-05-03T16:24:05Z</time></trkpt><trkpt lat="43.80667835839466" lon="18.34537286054373"><ele>521.4</ele><time>2026-05-03T16:24:06Z</time></trkpt><trkpt lat="43.80678759415882" lon="18.345330631593708"><ele>521.0</ele><time>2026-05-03T16:24:07Z</time></trkpt><trkpt lat="43.806901130730004" lon="18.345318539533807"><ele>520.8</ele><time>2026-05-03T16:24:08Z</time></trkpt><trkpt lat="43.80700542068887" lon="18.345346312853877"><ele>520.6</ele><time>2026-05-03T16:24:09Z</time></trkpt><trkpt lat="43.80710356757788" lon="18.345403243116564"><ele>520.4</ele><time>2026-05-03T16:24:10Z</time></trkpt><trkpt lat="43.807196249264685" lon="18.345462832816644"><ele>520.2</ele><time>2026-05-03T16:24:11Z</time></trkpt><trkpt lat="43.80728812902684" lon="18.34551726274477"><ele>520.0</ele><time>2026-05-03T16:24:12Z</time></trkpt><trkpt lat="43.80738608229493" lon="18.345569135610543"><ele>520.0</ele><time>2026-05-03T16:24:13Z</time></trkpt><trkpt lat="43.807488054865594" lon="18.345624257250893"><ele>520.0</ele><time>2026-05-03T16:24:14Z</time></trkpt><trkpt lat="43.80758886609876" lon="18.345677417008524"><ele>520.0</ele><time>2026-05-03T16:24:15Z</time></trkpt><trkpt lat="43.8076918633271" lon="18.34572700757149"><ele>520.0</ele><time>2026-05-03T16:24:16Z</time></trkpt><trkpt lat="43.8077922138081" lon="18.345775788138702"><ele>520.0</ele><time>2026-05-03T16:24:17Z</time></trkpt><trkpt lat="43.80788162744124" lon="18.345821099245697"><ele>520.0</ele><time>2026-05-03T16:24:18Z</time></trkpt><trkpt lat="43.807959221242044" lon="18.34586142114254"><ele>520.0</ele><time>2026-05-03T16:24:19Z</time></trkpt><trkpt lat="43.80803400643282" lon="18.345902696686565"><ele>520.0</ele><time>2026-05-03T16:24:20Z</time></trkpt><trkpt lat="43.80812155920123" lon="18.345951571879937"><ele>520.0</ele><time>2026-05-03T16:24:21Z</time></trkpt><trkpt lat="43.80821601563123" lon="18.345998380740628"><ele>520.0</ele><time>2026-05-03T16:24:22Z</time></trkpt><trkpt lat="43.808293236937864" lon="18.34604088826101"><ele>520.0</ele><time>2026-05-03T16:24:23Z</time></trkpt><trkpt lat="43.80836088161402" lon="18.346075784868596"><ele>520.0</ele><time>2026-05-03T16:24:25Z</time></trkpt><trkpt lat="43.80844054682109" lon="18.3461115186731"><ele>520.0</ele><time>2026-05-03T16:24:29Z</time></trkpt><trkpt lat="43.808554850041034" lon="18.346173501419617"><ele>520.0</ele><time>2026-05-03T16:24:31Z</time></trkpt><trkpt lat="43.80863133793289" lon="18.346209189833225"><ele>520.0</ele><time>2026-05-03T16:24:32Z</time></trkpt><trkpt lat="43.808727076404864" lon="18.346254587734464"><ele>520.0</ele><time>2026-05-03T16:24:33Z</time></trkpt><trkpt lat="43.80883345221191" lon="18.34630232879292"><ele>520.0</ele><time>2026-05-03T16:24:34Z</time></trkpt><trkpt lat="43.808930077593914" lon="18.346340274987725"><ele>520.0</ele><time>2026-05-03T16:24:35Z</time></trkpt><trkpt lat="43.8090250445579" lon="18.34637243091414"><ele>520.0</ele><time>2026-05-03T16:24:36Z</time></trkpt><trkpt lat="43.809125027000576" lon="18.346402789257237"><ele>520.0</ele><time>2026-05-03T16:24:37Z</time></trkpt><trkpt lat="43.80922405237015" lon="18.346432051643433"><ele>520.0</ele><time>2026-05-03T16:24:38Z</time></trkpt><trkpt lat="43.80932211760708" lon="18.346458227313267"><ele>520.8</ele><time>2026-05-03T16:24:39Z</time></trkpt><trkpt lat="43.80942048941196" lon="18.346486421045086"><ele>521.6</ele><time>2026-05-03T16:24:40Z</time></trkpt><trkpt lat="43.809511523982664" lon="18.346513717203894"><ele>522.4</ele><time>2026-05-03T16:24:41Z</time></trkpt><trkpt lat="43.809603743678366" lon="18.346541456769163"><ele>523.2</ele><time>2026-05-03T16:24:42Z</time></trkpt><trkpt lat="43.80970477945564" lon="18.34657516246474"><ele>524.0</ele><time>2026-05-03T16:24:43Z</time></trkpt><trkpt lat="43.80981562440767" lon="18.346618252350677"><ele>524.0</ele><time>2026-05-03T16:24:44Z</time></trkpt><trkpt lat="43.809933961814735" lon="18.34667687218632"><ele>524.0</ele><time>2026-05-03T16:24:45Z</time></trkpt><trkpt lat="43.81006334514739" lon="18.346758729834168"><ele>524.0</ele><time>2026-05-03T16:24:46Z</time></trkpt><trkpt lat="43.810188350296286" lon="18.34684813079109"><ele>524.0</ele><time>2026-05-03T16:24:47Z</time></trkpt><trkpt lat="43.81031845209024" lon="18.34694514421556"><ele>524.3333333333333</ele><time>2026-05-03T16:24:48Z</time></trkpt><trkpt lat="43.81043557702028" lon="18.347083040752626"><ele>524.6666666666666</ele><time>2026-05-03T16:24:49Z</time></trkpt><trkpt lat="43.81054466455381" lon="18.347240463857023"><ele>525.0</ele><time>2026-05-03T16:24:50Z</time></trkpt><trkpt lat="43.81063861724234" lon="18.347399331056714"><ele>525.0</ele><time>2026-05-03T16:24:51Z</time></trkpt><trkpt lat="43.81072844045513" lon="18.347562882253275"><ele>525.0</ele><time>2026-05-03T16:24:52Z</time></trkpt><trkpt lat="43.81080873399697" lon="18.34772737776641"><ele>525.0</ele><time>2026-05-03T16:24:53Z</time></trkpt><trkpt lat="43.81088549325529" lon="18.347901754942974"><ele>525.0</ele><time>2026-05-03T16:24:54Z</time></trkpt><trkpt lat="43.81096157088312" lon="18.348089465114274"><ele>526.0</ele><time>2026-05-03T16:24:55Z</time></trkpt><trkpt lat="43.81104515668949" lon="18.348283994353192"><ele>527.0</ele><time>2026-05-03T16:24:56Z</time></trkpt><trkpt lat="43.81114475972831" lon="18.34849472422589"><ele>528.0</ele><time>2026-05-03T16:24:57Z</time></trkpt><trkpt lat="43.8112644873666" lon="18.34874360359747"><ele>527.6666666666666</ele><time>2026-05-03T16:24:58Z</time></trkpt><trkpt lat="43.811380841680716" lon="18.349024914251856"><ele>527.3333333333333</ele><time>2026-05-03T16:24:59Z</time></trkpt><trkpt lat="43.81147096410617" lon="18.349277027598248"><ele>527.0</ele><time>2026-05-03T16:25:00Z</time></trkpt><trkpt lat="43.81155520354005" lon="18.349503191022105"><ele>527.0</ele><time>2026-05-03T16:25:01Z</time></trkpt><trkpt lat="43.81163672121372" lon="18.349704122032364"><ele>527.0</ele><time>2026-05-03T16:25:02Z</time></trkpt><trkpt lat="43.81171993849374" lon="18.349880934230583"><ele>527.0</ele><time>2026-05-03T16:25:03Z</time></trkpt><trkpt lat="43.81180341596486" lon="18.35005988674619"><ele>525.6666666666666</ele><time>2026-05-03T16:25:04Z</time></trkpt><trkpt lat="43.811887877094904" lon="18.350238393235408"><ele>524.3333333333334</ele><time>2026-05-03T16:25:05Z</time></trkpt><trkpt lat="43.81198092587243" lon="18.35040771667286"><ele>523.0</ele><time>2026-05-03T16:25:06Z</time></trkpt><trkpt lat="43.81208345998652" lon="18.35056241487258"><ele>523.0</ele><time>2026-05-03T16:25:07Z</time></trkpt><trkpt lat="43.81219910447957" lon="18.350699024302216"><ele>523.0</ele><time>2026-05-03T16:25:08Z</time></trkpt><trkpt lat="43.81232832288258" lon="18.35081549029262"><ele>523.0</ele><time>2026-05-03T16:25:09Z</time></trkpt><trkpt lat="43.81247488337723" lon="18.350896856442613"><ele>523.0</ele><time>2026-05-03T16:25:10Z</time></trkpt><trkpt lat="43.81259440930916" lon="18.350989738769695"><ele>523.0</ele><time>2026-05-03T16:25:11Z</time></trkpt><trkpt lat="43.812707801737346" lon="18.351089828796624"><ele>523.0</ele><time>2026-05-03T16:25:12Z</time></trkpt><trkpt lat="43.8128298215614" lon="18.351190105596416"><ele>523.0</ele><time>2026-05-03T16:25:13Z</time></trkpt><trkpt lat="43.812954792189586" lon="18.35129331530914"><ele>524.6666666666667</ele><time>2026-05-03T16:25:14Z</time></trkpt><trkpt lat="43.813084239257776" lon="18.351396603857623"><ele>526.3333333333334</ele><time>2026-05-03T16:25:15Z</time></trkpt><trkpt lat="43.813215907929774" lon="18.351502817145267"><ele>528.0</ele><time>2026-05-03T16:25:16Z</time></trkpt><trkpt lat="43.81335579085164" lon="18.351614237682753"><ele>528.6666666666666</ele><time>2026-05-03T16:25:17Z</time></trkpt><trkpt lat="43.813496908709276" lon="18.351730148977026"><ele>529.3333333333333</ele><time>2026-05-03T16:25:18Z</time></trkpt><trkpt lat="43.813637287774306" lon="18.351846279717964"><ele>530.0</ele><time>2026-05-03T16:25:19Z</time></trkpt><trkpt lat="43.81378003969995" lon="18.351961386004152"><ele>530.0</ele><time>2026-05-03T16:25:20Z</time></trkpt><trkpt lat="43.81391164291803" lon="18.35207141944546"><ele>530.0</ele><time>2026-05-03T16:25:21Z</time></trkpt><trkpt lat="43.814033686787006" lon="18.352173680231104"><ele>530.0</ele><time>2026-05-03T16:25:22Z</time></trkpt><trkpt lat="43.81415383563558" lon="18.352274155901632"><ele>530.0</ele><time>2026-05-03T16:25:23Z</time></trkpt><trkpt lat="43.814263670240805" lon="18.352366017854205"><ele>529.0</ele><time>2026-05-03T16:25:24Z</time></trkpt><trkpt lat="43.81437261424398" lon="18.352463388549488"><ele>528.0</ele><time>2026-05-03T16:25:25Z</time></trkpt><trkpt lat="43.81447609660292" lon="18.352558182032148"><ele>527.0</ele><time>2026-05-03T16:25:26Z</time></trkpt><trkpt lat="43.81458136304674" lon="18.35265150707533"><ele>526.0</ele><time>2026-05-03T16:25:27Z</time></trkpt><trkpt lat="43.81468821202259" lon="18.352739794317117"><ele>526.0</ele><time>2026-05-03T16:25:28Z</time></trkpt><trkpt lat="43.814794020745666" lon="18.352831478686966"><ele>526.0</ele><time>2026-05-03T16:25:29Z</time></trkpt><trkpt lat="43.81490250204064" lon="18.352923838477558"><ele>526.0</ele><time>2026-05-03T16:25:30Z</time></trkpt><trkpt lat="43.81501073120816" lon="18.353019692156384"><ele>526.0</ele><time>2026-05-03T16:25:31Z</time></trkpt><trkpt lat="43.81511651222443" lon="18.35311525630409"><ele>526.25</ele><time>2026-05-03T16:25:32Z</time></trkpt><trkpt lat="43.815222894774145" lon="18.353212375190946"><ele>526.5</ele><time>2026-05-03T16:25:33Z</time></trkpt><trkpt lat="43.815327950513144" lon="18.353305397464037"><ele>526.75</ele><time>2026-05-03T16:25:34Z</time></trkpt><trkpt lat="43.81542166864352" lon="18.353385852237256"><ele>527.0</ele><time>2026-05-03T16:25:35Z</time></trkpt><trkpt lat="43.81550996701463" lon="18.353461449751787"><ele>527.0</ele><time>2026-05-03T16:25:36Z</time></trkpt><trkpt lat="43.81559752132089" lon="18.353530984713935"><ele>527.0</ele><time>2026-05-03T16:25:37Z</time></trkpt><trkpt lat="43.81568039953799" lon="18.3535926253859"><ele>527.0</ele><time>2026-05-03T16:25:38Z</time></trkpt><trkpt lat="43.815762161207005" lon="18.353655291355"><ele>527.0</ele><time>2026-05-03T16:25:39Z</time></trkpt><trkpt lat="43.815835581080925" lon="18.353723836291312"><ele>527.0</ele><time>2026-05-03T16:25:40Z</time></trkpt><trkpt lat="43.815897174945924" lon="18.35381571391257"><ele>527.0</ele><time>2026-05-03T16:25:41Z</time></trkpt><trkpt lat="43.81592141585538" lon="18.353935715934476"><ele>527.0</ele><time>2026-05-03T16:25:42Z</time></trkpt><trkpt lat="43.81593936971185" lon="18.354068438422964"><ele>527.0</ele><time>2026-05-03T16:25:43Z</time></trkpt><trkpt lat="43.8159805358881" lon="18.354201959356192"><ele>527.0</ele><time>2026-05-03T16:25:44Z</time></trkpt><trkpt lat="43.81604962202847" lon="18.354321507557902"><ele>527.0</ele><time>2026-05-03T16:25:45Z</time></trkpt><trkpt lat="43.81613381643288" lon="18.354424907904615"><ele>527.0</ele><time>2026-05-03T16:25:46Z</time></trkpt><trkpt lat="43.816224555221375" lon="18.354529887890823"><ele>527.0</ele><time>2026-05-03T16:25:47Z</time></trkpt><trkpt lat="43.81631707142298" lon="18.35463314026342"><ele>527.0</ele><time>2026-05-03T16:25:48Z</time></trkpt><trkpt lat="43.81640760098227" lon="18.354723623662018"><ele>527.0</ele><time>2026-05-03T16:25:49Z</time></trkpt><trkpt lat="43.81649816490301" lon="18.354811299780902"><ele>527.2</ele><time>2026-05-03T16:25:50Z</time></trkpt><trkpt lat="43.81658015740676" lon="18.354883807053806"><ele>527.4000000000001</ele><time>2026-05-03T16:25:51Z</time></trkpt><trkpt lat="43.81666727721927" lon="18.35496056373879"><ele>527.5999999999999</ele><time>2026-05-03T16:25:52Z</time></trkpt><trkpt lat="43.816764066460294" lon="18.355035245030084"><ele>527.8</ele><time>2026-05-03T16:25:53Z</time></trkpt><trkpt lat="43.81685897673055" lon="18.355104020522106"><ele>528.0</ele><time>2026-05-03T16:25:54Z</time></trkpt><trkpt lat="43.816952834752215" lon="18.3551676497248"><ele>528.0</ele><time>2026-05-03T16:25:55Z</time></trkpt><trkpt lat="43.81704479574133" lon="18.35523124920189"><ele>528.0</ele><time>2026-05-03T16:25:56Z</time></trkpt><trkpt lat="43.817137279495405" lon="18.35528875410061"><ele>528.0</ele><time>2026-05-03T16:25:57Z</time></trkpt><trkpt lat="43.81723077216803" lon="18.355351796853714"><ele>528.0</ele><time>2026-05-03T16:25:58Z</time></trkpt><trkpt lat="43.81732558452316" lon="18.355409433896444"><ele>528.0</ele><time>2026-05-03T16:25:59Z</time></trkpt><trkpt lat="43.817419949631415" lon="18.355463017228125"><ele>528.0</ele><time>2026-05-03T16:26:00Z</time></trkpt><trkpt lat="43.81751548832235" lon="18.355517197822596"><ele>528.0</ele><time>2026-05-03T16:26:01Z</time></trkpt><trkpt lat="43.817606897853125" lon="18.35557068845059"><ele>528.0</ele><time>2026-05-03T16:26:02Z</time></trkpt><trkpt lat="43.81770811639501" lon="18.35563123000883"><ele>528.0</ele><time>2026-05-03T16:26:03Z</time></trkpt><trkpt lat="43.81781905924428" lon="18.35569732156785"><ele>528.0</ele><time>2026-05-03T16:26:04Z</time></trkpt><trkpt lat="43.817921740250405" lon="18.35575949648017"><ele>528.25</ele><time>2026-05-03T16:26:05Z</time></trkpt><trkpt lat="43.81802595811943" lon="18.355826892722515"><ele>528.5</ele><time>2026-05-03T16:26:06Z</time></trkpt><trkpt lat="43.81812181882873" lon="18.35588870721413"><ele>528.75</ele><time>2026-05-03T16:26:07Z</time></trkpt><trkpt lat="43.81822545251443" lon="18.355945265414782"><ele>529.0</ele><time>2026-05-03T16:26:08Z</time></trkpt><trkpt lat="43.81833634723109" lon="18.356008916706624"><ele>529.0</ele><time>2026-05-03T16:26:09Z</time></trkpt><trkpt lat="43.81845145653116" lon="18.356074727753075"><ele>529.0</ele><time>2026-05-03T16:26:10Z</time></trkpt><trkpt lat="43.818568832218794" lon="18.356144698008556"><ele>529.0</ele><time>2026-05-03T16:26:11Z</time></trkpt><trkpt lat="43.81868619196336" lon="18.356212919368588"><ele>529.0</ele><time>2026-05-03T16:26:12Z</time></trkpt><trkpt lat="43.81880126898239" lon="18.356280993409985"><ele>529.0</ele><time>2026-05-03T16:26:13Z</time></trkpt><trkpt lat="43.81891581870393" lon="18.35634816896189"><ele>529.0</ele><time>2026-05-03T16:26:14Z</time></trkpt><trkpt lat="43.81902354856226" lon="18.35641555088961"><ele>529.0</ele><time>2026-05-03T16:26:15Z</time></trkpt><trkpt lat="43.819135209656324" lon="18.356485874158558"><ele>529.0</ele><time>2026-05-03T16:26:16Z</time></trkpt><trkpt lat="43.81924154218928" lon="18.356550144859504"><ele>529.8</ele><time>2026-05-03T16:26:17Z</time></trkpt><trkpt lat="43.819343730008384" lon="18.35660948049638"><ele>530.5999999999999</ele><time>2026-05-03T16:26:18Z</time></trkpt><trkpt lat="43.819441206300176" lon="18.35667208115811"><ele>531.4</ele><time>2026-05-03T16:26:19Z</time></trkpt><trkpt lat="43.819548232698594" lon="18.3567343144218"><ele>532.1999999999999</ele><time>2026-05-03T16:26:20Z</time></trkpt><trkpt lat="43.819650800425435" lon="18.356794199166462"><ele>533.0</ele><time>2026-05-03T16:26:21Z</time></trkpt><trkpt lat="43.8197511360887" lon="18.356864614648906"><ele>533.0</ele><time>2026-05-03T16:26:22Z</time></trkpt><trkpt lat="43.81985743737811" lon="18.356943348684638"><ele>533.0</ele><time>2026-05-03T16:26:23Z</time></trkpt><trkpt lat="43.81996183832362" lon="18.357029819929828"><ele>533.0</ele><time>2026-05-03T16:26:24Z</time></trkpt><trkpt lat="43.82005849269846" lon="18.35712323886465"><ele>533.0</ele><time>2026-05-03T16:26:25Z</time></trkpt><trkpt lat="43.82014927110425" lon="18.357218644812313"><ele>533.0</ele><time>2026-05-03T16:26:26Z</time></trkpt><trkpt lat="43.8202374063647" lon="18.35731662008048"><ele>533.0</ele><time>2026-05-03T16:26:27Z</time></trkpt><trkpt lat="43.82032479351285" lon="18.357419344130857"><ele>533.0</ele><time>2026-05-03T16:26:28Z</time></trkpt><trkpt lat="43.8204016423946" lon="18.357527840970338"><ele>533.0</ele><time>2026-05-03T16:26:29Z</time></trkpt><trkpt lat="43.820466045403315" lon="18.35763269462372"><ele>533.0</ele><time>2026-05-03T16:26:30Z</time></trkpt><trkpt lat="43.8205300015932" lon="18.357733798658085"><ele>533.0</ele><time>2026-05-03T16:26:31Z</time></trkpt><trkpt lat="43.82058608784138" lon="18.35783262344232"><ele>533.0</ele><time>2026-05-03T16:26:32Z</time></trkpt><trkpt lat="43.82063442695469" lon="18.357925600741197"><ele>533.0</ele><time>2026-05-03T16:26:33Z</time></trkpt><trkpt lat="43.82067729401874" lon="18.358007491720333"><ele>533.0</ele><time>2026-05-03T16:26:34Z</time></trkpt><trkpt lat="43.82072357300337" lon="18.358106406281138"><ele>533.0</ele><time>2026-05-03T16:26:36Z</time></trkpt><trkpt lat="43.82074864017518" lon="18.358194306959113"><ele>533.0</ele><time>2026-05-03T16:26:40Z</time></trkpt><trkpt lat="43.82080351519273" lon="18.358305794598884"><ele>533.1999999999999</ele><time>2026-05-03T16:26:43Z</time></trkpt><trkpt lat="43.82086543787356" lon="18.358432710425962"><ele>533.4</ele><time>2026-05-03T16:26:45Z</time></trkpt><trkpt lat="43.820942178682" lon="18.358581311924514"><ele>533.5999999999999</ele><time>2026-05-03T16:26:47Z</time></trkpt><trkpt lat="43.82098065607753" lon="18.358663842213527"><ele>533.8</ele><time>2026-05-03T16:26:48Z</time></trkpt><trkpt lat="43.821028000383684" lon="18.358749288162493"><ele>534.0</ele><time>2026-05-03T16:26:49Z</time></trkpt><trkpt lat="43.82108210349233" lon="18.35883559610936"><ele>533.4</ele><time>2026-05-03T16:26:50Z</time></trkpt><trkpt lat="43.8211374882789" lon="18.358939732525467"><ele>532.8</ele><time>2026-05-03T16:26:51Z</time></trkpt><trkpt lat="43.82119352851644" lon="18.359035935023883"><ele>532.2</ele><time>2026-05-03T16:26:52Z</time></trkpt><trkpt lat="43.821249007488376" lon="18.359122885025844"><ele>531.6</ele><time>2026-05-03T16:26:53Z</time></trkpt><trkpt lat="43.82131134525331" lon="18.35921906077309"><ele>531.0</ele><time>2026-05-03T16:26:54Z</time></trkpt><trkpt lat="43.82137476748684" lon="18.359315962714206"><ele>531.0</ele><time>2026-05-03T16:26:55Z</time></trkpt><trkpt lat="43.82144140193923" lon="18.359420316928574"><ele>531.0</ele><time>2026-05-03T16:26:56Z</time></trkpt><trkpt lat="43.821513910562935" lon="18.35952657566063"><ele>531.0</ele><time>2026-05-03T16:26:57Z</time></trkpt><trkpt lat="43.82159261595963" lon="18.35963955893016"><ele>531.0</ele><time>2026-05-03T16:26:58Z</time></trkpt><trkpt lat="43.82167751002719" lon="18.359751161607456"><ele>531.0</ele><time>2026-05-03T16:26:59Z</time></trkpt><trkpt lat="43.82175948763622" lon="18.359861045688675"><ele>531.5</ele><time>2026-05-03T16:27:00Z</time></trkpt><trkpt lat="43.821835958517454" lon="18.35997287382788"><ele>532.0</ele><time>2026-05-03T16:27:01Z</time></trkpt><trkpt lat="43.821918107897645" lon="18.360091630732114"><ele>532.5</ele><time>2026-05-03T16:27:02Z</time></trkpt><trkpt lat="43.82199669290036" lon="18.36020434654248"><ele>533.0</ele><time>2026-05-03T16:27:03Z</time></trkpt><trkpt lat="43.82207178443675" lon="18.360320278901543"><ele>533.0</ele><time>2026-05-03T16:27:04Z</time></trkpt><trkpt lat="43.82214245750634" lon="18.360433201672663"><ele>533.0</ele><time>2026-05-03T16:27:05Z</time></trkpt><trkpt lat="43.82221482472159" lon="18.360543047633133"><ele>533.0</ele><time>2026-05-03T16:27:06Z</time></trkpt><trkpt lat="43.82228653403107" lon="18.360650720044312"><ele>533.0</ele><time>2026-05-03T16:27:07Z</time></trkpt><trkpt lat="43.82235876079909" lon="18.360748474917113"><ele>533.0</ele><time>2026-05-03T16:27:08Z</time></trkpt><trkpt lat="43.82242740753083" lon="18.36085117406994"><ele>533.0</ele><time>2026-05-03T16:27:09Z</time></trkpt><trkpt lat="43.822496095422764" lon="18.36095521531115"><ele>533.0</ele><time>2026-05-03T16:27:10Z</time></trkpt><trkpt lat="43.822569175448244" lon="18.361063226707103"><ele>533.0</ele><time>2026-05-03T16:27:11Z</time></trkpt><trkpt lat="43.82263919687063" lon="18.36117070831184"><ele>533.0</ele><time>2026-05-03T16:27:12Z</time></trkpt><trkpt lat="43.8227096231139" lon="18.361276704348878"><ele>533.0</ele><time>2026-05-03T16:27:13Z</time></trkpt><trkpt lat="43.822779665126966" lon="18.361385009669295"><ele>534.1999999999999</ele><time>2026-05-03T16:27:14Z</time></trkpt><trkpt lat="43.82284337928931" lon="18.36148737387719"><ele>535.4</ele><time>2026-05-03T16:27:15Z</time></trkpt><trkpt lat="43.822921282706055" lon="18.36159533177615"><ele>536.5999999999999</ele><time>2026-05-03T16:27:16Z</time></trkpt><trkpt lat="43.82298996317671" lon="18.36170152066314"><ele>537.8</ele><time>2026-05-03T16:27:17Z</time></trkpt><trkpt lat="43.823056279127194" lon="18.361808202886895"><ele>539.0</ele><time>2026-05-03T16:27:18Z</time></trkpt><trkpt lat="43.82312669724123" lon="18.361907641686773"><ele>539.0</ele><time>2026-05-03T16:27:19Z</time></trkpt><trkpt lat="43.82318967595289" lon="18.36200988720441"><ele>539.0</ele><time>2026-05-03T16:27:20Z</time></trkpt><trkpt lat="43.823251674657016" lon="18.3621095560681"><ele>539.0</ele><time>2026-05-03T16:27:21Z</time></trkpt><trkpt lat="43.823320436986805" lon="18.36220513698643"><ele>539.0</ele><time>2026-05-03T16:27:22Z</time></trkpt><trkpt lat="43.82340015993237" lon="18.36229577184571"><ele>539.0</ele><time>2026-05-03T16:27:23Z</time></trkpt><trkpt lat="43.82348254135338" lon="18.362390129604496"><ele>539.0</ele><time>2026-05-03T16:27:24Z</time></trkpt><trkpt lat="43.82356926416145" lon="18.36248469596009"><ele>539.0</ele><time>2026-05-03T16:27:25Z</time></trkpt><trkpt lat="43.8236606286973" lon="18.362568339572586"><ele>539.0</ele><time>2026-05-03T16:27:26Z</time></trkpt><trkpt lat="43.82374925889307" lon="18.36264915423314"><ele>539.0</ele><time>2026-05-03T16:27:27Z</time></trkpt><trkpt lat="43.82383593794285" lon="18.362724022141737"><ele>539.0</ele><time>2026-05-03T16:27:28Z</time></trkpt><trkpt lat="43.823922704951485" lon="18.362801334706948"><ele>539.0</ele><time>2026-05-03T16:27:29Z</time></trkpt><trkpt lat="43.82401137383446" lon="18.362886889545813"><ele>539.0</ele><time>2026-05-03T16:27:30Z</time></trkpt><trkpt lat="43.824109590064744" lon="18.362978117264028"><ele>539.0</ele><time>2026-05-03T16:27:31Z</time></trkpt><trkpt lat="43.82419918734837" lon="18.363059928973872"><ele>539.0</ele><time>2026-05-03T16:27:32Z</time></trkpt><trkpt lat="43.824283701762894" lon="18.36312569609675"><ele>539.0</ele><time>2026-05-03T16:27:33Z</time></trkpt><trkpt lat="43.82436309521615" lon="18.363187838238716"><ele>538.2</ele><time>2026-05-03T16:27:34Z</time></trkpt><trkpt lat="43.82443775469578" lon="18.36324521601332"><ele>537.4</ele><time>2026-05-03T16:27:35Z</time></trkpt><trkpt lat="43.82451180903305" lon="18.363307860280006"><ele>536.6</ele><time>2026-05-03T16:27:36Z</time></trkpt><trkpt lat="43.82459159389891" lon="18.36338435873485"><ele>535.8</ele><time>2026-05-03T16:27:37Z</time></trkpt><trkpt lat="43.82467338070245" lon="18.36345552831768"><ele>535.0</ele><time>2026-05-03T16:27:38Z</time></trkpt><trkpt lat="43.82475889146713" lon="18.363528596635955"><ele>535.0</ele><time>2026-05-03T16:27:39Z</time></trkpt><trkpt lat="43.82484115233614" lon="18.36359992108137"><ele>535.0</ele><time>2026-05-03T16:27:40Z</time></trkpt><trkpt lat="43.824923601644414" lon="18.36366039904289"><ele>535.0</ele><time>2026-05-03T16:27:41Z</time></trkpt><trkpt lat="43.82500161468709" lon="18.363720625373677"><ele>535.0</ele><time>2026-05-03T16:27:42Z</time></trkpt><trkpt lat="43.82507747415734" lon="18.363786664032144"><ele>535.0</ele><time>2026-05-03T16:27:43Z</time></trkpt><trkpt lat="43.8251543993855" lon="18.363847500032335"><ele>534.0</ele><time>2026-05-03T16:27:44Z</time></trkpt><trkpt lat="43.82522522394802" lon="18.363911648482222"><ele>533.0</ele><time>2026-05-03T16:27:45Z</time></trkpt><trkpt lat="43.82529009275707" lon="18.363969487641977"><ele>532.0</ele><time>2026-05-03T16:27:46Z</time></trkpt><trkpt lat="43.82535585764544" lon="18.3640242972055"><ele>531.0</ele><time>2026-05-03T16:27:47Z</time></trkpt><trkpt lat="43.82542286011923" lon="18.364084111037066"><ele>530.0</ele><time>2026-05-03T16:27:48Z</time></trkpt><trkpt lat="43.82549560191417" lon="18.364143810656778"><ele>529.0</ele><time>2026-05-03T16:27:49Z</time></trkpt><trkpt lat="43.82556783193112" lon="18.364203880031884"><ele>529.0</ele><time>2026-05-03T16:27:50Z</time></trkpt><trkpt lat="43.825638038491924" lon="18.36426217182334"><ele>529.0</ele><time>2026-05-03T16:27:51Z</time></trkpt><trkpt lat="43.82571564754888" lon="18.36432760935505"><ele>529.0</ele><time>2026-05-03T16:27:52Z</time></trkpt><trkpt lat="43.825794048402486" lon="18.36440000864867"><ele>529.0</ele><time>2026-05-03T16:27:53Z</time></trkpt><trkpt lat="43.82587351989695" lon="18.36447454278681"><ele>529.0</ele><time>2026-05-03T16:27:54Z</time></trkpt><trkpt lat="43.82595606357382" lon="18.364549058999433"><ele>528.4</ele><time>2026-05-03T16:27:55Z</time></trkpt><trkpt lat="43.82604299409727" lon="18.364625813728402"><ele>527.8</ele><time>2026-05-03T16:27:56Z</time></trkpt><trkpt lat="43.82613073206008" lon="18.364707678632"><ele>527.2</ele><time>2026-05-03T16:27:57Z</time></trkpt><trkpt lat="43.826207346640025" lon="18.364791004592515"><ele>526.6</ele><time>2026-05-03T16:27:58Z</time></trkpt><trkpt lat="43.826289997878" lon="18.364869501522"><ele>526.0</ele><time>2026-05-03T16:27:59Z</time></trkpt><trkpt lat="43.82636703184156" lon="18.36495147117989"><ele>526.0</ele><time>2026-05-03T16:28:00Z</time></trkpt><trkpt lat="43.82644060878147" lon="18.36504096319271"><ele>526.0</ele><time>2026-05-03T16:28:01Z</time></trkpt><trkpt lat="43.82650763663271" lon="18.365123445321398"><ele>526.0</ele><time>2026-05-03T16:28:02Z</time></trkpt><trkpt lat="43.826564712398074" lon="18.365204138100406"><ele>526.0</ele><time>2026-05-03T16:28:03Z</time></trkpt><trkpt lat="43.826617718202044" lon="18.365286144717842"><ele>526.0</ele><time>2026-05-03T16:28:04Z</time></trkpt><trkpt lat="43.82666547659496" lon="18.36536714829866"><ele>526.0</ele><time>2026-05-03T16:28:05Z</time></trkpt><trkpt lat="43.82671801234573" lon="18.365449595357145"><ele>526.1666666666667</ele><time>2026-05-03T16:28:06Z</time></trkpt><trkpt lat="43.82676287881954" lon="18.36553555469022"><ele>526.3333333333334</ele><time>2026-05-03T16:28:07Z</time></trkpt><trkpt lat="43.826803332792764" lon="18.36562520926166"><ele>526.5</ele><time>2026-05-03T16:28:08Z</time></trkpt><trkpt lat="43.82684063971468" lon="18.365712746043044"><ele>526.6666666666666</ele><time>2026-05-03T16:28:09Z</time></trkpt><trkpt lat="43.826873476874006" lon="18.365790871331775"><ele>526.8333333333333</ele><time>2026-05-03T16:28:10Z</time></trkpt><trkpt lat="43.826933935291116" lon="18.365927468129208"><ele>527.0</ele><time>2026-05-03T16:28:12Z</time></trkpt><trkpt lat="43.8269992061728" lon="18.36606698863783"><ele>526.8333333333333</ele><time>2026-05-03T16:28:14Z</time></trkpt><trkpt lat="43.827032955661366" lon="18.36614775175046"><ele>526.6666666666666</ele><time>2026-05-03T16:28:15Z</time></trkpt><trkpt lat="43.82708571271065" lon="18.366279127448518"><ele>526.5</ele><time>2026-05-03T16:28:17Z</time></trkpt><trkpt lat="43.827134562740106" lon="18.366401932951653"><ele>526.3333333333334</ele><time>2026-05-03T16:28:19Z</time></trkpt><trkpt lat="43.82715418568848" lon="18.3664871244174"><ele>526.1666666666667</ele><time>2026-05-03T16:28:20Z</time></trkpt><trkpt lat="43.827165201324334" lon="18.366590338006773"><ele>526.0</ele><time>2026-05-03T16:28:21Z</time></trkpt><trkpt lat="43.82716927707556" lon="18.36669276185789"><ele>526.0</ele><time>2026-05-03T16:28:22Z</time></trkpt><trkpt lat="43.82719292040915" lon="18.366785587310222"><ele>526.0</ele><time>2026-05-03T16:28:23Z</time></trkpt><trkpt lat="43.82723938626266" lon="18.36684982425691"><ele>526.0</ele><time>2026-05-03T16:28:24Z</time></trkpt><trkpt lat="43.827305196500774" lon="18.366893740019268"><ele>526.0</ele><time>2026-05-03T16:28:25Z</time></trkpt><trkpt lat="43.827378930633486" lon="18.366930160367666"><ele>526.0</ele><time>2026-05-03T16:28:26Z</time></trkpt><trkpt lat="43.82744594554014" lon="18.367004856750828"><ele>526.0</ele><time>2026-05-03T16:28:27Z</time></trkpt><trkpt lat="43.82749147542271" lon="18.367104937204477"><ele>525.8</ele><time>2026-05-03T16:28:28Z</time></trkpt><trkpt lat="43.82754133866736" lon="18.367218346275777"><ele>525.6</ele><time>2026-05-03T16:28:29Z</time></trkpt><trkpt lat="43.827590727986674" lon="18.367326615638408"><ele>525.4</ele><time>2026-05-03T16:28:30Z</time></trkpt><trkpt lat="43.8276406363998" lon="18.367430965793204"><ele>525.2</ele><time>2026-05-03T16:28:31Z</time></trkpt><trkpt lat="43.82769364873626" lon="18.367541351321893"><ele>525.0</ele><time>2026-05-03T16:28:32Z</time></trkpt><trkpt lat="43.82775167467358" lon="18.36765585406498"><ele>525.0</ele><time>2026-05-03T16:28:33Z</time></trkpt><trkpt lat="43.82780417199139" lon="18.36776761826463"><ele>525.0</ele><time>2026-05-03T16:28:34Z</time></trkpt><trkpt lat="43.82785445066109" lon="18.36787849072854"><ele>525.0</ele><time>2026-05-03T16:28:35Z</time></trkpt><trkpt lat="43.82790387826777" lon="18.367990634983524"><ele>525.0</ele><time>2026-05-03T16:28:36Z</time></trkpt><trkpt lat="43.82795200342492" lon="18.368098479708344"><ele>525.0</ele><time>2026-05-03T16:28:37Z</time></trkpt><trkpt lat="43.82800081831554" lon="18.368206471502187"><ele>525.2</ele><time>2026-05-03T16:28:38Z</time></trkpt><trkpt lat="43.82805163302999" lon="18.368315116145727"><ele>525.4</ele><time>2026-05-03T16:28:39Z</time></trkpt><trkpt lat="43.82810721415898" lon="18.368418569945664"><ele>525.6</ele><time>2026-05-03T16:28:40Z</time></trkpt><trkpt lat="43.82816444808476" lon="18.36851875032188"><ele>525.8</ele><time>2026-05-03T16:28:41Z</time></trkpt><trkpt lat="43.82822529398507" lon="18.368612213733897"><ele>526.0</ele><time>2026-05-03T16:28:42Z</time></trkpt><trkpt lat="43.82828961617213" lon="18.36869367554907"><ele>526.0</ele><time>2026-05-03T16:28:43Z</time></trkpt><trkpt lat="43.82835264395013" lon="18.368763939246215"><ele>526.0</ele><time>2026-05-03T16:28:44Z</time></trkpt><trkpt lat="43.82840501636174" lon="18.368818022897013"><ele>526.0</ele><time>2026-05-03T16:28:45Z</time></trkpt><trkpt lat="43.82846898291119" lon="18.368872453493665"><ele>526.0</ele><time>2026-05-03T16:28:47Z</time></trkpt><trkpt lat="43.828524055626154" lon="18.368934037682383"><ele>526.0</ele><time>2026-05-03T16:28:49Z</time></trkpt><trkpt lat="43.82857970103445" lon="18.368983089505516"><ele>526.0</ele><time>2026-05-03T16:28:52Z</time></trkpt><trkpt lat="43.82865240308082" lon="18.369044527751885"><ele>526.0</ele><time>2026-05-03T16:29:02Z</time></trkpt><trkpt lat="43.8287435250327" lon="18.36911957681868"><ele>526.3333333333334</ele><time>2026-05-03T16:29:04Z</time></trkpt><trkpt lat="43.828826276200296" lon="18.369192074880104"><ele>526.6666666666667</ele><time>2026-05-03T16:29:06Z</time></trkpt><trkpt lat="43.82890434755444" lon="18.369261643326293"><ele>527.0</ele><time>2026-05-03T16:29:08Z</time></trkpt><trkpt lat="43.829001883349186" lon="18.36934737419671"><ele>527.3333333333334</ele><time>2026-05-03T16:29:10Z</time></trkpt><trkpt lat="43.82905741233295" lon="18.369401440089124"><ele>527.6666666666666</ele><time>2026-05-03T16:29:11Z</time></trkpt><trkpt lat="43.82911414326597" lon="18.369463946775873"><ele>528.0</ele><time>2026-05-03T16:29:12Z</time></trkpt><trkpt lat="43.829168072993156" lon="18.36953310725142"><ele>528.0</ele><time>2026-05-03T16:29:13Z</time></trkpt><trkpt lat="43.82922014463469" lon="18.36960539278575"><ele>528.0</ele><time>2026-05-03T16:29:14Z</time></trkpt><trkpt lat="43.829262158622136" lon="18.369690712014155"><ele>528.0</ele><time>2026-05-03T16:29:15Z</time></trkpt><trkpt lat="43.82928805739393" lon="18.36978556200232"><ele>528.0</ele><time>2026-05-03T16:29:16Z</time></trkpt><trkpt lat="43.82930221051374" lon="18.36989333679364"><ele>528.0</ele><time>2026-05-03T16:29:17Z</time></trkpt><trkpt lat="43.82930819014599" lon="18.369996911773473"><ele>528.0</ele><time>2026-05-03T16:29:18Z</time></trkpt><trkpt lat="43.82930755488492" lon="18.370094274591256"><ele>528.0</ele><time>2026-05-03T16:29:19Z</time></trkpt><trkpt lat="43.829304821498525" lon="18.370191985412415"><ele>528.0</ele><time>2026-05-03T16:29:20Z</time></trkpt><trkpt lat="43.82929903120134" lon="18.370291987616447"><ele>528.0</ele><time>2026-05-03T16:29:21Z</time></trkpt><trkpt lat="43.8292951977543" lon="18.370399976446013"><ele>528.0</ele><time>2026-05-03T16:29:22Z</time></trkpt><trkpt lat="43.82928897498937" lon="18.370515985902262"><ele>528.0</ele><time>2026-05-03T16:29:23Z</time></trkpt><trkpt lat="43.82928299913232" lon="18.37063496302205"><ele>528.0</ele><time>2026-05-03T16:29:24Z</time></trkpt><trkpt lat="43.829277235637086" lon="18.370761187689546"><ele>528.0</ele><time>2026-05-03T16:29:25Z</time></trkpt><trkpt lat="43.829268817905614" lon="18.37088827027939"><ele>528.1999999999999</ele><time>2026-05-03T16:29:26Z</time></trkpt><trkpt lat="43.82925992149065" lon="18.371017348411502"><ele>528.4</ele><time>2026-05-03T16:29:27Z</time></trkpt><trkpt lat="43.82925627123603" lon="18.3711376643454"><ele>528.5999999999999</ele><time>2026-05-03T16:29:28Z</time></trkpt><trkpt lat="43.829255710721085" lon="18.37125652983318"><ele>528.8</ele><time>2026-05-03T16:29:29Z</time></trkpt><trkpt lat="43.82925195498462" lon="18.371381556970018"><ele>529.0</ele><time>2026-05-03T16:29:30Z</time></trkpt><trkpt lat="43.82924838887699" lon="18.37151478347412"><ele>529.0</ele><time>2026-05-03T16:29:31Z</time></trkpt><trkpt lat="43.82924654135346" lon="18.3716552738731"><ele>529.0</ele><time>2026-05-03T16:29:32Z</time></trkpt><trkpt lat="43.82924413061883" lon="18.371789063844076"><ele>529.0</ele><time>2026-05-03T16:29:33Z</time></trkpt><trkpt lat="43.82924094198695" lon="18.37191083627616"><ele>529.0</ele><time>2026-05-03T16:29:34Z</time></trkpt><trkpt lat="43.82924013744455" lon="18.372025228509973"><ele>529.0</ele><time>2026-05-03T16:29:35Z</time></trkpt><trkpt lat="43.82923401832412" lon="18.37214768272715"><ele>529.0</ele><time>2026-05-03T16:29:36Z</time></trkpt><trkpt lat="43.82922941190816" lon="18.37225744177846"><ele>529.0</ele><time>2026-05-03T16:29:37Z</time></trkpt><trkpt lat="43.82922460857224" lon="18.37236475584641"><ele>529.0</ele><time>2026-05-03T16:29:38Z</time></trkpt><trkpt lat="43.82922040191795" lon="18.372462837176197"><ele>529.0</ele><time>2026-05-03T16:29:39Z</time></trkpt><trkpt lat="43.82921501004448" lon="18.372558976557578"><ele>529.0</ele><time>2026-05-03T16:29:40Z</time></trkpt><trkpt lat="43.829210433481485" lon="18.372650674732114"><ele>529.0</ele><time>2026-05-03T16:29:41Z</time></trkpt><trkpt lat="43.82920791367525" lon="18.372738563835807"><ele>529.0</ele><time>2026-05-03T16:29:42Z</time></trkpt><trkpt lat="43.82920223918339" lon="18.37290594037647"><ele>530.0</ele><time>2026-05-03T16:29:44Z</time></trkpt><trkpt lat="43.8291955434643" lon="18.373059652797192"><ele>531.0</ele><time>2026-05-03T16:29:46Z</time></trkpt><trkpt lat="43.82919465752513" lon="18.3731471239857"><ele>532.0</ele><time>2026-05-03T16:29:49Z</time></trkpt><trkpt lat="43.829190511757155" lon="18.37328207284565"><ele>533.0</ele><time>2026-05-03T16:29:52Z</time></trkpt><trkpt lat="43.8291843770322" lon="18.373413944309252"><ele>534.0</ele><time>2026-05-03T16:29:54Z</time></trkpt><trkpt lat="43.82917605054692" lon="18.37354565837912"><ele>534.0</ele><time>2026-05-03T16:29:56Z</time></trkpt><trkpt lat="43.829135153656054" lon="18.373678244646246"><ele>534.0</ele><time>2026-05-03T16:29:58Z</time></trkpt><trkpt lat="43.82912524467986" lon="18.37380222598094"><ele>534.0</ele><time>2026-05-03T16:30:00Z</time></trkpt><trkpt lat="43.82918642339954" lon="18.373880349119702"><ele>534.0</ele><time>2026-05-03T16:30:02Z</time></trkpt><trkpt lat="43.82925563953561" lon="18.373898505656108"><ele>534.0</ele><time>2026-05-03T16:30:03Z</time></trkpt><trkpt lat="43.829332812157226" lon="18.373931507820004"><ele>534.0</ele><time>2026-05-03T16:30:04Z</time></trkpt><trkpt lat="43.829401825091125" lon="18.37400774330053"><ele>534.8333333333334</ele><time>2026-05-03T16:30:05Z</time></trkpt><trkpt lat="43.82946800074634" lon="18.374085835697688"><ele>535.6666666666666</ele><time>2026-05-03T16:30:06Z</time></trkpt><trkpt lat="43.829531158467965" lon="18.374152532337305"><ele>536.5</ele><time>2026-05-03T16:30:07Z</time></trkpt><trkpt lat="43.829598694842474" lon="18.37422676783524"><ele>537.3333333333333</ele><time>2026-05-03T16:30:08Z</time></trkpt><trkpt lat="43.82966692236441" lon="18.374306195989675"><ele>538.1666666666666</ele><time>2026-05-03T16:30:09Z</time></trkpt><trkpt lat="43.82973192853233" lon="18.3743835951303"><ele>539.0</ele><time>2026-05-03T16:30:10Z</time></trkpt><trkpt lat="43.82979757721215" lon="18.37446262511552"><ele>539.0</ele><time>2026-05-03T16:30:11Z</time></trkpt><trkpt lat="43.829870595634915" lon="18.37454447000877"><ele>539.0</ele><time>2026-05-03T16:30:12Z</time></trkpt><trkpt lat="43.82993889156817" lon="18.37461767549022"><ele>539.0</ele><time>2026-05-03T16:30:13Z</time></trkpt><trkpt lat="43.83000327171547" lon="18.37468815474069"><ele>539.0</ele><time>2026-05-03T16:30:14Z</time></trkpt><trkpt lat="43.83006345086213" lon="18.374759406836436"><ele>539.0</ele><time>2026-05-03T16:30:15Z</time></trkpt><trkpt lat="43.8301263903173" lon="18.37482738788279"><ele>539.0</ele><time>2026-05-03T16:30:16Z</time></trkpt><trkpt lat="43.83018982856012" lon="18.374894253311613"><ele>539.5</ele><time>2026-05-03T16:30:17Z</time></trkpt><trkpt lat="43.83025406548368" lon="18.374964905791565"><ele>540.0</ele><time>2026-05-03T16:30:18Z</time></trkpt><trkpt lat="43.83031485701938" lon="18.375034901920177"><ele>540.5</ele><time>2026-05-03T16:30:19Z</time></trkpt><trkpt lat="43.830376603179324" lon="18.375107739577764"><ele>541.0</ele><time>2026-05-03T16:30:20Z</time></trkpt><trkpt lat="43.83044856051267" lon="18.37518693609359"><ele>541.5</ele><time>2026-05-03T16:30:21Z</time></trkpt><trkpt lat="43.83052779174182" lon="18.37527359834188"><ele>542.0</ele><time>2026-05-03T16:30:22Z</time></trkpt><trkpt lat="43.83061107804285" lon="18.375364557732876"><ele>542.0</ele><time>2026-05-03T16:30:23Z</time></trkpt><trkpt lat="43.83069898115924" lon="18.37546178027128"><ele>542.0</ele><time>2026-05-03T16:30:24Z</time></trkpt><trkpt lat="43.83077813621098" lon="18.37555497719875"><ele>542.0</ele><time>2026-05-03T16:30:25Z</time></trkpt><trkpt lat="43.83085454194116" lon="18.37564458850997"><ele>542.0</ele><time>2026-05-03T16:30:26Z</time></trkpt><trkpt lat="43.830927402404306" lon="18.37573550886801"><ele>542.0</ele><time>2026-05-03T16:30:27Z</time></trkpt><trkpt lat="43.83100329378003" lon="18.375836649125294"><ele>541.5</ele><time>2026-05-03T16:30:28Z</time></trkpt><trkpt lat="43.83108039125573" lon="18.375945683497584"><ele>541.0</ele><time>2026-05-03T16:30:29Z</time></trkpt><trkpt lat="43.83116358310106" lon="18.37606766886943"><ele>540.5</ele><time>2026-05-03T16:30:30Z</time></trkpt><trkpt lat="43.83124920634567" lon="18.376199923317113"><ele>540.0</ele><time>2026-05-03T16:30:31Z</time></trkpt><trkpt lat="43.83133219747754" lon="18.376338149195874"><ele>540.75</ele><time>2026-05-03T16:30:32Z</time></trkpt><trkpt lat="43.831413304832864" lon="18.376482389007414"><ele>541.5</ele><time>2026-05-03T16:30:33Z</time></trkpt><trkpt lat="43.831493445891674" lon="18.37663098187623"><ele>542.25</ele><time>2026-05-03T16:30:34Z</time></trkpt><trkpt lat="43.83156984749195" lon="18.376778622017273"><ele>543.0</ele><time>2026-05-03T16:30:35Z</time></trkpt><trkpt lat="43.83164398404488" lon="18.37692683925341"><ele>543.0</ele><time>2026-05-03T16:30:36Z</time></trkpt><trkpt lat="43.831710737655534" lon="18.377078727338912"><ele>543.0</ele><time>2026-05-03T16:30:37Z</time></trkpt><trkpt lat="43.83177627520891" lon="18.377234601068313"><ele>543.0</ele><time>2026-05-03T16:30:38Z</time></trkpt><trkpt lat="43.831841430375235" lon="18.37739684099525"><ele>543.0</ele><time>2026-05-03T16:30:39Z</time></trkpt><trkpt lat="43.8319050070041" lon="18.37756651781063"><ele>542.5</ele><time>2026-05-03T16:30:40Z</time></trkpt><trkpt lat="43.83196384442814" lon="18.377727621968763"><ele>542.0</ele><time>2026-05-03T16:30:41Z</time></trkpt><trkpt lat="43.832020420035015" lon="18.377895979187482"><ele>541.5</ele><time>2026-05-03T16:30:42Z</time></trkpt><trkpt lat="43.8320788617056" lon="18.37806056798143"><ele>541.0</ele><time>2026-05-03T16:30:43Z</time></trkpt><trkpt lat="43.83213477238913" lon="18.378222557296475"><ele>540.75</ele><time>2026-05-03T16:30:44Z</time></trkpt><trkpt lat="43.83218735639921" lon="18.37837704098801"><ele>540.5</ele><time>2026-05-03T16:30:45Z</time></trkpt><trkpt lat="43.832236435084354" lon="18.378520896965526"><ele>540.25</ele><time>2026-05-03T16:30:46Z</time></trkpt><trkpt lat="43.832287088050265" lon="18.37865963680795"><ele>540.0</ele><time>2026-05-03T16:30:47Z</time></trkpt><trkpt lat="43.832338119670574" lon="18.378799493543422"><ele>540.5</ele><time>2026-05-03T16:30:48Z</time></trkpt><trkpt lat="43.83238558239148" lon="18.378940411664807"><ele>541.0</ele><time>2026-05-03T16:30:49Z</time></trkpt><trkpt lat="43.8324334037079" lon="18.379080448223206"><ele>541.5</ele><time>2026-05-03T16:30:50Z</time></trkpt><trkpt lat="43.83248262134947" lon="18.379223973366738"><ele>542.0</ele><time>2026-05-03T16:30:51Z</time></trkpt><trkpt lat="43.83253189542196" lon="18.3793645172706"><ele>542.0</ele><time>2026-05-03T16:30:52Z</time></trkpt><trkpt lat="43.83258356622652" lon="18.379504363756325"><ele>542.0</ele><time>2026-05-03T16:30:53Z</time></trkpt><trkpt lat="43.83263343530127" lon="18.379646010409797"><ele>542.0</ele><time>2026-05-03T16:30:54Z</time></trkpt><trkpt lat="43.83268343660786" lon="18.379790280891648"><ele>542.0</ele><time>2026-05-03T16:30:55Z</time></trkpt><trkpt lat="43.832727118071375" lon="18.37994109294147"><ele>546.25</ele><time>2026-05-03T16:30:56Z</time></trkpt><trkpt lat="43.8327766435688" lon="18.380077920772223"><ele>550.5</ele><time>2026-05-03T16:30:57Z</time></trkpt><trkpt lat="43.83282820264036" lon="18.380217817432182"><ele>554.75</ele><time>2026-05-03T16:30:58Z</time></trkpt><trkpt lat="43.832880347904805" lon="18.380357289653446"><ele>559.0</ele><time>2026-05-03T16:30:59Z</time></trkpt><trkpt lat="43.83293627958686" lon="18.38049976197322"><ele>557.25</ele><time>2026-05-03T16:31:00Z</time></trkpt><trkpt lat="43.83299669646947" lon="18.380646007420737"><ele>555.5</ele><time>2026-05-03T16:31:01Z</time></trkpt><trkpt lat="43.83305602822653" lon="18.380800702752833"><ele>553.75</ele><time>2026-05-03T16:31:02Z</time></trkpt><trkpt lat="43.83312086982672" lon="18.380958619653182"><ele>552.0</ele><time>2026-05-03T16:31:03Z</time></trkpt><trkpt lat="43.833191399821715" lon="18.381118146165925"><ele>552.0</ele><time>2026-05-03T16:31:04Z</time></trkpt><trkpt lat="43.833254881663244" lon="18.38128581407169"><ele>552.0</ele><time>2026-05-03T16:31:05Z</time></trkpt><trkpt lat="43.833320769683844" lon="18.381452794288645"><ele>552.0</ele><time>2026-05-03T16:31:06Z</time></trkpt><trkpt lat="43.83338265487284" lon="18.38162055895169"><ele>552.0</ele><time>2026-05-03T16:31:07Z</time></trkpt><trkpt lat="43.833453761333885" lon="18.381775545956756"><ele>551.75</ele><time>2026-05-03T16:31:08Z</time></trkpt><trkpt lat="43.83351127173723" lon="18.381928395898605"><ele>551.5</ele><time>2026-05-03T16:31:09Z</time></trkpt><trkpt lat="43.833566757030695" lon="18.382067295027987"><ele>551.25</ele><time>2026-05-03T16:31:10Z</time></trkpt><trkpt lat="43.83362162368639" lon="18.382203605625918"><ele>551.0</ele><time>2026-05-03T16:31:11Z</time></trkpt><trkpt lat="43.833670465893945" lon="18.382333790806967"><ele>551.0</ele><time>2026-05-03T16:31:12Z</time></trkpt><trkpt lat="43.83371854254921" lon="18.38246034361433"><ele>551.0</ele><time>2026-05-03T16:31:13Z</time></trkpt><trkpt lat="43.83376595712307" lon="18.382577757488093"><ele>551.0</ele><time>2026-05-03T16:31:14Z</time></trkpt><trkpt lat="43.83380964747544" lon="18.382685349806117"><ele>551.0</ele><time>2026-05-03T16:31:15Z</time></trkpt><trkpt lat="43.83385618736037" lon="18.382787697076264"><ele>551.0</ele><time>2026-05-03T16:31:16Z</time></trkpt><trkpt lat="43.83390272870845" lon="18.382893104733004"><ele>551.0</ele><time>2026-05-03T16:31:17Z</time></trkpt><trkpt lat="43.83395263333544" lon="18.383008242125083"><ele>551.0</ele><time>2026-05-03T16:31:18Z</time></trkpt><trkpt lat="43.83401656072809" lon="18.383124770976707"><ele>551.0</ele><time>2026-05-03T16:31:19Z</time></trkpt><trkpt lat="43.83409438937608" lon="18.38323669829188"><ele>551.0</ele><time>2026-05-03T16:31:20Z</time></trkpt><trkpt lat="43.83418780781674" lon="18.383332593626875"><ele>551.0</ele><time>2026-05-03T16:31:21Z</time></trkpt><trkpt lat="43.83429104673613" lon="18.38341406507887"><ele>551.25</ele><time>2026-05-03T16:31:22Z</time></trkpt><trkpt lat="43.83440458329493" lon="18.383473363433144"><ele>551.5</ele><time>2026-05-03T16:31:23Z</time></trkpt><trkpt lat="43.83452428523649" lon="18.383521787733873"><ele>551.75</ele><time>2026-05-03T16:31:24Z</time></trkpt><trkpt lat="43.834642469406106" lon="18.38356249567624"><ele>552.0</ele><time>2026-05-03T16:31:25Z</time></trkpt><trkpt lat="43.834754311219285" lon="18.383602203577386"><ele>552.0</ele><time>2026-05-03T16:31:26Z</time></trkpt><trkpt lat="43.83486603006414" lon="18.383649699816853"><ele>552.0</ele><time>2026-05-03T16:31:27Z</time></trkpt><trkpt lat="43.8349654919673" lon="18.383701065245848"><ele>552.0</ele><time>2026-05-03T16:31:28Z</time></trkpt><trkpt lat="43.83505283644363" lon="18.383768119123914"><ele>552.0</ele><time>2026-05-03T16:31:29Z</time></trkpt><trkpt lat="43.83513069848868" lon="18.383846605506857"><ele>552.0</ele><time>2026-05-03T16:31:30Z</time></trkpt><trkpt lat="43.83521120675907" lon="18.38392619877019"><ele>552.8000000000001</ele><time>2026-05-03T16:31:31Z</time></trkpt><trkpt lat="43.83527964435197" lon="18.38402174474198"><ele>553.6</ele><time>2026-05-03T16:31:32Z</time></trkpt><trkpt lat="43.83534761420006" lon="18.384126362626372"><ele>554.4000000000001</ele><time>2026-05-03T16:31:33Z</time></trkpt><trkpt lat="43.83541652576645" lon="18.384239946249956"><ele>555.2</ele><time>2026-05-03T16:31:34Z</time></trkpt><trkpt lat="43.835481469886766" lon="18.38436113698461"><ele>556.0</ele><time>2026-05-03T16:31:35Z</time></trkpt><trkpt lat="43.835543930755776" lon="18.384487000135987"><ele>556.0</ele><time>2026-05-03T16:31:36Z</time></trkpt><trkpt lat="43.835602957162806" lon="18.384609944237653"><ele>556.0</ele><time>2026-05-03T16:31:37Z</time></trkpt><trkpt lat="43.83566197110765" lon="18.384724044772334"><ele>556.0</ele><time>2026-05-03T16:31:38Z</time></trkpt><trkpt lat="43.83572460511963" lon="18.384834026428315"><ele>556.0</ele><time>2026-05-03T16:31:39Z</time></trkpt><trkpt lat="43.83578225011913" lon="18.384941485664378"><ele>556.0</ele><time>2026-05-03T16:31:40Z</time></trkpt><trkpt lat="43.83583618237162" lon="18.38505175058806"><ele>554.6</ele><time>2026-05-03T16:31:41Z</time></trkpt><trkpt lat="43.83589499849157" lon="18.38516252056164"><ele>553.2</ele><time>2026-05-03T16:31:42Z</time></trkpt><trkpt lat="43.83595710414184" lon="18.385277727273444"><ele>551.8</ele><time>2026-05-03T16:31:43Z</time></trkpt><trkpt lat="43.83601692032896" lon="18.385391868182705"><ele>550.4</ele><time>2026-05-03T16:31:44Z</time></trkpt><trkpt lat="43.83607748655047" lon="18.3855098576327"><ele>549.0</ele><time>2026-05-03T16:31:45Z</time></trkpt><trkpt lat="43.8361407257468" lon="18.385630146951257"><ele>553.0</ele><time>2026-05-03T16:31:46Z</time></trkpt><trkpt lat="43.83620564155311" lon="18.385756781046023"><ele>557.0</ele><time>2026-05-03T16:31:47Z</time></trkpt><trkpt lat="43.83627149577966" lon="18.38588595204625"><ele>561.0</ele><time>2026-05-03T16:31:48Z</time></trkpt><trkpt lat="43.836340647754405" lon="18.386011921825368"><ele>565.0</ele><time>2026-05-03T16:31:49Z</time></trkpt><trkpt lat="43.83641505343442" lon="18.386132164646096"><ele>565.0</ele><time>2026-05-03T16:31:50Z</time></trkpt><trkpt lat="43.83649035998293" lon="18.386243680345512"><ele>565.0</ele><time>2026-05-03T16:31:51Z</time></trkpt><trkpt lat="43.83655893074317" lon="18.38634985206001"><ele>565.0</ele><time>2026-05-03T16:31:52Z</time></trkpt><trkpt lat="43.83663646931886" lon="18.386451871221038"><ele>565.0</ele><time>2026-05-03T16:31:53Z</time></trkpt><trkpt lat="43.83671443563829" lon="18.386553727732828"><ele>565.0</ele><time>2026-05-03T16:31:54Z</time></trkpt><trkpt lat="43.83679512740961" lon="18.386657742541715"><ele>565.6</ele><time>2026-05-03T16:31:55Z</time></trkpt><trkpt lat="43.83687980780275" lon="18.386756874229555"><ele>566.2</ele><time>2026-05-03T16:31:56Z</time></trkpt><trkpt lat="43.83696919756006" lon="18.386853028843433"><ele>566.8</ele><time>2026-05-03T16:31:57Z</time></trkpt><trkpt lat="43.837058318615895" lon="18.38694500251043"><ele>567.4</ele><time>2026-05-03T16:31:58Z</time></trkpt><trkpt lat="43.837142814593335" lon="18.38703399562802"><ele>568.0</ele><time>2026-05-03T16:31:59Z</time></trkpt><trkpt lat="43.83722825865613" lon="18.38712438920568"><ele>566.0</ele><time>2026-05-03T16:32:00Z</time></trkpt><trkpt lat="43.837313927078384" lon="18.387220769509934"><ele>564.0</ele><time>2026-05-03T16:32:01Z</time></trkpt><trkpt lat="43.837395529276705" lon="18.387318699366368"><ele>562.0</ele><time>2026-05-03T16:32:02Z</time></trkpt><trkpt lat="43.83747875948189" lon="18.38741657398981"><ele>560.0</ele><time>2026-05-03T16:32:03Z</time></trkpt><trkpt lat="43.83756095839094" lon="18.38751245167821"><ele>558.0</ele><time>2026-05-03T16:32:04Z</time></trkpt><trkpt lat="43.8376427809497" lon="18.387606850355322"><ele>558.0</ele><time>2026-05-03T16:32:05Z</time></trkpt><trkpt lat="43.83772368738424" lon="18.38770484686552"><ele>558.0</ele><time>2026-05-03T16:32:06Z</time></trkpt><trkpt lat="43.837802247200614" lon="18.3878060489982"><ele>558.0</ele><time>2026-05-03T16:32:07Z</time></trkpt><trkpt lat="43.837879416148944" lon="18.387912643572733"><ele>558.0</ele><time>2026-05-03T16:32:08Z</time></trkpt><trkpt lat="43.83794576240548" lon="18.38803038116159"><ele>558.0</ele><time>2026-05-03T16:32:09Z</time></trkpt><trkpt lat="43.837997339568076" lon="18.388161489399184"><ele>557.75</ele><time>2026-05-03T16:32:10Z</time></trkpt><trkpt lat="43.83804422005904" lon="18.388303555978347"><ele>557.5</ele><time>2026-05-03T16:32:11Z</time></trkpt><trkpt lat="43.83807587365406" lon="18.38846452352634"><ele>557.25</ele><time>2026-05-03T16:32:12Z</time></trkpt><trkpt lat="43.83810244823598" lon="18.388634143188796"><ele>557.0</ele><time>2026-05-03T16:32:13Z</time></trkpt><trkpt lat="43.838123733952436" lon="18.388791631144784"><ele>557.5</ele><time>2026-05-03T16:32:14Z</time></trkpt><trkpt lat="43.8381449910223" lon="18.388944604779304"><ele>558.0</ele><time>2026-05-03T16:32:15Z</time></trkpt><trkpt lat="43.83816880080801" lon="18.38910268061905"><ele>558.5</ele><time>2026-05-03T16:32:16Z</time></trkpt><trkpt lat="43.838199023096735" lon="18.38926350700463"><ele>559.0</ele><time>2026-05-03T16:32:17Z</time></trkpt><trkpt lat="43.83822884764478" lon="18.389426519690225"><ele>559.0</ele><time>2026-05-03T16:32:18Z</time></trkpt><trkpt lat="43.83825797927171" lon="18.389588472365556"><ele>559.0</ele><time>2026-05-03T16:32:19Z</time></trkpt><trkpt lat="43.83828732730826" lon="18.389742879615884"><ele>559.0</ele><time>2026-05-03T16:32:20Z</time></trkpt><trkpt lat="43.83832594908426" lon="18.389896488144643"><ele>559.0</ele><time>2026-05-03T16:32:21Z</time></trkpt><trkpt lat="43.838386628195" lon="18.39004375179866"><ele>558.75</ele><time>2026-05-03T16:32:22Z</time></trkpt><trkpt lat="43.83846211627934" lon="18.39017008148944"><ele>558.5</ele><time>2026-05-03T16:32:23Z</time></trkpt><trkpt lat="43.838540220495595" lon="18.39029291443174"><ele>558.25</ele><time>2026-05-03T16:32:24Z</time></trkpt><trkpt lat="43.83862334994005" lon="18.390418475740297"><ele>558.0</ele><time>2026-05-03T16:32:25Z</time></trkpt><trkpt lat="43.838708204106666" lon="18.390541363769774"><ele>561.0</ele><time>2026-05-03T16:32:26Z</time></trkpt><trkpt lat="43.83879192660886" lon="18.390672584931554"><ele>564.0</ele><time>2026-05-03T16:32:27Z</time></trkpt><trkpt lat="43.838874194214085" lon="18.390803120896976"><ele>567.0</ele><time>2026-05-03T16:32:28Z</time></trkpt><trkpt lat="43.83895556018302" lon="18.39093992083763"><ele>570.0</ele><time>2026-05-03T16:32:29Z</time></trkpt><trkpt lat="43.839037469681934" lon="18.39106718649385"><ele>570.0</ele><time>2026-05-03T16:32:30Z</time></trkpt><trkpt lat="43.83911825165438" lon="18.3912002531305"><ele>570.0</ele><time>2026-05-03T16:32:31Z</time></trkpt><trkpt lat="43.83919716686489" lon="18.391331943962353"><ele>570.0</ele><time>2026-05-03T16:32:32Z</time></trkpt><trkpt lat="43.839273315397875" lon="18.391471055528775"><ele>570.0</ele><time>2026-05-03T16:32:33Z</time></trkpt><trkpt lat="43.83934947987085" lon="18.39160996036072"><ele>571.0</ele><time>2026-05-03T16:32:34Z</time></trkpt><trkpt lat="43.83942680712631" lon="18.39174570699962"><ele>572.0</ele><time>2026-05-03T16:32:35Z</time></trkpt><trkpt lat="43.83949927594528" lon="18.391886882660536"><ele>573.0</ele><time>2026-05-03T16:32:36Z</time></trkpt><trkpt lat="43.83957083938425" lon="18.39203313295562"><ele>574.0</ele><time>2026-05-03T16:32:37Z</time></trkpt><trkpt lat="43.83963706236262" lon="18.392179968512483"><ele>574.0</ele><time>2026-05-03T16:32:38Z</time></trkpt><trkpt lat="43.83970481107151" lon="18.39232432948214"><ele>574.0</ele><time>2026-05-03T16:32:39Z</time></trkpt><trkpt lat="43.83977113062262" lon="18.392461509815686"><ele>574.0</ele><time>2026-05-03T16:32:40Z</time></trkpt><trkpt lat="43.83983452111336" lon="18.392606574684553"><ele>574.0</ele><time>2026-05-03T16:32:41Z</time></trkpt><trkpt lat="43.83990151550274" lon="18.39275149032951"><ele>574.0</ele><time>2026-05-03T16:32:42Z</time></trkpt><trkpt lat="43.83997233410742" lon="18.392900055178377"><ele>574.0</ele><time>2026-05-03T16:32:43Z</time></trkpt><trkpt lat="43.840046383029325" lon="18.393040835056958"><ele>574.0</ele><time>2026-05-03T16:32:44Z</time></trkpt><trkpt lat="43.84012239323781" lon="18.393177022599215"><ele>574.0</ele><time>2026-05-03T16:32:45Z</time></trkpt><trkpt lat="43.84020162548183" lon="18.39331079181625"><ele>577.5</ele><time>2026-05-03T16:32:46Z</time></trkpt><trkpt lat="43.840282479338136" lon="18.393433886844026"><ele>581.0</ele><time>2026-05-03T16:32:47Z</time></trkpt><trkpt lat="43.84036750928093" lon="18.393557944388014"><ele>584.5</ele><time>2026-05-03T16:32:48Z</time></trkpt><trkpt lat="43.84045359433774" lon="18.39368353017265"><ele>588.0</ele><time>2026-05-03T16:32:49Z</time></trkpt><trkpt lat="43.84053523312734" lon="18.39381583448288"><ele>586.5</ele><time>2026-05-03T16:32:50Z</time></trkpt><trkpt lat="43.8406058163163" lon="18.393958878433352"><ele>585.0</ele><time>2026-05-03T16:32:51Z</time></trkpt><trkpt lat="43.84066427242415" lon="18.394113241833367"><ele>583.5</ele><time>2026-05-03T16:32:52Z</time></trkpt><trkpt lat="43.84071362476142" lon="18.394275381221483"><ele>582.0</ele><time>2026-05-03T16:32:53Z</time></trkpt><trkpt lat="43.84075409148837" lon="18.394440723003427"><ele>582.0</ele><time>2026-05-03T16:32:54Z</time></trkpt><trkpt lat="43.84078854039385" lon="18.3946068779684"><ele>582.0</ele><time>2026-05-03T16:32:55Z</time></trkpt><trkpt lat="43.840825152679386" lon="18.39476194260137"><ele>582.0</ele><time>2026-05-03T16:32:56Z</time></trkpt><trkpt lat="43.840862364030016" lon="18.39489307281974"><ele>582.0</ele><time>2026-05-03T16:32:57Z</time></trkpt><trkpt lat="43.84090790803544" lon="18.39501979771305"><ele>582.0</ele><time>2026-05-03T16:32:58Z</time></trkpt><trkpt lat="43.840962454609055" lon="18.39514830166021"><ele>586.25</ele><time>2026-05-03T16:32:59Z</time></trkpt><trkpt lat="43.84102985821402" lon="18.395276210159146"><ele>590.5</ele><time>2026-05-03T16:33:00Z</time></trkpt><trkpt lat="43.84110545486366" lon="18.39539358714385"><ele>594.75</ele><time>2026-05-03T16:33:01Z</time></trkpt><trkpt lat="43.8411874037814" lon="18.395506440755515"><ele>599.0</ele><time>2026-05-03T16:33:02Z</time></trkpt><trkpt lat="43.84127021333165" lon="18.395620037780265"><ele>599.0</ele><time>2026-05-03T16:33:03Z</time></trkpt><trkpt lat="43.84135201597879" lon="18.395735895098948"><ele>599.0</ele><time>2026-05-03T16:33:04Z</time></trkpt><trkpt lat="43.84142662253263" lon="18.395865203971294"><ele>599.0</ele><time>2026-05-03T16:33:05Z</time></trkpt><trkpt lat="43.841491238000586" lon="18.395993878121338"><ele>599.0</ele><time>2026-05-03T16:33:06Z</time></trkpt><trkpt lat="43.84153606940102" lon="18.396116480825057"><ele>599.0</ele><time>2026-05-03T16:33:07Z</time></trkpt><trkpt lat="43.841576742072974" lon="18.39623925241093"><ele>598.8333333333333</ele><time>2026-05-03T16:33:08Z</time></trkpt><trkpt lat="43.841604479241575" lon="18.396355544722457"><ele>598.6666666666666</ele><time>2026-05-03T16:33:09Z</time></trkpt><trkpt lat="43.84162828643044" lon="18.39647245527385"><ele>598.5</ele><time>2026-05-03T16:33:10Z</time></trkpt><trkpt lat="43.84164653218754" lon="18.396588677586255"><ele>598.3333333333334</ele><time>2026-05-03T16:33:11Z</time></trkpt><trkpt lat="43.84166721473568" lon="18.396676685954365"><ele>598.1666666666667</ele><time>2026-05-03T16:33:12Z</time></trkpt><trkpt lat="43.84170372733469" lon="18.396797567860045"><ele>598.0</ele><time>2026-05-03T16:33:15Z</time></trkpt><trkpt lat="43.8417486169775" lon="18.396877109655108"><ele>601.8333333333334</ele><time>2026-05-03T16:33:17Z</time></trkpt><trkpt lat="43.84185046932544" lon="18.396892431748"><ele>605.6666666666667</ele><time>2026-05-03T16:33:19Z</time></trkpt><trkpt lat="43.84191075344419" lon="18.39686035189866"><ele>609.5</ele><time>2026-05-03T16:33:20Z</time></trkpt><trkpt lat="43.84196398948487" lon="18.396788933017504"><ele>613.3333333333334</ele><time>2026-05-03T16:33:21Z</time></trkpt><trkpt lat="43.84200820686023" lon="18.396702234851404"><ele>617.1666666666666</ele><time>2026-05-03T16:33:22Z</time></trkpt><trkpt lat="43.842043928253894" lon="18.39661031459082"><ele>621.0</ele><time>2026-05-03T16:33:23Z</time></trkpt><trkpt lat="43.842077869751336" lon="18.39653095230943"><ele>621.0</ele><time>2026-05-03T16:33:24Z</time></trkpt><trkpt lat="43.84211221322746" lon="18.39645163977399"><ele>621.0</ele><time>2026-05-03T16:33:25Z</time></trkpt><trkpt lat="43.84214830881601" lon="18.396357386169157"><ele>621.0</ele><time>2026-05-03T16:33:26Z</time></trkpt><trkpt lat="43.84218623726467" lon="18.396258418549746"><ele>621.0</ele><time>2026-05-03T16:33:27Z</time></trkpt><trkpt lat="43.8422263733076" lon="18.396158166742037"><ele>621.0</ele><time>2026-05-03T16:33:28Z</time></trkpt><trkpt lat="43.84226880598215" lon="18.396064745610992"><ele>621.0</ele><time>2026-05-03T16:33:29Z</time></trkpt><trkpt lat="43.842308830594774" lon="18.395968017552537"><ele>620.6666666666666</ele><time>2026-05-03T16:33:30Z</time></trkpt><trkpt lat="43.8423482345872" lon="18.395873838083315"><ele>620.3333333333334</ele><time>2026-05-03T16:33:31Z</time></trkpt><trkpt lat="43.84239098098803" lon="18.395784998259664"><ele>620.0</ele><time>2026-05-03T16:33:32Z</time></trkpt><trkpt lat="43.84245108365293" lon="18.395699054450304"><ele>619.6666666666667</ele><time>2026-05-03T16:33:33Z</time></trkpt><trkpt lat="43.84253089920865" lon="18.395629924002698"><ele>619.3333333333334</ele><time>2026-05-03T16:33:34Z</time></trkpt><trkpt lat="43.842632002620576" lon="18.395605654224326"><ele>619.0</ele><time>2026-05-03T16:33:35Z</time></trkpt><trkpt lat="43.84272520693492" lon="18.395628963073765"><ele>619.0</ele><time>2026-05-03T16:33:36Z</time></trkpt><trkpt lat="43.84282777951999" lon="18.395652465046954"><ele>619.0</ele><time>2026-05-03T16:33:37Z</time></trkpt><trkpt lat="43.842917449440634" lon="18.395678297832855"><ele>619.0</ele><time>2026-05-03T16:33:38Z</time></trkpt><trkpt lat="43.84300860798962" lon="18.395699502054576"><ele>619.0</ele><time>2026-05-03T16:33:39Z</time></trkpt><trkpt lat="43.84309828211912" lon="18.39571198422456"><ele>619.0</ele><time>2026-05-03T16:33:40Z</time></trkpt><trkpt lat="43.84318427714943" lon="18.39572864063827"><ele>619.0</ele><time>2026-05-03T16:33:41Z</time></trkpt><trkpt lat="43.84325727206228" lon="18.39573338879336"><ele>619.0</ele><time>2026-05-03T16:33:42Z</time></trkpt><trkpt lat="43.84333192888913" lon="18.39573552475753"><ele>619.0</ele><time>2026-05-03T16:33:43Z</time></trkpt><trkpt lat="43.84340818830516" lon="18.395733460187643"><ele>619.0</ele><time>2026-05-03T16:33:44Z</time></trkpt><trkpt lat="43.84348102057231" lon="18.395727542807755"><ele>619.0</ele><time>2026-05-03T16:33:45Z</time></trkpt><trkpt lat="43.84355418422787" lon="18.395739337278044"><ele>619.0</ele><time>2026-05-03T16:33:46Z</time></trkpt><trkpt lat="43.843641603280645" lon="18.39574202040711"><ele>617.0</ele><time>2026-05-03T16:33:47Z</time></trkpt><trkpt lat="43.84372158153458" lon="18.395742101463522"><ele>615.0</ele><time>2026-05-03T16:33:48Z</time></trkpt><trkpt lat="43.84380351802659" lon="18.39573851136627"><ele>613.0</ele><time>2026-05-03T16:33:49Z</time></trkpt><trkpt lat="43.8438897506524" lon="18.395738092808436"><ele>611.0</ele><time>2026-05-03T16:33:50Z</time></trkpt><trkpt lat="43.84397127511738" lon="18.395735683255797"><ele>609.0</ele><time>2026-05-03T16:33:51Z</time></trkpt><trkpt lat="43.84406600111691" lon="18.395729161448852"><ele>607.0</ele><time>2026-05-03T16:33:52Z</time></trkpt><trkpt lat="43.84416738888307" lon="18.395725180224698"><ele>607.0</ele><time>2026-05-03T16:33:53Z</time></trkpt><trkpt lat="43.84426209867769" lon="18.395720762636987"><ele>607.0</ele><time>2026-05-03T16:33:54Z</time></trkpt><trkpt lat="43.84435689945168" lon="18.39571089297959"><ele>607.0</ele><time>2026-05-03T16:33:55Z</time></trkpt><trkpt lat="43.844454180206455" lon="18.395702350119638"><ele>607.0</ele><time>2026-05-03T16:33:56Z</time></trkpt><trkpt lat="43.84454363087415" lon="18.39567474333427"><ele>607.0</ele><time>2026-05-03T16:33:57Z</time></trkpt><trkpt lat="43.8446294206486" lon="18.395642620661874"><ele>605.3333333333334</ele><time>2026-05-03T16:33:58Z</time></trkpt><trkpt lat="43.844704874744" lon="18.39560795325496"><ele>603.6666666666667</ele><time>2026-05-03T16:33:59Z</time></trkpt><trkpt lat="43.84478816738638" lon="18.39557455435278"><ele>602.0</ele><time>2026-05-03T16:34:00Z</time></trkpt><trkpt lat="43.8448758059808" lon="18.395527860763465"><ele>600.3333333333334</ele><time>2026-05-03T16:34:01Z</time></trkpt><trkpt lat="43.84495008658661" lon="18.39549776258822"><ele>598.6666666666666</ele><time>2026-05-03T16:34:02Z</time></trkpt><trkpt lat="43.84503092511786" lon="18.395462863416302"><ele>597.0</ele><time>2026-05-03T16:34:03Z</time></trkpt><trkpt lat="43.845108823110344" lon="18.39545102886636"><ele>594.6666666666666</ele><time>2026-05-03T16:34:04Z</time></trkpt><trkpt lat="43.845192948598545" lon="18.395432914650282"><ele>592.3333333333334</ele><time>2026-05-03T16:34:05Z</time></trkpt><trkpt lat="43.845275604370556" lon="18.395465100015368"><ele>590.0</ele><time>2026-05-03T16:34:06Z</time></trkpt><trkpt lat="43.84536073251996" lon="18.395485955344295"><ele>587.6666666666667</ele><time>2026-05-03T16:34:07Z</time></trkpt><trkpt lat="43.84542859503081" lon="18.395526578710196"><ele>585.3333333333334</ele><time>2026-05-03T16:34:08Z</time></trkpt><trkpt lat="43.845506232180526" lon="18.395571331565538"><ele>583.0</ele><time>2026-05-03T16:34:09Z</time></trkpt><trkpt lat="43.84557913612099" lon="18.395609922911998"><ele>583.0</ele><time>2026-05-03T16:34:10Z</time></trkpt><trkpt lat="43.84566045207479" lon="18.395658761374914"><ele>583.0</ele><time>2026-05-03T16:34:11Z</time></trkpt><trkpt lat="43.84574059367125" lon="18.395699814579316"><ele>583.0</ele><time>2026-05-03T16:34:12Z</time></trkpt><trkpt lat="43.84580719239089" lon="18.39574223737834"><ele>583.0</ele><time>2026-05-03T16:34:13Z</time></trkpt><trkpt lat="43.845885042619116" lon="18.39578001220121"><ele>583.0</ele><time>2026-05-03T16:34:14Z</time></trkpt><trkpt lat="43.84596151194625" lon="18.395825508471944"><ele>583.0</ele><time>2026-05-03T16:34:15Z</time></trkpt><trkpt lat="43.84603827591848" lon="18.395863283397308"><ele>580.5</ele><time>2026-05-03T16:34:16Z</time></trkpt><trkpt lat="43.84611748598397" lon="18.39589174526474"><ele>578.0</ele><time>2026-05-03T16:34:17Z</time></trkpt><trkpt lat="43.846196160570244" lon="18.395922472788783"><ele>575.5</ele><time>2026-05-03T16:34:18Z</time></trkpt><trkpt lat="43.846255116567285" lon="18.395968271994942"><ele>573.0</ele><time>2026-05-03T16:34:19Z</time></trkpt><trkpt lat="43.846322531855336" lon="18.39601111989605"><ele>570.5</ele><time>2026-05-03T16:34:20Z</time></trkpt><trkpt lat="43.84639038537466" lon="18.396056075165028"><ele>568.0</ele><time>2026-05-03T16:34:21Z</time></trkpt><trkpt lat="43.84646336262858" lon="18.396101236971955"><ele>568.0</ele><time>2026-05-03T16:34:22Z</time></trkpt><trkpt lat="43.84653240852948" lon="18.39614336360935"><ele>568.0</ele><time>2026-05-03T16:34:23Z</time></trkpt><trkpt lat="43.84660167454943" lon="18.396178479859397"><ele>568.0</ele><time>2026-05-03T16:34:24Z</time></trkpt><trkpt lat="43.846672734971094" lon="18.39621455882727"><ele>568.0</ele><time>2026-05-03T16:34:25Z</time></trkpt><trkpt lat="43.84674585779345" lon="18.396249316318553"><ele>568.0</ele><time>2026-05-03T16:34:26Z</time></trkpt><trkpt lat="43.846845868011854" lon="18.396306464715984"><ele>568.0</ele><time>2026-05-03T16:34:28Z</time></trkpt><trkpt lat="43.846909809153416" lon="18.3963397438543"><ele>567.1666666666667</ele><time>2026-05-03T16:34:31Z</time></trkpt><trkpt lat="43.84699015402288" lon="18.39638740819073"><ele>566.3333333333334</ele><time>2026-05-03T16:34:44Z</time></trkpt><trkpt lat="43.84705168020541" lon="18.396415055435067"><ele>565.5</ele><time>2026-05-03T16:34:46Z</time></trkpt><trkpt lat="43.84714620725175" lon="18.39645464567007"><ele>564.6666666666666</ele><time>2026-05-03T16:34:49Z</time></trkpt><trkpt lat="43.84721178584682" lon="18.39648234484331"><ele>563.8333333333333</ele><time>2026-05-03T16:34:51Z</time></trkpt><trkpt lat="43.84729303821228" lon="18.396524467465067"><ele>563.0</ele><time>2026-05-03T16:34:53Z</time></trkpt><trkpt lat="43.84735413087756" lon="18.396549311978593"><ele>563.0</ele><time>2026-05-03T16:34:54Z</time></trkpt><trkpt lat="43.847469128850065" lon="18.396598014584796"><ele>563.0</ele><time>2026-05-03T16:34:56Z</time></trkpt><trkpt lat="43.84756731379358" lon="18.396638382683967"><ele>563.0</ele><time>2026-05-03T16:34:58Z</time></trkpt><trkpt lat="43.847657521660686" lon="18.396649240171964"><ele>563.0</ele><time>2026-05-03T16:35:00Z</time></trkpt><trkpt lat="43.84776678677367" lon="18.39662013045547"><ele>563.0</ele><time>2026-05-03T16:35:02Z</time></trkpt><trkpt lat="43.84783113434219" lon="18.396607274168254"><ele>560.8333333333333</ele><time>2026-05-03T16:35:03Z</time></trkpt><trkpt lat="43.847903589106146" lon="18.396594746530877"><ele>558.6666666666666</ele><time>2026-05-03T16:35:04Z</time></trkpt><trkpt lat="43.84798107190676" lon="18.39658109315506"><ele>556.5</ele><time>2026-05-03T16:35:05Z</time></trkpt><trkpt lat="43.84805181751925" lon="18.396559403231503"><ele>554.3333333333334</ele><time>2026-05-03T16:35:06Z</time></trkpt><trkpt lat="43.848129531639344" lon="18.396537203743268"><ele>552.1666666666667</ele><time>2026-05-03T16:35:07Z</time></trkpt><trkpt lat="43.84820023192249" lon="18.396515265516392"><ele>550.0</ele><time>2026-05-03T16:35:08Z</time></trkpt><trkpt lat="43.84827250510925" lon="18.396488086848763"><ele>550.0</ele><time>2026-05-03T16:35:09Z</time></trkpt><trkpt lat="43.84838974635289" lon="18.39645093025927"><ele>550.0</ele><time>2026-05-03T16:35:11Z</time></trkpt><trkpt lat="43.84850885372229" lon="18.396441188102397"><ele>550.0</ele><time>2026-05-03T16:35:13Z</time></trkpt><trkpt lat="43.84862722797373" lon="18.396526713168207"><ele>550.0</ele><time>2026-05-03T16:35:15Z</time></trkpt><trkpt lat="43.848673173575406" lon="18.39661043575911"><ele>550.0</ele><time>2026-05-03T16:35:16Z</time></trkpt><trkpt lat="43.84870384270004" lon="18.396703304055052"><ele>548.0</ele><time>2026-05-03T16:35:17Z</time></trkpt><trkpt lat="43.84872696589819" lon="18.396806445051507"><ele>546.0</ele><time>2026-05-03T16:35:18Z</time></trkpt><trkpt lat="43.84875070060282" lon="18.39690702927984"><ele>544.0</ele><time>2026-05-03T16:35:19Z</time></trkpt><trkpt lat="43.84878073433063" lon="18.397010316599175"><ele>542.0</ele><time>2026-05-03T16:35:20Z</time></trkpt><trkpt lat="43.84881338116062" lon="18.397122734125276"><ele>540.0</ele><time>2026-05-03T16:35:21Z</time></trkpt><trkpt lat="43.848842846349946" lon="18.397237528916033"><ele>538.0</ele><time>2026-05-03T16:35:22Z</time></trkpt><trkpt lat="43.848871991842444" lon="18.397350015171874"><ele>537.8</ele><time>2026-05-03T16:35:23Z</time></trkpt><trkpt lat="43.848905071080424" lon="18.39746939985741"><ele>537.5999999999999</ele><time>2026-05-03T16:35:24Z</time></trkpt><trkpt lat="43.848935342793965" lon="18.397591049275654"><ele>537.4000000000001</ele><time>2026-05-03T16:35:25Z</time></trkpt><trkpt lat="43.848970350875284" lon="18.397718589479183"><ele>537.2</ele><time>2026-05-03T16:35:26Z</time></trkpt><trkpt lat="43.84904888684346" lon="18.397804713014512"><ele>537.0</ele><time>2026-05-03T16:35:27Z</time></trkpt><trkpt lat="43.84911541109415" lon="18.39789512985556"><ele>536.9999999999999</ele><time>2026-05-03T16:35:28Z</time></trkpt><trkpt lat="43.84917950390292" lon="18.397974279194994"><ele>537.0</ele><time>2026-05-03T16:35:29Z</time></trkpt><trkpt lat="43.84923801859902" lon="18.398043918245424"><ele>537.0</ele><time>2026-05-03T16:35:30Z</time></trkpt><trkpt lat="43.84928094722841" lon="18.398112606188487"><ele>537.0</ele><time>2026-05-03T16:35:31Z</time></trkpt><trkpt lat="43.84932882227856" lon="18.398172838008126"><ele>537.0</ele><time>2026-05-03T16:35:32Z</time></trkpt><trkpt lat="43.8493929317762" lon="18.39824522020644"><ele>536.9999999999999</ele><time>2026-05-03T16:35:34Z</time></trkpt><trkpt lat="43.84946043691837" lon="18.398239734365447"><ele>537.0</ele><time>2026-05-03T16:36:13Z</time></trkpt><trkpt lat="43.84952176888803" lon="18.398268987987734"><ele>536.2</ele><time>2026-05-03T16:36:15Z</time></trkpt><trkpt lat="43.84960436372953" lon="18.398259323193244"><ele>535.4000000000001</ele><time>2026-05-03T16:36:17Z</time></trkpt><trkpt lat="43.84969330934327" lon="18.39838385854802"><ele>534.5999999999999</ele><time>2026-05-03T16:36:19Z</time></trkpt><trkpt lat="43.849724126088866" lon="18.398491952855643"><ele>533.8</ele><time>2026-05-03T16:36:20Z</time></trkpt><trkpt lat="43.84975945230478" lon="18.398609659922176"><ele>533.0</ele><time>2026-05-03T16:36:21Z</time></trkpt><trkpt lat="43.84980112466855" lon="18.398727745826317"><ele>533.4</ele><time>2026-05-03T16:36:22Z</time></trkpt><trkpt lat="43.849842958577845" lon="18.39885635951964"><ele>533.8</ele><time>2026-05-03T16:36:23Z</time></trkpt><trkpt lat="43.849877957257554" lon="18.39897670514198"><ele>534.2</ele><time>2026-05-03T16:36:24Z</time></trkpt><trkpt lat="43.84991317105985" lon="18.399092558604806"><ele>534.6</ele><time>2026-05-03T16:36:25Z</time></trkpt><trkpt lat="43.84994921397073" lon="18.399207510014687"><ele>535.0</ele><time>2026-05-03T16:36:26Z</time></trkpt><trkpt lat="43.8499819472656" lon="18.39930538409858"><ele>535.0</ele><time>2026-05-03T16:36:27Z</time></trkpt><trkpt lat="43.850016730682086" lon="18.399398566671756"><ele>535.0</ele><time>2026-05-03T16:36:28Z</time></trkpt><trkpt lat="43.85004883662145" lon="18.399490838207118"><ele>535.0</ele><time>2026-05-03T16:36:29Z</time></trkpt><trkpt lat="43.850082727050015" lon="18.39956742703911"><ele>535.0</ele><time>2026-05-03T16:36:30Z</time></trkpt><trkpt lat="43.850137272837905" lon="18.39969850952433"><ele>535.0</ele><time>2026-05-03T16:36:32Z</time></trkpt><trkpt lat="43.850181500366936" lon="18.39979001756459"><ele>535.0</ele><time>2026-05-03T16:36:34Z</time></trkpt><trkpt lat="43.850238498940776" lon="18.399926626064726"><ele>535.0</ele><time>2026-05-03T16:36:57Z</time></trkpt><trkpt lat="43.850283215693544" lon="18.400010964665658"><ele>535.0</ele><time>2026-05-03T16:36:58Z</time></trkpt><trkpt lat="43.85033337680736" lon="18.40010538430041"><ele>535.0</ele><time>2026-05-03T16:36:59Z</time></trkpt><trkpt lat="43.850385938446294" lon="18.400200641423176"><ele>535.0</ele><time>2026-05-03T16:37:00Z</time></trkpt><trkpt lat="43.85044273068787" lon="18.40030570383611"><ele>535.0</ele><time>2026-05-03T16:37:01Z</time></trkpt><trkpt lat="43.85050081767384" lon="18.40041114597114"><ele>535.0</ele><time>2026-05-03T16:37:02Z</time></trkpt><trkpt lat="43.85055759550474" lon="18.400514168037684"><ele>535.2</ele><time>2026-05-03T16:37:03Z</time></trkpt><trkpt lat="43.8506153728537" lon="18.40062085281986"><ele>535.4</ele><time>2026-05-03T16:37:04Z</time></trkpt><trkpt lat="43.85067020392275" lon="18.4007307159101"><ele>535.6</ele><time>2026-05-03T16:37:05Z</time></trkpt><trkpt lat="43.8507256899266" lon="18.40083763236518"><ele>535.8</ele><time>2026-05-03T16:37:06Z</time></trkpt><trkpt lat="43.8507817147669" lon="18.400944168228335"><ele>536.0</ele><time>2026-05-03T16:37:07Z</time></trkpt><trkpt lat="43.85083685342534" lon="18.401052763093045"><ele>536.0</ele><time>2026-05-03T16:37:08Z</time></trkpt><trkpt lat="43.85089708231977" lon="18.4011602883037"><ele>536.0</ele><time>2026-05-03T16:37:09Z</time></trkpt><trkpt lat="43.85095890658669" lon="18.40127048007433"><ele>536.0</ele><time>2026-05-03T16:37:10Z</time></trkpt><trkpt lat="43.85102201942482" lon="18.401388240240074"><ele>536.0</ele><time>2026-05-03T16:37:11Z</time></trkpt><trkpt lat="43.85108335364567" lon="18.40150233334163"><ele>536.0</ele><time>2026-05-03T16:37:12Z</time></trkpt><trkpt lat="43.851147115465956" lon="18.4016191908395"><ele>535.75</ele><time>2026-05-03T16:37:13Z</time></trkpt><trkpt lat="43.85121521007361" lon="18.401736063765437"><ele>535.5</ele><time>2026-05-03T16:37:14Z</time></trkpt><trkpt lat="43.851278554576446" lon="18.401859456921514"><ele>535.25</ele><time>2026-05-03T16:37:15Z</time></trkpt><trkpt lat="43.85135033559096" lon="18.401991903694174"><ele>535.0</ele><time>2026-05-03T16:37:16Z</time></trkpt><trkpt lat="43.85142845263835" lon="18.402126062647273"><ele>534.75</ele><time>2026-05-03T16:37:17Z</time></trkpt><trkpt lat="43.85149641410213" lon="18.402260106441368"><ele>534.5</ele><time>2026-05-03T16:37:18Z</time></trkpt><trkpt lat="43.85156737620558" lon="18.40238787540999"><ele>534.25</ele><time>2026-05-03T16:37:19Z</time></trkpt><trkpt lat="43.851640455861975" lon="18.402514704878186"><ele>534.0</ele><time>2026-05-03T16:37:20Z</time></trkpt><trkpt lat="43.85170059162116" lon="18.402630482461877"><ele>534.0</ele><time>2026-05-03T16:37:21Z</time></trkpt><trkpt lat="43.85176143970749" lon="18.402742358339932"><ele>534.0</ele><time>2026-05-03T16:37:22Z</time></trkpt><trkpt lat="43.851788662907175" lon="18.40282655078437"><ele>534.0</ele><time>2026-05-03T16:37:23Z</time></trkpt><trkpt lat="43.851843541575654" lon="18.4029440027169"><ele>534.0</ele><time>2026-05-03T16:37:24Z</time></trkpt><trkpt lat="43.85190164270169" lon="18.403067365610408"><ele>534.0</ele><time>2026-05-03T16:37:25Z</time></trkpt><trkpt lat="43.85196045012407" lon="18.40319872576137"><ele>534.2</ele><time>2026-05-03T16:37:26Z</time></trkpt><trkpt lat="43.85201752345427" lon="18.40333294302604"><ele>534.4</ele><time>2026-05-03T16:37:27Z</time></trkpt><trkpt lat="43.852075179177206" lon="18.403462937679805"><ele>534.6</ele><time>2026-05-03T16:37:28Z</time></trkpt><trkpt lat="43.85212873065921" lon="18.40359267335136"><ele>534.8</ele><time>2026-05-03T16:37:29Z</time></trkpt><trkpt lat="43.852179366214294" lon="18.40372381825696"><ele>535.0</ele><time>2026-05-03T16:37:30Z</time></trkpt><trkpt lat="43.85222844943255" lon="18.403856777033663"><ele>535.4</ele><time>2026-05-03T16:37:31Z</time></trkpt><trkpt lat="43.85227652364022" lon="18.4039857702748"><ele>535.8</ele><time>2026-05-03T16:37:32Z</time></trkpt><trkpt lat="43.85232442318798" lon="18.404114080653873"><ele>536.2</ele><time>2026-05-03T16:37:33Z</time></trkpt><trkpt lat="43.852369337139116" lon="18.404232453793693"><ele>536.6</ele><time>2026-05-03T16:37:34Z</time></trkpt><trkpt lat="43.852411070011335" lon="18.404342899684934"><ele>537.0</ele><time>2026-05-03T16:37:35Z</time></trkpt><trkpt lat="43.852450957492344" lon="18.404448610523986"><ele>537.0</ele><time>2026-05-03T16:37:36Z</time></trkpt><trkpt lat="43.852490369553756" lon="18.404551925610264"><ele>537.0</ele><time>2026-05-03T16:37:37Z</time></trkpt><trkpt lat="43.8525230318078" lon="18.404645552320595"><ele>537.0</ele><time>2026-05-03T16:37:38Z</time></trkpt><trkpt lat="43.852553671337034" lon="18.40472409718165"><ele>537.0</ele><time>2026-05-03T16:37:39Z</time></trkpt><trkpt lat="43.85260387982031" lon="18.404850579888976"><ele>537.0</ele><time>2026-05-03T16:37:41Z</time></trkpt><trkpt lat="43.852642044750425" lon="18.40492402281872"><ele>537.0</ele><time>2026-05-03T16:37:44Z</time></trkpt><trkpt lat="43.85267360636382" lon="18.405024143570902"><ele>536.4</ele><time>2026-05-03T16:38:03Z</time></trkpt><trkpt lat="43.852721805636556" lon="18.405149247925717"><ele>535.8000000000001</ele><time>2026-05-03T16:38:05Z</time></trkpt><trkpt lat="43.85275067715012" lon="18.405228713594827"><ele>535.2</ele><time>2026-05-03T16:38:06Z</time></trkpt><trkpt lat="43.85282070968717" lon="18.40537649894941"><ele>534.6</ele><time>2026-05-03T16:38:08Z</time></trkpt><trkpt lat="43.85285711681837" lon="18.405481760969966"><ele>534.0</ele><time>2026-05-03T16:38:09Z</time></trkpt><trkpt lat="43.85288318407518" lon="18.405603183589"><ele>534.0</ele><time>2026-05-03T16:38:10Z</time></trkpt><trkpt lat="43.85289441460679" lon="18.405738486886015"><ele>534.0</ele><time>2026-05-03T16:38:11Z</time></trkpt><trkpt lat="43.85289963162967" lon="18.4058827962132"><ele>534.0</ele><time>2026-05-03T16:38:12Z</time></trkpt><trkpt lat="43.852901180166036" lon="18.40602994505366"><ele>534.0</ele><time>2026-05-03T16:38:13Z</time></trkpt><trkpt lat="43.85290771695012" lon="18.406185627391874"><ele>534.0</ele><time>2026-05-03T16:38:14Z</time></trkpt><trkpt lat="43.852913077648715" lon="18.406337981936602"><ele>533.75</ele><time>2026-05-03T16:38:15Z</time></trkpt><trkpt lat="43.85291839838929" lon="18.406489431235208"><ele>533.5</ele><time>2026-05-03T16:38:16Z</time></trkpt><trkpt lat="43.85293287578943" lon="18.406649985816816"><ele>533.25</ele><time>2026-05-03T16:38:17Z</time></trkpt><trkpt lat="43.85295385871024" lon="18.406810737815828"><ele>533.0</ele><time>2026-05-03T16:38:18Z</time></trkpt><trkpt lat="43.852977210766326" lon="18.406977924576804"><ele>533.0</ele><time>2026-05-03T16:38:19Z</time></trkpt><trkpt lat="43.85300260090305" lon="18.40715423713828"><ele>533.0</ele><time>2026-05-03T16:38:20Z</time></trkpt><trkpt lat="43.85302750828348" lon="18.407329597262546"><ele>533.0</ele><time>2026-05-03T16:38:21Z</time></trkpt><trkpt lat="43.85305293539028" lon="18.4075060177747"><ele>533.0</ele><time>2026-05-03T16:38:22Z</time></trkpt><trkpt lat="43.8530785497326" lon="18.4076747261969"><ele>533.5</ele><time>2026-05-03T16:38:23Z</time></trkpt><trkpt lat="43.853108454626366" lon="18.407837795835714"><ele>534.0</ele><time>2026-05-03T16:38:24Z</time></trkpt><trkpt lat="43.85313692238914" lon="18.407989158978616"><ele>534.5</ele><time>2026-05-03T16:38:25Z</time></trkpt><trkpt lat="43.85316952390388" lon="18.40814025691175"><ele>535.0</ele><time>2026-05-03T16:38:26Z</time></trkpt><trkpt lat="43.85320324255974" lon="18.408288165294373"><ele>535.0</ele><time>2026-05-03T16:38:27Z</time></trkpt><trkpt lat="43.85323433221625" lon="18.408437781876646"><ele>535.0</ele><time>2026-05-03T16:38:28Z</time></trkpt><trkpt lat="43.85327023667486" lon="18.408587860711616"><ele>535.0</ele><time>2026-05-03T16:38:29Z</time></trkpt><trkpt lat="43.8533077330212" lon="18.408737356489766"><ele>535.0</ele><time>2026-05-03T16:38:30Z</time></trkpt><trkpt lat="43.85334475957204" lon="18.408875533304855"><ele>535.0</ele><time>2026-05-03T16:38:31Z</time></trkpt><trkpt lat="43.8533790950228" lon="18.40900245901346"><ele>534.8</ele><time>2026-05-03T16:38:32Z</time></trkpt><trkpt lat="43.85341264408191" lon="18.40912328647982"><ele>534.6</ele><time>2026-05-03T16:38:33Z</time></trkpt><trkpt lat="43.853449906996325" lon="18.409244344103"><ele>534.4</ele><time>2026-05-03T16:38:34Z</time></trkpt><trkpt lat="43.85348724437054" lon="18.40936084941584"><ele>534.2</ele><time>2026-05-03T16:38:35Z</time></trkpt><trkpt lat="43.853528308801216" lon="18.409475281841736"><ele>534.0</ele><time>2026-05-03T16:38:36Z</time></trkpt><trkpt lat="43.85357023585327" lon="18.40957666858035"><ele>533.8333333333334</ele><time>2026-05-03T16:38:37Z</time></trkpt><trkpt lat="43.85360605313366" lon="18.409666992643615"><ele>533.6666666666666</ele><time>2026-05-03T16:38:38Z</time></trkpt><trkpt lat="43.8536397161394" lon="18.40975174736427"><ele>533.5</ele><time>2026-05-03T16:38:39Z</time></trkpt><trkpt lat="43.85368028825374" lon="18.409848445357767"><ele>533.3333333333333</ele><time>2026-05-03T16:38:40Z</time></trkpt><trkpt lat="43.85372200027933" lon="18.409949090164496"><ele>533.1666666666666</ele><time>2026-05-03T16:38:41Z</time></trkpt><trkpt lat="43.85376204174385" lon="18.410049834027177"><ele>533.0</ele><time>2026-05-03T16:38:42Z</time></trkpt><trkpt lat="43.8538060701028" lon="18.410154556874765"><ele>533.0</ele><time>2026-05-03T16:38:43Z</time></trkpt><trkpt lat="43.85385147832467" lon="18.410258362533348"><ele>533.0</ele><time>2026-05-03T16:38:44Z</time></trkpt><trkpt lat="43.85390056577304" lon="18.4103681400033"><ele>533.0</ele><time>2026-05-03T16:38:45Z</time></trkpt><trkpt lat="43.85394807873569" lon="18.410477466813337"><ele>533.0</ele><time>2026-05-03T16:38:46Z</time></trkpt><trkpt lat="43.854005683347204" lon="18.410584842980082"><ele>533.0</ele><time>2026-05-03T16:38:47Z</time></trkpt><trkpt lat="43.85405954075265" lon="18.410686850457232"><ele>533.4</ele><time>2026-05-03T16:38:48Z</time></trkpt><trkpt lat="43.85411155374867" lon="18.41080008793674"><ele>533.8</ele><time>2026-05-03T16:38:49Z</time></trkpt><trkpt lat="43.854169410628394" lon="18.41091397197783"><ele>534.2</ele><time>2026-05-03T16:38:50Z</time></trkpt><trkpt lat="43.854224190928996" lon="18.41102530626911"><ele>534.6</ele><time>2026-05-03T16:38:51Z</time></trkpt><trkpt lat="43.85428145579282" lon="18.41113212866894"><ele>535.0</ele><time>2026-05-03T16:38:52Z</time></trkpt><trkpt lat="43.854336858230276" lon="18.41123624743215"><ele>534.8</ele><time>2026-05-03T16:38:53Z</time></trkpt><trkpt lat="43.8543907273712" lon="18.411342653921015"><ele>534.6</ele><time>2026-05-03T16:38:54Z</time></trkpt><trkpt lat="43.85444326799091" lon="18.411448408364663"><ele>534.4</ele><time>2026-05-03T16:38:55Z</time></trkpt><trkpt lat="43.85450209075008" lon="18.411554124123402"><ele>534.2</ele><time>2026-05-03T16:38:56Z</time></trkpt><trkpt lat="43.85455711639933" lon="18.41165826316568"><ele>534.0</ele><time>2026-05-03T16:38:57Z</time></trkpt><trkpt lat="43.85460066150209" lon="18.411766486154807"><ele>534.0</ele><time>2026-05-03T16:38:58Z</time></trkpt><trkpt lat="43.854658839357825" lon="18.41185993059831"><ele>534.0</ele><time>2026-05-03T16:38:59Z</time></trkpt><trkpt lat="43.854709218051624" lon="18.411945749954153"><ele>534.0</ele><time>2026-05-03T16:39:00Z</time></trkpt><trkpt lat="43.854761317288116" lon="18.41204311675257"><ele>534.0</ele><time>2026-05-03T16:39:01Z</time></trkpt><trkpt lat="43.854811139221155" lon="18.412122969888173"><ele>534.0</ele><time>2026-05-03T16:39:02Z</time></trkpt><trkpt lat="43.85485445668546" lon="18.412196238496172"><ele>534.0</ele><time>2026-05-03T16:39:03Z</time></trkpt><trkpt lat="43.854900738598324" lon="18.41226076281424"><ele>534.1666666666666</ele><time>2026-05-03T16:39:04Z</time></trkpt><trkpt lat="43.854947740501" lon="18.412326894671537"><ele>534.3333333333334</ele><time>2026-05-03T16:39:05Z</time></trkpt><trkpt lat="43.85499376814663" lon="18.412404393635917"><ele>534.5</ele><time>2026-05-03T16:39:06Z</time></trkpt><trkpt lat="43.85504776666311" lon="18.41248326441815"><ele>534.6666666666667</ele><time>2026-05-03T16:39:07Z</time></trkpt><trkpt lat="43.855099550392005" lon="18.412563936857918"><ele>534.8333333333334</ele><time>2026-05-03T16:39:08Z</time></trkpt><trkpt lat="43.85515911108376" lon="18.412649657449574"><ele>535.0</ele><time>2026-05-03T16:39:09Z</time></trkpt><trkpt lat="43.85521691977305" lon="18.412733143103697"><ele>535.1666666666667</ele><time>2026-05-03T16:39:10Z</time></trkpt><trkpt lat="43.8552584031149" lon="18.41281053684829"><ele>535.3333333333334</ele><time>2026-05-03T16:39:11Z</time></trkpt><trkpt lat="43.855339947205394" lon="18.412938381646065"><ele>535.5</ele><time>2026-05-03T16:39:13Z</time></trkpt><trkpt lat="43.85539463458122" lon="18.413007722562522"><ele>535.6666666666666</ele><time>2026-05-03T16:39:15Z</time></trkpt><trkpt lat="43.85544296229827" lon="18.413074126312665"><ele>535.8333333333333</ele><time>2026-05-03T16:39:23Z</time></trkpt><trkpt lat="43.855497594040564" lon="18.413151303686526"><ele>536.0</ele><time>2026-05-03T16:40:10Z</time></trkpt><trkpt lat="43.855551848574265" lon="18.413264654760386"><ele>536.0</ele><time>2026-05-03T16:40:12Z</time></trkpt><trkpt lat="43.855601886311085" lon="18.413320708815487"><ele>536.0</ele><time>2026-05-03T16:40:13Z</time></trkpt><trkpt lat="43.8556724866915" lon="18.41335934007246"><ele>536.0</ele><time>2026-05-03T16:40:14Z</time></trkpt><trkpt lat="43.85563567242936" lon="18.413458790917254"><ele>536.0</ele><time>2026-05-03T16:40:15Z</time></trkpt><trkpt lat="43.85585919958688" lon="18.413315862896113"><ele>536.0</ele><time>2026-05-03T16:40:17Z</time></trkpt><trkpt lat="43.85592487746564" lon="18.413285591721042"><ele>536.0</ele><time>2026-05-03T16:40:18Z</time></trkpt><trkpt lat="43.855987456332024" lon="18.413251574885035"><ele>536.0</ele><time>2026-05-03T16:40:19Z</time></trkpt><trkpt lat="43.85607748024977" lon="18.413207275483977"><ele>536.0</ele><time>2026-05-03T16:40:21Z</time></trkpt><trkpt lat="43.85615375767964" lon="18.41317189417314"><ele>536.0</ele><time>2026-05-03T16:40:27Z</time></trkpt><trkpt lat="43.856262064663056" lon="18.41314769568579"><ele>536.0</ele><time>2026-05-03T16:40:29Z</time></trkpt><trkpt lat="43.85633209135614" lon="18.413257162353588"><ele>536.5</ele><time>2026-05-03T16:40:31Z</time></trkpt><trkpt lat="43.856362238874006" lon="18.4133469560127"><ele>537.0</ele><time>2026-05-03T16:40:32Z</time></trkpt><trkpt lat="43.856398035459506" lon="18.413448625128915"><ele>537.5</ele><time>2026-05-03T16:40:33Z</time></trkpt><trkpt lat="43.85642956265626" lon="18.413560601635062"><ele>538.0</ele><time>2026-05-03T16:40:34Z</time></trkpt><trkpt lat="43.85644824079066" lon="18.413662132387696"><ele>538.5</ele><time>2026-05-03T16:40:35Z</time></trkpt><trkpt lat="43.856457853143816" lon="18.413753626126415"><ele>539.0</ele><time>2026-05-03T16:40:36Z</time></trkpt><trkpt lat="43.85646611877854" lon="18.413882673077033"><ele>539.2</ele><time>2026-05-03T16:40:38Z</time></trkpt><trkpt lat="43.856473824103304" lon="18.4139744236505"><ele>539.4</ele><time>2026-05-03T16:40:49Z</time></trkpt><trkpt lat="43.85648075032237" lon="18.414146195855285"><ele>539.6</ele><time>2026-05-03T16:40:51Z</time></trkpt><trkpt lat="43.85648426344563" lon="18.414277940859392"><ele>539.8</ele><time>2026-05-03T16:40:52Z</time></trkpt><trkpt lat="43.856486341696176" lon="18.41442881246158"><ele>540.0</ele><time>2026-05-03T16:40:53Z</time></trkpt><trkpt lat="43.8564845935583" lon="18.414566729765685"><ele>540.2</ele><time>2026-05-03T16:40:54Z</time></trkpt><trkpt lat="43.85648834925477" lon="18.414722019398262"><ele>540.4</ele><time>2026-05-03T16:40:55Z</time></trkpt><trkpt lat="43.85649485001146" lon="18.414877375363236"><ele>540.6</ele><time>2026-05-03T16:40:56Z</time></trkpt><trkpt lat="43.8564986476911" lon="18.415027704715335"><ele>540.8</ele><time>2026-05-03T16:40:57Z</time></trkpt><trkpt lat="43.85650785401618" lon="18.415183284348704"><ele>541.0</ele><time>2026-05-03T16:40:58Z</time></trkpt><trkpt lat="43.85651412098206" lon="18.415329979405513"><ele>541.0</ele><time>2026-05-03T16:40:59Z</time></trkpt><trkpt lat="43.856520046406764" lon="18.41547106283937"><ele>541.0</ele><time>2026-05-03T16:41:00Z</time></trkpt><trkpt lat="43.856519975194814" lon="18.41561181526801"><ele>541.0</ele><time>2026-05-03T16:41:01Z</time></trkpt><trkpt lat="43.85652205353237" lon="18.415753977298973"><ele>541.0</ele><time>2026-05-03T16:41:02Z</time></trkpt><trkpt lat="43.85652447255881" lon="18.415902232928538"><ele>541.0</ele><time>2026-05-03T16:41:03Z</time></trkpt><trkpt lat="43.85653109382914" lon="18.41604367795058"><ele>541.4</ele><time>2026-05-03T16:41:04Z</time></trkpt><trkpt lat="43.856538598062585" lon="18.41617853078865"><ele>541.8</ele><time>2026-05-03T16:41:05Z</time></trkpt><trkpt lat="43.8565419240519" lon="18.41630964674765"><ele>542.1999999999999</ele><time>2026-05-03T16:41:06Z</time></trkpt><trkpt lat="43.85654425396193" lon="18.416438378275082"><ele>542.6</ele><time>2026-05-03T16:41:07Z</time></trkpt><trkpt lat="43.85654647146798" lon="18.416571327021742"><ele>543.0</ele><time>2026-05-03T16:41:08Z</time></trkpt><trkpt lat="43.85655019612551" lon="18.416702793058775"><ele>543.0</ele><time>2026-05-03T16:41:09Z</time></trkpt><trkpt lat="43.85655164888347" lon="18.41683469368047"><ele>543.0</ele><time>2026-05-03T16:41:10Z</time></trkpt><trkpt lat="43.8565541743409" lon="18.416964184078502"><ele>543.0</ele><time>2026-05-03T16:41:11Z</time></trkpt><trkpt lat="43.85655906798911" lon="18.417087731128976"><ele>543.0</ele><time>2026-05-03T16:41:12Z</time></trkpt><trkpt lat="43.85656661968375" lon="18.417213669748335"><ele>543.0</ele><time>2026-05-03T16:41:13Z</time></trkpt><trkpt lat="43.85656867741165" lon="18.417331366921886"><ele>543.5</ele><time>2026-05-03T16:41:14Z</time></trkpt><trkpt lat="43.8565737404114" lon="18.417451540005874"><ele>544.0</ele><time>2026-05-03T16:41:15Z</time></trkpt><trkpt lat="43.85657918959009" lon="18.41756630543954"><ele>544.5</ele><time>2026-05-03T16:41:16Z</time></trkpt><trkpt lat="43.85658235637502" lon="18.41768339304914"><ele>545.0</ele><time>2026-05-03T16:41:17Z</time></trkpt><trkpt lat="43.856582890232374" lon="18.41780264697809"><ele>545.5</ele><time>2026-05-03T16:41:18Z</time></trkpt><trkpt lat="43.856586213466" lon="18.417933516764887"><ele>546.0</ele><time>2026-05-03T16:41:19Z</time></trkpt><trkpt lat="43.856587715412154" lon="18.418062492823708"><ele>546.25</ele><time>2026-05-03T16:41:20Z</time></trkpt><trkpt lat="43.85658548900836" lon="18.418204634555384"><ele>546.5</ele><time>2026-05-03T16:41:21Z</time></trkpt><trkpt lat="43.85658889142977" lon="18.418367723509732"><ele>546.75</ele><time>2026-05-03T16:41:22Z</time></trkpt><trkpt lat="43.856585359711865" lon="18.418564384535852"><ele>547.0</ele><time>2026-05-03T16:41:23Z</time></trkpt><trkpt lat="43.85660097890141" lon="18.41875156966081"><ele>546.75</ele><time>2026-05-03T16:41:24Z</time></trkpt><trkpt lat="43.85660455938624" lon="18.41896990473754"><ele>546.5</ele><time>2026-05-03T16:41:25Z</time></trkpt><trkpt lat="43.856605071585264" lon="18.41917030776041"><ele>546.25</ele><time>2026-05-03T16:41:26Z</time></trkpt><trkpt lat="43.85661244466965" lon="18.419350579192486"><ele>546.0</ele><time>2026-05-03T16:41:27Z</time></trkpt><trkpt lat="43.85661948154985" lon="18.41950224531767"><ele>546.0</ele><time>2026-05-03T16:41:28Z</time></trkpt><trkpt lat="43.85662319921555" lon="18.419637996129918"><ele>546.0</ele><time>2026-05-03T16:41:29Z</time></trkpt><trkpt lat="43.85661338639926" lon="18.41976184740843"><ele>546.0</ele><time>2026-05-03T16:41:30Z</time></trkpt><trkpt lat="43.856615441071696" lon="18.419908453140568"><ele>546.0</ele><time>2026-05-03T16:41:31Z</time></trkpt><trkpt lat="43.856614390855306" lon="18.4200544296335"><ele>546.0</ele><time>2026-05-03T16:41:32Z</time></trkpt><trkpt lat="43.85661961925084" lon="18.420181756937144"><ele>545.8333333333334</ele><time>2026-05-03T16:41:33Z</time></trkpt><trkpt lat="43.856623338938185" lon="18.420293713918102"><ele>545.6666666666666</ele><time>2026-05-03T16:41:34Z</time></trkpt><trkpt lat="43.85662531157469" lon="18.420411810978756"><ele>545.5</ele><time>2026-05-03T16:41:35Z</time></trkpt><trkpt lat="43.856625856986604" lon="18.42053154438907"><ele>545.3333333333333</ele><time>2026-05-03T16:41:36Z</time></trkpt><trkpt lat="43.85662661467388" lon="18.4206497694228"><ele>545.1666666666666</ele><time>2026-05-03T16:41:37Z</time></trkpt><trkpt lat="43.85663433002064" lon="18.420767490226865"><ele>545.0</ele><time>2026-05-03T16:41:38Z</time></trkpt><trkpt lat="43.85664176599521" lon="18.420898398633526"><ele>544.4</ele><time>2026-05-03T16:41:39Z</time></trkpt><trkpt lat="43.85664841385649" lon="18.421041988513533"><ele>543.8</ele><time>2026-05-03T16:41:40Z</time></trkpt><trkpt lat="43.85665295931874" lon="18.421195236757807"><ele>543.2</ele><time>2026-05-03T16:41:41Z</time></trkpt><trkpt lat="43.85666206495719" lon="18.421337206784195"><ele>542.6</ele><time>2026-05-03T16:41:42Z</time></trkpt><trkpt lat="43.85666789453612" lon="18.421462108009322"><ele>542.0</ele><time>2026-05-03T16:41:43Z</time></trkpt><trkpt lat="43.85667565692946" lon="18.421581070907767"><ele>542.0</ele><time>2026-05-03T16:41:44Z</time></trkpt><trkpt lat="43.85668097863241" lon="18.421698658369166"><ele>542.0</ele><time>2026-05-03T16:41:45Z</time></trkpt><trkpt lat="43.85668407945297" lon="18.421823210184503"><ele>542.0</ele><time>2026-05-03T16:41:46Z</time></trkpt><trkpt lat="43.85669337965374" lon="18.421944755118773"><ele>542.0</ele><time>2026-05-03T16:41:47Z</time></trkpt><trkpt lat="43.85669938657697" lon="18.422068321394367"><ele>542.0</ele><time>2026-05-03T16:41:48Z</time></trkpt><trkpt lat="43.856707639742" lon="18.422200438031872"><ele>542.0</ele><time>2026-05-03T16:41:49Z</time></trkpt><trkpt lat="43.856712359699436" lon="18.422315156765467"><ele>542.1666666666666</ele><time>2026-05-03T16:41:50Z</time></trkpt><trkpt lat="43.85671448780657" lon="18.42243465396143"><ele>542.3333333333333</ele><time>2026-05-03T16:41:51Z</time></trkpt><trkpt lat="43.856720844596126" lon="18.422543062908595"><ele>542.5</ele><time>2026-05-03T16:41:52Z</time></trkpt><trkpt lat="43.85672496604259" lon="18.422643587707952"><ele>542.6666666666666</ele><time>2026-05-03T16:41:53Z</time></trkpt><trkpt lat="43.85672690226095" lon="18.42274682453956"><ele>542.8333333333334</ele><time>2026-05-03T16:41:54Z</time></trkpt><trkpt lat="43.856730492287184" lon="18.422855396836813"><ele>543.0</ele><time>2026-05-03T16:41:55Z</time></trkpt><trkpt lat="43.856736857179165" lon="18.422960129319907"><ele>543.0</ele><time>2026-05-03T16:41:56Z</time></trkpt><trkpt lat="43.856743857596484" lon="18.423067205869515"><ele>543.0</ele><time>2026-05-03T16:41:57Z</time></trkpt><trkpt lat="43.856746904994125" lon="18.423177731840596"><ele>543.0</ele><time>2026-05-03T16:41:58Z</time></trkpt><trkpt lat="43.85674932695958" lon="18.423284125211985"><ele>543.0</ele><time>2026-05-03T16:41:59Z</time></trkpt><trkpt lat="43.856754057433804" lon="18.423384054170775"><ele>543.0</ele><time>2026-05-03T16:42:00Z</time></trkpt><trkpt lat="43.85675969999052" lon="18.42347822385205"><ele>543.0</ele><time>2026-05-03T16:42:01Z</time></trkpt><trkpt lat="43.856763002625925" lon="18.423579049375537"><ele>543.0</ele><time>2026-05-03T16:42:02Z</time></trkpt><trkpt lat="43.85676675485908" lon="18.42369083847315"><ele>543.0</ele><time>2026-05-03T16:42:03Z</time></trkpt><trkpt lat="43.85677393169258" lon="18.423813778109903"><ele>543.0</ele><time>2026-05-03T16:42:04Z</time></trkpt><trkpt lat="43.856777119101565" lon="18.42394586067984"><ele>543.0</ele><time>2026-05-03T16:42:05Z</time></trkpt><trkpt lat="43.85678761183921" lon="18.42408770044477"><ele>543.0</ele><time>2026-05-03T16:42:06Z</time></trkpt><trkpt lat="43.856790692804175" lon="18.424232781381214"><ele>543.0</ele><time>2026-05-03T16:42:07Z</time></trkpt><trkpt lat="43.856797891792795" lon="18.42438888991201"><ele>543.4</ele><time>2026-05-03T16:42:08Z</time></trkpt><trkpt lat="43.85680621472841" lon="18.424548576629675"><ele>543.8</ele><time>2026-05-03T16:42:09Z</time></trkpt><trkpt lat="43.856809906888124" lon="18.4246979754392"><ele>544.2</ele><time>2026-05-03T16:42:10Z</time></trkpt><trkpt lat="43.85681779530718" lon="18.424829173158212"><ele>544.6</ele><time>2026-05-03T16:42:11Z</time></trkpt><trkpt lat="43.856829600561554" lon="18.42494714068564"><ele>545.0</ele><time>2026-05-03T16:42:12Z</time></trkpt><trkpt lat="43.856845696297746" lon="18.425058157284592"><ele>545.3333333333333</ele><time>2026-05-03T16:42:13Z</time></trkpt><trkpt lat="43.85686393675869" lon="18.42517741799705"><ele>545.6666666666666</ele><time>2026-05-03T16:42:14Z</time></trkpt><trkpt lat="43.85688193032189" lon="18.42528990642726"><ele>546.0</ele><time>2026-05-03T16:42:15Z</time></trkpt><trkpt lat="43.85690186346765" lon="18.425405364608107"><ele>546.3333333333334</ele><time>2026-05-03T16:42:16Z</time></trkpt><trkpt lat="43.85692275245385" lon="18.42551684618743"><ele>546.6666666666667</ele><time>2026-05-03T16:42:17Z</time></trkpt><trkpt lat="43.85694807229699" lon="18.42562780463795"><ele>547.0</ele><time>2026-05-03T16:42:18Z</time></trkpt><trkpt lat="43.85697723533816" lon="18.42574526595753"><ele>547.0</ele><time>2026-05-03T16:42:19Z</time></trkpt><trkpt lat="43.85701124547911" lon="18.425864400869685"><ele>547.0</ele><time>2026-05-03T16:42:20Z</time></trkpt><trkpt lat="43.85704771129552" lon="18.425987731696722"><ele>547.0</ele><time>2026-05-03T16:42:21Z</time></trkpt><trkpt lat="43.85708692789996" lon="18.426108150457928"><ele>547.0</ele><time>2026-05-03T16:42:22Z</time></trkpt><trkpt lat="43.857122283049186" lon="18.42621480114182"><ele>547.0</ele><time>2026-05-03T16:42:23Z</time></trkpt><trkpt lat="43.85715425969906" lon="18.42632866793231"><ele>547.0</ele><time>2026-05-03T16:42:24Z</time></trkpt><trkpt lat="43.857187762448014" lon="18.426437349479063"><ele>547.0</ele><time>2026-05-03T16:42:25Z</time></trkpt><trkpt lat="43.857218211072905" lon="18.426546816569804"><ele>547.0</ele><time>2026-05-03T16:42:26Z</time></trkpt><trkpt lat="43.8572500315871" lon="18.426652637820805"><ele>547.0</ele><time>2026-05-03T16:42:27Z</time></trkpt><trkpt lat="43.85727966535207" lon="18.426768271193016"><ele>547.0</ele><time>2026-05-03T16:42:28Z</time></trkpt><trkpt lat="43.85731392135782" lon="18.426875497514175"><ele>547.0</ele><time>2026-05-03T16:42:29Z</time></trkpt><trkpt lat="43.85734899883022" lon="18.42698969904487"><ele>547.0</ele><time>2026-05-03T16:42:30Z</time></trkpt><trkpt lat="43.857384937100385" lon="18.427109213579502"><ele>547.0</ele><time>2026-05-03T16:42:31Z</time></trkpt><trkpt lat="43.85742220226404" lon="18.42722897877659"><ele>547.0</ele><time>2026-05-03T16:42:32Z</time></trkpt><trkpt lat="43.857462961436944" lon="18.427340177678754"><ele>547.0</ele><time>2026-05-03T16:42:33Z</time></trkpt><trkpt lat="43.8574954866663" lon="18.427441690132394"><ele>547.0</ele><time>2026-05-03T16:42:34Z</time></trkpt><trkpt lat="43.857523329345604" lon="18.42754106083512"><ele>547.0</ele><time>2026-05-03T16:42:35Z</time></trkpt><trkpt lat="43.85755684500061" lon="18.427637258441287"><ele>547.0</ele><time>2026-05-03T16:42:36Z</time></trkpt><trkpt lat="43.857586751462826" lon="18.427742463753724"><ele>547.0</ele><time>2026-05-03T16:42:37Z</time></trkpt><trkpt lat="43.8576216884443" lon="18.427851148731648"><ele>547.0</ele><time>2026-05-03T16:42:38Z</time></trkpt><trkpt lat="43.85765545549368" lon="18.427965165917215"><ele>547.0</ele><time>2026-05-03T16:42:39Z</time></trkpt><trkpt lat="43.85769053381084" lon="18.428079528688833"><ele>547.0</ele><time>2026-05-03T16:42:40Z</time></trkpt><trkpt lat="43.857720908888965" lon="18.428198276254424"><ele>547.0</ele><time>2026-05-03T16:42:41Z</time></trkpt><trkpt lat="43.857747744814205" lon="18.42831537695594"><ele>547.0</ele><time>2026-05-03T16:42:42Z</time></trkpt><trkpt lat="43.85777202528174" lon="18.428414973700225"><ele>547.0</ele><time>2026-05-03T16:42:43Z</time></trkpt><trkpt lat="43.85779041819958" lon="18.428521197301755"><ele>547.0</ele><time>2026-05-03T16:42:44Z</time></trkpt><trkpt lat="43.857808464712384" lon="18.42861530373848"><ele>547.0</ele><time>2026-05-03T16:42:45Z</time></trkpt><trkpt lat="43.857825469348555" lon="18.42870939730877"><ele>547.0</ele><time>2026-05-03T16:42:46Z</time></trkpt><trkpt lat="43.85784508335118" lon="18.428800547318918"><ele>547.0</ele><time>2026-05-03T16:42:47Z</time></trkpt><trkpt lat="43.857861677239406" lon="18.428897376687896"><ele>547.0</ele><time>2026-05-03T16:42:48Z</time></trkpt><trkpt lat="43.85787592328481" lon="18.429000241252535"><ele>547.3333333333334</ele><time>2026-05-03T16:42:49Z</time></trkpt><trkpt lat="43.857890879048014" lon="18.42909042657747"><ele>547.6666666666667</ele><time>2026-05-03T16:42:50Z</time></trkpt><trkpt lat="43.857911940887334" lon="18.42918888095374"><ele>548.0</ele><time>2026-05-03T16:42:51Z</time></trkpt><trkpt lat="43.85793609520281" lon="18.42930090862752"><ele>548.3333333333334</ele><time>2026-05-03T16:42:52Z</time></trkpt><trkpt lat="43.85796105133549" lon="18.429412307409883"><ele>548.6666666666666</ele><time>2026-05-03T16:42:53Z</time></trkpt><trkpt lat="43.857979067939624" lon="18.429519633468328"><ele>549.0</ele><time>2026-05-03T16:42:54Z</time></trkpt><trkpt lat="43.85799875687534" lon="18.429629264927065"><ele>549.0</ele><time>2026-05-03T16:42:55Z</time></trkpt><trkpt lat="43.85801597309612" lon="18.42972630457858"><ele>549.0</ele><time>2026-05-03T16:42:56Z</time></trkpt><trkpt lat="43.8580338897194" lon="18.429826942569807"><ele>549.0</ele><time>2026-05-03T16:42:57Z</time></trkpt><trkpt lat="43.85805734033436" lon="18.429924282976277"><ele>549.0</ele><time>2026-05-03T16:42:58Z</time></trkpt><trkpt lat="43.858079467164316" lon="18.430026577599303"><ele>549.0</ele><time>2026-05-03T16:42:59Z</time></trkpt><trkpt lat="43.858100209363926" lon="18.43013308088025"><ele>549.0</ele><time>2026-05-03T16:43:00Z</time></trkpt><trkpt lat="43.85812563195046" lon="18.430235949033925"><ele>549.0</ele><time>2026-05-03T16:43:01Z</time></trkpt><trkpt lat="43.858149452285666" lon="18.430334408146873"><ele>549.0</ele><time>2026-05-03T16:43:02Z</time></trkpt><trkpt lat="43.85816900305127" lon="18.430427905659343"><ele>549.0</ele><time>2026-05-03T16:43:03Z</time></trkpt><trkpt lat="43.85818974898563" lon="18.430517292884783"><ele>549.0</ele><time>2026-05-03T16:43:04Z</time></trkpt><trkpt lat="43.85821126679562" lon="18.43060676744554"><ele>549.0</ele><time>2026-05-03T16:43:05Z</time></trkpt><trkpt lat="43.85824814714397" lon="18.43078159454513"><ele>549.0</ele><time>2026-05-03T16:43:07Z</time></trkpt><trkpt lat="43.85827022365674" lon="18.430881171732455"><ele>549.0</ele><time>2026-05-03T16:43:08Z</time></trkpt><trkpt lat="43.85829917072136" lon="18.4309935448364"><ele>549.0</ele><time>2026-05-03T16:43:09Z</time></trkpt><trkpt lat="43.85832139132594" lon="18.431093927478983"><ele>549.0</ele><time>2026-05-03T16:43:10Z</time></trkpt><trkpt lat="43.858350383069954" lon="18.43120253073015"><ele>549.0</ele><time>2026-05-03T16:43:11Z</time></trkpt><trkpt lat="43.85837456629166" lon="18.431298039568762"><ele>549.0</ele><time>2026-05-03T16:43:12Z</time></trkpt><trkpt lat="43.85839495801394" lon="18.431399450006854"><ele>549.0</ele><time>2026-05-03T16:43:13Z</time></trkpt><trkpt lat="43.85841373082959" lon="18.431485014906325"><ele>549.0</ele><time>2026-05-03T16:43:14Z</time></trkpt><trkpt lat="43.85845051395682" lon="18.431626468992643"><ele>549.0</ele><time>2026-05-03T16:43:16Z</time></trkpt><trkpt lat="43.85847659496383" lon="18.431737731229795"><ele>549.0</ele><time>2026-05-03T16:43:18Z</time></trkpt><trkpt lat="43.85850822665892" lon="18.4318644501999"><ele>549.0</ele><time>2026-05-03T16:43:20Z</time></trkpt><trkpt lat="43.85853669658351" lon="18.43199160790553"><ele>549.0</ele><time>2026-05-03T16:43:22Z</time></trkpt><trkpt lat="43.858564067423565" lon="18.432127558354953"><ele>549.0</ele><time>2026-05-03T16:43:24Z</time></trkpt><trkpt lat="43.85859319669582" lon="18.43227920903548"><ele>549.0</ele><time>2026-05-03T16:43:26Z</time></trkpt><trkpt lat="43.85861298069017" lon="18.43236470077796"><ele>549.0</ele><time>2026-05-03T16:43:27Z</time></trkpt><trkpt lat="43.85863504129503" lon="18.43245492904369"><ele>549.0</ele><time>2026-05-03T16:43:28Z</time></trkpt><trkpt lat="43.8586732234932" lon="18.432617606967572"><ele>549.0</ele><time>2026-05-03T16:43:30Z</time></trkpt><trkpt lat="43.85870940771645" lon="18.43276909370512"><ele>549.0</ele><time>2026-05-03T16:43:32Z</time></trkpt><trkpt lat="43.858760099623254" lon="18.43293782724477"><ele>549.0</ele><time>2026-05-03T16:43:34Z</time></trkpt><trkpt lat="43.858789353215535" lon="18.433042650448456"><ele>549.0</ele><time>2026-05-03T16:43:35Z</time></trkpt><trkpt lat="43.85881301504064" lon="18.433142035988165"><ele>549.0</ele><time>2026-05-03T16:43:36Z</time></trkpt><trkpt lat="43.858834028257064" lon="18.433236997496408"><ele>549.0</ele><time>2026-05-03T16:43:37Z</time></trkpt><trkpt lat="43.858847742973616" lon="18.433326246368175"><ele>549.0</ele><time>2026-05-03T16:43:38Z</time></trkpt><trkpt lat="43.85888980065584" lon="18.4335001732688"><ele>549.1666666666666</ele><time>2026-05-03T16:43:40Z</time></trkpt><trkpt lat="43.85891197840612" lon="18.433593450840547"><ele>549.3333333333334</ele><time>2026-05-03T16:43:41Z</time></trkpt><trkpt lat="43.858931956721044" lon="18.433686527780576"><ele>549.5</ele><time>2026-05-03T16:43:42Z</time></trkpt><trkpt lat="43.858952052578424" lon="18.433774648426166"><ele>549.6666666666667</ele><time>2026-05-03T16:43:43Z</time></trkpt><trkpt lat="43.85899063046314" lon="18.433849522403772"><ele>549.8333333333334</ele><time>2026-05-03T16:43:44Z</time></trkpt><trkpt lat="43.85909793078401" lon="18.43391625194978"><ele>550.0</ele><time>2026-05-03T16:43:46Z</time></trkpt><trkpt lat="43.85915708601949" lon="18.43387794250635"><ele>550.2</ele><time>2026-05-03T16:43:47Z</time></trkpt><trkpt lat="43.85924242007768" lon="18.433745980287647"><ele>550.4</ele><time>2026-05-03T16:43:49Z</time></trkpt><trkpt lat="43.85927916041293" lon="18.43366068159699"><ele>550.6</ele><time>2026-05-03T16:43:50Z</time></trkpt><trkpt lat="43.859319586928095" lon="18.433580668175154"><ele>550.8</ele><time>2026-05-03T16:43:51Z</time></trkpt><trkpt lat="43.85939657510203" lon="18.433451663894896"><ele>551.0</ele><time>2026-05-03T16:43:53Z</time></trkpt><trkpt lat="43.85946071339443" lon="18.433319329920426"><ele>552.0</ele><time>2026-05-03T16:43:55Z</time></trkpt><trkpt lat="43.85951105267236" lon="18.43315706925168"><ele>553.0</ele><time>2026-05-03T16:43:57Z</time></trkpt><trkpt lat="43.85951565305701" lon="18.43305425304276"><ele>554.0</ele><time>2026-05-03T16:43:58Z</time></trkpt><trkpt lat="43.859521590774726" lon="18.432960781047285"><ele>555.0</ele><time>2026-05-03T16:43:59Z</time></trkpt><trkpt lat="43.8595358720761" lon="18.43286208471095"><ele>556.0</ele><time>2026-05-03T16:44:00Z</time></trkpt><trkpt lat="43.85955549259358" lon="18.432763948528613"><ele>557.0</ele><time>2026-05-03T16:44:01Z</time></trkpt><trkpt lat="43.85958359534539" lon="18.43266526777357"><ele>557.0</ele><time>2026-05-03T16:44:02Z</time></trkpt><trkpt lat="43.859606737944155" lon="18.432567041718446"><ele>557.0</ele><time>2026-05-03T16:44:03Z</time></trkpt><trkpt lat="43.85962990752235" lon="18.432464428172107"><ele>557.0</ele><time>2026-05-03T16:44:04Z</time></trkpt><trkpt lat="43.85964936663258" lon="18.432374245685963"><ele>557.0</ele><time>2026-05-03T16:44:05Z</time></trkpt><trkpt lat="43.85967237980086" lon="18.43223384937167"><ele>557.0</ele><time>2026-05-03T16:44:07Z</time></trkpt><trkpt lat="43.85968606594803" lon="18.432136243021574"><ele>557.0</ele><time>2026-05-03T16:44:09Z</time></trkpt><trkpt lat="43.859717793600865" lon="18.431994223476647"><ele>556.1666666666666</ele><time>2026-05-03T16:44:11Z</time></trkpt><trkpt lat="43.859766551166395" lon="18.431912845482184"><ele>555.3333333333333</ele><time>2026-05-03T16:44:13Z</time></trkpt><trkpt lat="43.85982279278567" lon="18.431846735498727"><ele>554.5</ele><time>2026-05-03T16:44:43Z</time></trkpt><trkpt lat="43.859870611017556" lon="18.431739033231676"><ele>553.6666666666666</ele><time>2026-05-03T16:44:45Z</time></trkpt><trkpt lat="43.85991260587073" lon="18.43163816084307"><ele>552.8333333333334</ele><time>2026-05-03T16:44:47Z</time></trkpt><trkpt lat="43.85995775035708" lon="18.431525003856844"><ele>552.0</ele><time>2026-05-03T16:44:49Z</time></trkpt><trkpt lat="43.86000502757255" lon="18.431395456375018"><ele>552.0</ele><time>2026-05-03T16:44:51Z</time></trkpt><trkpt lat="43.860047195632006" lon="18.43129040675312"><ele>552.0</ele><time>2026-05-03T16:44:53Z</time></trkpt><trkpt lat="43.860101910950455" lon="18.431147965072196"><ele>552.0</ele><time>2026-05-03T16:44:55Z</time></trkpt><trkpt lat="43.860143016990406" lon="18.43100047591044"><ele>552.0</ele><time>2026-05-03T16:44:57Z</time></trkpt><trkpt lat="43.86014515239367" lon="18.43083730776049"><ele>552.0</ele><time>2026-05-03T16:44:59Z</time></trkpt><trkpt lat="43.86013851433788" lon="18.430648477932227"><ele>552.4285714285714</ele><time>2026-05-03T16:45:01Z</time></trkpt><trkpt lat="43.8601356153026" lon="18.43055810400035"><ele>552.8571428571429</ele><time>2026-05-03T16:45:02Z</time></trkpt><trkpt lat="43.860133114512514" lon="18.430458397945927"><ele>553.2857142857143</ele><time>2026-05-03T16:45:03Z</time></trkpt><trkpt lat="43.86010176292973" lon="18.43036578216924"><ele>553.7142857142858</ele><time>2026-05-03T16:45:04Z</time></trkpt><trkpt lat="43.860099992239284" lon="18.430271695898988"><ele>554.1428571428571</ele><time>2026-05-03T16:45:05Z</time></trkpt><trkpt lat="43.86009280130743" lon="18.430169917223072"><ele>554.5714285714287</ele><time>2026-05-03T16:45:06Z</time></trkpt><trkpt lat="43.860094557364796" lon="18.43007035243469"><ele>555.0</ele><time>2026-05-03T16:45:07Z</time></trkpt><trkpt lat="43.86009260917832" lon="18.429963520983293"><ele>555.0</ele><time>2026-05-03T16:45:08Z</time></trkpt><trkpt lat="43.86009256006274" lon="18.429853383053192"><ele>555.0</ele><time>2026-05-03T16:45:09Z</time></trkpt><trkpt lat="43.86008724913613" lon="18.4297426089282"><ele>555.0</ele><time>2026-05-03T16:45:10Z</time></trkpt><trkpt lat="43.8600781365039" lon="18.42963452192403"><ele>555.0</ele><time>2026-05-03T16:45:11Z</time></trkpt><trkpt lat="43.860075300125544" lon="18.42953231537305"><ele>555.0</ele><time>2026-05-03T16:45:12Z</time></trkpt><trkpt lat="43.860061135040475" lon="18.429434209448715"><ele>555.0</ele><time>2026-05-03T16:45:13Z</time></trkpt><trkpt lat="43.860055508246255" lon="18.42933188421018"><ele>554.6666666666666</ele><time>2026-05-03T16:45:14Z</time></trkpt><trkpt lat="43.86006084663073" lon="18.429217073977007"><ele>554.3333333333334</ele><time>2026-05-03T16:45:15Z</time></trkpt><trkpt lat="43.86006088701189" lon="18.42910743574111"><ele>554.0</ele><time>2026-05-03T16:45:16Z</time></trkpt><trkpt lat="43.860055806010465" lon="18.428991692837556"><ele>553.6666666666667</ele><time>2026-05-03T16:45:17Z</time></trkpt><trkpt lat="43.86005184952224" lon="18.428865973377604"><ele>553.3333333333334</ele><time>2026-05-03T16:45:18Z</time></trkpt><trkpt lat="43.860051783998344" lon="18.42873538056974"><ele>553.0</ele><time>2026-05-03T16:45:19Z</time></trkpt><trkpt lat="43.860048193995446" lon="18.42860955387067"><ele>553.0</ele><time>2026-05-03T16:45:20Z</time></trkpt><trkpt lat="43.860057292474075" lon="18.42850497197143"><ele>553.0</ele><time>2026-05-03T16:45:21Z</time></trkpt><trkpt lat="43.860058954455575" lon="18.42841472316182"><ele>553.0</ele><time>2026-05-03T16:45:22Z</time></trkpt><trkpt lat="43.86007705285038" lon="18.428270382127323"><ele>553.0</ele><time>2026-05-03T16:45:24Z</time></trkpt><trkpt lat="43.860064715691266" lon="18.428179591520376"><ele>553.0</ele><time>2026-05-03T16:45:26Z</time></trkpt><trkpt lat="43.86018126949604" lon="18.428173868399313"><ele>553.0</ele><time>2026-05-03T16:45:29Z</time></trkpt><trkpt lat="43.860255296365445" lon="18.42817234312297"><ele>554.3333333333334</ele><time>2026-05-03T16:45:30Z</time></trkpt><trkpt lat="43.86032242459521" lon="18.42816666243048"><ele>555.6666666666667</ele><time>2026-05-03T16:45:31Z</time></trkpt><trkpt lat="43.8604061864768" lon="18.42813915071012"><ele>557.0</ele><time>2026-05-03T16:45:32Z</time></trkpt><trkpt lat="43.86048046184354" lon="18.428123187144937"><ele>558.3333333333334</ele><time>2026-05-03T16:45:33Z</time></trkpt><trkpt lat="43.860549859448795" lon="18.428123557061095"><ele>559.6666666666666</ele><time>2026-05-03T16:45:34Z</time></trkpt><trkpt lat="43.860630216666834" lon="18.428111169447444"><ele>561.0</ele><time>2026-05-03T16:45:35Z</time></trkpt><trkpt lat="43.860710637130204" lon="18.428124401372926"><ele>561.0</ele><time>2026-05-03T16:45:36Z</time></trkpt><trkpt lat="43.86080239842046" lon="18.428100811826077"><ele>561.0</ele><time>2026-05-03T16:45:37Z</time></trkpt><trkpt lat="43.86089670746626" lon="18.428111816285607"><ele>561.0</ele><time>2026-05-03T16:45:38Z</time></trkpt><trkpt lat="43.860986966967126" lon="18.428114559577626"><ele>561.0</ele><time>2026-05-03T16:45:39Z</time></trkpt><trkpt lat="43.86106446215238" lon="18.42811370103053"><ele>561.0</ele><time>2026-05-03T16:45:40Z</time></trkpt><trkpt lat="43.86113629279977" lon="18.428096183042904"><ele>561.0</ele><time>2026-05-03T16:45:41Z</time></trkpt><trkpt lat="43.86120290840224" lon="18.428097461257273"><ele>562.6</ele><time>2026-05-03T16:45:42Z</time></trkpt><trkpt lat="43.861288466045124" lon="18.428082203737038"><ele>564.2</ele><time>2026-05-03T16:45:43Z</time></trkpt><trkpt lat="43.86138913790016" lon="18.428076497653525"><ele>565.8</ele><time>2026-05-03T16:45:44Z</time></trkpt><trkpt lat="43.86149481882355" lon="18.42806983786631"><ele>567.4</ele><time>2026-05-03T16:45:45Z</time></trkpt><trkpt lat="43.86160137996458" lon="18.428070565512005"><ele>569.0</ele><time>2026-05-03T16:45:46Z</time></trkpt><trkpt lat="43.861725336288146" lon="18.428053736992084"><ele>569.8</ele><time>2026-05-03T16:45:47Z</time></trkpt><trkpt lat="43.861822490393166" lon="18.42803738619033"><ele>570.5999999999999</ele><time>2026-05-03T16:45:48Z</time></trkpt><trkpt lat="43.86191876229663" lon="18.428044276979897"><ele>571.4</ele><time>2026-05-03T16:45:49Z</time></trkpt><trkpt lat="43.86200889286925" lon="18.428033861034944"><ele>572.1999999999999</ele><time>2026-05-03T16:45:50Z</time></trkpt><trkpt lat="43.86208686605734" lon="18.42802783318208"><ele>573.0</ele><time>2026-05-03T16:45:51Z</time></trkpt><trkpt lat="43.86217491957335" lon="18.428024087137967"><ele>573.0</ele><time>2026-05-03T16:45:52Z</time></trkpt><trkpt lat="43.862263077708306" lon="18.428014592649873"><ele>573.0</ele><time>2026-05-03T16:45:53Z</time></trkpt><trkpt lat="43.862358720583465" lon="18.428013125830876"><ele>573.0</ele><time>2026-05-03T16:45:54Z</time></trkpt><trkpt lat="43.86244440540516" lon="18.428002628025837"><ele>573.0</ele><time>2026-05-03T16:45:55Z</time></trkpt><trkpt lat="43.86253199379267" lon="18.427996853825437"><ele>573.0</ele><time>2026-05-03T16:45:56Z</time></trkpt><trkpt lat="43.862615963668624" lon="18.42799357762112"><ele>573.0</ele><time>2026-05-03T16:45:57Z</time></trkpt><trkpt lat="43.8627022648613" lon="18.4279828365587"><ele>574.8333333333334</ele><time>2026-05-03T16:45:58Z</time></trkpt><trkpt lat="43.862768372036015" lon="18.4279790485"><ele>576.6666666666666</ele><time>2026-05-03T16:45:59Z</time></trkpt><trkpt lat="43.86284681842706" lon="18.427982734225942"><ele>578.5</ele><time>2026-05-03T16:46:00Z</time></trkpt><trkpt lat="43.86292252048007" lon="18.427986020282667"><ele>580.3333333333333</ele><time>2026-05-03T16:46:01Z</time></trkpt><trkpt lat="43.86299526710688" lon="18.42798601978965"><ele>582.1666666666666</ele><time>2026-05-03T16:46:02Z</time></trkpt><trkpt lat="43.86313868760301" lon="18.427982964373104"><ele>584.0</ele><time>2026-05-03T16:46:04Z</time></trkpt><trkpt lat="43.863225509409006" lon="18.428019974084197"><ele>584.0</ele><time>2026-05-03T16:46:05Z</time></trkpt><trkpt lat="43.86331625657079" lon="18.428089353302223"><ele>584.0</ele><time>2026-05-03T16:46:06Z</time></trkpt><trkpt lat="43.863389871607914" lon="18.42813145377472"><ele>584.0</ele><time>2026-05-03T16:46:07Z</time></trkpt><trkpt lat="43.86345774706358" lon="18.42818693714719"><ele>584.0</ele><time>2026-05-03T16:46:08Z</time></trkpt><trkpt lat="43.863539337587206" lon="18.4282407799948"><ele>584.0</ele><time>2026-05-03T16:46:09Z</time></trkpt><trkpt lat="43.863615153579794" lon="18.42829327475854"><ele>584.0</ele><time>2026-05-03T16:46:10Z</time></trkpt><trkpt lat="43.863681324649946" lon="18.42834646535721"><ele>586.0</ele><time>2026-05-03T16:46:11Z</time></trkpt><trkpt lat="43.86374497317076" lon="18.428396509756524"><ele>588.0</ele><time>2026-05-03T16:46:12Z</time></trkpt><trkpt lat="43.86380197444859" lon="18.428439019658807"><ele>590.0</ele><time>2026-05-03T16:46:13Z</time></trkpt><trkpt lat="43.86388040958027" lon="18.42847582095034"><ele>592.0</ele><time>2026-05-03T16:46:14Z</time></trkpt><trkpt lat="43.86395608735974" lon="18.42851106039607"><ele>594.0</ele><time>2026-05-03T16:46:15Z</time></trkpt><trkpt lat="43.864045186727516" lon="18.4285424628741"><ele>596.0</ele><time>2026-05-03T16:46:16Z</time></trkpt><trkpt lat="43.864121220411256" lon="18.428575670892677"><ele>596.0</ele><time>2026-05-03T16:46:17Z</time></trkpt><trkpt lat="43.864208168478534" lon="18.428593163985017"><ele>596.0</ele><time>2026-05-03T16:46:18Z</time></trkpt><trkpt lat="43.864291325972715" lon="18.428620684614604"><ele>596.0</ele><time>2026-05-03T16:46:19Z</time></trkpt><trkpt lat="43.86436746768555" lon="18.428646540441445"><ele>596.0</ele><time>2026-05-03T16:46:20Z</time></trkpt><trkpt lat="43.86443595650575" lon="18.428664826229966"><ele>596.0</ele><time>2026-05-03T16:46:21Z</time></trkpt><trkpt lat="43.86452151426545" lon="18.42867361485664"><ele>596.0</ele><time>2026-05-03T16:46:22Z</time></trkpt><trkpt lat="43.86459761806743" lon="18.428707341200564"><ele>596.5</ele><time>2026-05-03T16:46:23Z</time></trkpt><trkpt lat="43.86466693408319" lon="18.428736145270058"><ele>597.0</ele><time>2026-05-03T16:46:24Z</time></trkpt><trkpt lat="43.86475553249254" lon="18.428750509474458"><ele>597.5</ele><time>2026-05-03T16:46:25Z</time></trkpt><trkpt lat="43.864829672379216" lon="18.428789676548067"><ele>598.0</ele><time>2026-05-03T16:46:26Z</time></trkpt><trkpt lat="43.86491790948745" lon="18.42879858221437"><ele>598.5</ele><time>2026-05-03T16:46:27Z</time></trkpt><trkpt lat="43.86499994585497" lon="18.428830274631185"><ele>599.0</ele><time>2026-05-03T16:46:28Z</time></trkpt><trkpt lat="43.865069285537544" lon="18.428856660479525"><ele>600.8</ele><time>2026-05-03T16:46:29Z</time></trkpt><trkpt lat="43.865149382421265" lon="18.428888855080135"><ele>602.5999999999999</ele><time>2026-05-03T16:46:30Z</time></trkpt><trkpt lat="43.86527943285919" lon="18.428942167432496"><ele>604.4</ele><time>2026-05-03T16:46:32Z</time></trkpt><trkpt lat="43.865407806307104" lon="18.42898815092355"><ele>606.1999999999999</ele><time>2026-05-03T16:46:34Z</time></trkpt><trkpt lat="43.86547793400358" lon="18.429016069909846"><ele>608.0</ele><time>2026-05-03T16:46:35Z</time></trkpt><trkpt lat="43.865587908010774" lon="18.429059817118215"><ele>608.0</ele><time>2026-05-03T16:46:37Z</time></trkpt><trkpt lat="43.86567682478422" lon="18.429080659056268"><ele>608.0</ele><time>2026-05-03T16:46:40Z</time></trkpt><trkpt lat="43.86574419658993" lon="18.429103041156996"><ele>608.0</ele><time>2026-05-03T16:46:42Z</time></trkpt><trkpt lat="43.86580154727362" lon="18.42915481048147"><ele>608.0</ele><time>2026-05-03T16:46:44Z</time></trkpt><trkpt lat="43.86590409971625" lon="18.429181910536826"><ele>608.0</ele><time>2026-05-03T16:46:46Z</time></trkpt><trkpt lat="43.86596980571386" lon="18.429173295760307"><ele>608.0</ele><time>2026-05-03T16:46:47Z</time></trkpt><trkpt lat="43.86609381042599" lon="18.429124638833095"><ele>609.0</ele><time>2026-05-03T16:46:49Z</time></trkpt><trkpt lat="43.866187690694254" lon="18.429079508923742"><ele>610.0</ele><time>2026-05-03T16:46:51Z</time></trkpt><trkpt lat="43.866251966621" lon="18.42904989748002"><ele>611.0</ele><time>2026-05-03T16:46:53Z</time></trkpt><trkpt lat="43.86632556719725" lon="18.429014066939384"><ele>612.0</ele><time>2026-05-03T16:46:55Z</time></trkpt><trkpt lat="43.86639424961915" lon="18.428984876180753"><ele>613.0</ele><time>2026-05-03T16:46:58Z</time></trkpt><trkpt lat="43.866487983601154" lon="18.42894879699173"><ele>614.0</ele><time>2026-05-03T16:47:01Z</time></trkpt><trkpt lat="43.86656348830829" lon="18.42890955574839"><ele>614.0</ele><time>2026-05-03T16:47:03Z</time></trkpt><trkpt lat="43.86663241372768" lon="18.428875371720835"><ele>614.0</ele><time>2026-05-03T16:47:05Z</time></trkpt><trkpt lat="43.86670731282648" lon="18.42882839698818"><ele>614.0</ele><time>2026-05-03T16:47:07Z</time></trkpt><trkpt lat="43.86678200209407" lon="18.42879621630287"><ele>614.0</ele><time>2026-05-03T16:47:09Z</time></trkpt><trkpt lat="43.86685847844519" lon="18.42875765456718"><ele>614.0</ele><time>2026-05-03T16:47:11Z</time></trkpt><trkpt lat="43.866947444744866" lon="18.42871590477432"><ele>614.0</ele><time>2026-05-03T16:47:13Z</time></trkpt><trkpt lat="43.8670282953143" lon="18.42867165495567"><ele>615.3333333333333</ele><time>2026-05-03T16:47:15Z</time></trkpt><trkpt lat="43.86711016842752" lon="18.428633999529083"><ele>616.6666666666666</ele><time>2026-05-03T16:47:17Z</time></trkpt><trkpt lat="43.86717954278529" lon="18.42860519947545"><ele>618.0</ele><time>2026-05-03T16:47:19Z</time></trkpt><trkpt lat="43.86725542876562" lon="18.42856032718247"><ele>619.3333333333334</ele><time>2026-05-03T16:47:22Z</time></trkpt><trkpt lat="43.86718399282678" lon="18.428535755403907"><ele>620.6666666666667</ele><time>2026-05-03T16:48:16Z</time></trkpt><trkpt lat="43.867114744323594" lon="18.428579973582323"><ele>622.0</ele><time>2026-05-03T16:48:18Z</time></trkpt><trkpt lat="43.867050465369644" lon="18.428614335116272"><ele>622.0</ele><time>2026-05-03T16:48:20Z</time></trkpt><trkpt lat="43.86696066927553" lon="18.42866769155901"><ele>622.0</ele><time>2026-05-03T16:48:22Z</time></trkpt><trkpt lat="43.866866481693584" lon="18.428719365800287"><ele>622.0</ele><time>2026-05-03T16:48:24Z</time></trkpt><trkpt lat="43.86678331390863" lon="18.42876027065723"><ele>622.0</ele><time>2026-05-03T16:48:26Z</time></trkpt><trkpt lat="43.86671343307795" lon="18.428801832777495"><ele>622.0</ele><time>2026-05-03T16:48:28Z</time></trkpt><trkpt lat="43.86660808301907" lon="18.42885482214593"><ele>614.0</ele><time>2026-05-03T16:48:30Z</time></trkpt><trkpt lat="43.86653920575168" lon="18.428893786378"><ele>614.0</ele><time>2026-05-03T16:48:32Z</time></trkpt><trkpt lat="43.86647919292727" lon="18.428927297601806"><ele>614.0</ele><time>2026-05-03T16:48:36Z</time></trkpt></trkseg></trk></gpx>